<?xml version="1.0" encoding="UTF-8" standalone="no" ?>
<gpx xmlns="http://www.topografix.com/GPX/1/1" xmlns:xsi="http://www.w3.org/2001/XMLSchema-instance" xsi:schemaLocation="http://www.topografix.com/GPX/1/1 http://www.topografix.com/GPX/1/1/gpx.xsd" version="1.1" creator="VisuGPX - https://www.visugpx.com">
  <metadata>
    <name>Cyclo : Tour du lac d\'Annecy</name>
    <desc><![CDATA[St Jorioz - tour du lac]]></desc>
  </metadata>
  <trk>
    <name><![CDATA[Tour du lac d'Annecy]]></name>
    <trkseg>
      <trkpt lat="45.81756" lon="6.14814">
        <ele>552.9</ele>
        <time>2013-08-17T08:12:55Z</time>
      </trkpt>
      <trkpt lat="45.81759" lon="6.14813">
        <ele>552.6</ele>
        <time>2013-08-17T08:13:39Z</time>
      </trkpt>
      <trkpt lat="45.81762" lon="6.14817">
        <ele>553.1</ele>
        <time>2013-08-17T08:13:42Z</time>
      </trkpt>
      <trkpt lat="45.81765" lon="6.14819">
        <ele>553.3</ele>
        <time>2013-08-17T08:13:44Z</time>
      </trkpt>
      <trkpt lat="45.81768" lon="6.1482">
        <ele>553.3</ele>
        <time>2013-08-17T08:13:46Z</time>
      </trkpt>
      <trkpt lat="45.81772" lon="6.14822">
        <ele>553.3</ele>
        <time>2013-08-17T08:13:48Z</time>
      </trkpt>
      <trkpt lat="45.81776" lon="6.14823">
        <ele>553.3</ele>
        <time>2013-08-17T08:13:50Z</time>
      </trkpt>
      <trkpt lat="45.8178" lon="6.14822">
        <ele>552.8</ele>
        <time>2013-08-17T08:13:52Z</time>
      </trkpt>
      <trkpt lat="45.81784" lon="6.14821">
        <ele>552.4</ele>
        <time>2013-08-17T08:13:53Z</time>
      </trkpt>
      <trkpt lat="45.81788" lon="6.1482">
        <ele>552</ele>
        <time>2013-08-17T08:13:54Z</time>
      </trkpt>
      <trkpt lat="45.81792" lon="6.14819">
        <ele>551.5</ele>
        <time>2013-08-17T08:13:55Z</time>
      </trkpt>
      <trkpt lat="45.81796" lon="6.14818">
        <ele>551</ele>
        <time>2013-08-17T08:13:56Z</time>
      </trkpt>
      <trkpt lat="45.818" lon="6.14818">
        <ele>550.5</ele>
        <time>2013-08-17T08:13:57Z</time>
      </trkpt>
      <trkpt lat="45.81803" lon="6.14817">
        <ele>550.1</ele>
        <time>2013-08-17T08:13:58Z</time>
      </trkpt>
      <trkpt lat="45.81808" lon="6.14814">
        <ele>549.1</ele>
        <time>2013-08-17T08:14:00Z</time>
      </trkpt>
      <trkpt lat="45.81809" lon="6.14807">
        <ele>547.9</ele>
        <time>2013-08-17T08:14:02Z</time>
      </trkpt>
      <trkpt lat="45.81809" lon="6.14802">
        <ele>547.2</ele>
        <time>2013-08-17T08:14:03Z</time>
      </trkpt>
      <trkpt lat="45.81809" lon="6.14798">
        <ele>546.5</ele>
        <time>2013-08-17T08:14:04Z</time>
      </trkpt>
      <trkpt lat="45.81808" lon="6.14793">
        <ele>545.8</ele>
        <time>2013-08-17T08:14:05Z</time>
      </trkpt>
      <trkpt lat="45.81807" lon="6.14788">
        <ele>545.3</ele>
        <time>2013-08-17T08:14:06Z</time>
      </trkpt>
      <trkpt lat="45.81806" lon="6.14784">
        <ele>545.1</ele>
        <time>2013-08-17T08:14:07Z</time>
      </trkpt>
      <trkpt lat="45.81804" lon="6.1478">
        <ele>544.8</ele>
        <time>2013-08-17T08:14:08Z</time>
      </trkpt>
      <trkpt lat="45.81801" lon="6.14776">
        <ele>544.5</ele>
        <time>2013-08-17T08:14:10Z</time>
      </trkpt>
      <trkpt lat="45.81796" lon="6.1477">
        <ele>544.2</ele>
        <time>2013-08-17T08:14:12Z</time>
      </trkpt>
      <trkpt lat="45.81793" lon="6.14766">
        <ele>543.8</ele>
        <time>2013-08-17T08:14:13Z</time>
      </trkpt>
      <trkpt lat="45.8179" lon="6.1476">
        <ele>543.3</ele>
        <time>2013-08-17T08:14:14Z</time>
      </trkpt>
      <trkpt lat="45.81786" lon="6.14754">
        <ele>542.7</ele>
        <time>2013-08-17T08:14:15Z</time>
      </trkpt>
      <trkpt lat="45.81783" lon="6.14747">
        <ele>541.9</ele>
        <time>2013-08-17T08:14:16Z</time>
      </trkpt>
      <trkpt lat="45.8178" lon="6.14741">
        <ele>541.2</ele>
        <time>2013-08-17T08:14:17Z</time>
      </trkpt>
      <trkpt lat="45.81777" lon="6.14735">
        <ele>540.5</ele>
        <time>2013-08-17T08:14:18Z</time>
      </trkpt>
      <trkpt lat="45.81776" lon="6.14728">
        <ele>539.7</ele>
        <time>2013-08-17T08:14:19Z</time>
      </trkpt>
      <trkpt lat="45.81775" lon="6.14722">
        <ele>538.9</ele>
        <time>2013-08-17T08:14:20Z</time>
      </trkpt>
      <trkpt lat="45.81775" lon="6.14716">
        <ele>538.2</ele>
        <time>2013-08-17T08:14:21Z</time>
      </trkpt>
      <trkpt lat="45.81775" lon="6.14712">
        <ele>537.6</ele>
        <time>2013-08-17T08:14:22Z</time>
      </trkpt>
      <trkpt lat="45.81778" lon="6.14706">
        <ele>537.5</ele>
        <time>2013-08-17T08:14:24Z</time>
      </trkpt>
      <trkpt lat="45.81782" lon="6.14704">
        <ele>537.7</ele>
        <time>2013-08-17T08:14:26Z</time>
      </trkpt>
      <trkpt lat="45.81785" lon="6.14704">
        <ele>537.7</ele>
        <time>2013-08-17T08:14:27Z</time>
      </trkpt>
      <trkpt lat="45.81788" lon="6.14703">
        <ele>537.8</ele>
        <time>2013-08-17T08:14:29Z</time>
      </trkpt>
      <trkpt lat="45.81793" lon="6.14702">
        <ele>538</ele>
        <time>2013-08-17T08:14:32Z</time>
      </trkpt>
      <trkpt lat="45.81798" lon="6.14703">
        <ele>538.2</ele>
        <time>2013-08-17T08:14:34Z</time>
      </trkpt>
      <trkpt lat="45.81801" lon="6.14704">
        <ele>538.1</ele>
        <time>2013-08-17T08:14:35Z</time>
      </trkpt>
      <trkpt lat="45.81805" lon="6.14707">
        <ele>537.9</ele>
        <time>2013-08-17T08:14:36Z</time>
      </trkpt>
      <trkpt lat="45.81809" lon="6.14709">
        <ele>537.9</ele>
        <time>2013-08-17T08:14:37Z</time>
      </trkpt>
      <trkpt lat="45.81813" lon="6.14717">
        <ele>538.8</ele>
        <time>2013-08-17T08:14:38Z</time>
      </trkpt>
      <trkpt lat="45.81818" lon="6.1472">
        <ele>539.2</ele>
        <time>2013-08-17T08:14:39Z</time>
      </trkpt>
      <trkpt lat="45.81824" lon="6.14723">
        <ele>539.5</ele>
        <time>2013-08-17T08:14:40Z</time>
      </trkpt>
      <trkpt lat="45.8183" lon="6.14726">
        <ele>539.9</ele>
        <time>2013-08-17T08:14:41Z</time>
      </trkpt>
      <trkpt lat="45.81836" lon="6.14729">
        <ele>540.1</ele>
        <time>2013-08-17T08:14:42Z</time>
      </trkpt>
      <trkpt lat="45.81843" lon="6.14732">
        <ele>540.4</ele>
        <time>2013-08-17T08:14:43Z</time>
      </trkpt>
      <trkpt lat="45.81849" lon="6.14732">
        <ele>540.5</ele>
        <time>2013-08-17T08:14:44Z</time>
      </trkpt>
      <trkpt lat="45.81858" lon="6.14733">
        <ele>540.5</ele>
        <time>2013-08-17T08:14:45Z</time>
      </trkpt>
      <trkpt lat="45.81865" lon="6.14732">
        <ele>540.6</ele>
        <time>2013-08-17T08:14:46Z</time>
      </trkpt>
      <trkpt lat="45.81872" lon="6.14731">
        <ele>540.7</ele>
        <time>2013-08-17T08:14:47Z</time>
      </trkpt>
      <trkpt lat="45.8188" lon="6.1473">
        <ele>540.4</ele>
        <time>2013-08-17T08:14:48Z</time>
      </trkpt>
      <trkpt lat="45.81887" lon="6.14727">
        <ele>540</ele>
        <time>2013-08-17T08:14:49Z</time>
      </trkpt>
      <trkpt lat="45.81893" lon="6.14725">
        <ele>539.5</ele>
        <time>2013-08-17T08:14:50Z</time>
      </trkpt>
      <trkpt lat="45.819" lon="6.14725">
        <ele>539</ele>
        <time>2013-08-17T08:14:51Z</time>
      </trkpt>
      <trkpt lat="45.81909" lon="6.14724">
        <ele>538.5</ele>
        <time>2013-08-17T08:14:52Z</time>
      </trkpt>
      <trkpt lat="45.81917" lon="6.14725">
        <ele>537.9</ele>
        <time>2013-08-17T08:14:53Z</time>
      </trkpt>
      <trkpt lat="45.81925" lon="6.14727">
        <ele>537.2</ele>
        <time>2013-08-17T08:14:54Z</time>
      </trkpt>
      <trkpt lat="45.81932" lon="6.14733">
        <ele>536.5</ele>
        <time>2013-08-17T08:14:55Z</time>
      </trkpt>
      <trkpt lat="45.81938" lon="6.1474">
        <ele>535.7</ele>
        <time>2013-08-17T08:14:56Z</time>
      </trkpt>
      <trkpt lat="45.81944" lon="6.14748">
        <ele>534.8</ele>
        <time>2013-08-17T08:14:57Z</time>
      </trkpt>
      <trkpt lat="45.81949" lon="6.14757">
        <ele>533.9</ele>
        <time>2013-08-17T08:14:58Z</time>
      </trkpt>
      <trkpt lat="45.81955" lon="6.14765">
        <ele>532.9</ele>
        <time>2013-08-17T08:14:59Z</time>
      </trkpt>
      <trkpt lat="45.81962" lon="6.14772">
        <ele>532</ele>
        <time>2013-08-17T08:15:00Z</time>
      </trkpt>
      <trkpt lat="45.81971" lon="6.1478">
        <ele>531.1</ele>
        <time>2013-08-17T08:15:01Z</time>
      </trkpt>
      <trkpt lat="45.8198" lon="6.14785">
        <ele>530.3</ele>
        <time>2013-08-17T08:15:02Z</time>
      </trkpt>
      <trkpt lat="45.81989" lon="6.14788">
        <ele>529.6</ele>
        <time>2013-08-17T08:15:03Z</time>
      </trkpt>
      <trkpt lat="45.81998" lon="6.14791">
        <ele>528.6</ele>
        <time>2013-08-17T08:15:04Z</time>
      </trkpt>
      <trkpt lat="45.82008" lon="6.14794">
        <ele>528.1</ele>
        <time>2013-08-17T08:15:05Z</time>
      </trkpt>
      <trkpt lat="45.82016" lon="6.14796">
        <ele>527.6</ele>
        <time>2013-08-17T08:15:06Z</time>
      </trkpt>
      <trkpt lat="45.82025" lon="6.14799">
        <ele>527.1</ele>
        <time>2013-08-17T08:15:07Z</time>
      </trkpt>
      <trkpt lat="45.82033" lon="6.14801">
        <ele>526.6</ele>
        <time>2013-08-17T08:15:08Z</time>
      </trkpt>
      <trkpt lat="45.82041" lon="6.14804">
        <ele>526.1</ele>
        <time>2013-08-17T08:15:09Z</time>
      </trkpt>
      <trkpt lat="45.82049" lon="6.14806">
        <ele>526</ele>
        <time>2013-08-17T08:15:10Z</time>
      </trkpt>
      <trkpt lat="45.82057" lon="6.14808">
        <ele>526</ele>
        <time>2013-08-17T08:15:11Z</time>
      </trkpt>
      <trkpt lat="45.82066" lon="6.1481">
        <ele>525.9</ele>
        <time>2013-08-17T08:15:12Z</time>
      </trkpt>
      <trkpt lat="45.82073" lon="6.14813">
        <ele>525.8</ele>
        <time>2013-08-17T08:15:13Z</time>
      </trkpt>
      <trkpt lat="45.8208" lon="6.14816">
        <ele>525.7</ele>
        <time>2013-08-17T08:15:14Z</time>
      </trkpt>
      <trkpt lat="45.82089" lon="6.14817">
        <ele>525.5</ele>
        <time>2013-08-17T08:15:15Z</time>
      </trkpt>
      <trkpt lat="45.82096" lon="6.1482">
        <ele>525.3</ele>
        <time>2013-08-17T08:15:16Z</time>
      </trkpt>
      <trkpt lat="45.82105" lon="6.14822">
        <ele>525.1</ele>
        <time>2013-08-17T08:15:17Z</time>
      </trkpt>
      <trkpt lat="45.82113" lon="6.14825">
        <ele>524.8</ele>
        <time>2013-08-17T08:15:18Z</time>
      </trkpt>
      <trkpt lat="45.8212" lon="6.14827">
        <ele>524.5</ele>
        <time>2013-08-17T08:15:19Z</time>
      </trkpt>
      <trkpt lat="45.8213" lon="6.1483">
        <ele>524.1</ele>
        <time>2013-08-17T08:15:20Z</time>
      </trkpt>
      <trkpt lat="45.82136" lon="6.14832">
        <ele>523.8</ele>
        <time>2013-08-17T08:15:21Z</time>
      </trkpt>
      <trkpt lat="45.82144" lon="6.14834">
        <ele>523.4</ele>
        <time>2013-08-17T08:15:22Z</time>
      </trkpt>
      <trkpt lat="45.82151" lon="6.14836">
        <ele>523</ele>
        <time>2013-08-17T08:15:23Z</time>
      </trkpt>
      <trkpt lat="45.82157" lon="6.14835">
        <ele>522.9</ele>
        <time>2013-08-17T08:15:24Z</time>
      </trkpt>
      <trkpt lat="45.82165" lon="6.14829">
        <ele>523.1</ele>
        <time>2013-08-17T08:15:25Z</time>
      </trkpt>
      <trkpt lat="45.82173" lon="6.14823">
        <ele>523.3</ele>
        <time>2013-08-17T08:15:26Z</time>
      </trkpt>
      <trkpt lat="45.8218" lon="6.14819">
        <ele>523.3</ele>
        <time>2013-08-17T08:15:27Z</time>
      </trkpt>
      <trkpt lat="45.82187" lon="6.14815">
        <ele>523.3</ele>
        <time>2013-08-17T08:15:28Z</time>
      </trkpt>
      <trkpt lat="45.82195" lon="6.1481">
        <ele>523.3</ele>
        <time>2013-08-17T08:15:29Z</time>
      </trkpt>
      <trkpt lat="45.82202" lon="6.14806">
        <ele>523.3</ele>
        <time>2013-08-17T08:15:30Z</time>
      </trkpt>
      <trkpt lat="45.8221" lon="6.14803">
        <ele>523.1</ele>
        <time>2013-08-17T08:15:31Z</time>
      </trkpt>
      <trkpt lat="45.82216" lon="6.14801">
        <ele>522.6</ele>
        <time>2013-08-17T08:15:32Z</time>
      </trkpt>
      <trkpt lat="45.82223" lon="6.148">
        <ele>521.8</ele>
        <time>2013-08-17T08:15:33Z</time>
      </trkpt>
      <trkpt lat="45.82231" lon="6.14802">
        <ele>520.9</ele>
        <time>2013-08-17T08:15:34Z</time>
      </trkpt>
      <trkpt lat="45.82239" lon="6.14805">
        <ele>519.9</ele>
        <time>2013-08-17T08:15:35Z</time>
      </trkpt>
      <trkpt lat="45.82246" lon="6.14809">
        <ele>518.9</ele>
        <time>2013-08-17T08:15:36Z</time>
      </trkpt>
      <trkpt lat="45.82252" lon="6.14814">
        <ele>518.2</ele>
        <time>2013-08-17T08:15:37Z</time>
      </trkpt>
      <trkpt lat="45.82256" lon="6.14821">
        <ele>517.6</ele>
        <time>2013-08-17T08:15:38Z</time>
      </trkpt>
      <trkpt lat="45.82259" lon="6.14829">
        <ele>517.1</ele>
        <time>2013-08-17T08:15:39Z</time>
      </trkpt>
      <trkpt lat="45.82262" lon="6.14839">
        <ele>516.5</ele>
        <time>2013-08-17T08:15:40Z</time>
      </trkpt>
      <trkpt lat="45.82264" lon="6.14851">
        <ele>516.2</ele>
        <time>2013-08-17T08:15:41Z</time>
      </trkpt>
      <trkpt lat="45.82262" lon="6.1486">
        <ele>516.1</ele>
        <time>2013-08-17T08:15:42Z</time>
      </trkpt>
      <trkpt lat="45.82261" lon="6.14869">
        <ele>516</ele>
        <time>2013-08-17T08:15:43Z</time>
      </trkpt>
      <trkpt lat="45.82259" lon="6.14881">
        <ele>516.4</ele>
        <time>2013-08-17T08:15:44Z</time>
      </trkpt>
      <trkpt lat="45.82259" lon="6.14889">
        <ele>517.1</ele>
        <time>2013-08-17T08:15:45Z</time>
      </trkpt>
      <trkpt lat="45.82258" lon="6.14895">
        <ele>517.6</ele>
        <time>2013-08-17T08:15:46Z</time>
      </trkpt>
      <trkpt lat="45.82259" lon="6.14906">
        <ele>518.5</ele>
        <time>2013-08-17T08:15:47Z</time>
      </trkpt>
      <trkpt lat="45.82259" lon="6.14916">
        <ele>519.2</ele>
        <time>2013-08-17T08:15:48Z</time>
      </trkpt>
      <trkpt lat="45.8226" lon="6.14926">
        <ele>519.8</ele>
        <time>2013-08-17T08:15:49Z</time>
      </trkpt>
      <trkpt lat="45.8226" lon="6.14933">
        <ele>520.4</ele>
        <time>2013-08-17T08:15:50Z</time>
      </trkpt>
      <trkpt lat="45.82263" lon="6.14943">
        <ele>520.8</ele>
        <time>2013-08-17T08:15:51Z</time>
      </trkpt>
      <trkpt lat="45.82265" lon="6.14955">
        <ele>521.2</ele>
        <time>2013-08-17T08:15:52Z</time>
      </trkpt>
      <trkpt lat="45.82269" lon="6.14966">
        <ele>521.1</ele>
        <time>2013-08-17T08:15:53Z</time>
      </trkpt>
      <trkpt lat="45.82273" lon="6.14974">
        <ele>520.6</ele>
        <time>2013-08-17T08:15:54Z</time>
      </trkpt>
      <trkpt lat="45.8228" lon="6.14984">
        <ele>519.7</ele>
        <time>2013-08-17T08:15:55Z</time>
      </trkpt>
      <trkpt lat="45.82283" lon="6.14996">
        <ele>519.4</ele>
        <time>2013-08-17T08:15:56Z</time>
      </trkpt>
      <trkpt lat="45.8229" lon="6.15005">
        <ele>518.2</ele>
        <time>2013-08-17T08:15:57Z</time>
      </trkpt>
      <trkpt lat="45.82297" lon="6.15016">
        <ele>517.2</ele>
        <time>2013-08-17T08:15:58Z</time>
      </trkpt>
      <trkpt lat="45.82305" lon="6.15025">
        <ele>516.3</ele>
        <time>2013-08-17T08:15:59Z</time>
      </trkpt>
      <trkpt lat="45.82312" lon="6.15035">
        <ele>515.4</ele>
        <time>2013-08-17T08:16:00Z</time>
      </trkpt>
      <trkpt lat="45.8232" lon="6.15044">
        <ele>514.4</ele>
        <time>2013-08-17T08:16:01Z</time>
      </trkpt>
      <trkpt lat="45.82329" lon="6.15057">
        <ele>513.5</ele>
        <time>2013-08-17T08:16:03Z</time>
      </trkpt>
      <trkpt lat="45.82334" lon="6.15063">
        <ele>513.1</ele>
        <time>2013-08-17T08:16:04Z</time>
      </trkpt>
      <trkpt lat="45.82342" lon="6.15072">
        <ele>512.2</ele>
        <time>2013-08-17T08:16:05Z</time>
      </trkpt>
      <trkpt lat="45.82355" lon="6.1508">
        <ele>510.6</ele>
        <time>2013-08-17T08:16:06Z</time>
      </trkpt>
      <trkpt lat="45.82368" lon="6.15087">
        <ele>508.8</ele>
        <time>2013-08-17T08:16:07Z</time>
      </trkpt>
      <trkpt lat="45.82379" lon="6.15092">
        <ele>507.6</ele>
        <time>2013-08-17T08:16:08Z</time>
      </trkpt>
      <trkpt lat="45.82388" lon="6.15094">
        <ele>506.9</ele>
        <time>2013-08-17T08:16:09Z</time>
      </trkpt>
      <trkpt lat="45.82395" lon="6.15096">
        <ele>506.4</ele>
        <time>2013-08-17T08:16:10Z</time>
      </trkpt>
      <trkpt lat="45.82406" lon="6.151">
        <ele>505.4</ele>
        <time>2013-08-17T08:16:11Z</time>
      </trkpt>
      <trkpt lat="45.82415" lon="6.15105">
        <ele>504.9</ele>
        <time>2013-08-17T08:16:12Z</time>
      </trkpt>
      <trkpt lat="45.82422" lon="6.15109">
        <ele>504.3</ele>
        <time>2013-08-17T08:16:13Z</time>
      </trkpt>
      <trkpt lat="45.82431" lon="6.15114">
        <ele>503.6</ele>
        <time>2013-08-17T08:16:14Z</time>
      </trkpt>
      <trkpt lat="45.82433" lon="6.15115">
        <ele>503.4</ele>
        <time>2013-08-17T08:16:15Z</time>
      </trkpt>
      <trkpt lat="45.82444" lon="6.15122">
        <ele>502.4</ele>
        <time>2013-08-17T08:16:16Z</time>
      </trkpt>
      <trkpt lat="45.82456" lon="6.15129">
        <ele>501.6</ele>
        <time>2013-08-17T08:16:17Z</time>
      </trkpt>
      <trkpt lat="45.82463" lon="6.15133">
        <ele>501.2</ele>
        <time>2013-08-17T08:16:18Z</time>
      </trkpt>
      <trkpt lat="45.82472" lon="6.15139">
        <ele>501</ele>
        <time>2013-08-17T08:16:19Z</time>
      </trkpt>
      <trkpt lat="45.8248" lon="6.15144">
        <ele>500.7</ele>
        <time>2013-08-17T08:16:20Z</time>
      </trkpt>
      <trkpt lat="45.82488" lon="6.15147">
        <ele>500.3</ele>
        <time>2013-08-17T08:16:21Z</time>
      </trkpt>
      <trkpt lat="45.82496" lon="6.15149">
        <ele>499.9</ele>
        <time>2013-08-17T08:16:22Z</time>
      </trkpt>
      <trkpt lat="45.82501" lon="6.15151">
        <ele>499.5</ele>
        <time>2013-08-17T08:16:23Z</time>
      </trkpt>
      <trkpt lat="45.82507" lon="6.15152">
        <ele>499.1</ele>
        <time>2013-08-17T08:16:24Z</time>
      </trkpt>
      <trkpt lat="45.82517" lon="6.15154">
        <ele>498.4</ele>
        <time>2013-08-17T08:16:25Z</time>
      </trkpt>
      <trkpt lat="45.82524" lon="6.15155">
        <ele>498</ele>
        <time>2013-08-17T08:16:26Z</time>
      </trkpt>
      <trkpt lat="45.82531" lon="6.15155">
        <ele>497.4</ele>
        <time>2013-08-17T08:16:27Z</time>
      </trkpt>
      <trkpt lat="45.82538" lon="6.15158">
        <ele>496.9</ele>
        <time>2013-08-17T08:16:28Z</time>
      </trkpt>
      <trkpt lat="45.82544" lon="6.1516">
        <ele>496.5</ele>
        <time>2013-08-17T08:16:29Z</time>
      </trkpt>
      <trkpt lat="45.82551" lon="6.15163">
        <ele>496.4</ele>
        <time>2013-08-17T08:16:30Z</time>
      </trkpt>
      <trkpt lat="45.82557" lon="6.15163">
        <ele>496.3</ele>
        <time>2013-08-17T08:16:31Z</time>
      </trkpt>
      <trkpt lat="45.82565" lon="6.1516">
        <ele>496.2</ele>
        <time>2013-08-17T08:16:32Z</time>
      </trkpt>
      <trkpt lat="45.82572" lon="6.1514">
        <ele>496.4</ele>
        <time>2013-08-17T08:16:33Z</time>
      </trkpt>
      <trkpt lat="45.82575" lon="6.15137">
        <ele>496.4</ele>
        <time>2013-08-17T08:16:34Z</time>
      </trkpt>
      <trkpt lat="45.82578" lon="6.15135">
        <ele>496.4</ele>
        <time>2013-08-17T08:16:35Z</time>
      </trkpt>
      <trkpt lat="45.82585" lon="6.15133">
        <ele>496.3</ele>
        <time>2013-08-17T08:16:37Z</time>
      </trkpt>
      <trkpt lat="45.82599" lon="6.1514">
        <ele>496</ele>
        <time>2013-08-17T08:16:40Z</time>
      </trkpt>
      <trkpt lat="45.82603" lon="6.15139">
        <ele>496</ele>
        <time>2013-08-17T08:16:41Z</time>
      </trkpt>
      <trkpt lat="45.82606" lon="6.15141">
        <ele>495.9</ele>
        <time>2013-08-17T08:16:42Z</time>
      </trkpt>
      <trkpt lat="45.82609" lon="6.15143">
        <ele>495.8</ele>
        <time>2013-08-17T08:16:43Z</time>
      </trkpt>
      <trkpt lat="45.82615" lon="6.15145">
        <ele>495.7</ele>
        <time>2013-08-17T08:16:44Z</time>
      </trkpt>
      <trkpt lat="45.82619" lon="6.15147">
        <ele>495.6</ele>
        <time>2013-08-17T08:16:45Z</time>
      </trkpt>
      <trkpt lat="45.82623" lon="6.15148">
        <ele>495.5</ele>
        <time>2013-08-17T08:16:46Z</time>
      </trkpt>
      <trkpt lat="45.82627" lon="6.1515">
        <ele>495.3</ele>
        <time>2013-08-17T08:16:47Z</time>
      </trkpt>
      <trkpt lat="45.82632" lon="6.15152">
        <ele>495.2</ele>
        <time>2013-08-17T08:16:48Z</time>
      </trkpt>
      <trkpt lat="45.82635" lon="6.15152">
        <ele>495.1</ele>
        <time>2013-08-17T08:16:49Z</time>
      </trkpt>
      <trkpt lat="45.82639" lon="6.15155">
        <ele>494.9</ele>
        <time>2013-08-17T08:16:50Z</time>
      </trkpt>
      <trkpt lat="45.82642" lon="6.15159">
        <ele>494.7</ele>
        <time>2013-08-17T08:16:51Z</time>
      </trkpt>
      <trkpt lat="45.82646" lon="6.15159">
        <ele>494.6</ele>
        <time>2013-08-17T08:16:52Z</time>
      </trkpt>
      <trkpt lat="45.82651" lon="6.15163">
        <ele>494.3</ele>
        <time>2013-08-17T08:16:53Z</time>
      </trkpt>
      <trkpt lat="45.82656" lon="6.15166">
        <ele>494.1</ele>
        <time>2013-08-17T08:16:54Z</time>
      </trkpt>
      <trkpt lat="45.82664" lon="6.15168">
        <ele>493.8</ele>
        <time>2013-08-17T08:16:55Z</time>
      </trkpt>
      <trkpt lat="45.8267" lon="6.1517">
        <ele>493.6</ele>
        <time>2013-08-17T08:16:56Z</time>
      </trkpt>
      <trkpt lat="45.82674" lon="6.15171">
        <ele>493.4</ele>
        <time>2013-08-17T08:16:57Z</time>
      </trkpt>
      <trkpt lat="45.82678" lon="6.15173">
        <ele>493.2</ele>
        <time>2013-08-17T08:16:58Z</time>
      </trkpt>
      <trkpt lat="45.82684" lon="6.15177">
        <ele>492.9</ele>
        <time>2013-08-17T08:16:59Z</time>
      </trkpt>
      <trkpt lat="45.82691" lon="6.1518">
        <ele>492.6</ele>
        <time>2013-08-17T08:17:00Z</time>
      </trkpt>
      <trkpt lat="45.82695" lon="6.15182">
        <ele>492.4</ele>
        <time>2013-08-17T08:17:01Z</time>
      </trkpt>
      <trkpt lat="45.82702" lon="6.15184">
        <ele>492.1</ele>
        <time>2013-08-17T08:17:02Z</time>
      </trkpt>
      <trkpt lat="45.82708" lon="6.15186">
        <ele>491.8</ele>
        <time>2013-08-17T08:17:03Z</time>
      </trkpt>
      <trkpt lat="45.82715" lon="6.15188">
        <ele>491.9</ele>
        <time>2013-08-17T08:17:04Z</time>
      </trkpt>
      <trkpt lat="45.82721" lon="6.1519">
        <ele>491.9</ele>
        <time>2013-08-17T08:17:05Z</time>
      </trkpt>
      <trkpt lat="45.82726" lon="6.15191">
        <ele>492</ele>
        <time>2013-08-17T08:17:06Z</time>
      </trkpt>
      <trkpt lat="45.82732" lon="6.15193">
        <ele>492</ele>
        <time>2013-08-17T08:17:07Z</time>
      </trkpt>
      <trkpt lat="45.82737" lon="6.15194">
        <ele>492</ele>
        <time>2013-08-17T08:17:08Z</time>
      </trkpt>
      <trkpt lat="45.82742" lon="6.15196">
        <ele>492</ele>
        <time>2013-08-17T08:17:09Z</time>
      </trkpt>
      <trkpt lat="45.82747" lon="6.15199">
        <ele>492</ele>
        <time>2013-08-17T08:17:10Z</time>
      </trkpt>
      <trkpt lat="45.82751" lon="6.15201">
        <ele>491.9</ele>
        <time>2013-08-17T08:17:11Z</time>
      </trkpt>
      <trkpt lat="45.82757" lon="6.15203">
        <ele>491.9</ele>
        <time>2013-08-17T08:17:12Z</time>
      </trkpt>
      <trkpt lat="45.82762" lon="6.15205">
        <ele>491.9</ele>
        <time>2013-08-17T08:17:13Z</time>
      </trkpt>
      <trkpt lat="45.82765" lon="6.15208">
        <ele>491.7</ele>
        <time>2013-08-17T08:17:14Z</time>
      </trkpt>
      <trkpt lat="45.82769" lon="6.1521">
        <ele>491.7</ele>
        <time>2013-08-17T08:17:15Z</time>
      </trkpt>
      <trkpt lat="45.82775" lon="6.15205">
        <ele>492</ele>
        <time>2013-08-17T08:17:17Z</time>
      </trkpt>
      <trkpt lat="45.82781" lon="6.15205">
        <ele>492.1</ele>
        <time>2013-08-17T08:17:18Z</time>
      </trkpt>
      <trkpt lat="45.82793" lon="6.15204">
        <ele>492.3</ele>
        <time>2013-08-17T08:17:19Z</time>
      </trkpt>
      <trkpt lat="45.82798" lon="6.15204">
        <ele>492.4</ele>
        <time>2013-08-17T08:17:20Z</time>
      </trkpt>
      <trkpt lat="45.82803" lon="6.15203">
        <ele>492.5</ele>
        <time>2013-08-17T08:17:21Z</time>
      </trkpt>
      <trkpt lat="45.82808" lon="6.15202">
        <ele>492.6</ele>
        <time>2013-08-17T08:17:22Z</time>
      </trkpt>
      <trkpt lat="45.82814" lon="6.15201">
        <ele>492.8</ele>
        <time>2013-08-17T08:17:23Z</time>
      </trkpt>
      <trkpt lat="45.82819" lon="6.15202">
        <ele>492.8</ele>
        <time>2013-08-17T08:17:24Z</time>
      </trkpt>
      <trkpt lat="45.82824" lon="6.15203">
        <ele>492.8</ele>
        <time>2013-08-17T08:17:25Z</time>
      </trkpt>
      <trkpt lat="45.82831" lon="6.152">
        <ele>493.1</ele>
        <time>2013-08-17T08:17:26Z</time>
      </trkpt>
      <trkpt lat="45.82836" lon="6.15198">
        <ele>493.3</ele>
        <time>2013-08-17T08:17:27Z</time>
      </trkpt>
      <trkpt lat="45.82842" lon="6.15198">
        <ele>493.4</ele>
        <time>2013-08-17T08:17:28Z</time>
      </trkpt>
      <trkpt lat="45.82848" lon="6.15197">
        <ele>493.5</ele>
        <time>2013-08-17T08:17:29Z</time>
      </trkpt>
      <trkpt lat="45.82852" lon="6.15196">
        <ele>493.6</ele>
        <time>2013-08-17T08:17:30Z</time>
      </trkpt>
      <trkpt lat="45.82857" lon="6.15197">
        <ele>493.6</ele>
        <time>2013-08-17T08:17:31Z</time>
      </trkpt>
      <trkpt lat="45.82863" lon="6.15197">
        <ele>493.7</ele>
        <time>2013-08-17T08:17:32Z</time>
      </trkpt>
      <trkpt lat="45.82867" lon="6.15196">
        <ele>493.8</ele>
        <time>2013-08-17T08:17:33Z</time>
      </trkpt>
      <trkpt lat="45.82872" lon="6.15194">
        <ele>494</ele>
        <time>2013-08-17T08:17:34Z</time>
      </trkpt>
      <trkpt lat="45.82878" lon="6.15192">
        <ele>494.2</ele>
        <time>2013-08-17T08:17:35Z</time>
      </trkpt>
      <trkpt lat="45.82883" lon="6.15191">
        <ele>494.1</ele>
        <time>2013-08-17T08:17:36Z</time>
      </trkpt>
      <trkpt lat="45.82887" lon="6.1519">
        <ele>494.1</ele>
        <time>2013-08-17T08:17:37Z</time>
      </trkpt>
      <trkpt lat="45.82905" lon="6.15189">
        <ele>493.9</ele>
        <time>2013-08-17T08:17:41Z</time>
      </trkpt>
      <trkpt lat="45.82911" lon="6.15188">
        <ele>493.8</ele>
        <time>2013-08-17T08:17:42Z</time>
      </trkpt>
      <trkpt lat="45.82916" lon="6.15187">
        <ele>493.8</ele>
        <time>2013-08-17T08:17:43Z</time>
      </trkpt>
      <trkpt lat="45.82921" lon="6.15186">
        <ele>493.7</ele>
        <time>2013-08-17T08:17:44Z</time>
      </trkpt>
      <trkpt lat="45.82926" lon="6.15186">
        <ele>493.7</ele>
        <time>2013-08-17T08:17:45Z</time>
      </trkpt>
      <trkpt lat="45.8293" lon="6.15184">
        <ele>493.7</ele>
        <time>2013-08-17T08:17:46Z</time>
      </trkpt>
      <trkpt lat="45.82934" lon="6.15182">
        <ele>493.7</ele>
        <time>2013-08-17T08:17:47Z</time>
      </trkpt>
      <trkpt lat="45.82942" lon="6.15183">
        <ele>493.5</ele>
        <time>2013-08-17T08:17:48Z</time>
      </trkpt>
      <trkpt lat="45.82949" lon="6.15183">
        <ele>493.4</ele>
        <time>2013-08-17T08:17:49Z</time>
      </trkpt>
      <trkpt lat="45.82955" lon="6.15182">
        <ele>493.3</ele>
        <time>2013-08-17T08:17:50Z</time>
      </trkpt>
      <trkpt lat="45.8296" lon="6.15182">
        <ele>493.2</ele>
        <time>2013-08-17T08:17:51Z</time>
      </trkpt>
      <trkpt lat="45.82965" lon="6.15181">
        <ele>493.2</ele>
        <time>2013-08-17T08:17:52Z</time>
      </trkpt>
      <trkpt lat="45.82973" lon="6.1518">
        <ele>493.1</ele>
        <time>2013-08-17T08:17:53Z</time>
      </trkpt>
      <trkpt lat="45.82978" lon="6.15179">
        <ele>493.1</ele>
        <time>2013-08-17T08:17:54Z</time>
      </trkpt>
      <trkpt lat="45.82982" lon="6.15179">
        <ele>493</ele>
        <time>2013-08-17T08:17:55Z</time>
      </trkpt>
      <trkpt lat="45.82989" lon="6.15179">
        <ele>492.9</ele>
        <time>2013-08-17T08:17:57Z</time>
      </trkpt>
      <trkpt lat="45.82993" lon="6.15179">
        <ele>492.9</ele>
        <time>2013-08-17T08:17:58Z</time>
      </trkpt>
      <trkpt lat="45.82998" lon="6.15177">
        <ele>492.9</ele>
        <time>2013-08-17T08:17:59Z</time>
      </trkpt>
      <trkpt lat="45.83003" lon="6.15176">
        <ele>492.8</ele>
        <time>2013-08-17T08:18:00Z</time>
      </trkpt>
      <trkpt lat="45.83006" lon="6.15176">
        <ele>492.8</ele>
        <time>2013-08-17T08:18:01Z</time>
      </trkpt>
      <trkpt lat="45.83022" lon="6.15174">
        <ele>492.6</ele>
        <time>2013-08-17T08:18:03Z</time>
      </trkpt>
      <trkpt lat="45.83028" lon="6.15172">
        <ele>492.5</ele>
        <time>2013-08-17T08:18:04Z</time>
      </trkpt>
      <trkpt lat="45.83034" lon="6.15171">
        <ele>492.5</ele>
        <time>2013-08-17T08:18:05Z</time>
      </trkpt>
      <trkpt lat="45.83037" lon="6.15169">
        <ele>492.5</ele>
        <time>2013-08-17T08:18:06Z</time>
      </trkpt>
      <trkpt lat="45.83045" lon="6.15167">
        <ele>492.4</ele>
        <time>2013-08-17T08:18:08Z</time>
      </trkpt>
      <trkpt lat="45.83051" lon="6.15165">
        <ele>492.3</ele>
        <time>2013-08-17T08:18:09Z</time>
      </trkpt>
      <trkpt lat="45.83058" lon="6.15163">
        <ele>492.2</ele>
        <time>2013-08-17T08:18:10Z</time>
      </trkpt>
      <trkpt lat="45.83063" lon="6.15161">
        <ele>492.2</ele>
        <time>2013-08-17T08:18:11Z</time>
      </trkpt>
      <trkpt lat="45.83067" lon="6.15162">
        <ele>492.1</ele>
        <time>2013-08-17T08:18:12Z</time>
      </trkpt>
      <trkpt lat="45.83072" lon="6.1516">
        <ele>492</ele>
        <time>2013-08-17T08:18:13Z</time>
      </trkpt>
      <trkpt lat="45.83078" lon="6.15159">
        <ele>491.9</ele>
        <time>2013-08-17T08:18:14Z</time>
      </trkpt>
      <trkpt lat="45.83095" lon="6.15151">
        <ele>491.8</ele>
        <time>2013-08-17T08:18:17Z</time>
      </trkpt>
      <trkpt lat="45.831" lon="6.15149">
        <ele>491.7</ele>
        <time>2013-08-17T08:18:18Z</time>
      </trkpt>
      <trkpt lat="45.83108" lon="6.15143">
        <ele>491.8</ele>
        <time>2013-08-17T08:18:19Z</time>
      </trkpt>
      <trkpt lat="45.83112" lon="6.15144">
        <ele>491.6</ele>
        <time>2013-08-17T08:18:20Z</time>
      </trkpt>
      <trkpt lat="45.83116" lon="6.15142">
        <ele>491.6</ele>
        <time>2013-08-17T08:18:21Z</time>
      </trkpt>
      <trkpt lat="45.83121" lon="6.15139">
        <ele>491.6</ele>
        <time>2013-08-17T08:18:22Z</time>
      </trkpt>
      <trkpt lat="45.83128" lon="6.15139">
        <ele>491.5</ele>
        <time>2013-08-17T08:18:24Z</time>
      </trkpt>
      <trkpt lat="45.83133" lon="6.15142">
        <ele>491.3</ele>
        <time>2013-08-17T08:18:26Z</time>
      </trkpt>
      <trkpt lat="45.83139" lon="6.15141">
        <ele>491.3</ele>
        <time>2013-08-17T08:18:28Z</time>
      </trkpt>
      <trkpt lat="45.83142" lon="6.1514">
        <ele>491.3</ele>
        <time>2013-08-17T08:18:29Z</time>
      </trkpt>
      <trkpt lat="45.83146" lon="6.15139">
        <ele>491.3</ele>
        <time>2013-08-17T08:18:30Z</time>
      </trkpt>
      <trkpt lat="45.83153" lon="6.15137">
        <ele>491.2</ele>
        <time>2013-08-17T08:18:32Z</time>
      </trkpt>
      <trkpt lat="45.83157" lon="6.15135">
        <ele>491.3</ele>
        <time>2013-08-17T08:18:33Z</time>
      </trkpt>
      <trkpt lat="45.83161" lon="6.15133">
        <ele>491.3</ele>
        <time>2013-08-17T08:18:34Z</time>
      </trkpt>
      <trkpt lat="45.83165" lon="6.15131">
        <ele>491.3</ele>
        <time>2013-08-17T08:18:35Z</time>
      </trkpt>
      <trkpt lat="45.83169" lon="6.15128">
        <ele>491.4</ele>
        <time>2013-08-17T08:18:36Z</time>
      </trkpt>
      <trkpt lat="45.83172" lon="6.15126">
        <ele>491.4</ele>
        <time>2013-08-17T08:18:37Z</time>
      </trkpt>
      <trkpt lat="45.83178" lon="6.15122">
        <ele>491.5</ele>
        <time>2013-08-17T08:18:39Z</time>
      </trkpt>
      <trkpt lat="45.83194" lon="6.15111">
        <ele>492</ele>
        <time>2013-08-17T08:18:42Z</time>
      </trkpt>
      <trkpt lat="45.83198" lon="6.15109">
        <ele>492.1</ele>
        <time>2013-08-17T08:18:43Z</time>
      </trkpt>
      <trkpt lat="45.83201" lon="6.15106">
        <ele>492.2</ele>
        <time>2013-08-17T08:18:44Z</time>
      </trkpt>
      <trkpt lat="45.83204" lon="6.15103">
        <ele>492.4</ele>
        <time>2013-08-17T08:18:45Z</time>
      </trkpt>
      <trkpt lat="45.83207" lon="6.15102">
        <ele>492.4</ele>
        <time>2013-08-17T08:18:46Z</time>
      </trkpt>
      <trkpt lat="45.83212" lon="6.15097">
        <ele>492.6</ele>
        <time>2013-08-17T08:18:47Z</time>
      </trkpt>
      <trkpt lat="45.83216" lon="6.15095">
        <ele>492.5</ele>
        <time>2013-08-17T08:18:48Z</time>
      </trkpt>
      <trkpt lat="45.83221" lon="6.15091">
        <ele>492.6</ele>
        <time>2013-08-17T08:18:49Z</time>
      </trkpt>
      <trkpt lat="45.83234" lon="6.15082">
        <ele>492.7</ele>
        <time>2013-08-17T08:18:50Z</time>
      </trkpt>
      <trkpt lat="45.83239" lon="6.15077">
        <ele>492.8</ele>
        <time>2013-08-17T08:18:51Z</time>
      </trkpt>
      <trkpt lat="45.83245" lon="6.15076">
        <ele>492.6</ele>
        <time>2013-08-17T08:18:52Z</time>
      </trkpt>
      <trkpt lat="45.83249" lon="6.15075">
        <ele>492.6</ele>
        <time>2013-08-17T08:18:53Z</time>
      </trkpt>
      <trkpt lat="45.83255" lon="6.15073">
        <ele>492.5</ele>
        <time>2013-08-17T08:18:54Z</time>
      </trkpt>
      <trkpt lat="45.8326" lon="6.15071">
        <ele>492.4</ele>
        <time>2013-08-17T08:18:55Z</time>
      </trkpt>
      <trkpt lat="45.83265" lon="6.15068">
        <ele>492.4</ele>
        <time>2013-08-17T08:18:56Z</time>
      </trkpt>
      <trkpt lat="45.83271" lon="6.15066">
        <ele>492.2</ele>
        <time>2013-08-17T08:18:57Z</time>
      </trkpt>
      <trkpt lat="45.83276" lon="6.15066">
        <ele>492.1</ele>
        <time>2013-08-17T08:18:58Z</time>
      </trkpt>
      <trkpt lat="45.83282" lon="6.15065">
        <ele>491.9</ele>
        <time>2013-08-17T08:18:59Z</time>
      </trkpt>
      <trkpt lat="45.83287" lon="6.15063">
        <ele>491.9</ele>
        <time>2013-08-17T08:19:00Z</time>
      </trkpt>
      <trkpt lat="45.83294" lon="6.15062">
        <ele>491.8</ele>
        <time>2013-08-17T08:19:01Z</time>
      </trkpt>
      <trkpt lat="45.83299" lon="6.1506">
        <ele>491.9</ele>
        <time>2013-08-17T08:19:02Z</time>
      </trkpt>
      <trkpt lat="45.83305" lon="6.15062">
        <ele>491.8</ele>
        <time>2013-08-17T08:19:03Z</time>
      </trkpt>
      <trkpt lat="45.8331" lon="6.15065">
        <ele>491.7</ele>
        <time>2013-08-17T08:19:04Z</time>
      </trkpt>
      <trkpt lat="45.83313" lon="6.15063">
        <ele>491.8</ele>
        <time>2013-08-17T08:19:05Z</time>
      </trkpt>
      <trkpt lat="45.83318" lon="6.15062">
        <ele>491.9</ele>
        <time>2013-08-17T08:19:06Z</time>
      </trkpt>
      <trkpt lat="45.83324" lon="6.15063">
        <ele>491.8</ele>
        <time>2013-08-17T08:19:07Z</time>
      </trkpt>
      <trkpt lat="45.83329" lon="6.15061">
        <ele>492</ele>
        <time>2013-08-17T08:19:08Z</time>
      </trkpt>
      <trkpt lat="45.83334" lon="6.15062">
        <ele>491.9</ele>
        <time>2013-08-17T08:19:09Z</time>
      </trkpt>
      <trkpt lat="45.8334" lon="6.15061">
        <ele>492</ele>
        <time>2013-08-17T08:19:10Z</time>
      </trkpt>
      <trkpt lat="45.83345" lon="6.15062">
        <ele>491.9</ele>
        <time>2013-08-17T08:19:11Z</time>
      </trkpt>
      <trkpt lat="45.83352" lon="6.15063">
        <ele>491.9</ele>
        <time>2013-08-17T08:19:12Z</time>
      </trkpt>
      <trkpt lat="45.83358" lon="6.15063">
        <ele>491.9</ele>
        <time>2013-08-17T08:19:13Z</time>
      </trkpt>
      <trkpt lat="45.83368" lon="6.15065">
        <ele>491.8</ele>
        <time>2013-08-17T08:19:15Z</time>
      </trkpt>
      <trkpt lat="45.83376" lon="6.15068">
        <ele>491.5</ele>
        <time>2013-08-17T08:19:16Z</time>
      </trkpt>
      <trkpt lat="45.83383" lon="6.15069">
        <ele>491.4</ele>
        <time>2013-08-17T08:19:17Z</time>
      </trkpt>
      <trkpt lat="45.83389" lon="6.15072">
        <ele>491.2</ele>
        <time>2013-08-17T08:19:18Z</time>
      </trkpt>
      <trkpt lat="45.83394" lon="6.15073">
        <ele>491.2</ele>
        <time>2013-08-17T08:19:19Z</time>
      </trkpt>
      <trkpt lat="45.83408" lon="6.15077">
        <ele>490.9</ele>
        <time>2013-08-17T08:19:22Z</time>
      </trkpt>
      <trkpt lat="45.83428" lon="6.15081">
        <ele>490.6</ele>
        <time>2013-08-17T08:19:24Z</time>
      </trkpt>
      <trkpt lat="45.83431" lon="6.15081">
        <ele>490.6</ele>
        <time>2013-08-17T08:19:25Z</time>
      </trkpt>
      <trkpt lat="45.83438" lon="6.1508">
        <ele>490.7</ele>
        <time>2013-08-17T08:19:26Z</time>
      </trkpt>
      <trkpt lat="45.83447" lon="6.15079">
        <ele>490.9</ele>
        <time>2013-08-17T08:19:27Z</time>
      </trkpt>
      <trkpt lat="45.83452" lon="6.15078">
        <ele>491.1</ele>
        <time>2013-08-17T08:19:28Z</time>
      </trkpt>
      <trkpt lat="45.83458" lon="6.15076">
        <ele>491.2</ele>
        <time>2013-08-17T08:19:29Z</time>
      </trkpt>
      <trkpt lat="45.83464" lon="6.15075">
        <ele>491.2</ele>
        <time>2013-08-17T08:19:30Z</time>
      </trkpt>
      <trkpt lat="45.83469" lon="6.15074">
        <ele>491.2</ele>
        <time>2013-08-17T08:19:31Z</time>
      </trkpt>
      <trkpt lat="45.83475" lon="6.15072">
        <ele>491.1</ele>
        <time>2013-08-17T08:19:32Z</time>
      </trkpt>
      <trkpt lat="45.83482" lon="6.1507">
        <ele>491.1</ele>
        <time>2013-08-17T08:19:33Z</time>
      </trkpt>
      <trkpt lat="45.83487" lon="6.1507">
        <ele>491</ele>
        <time>2013-08-17T08:19:34Z</time>
      </trkpt>
      <trkpt lat="45.83492" lon="6.15069">
        <ele>490.9</ele>
        <time>2013-08-17T08:19:35Z</time>
      </trkpt>
      <trkpt lat="45.83497" lon="6.15065">
        <ele>491.1</ele>
        <time>2013-08-17T08:19:36Z</time>
      </trkpt>
      <trkpt lat="45.83503" lon="6.15063">
        <ele>491.1</ele>
        <time>2013-08-17T08:19:37Z</time>
      </trkpt>
      <trkpt lat="45.8351" lon="6.15063">
        <ele>490.9</ele>
        <time>2013-08-17T08:19:38Z</time>
      </trkpt>
      <trkpt lat="45.83514" lon="6.15063">
        <ele>490.7</ele>
        <time>2013-08-17T08:19:39Z</time>
      </trkpt>
      <trkpt lat="45.83522" lon="6.1506">
        <ele>490.8</ele>
        <time>2013-08-17T08:19:40Z</time>
      </trkpt>
      <trkpt lat="45.83528" lon="6.15058">
        <ele>490.8</ele>
        <time>2013-08-17T08:19:41Z</time>
      </trkpt>
      <trkpt lat="45.83531" lon="6.15058">
        <ele>490.6</ele>
        <time>2013-08-17T08:19:42Z</time>
      </trkpt>
      <trkpt lat="45.83536" lon="6.15055">
        <ele>490.8</ele>
        <time>2013-08-17T08:19:43Z</time>
      </trkpt>
      <trkpt lat="45.83545" lon="6.1505">
        <ele>490.9</ele>
        <time>2013-08-17T08:19:44Z</time>
      </trkpt>
      <trkpt lat="45.83552" lon="6.15043">
        <ele>491.1</ele>
        <time>2013-08-17T08:19:45Z</time>
      </trkpt>
      <trkpt lat="45.8356" lon="6.15037">
        <ele>491.4</ele>
        <time>2013-08-17T08:19:46Z</time>
      </trkpt>
      <trkpt lat="45.83566" lon="6.1503">
        <ele>491.9</ele>
        <time>2013-08-17T08:19:47Z</time>
      </trkpt>
      <trkpt lat="45.8358" lon="6.1502">
        <ele>492.7</ele>
        <time>2013-08-17T08:19:49Z</time>
      </trkpt>
      <trkpt lat="45.83586" lon="6.15013">
        <ele>493.4</ele>
        <time>2013-08-17T08:19:50Z</time>
      </trkpt>
      <trkpt lat="45.83593" lon="6.15008">
        <ele>493.7</ele>
        <time>2013-08-17T08:19:51Z</time>
      </trkpt>
      <trkpt lat="45.83601" lon="6.15008">
        <ele>493.4</ele>
        <time>2013-08-17T08:19:52Z</time>
      </trkpt>
      <trkpt lat="45.83609" lon="6.15006">
        <ele>493.3</ele>
        <time>2013-08-17T08:19:53Z</time>
      </trkpt>
      <trkpt lat="45.83616" lon="6.15005">
        <ele>493.1</ele>
        <time>2013-08-17T08:19:54Z</time>
      </trkpt>
      <trkpt lat="45.83625" lon="6.15003">
        <ele>493</ele>
        <time>2013-08-17T08:19:55Z</time>
      </trkpt>
      <trkpt lat="45.83632" lon="6.15002">
        <ele>492.5</ele>
        <time>2013-08-17T08:19:56Z</time>
      </trkpt>
      <trkpt lat="45.8364" lon="6.15">
        <ele>492.1</ele>
        <time>2013-08-17T08:19:57Z</time>
      </trkpt>
      <trkpt lat="45.83647" lon="6.14998">
        <ele>491.8</ele>
        <time>2013-08-17T08:19:58Z</time>
      </trkpt>
      <trkpt lat="45.83655" lon="6.14997">
        <ele>491.2</ele>
        <time>2013-08-17T08:19:59Z</time>
      </trkpt>
      <trkpt lat="45.83662" lon="6.14997">
        <ele>490.5</ele>
        <time>2013-08-17T08:20:00Z</time>
      </trkpt>
      <trkpt lat="45.83669" lon="6.14996">
        <ele>490</ele>
        <time>2013-08-17T08:20:01Z</time>
      </trkpt>
      <trkpt lat="45.83676" lon="6.14997">
        <ele>489.2</ele>
        <time>2013-08-17T08:20:02Z</time>
      </trkpt>
      <trkpt lat="45.83683" lon="6.14993">
        <ele>489.2</ele>
        <time>2013-08-17T08:20:03Z</time>
      </trkpt>
      <trkpt lat="45.83689" lon="6.14992">
        <ele>488.8</ele>
        <time>2013-08-17T08:20:04Z</time>
      </trkpt>
      <trkpt lat="45.83697" lon="6.1499">
        <ele>488.4</ele>
        <time>2013-08-17T08:20:05Z</time>
      </trkpt>
      <trkpt lat="45.83704" lon="6.14989">
        <ele>488</ele>
        <time>2013-08-17T08:20:06Z</time>
      </trkpt>
      <trkpt lat="45.8371" lon="6.14985">
        <ele>488.1</ele>
        <time>2013-08-17T08:20:07Z</time>
      </trkpt>
      <trkpt lat="45.83717" lon="6.14982">
        <ele>488</ele>
        <time>2013-08-17T08:20:08Z</time>
      </trkpt>
      <trkpt lat="45.83724" lon="6.14978">
        <ele>488.2</ele>
        <time>2013-08-17T08:20:09Z</time>
      </trkpt>
      <trkpt lat="45.83731" lon="6.14975">
        <ele>488.3</ele>
        <time>2013-08-17T08:20:10Z</time>
      </trkpt>
      <trkpt lat="45.83737" lon="6.14972">
        <ele>488.3</ele>
        <time>2013-08-17T08:20:11Z</time>
      </trkpt>
      <trkpt lat="45.83741" lon="6.14974">
        <ele>487.7</ele>
        <time>2013-08-17T08:20:12Z</time>
      </trkpt>
      <trkpt lat="45.83749" lon="6.14975">
        <ele>486.9</ele>
        <time>2013-08-17T08:20:13Z</time>
      </trkpt>
      <trkpt lat="45.83757" lon="6.14975">
        <ele>486.2</ele>
        <time>2013-08-17T08:20:14Z</time>
      </trkpt>
      <trkpt lat="45.83765" lon="6.14974">
        <ele>485.8</ele>
        <time>2013-08-17T08:20:15Z</time>
      </trkpt>
      <trkpt lat="45.83773" lon="6.14973">
        <ele>485.3</ele>
        <time>2013-08-17T08:20:16Z</time>
      </trkpt>
      <trkpt lat="45.83782" lon="6.1497">
        <ele>485</ele>
        <time>2013-08-17T08:20:17Z</time>
      </trkpt>
      <trkpt lat="45.8379" lon="6.14967">
        <ele>484.9</ele>
        <time>2013-08-17T08:20:18Z</time>
      </trkpt>
      <trkpt lat="45.83799" lon="6.14966">
        <ele>484.3</ele>
        <time>2013-08-17T08:20:19Z</time>
      </trkpt>
      <trkpt lat="45.83807" lon="6.14963">
        <ele>484.2</ele>
        <time>2013-08-17T08:20:20Z</time>
      </trkpt>
      <trkpt lat="45.83815" lon="6.14961">
        <ele>483.8</ele>
        <time>2013-08-17T08:20:21Z</time>
      </trkpt>
      <trkpt lat="45.83822" lon="6.14959">
        <ele>483.4</ele>
        <time>2013-08-17T08:20:22Z</time>
      </trkpt>
      <trkpt lat="45.83832" lon="6.14956">
        <ele>482.9</ele>
        <time>2013-08-17T08:20:23Z</time>
      </trkpt>
      <trkpt lat="45.83838" lon="6.14956">
        <ele>482.3</ele>
        <time>2013-08-17T08:20:24Z</time>
      </trkpt>
      <trkpt lat="45.83846" lon="6.14955">
        <ele>481.7</ele>
        <time>2013-08-17T08:20:25Z</time>
      </trkpt>
      <trkpt lat="45.83855" lon="6.14953">
        <ele>481.2</ele>
        <time>2013-08-17T08:20:26Z</time>
      </trkpt>
      <trkpt lat="45.83863" lon="6.14951">
        <ele>480.5</ele>
        <time>2013-08-17T08:20:27Z</time>
      </trkpt>
      <trkpt lat="45.83871" lon="6.14949">
        <ele>480.1</ele>
        <time>2013-08-17T08:20:28Z</time>
      </trkpt>
      <trkpt lat="45.83879" lon="6.14948">
        <ele>479.4</ele>
        <time>2013-08-17T08:20:29Z</time>
      </trkpt>
      <trkpt lat="45.83885" lon="6.14947">
        <ele>478.9</ele>
        <time>2013-08-17T08:20:30Z</time>
      </trkpt>
      <trkpt lat="45.83892" lon="6.14946">
        <ele>478.2</ele>
        <time>2013-08-17T08:20:31Z</time>
      </trkpt>
      <trkpt lat="45.83898" lon="6.14944">
        <ele>477.7</ele>
        <time>2013-08-17T08:20:32Z</time>
      </trkpt>
      <trkpt lat="45.83906" lon="6.14942">
        <ele>477</ele>
        <time>2013-08-17T08:20:33Z</time>
      </trkpt>
      <trkpt lat="45.83913" lon="6.14942">
        <ele>476.3</ele>
        <time>2013-08-17T08:20:34Z</time>
      </trkpt>
      <trkpt lat="45.8392" lon="6.14941">
        <ele>475.6</ele>
        <time>2013-08-17T08:20:35Z</time>
      </trkpt>
      <trkpt lat="45.83927" lon="6.14941">
        <ele>474.8</ele>
        <time>2013-08-17T08:20:36Z</time>
      </trkpt>
      <trkpt lat="45.83934" lon="6.1494">
        <ele>474.1</ele>
        <time>2013-08-17T08:20:37Z</time>
      </trkpt>
      <trkpt lat="45.83942" lon="6.14936">
        <ele>473.5</ele>
        <time>2013-08-17T08:20:38Z</time>
      </trkpt>
      <trkpt lat="45.83952" lon="6.14934">
        <ele>472.6</ele>
        <time>2013-08-17T08:20:39Z</time>
      </trkpt>
      <trkpt lat="45.83961" lon="6.1493">
        <ele>471.9</ele>
        <time>2013-08-17T08:20:40Z</time>
      </trkpt>
      <trkpt lat="45.83968" lon="6.1493">
        <ele>471.7</ele>
        <time>2013-08-17T08:20:41Z</time>
      </trkpt>
      <trkpt lat="45.83976" lon="6.14927">
        <ele>471.5</ele>
        <time>2013-08-17T08:20:42Z</time>
      </trkpt>
      <trkpt lat="45.83987" lon="6.14922">
        <ele>471.3</ele>
        <time>2013-08-17T08:20:43Z</time>
      </trkpt>
      <trkpt lat="45.83996" lon="6.14919">
        <ele>471.1</ele>
        <time>2013-08-17T08:20:44Z</time>
      </trkpt>
      <trkpt lat="45.84003" lon="6.14915">
        <ele>471</ele>
        <time>2013-08-17T08:20:45Z</time>
      </trkpt>
      <trkpt lat="45.84012" lon="6.1491">
        <ele>470.8</ele>
        <time>2013-08-17T08:20:46Z</time>
      </trkpt>
      <trkpt lat="45.84017" lon="6.14909">
        <ele>470.7</ele>
        <time>2013-08-17T08:20:47Z</time>
      </trkpt>
      <trkpt lat="45.84031" lon="6.14908">
        <ele>470.2</ele>
        <time>2013-08-17T08:20:48Z</time>
      </trkpt>
      <trkpt lat="45.8404" lon="6.14907">
        <ele>469.9</ele>
        <time>2013-08-17T08:20:49Z</time>
      </trkpt>
      <trkpt lat="45.84049" lon="6.14906">
        <ele>469.6</ele>
        <time>2013-08-17T08:20:50Z</time>
      </trkpt>
      <trkpt lat="45.84059" lon="6.14903">
        <ele>469.2</ele>
        <time>2013-08-17T08:20:51Z</time>
      </trkpt>
      <trkpt lat="45.84067" lon="6.14901">
        <ele>468.9</ele>
        <time>2013-08-17T08:20:52Z</time>
      </trkpt>
      <trkpt lat="45.84077" lon="6.149">
        <ele>468.5</ele>
        <time>2013-08-17T08:20:53Z</time>
      </trkpt>
      <trkpt lat="45.84087" lon="6.14898">
        <ele>468.2</ele>
        <time>2013-08-17T08:20:54Z</time>
      </trkpt>
      <trkpt lat="45.84096" lon="6.14895">
        <ele>467.8</ele>
        <time>2013-08-17T08:20:55Z</time>
      </trkpt>
      <trkpt lat="45.84106" lon="6.14893">
        <ele>467.4</ele>
        <time>2013-08-17T08:20:56Z</time>
      </trkpt>
      <trkpt lat="45.84115" lon="6.1489">
        <ele>467.1</ele>
        <time>2013-08-17T08:20:57Z</time>
      </trkpt>
      <trkpt lat="45.84123" lon="6.1489">
        <ele>466.7</ele>
        <time>2013-08-17T08:20:58Z</time>
      </trkpt>
      <trkpt lat="45.84131" lon="6.14888">
        <ele>466.6</ele>
        <time>2013-08-17T08:20:59Z</time>
      </trkpt>
      <trkpt lat="45.8414" lon="6.14888">
        <ele>466.5</ele>
        <time>2013-08-17T08:21:00Z</time>
      </trkpt>
      <trkpt lat="45.84154" lon="6.14884">
        <ele>466.4</ele>
        <time>2013-08-17T08:21:02Z</time>
      </trkpt>
      <trkpt lat="45.84162" lon="6.14881">
        <ele>466.4</ele>
        <time>2013-08-17T08:21:03Z</time>
      </trkpt>
      <trkpt lat="45.84172" lon="6.14877">
        <ele>466.4</ele>
        <time>2013-08-17T08:21:04Z</time>
      </trkpt>
      <trkpt lat="45.8418" lon="6.14875">
        <ele>466.3</ele>
        <time>2013-08-17T08:21:05Z</time>
      </trkpt>
      <trkpt lat="45.84188" lon="6.14872">
        <ele>466.5</ele>
        <time>2013-08-17T08:21:06Z</time>
      </trkpt>
      <trkpt lat="45.84197" lon="6.1487">
        <ele>466.5</ele>
        <time>2013-08-17T08:21:07Z</time>
      </trkpt>
      <trkpt lat="45.84206" lon="6.14867">
        <ele>466.5</ele>
        <time>2013-08-17T08:21:08Z</time>
      </trkpt>
      <trkpt lat="45.84214" lon="6.14866">
        <ele>466.5</ele>
        <time>2013-08-17T08:21:09Z</time>
      </trkpt>
      <trkpt lat="45.84222" lon="6.14863">
        <ele>466.5</ele>
        <time>2013-08-17T08:21:10Z</time>
      </trkpt>
      <trkpt lat="45.84229" lon="6.14861">
        <ele>466.5</ele>
        <time>2013-08-17T08:21:11Z</time>
      </trkpt>
      <trkpt lat="45.84234" lon="6.1486">
        <ele>466.5</ele>
        <time>2013-08-17T08:21:12Z</time>
      </trkpt>
      <trkpt lat="45.84242" lon="6.14858">
        <ele>466.5</ele>
        <time>2013-08-17T08:21:13Z</time>
      </trkpt>
      <trkpt lat="45.84248" lon="6.14854">
        <ele>466.5</ele>
        <time>2013-08-17T08:21:14Z</time>
      </trkpt>
      <trkpt lat="45.84255" lon="6.14852">
        <ele>466.5</ele>
        <time>2013-08-17T08:21:15Z</time>
      </trkpt>
      <trkpt lat="45.84266" lon="6.1485">
        <ele>466.4</ele>
        <time>2013-08-17T08:21:16Z</time>
      </trkpt>
      <trkpt lat="45.84272" lon="6.14851">
        <ele>466.2</ele>
        <time>2013-08-17T08:21:17Z</time>
      </trkpt>
      <trkpt lat="45.8428" lon="6.1485">
        <ele>466.1</ele>
        <time>2013-08-17T08:21:18Z</time>
      </trkpt>
      <trkpt lat="45.84284" lon="6.14852">
        <ele>466</ele>
        <time>2013-08-17T08:21:19Z</time>
      </trkpt>
      <trkpt lat="45.84291" lon="6.14851">
        <ele>465.9</ele>
        <time>2013-08-17T08:21:20Z</time>
      </trkpt>
      <trkpt lat="45.84296" lon="6.1485">
        <ele>465.8</ele>
        <time>2013-08-17T08:21:21Z</time>
      </trkpt>
      <trkpt lat="45.84302" lon="6.1485">
        <ele>465.7</ele>
        <time>2013-08-17T08:21:22Z</time>
      </trkpt>
      <trkpt lat="45.84315" lon="6.14849">
        <ele>465.5</ele>
        <time>2013-08-17T08:21:24Z</time>
      </trkpt>
      <trkpt lat="45.84323" lon="6.14845">
        <ele>465.6</ele>
        <time>2013-08-17T08:21:25Z</time>
      </trkpt>
      <trkpt lat="45.8433" lon="6.14842">
        <ele>465.7</ele>
        <time>2013-08-17T08:21:26Z</time>
      </trkpt>
      <trkpt lat="45.84336" lon="6.14839">
        <ele>465.9</ele>
        <time>2013-08-17T08:21:27Z</time>
      </trkpt>
      <trkpt lat="45.84343" lon="6.14836">
        <ele>466</ele>
        <time>2013-08-17T08:21:28Z</time>
      </trkpt>
      <trkpt lat="45.84349" lon="6.14833">
        <ele>466.2</ele>
        <time>2013-08-17T08:21:29Z</time>
      </trkpt>
      <trkpt lat="45.84357" lon="6.14831">
        <ele>466.3</ele>
        <time>2013-08-17T08:21:30Z</time>
      </trkpt>
      <trkpt lat="45.84365" lon="6.14829">
        <ele>466.5</ele>
        <time>2013-08-17T08:21:31Z</time>
      </trkpt>
      <trkpt lat="45.84372" lon="6.14827">
        <ele>466.6</ele>
        <time>2013-08-17T08:21:32Z</time>
      </trkpt>
      <trkpt lat="45.84379" lon="6.14827">
        <ele>466.7</ele>
        <time>2013-08-17T08:21:33Z</time>
      </trkpt>
      <trkpt lat="45.84386" lon="6.14825">
        <ele>467</ele>
        <time>2013-08-17T08:21:34Z</time>
      </trkpt>
      <trkpt lat="45.84405" lon="6.14827">
        <ele>467</ele>
        <time>2013-08-17T08:21:37Z</time>
      </trkpt>
      <trkpt lat="45.84411" lon="6.14826">
        <ele>467.3</ele>
        <time>2013-08-17T08:21:38Z</time>
      </trkpt>
      <trkpt lat="45.84419" lon="6.14824">
        <ele>467.7</ele>
        <time>2013-08-17T08:21:39Z</time>
      </trkpt>
      <trkpt lat="45.84425" lon="6.14824">
        <ele>467.8</ele>
        <time>2013-08-17T08:21:40Z</time>
      </trkpt>
      <trkpt lat="45.8443" lon="6.14823">
        <ele>467.9</ele>
        <time>2013-08-17T08:21:41Z</time>
      </trkpt>
      <trkpt lat="45.84437" lon="6.14823">
        <ele>468.1</ele>
        <time>2013-08-17T08:21:42Z</time>
      </trkpt>
      <trkpt lat="45.84443" lon="6.14821">
        <ele>468.5</ele>
        <time>2013-08-17T08:21:43Z</time>
      </trkpt>
      <trkpt lat="45.84448" lon="6.14823">
        <ele>468.3</ele>
        <time>2013-08-17T08:21:44Z</time>
      </trkpt>
      <trkpt lat="45.84454" lon="6.14828">
        <ele>467.8</ele>
        <time>2013-08-17T08:21:46Z</time>
      </trkpt>
      <trkpt lat="45.8446" lon="6.14828">
        <ele>467.8</ele>
        <time>2013-08-17T08:21:47Z</time>
      </trkpt>
      <trkpt lat="45.84472" lon="6.14829">
        <ele>467.6</ele>
        <time>2013-08-17T08:21:48Z</time>
      </trkpt>
      <trkpt lat="45.84479" lon="6.14829">
        <ele>467.5</ele>
        <time>2013-08-17T08:21:49Z</time>
      </trkpt>
      <trkpt lat="45.84489" lon="6.14829">
        <ele>467.5</ele>
        <time>2013-08-17T08:21:50Z</time>
      </trkpt>
      <trkpt lat="45.84497" lon="6.14827">
        <ele>467.7</ele>
        <time>2013-08-17T08:21:52Z</time>
      </trkpt>
      <trkpt lat="45.84503" lon="6.14829">
        <ele>467.3</ele>
        <time>2013-08-17T08:21:54Z</time>
      </trkpt>
      <trkpt lat="45.84522" lon="6.14856">
        <ele>463.5</ele>
        <time>2013-08-17T08:21:59Z</time>
      </trkpt>
      <trkpt lat="45.84525" lon="6.14857">
        <ele>463.4</ele>
        <time>2013-08-17T08:22:01Z</time>
      </trkpt>
      <trkpt lat="45.84526" lon="6.14863">
        <ele>462.7</ele>
        <time>2013-08-17T08:22:03Z</time>
      </trkpt>
      <trkpt lat="45.84536" lon="6.14882">
        <ele>460.8</ele>
        <time>2013-08-17T08:22:06Z</time>
      </trkpt>
      <trkpt lat="45.84539" lon="6.14886">
        <ele>460.6</ele>
        <time>2013-08-17T08:22:07Z</time>
      </trkpt>
      <trkpt lat="45.84543" lon="6.14889">
        <ele>460.5</ele>
        <time>2013-08-17T08:22:08Z</time>
      </trkpt>
      <trkpt lat="45.84544" lon="6.14895">
        <ele>460.2</ele>
        <time>2013-08-17T08:22:10Z</time>
      </trkpt>
      <trkpt lat="45.84548" lon="6.149">
        <ele>460</ele>
        <time>2013-08-17T08:22:11Z</time>
      </trkpt>
      <trkpt lat="45.84557" lon="6.14911">
        <ele>459.4</ele>
        <time>2013-08-17T08:22:12Z</time>
      </trkpt>
      <trkpt lat="45.84554" lon="6.14927">
        <ele>458.9</ele>
        <time>2013-08-17T08:22:13Z</time>
      </trkpt>
      <trkpt lat="45.84551" lon="6.14931">
        <ele>458.9</ele>
        <time>2013-08-17T08:22:14Z</time>
      </trkpt>
      <trkpt lat="45.84547" lon="6.14933">
        <ele>458.8</ele>
        <time>2013-08-17T08:22:15Z</time>
      </trkpt>
      <trkpt lat="45.84539" lon="6.14936">
        <ele>458.9</ele>
        <time>2013-08-17T08:22:16Z</time>
      </trkpt>
      <trkpt lat="45.8453" lon="6.14937">
        <ele>459.1</ele>
        <time>2013-08-17T08:22:17Z</time>
      </trkpt>
      <trkpt lat="45.84524" lon="6.14938">
        <ele>459.2</ele>
        <time>2013-08-17T08:22:18Z</time>
      </trkpt>
      <trkpt lat="45.84519" lon="6.14939">
        <ele>459.3</ele>
        <time>2013-08-17T08:22:19Z</time>
      </trkpt>
      <trkpt lat="45.84514" lon="6.1494">
        <ele>459.4</ele>
        <time>2013-08-17T08:22:20Z</time>
      </trkpt>
      <trkpt lat="45.84509" lon="6.14942">
        <ele>459.6</ele>
        <time>2013-08-17T08:22:21Z</time>
      </trkpt>
      <trkpt lat="45.84504" lon="6.14943">
        <ele>459.6</ele>
        <time>2013-08-17T08:22:22Z</time>
      </trkpt>
      <trkpt lat="45.845" lon="6.14946">
        <ele>459.7</ele>
        <time>2013-08-17T08:22:23Z</time>
      </trkpt>
      <trkpt lat="45.84495" lon="6.1495">
        <ele>459.8</ele>
        <time>2013-08-17T08:22:24Z</time>
      </trkpt>
      <trkpt lat="45.8449" lon="6.14954">
        <ele>459.9</ele>
        <time>2013-08-17T08:22:25Z</time>
      </trkpt>
      <trkpt lat="45.84486" lon="6.14958">
        <ele>460</ele>
        <time>2013-08-17T08:22:26Z</time>
      </trkpt>
      <trkpt lat="45.84481" lon="6.14963">
        <ele>460.1</ele>
        <time>2013-08-17T08:22:27Z</time>
      </trkpt>
      <trkpt lat="45.84479" lon="6.14966">
        <ele>460.1</ele>
        <time>2013-08-17T08:22:28Z</time>
      </trkpt>
      <trkpt lat="45.84476" lon="6.1497">
        <ele>460.1</ele>
        <time>2013-08-17T08:22:31Z</time>
      </trkpt>
      <trkpt lat="45.84474" lon="6.14972">
        <ele>460.1</ele>
        <time>2013-08-17T08:22:32Z</time>
      </trkpt>
      <trkpt lat="45.84469" lon="6.14979">
        <ele>460.2</ele>
        <time>2013-08-17T08:22:34Z</time>
      </trkpt>
      <trkpt lat="45.84466" lon="6.14983">
        <ele>460.2</ele>
        <time>2013-08-17T08:22:35Z</time>
      </trkpt>
      <trkpt lat="45.8446" lon="6.14991">
        <ele>460.2</ele>
        <time>2013-08-17T08:22:36Z</time>
      </trkpt>
      <trkpt lat="45.84447" lon="6.1501">
        <ele>459.7</ele>
        <time>2013-08-17T08:22:38Z</time>
      </trkpt>
      <trkpt lat="45.84442" lon="6.15016">
        <ele>459.5</ele>
        <time>2013-08-17T08:22:39Z</time>
      </trkpt>
      <trkpt lat="45.84439" lon="6.1502">
        <ele>459.4</ele>
        <time>2013-08-17T08:22:40Z</time>
      </trkpt>
      <trkpt lat="45.84434" lon="6.15027">
        <ele>459.2</ele>
        <time>2013-08-17T08:22:41Z</time>
      </trkpt>
      <trkpt lat="45.84428" lon="6.15035">
        <ele>459.1</ele>
        <time>2013-08-17T08:22:42Z</time>
      </trkpt>
      <trkpt lat="45.84423" lon="6.15043">
        <ele>459</ele>
        <time>2013-08-17T08:22:43Z</time>
      </trkpt>
      <trkpt lat="45.84418" lon="6.1505">
        <ele>459</ele>
        <time>2013-08-17T08:22:44Z</time>
      </trkpt>
      <trkpt lat="45.84413" lon="6.15057">
        <ele>459</ele>
        <time>2013-08-17T08:22:45Z</time>
      </trkpt>
      <trkpt lat="45.84408" lon="6.15064">
        <ele>459.1</ele>
        <time>2013-08-17T08:22:46Z</time>
      </trkpt>
      <trkpt lat="45.84404" lon="6.15069">
        <ele>459.2</ele>
        <time>2013-08-17T08:22:47Z</time>
      </trkpt>
      <trkpt lat="45.844" lon="6.15075">
        <ele>459.3</ele>
        <time>2013-08-17T08:22:48Z</time>
      </trkpt>
      <trkpt lat="45.84395" lon="6.15082">
        <ele>459.5</ele>
        <time>2013-08-17T08:22:49Z</time>
      </trkpt>
      <trkpt lat="45.84389" lon="6.15091">
        <ele>459.8</ele>
        <time>2013-08-17T08:22:50Z</time>
      </trkpt>
      <trkpt lat="45.84383" lon="6.15098">
        <ele>460.1</ele>
        <time>2013-08-17T08:22:51Z</time>
      </trkpt>
      <trkpt lat="45.84379" lon="6.15104">
        <ele>460.4</ele>
        <time>2013-08-17T08:22:52Z</time>
      </trkpt>
      <trkpt lat="45.84373" lon="6.15113">
        <ele>460.7</ele>
        <time>2013-08-17T08:22:54Z</time>
      </trkpt>
      <trkpt lat="45.8437" lon="6.15117">
        <ele>460.8</ele>
        <time>2013-08-17T08:22:55Z</time>
      </trkpt>
      <trkpt lat="45.84366" lon="6.15124">
        <ele>461</ele>
        <time>2013-08-17T08:22:56Z</time>
      </trkpt>
      <trkpt lat="45.84362" lon="6.15131">
        <ele>460.9</ele>
        <time>2013-08-17T08:22:57Z</time>
      </trkpt>
      <trkpt lat="45.84357" lon="6.15138">
        <ele>460.7</ele>
        <time>2013-08-17T08:22:58Z</time>
      </trkpt>
      <trkpt lat="45.84353" lon="6.15145">
        <ele>460.6</ele>
        <time>2013-08-17T08:22:59Z</time>
      </trkpt>
      <trkpt lat="45.8435" lon="6.1515">
        <ele>460.5</ele>
        <time>2013-08-17T08:23:00Z</time>
      </trkpt>
      <trkpt lat="45.84349" lon="6.15153">
        <ele>460.4</ele>
        <time>2013-08-17T08:23:01Z</time>
      </trkpt>
      <trkpt lat="45.84349" lon="6.15163">
        <ele>460.2</ele>
        <time>2013-08-17T08:23:02Z</time>
      </trkpt>
      <trkpt lat="45.84351" lon="6.15168">
        <ele>460.1</ele>
        <time>2013-08-17T08:23:03Z</time>
      </trkpt>
      <trkpt lat="45.84359" lon="6.15182">
        <ele>459.8</ele>
        <time>2013-08-17T08:23:04Z</time>
      </trkpt>
      <trkpt lat="45.84363" lon="6.15189">
        <ele>459.6</ele>
        <time>2013-08-17T08:23:05Z</time>
      </trkpt>
      <trkpt lat="45.84367" lon="6.15197">
        <ele>459.3</ele>
        <time>2013-08-17T08:23:06Z</time>
      </trkpt>
      <trkpt lat="45.84372" lon="6.15206">
        <ele>459.1</ele>
        <time>2013-08-17T08:23:07Z</time>
      </trkpt>
      <trkpt lat="45.84377" lon="6.15216">
        <ele>458.8</ele>
        <time>2013-08-17T08:23:08Z</time>
      </trkpt>
      <trkpt lat="45.84381" lon="6.15222">
        <ele>458.6</ele>
        <time>2013-08-17T08:23:09Z</time>
      </trkpt>
      <trkpt lat="45.84384" lon="6.15228">
        <ele>458.4</ele>
        <time>2013-08-17T08:23:10Z</time>
      </trkpt>
      <trkpt lat="45.84387" lon="6.15234">
        <ele>458.3</ele>
        <time>2013-08-17T08:23:11Z</time>
      </trkpt>
      <trkpt lat="45.84393" lon="6.15244">
        <ele>457.9</ele>
        <time>2013-08-17T08:23:12Z</time>
      </trkpt>
      <trkpt lat="45.84396" lon="6.1525">
        <ele>457.8</ele>
        <time>2013-08-17T08:23:13Z</time>
      </trkpt>
      <trkpt lat="45.84405" lon="6.1527">
        <ele>457.2</ele>
        <time>2013-08-17T08:23:18Z</time>
      </trkpt>
      <trkpt lat="45.84411" lon="6.15299">
        <ele>456.7</ele>
        <time>2013-08-17T08:23:21Z</time>
      </trkpt>
      <trkpt lat="45.84411" lon="6.15306">
        <ele>456.7</ele>
        <time>2013-08-17T08:23:22Z</time>
      </trkpt>
      <trkpt lat="45.84412" lon="6.15317">
        <ele>456.7</ele>
        <time>2013-08-17T08:23:23Z</time>
      </trkpt>
      <trkpt lat="45.84412" lon="6.15326">
        <ele>456.7</ele>
        <time>2013-08-17T08:23:24Z</time>
      </trkpt>
      <trkpt lat="45.84412" lon="6.15337">
        <ele>456.7</ele>
        <time>2013-08-17T08:23:25Z</time>
      </trkpt>
      <trkpt lat="45.84412" lon="6.15349">
        <ele>456.7</ele>
        <time>2013-08-17T08:23:26Z</time>
      </trkpt>
      <trkpt lat="45.84412" lon="6.1536">
        <ele>456.7</ele>
        <time>2013-08-17T08:23:27Z</time>
      </trkpt>
      <trkpt lat="45.84412" lon="6.15369">
        <ele>456.7</ele>
        <time>2013-08-17T08:23:28Z</time>
      </trkpt>
      <trkpt lat="45.84412" lon="6.15377">
        <ele>456.6</ele>
        <time>2013-08-17T08:23:29Z</time>
      </trkpt>
      <trkpt lat="45.84412" lon="6.15385">
        <ele>456.5</ele>
        <time>2013-08-17T08:23:30Z</time>
      </trkpt>
      <trkpt lat="45.84413" lon="6.15394">
        <ele>456.3</ele>
        <time>2013-08-17T08:23:31Z</time>
      </trkpt>
      <trkpt lat="45.84417" lon="6.15418">
        <ele>455.7</ele>
        <time>2013-08-17T08:23:35Z</time>
      </trkpt>
      <trkpt lat="45.8442" lon="6.15425">
        <ele>455.5</ele>
        <time>2013-08-17T08:23:36Z</time>
      </trkpt>
      <trkpt lat="45.8441" lon="6.15442">
        <ele>455.5</ele>
        <time>2013-08-17T08:23:48Z</time>
      </trkpt>
      <trkpt lat="45.84407" lon="6.15447">
        <ele>455.5</ele>
        <time>2013-08-17T08:23:50Z</time>
      </trkpt>
      <trkpt lat="45.84406" lon="6.15451">
        <ele>455.4</ele>
        <time>2013-08-17T08:23:52Z</time>
      </trkpt>
      <trkpt lat="45.84418" lon="6.15468">
        <ele>455</ele>
        <time>2013-08-17T08:23:54Z</time>
      </trkpt>
      <trkpt lat="45.84424" lon="6.15459">
        <ele>454.8</ele>
        <time>2013-08-17T08:23:57Z</time>
      </trkpt>
      <trkpt lat="45.84419" lon="6.15467">
        <ele>454.9</ele>
        <time>2013-08-17T08:23:59Z</time>
      </trkpt>
      <trkpt lat="45.84425" lon="6.15459">
        <ele>454.8</ele>
        <time>2013-08-17T08:24:03Z</time>
      </trkpt>
      <trkpt lat="45.84422" lon="6.15463">
        <ele>454.9</ele>
        <time>2013-08-17T08:24:49Z</time>
      </trkpt>
      <trkpt lat="45.84424" lon="6.1546">
        <ele>454.8</ele>
        <time>2013-08-17T08:24:50Z</time>
      </trkpt>
      <trkpt lat="45.84416" lon="6.15472">
        <ele>455</ele>
        <time>2013-08-17T08:25:35Z</time>
      </trkpt>
      <trkpt lat="45.84419" lon="6.15468">
        <ele>455</ele>
        <time>2013-08-17T08:25:39Z</time>
      </trkpt>
      <trkpt lat="45.84424" lon="6.15467">
        <ele>454.8</ele>
        <time>2013-08-17T08:25:41Z</time>
      </trkpt>
      <trkpt lat="45.84424" lon="6.15457">
        <ele>454.9</ele>
        <time>2013-08-17T08:25:42Z</time>
      </trkpt>
      <trkpt lat="45.84422" lon="6.15442">
        <ele>455.2</ele>
        <time>2013-08-17T08:25:43Z</time>
      </trkpt>
      <trkpt lat="45.84424" lon="6.15437">
        <ele>455.2</ele>
        <time>2013-08-17T08:25:44Z</time>
      </trkpt>
      <trkpt lat="45.84426" lon="6.15433">
        <ele>455.2</ele>
        <time>2013-08-17T08:25:45Z</time>
      </trkpt>
      <trkpt lat="45.84429" lon="6.15428">
        <ele>455.2</ele>
        <time>2013-08-17T08:25:46Z</time>
      </trkpt>
      <trkpt lat="45.84433" lon="6.15423">
        <ele>455.2</ele>
        <time>2013-08-17T08:25:47Z</time>
      </trkpt>
      <trkpt lat="45.84436" lon="6.15417">
        <ele>455.2</ele>
        <time>2013-08-17T08:25:48Z</time>
      </trkpt>
      <trkpt lat="45.84439" lon="6.15412">
        <ele>455.2</ele>
        <time>2013-08-17T08:25:49Z</time>
      </trkpt>
      <trkpt lat="45.84443" lon="6.15406">
        <ele>455.1</ele>
        <time>2013-08-17T08:25:50Z</time>
      </trkpt>
      <trkpt lat="45.84455" lon="6.15412">
        <ele>454.6</ele>
        <time>2013-08-17T08:25:51Z</time>
      </trkpt>
      <trkpt lat="45.8446" lon="6.15406">
        <ele>454.6</ele>
        <time>2013-08-17T08:25:52Z</time>
      </trkpt>
      <trkpt lat="45.84464" lon="6.154">
        <ele>454.7</ele>
        <time>2013-08-17T08:25:53Z</time>
      </trkpt>
      <trkpt lat="45.84469" lon="6.15395">
        <ele>454.7</ele>
        <time>2013-08-17T08:25:54Z</time>
      </trkpt>
      <trkpt lat="45.84474" lon="6.15389">
        <ele>454.8</ele>
        <time>2013-08-17T08:25:55Z</time>
      </trkpt>
      <trkpt lat="45.84478" lon="6.15383">
        <ele>454.9</ele>
        <time>2013-08-17T08:25:56Z</time>
      </trkpt>
      <trkpt lat="45.84483" lon="6.15377">
        <ele>455</ele>
        <time>2013-08-17T08:25:57Z</time>
      </trkpt>
      <trkpt lat="45.84488" lon="6.15372">
        <ele>455</ele>
        <time>2013-08-17T08:25:58Z</time>
      </trkpt>
      <trkpt lat="45.84492" lon="6.15367">
        <ele>455</ele>
        <time>2013-08-17T08:25:59Z</time>
      </trkpt>
      <trkpt lat="45.84497" lon="6.15361">
        <ele>455</ele>
        <time>2013-08-17T08:26:00Z</time>
      </trkpt>
      <trkpt lat="45.84502" lon="6.15356">
        <ele>455</ele>
        <time>2013-08-17T08:26:01Z</time>
      </trkpt>
      <trkpt lat="45.84507" lon="6.1535">
        <ele>455</ele>
        <time>2013-08-17T08:26:02Z</time>
      </trkpt>
      <trkpt lat="45.84513" lon="6.15344">
        <ele>455</ele>
        <time>2013-08-17T08:26:03Z</time>
      </trkpt>
      <trkpt lat="45.84518" lon="6.15339">
        <ele>455</ele>
        <time>2013-08-17T08:26:04Z</time>
      </trkpt>
      <trkpt lat="45.84523" lon="6.15334">
        <ele>455</ele>
        <time>2013-08-17T08:26:05Z</time>
      </trkpt>
      <trkpt lat="45.84526" lon="6.1533">
        <ele>455</ele>
        <time>2013-08-17T08:26:06Z</time>
      </trkpt>
      <trkpt lat="45.8453" lon="6.15326">
        <ele>455</ele>
        <time>2013-08-17T08:26:07Z</time>
      </trkpt>
      <trkpt lat="45.84534" lon="6.15322">
        <ele>455</ele>
        <time>2013-08-17T08:26:08Z</time>
      </trkpt>
      <trkpt lat="45.84538" lon="6.15319">
        <ele>455</ele>
        <time>2013-08-17T08:26:09Z</time>
      </trkpt>
      <trkpt lat="45.8454" lon="6.15316">
        <ele>455</ele>
        <time>2013-08-17T08:26:10Z</time>
      </trkpt>
      <trkpt lat="45.84546" lon="6.15311">
        <ele>454.9</ele>
        <time>2013-08-17T08:26:12Z</time>
      </trkpt>
      <trkpt lat="45.84551" lon="6.15307">
        <ele>454.8</ele>
        <time>2013-08-17T08:26:13Z</time>
      </trkpt>
      <trkpt lat="45.84555" lon="6.15303">
        <ele>454.7</ele>
        <time>2013-08-17T08:26:14Z</time>
      </trkpt>
      <trkpt lat="45.84558" lon="6.153">
        <ele>454.6</ele>
        <time>2013-08-17T08:26:15Z</time>
      </trkpt>
      <trkpt lat="45.84563" lon="6.15296">
        <ele>454.5</ele>
        <time>2013-08-17T08:26:17Z</time>
      </trkpt>
      <trkpt lat="45.84568" lon="6.15291">
        <ele>454.4</ele>
        <time>2013-08-17T08:26:18Z</time>
      </trkpt>
      <trkpt lat="45.84572" lon="6.15288">
        <ele>454.3</ele>
        <time>2013-08-17T08:26:19Z</time>
      </trkpt>
      <trkpt lat="45.84576" lon="6.15284">
        <ele>454.3</ele>
        <time>2013-08-17T08:26:20Z</time>
      </trkpt>
      <trkpt lat="45.84582" lon="6.1528">
        <ele>454.3</ele>
        <time>2013-08-17T08:26:22Z</time>
      </trkpt>
      <trkpt lat="45.84589" lon="6.15274">
        <ele>454.2</ele>
        <time>2013-08-17T08:26:24Z</time>
      </trkpt>
      <trkpt lat="45.84594" lon="6.15272">
        <ele>454.1</ele>
        <time>2013-08-17T08:26:25Z</time>
      </trkpt>
      <trkpt lat="45.84597" lon="6.15269">
        <ele>454.1</ele>
        <time>2013-08-17T08:26:26Z</time>
      </trkpt>
      <trkpt lat="45.84603" lon="6.15266">
        <ele>454.1</ele>
        <time>2013-08-17T08:26:27Z</time>
      </trkpt>
      <trkpt lat="45.84606" lon="6.15263">
        <ele>454</ele>
        <time>2013-08-17T08:26:28Z</time>
      </trkpt>
      <trkpt lat="45.84612" lon="6.1526">
        <ele>454</ele>
        <time>2013-08-17T08:26:29Z</time>
      </trkpt>
      <trkpt lat="45.84617" lon="6.15257">
        <ele>454</ele>
        <time>2013-08-17T08:26:30Z</time>
      </trkpt>
      <trkpt lat="45.84621" lon="6.15254">
        <ele>454</ele>
        <time>2013-08-17T08:26:31Z</time>
      </trkpt>
      <trkpt lat="45.84626" lon="6.15251">
        <ele>454</ele>
        <time>2013-08-17T08:26:32Z</time>
      </trkpt>
      <trkpt lat="45.84632" lon="6.15247">
        <ele>454.1</ele>
        <time>2013-08-17T08:26:33Z</time>
      </trkpt>
      <trkpt lat="45.84636" lon="6.15244">
        <ele>454.1</ele>
        <time>2013-08-17T08:26:34Z</time>
      </trkpt>
      <trkpt lat="45.84641" lon="6.15241">
        <ele>454.2</ele>
        <time>2013-08-17T08:26:35Z</time>
      </trkpt>
      <trkpt lat="45.84646" lon="6.15238">
        <ele>454.2</ele>
        <time>2013-08-17T08:26:36Z</time>
      </trkpt>
      <trkpt lat="45.84651" lon="6.15235">
        <ele>454.2</ele>
        <time>2013-08-17T08:26:37Z</time>
      </trkpt>
      <trkpt lat="45.84655" lon="6.15233">
        <ele>454.3</ele>
        <time>2013-08-17T08:26:38Z</time>
      </trkpt>
      <trkpt lat="45.84658" lon="6.15231">
        <ele>454.3</ele>
        <time>2013-08-17T08:26:39Z</time>
      </trkpt>
      <trkpt lat="45.84682" lon="6.15199">
        <ele>454.4</ele>
        <time>2013-08-17T08:26:45Z</time>
      </trkpt>
      <trkpt lat="45.84687" lon="6.15196">
        <ele>454.4</ele>
        <time>2013-08-17T08:26:46Z</time>
      </trkpt>
      <trkpt lat="45.84692" lon="6.15192">
        <ele>454.3</ele>
        <time>2013-08-17T08:26:47Z</time>
      </trkpt>
      <trkpt lat="45.84697" lon="6.15187">
        <ele>454.2</ele>
        <time>2013-08-17T08:26:48Z</time>
      </trkpt>
      <trkpt lat="45.84703" lon="6.15183">
        <ele>454.1</ele>
        <time>2013-08-17T08:26:49Z</time>
      </trkpt>
      <trkpt lat="45.84707" lon="6.15178">
        <ele>454</ele>
        <time>2013-08-17T08:26:50Z</time>
      </trkpt>
      <trkpt lat="45.84712" lon="6.15178">
        <ele>453.9</ele>
        <time>2013-08-17T08:26:51Z</time>
      </trkpt>
      <trkpt lat="45.84717" lon="6.15176">
        <ele>453.8</ele>
        <time>2013-08-17T08:26:52Z</time>
      </trkpt>
      <trkpt lat="45.84722" lon="6.15174">
        <ele>453.7</ele>
        <time>2013-08-17T08:26:53Z</time>
      </trkpt>
      <trkpt lat="45.84726" lon="6.15172">
        <ele>453.6</ele>
        <time>2013-08-17T08:26:54Z</time>
      </trkpt>
      <trkpt lat="45.84731" lon="6.15168">
        <ele>453.5</ele>
        <time>2013-08-17T08:26:55Z</time>
      </trkpt>
      <trkpt lat="45.84737" lon="6.15166">
        <ele>453.3</ele>
        <time>2013-08-17T08:26:56Z</time>
      </trkpt>
      <trkpt lat="45.84743" lon="6.15161">
        <ele>453.1</ele>
        <time>2013-08-17T08:26:57Z</time>
      </trkpt>
      <trkpt lat="45.84747" lon="6.15157">
        <ele>453</ele>
        <time>2013-08-17T08:26:58Z</time>
      </trkpt>
      <trkpt lat="45.84752" lon="6.15151">
        <ele>452.8</ele>
        <time>2013-08-17T08:26:59Z</time>
      </trkpt>
      <trkpt lat="45.84754" lon="6.15148">
        <ele>452.7</ele>
        <time>2013-08-17T08:27:00Z</time>
      </trkpt>
      <trkpt lat="45.8476" lon="6.15144">
        <ele>452.4</ele>
        <time>2013-08-17T08:27:01Z</time>
      </trkpt>
      <trkpt lat="45.84765" lon="6.15142">
        <ele>452.2</ele>
        <time>2013-08-17T08:27:02Z</time>
      </trkpt>
      <trkpt lat="45.8477" lon="6.15138">
        <ele>452</ele>
        <time>2013-08-17T08:27:03Z</time>
      </trkpt>
      <trkpt lat="45.84778" lon="6.15149">
        <ele>452</ele>
        <time>2013-08-17T08:27:04Z</time>
      </trkpt>
      <trkpt lat="45.84783" lon="6.15146">
        <ele>451.8</ele>
        <time>2013-08-17T08:27:05Z</time>
      </trkpt>
      <trkpt lat="45.84787" lon="6.15143">
        <ele>451.6</ele>
        <time>2013-08-17T08:27:06Z</time>
      </trkpt>
      <trkpt lat="45.84792" lon="6.15139">
        <ele>451.3</ele>
        <time>2013-08-17T08:27:07Z</time>
      </trkpt>
      <trkpt lat="45.84795" lon="6.15137">
        <ele>451.3</ele>
        <time>2013-08-17T08:27:08Z</time>
      </trkpt>
      <trkpt lat="45.84799" lon="6.15135">
        <ele>451.3</ele>
        <time>2013-08-17T08:27:09Z</time>
      </trkpt>
      <trkpt lat="45.84804" lon="6.15131">
        <ele>451.3</ele>
        <time>2013-08-17T08:27:10Z</time>
      </trkpt>
      <trkpt lat="45.84808" lon="6.15128">
        <ele>451.2</ele>
        <time>2013-08-17T08:27:11Z</time>
      </trkpt>
      <trkpt lat="45.84812" lon="6.15125">
        <ele>451.3</ele>
        <time>2013-08-17T08:27:12Z</time>
      </trkpt>
      <trkpt lat="45.84817" lon="6.15122">
        <ele>451.3</ele>
        <time>2013-08-17T08:27:13Z</time>
      </trkpt>
      <trkpt lat="45.84822" lon="6.15119">
        <ele>451.4</ele>
        <time>2013-08-17T08:27:14Z</time>
      </trkpt>
      <trkpt lat="45.84827" lon="6.15116">
        <ele>451.5</ele>
        <time>2013-08-17T08:27:15Z</time>
      </trkpt>
      <trkpt lat="45.84833" lon="6.15112">
        <ele>451.7</ele>
        <time>2013-08-17T08:27:16Z</time>
      </trkpt>
      <trkpt lat="45.84839" lon="6.15108">
        <ele>451.8</ele>
        <time>2013-08-17T08:27:17Z</time>
      </trkpt>
      <trkpt lat="45.84843" lon="6.15105">
        <ele>451.9</ele>
        <time>2013-08-17T08:27:18Z</time>
      </trkpt>
      <trkpt lat="45.84847" lon="6.15102">
        <ele>451.9</ele>
        <time>2013-08-17T08:27:19Z</time>
      </trkpt>
      <trkpt lat="45.84856" lon="6.15096">
        <ele>452.1</ele>
        <time>2013-08-17T08:27:20Z</time>
      </trkpt>
      <trkpt lat="45.84863" lon="6.15092">
        <ele>452.2</ele>
        <time>2013-08-17T08:27:21Z</time>
      </trkpt>
      <trkpt lat="45.84866" lon="6.1509">
        <ele>452.3</ele>
        <time>2013-08-17T08:27:22Z</time>
      </trkpt>
      <trkpt lat="45.84871" lon="6.15087">
        <ele>452.4</ele>
        <time>2013-08-17T08:27:23Z</time>
      </trkpt>
      <trkpt lat="45.84876" lon="6.15084">
        <ele>452.5</ele>
        <time>2013-08-17T08:27:24Z</time>
      </trkpt>
      <trkpt lat="45.84881" lon="6.1508">
        <ele>452.5</ele>
        <time>2013-08-17T08:27:25Z</time>
      </trkpt>
      <trkpt lat="45.84886" lon="6.15077">
        <ele>452.4</ele>
        <time>2013-08-17T08:27:26Z</time>
      </trkpt>
      <trkpt lat="45.84893" lon="6.15073">
        <ele>452.4</ele>
        <time>2013-08-17T08:27:27Z</time>
      </trkpt>
      <trkpt lat="45.84897" lon="6.1507">
        <ele>452.4</ele>
        <time>2013-08-17T08:27:28Z</time>
      </trkpt>
      <trkpt lat="45.84903" lon="6.15067">
        <ele>452.4</ele>
        <time>2013-08-17T08:27:29Z</time>
      </trkpt>
      <trkpt lat="45.84907" lon="6.15064">
        <ele>452.3</ele>
        <time>2013-08-17T08:27:30Z</time>
      </trkpt>
      <trkpt lat="45.84913" lon="6.1506">
        <ele>452.3</ele>
        <time>2013-08-17T08:27:31Z</time>
      </trkpt>
      <trkpt lat="45.8492" lon="6.15056">
        <ele>452.3</ele>
        <time>2013-08-17T08:27:32Z</time>
      </trkpt>
      <trkpt lat="45.84924" lon="6.15054">
        <ele>452.3</ele>
        <time>2013-08-17T08:27:33Z</time>
      </trkpt>
      <trkpt lat="45.84927" lon="6.15052">
        <ele>452.2</ele>
        <time>2013-08-17T08:27:34Z</time>
      </trkpt>
      <trkpt lat="45.84941" lon="6.15043">
        <ele>452.2</ele>
        <time>2013-08-17T08:27:36Z</time>
      </trkpt>
      <trkpt lat="45.84949" lon="6.15037">
        <ele>452.3</ele>
        <time>2013-08-17T08:27:37Z</time>
      </trkpt>
      <trkpt lat="45.84954" lon="6.15034">
        <ele>452.4</ele>
        <time>2013-08-17T08:27:38Z</time>
      </trkpt>
      <trkpt lat="45.84958" lon="6.15031">
        <ele>452.5</ele>
        <time>2013-08-17T08:27:39Z</time>
      </trkpt>
      <trkpt lat="45.84963" lon="6.15027">
        <ele>452.7</ele>
        <time>2013-08-17T08:27:40Z</time>
      </trkpt>
      <trkpt lat="45.84969" lon="6.15023">
        <ele>452.8</ele>
        <time>2013-08-17T08:27:41Z</time>
      </trkpt>
      <trkpt lat="45.84974" lon="6.1502">
        <ele>453</ele>
        <time>2013-08-17T08:27:42Z</time>
      </trkpt>
      <trkpt lat="45.84979" lon="6.15016">
        <ele>453.1</ele>
        <time>2013-08-17T08:27:43Z</time>
      </trkpt>
      <trkpt lat="45.84994" lon="6.15006">
        <ele>453.3</ele>
        <time>2013-08-17T08:27:46Z</time>
      </trkpt>
      <trkpt lat="45.84999" lon="6.15002">
        <ele>453.4</ele>
        <time>2013-08-17T08:27:47Z</time>
      </trkpt>
      <trkpt lat="45.85003" lon="6.15">
        <ele>453.5</ele>
        <time>2013-08-17T08:27:48Z</time>
      </trkpt>
      <trkpt lat="45.85008" lon="6.14996">
        <ele>453.5</ele>
        <time>2013-08-17T08:27:49Z</time>
      </trkpt>
      <trkpt lat="45.85013" lon="6.14993">
        <ele>453.6</ele>
        <time>2013-08-17T08:27:50Z</time>
      </trkpt>
      <trkpt lat="45.85017" lon="6.1499">
        <ele>453.6</ele>
        <time>2013-08-17T08:27:51Z</time>
      </trkpt>
      <trkpt lat="45.85022" lon="6.14987">
        <ele>453.6</ele>
        <time>2013-08-17T08:27:52Z</time>
      </trkpt>
      <trkpt lat="45.85026" lon="6.14985">
        <ele>453.6</ele>
        <time>2013-08-17T08:27:53Z</time>
      </trkpt>
      <trkpt lat="45.85031" lon="6.14981">
        <ele>453.6</ele>
        <time>2013-08-17T08:27:54Z</time>
      </trkpt>
      <trkpt lat="45.85037" lon="6.14978">
        <ele>453.6</ele>
        <time>2013-08-17T08:27:55Z</time>
      </trkpt>
      <trkpt lat="45.85044" lon="6.14974">
        <ele>453.6</ele>
        <time>2013-08-17T08:27:57Z</time>
      </trkpt>
      <trkpt lat="45.85052" lon="6.14972">
        <ele>453.6</ele>
        <time>2013-08-17T08:27:59Z</time>
      </trkpt>
      <trkpt lat="45.85057" lon="6.14971">
        <ele>453.5</ele>
        <time>2013-08-17T08:28:01Z</time>
      </trkpt>
      <trkpt lat="45.85064" lon="6.14971">
        <ele>453.5</ele>
        <time>2013-08-17T08:28:03Z</time>
      </trkpt>
      <trkpt lat="45.85068" lon="6.14972">
        <ele>453.4</ele>
        <time>2013-08-17T08:28:05Z</time>
      </trkpt>
      <trkpt lat="45.8508" lon="6.14967">
        <ele>453.4</ele>
        <time>2013-08-17T08:28:06Z</time>
      </trkpt>
      <trkpt lat="45.85091" lon="6.14961">
        <ele>453.4</ele>
        <time>2013-08-17T08:28:07Z</time>
      </trkpt>
      <trkpt lat="45.85096" lon="6.14958">
        <ele>453.4</ele>
        <time>2013-08-17T08:28:08Z</time>
      </trkpt>
      <trkpt lat="45.85101" lon="6.14954">
        <ele>453.4</ele>
        <time>2013-08-17T08:28:09Z</time>
      </trkpt>
      <trkpt lat="45.85104" lon="6.14952">
        <ele>453.4</ele>
        <time>2013-08-17T08:28:10Z</time>
      </trkpt>
      <trkpt lat="45.85108" lon="6.14948">
        <ele>453.5</ele>
        <time>2013-08-17T08:28:11Z</time>
      </trkpt>
      <trkpt lat="45.85111" lon="6.14944">
        <ele>453.6</ele>
        <time>2013-08-17T08:28:12Z</time>
      </trkpt>
      <trkpt lat="45.85117" lon="6.14933">
        <ele>453.8</ele>
        <time>2013-08-17T08:28:14Z</time>
      </trkpt>
      <trkpt lat="45.85126" lon="6.14919">
        <ele>453.9</ele>
        <time>2013-08-17T08:28:16Z</time>
      </trkpt>
      <trkpt lat="45.85123" lon="6.14907">
        <ele>454.3</ele>
        <time>2013-08-17T08:28:17Z</time>
      </trkpt>
      <trkpt lat="45.85126" lon="6.14904">
        <ele>454.3</ele>
        <time>2013-08-17T08:28:18Z</time>
      </trkpt>
      <trkpt lat="45.85129" lon="6.14899">
        <ele>454.4</ele>
        <time>2013-08-17T08:28:19Z</time>
      </trkpt>
      <trkpt lat="45.85134" lon="6.14896">
        <ele>454.4</ele>
        <time>2013-08-17T08:28:20Z</time>
      </trkpt>
      <trkpt lat="45.85138" lon="6.1489">
        <ele>454.5</ele>
        <time>2013-08-17T08:28:21Z</time>
      </trkpt>
      <trkpt lat="45.85143" lon="6.14888">
        <ele>454.5</ele>
        <time>2013-08-17T08:28:22Z</time>
      </trkpt>
      <trkpt lat="45.85146" lon="6.14885">
        <ele>454.5</ele>
        <time>2013-08-17T08:28:23Z</time>
      </trkpt>
      <trkpt lat="45.85151" lon="6.14881">
        <ele>454.5</ele>
        <time>2013-08-17T08:28:24Z</time>
      </trkpt>
      <trkpt lat="45.85154" lon="6.1488">
        <ele>454.5</ele>
        <time>2013-08-17T08:28:25Z</time>
      </trkpt>
      <trkpt lat="45.85158" lon="6.14878">
        <ele>454.5</ele>
        <time>2013-08-17T08:28:26Z</time>
      </trkpt>
      <trkpt lat="45.85162" lon="6.14872">
        <ele>454.6</ele>
        <time>2013-08-17T08:28:27Z</time>
      </trkpt>
      <trkpt lat="45.85165" lon="6.14869">
        <ele>454.6</ele>
        <time>2013-08-17T08:28:28Z</time>
      </trkpt>
      <trkpt lat="45.85169" lon="6.14866">
        <ele>454.5</ele>
        <time>2013-08-17T08:28:29Z</time>
      </trkpt>
      <trkpt lat="45.85173" lon="6.14863">
        <ele>454.5</ele>
        <time>2013-08-17T08:28:30Z</time>
      </trkpt>
      <trkpt lat="45.85176" lon="6.14862">
        <ele>454.5</ele>
        <time>2013-08-17T08:28:31Z</time>
      </trkpt>
      <trkpt lat="45.8518" lon="6.14859">
        <ele>454.4</ele>
        <time>2013-08-17T08:28:32Z</time>
      </trkpt>
      <trkpt lat="45.85183" lon="6.14855">
        <ele>454.4</ele>
        <time>2013-08-17T08:28:33Z</time>
      </trkpt>
      <trkpt lat="45.85188" lon="6.14853">
        <ele>454.3</ele>
        <time>2013-08-17T08:28:34Z</time>
      </trkpt>
      <trkpt lat="45.85196" lon="6.14847">
        <ele>454.2</ele>
        <time>2013-08-17T08:28:35Z</time>
      </trkpt>
      <trkpt lat="45.85203" lon="6.14837">
        <ele>454.1</ele>
        <time>2013-08-17T08:28:36Z</time>
      </trkpt>
      <trkpt lat="45.85209" lon="6.14828">
        <ele>454</ele>
        <time>2013-08-17T08:28:37Z</time>
      </trkpt>
      <trkpt lat="45.85215" lon="6.14822">
        <ele>453.8</ele>
        <time>2013-08-17T08:28:38Z</time>
      </trkpt>
      <trkpt lat="45.8522" lon="6.14818">
        <ele>453.6</ele>
        <time>2013-08-17T08:28:39Z</time>
      </trkpt>
      <trkpt lat="45.85226" lon="6.14813">
        <ele>453.4</ele>
        <time>2013-08-17T08:28:40Z</time>
      </trkpt>
      <trkpt lat="45.85235" lon="6.14817">
        <ele>453.1</ele>
        <time>2013-08-17T08:28:41Z</time>
      </trkpt>
      <trkpt lat="45.8524" lon="6.14813">
        <ele>453</ele>
        <time>2013-08-17T08:28:42Z</time>
      </trkpt>
      <trkpt lat="45.85244" lon="6.14809">
        <ele>452.8</ele>
        <time>2013-08-17T08:28:43Z</time>
      </trkpt>
      <trkpt lat="45.85248" lon="6.14806">
        <ele>452.7</ele>
        <time>2013-08-17T08:28:44Z</time>
      </trkpt>
      <trkpt lat="45.85261" lon="6.14794">
        <ele>452.1</ele>
        <time>2013-08-17T08:28:46Z</time>
      </trkpt>
      <trkpt lat="45.85265" lon="6.1479">
        <ele>452</ele>
        <time>2013-08-17T08:28:47Z</time>
      </trkpt>
      <trkpt lat="45.85272" lon="6.14784">
        <ele>451.8</ele>
        <time>2013-08-17T08:28:48Z</time>
      </trkpt>
      <trkpt lat="45.85277" lon="6.1478">
        <ele>451.7</ele>
        <time>2013-08-17T08:28:49Z</time>
      </trkpt>
      <trkpt lat="45.85282" lon="6.14775">
        <ele>451.6</ele>
        <time>2013-08-17T08:28:50Z</time>
      </trkpt>
      <trkpt lat="45.85288" lon="6.1477">
        <ele>451.4</ele>
        <time>2013-08-17T08:28:51Z</time>
      </trkpt>
      <trkpt lat="45.85294" lon="6.14764">
        <ele>451.3</ele>
        <time>2013-08-17T08:28:52Z</time>
      </trkpt>
      <trkpt lat="45.853" lon="6.14758">
        <ele>451.2</ele>
        <time>2013-08-17T08:28:53Z</time>
      </trkpt>
      <trkpt lat="45.85307" lon="6.14752">
        <ele>451.1</ele>
        <time>2013-08-17T08:28:54Z</time>
      </trkpt>
      <trkpt lat="45.85312" lon="6.14747">
        <ele>451.1</ele>
        <time>2013-08-17T08:28:55Z</time>
      </trkpt>
      <trkpt lat="45.85318" lon="6.14742">
        <ele>451</ele>
        <time>2013-08-17T08:28:56Z</time>
      </trkpt>
      <trkpt lat="45.85324" lon="6.14737">
        <ele>451</ele>
        <time>2013-08-17T08:28:57Z</time>
      </trkpt>
      <trkpt lat="45.85329" lon="6.14733">
        <ele>451</ele>
        <time>2013-08-17T08:28:58Z</time>
      </trkpt>
      <trkpt lat="45.85333" lon="6.14729">
        <ele>451</ele>
        <time>2013-08-17T08:28:59Z</time>
      </trkpt>
      <trkpt lat="45.85338" lon="6.14724">
        <ele>451</ele>
        <time>2013-08-17T08:29:00Z</time>
      </trkpt>
      <trkpt lat="45.85343" lon="6.1472">
        <ele>451.1</ele>
        <time>2013-08-17T08:29:01Z</time>
      </trkpt>
      <trkpt lat="45.85348" lon="6.14716">
        <ele>451.1</ele>
        <time>2013-08-17T08:29:02Z</time>
      </trkpt>
      <trkpt lat="45.85354" lon="6.14711">
        <ele>451.2</ele>
        <time>2013-08-17T08:29:03Z</time>
      </trkpt>
      <trkpt lat="45.85362" lon="6.14705">
        <ele>451.2</ele>
        <time>2013-08-17T08:29:05Z</time>
      </trkpt>
      <trkpt lat="45.85366" lon="6.14702">
        <ele>451.2</ele>
        <time>2013-08-17T08:29:06Z</time>
      </trkpt>
      <trkpt lat="45.8537" lon="6.147">
        <ele>451.2</ele>
        <time>2013-08-17T08:29:07Z</time>
      </trkpt>
      <trkpt lat="45.85374" lon="6.14697">
        <ele>451.1</ele>
        <time>2013-08-17T08:29:08Z</time>
      </trkpt>
      <trkpt lat="45.8538" lon="6.14694">
        <ele>451</ele>
        <time>2013-08-17T08:29:09Z</time>
      </trkpt>
      <trkpt lat="45.85384" lon="6.14691">
        <ele>450.9</ele>
        <time>2013-08-17T08:29:10Z</time>
      </trkpt>
      <trkpt lat="45.85389" lon="6.14688">
        <ele>450.7</ele>
        <time>2013-08-17T08:29:11Z</time>
      </trkpt>
      <trkpt lat="45.85393" lon="6.14686">
        <ele>450.6</ele>
        <time>2013-08-17T08:29:12Z</time>
      </trkpt>
      <trkpt lat="45.85402" lon="6.1468">
        <ele>450.4</ele>
        <time>2013-08-17T08:29:13Z</time>
      </trkpt>
      <trkpt lat="45.85405" lon="6.14679">
        <ele>450.3</ele>
        <time>2013-08-17T08:29:15Z</time>
      </trkpt>
      <trkpt lat="45.8541" lon="6.14676">
        <ele>450.1</ele>
        <time>2013-08-17T08:29:16Z</time>
      </trkpt>
      <trkpt lat="45.85417" lon="6.14673">
        <ele>449.9</ele>
        <time>2013-08-17T08:29:18Z</time>
      </trkpt>
      <trkpt lat="45.85421" lon="6.14672">
        <ele>449.8</ele>
        <time>2013-08-17T08:29:19Z</time>
      </trkpt>
      <trkpt lat="45.85426" lon="6.1467">
        <ele>449.6</ele>
        <time>2013-08-17T08:29:20Z</time>
      </trkpt>
      <trkpt lat="45.85431" lon="6.14669">
        <ele>449.5</ele>
        <time>2013-08-17T08:29:21Z</time>
      </trkpt>
      <trkpt lat="45.85436" lon="6.14667">
        <ele>449.3</ele>
        <time>2013-08-17T08:29:22Z</time>
      </trkpt>
      <trkpt lat="45.85441" lon="6.14666">
        <ele>449.1</ele>
        <time>2013-08-17T08:29:23Z</time>
      </trkpt>
      <trkpt lat="45.85447" lon="6.14665">
        <ele>448.9</ele>
        <time>2013-08-17T08:29:24Z</time>
      </trkpt>
      <trkpt lat="45.85453" lon="6.14664">
        <ele>448.7</ele>
        <time>2013-08-17T08:29:25Z</time>
      </trkpt>
      <trkpt lat="45.85458" lon="6.14663">
        <ele>448.6</ele>
        <time>2013-08-17T08:29:26Z</time>
      </trkpt>
      <trkpt lat="45.85465" lon="6.14662">
        <ele>448.7</ele>
        <time>2013-08-17T08:29:27Z</time>
      </trkpt>
      <trkpt lat="45.85472" lon="6.14661">
        <ele>448.9</ele>
        <time>2013-08-17T08:29:28Z</time>
      </trkpt>
      <trkpt lat="45.85478" lon="6.1466">
        <ele>449</ele>
        <time>2013-08-17T08:29:29Z</time>
      </trkpt>
      <trkpt lat="45.85484" lon="6.14659">
        <ele>449.2</ele>
        <time>2013-08-17T08:29:30Z</time>
      </trkpt>
      <trkpt lat="45.85489" lon="6.14659">
        <ele>449.3</ele>
        <time>2013-08-17T08:29:31Z</time>
      </trkpt>
      <trkpt lat="45.85493" lon="6.14658">
        <ele>449.4</ele>
        <time>2013-08-17T08:29:32Z</time>
      </trkpt>
      <trkpt lat="45.85497" lon="6.14658">
        <ele>449.6</ele>
        <time>2013-08-17T08:29:33Z</time>
      </trkpt>
      <trkpt lat="45.85501" lon="6.14657">
        <ele>449.7</ele>
        <time>2013-08-17T08:29:34Z</time>
      </trkpt>
      <trkpt lat="45.85506" lon="6.14657">
        <ele>449.8</ele>
        <time>2013-08-17T08:29:35Z</time>
      </trkpt>
      <trkpt lat="45.85511" lon="6.14656">
        <ele>450</ele>
        <time>2013-08-17T08:29:36Z</time>
      </trkpt>
      <trkpt lat="45.85516" lon="6.14655">
        <ele>450.1</ele>
        <time>2013-08-17T08:29:37Z</time>
      </trkpt>
      <trkpt lat="45.85521" lon="6.14655">
        <ele>450.3</ele>
        <time>2013-08-17T08:29:39Z</time>
      </trkpt>
      <trkpt lat="45.85526" lon="6.14654">
        <ele>450.5</ele>
        <time>2013-08-17T08:29:40Z</time>
      </trkpt>
      <trkpt lat="45.85533" lon="6.14653">
        <ele>450.7</ele>
        <time>2013-08-17T08:29:41Z</time>
      </trkpt>
      <trkpt lat="45.85537" lon="6.14652">
        <ele>450.9</ele>
        <time>2013-08-17T08:29:42Z</time>
      </trkpt>
      <trkpt lat="45.8554" lon="6.14652">
        <ele>451</ele>
        <time>2013-08-17T08:29:43Z</time>
      </trkpt>
      <trkpt lat="45.85544" lon="6.14651">
        <ele>451.2</ele>
        <time>2013-08-17T08:29:44Z</time>
      </trkpt>
      <trkpt lat="45.85549" lon="6.1465">
        <ele>451.3</ele>
        <time>2013-08-17T08:29:45Z</time>
      </trkpt>
      <trkpt lat="45.85554" lon="6.1465">
        <ele>451.4</ele>
        <time>2013-08-17T08:29:46Z</time>
      </trkpt>
      <trkpt lat="45.85557" lon="6.14649">
        <ele>451.5</ele>
        <time>2013-08-17T08:29:47Z</time>
      </trkpt>
      <trkpt lat="45.85563" lon="6.14648">
        <ele>451.7</ele>
        <time>2013-08-17T08:29:48Z</time>
      </trkpt>
      <trkpt lat="45.85567" lon="6.14647">
        <ele>451.8</ele>
        <time>2013-08-17T08:29:49Z</time>
      </trkpt>
      <trkpt lat="45.85581" lon="6.14636">
        <ele>452.8</ele>
        <time>2013-08-17T08:29:52Z</time>
      </trkpt>
      <trkpt lat="45.85586" lon="6.14635">
        <ele>452.9</ele>
        <time>2013-08-17T08:29:53Z</time>
      </trkpt>
      <trkpt lat="45.8559" lon="6.14634">
        <ele>453</ele>
        <time>2013-08-17T08:29:54Z</time>
      </trkpt>
      <trkpt lat="45.85595" lon="6.14632">
        <ele>453.2</ele>
        <time>2013-08-17T08:29:55Z</time>
      </trkpt>
      <trkpt lat="45.85599" lon="6.1463">
        <ele>453.4</ele>
        <time>2013-08-17T08:29:56Z</time>
      </trkpt>
      <trkpt lat="45.85603" lon="6.14628">
        <ele>453.5</ele>
        <time>2013-08-17T08:29:57Z</time>
      </trkpt>
      <trkpt lat="45.8561" lon="6.14626">
        <ele>453.7</ele>
        <time>2013-08-17T08:29:58Z</time>
      </trkpt>
      <trkpt lat="45.85616" lon="6.14624">
        <ele>454</ele>
        <time>2013-08-17T08:29:59Z</time>
      </trkpt>
      <trkpt lat="45.85622" lon="6.14622">
        <ele>454.3</ele>
        <time>2013-08-17T08:30:00Z</time>
      </trkpt>
      <trkpt lat="45.85628" lon="6.14616">
        <ele>454.9</ele>
        <time>2013-08-17T08:30:01Z</time>
      </trkpt>
      <trkpt lat="45.85634" lon="6.14616">
        <ele>454.9</ele>
        <time>2013-08-17T08:30:02Z</time>
      </trkpt>
      <trkpt lat="45.8564" lon="6.14616">
        <ele>454.9</ele>
        <time>2013-08-17T08:30:03Z</time>
      </trkpt>
      <trkpt lat="45.85644" lon="6.14619">
        <ele>454.5</ele>
        <time>2013-08-17T08:30:04Z</time>
      </trkpt>
      <trkpt lat="45.85647" lon="6.14619">
        <ele>454.5</ele>
        <time>2013-08-17T08:30:05Z</time>
      </trkpt>
      <trkpt lat="45.85651" lon="6.14614">
        <ele>454.9</ele>
        <time>2013-08-17T08:30:06Z</time>
      </trkpt>
      <trkpt lat="45.85656" lon="6.14603">
        <ele>455.7</ele>
        <time>2013-08-17T08:30:07Z</time>
      </trkpt>
      <trkpt lat="45.85662" lon="6.14596">
        <ele>456</ele>
        <time>2013-08-17T08:30:08Z</time>
      </trkpt>
      <trkpt lat="45.85669" lon="6.14592">
        <ele>456.1</ele>
        <time>2013-08-17T08:30:09Z</time>
      </trkpt>
      <trkpt lat="45.85679" lon="6.14582">
        <ele>456.3</ele>
        <time>2013-08-17T08:30:10Z</time>
      </trkpt>
      <trkpt lat="45.85685" lon="6.14575">
        <ele>456.4</ele>
        <time>2013-08-17T08:30:12Z</time>
      </trkpt>
      <trkpt lat="45.85691" lon="6.14569">
        <ele>456.3</ele>
        <time>2013-08-17T08:30:13Z</time>
      </trkpt>
      <trkpt lat="45.85697" lon="6.14563">
        <ele>456.2</ele>
        <time>2013-08-17T08:30:14Z</time>
      </trkpt>
      <trkpt lat="45.85703" lon="6.14557">
        <ele>456</ele>
        <time>2013-08-17T08:30:15Z</time>
      </trkpt>
      <trkpt lat="45.85708" lon="6.1455">
        <ele>455.8</ele>
        <time>2013-08-17T08:30:16Z</time>
      </trkpt>
      <trkpt lat="45.85713" lon="6.14543">
        <ele>455.7</ele>
        <time>2013-08-17T08:30:17Z</time>
      </trkpt>
      <trkpt lat="45.85718" lon="6.14537">
        <ele>455.5</ele>
        <time>2013-08-17T08:30:18Z</time>
      </trkpt>
      <trkpt lat="45.85722" lon="6.14531">
        <ele>455.3</ele>
        <time>2013-08-17T08:30:19Z</time>
      </trkpt>
      <trkpt lat="45.85727" lon="6.14522">
        <ele>455</ele>
        <time>2013-08-17T08:30:20Z</time>
      </trkpt>
      <trkpt lat="45.85732" lon="6.14515">
        <ele>454.8</ele>
        <time>2013-08-17T08:30:21Z</time>
      </trkpt>
      <trkpt lat="45.85736" lon="6.14509">
        <ele>454.6</ele>
        <time>2013-08-17T08:30:22Z</time>
      </trkpt>
      <trkpt lat="45.85738" lon="6.14504">
        <ele>454.5</ele>
        <time>2013-08-17T08:30:23Z</time>
      </trkpt>
      <trkpt lat="45.85743" lon="6.14497">
        <ele>454.3</ele>
        <time>2013-08-17T08:30:24Z</time>
      </trkpt>
      <trkpt lat="45.85747" lon="6.1449">
        <ele>454</ele>
        <time>2013-08-17T08:30:25Z</time>
      </trkpt>
      <trkpt lat="45.85752" lon="6.14481">
        <ele>453.8</ele>
        <time>2013-08-17T08:30:26Z</time>
      </trkpt>
      <trkpt lat="45.85757" lon="6.14472">
        <ele>453.4</ele>
        <time>2013-08-17T08:30:27Z</time>
      </trkpt>
      <trkpt lat="45.85762" lon="6.14464">
        <ele>453.1</ele>
        <time>2013-08-17T08:30:28Z</time>
      </trkpt>
      <trkpt lat="45.85767" lon="6.14456">
        <ele>452.8</ele>
        <time>2013-08-17T08:30:29Z</time>
      </trkpt>
      <trkpt lat="45.85772" lon="6.14449">
        <ele>452.5</ele>
        <time>2013-08-17T08:30:30Z</time>
      </trkpt>
      <trkpt lat="45.85775" lon="6.14443">
        <ele>452.3</ele>
        <time>2013-08-17T08:30:31Z</time>
      </trkpt>
      <trkpt lat="45.8578" lon="6.14436">
        <ele>452.1</ele>
        <time>2013-08-17T08:30:32Z</time>
      </trkpt>
      <trkpt lat="45.85785" lon="6.14428">
        <ele>451.8</ele>
        <time>2013-08-17T08:30:33Z</time>
      </trkpt>
      <trkpt lat="45.8579" lon="6.14419">
        <ele>451.6</ele>
        <time>2013-08-17T08:30:34Z</time>
      </trkpt>
      <trkpt lat="45.85796" lon="6.1441">
        <ele>451.5</ele>
        <time>2013-08-17T08:30:35Z</time>
      </trkpt>
      <trkpt lat="45.858" lon="6.14402">
        <ele>451.5</ele>
        <time>2013-08-17T08:30:36Z</time>
      </trkpt>
      <trkpt lat="45.85806" lon="6.14394">
        <ele>451.6</ele>
        <time>2013-08-17T08:30:37Z</time>
      </trkpt>
      <trkpt lat="45.85812" lon="6.14386">
        <ele>451.6</ele>
        <time>2013-08-17T08:30:38Z</time>
      </trkpt>
      <trkpt lat="45.85817" lon="6.14379">
        <ele>451.6</ele>
        <time>2013-08-17T08:30:39Z</time>
      </trkpt>
      <trkpt lat="45.85823" lon="6.14371">
        <ele>451.6</ele>
        <time>2013-08-17T08:30:40Z</time>
      </trkpt>
      <trkpt lat="45.8583" lon="6.14363">
        <ele>451.5</ele>
        <time>2013-08-17T08:30:41Z</time>
      </trkpt>
      <trkpt lat="45.85836" lon="6.14357">
        <ele>451.5</ele>
        <time>2013-08-17T08:30:42Z</time>
      </trkpt>
      <trkpt lat="45.85843" lon="6.1435">
        <ele>451.4</ele>
        <time>2013-08-17T08:30:43Z</time>
      </trkpt>
      <trkpt lat="45.85847" lon="6.14346">
        <ele>451.3</ele>
        <time>2013-08-17T08:30:44Z</time>
      </trkpt>
      <trkpt lat="45.85855" lon="6.1434">
        <ele>451.2</ele>
        <time>2013-08-17T08:30:45Z</time>
      </trkpt>
      <trkpt lat="45.85864" lon="6.14335">
        <ele>451.1</ele>
        <time>2013-08-17T08:30:46Z</time>
      </trkpt>
      <trkpt lat="45.8587" lon="6.14331">
        <ele>451.1</ele>
        <time>2013-08-17T08:30:47Z</time>
      </trkpt>
      <trkpt lat="45.85877" lon="6.14327">
        <ele>451</ele>
        <time>2013-08-17T08:30:48Z</time>
      </trkpt>
      <trkpt lat="45.85883" lon="6.14323">
        <ele>451</ele>
        <time>2013-08-17T08:30:49Z</time>
      </trkpt>
      <trkpt lat="45.85889" lon="6.1432">
        <ele>451</ele>
        <time>2013-08-17T08:30:50Z</time>
      </trkpt>
      <trkpt lat="45.85895" lon="6.14318">
        <ele>451</ele>
        <time>2013-08-17T08:30:51Z</time>
      </trkpt>
      <trkpt lat="45.859" lon="6.14316">
        <ele>451</ele>
        <time>2013-08-17T08:30:52Z</time>
      </trkpt>
      <trkpt lat="45.85905" lon="6.14314">
        <ele>451</ele>
        <time>2013-08-17T08:30:53Z</time>
      </trkpt>
      <trkpt lat="45.85909" lon="6.14313">
        <ele>451</ele>
        <time>2013-08-17T08:30:54Z</time>
      </trkpt>
      <trkpt lat="45.85914" lon="6.14311">
        <ele>451</ele>
        <time>2013-08-17T08:30:56Z</time>
      </trkpt>
      <trkpt lat="45.85918" lon="6.1431">
        <ele>451</ele>
        <time>2013-08-17T08:30:59Z</time>
      </trkpt>
      <trkpt lat="45.85924" lon="6.14308">
        <ele>451</ele>
        <time>2013-08-17T08:31:02Z</time>
      </trkpt>
      <trkpt lat="45.85929" lon="6.14306">
        <ele>451</ele>
        <time>2013-08-17T08:31:04Z</time>
      </trkpt>
      <trkpt lat="45.85932" lon="6.14305">
        <ele>451</ele>
        <time>2013-08-17T08:31:06Z</time>
      </trkpt>
      <trkpt lat="45.85941" lon="6.14303">
        <ele>451</ele>
        <time>2013-08-17T08:31:09Z</time>
      </trkpt>
      <trkpt lat="45.85945" lon="6.14301">
        <ele>451</ele>
        <time>2013-08-17T08:31:10Z</time>
      </trkpt>
      <trkpt lat="45.85959" lon="6.14297">
        <ele>451</ele>
        <time>2013-08-17T08:31:11Z</time>
      </trkpt>
      <trkpt lat="45.85962" lon="6.14296">
        <ele>451</ele>
        <time>2013-08-17T08:31:12Z</time>
      </trkpt>
      <trkpt lat="45.85965" lon="6.14294">
        <ele>450.9</ele>
        <time>2013-08-17T08:31:13Z</time>
      </trkpt>
      <trkpt lat="45.85969" lon="6.14291">
        <ele>450.9</ele>
        <time>2013-08-17T08:31:14Z</time>
      </trkpt>
      <trkpt lat="45.85972" lon="6.14291">
        <ele>450.8</ele>
        <time>2013-08-17T08:31:15Z</time>
      </trkpt>
      <trkpt lat="45.85978" lon="6.14291">
        <ele>450.8</ele>
        <time>2013-08-17T08:31:17Z</time>
      </trkpt>
      <trkpt lat="45.85981" lon="6.14291">
        <ele>450.8</ele>
        <time>2013-08-17T08:31:18Z</time>
      </trkpt>
      <trkpt lat="45.85984" lon="6.1429">
        <ele>450.7</ele>
        <time>2013-08-17T08:31:19Z</time>
      </trkpt>
      <trkpt lat="45.85988" lon="6.14289">
        <ele>450.7</ele>
        <time>2013-08-17T08:31:20Z</time>
      </trkpt>
      <trkpt lat="45.85995" lon="6.14288">
        <ele>450.7</ele>
        <time>2013-08-17T08:31:21Z</time>
      </trkpt>
      <trkpt lat="45.85998" lon="6.14287">
        <ele>450.7</ele>
        <time>2013-08-17T08:31:22Z</time>
      </trkpt>
      <trkpt lat="45.86006" lon="6.14287">
        <ele>450.6</ele>
        <time>2013-08-17T08:31:23Z</time>
      </trkpt>
      <trkpt lat="45.86009" lon="6.14287">
        <ele>450.6</ele>
        <time>2013-08-17T08:31:24Z</time>
      </trkpt>
      <trkpt lat="45.86015" lon="6.14287">
        <ele>450.5</ele>
        <time>2013-08-17T08:31:25Z</time>
      </trkpt>
      <trkpt lat="45.86019" lon="6.14288">
        <ele>450.5</ele>
        <time>2013-08-17T08:31:26Z</time>
      </trkpt>
      <trkpt lat="45.86022" lon="6.14288">
        <ele>450.4</ele>
        <time>2013-08-17T08:31:27Z</time>
      </trkpt>
      <trkpt lat="45.86031" lon="6.14289">
        <ele>450.3</ele>
        <time>2013-08-17T08:31:28Z</time>
      </trkpt>
      <trkpt lat="45.86036" lon="6.14289">
        <ele>450.2</ele>
        <time>2013-08-17T08:31:29Z</time>
      </trkpt>
      <trkpt lat="45.86041" lon="6.1429">
        <ele>450.1</ele>
        <time>2013-08-17T08:31:30Z</time>
      </trkpt>
      <trkpt lat="45.86046" lon="6.1429">
        <ele>450.1</ele>
        <time>2013-08-17T08:31:31Z</time>
      </trkpt>
      <trkpt lat="45.86051" lon="6.14291">
        <ele>450.1</ele>
        <time>2013-08-17T08:31:32Z</time>
      </trkpt>
      <trkpt lat="45.86057" lon="6.14291">
        <ele>450</ele>
        <time>2013-08-17T08:31:33Z</time>
      </trkpt>
      <trkpt lat="45.86061" lon="6.14292">
        <ele>450</ele>
        <time>2013-08-17T08:31:34Z</time>
      </trkpt>
      <trkpt lat="45.86066" lon="6.14292">
        <ele>450</ele>
        <time>2013-08-17T08:31:35Z</time>
      </trkpt>
      <trkpt lat="45.86072" lon="6.14293">
        <ele>450</ele>
        <time>2013-08-17T08:31:36Z</time>
      </trkpt>
      <trkpt lat="45.86078" lon="6.14294">
        <ele>449.9</ele>
        <time>2013-08-17T08:31:37Z</time>
      </trkpt>
      <trkpt lat="45.86084" lon="6.14295">
        <ele>449.9</ele>
        <time>2013-08-17T08:31:38Z</time>
      </trkpt>
      <trkpt lat="45.8609" lon="6.14296">
        <ele>449.9</ele>
        <time>2013-08-17T08:31:39Z</time>
      </trkpt>
      <trkpt lat="45.86096" lon="6.14297">
        <ele>449.9</ele>
        <time>2013-08-17T08:31:40Z</time>
      </trkpt>
      <trkpt lat="45.86101" lon="6.14298">
        <ele>449.8</ele>
        <time>2013-08-17T08:31:41Z</time>
      </trkpt>
      <trkpt lat="45.86108" lon="6.143">
        <ele>449.7</ele>
        <time>2013-08-17T08:31:42Z</time>
      </trkpt>
      <trkpt lat="45.86114" lon="6.14301">
        <ele>449.7</ele>
        <time>2013-08-17T08:31:43Z</time>
      </trkpt>
      <trkpt lat="45.86119" lon="6.14303">
        <ele>449.6</ele>
        <time>2013-08-17T08:31:44Z</time>
      </trkpt>
      <trkpt lat="45.86126" lon="6.14305">
        <ele>449.6</ele>
        <time>2013-08-17T08:31:45Z</time>
      </trkpt>
      <trkpt lat="45.86134" lon="6.14307">
        <ele>449.8</ele>
        <time>2013-08-17T08:31:46Z</time>
      </trkpt>
      <trkpt lat="45.86141" lon="6.14309">
        <ele>450</ele>
        <time>2013-08-17T08:31:47Z</time>
      </trkpt>
      <trkpt lat="45.86147" lon="6.14311">
        <ele>450.1</ele>
        <time>2013-08-17T08:31:48Z</time>
      </trkpt>
      <trkpt lat="45.86153" lon="6.14314">
        <ele>450.3</ele>
        <time>2013-08-17T08:31:49Z</time>
      </trkpt>
      <trkpt lat="45.86158" lon="6.14315">
        <ele>450.4</ele>
        <time>2013-08-17T08:31:50Z</time>
      </trkpt>
      <trkpt lat="45.86163" lon="6.14317">
        <ele>450.6</ele>
        <time>2013-08-17T08:31:51Z</time>
      </trkpt>
      <trkpt lat="45.86169" lon="6.1432">
        <ele>450.7</ele>
        <time>2013-08-17T08:31:52Z</time>
      </trkpt>
      <trkpt lat="45.86176" lon="6.14323">
        <ele>450.9</ele>
        <time>2013-08-17T08:31:53Z</time>
      </trkpt>
      <trkpt lat="45.86181" lon="6.14325">
        <ele>451.1</ele>
        <time>2013-08-17T08:31:54Z</time>
      </trkpt>
      <trkpt lat="45.86187" lon="6.14328">
        <ele>451.3</ele>
        <time>2013-08-17T08:31:55Z</time>
      </trkpt>
      <trkpt lat="45.86194" lon="6.14331">
        <ele>451.4</ele>
        <time>2013-08-17T08:31:56Z</time>
      </trkpt>
      <trkpt lat="45.86199" lon="6.14333">
        <ele>451.6</ele>
        <time>2013-08-17T08:31:57Z</time>
      </trkpt>
      <trkpt lat="45.86206" lon="6.14336">
        <ele>451.8</ele>
        <time>2013-08-17T08:31:58Z</time>
      </trkpt>
      <trkpt lat="45.86211" lon="6.14339">
        <ele>452</ele>
        <time>2013-08-17T08:31:59Z</time>
      </trkpt>
      <trkpt lat="45.86216" lon="6.14341">
        <ele>452.1</ele>
        <time>2013-08-17T08:32:00Z</time>
      </trkpt>
      <trkpt lat="45.8622" lon="6.14343">
        <ele>452.2</ele>
        <time>2013-08-17T08:32:01Z</time>
      </trkpt>
      <trkpt lat="45.86225" lon="6.14345">
        <ele>452.3</ele>
        <time>2013-08-17T08:32:02Z</time>
      </trkpt>
      <trkpt lat="45.86234" lon="6.14348">
        <ele>452.6</ele>
        <time>2013-08-17T08:32:04Z</time>
      </trkpt>
      <trkpt lat="45.8624" lon="6.14351">
        <ele>452.7</ele>
        <time>2013-08-17T08:32:05Z</time>
      </trkpt>
      <trkpt lat="45.86246" lon="6.14354">
        <ele>452.9</ele>
        <time>2013-08-17T08:32:06Z</time>
      </trkpt>
      <trkpt lat="45.86252" lon="6.14356">
        <ele>453</ele>
        <time>2013-08-17T08:32:07Z</time>
      </trkpt>
      <trkpt lat="45.86289" lon="6.14368">
        <ele>454.1</ele>
        <time>2013-08-17T08:32:12Z</time>
      </trkpt>
      <trkpt lat="45.86296" lon="6.14369">
        <ele>454.2</ele>
        <time>2013-08-17T08:32:13Z</time>
      </trkpt>
      <trkpt lat="45.86301" lon="6.14371">
        <ele>454.2</ele>
        <time>2013-08-17T08:32:14Z</time>
      </trkpt>
      <trkpt lat="45.86305" lon="6.14375">
        <ele>454.2</ele>
        <time>2013-08-17T08:32:15Z</time>
      </trkpt>
      <trkpt lat="45.86311" lon="6.14375">
        <ele>454.2</ele>
        <time>2013-08-17T08:32:16Z</time>
      </trkpt>
      <trkpt lat="45.86317" lon="6.14378">
        <ele>454.2</ele>
        <time>2013-08-17T08:32:17Z</time>
      </trkpt>
      <trkpt lat="45.86321" lon="6.14381">
        <ele>454.2</ele>
        <time>2013-08-17T08:32:18Z</time>
      </trkpt>
      <trkpt lat="45.86326" lon="6.14383">
        <ele>454.2</ele>
        <time>2013-08-17T08:32:19Z</time>
      </trkpt>
      <trkpt lat="45.86331" lon="6.14385">
        <ele>454.3</ele>
        <time>2013-08-17T08:32:20Z</time>
      </trkpt>
      <trkpt lat="45.86336" lon="6.14386">
        <ele>454.3</ele>
        <time>2013-08-17T08:32:21Z</time>
      </trkpt>
      <trkpt lat="45.86341" lon="6.14386">
        <ele>454.3</ele>
        <time>2013-08-17T08:32:22Z</time>
      </trkpt>
      <trkpt lat="45.86346" lon="6.14385">
        <ele>454.4</ele>
        <time>2013-08-17T08:32:23Z</time>
      </trkpt>
      <trkpt lat="45.86353" lon="6.14385">
        <ele>454.4</ele>
        <time>2013-08-17T08:32:24Z</time>
      </trkpt>
      <trkpt lat="45.86359" lon="6.14386">
        <ele>454.5</ele>
        <time>2013-08-17T08:32:25Z</time>
      </trkpt>
      <trkpt lat="45.86364" lon="6.14384">
        <ele>454.6</ele>
        <time>2013-08-17T08:32:26Z</time>
      </trkpt>
      <trkpt lat="45.86369" lon="6.14384">
        <ele>454.6</ele>
        <time>2013-08-17T08:32:27Z</time>
      </trkpt>
      <trkpt lat="45.86373" lon="6.14386">
        <ele>454.6</ele>
        <time>2013-08-17T08:32:28Z</time>
      </trkpt>
      <trkpt lat="45.86376" lon="6.14384">
        <ele>454.7</ele>
        <time>2013-08-17T08:32:29Z</time>
      </trkpt>
      <trkpt lat="45.86383" lon="6.14385">
        <ele>454.6</ele>
        <time>2013-08-17T08:32:31Z</time>
      </trkpt>
      <trkpt lat="45.86388" lon="6.14385">
        <ele>454.6</ele>
        <time>2013-08-17T08:32:32Z</time>
      </trkpt>
      <trkpt lat="45.86394" lon="6.14385">
        <ele>454.6</ele>
        <time>2013-08-17T08:32:33Z</time>
      </trkpt>
      <trkpt lat="45.86399" lon="6.14385">
        <ele>454.6</ele>
        <time>2013-08-17T08:32:34Z</time>
      </trkpt>
      <trkpt lat="45.86403" lon="6.14385">
        <ele>454.6</ele>
        <time>2013-08-17T08:32:35Z</time>
      </trkpt>
      <trkpt lat="45.86409" lon="6.14385">
        <ele>454.6</ele>
        <time>2013-08-17T08:32:36Z</time>
      </trkpt>
      <trkpt lat="45.86415" lon="6.14386">
        <ele>454.5</ele>
        <time>2013-08-17T08:32:37Z</time>
      </trkpt>
      <trkpt lat="45.8642" lon="6.14386">
        <ele>454.5</ele>
        <time>2013-08-17T08:32:38Z</time>
      </trkpt>
      <trkpt lat="45.86425" lon="6.14387">
        <ele>454.5</ele>
        <time>2013-08-17T08:32:39Z</time>
      </trkpt>
      <trkpt lat="45.86431" lon="6.14388">
        <ele>454.4</ele>
        <time>2013-08-17T08:32:40Z</time>
      </trkpt>
      <trkpt lat="45.86436" lon="6.14388">
        <ele>454.4</ele>
        <time>2013-08-17T08:32:41Z</time>
      </trkpt>
      <trkpt lat="45.86441" lon="6.14388">
        <ele>454.4</ele>
        <time>2013-08-17T08:32:42Z</time>
      </trkpt>
      <trkpt lat="45.86446" lon="6.14391">
        <ele>454.3</ele>
        <time>2013-08-17T08:32:43Z</time>
      </trkpt>
      <trkpt lat="45.86452" lon="6.1439">
        <ele>454.3</ele>
        <time>2013-08-17T08:32:44Z</time>
      </trkpt>
      <trkpt lat="45.86456" lon="6.14391">
        <ele>454.3</ele>
        <time>2013-08-17T08:32:45Z</time>
      </trkpt>
      <trkpt lat="45.8646" lon="6.1439">
        <ele>454.2</ele>
        <time>2013-08-17T08:32:46Z</time>
      </trkpt>
      <trkpt lat="45.86465" lon="6.14387">
        <ele>454.3</ele>
        <time>2013-08-17T08:32:47Z</time>
      </trkpt>
      <trkpt lat="45.8647" lon="6.14387">
        <ele>454.2</ele>
        <time>2013-08-17T08:32:48Z</time>
      </trkpt>
      <trkpt lat="45.86474" lon="6.14387">
        <ele>454.1</ele>
        <time>2013-08-17T08:32:49Z</time>
      </trkpt>
      <trkpt lat="45.86479" lon="6.14392">
        <ele>453.8</ele>
        <time>2013-08-17T08:32:50Z</time>
      </trkpt>
      <trkpt lat="45.86485" lon="6.14396">
        <ele>453.5</ele>
        <time>2013-08-17T08:32:51Z</time>
      </trkpt>
      <trkpt lat="45.86489" lon="6.14396">
        <ele>453.4</ele>
        <time>2013-08-17T08:32:52Z</time>
      </trkpt>
      <trkpt lat="45.86492" lon="6.14397">
        <ele>453.4</ele>
        <time>2013-08-17T08:32:53Z</time>
      </trkpt>
      <trkpt lat="45.86499" lon="6.14395">
        <ele>453.3</ele>
        <time>2013-08-17T08:32:54Z</time>
      </trkpt>
      <trkpt lat="45.86505" lon="6.14394">
        <ele>453.2</ele>
        <time>2013-08-17T08:32:55Z</time>
      </trkpt>
      <trkpt lat="45.8651" lon="6.14395">
        <ele>453.1</ele>
        <time>2013-08-17T08:32:56Z</time>
      </trkpt>
      <trkpt lat="45.86514" lon="6.14394">
        <ele>453.1</ele>
        <time>2013-08-17T08:32:57Z</time>
      </trkpt>
      <trkpt lat="45.86519" lon="6.14393">
        <ele>453</ele>
        <time>2013-08-17T08:32:58Z</time>
      </trkpt>
      <trkpt lat="45.86524" lon="6.14393">
        <ele>452.9</ele>
        <time>2013-08-17T08:32:59Z</time>
      </trkpt>
      <trkpt lat="45.86529" lon="6.14393">
        <ele>452.8</ele>
        <time>2013-08-17T08:33:00Z</time>
      </trkpt>
      <trkpt lat="45.86532" lon="6.14393">
        <ele>452.7</ele>
        <time>2013-08-17T08:33:01Z</time>
      </trkpt>
      <trkpt lat="45.86537" lon="6.14391">
        <ele>452.7</ele>
        <time>2013-08-17T08:33:02Z</time>
      </trkpt>
      <trkpt lat="45.86541" lon="6.14391">
        <ele>452.6</ele>
        <time>2013-08-17T08:33:03Z</time>
      </trkpt>
      <trkpt lat="45.8655" lon="6.1439">
        <ele>452.8</ele>
        <time>2013-08-17T08:33:04Z</time>
      </trkpt>
      <trkpt lat="45.86557" lon="6.14391">
        <ele>452.9</ele>
        <time>2013-08-17T08:33:05Z</time>
      </trkpt>
      <trkpt lat="45.86567" lon="6.1439">
        <ele>453.1</ele>
        <time>2013-08-17T08:33:06Z</time>
      </trkpt>
      <trkpt lat="45.86574" lon="6.1439">
        <ele>453.3</ele>
        <time>2013-08-17T08:33:07Z</time>
      </trkpt>
      <trkpt lat="45.86581" lon="6.1439">
        <ele>453.4</ele>
        <time>2013-08-17T08:33:08Z</time>
      </trkpt>
      <trkpt lat="45.8659" lon="6.14403">
        <ele>453.1</ele>
        <time>2013-08-17T08:33:09Z</time>
      </trkpt>
      <trkpt lat="45.86598" lon="6.14402">
        <ele>453.3</ele>
        <time>2013-08-17T08:33:10Z</time>
      </trkpt>
      <trkpt lat="45.86604" lon="6.144">
        <ele>453.4</ele>
        <time>2013-08-17T08:33:11Z</time>
      </trkpt>
      <trkpt lat="45.86612" lon="6.14399">
        <ele>453.6</ele>
        <time>2013-08-17T08:33:12Z</time>
      </trkpt>
      <trkpt lat="45.86618" lon="6.14397">
        <ele>453.8</ele>
        <time>2013-08-17T08:33:13Z</time>
      </trkpt>
      <trkpt lat="45.86627" lon="6.14395">
        <ele>454</ele>
        <time>2013-08-17T08:33:14Z</time>
      </trkpt>
      <trkpt lat="45.86634" lon="6.14392">
        <ele>454</ele>
        <time>2013-08-17T08:33:15Z</time>
      </trkpt>
      <trkpt lat="45.8664" lon="6.14389">
        <ele>453.9</ele>
        <time>2013-08-17T08:33:16Z</time>
      </trkpt>
      <trkpt lat="45.86646" lon="6.14387">
        <ele>453.8</ele>
        <time>2013-08-17T08:33:17Z</time>
      </trkpt>
      <trkpt lat="45.86653" lon="6.14384">
        <ele>453.7</ele>
        <time>2013-08-17T08:33:18Z</time>
      </trkpt>
      <trkpt lat="45.86658" lon="6.14382">
        <ele>453.7</ele>
        <time>2013-08-17T08:33:19Z</time>
      </trkpt>
      <trkpt lat="45.86664" lon="6.14378">
        <ele>453.5</ele>
        <time>2013-08-17T08:33:20Z</time>
      </trkpt>
      <trkpt lat="45.8667" lon="6.14375">
        <ele>453.4</ele>
        <time>2013-08-17T08:33:21Z</time>
      </trkpt>
      <trkpt lat="45.86676" lon="6.14371">
        <ele>453.2</ele>
        <time>2013-08-17T08:33:22Z</time>
      </trkpt>
      <trkpt lat="45.86683" lon="6.14367">
        <ele>453.1</ele>
        <time>2013-08-17T08:33:23Z</time>
      </trkpt>
      <trkpt lat="45.86687" lon="6.14365">
        <ele>453</ele>
        <time>2013-08-17T08:33:24Z</time>
      </trkpt>
      <trkpt lat="45.86695" lon="6.14361">
        <ele>452.8</ele>
        <time>2013-08-17T08:33:25Z</time>
      </trkpt>
      <trkpt lat="45.86702" lon="6.14358">
        <ele>452.6</ele>
        <time>2013-08-17T08:33:26Z</time>
      </trkpt>
      <trkpt lat="45.86711" lon="6.14355">
        <ele>452.4</ele>
        <time>2013-08-17T08:33:27Z</time>
      </trkpt>
      <trkpt lat="45.86721" lon="6.14351">
        <ele>452.3</ele>
        <time>2013-08-17T08:33:28Z</time>
      </trkpt>
      <trkpt lat="45.86727" lon="6.14347">
        <ele>452.2</ele>
        <time>2013-08-17T08:33:29Z</time>
      </trkpt>
      <trkpt lat="45.86733" lon="6.14344">
        <ele>452.1</ele>
        <time>2013-08-17T08:33:30Z</time>
      </trkpt>
      <trkpt lat="45.86743" lon="6.14312">
        <ele>452.4</ele>
        <time>2013-08-17T08:33:32Z</time>
      </trkpt>
      <trkpt lat="45.86749" lon="6.14308">
        <ele>452.2</ele>
        <time>2013-08-17T08:33:33Z</time>
      </trkpt>
      <trkpt lat="45.86757" lon="6.14304">
        <ele>452.1</ele>
        <time>2013-08-17T08:33:34Z</time>
      </trkpt>
      <trkpt lat="45.86763" lon="6.14301">
        <ele>451.9</ele>
        <time>2013-08-17T08:33:35Z</time>
      </trkpt>
      <trkpt lat="45.86763" lon="6.14285">
        <ele>452.1</ele>
        <time>2013-08-17T08:33:36Z</time>
      </trkpt>
      <trkpt lat="45.86762" lon="6.14264">
        <ele>452.2</ele>
        <time>2013-08-17T08:33:37Z</time>
      </trkpt>
      <trkpt lat="45.86767" lon="6.1426">
        <ele>452.1</ele>
        <time>2013-08-17T08:33:38Z</time>
      </trkpt>
      <trkpt lat="45.86771" lon="6.14256">
        <ele>452</ele>
        <time>2013-08-17T08:33:39Z</time>
      </trkpt>
      <trkpt lat="45.86778" lon="6.14248">
        <ele>451.8</ele>
        <time>2013-08-17T08:33:41Z</time>
      </trkpt>
      <trkpt lat="45.86823" lon="6.14341">
        <ele>450.3</ele>
        <time>2013-08-17T08:33:45Z</time>
      </trkpt>
      <trkpt lat="45.8684" lon="6.14332">
        <ele>450.2</ele>
        <time>2013-08-17T08:33:46Z</time>
      </trkpt>
      <trkpt lat="45.86845" lon="6.14331">
        <ele>450.2</ele>
        <time>2013-08-17T08:33:47Z</time>
      </trkpt>
      <trkpt lat="45.86849" lon="6.14329">
        <ele>450.2</ele>
        <time>2013-08-17T08:33:48Z</time>
      </trkpt>
      <trkpt lat="45.86853" lon="6.14327">
        <ele>450.2</ele>
        <time>2013-08-17T08:33:49Z</time>
      </trkpt>
      <trkpt lat="45.86859" lon="6.14325">
        <ele>450.1</ele>
        <time>2013-08-17T08:33:50Z</time>
      </trkpt>
      <trkpt lat="45.86862" lon="6.14323">
        <ele>450.1</ele>
        <time>2013-08-17T08:33:51Z</time>
      </trkpt>
      <trkpt lat="45.86866" lon="6.14322">
        <ele>450.1</ele>
        <time>2013-08-17T08:33:52Z</time>
      </trkpt>
      <trkpt lat="45.8687" lon="6.14321">
        <ele>450</ele>
        <time>2013-08-17T08:33:53Z</time>
      </trkpt>
      <trkpt lat="45.86876" lon="6.14319">
        <ele>450</ele>
        <time>2013-08-17T08:33:54Z</time>
      </trkpt>
      <trkpt lat="45.86882" lon="6.14317">
        <ele>450.1</ele>
        <time>2013-08-17T08:33:56Z</time>
      </trkpt>
      <trkpt lat="45.86889" lon="6.14316">
        <ele>450.2</ele>
        <time>2013-08-17T08:33:58Z</time>
      </trkpt>
      <trkpt lat="45.86897" lon="6.14316">
        <ele>450.4</ele>
        <time>2013-08-17T08:33:59Z</time>
      </trkpt>
      <trkpt lat="45.869" lon="6.14316">
        <ele>450.4</ele>
        <time>2013-08-17T08:34:00Z</time>
      </trkpt>
      <trkpt lat="45.86904" lon="6.14316">
        <ele>450.5</ele>
        <time>2013-08-17T08:34:01Z</time>
      </trkpt>
      <trkpt lat="45.86913" lon="6.14318">
        <ele>450.6</ele>
        <time>2013-08-17T08:34:04Z</time>
      </trkpt>
      <trkpt lat="45.86916" lon="6.14319">
        <ele>450.7</ele>
        <time>2013-08-17T08:34:05Z</time>
      </trkpt>
      <trkpt lat="45.86919" lon="6.1432">
        <ele>450.7</ele>
        <time>2013-08-17T08:34:06Z</time>
      </trkpt>
      <trkpt lat="45.86924" lon="6.14322">
        <ele>450.8</ele>
        <time>2013-08-17T08:34:07Z</time>
      </trkpt>
      <trkpt lat="45.86927" lon="6.14323">
        <ele>450.8</ele>
        <time>2013-08-17T08:34:09Z</time>
      </trkpt>
      <trkpt lat="45.86931" lon="6.14325">
        <ele>450.8</ele>
        <time>2013-08-17T08:34:10Z</time>
      </trkpt>
      <trkpt lat="45.86934" lon="6.14327">
        <ele>450.8</ele>
        <time>2013-08-17T08:34:11Z</time>
      </trkpt>
      <trkpt lat="45.86939" lon="6.1433">
        <ele>450.8</ele>
        <time>2013-08-17T08:34:13Z</time>
      </trkpt>
      <trkpt lat="45.86942" lon="6.14333">
        <ele>450.8</ele>
        <time>2013-08-17T08:34:14Z</time>
      </trkpt>
      <trkpt lat="45.86947" lon="6.14336">
        <ele>450.8</ele>
        <time>2013-08-17T08:34:15Z</time>
      </trkpt>
      <trkpt lat="45.86958" lon="6.14343">
        <ele>450.8</ele>
        <time>2013-08-17T08:34:16Z</time>
      </trkpt>
      <trkpt lat="45.8697" lon="6.14351">
        <ele>451</ele>
        <time>2013-08-17T08:34:17Z</time>
      </trkpt>
      <trkpt lat="45.86978" lon="6.14356">
        <ele>451.2</ele>
        <time>2013-08-17T08:34:18Z</time>
      </trkpt>
      <trkpt lat="45.87015" lon="6.14327">
        <ele>453.5</ele>
        <time>2013-08-17T08:34:21Z</time>
      </trkpt>
      <trkpt lat="45.87021" lon="6.14331">
        <ele>453.7</ele>
        <time>2013-08-17T08:34:22Z</time>
      </trkpt>
      <trkpt lat="45.87027" lon="6.14335">
        <ele>453.8</ele>
        <time>2013-08-17T08:34:23Z</time>
      </trkpt>
      <trkpt lat="45.87034" lon="6.14338">
        <ele>454</ele>
        <time>2013-08-17T08:34:24Z</time>
      </trkpt>
      <trkpt lat="45.8704" lon="6.14327">
        <ele>454.7</ele>
        <time>2013-08-17T08:34:25Z</time>
      </trkpt>
      <trkpt lat="45.87048" lon="6.14314">
        <ele>456</ele>
        <time>2013-08-17T08:34:26Z</time>
      </trkpt>
      <trkpt lat="45.87055" lon="6.14315">
        <ele>456.8</ele>
        <time>2013-08-17T08:34:27Z</time>
      </trkpt>
      <trkpt lat="45.87059" lon="6.14316">
        <ele>457.3</ele>
        <time>2013-08-17T08:34:28Z</time>
      </trkpt>
      <trkpt lat="45.87066" lon="6.14334">
        <ele>457.2</ele>
        <time>2013-08-17T08:34:29Z</time>
      </trkpt>
      <trkpt lat="45.87074" lon="6.14359">
        <ele>456.8</ele>
        <time>2013-08-17T08:34:30Z</time>
      </trkpt>
      <trkpt lat="45.87081" lon="6.14362">
        <ele>457.4</ele>
        <time>2013-08-17T08:34:31Z</time>
      </trkpt>
      <trkpt lat="45.87089" lon="6.14365">
        <ele>458.1</ele>
        <time>2013-08-17T08:34:32Z</time>
      </trkpt>
      <trkpt lat="45.87092" lon="6.14385">
        <ele>456.8</ele>
        <time>2013-08-17T08:34:33Z</time>
      </trkpt>
      <trkpt lat="45.87097" lon="6.14413">
        <ele>454.3</ele>
        <time>2013-08-17T08:34:34Z</time>
      </trkpt>
      <trkpt lat="45.87103" lon="6.14415">
        <ele>454.6</ele>
        <time>2013-08-17T08:34:35Z</time>
      </trkpt>
      <trkpt lat="45.8711" lon="6.14417">
        <ele>454.9</ele>
        <time>2013-08-17T08:34:36Z</time>
      </trkpt>
      <trkpt lat="45.87115" lon="6.14418">
        <ele>455.1</ele>
        <time>2013-08-17T08:34:37Z</time>
      </trkpt>
      <trkpt lat="45.87122" lon="6.1442">
        <ele>455.4</ele>
        <time>2013-08-17T08:34:38Z</time>
      </trkpt>
      <trkpt lat="45.87127" lon="6.14421">
        <ele>455.5</ele>
        <time>2013-08-17T08:34:39Z</time>
      </trkpt>
      <trkpt lat="45.87135" lon="6.14423">
        <ele>455.5</ele>
        <time>2013-08-17T08:34:40Z</time>
      </trkpt>
      <trkpt lat="45.87143" lon="6.14425">
        <ele>455.5</ele>
        <time>2013-08-17T08:34:41Z</time>
      </trkpt>
      <trkpt lat="45.87179" lon="6.1439">
        <ele>460.1</ele>
        <time>2013-08-17T08:34:47Z</time>
      </trkpt>
      <trkpt lat="45.87184" lon="6.1439">
        <ele>460.2</ele>
        <time>2013-08-17T08:34:48Z</time>
      </trkpt>
      <trkpt lat="45.87189" lon="6.1439">
        <ele>460.3</ele>
        <time>2013-08-17T08:34:49Z</time>
      </trkpt>
      <trkpt lat="45.87194" lon="6.14389">
        <ele>460.5</ele>
        <time>2013-08-17T08:34:50Z</time>
      </trkpt>
      <trkpt lat="45.87197" lon="6.14388">
        <ele>460.6</ele>
        <time>2013-08-17T08:34:51Z</time>
      </trkpt>
      <trkpt lat="45.87202" lon="6.14388">
        <ele>460.7</ele>
        <time>2013-08-17T08:34:52Z</time>
      </trkpt>
      <trkpt lat="45.87205" lon="6.14388">
        <ele>460.7</ele>
        <time>2013-08-17T08:34:53Z</time>
      </trkpt>
      <trkpt lat="45.8721" lon="6.14388">
        <ele>460.7</ele>
        <time>2013-08-17T08:34:54Z</time>
      </trkpt>
      <trkpt lat="45.87214" lon="6.14388">
        <ele>460.5</ele>
        <time>2013-08-17T08:34:55Z</time>
      </trkpt>
      <trkpt lat="45.87221" lon="6.14386">
        <ele>460.4</ele>
        <time>2013-08-17T08:34:56Z</time>
      </trkpt>
      <trkpt lat="45.87227" lon="6.14385">
        <ele>460.2</ele>
        <time>2013-08-17T08:34:57Z</time>
      </trkpt>
      <trkpt lat="45.87232" lon="6.14384">
        <ele>460.1</ele>
        <time>2013-08-17T08:34:58Z</time>
      </trkpt>
      <trkpt lat="45.87237" lon="6.14383">
        <ele>460</ele>
        <time>2013-08-17T08:34:59Z</time>
      </trkpt>
      <trkpt lat="45.87243" lon="6.14384">
        <ele>459.6</ele>
        <time>2013-08-17T08:35:00Z</time>
      </trkpt>
      <trkpt lat="45.8725" lon="6.14385">
        <ele>459.2</ele>
        <time>2013-08-17T08:35:01Z</time>
      </trkpt>
      <trkpt lat="45.87257" lon="6.14382">
        <ele>459.1</ele>
        <time>2013-08-17T08:35:02Z</time>
      </trkpt>
      <trkpt lat="45.87261" lon="6.14379">
        <ele>459.1</ele>
        <time>2013-08-17T08:35:03Z</time>
      </trkpt>
      <trkpt lat="45.87266" lon="6.14378">
        <ele>459</ele>
        <time>2013-08-17T08:35:04Z</time>
      </trkpt>
      <trkpt lat="45.8727" lon="6.14379">
        <ele>458.7</ele>
        <time>2013-08-17T08:35:05Z</time>
      </trkpt>
      <trkpt lat="45.87277" lon="6.14382">
        <ele>458.2</ele>
        <time>2013-08-17T08:35:06Z</time>
      </trkpt>
      <trkpt lat="45.87287" lon="6.1438">
        <ele>457.9</ele>
        <time>2013-08-17T08:35:07Z</time>
      </trkpt>
      <trkpt lat="45.87293" lon="6.14378">
        <ele>457.7</ele>
        <time>2013-08-17T08:35:08Z</time>
      </trkpt>
      <trkpt lat="45.87298" lon="6.14376">
        <ele>457.7</ele>
        <time>2013-08-17T08:35:09Z</time>
      </trkpt>
      <trkpt lat="45.87305" lon="6.14374">
        <ele>457.6</ele>
        <time>2013-08-17T08:35:10Z</time>
      </trkpt>
      <trkpt lat="45.87311" lon="6.14371">
        <ele>457.5</ele>
        <time>2013-08-17T08:35:11Z</time>
      </trkpt>
      <trkpt lat="45.87318" lon="6.14368">
        <ele>457.4</ele>
        <time>2013-08-17T08:35:12Z</time>
      </trkpt>
      <trkpt lat="45.87324" lon="6.14368">
        <ele>457.2</ele>
        <time>2013-08-17T08:35:13Z</time>
      </trkpt>
      <trkpt lat="45.87329" lon="6.14363">
        <ele>457.2</ele>
        <time>2013-08-17T08:35:14Z</time>
      </trkpt>
      <trkpt lat="45.87335" lon="6.14362">
        <ele>457</ele>
        <time>2013-08-17T08:35:15Z</time>
      </trkpt>
      <trkpt lat="45.87341" lon="6.1436">
        <ele>456.9</ele>
        <time>2013-08-17T08:35:16Z</time>
      </trkpt>
      <trkpt lat="45.87346" lon="6.14356">
        <ele>457</ele>
        <time>2013-08-17T08:35:17Z</time>
      </trkpt>
      <trkpt lat="45.87352" lon="6.14354">
        <ele>456.8</ele>
        <time>2013-08-17T08:35:18Z</time>
      </trkpt>
      <trkpt lat="45.87359" lon="6.14351">
        <ele>456.7</ele>
        <time>2013-08-17T08:35:19Z</time>
      </trkpt>
      <trkpt lat="45.87366" lon="6.14347">
        <ele>456.7</ele>
        <time>2013-08-17T08:35:20Z</time>
      </trkpt>
      <trkpt lat="45.87373" lon="6.14345">
        <ele>456.5</ele>
        <time>2013-08-17T08:35:21Z</time>
      </trkpt>
      <trkpt lat="45.87378" lon="6.14344">
        <ele>456.5</ele>
        <time>2013-08-17T08:35:22Z</time>
      </trkpt>
      <trkpt lat="45.87384" lon="6.14342">
        <ele>456.6</ele>
        <time>2013-08-17T08:35:23Z</time>
      </trkpt>
      <trkpt lat="45.87389" lon="6.1434">
        <ele>456.7</ele>
        <time>2013-08-17T08:35:24Z</time>
      </trkpt>
      <trkpt lat="45.87395" lon="6.14338">
        <ele>456.8</ele>
        <time>2013-08-17T08:35:25Z</time>
      </trkpt>
      <trkpt lat="45.87402" lon="6.14335">
        <ele>456.9</ele>
        <time>2013-08-17T08:35:26Z</time>
      </trkpt>
      <trkpt lat="45.87409" lon="6.14335">
        <ele>456.9</ele>
        <time>2013-08-17T08:35:27Z</time>
      </trkpt>
      <trkpt lat="45.87415" lon="6.14332">
        <ele>457.1</ele>
        <time>2013-08-17T08:35:28Z</time>
      </trkpt>
      <trkpt lat="45.87423" lon="6.14331">
        <ele>457.1</ele>
        <time>2013-08-17T08:35:29Z</time>
      </trkpt>
      <trkpt lat="45.87428" lon="6.14329">
        <ele>457.2</ele>
        <time>2013-08-17T08:35:30Z</time>
      </trkpt>
      <trkpt lat="45.87435" lon="6.14325">
        <ele>457.4</ele>
        <time>2013-08-17T08:35:31Z</time>
      </trkpt>
      <trkpt lat="45.87441" lon="6.14324">
        <ele>457.4</ele>
        <time>2013-08-17T08:35:32Z</time>
      </trkpt>
      <trkpt lat="45.87447" lon="6.14322">
        <ele>457.6</ele>
        <time>2013-08-17T08:35:33Z</time>
      </trkpt>
      <trkpt lat="45.87453" lon="6.14319">
        <ele>457.7</ele>
        <time>2013-08-17T08:35:34Z</time>
      </trkpt>
      <trkpt lat="45.87457" lon="6.14318">
        <ele>457.7</ele>
        <time>2013-08-17T08:35:35Z</time>
      </trkpt>
      <trkpt lat="45.87463" lon="6.14316">
        <ele>457.8</ele>
        <time>2013-08-17T08:35:36Z</time>
      </trkpt>
      <trkpt lat="45.87471" lon="6.14313">
        <ele>458</ele>
        <time>2013-08-17T08:35:37Z</time>
      </trkpt>
      <trkpt lat="45.87477" lon="6.14312">
        <ele>458</ele>
        <time>2013-08-17T08:35:38Z</time>
      </trkpt>
      <trkpt lat="45.87483" lon="6.14313">
        <ele>458</ele>
        <time>2013-08-17T08:35:39Z</time>
      </trkpt>
      <trkpt lat="45.8749" lon="6.14314">
        <ele>457.9</ele>
        <time>2013-08-17T08:35:40Z</time>
      </trkpt>
      <trkpt lat="45.87496" lon="6.14313">
        <ele>458</ele>
        <time>2013-08-17T08:35:41Z</time>
      </trkpt>
      <trkpt lat="45.87502" lon="6.14312">
        <ele>458</ele>
        <time>2013-08-17T08:35:42Z</time>
      </trkpt>
      <trkpt lat="45.87506" lon="6.14313">
        <ele>458</ele>
        <time>2013-08-17T08:35:43Z</time>
      </trkpt>
      <trkpt lat="45.87511" lon="6.14313">
        <ele>458</ele>
        <time>2013-08-17T08:35:44Z</time>
      </trkpt>
      <trkpt lat="45.87518" lon="6.14313">
        <ele>458</ele>
        <time>2013-08-17T08:35:45Z</time>
      </trkpt>
      <trkpt lat="45.87525" lon="6.14313">
        <ele>458</ele>
        <time>2013-08-17T08:35:46Z</time>
      </trkpt>
      <trkpt lat="45.87532" lon="6.14312">
        <ele>458</ele>
        <time>2013-08-17T08:35:47Z</time>
      </trkpt>
      <trkpt lat="45.87537" lon="6.14312">
        <ele>458</ele>
        <time>2013-08-17T08:35:48Z</time>
      </trkpt>
      <trkpt lat="45.87544" lon="6.14312">
        <ele>458</ele>
        <time>2013-08-17T08:35:49Z</time>
      </trkpt>
      <trkpt lat="45.87549" lon="6.14311">
        <ele>457.8</ele>
        <time>2013-08-17T08:35:50Z</time>
      </trkpt>
      <trkpt lat="45.87554" lon="6.14309">
        <ele>457.7</ele>
        <time>2013-08-17T08:35:51Z</time>
      </trkpt>
      <trkpt lat="45.8756" lon="6.1431">
        <ele>457.4</ele>
        <time>2013-08-17T08:35:52Z</time>
      </trkpt>
      <trkpt lat="45.87567" lon="6.14311">
        <ele>457.1</ele>
        <time>2013-08-17T08:35:53Z</time>
      </trkpt>
      <trkpt lat="45.87573" lon="6.14311">
        <ele>456.9</ele>
        <time>2013-08-17T08:35:54Z</time>
      </trkpt>
      <trkpt lat="45.87578" lon="6.14312">
        <ele>456.6</ele>
        <time>2013-08-17T08:35:55Z</time>
      </trkpt>
      <trkpt lat="45.87586" lon="6.14311">
        <ele>456.3</ele>
        <time>2013-08-17T08:35:56Z</time>
      </trkpt>
      <trkpt lat="45.87592" lon="6.14312">
        <ele>456.1</ele>
        <time>2013-08-17T08:35:57Z</time>
      </trkpt>
      <trkpt lat="45.87598" lon="6.14312">
        <ele>455.8</ele>
        <time>2013-08-17T08:35:58Z</time>
      </trkpt>
      <trkpt lat="45.87604" lon="6.14313">
        <ele>455.6</ele>
        <time>2013-08-17T08:35:59Z</time>
      </trkpt>
      <trkpt lat="45.8761" lon="6.14313">
        <ele>455.3</ele>
        <time>2013-08-17T08:36:00Z</time>
      </trkpt>
      <trkpt lat="45.87616" lon="6.14312">
        <ele>455.1</ele>
        <time>2013-08-17T08:36:01Z</time>
      </trkpt>
      <trkpt lat="45.87622" lon="6.14312">
        <ele>454.9</ele>
        <time>2013-08-17T08:36:02Z</time>
      </trkpt>
      <trkpt lat="45.87628" lon="6.14313">
        <ele>454.8</ele>
        <time>2013-08-17T08:36:03Z</time>
      </trkpt>
      <trkpt lat="45.87633" lon="6.14312">
        <ele>455</ele>
        <time>2013-08-17T08:36:04Z</time>
      </trkpt>
      <trkpt lat="45.87638" lon="6.14312">
        <ele>455.3</ele>
        <time>2013-08-17T08:36:05Z</time>
      </trkpt>
      <trkpt lat="45.87645" lon="6.14312">
        <ele>455.4</ele>
        <time>2013-08-17T08:36:06Z</time>
      </trkpt>
      <trkpt lat="45.8765" lon="6.14312">
        <ele>455.6</ele>
        <time>2013-08-17T08:36:07Z</time>
      </trkpt>
      <trkpt lat="45.87656" lon="6.14311">
        <ele>455.9</ele>
        <time>2013-08-17T08:36:08Z</time>
      </trkpt>
      <trkpt lat="45.87661" lon="6.1431">
        <ele>456.1</ele>
        <time>2013-08-17T08:36:09Z</time>
      </trkpt>
      <trkpt lat="45.87667" lon="6.14309">
        <ele>456.4</ele>
        <time>2013-08-17T08:36:10Z</time>
      </trkpt>
      <trkpt lat="45.87672" lon="6.14308">
        <ele>456.6</ele>
        <time>2013-08-17T08:36:11Z</time>
      </trkpt>
      <trkpt lat="45.87676" lon="6.14307">
        <ele>456.8</ele>
        <time>2013-08-17T08:36:12Z</time>
      </trkpt>
      <trkpt lat="45.87683" lon="6.14306">
        <ele>457.1</ele>
        <time>2013-08-17T08:36:13Z</time>
      </trkpt>
      <trkpt lat="45.87688" lon="6.14305">
        <ele>457.3</ele>
        <time>2013-08-17T08:36:14Z</time>
      </trkpt>
      <trkpt lat="45.87693" lon="6.14304">
        <ele>457.6</ele>
        <time>2013-08-17T08:36:15Z</time>
      </trkpt>
      <trkpt lat="45.87699" lon="6.14303">
        <ele>457.9</ele>
        <time>2013-08-17T08:36:16Z</time>
      </trkpt>
      <trkpt lat="45.87705" lon="6.14301">
        <ele>458.2</ele>
        <time>2013-08-17T08:36:17Z</time>
      </trkpt>
      <trkpt lat="45.8771" lon="6.14299">
        <ele>458.4</ele>
        <time>2013-08-17T08:36:18Z</time>
      </trkpt>
      <trkpt lat="45.87716" lon="6.14297">
        <ele>458.4</ele>
        <time>2013-08-17T08:36:19Z</time>
      </trkpt>
      <trkpt lat="45.8772" lon="6.14296">
        <ele>458.4</ele>
        <time>2013-08-17T08:36:20Z</time>
      </trkpt>
      <trkpt lat="45.87726" lon="6.14294">
        <ele>458.4</ele>
        <time>2013-08-17T08:36:21Z</time>
      </trkpt>
      <trkpt lat="45.87732" lon="6.14293">
        <ele>458.4</ele>
        <time>2013-08-17T08:36:22Z</time>
      </trkpt>
      <trkpt lat="45.87736" lon="6.14292">
        <ele>458.3</ele>
        <time>2013-08-17T08:36:23Z</time>
      </trkpt>
      <trkpt lat="45.87743" lon="6.1429">
        <ele>458.3</ele>
        <time>2013-08-17T08:36:24Z</time>
      </trkpt>
      <trkpt lat="45.87748" lon="6.14288">
        <ele>458.3</ele>
        <time>2013-08-17T08:36:25Z</time>
      </trkpt>
      <trkpt lat="45.87753" lon="6.14286">
        <ele>458.4</ele>
        <time>2013-08-17T08:36:26Z</time>
      </trkpt>
      <trkpt lat="45.87759" lon="6.14283">
        <ele>458.4</ele>
        <time>2013-08-17T08:36:27Z</time>
      </trkpt>
      <trkpt lat="45.87764" lon="6.14283">
        <ele>458.4</ele>
        <time>2013-08-17T08:36:28Z</time>
      </trkpt>
      <trkpt lat="45.87769" lon="6.14282">
        <ele>458.4</ele>
        <time>2013-08-17T08:36:29Z</time>
      </trkpt>
      <trkpt lat="45.87774" lon="6.14282">
        <ele>458.3</ele>
        <time>2013-08-17T08:36:30Z</time>
      </trkpt>
      <trkpt lat="45.8778" lon="6.14281">
        <ele>458.3</ele>
        <time>2013-08-17T08:36:31Z</time>
      </trkpt>
      <trkpt lat="45.87785" lon="6.14278">
        <ele>458.6</ele>
        <time>2013-08-17T08:36:32Z</time>
      </trkpt>
      <trkpt lat="45.87791" lon="6.14277">
        <ele>458.6</ele>
        <time>2013-08-17T08:36:33Z</time>
      </trkpt>
      <trkpt lat="45.87796" lon="6.14275">
        <ele>458.8</ele>
        <time>2013-08-17T08:36:34Z</time>
      </trkpt>
      <trkpt lat="45.87801" lon="6.14273">
        <ele>459.2</ele>
        <time>2013-08-17T08:36:35Z</time>
      </trkpt>
      <trkpt lat="45.87806" lon="6.14271">
        <ele>459.4</ele>
        <time>2013-08-17T08:36:36Z</time>
      </trkpt>
      <trkpt lat="45.87813" lon="6.1427">
        <ele>459.5</ele>
        <time>2013-08-17T08:36:37Z</time>
      </trkpt>
      <trkpt lat="45.87818" lon="6.14268">
        <ele>459.9</ele>
        <time>2013-08-17T08:36:38Z</time>
      </trkpt>
      <trkpt lat="45.87822" lon="6.14267">
        <ele>460</ele>
        <time>2013-08-17T08:36:39Z</time>
      </trkpt>
      <trkpt lat="45.87828" lon="6.14266">
        <ele>460.2</ele>
        <time>2013-08-17T08:36:40Z</time>
      </trkpt>
      <trkpt lat="45.87832" lon="6.14266">
        <ele>460.3</ele>
        <time>2013-08-17T08:36:41Z</time>
      </trkpt>
      <trkpt lat="45.87837" lon="6.14266">
        <ele>460.3</ele>
        <time>2013-08-17T08:36:42Z</time>
      </trkpt>
      <trkpt lat="45.87841" lon="6.14266">
        <ele>460.4</ele>
        <time>2013-08-17T08:36:43Z</time>
      </trkpt>
      <trkpt lat="45.87848" lon="6.14264">
        <ele>460.7</ele>
        <time>2013-08-17T08:36:44Z</time>
      </trkpt>
      <trkpt lat="45.87854" lon="6.14263">
        <ele>460.9</ele>
        <time>2013-08-17T08:36:45Z</time>
      </trkpt>
      <trkpt lat="45.87859" lon="6.14262">
        <ele>461</ele>
        <time>2013-08-17T08:36:46Z</time>
      </trkpt>
      <trkpt lat="45.87864" lon="6.14261">
        <ele>461.2</ele>
        <time>2013-08-17T08:36:47Z</time>
      </trkpt>
      <trkpt lat="45.8787" lon="6.14263">
        <ele>461.1</ele>
        <time>2013-08-17T08:36:48Z</time>
      </trkpt>
      <trkpt lat="45.87875" lon="6.14263">
        <ele>461.1</ele>
        <time>2013-08-17T08:36:49Z</time>
      </trkpt>
      <trkpt lat="45.87879" lon="6.14263">
        <ele>461.2</ele>
        <time>2013-08-17T08:36:50Z</time>
      </trkpt>
      <trkpt lat="45.87885" lon="6.14262">
        <ele>461.3</ele>
        <time>2013-08-17T08:36:51Z</time>
      </trkpt>
      <trkpt lat="45.8789" lon="6.14261">
        <ele>461.4</ele>
        <time>2013-08-17T08:36:52Z</time>
      </trkpt>
      <trkpt lat="45.87896" lon="6.14262">
        <ele>461.3</ele>
        <time>2013-08-17T08:36:53Z</time>
      </trkpt>
      <trkpt lat="45.87901" lon="6.14263">
        <ele>461.3</ele>
        <time>2013-08-17T08:36:54Z</time>
      </trkpt>
      <trkpt lat="45.87906" lon="6.14264">
        <ele>461.3</ele>
        <time>2013-08-17T08:36:55Z</time>
      </trkpt>
      <trkpt lat="45.87912" lon="6.14264">
        <ele>461.3</ele>
        <time>2013-08-17T08:36:56Z</time>
      </trkpt>
      <trkpt lat="45.87919" lon="6.14266">
        <ele>461.2</ele>
        <time>2013-08-17T08:36:57Z</time>
      </trkpt>
      <trkpt lat="45.87924" lon="6.14267">
        <ele>461.1</ele>
        <time>2013-08-17T08:36:58Z</time>
      </trkpt>
      <trkpt lat="45.8793" lon="6.14268">
        <ele>461.1</ele>
        <time>2013-08-17T08:36:59Z</time>
      </trkpt>
      <trkpt lat="45.87936" lon="6.14267">
        <ele>461.3</ele>
        <time>2013-08-17T08:37:00Z</time>
      </trkpt>
      <trkpt lat="45.87941" lon="6.14268">
        <ele>461.3</ele>
        <time>2013-08-17T08:37:01Z</time>
      </trkpt>
      <trkpt lat="45.87947" lon="6.14269">
        <ele>461.2</ele>
        <time>2013-08-17T08:37:02Z</time>
      </trkpt>
      <trkpt lat="45.87952" lon="6.1427">
        <ele>461.2</ele>
        <time>2013-08-17T08:37:03Z</time>
      </trkpt>
      <trkpt lat="45.87958" lon="6.14271">
        <ele>461.2</ele>
        <time>2013-08-17T08:37:04Z</time>
      </trkpt>
      <trkpt lat="45.87963" lon="6.14272">
        <ele>461.2</ele>
        <time>2013-08-17T08:37:05Z</time>
      </trkpt>
      <trkpt lat="45.87969" lon="6.14271">
        <ele>461.1</ele>
        <time>2013-08-17T08:37:06Z</time>
      </trkpt>
      <trkpt lat="45.87974" lon="6.14271">
        <ele>461.1</ele>
        <time>2013-08-17T08:37:07Z</time>
      </trkpt>
      <trkpt lat="45.8798" lon="6.1427">
        <ele>461.1</ele>
        <time>2013-08-17T08:37:08Z</time>
      </trkpt>
      <trkpt lat="45.87986" lon="6.1427">
        <ele>461</ele>
        <time>2013-08-17T08:37:09Z</time>
      </trkpt>
      <trkpt lat="45.87992" lon="6.14271">
        <ele>460.9</ele>
        <time>2013-08-17T08:37:10Z</time>
      </trkpt>
      <trkpt lat="45.87998" lon="6.1427">
        <ele>460.9</ele>
        <time>2013-08-17T08:37:11Z</time>
      </trkpt>
      <trkpt lat="45.88003" lon="6.14269">
        <ele>461</ele>
        <time>2013-08-17T08:37:12Z</time>
      </trkpt>
      <trkpt lat="45.88008" lon="6.14267">
        <ele>461</ele>
        <time>2013-08-17T08:37:13Z</time>
      </trkpt>
      <trkpt lat="45.88012" lon="6.14268">
        <ele>461</ele>
        <time>2013-08-17T08:37:14Z</time>
      </trkpt>
      <trkpt lat="45.88017" lon="6.14268">
        <ele>460.9</ele>
        <time>2013-08-17T08:37:15Z</time>
      </trkpt>
      <trkpt lat="45.88021" lon="6.14267">
        <ele>461</ele>
        <time>2013-08-17T08:37:16Z</time>
      </trkpt>
      <trkpt lat="45.8803" lon="6.14265">
        <ele>461</ele>
        <time>2013-08-17T08:37:18Z</time>
      </trkpt>
      <trkpt lat="45.88034" lon="6.14264">
        <ele>461</ele>
        <time>2013-08-17T08:37:19Z</time>
      </trkpt>
      <trkpt lat="45.8804" lon="6.14263">
        <ele>461.1</ele>
        <time>2013-08-17T08:37:20Z</time>
      </trkpt>
      <trkpt lat="45.88043" lon="6.14259">
        <ele>461.3</ele>
        <time>2013-08-17T08:37:21Z</time>
      </trkpt>
      <trkpt lat="45.88052" lon="6.14241">
        <ele>462.4</ele>
        <time>2013-08-17T08:37:22Z</time>
      </trkpt>
      <trkpt lat="45.88057" lon="6.14239">
        <ele>462.4</ele>
        <time>2013-08-17T08:37:23Z</time>
      </trkpt>
      <trkpt lat="45.88061" lon="6.14236">
        <ele>462.5</ele>
        <time>2013-08-17T08:37:24Z</time>
      </trkpt>
      <trkpt lat="45.88066" lon="6.14234">
        <ele>462.6</ele>
        <time>2013-08-17T08:37:25Z</time>
      </trkpt>
      <trkpt lat="45.88071" lon="6.14232">
        <ele>462.6</ele>
        <time>2013-08-17T08:37:26Z</time>
      </trkpt>
      <trkpt lat="45.88075" lon="6.14229">
        <ele>462.7</ele>
        <time>2013-08-17T08:37:27Z</time>
      </trkpt>
      <trkpt lat="45.88076" lon="6.14224">
        <ele>463.1</ele>
        <time>2013-08-17T08:37:29Z</time>
      </trkpt>
      <trkpt lat="45.88091" lon="6.14221">
        <ele>462.9</ele>
        <time>2013-08-17T08:37:31Z</time>
      </trkpt>
      <trkpt lat="45.88096" lon="6.14219">
        <ele>463</ele>
        <time>2013-08-17T08:37:32Z</time>
      </trkpt>
      <trkpt lat="45.881" lon="6.14216">
        <ele>463</ele>
        <time>2013-08-17T08:37:33Z</time>
      </trkpt>
      <trkpt lat="45.88103" lon="6.14214">
        <ele>463.1</ele>
        <time>2013-08-17T08:37:34Z</time>
      </trkpt>
      <trkpt lat="45.88105" lon="6.14211">
        <ele>463.3</ele>
        <time>2013-08-17T08:37:35Z</time>
      </trkpt>
      <trkpt lat="45.88108" lon="6.14209">
        <ele>463.4</ele>
        <time>2013-08-17T08:37:36Z</time>
      </trkpt>
      <trkpt lat="45.88112" lon="6.14206">
        <ele>463.6</ele>
        <time>2013-08-17T08:37:37Z</time>
      </trkpt>
      <trkpt lat="45.88122" lon="6.14203">
        <ele>463.9</ele>
        <time>2013-08-17T08:37:38Z</time>
      </trkpt>
      <trkpt lat="45.88127" lon="6.14204">
        <ele>463.6</ele>
        <time>2013-08-17T08:37:40Z</time>
      </trkpt>
      <trkpt lat="45.8813" lon="6.14204">
        <ele>463.6</ele>
        <time>2013-08-17T08:37:41Z</time>
      </trkpt>
      <trkpt lat="45.88133" lon="6.14204">
        <ele>463.5</ele>
        <time>2013-08-17T08:37:42Z</time>
      </trkpt>
      <trkpt lat="45.88136" lon="6.14204">
        <ele>463.4</ele>
        <time>2013-08-17T08:37:43Z</time>
      </trkpt>
      <trkpt lat="45.88141" lon="6.14204">
        <ele>463.3</ele>
        <time>2013-08-17T08:37:45Z</time>
      </trkpt>
      <trkpt lat="45.88144" lon="6.14204">
        <ele>463.2</ele>
        <time>2013-08-17T08:37:47Z</time>
      </trkpt>
      <trkpt lat="45.88147" lon="6.14204">
        <ele>463.1</ele>
        <time>2013-08-17T08:37:50Z</time>
      </trkpt>
      <trkpt lat="45.88158" lon="6.14204">
        <ele>462.9</ele>
        <time>2013-08-17T08:37:56Z</time>
      </trkpt>
      <trkpt lat="45.8817" lon="6.14207">
        <ele>462.1</ele>
        <time>2013-08-17T08:37:57Z</time>
      </trkpt>
      <trkpt lat="45.88181" lon="6.1421">
        <ele>461.5</ele>
        <time>2013-08-17T08:37:58Z</time>
      </trkpt>
      <trkpt lat="45.88186" lon="6.14211">
        <ele>461.4</ele>
        <time>2013-08-17T08:37:59Z</time>
      </trkpt>
      <trkpt lat="45.88194" lon="6.14208">
        <ele>461.4</ele>
        <time>2013-08-17T08:38:00Z</time>
      </trkpt>
      <trkpt lat="45.88199" lon="6.14204">
        <ele>462.1</ele>
        <time>2013-08-17T08:38:01Z</time>
      </trkpt>
      <trkpt lat="45.88204" lon="6.14205">
        <ele>461.8</ele>
        <time>2013-08-17T08:38:02Z</time>
      </trkpt>
      <trkpt lat="45.88211" lon="6.14204">
        <ele>462</ele>
        <time>2013-08-17T08:38:03Z</time>
      </trkpt>
      <trkpt lat="45.88217" lon="6.14208">
        <ele>461.1</ele>
        <time>2013-08-17T08:38:04Z</time>
      </trkpt>
      <trkpt lat="45.88222" lon="6.14208">
        <ele>461.1</ele>
        <time>2013-08-17T08:38:05Z</time>
      </trkpt>
      <trkpt lat="45.88227" lon="6.14209">
        <ele>460.9</ele>
        <time>2013-08-17T08:38:06Z</time>
      </trkpt>
      <trkpt lat="45.88235" lon="6.14209">
        <ele>461</ele>
        <time>2013-08-17T08:38:07Z</time>
      </trkpt>
      <trkpt lat="45.88246" lon="6.14213">
        <ele>460.3</ele>
        <time>2013-08-17T08:38:08Z</time>
      </trkpt>
      <trkpt lat="45.88258" lon="6.14212">
        <ele>460.5</ele>
        <time>2013-08-17T08:38:09Z</time>
      </trkpt>
      <trkpt lat="45.88264" lon="6.14207">
        <ele>461.5</ele>
        <time>2013-08-17T08:38:10Z</time>
      </trkpt>
      <trkpt lat="45.88273" lon="6.14207">
        <ele>461.4</ele>
        <time>2013-08-17T08:38:11Z</time>
      </trkpt>
      <trkpt lat="45.88279" lon="6.14207">
        <ele>461.3</ele>
        <time>2013-08-17T08:38:12Z</time>
      </trkpt>
      <trkpt lat="45.88288" lon="6.14208">
        <ele>461.2</ele>
        <time>2013-08-17T08:38:13Z</time>
      </trkpt>
      <trkpt lat="45.88298" lon="6.14208">
        <ele>461.5</ele>
        <time>2013-08-17T08:38:14Z</time>
      </trkpt>
      <trkpt lat="45.88306" lon="6.14208">
        <ele>462</ele>
        <time>2013-08-17T08:38:15Z</time>
      </trkpt>
      <trkpt lat="45.88313" lon="6.14209">
        <ele>462.5</ele>
        <time>2013-08-17T08:38:16Z</time>
      </trkpt>
      <trkpt lat="45.88319" lon="6.14209">
        <ele>462.9</ele>
        <time>2013-08-17T08:38:17Z</time>
      </trkpt>
      <trkpt lat="45.88327" lon="6.14211">
        <ele>463</ele>
        <time>2013-08-17T08:38:18Z</time>
      </trkpt>
      <trkpt lat="45.88335" lon="6.14212">
        <ele>463.2</ele>
        <time>2013-08-17T08:38:19Z</time>
      </trkpt>
      <trkpt lat="45.88343" lon="6.14214">
        <ele>463.4</ele>
        <time>2013-08-17T08:38:20Z</time>
      </trkpt>
      <trkpt lat="45.88349" lon="6.14216">
        <ele>463.5</ele>
        <time>2013-08-17T08:38:21Z</time>
      </trkpt>
      <trkpt lat="45.88354" lon="6.14217">
        <ele>463.6</ele>
        <time>2013-08-17T08:38:22Z</time>
      </trkpt>
      <trkpt lat="45.8836" lon="6.14218">
        <ele>463.7</ele>
        <time>2013-08-17T08:38:23Z</time>
      </trkpt>
      <trkpt lat="45.88366" lon="6.14219">
        <ele>463.9</ele>
        <time>2013-08-17T08:38:24Z</time>
      </trkpt>
      <trkpt lat="45.88374" lon="6.14218">
        <ele>464.7</ele>
        <time>2013-08-17T08:38:25Z</time>
      </trkpt>
      <trkpt lat="45.88379" lon="6.14218">
        <ele>465.4</ele>
        <time>2013-08-17T08:38:26Z</time>
      </trkpt>
      <trkpt lat="45.88393" lon="6.14223">
        <ele>466.5</ele>
        <time>2013-08-17T08:38:28Z</time>
      </trkpt>
      <trkpt lat="45.884" lon="6.14223">
        <ele>467.4</ele>
        <time>2013-08-17T08:38:29Z</time>
      </trkpt>
      <trkpt lat="45.88406" lon="6.14224">
        <ele>468.1</ele>
        <time>2013-08-17T08:38:30Z</time>
      </trkpt>
      <trkpt lat="45.88412" lon="6.14224">
        <ele>468.9</ele>
        <time>2013-08-17T08:38:31Z</time>
      </trkpt>
      <trkpt lat="45.88419" lon="6.14225">
        <ele>469.7</ele>
        <time>2013-08-17T08:38:32Z</time>
      </trkpt>
      <trkpt lat="45.88424" lon="6.14226">
        <ele>470.2</ele>
        <time>2013-08-17T08:38:33Z</time>
      </trkpt>
      <trkpt lat="45.88429" lon="6.14227">
        <ele>470.4</ele>
        <time>2013-08-17T08:38:34Z</time>
      </trkpt>
      <trkpt lat="45.88434" lon="6.14228">
        <ele>471.1</ele>
        <time>2013-08-17T08:38:35Z</time>
      </trkpt>
      <trkpt lat="45.88439" lon="6.14228">
        <ele>471.8</ele>
        <time>2013-08-17T08:38:36Z</time>
      </trkpt>
      <trkpt lat="45.88445" lon="6.1423">
        <ele>471.7</ele>
        <time>2013-08-17T08:38:37Z</time>
      </trkpt>
      <trkpt lat="45.88463" lon="6.14239">
        <ele>470</ele>
        <time>2013-08-17T08:38:40Z</time>
      </trkpt>
      <trkpt lat="45.8847" lon="6.1424">
        <ele>470.5</ele>
        <time>2013-08-17T08:38:41Z</time>
      </trkpt>
      <trkpt lat="45.88477" lon="6.1424">
        <ele>470.9</ele>
        <time>2013-08-17T08:38:42Z</time>
      </trkpt>
      <trkpt lat="45.88482" lon="6.1424">
        <ele>471.4</ele>
        <time>2013-08-17T08:38:43Z</time>
      </trkpt>
      <trkpt lat="45.88488" lon="6.14242">
        <ele>470.9</ele>
        <time>2013-08-17T08:38:44Z</time>
      </trkpt>
      <trkpt lat="45.88494" lon="6.14244">
        <ele>470.5</ele>
        <time>2013-08-17T08:38:45Z</time>
      </trkpt>
      <trkpt lat="45.88501" lon="6.14243">
        <ele>471.4</ele>
        <time>2013-08-17T08:38:46Z</time>
      </trkpt>
      <trkpt lat="45.88507" lon="6.14244">
        <ele>471.3</ele>
        <time>2013-08-17T08:38:47Z</time>
      </trkpt>
      <trkpt lat="45.88514" lon="6.14245">
        <ele>471.5</ele>
        <time>2013-08-17T08:38:48Z</time>
      </trkpt>
      <trkpt lat="45.8852" lon="6.14247">
        <ele>470.9</ele>
        <time>2013-08-17T08:38:49Z</time>
      </trkpt>
      <trkpt lat="45.88526" lon="6.14248">
        <ele>470.5</ele>
        <time>2013-08-17T08:38:50Z</time>
      </trkpt>
      <trkpt lat="45.88533" lon="6.1425">
        <ele>470</ele>
        <time>2013-08-17T08:38:51Z</time>
      </trkpt>
      <trkpt lat="45.88539" lon="6.14253">
        <ele>468.8</ele>
        <time>2013-08-17T08:38:52Z</time>
      </trkpt>
      <trkpt lat="45.88545" lon="6.14256">
        <ele>467.7</ele>
        <time>2013-08-17T08:38:53Z</time>
      </trkpt>
      <trkpt lat="45.88552" lon="6.14258">
        <ele>467.8</ele>
        <time>2013-08-17T08:38:54Z</time>
      </trkpt>
      <trkpt lat="45.88558" lon="6.14261">
        <ele>467.1</ele>
        <time>2013-08-17T08:38:55Z</time>
      </trkpt>
      <trkpt lat="45.88564" lon="6.14264">
        <ele>466.2</ele>
        <time>2013-08-17T08:38:56Z</time>
      </trkpt>
      <trkpt lat="45.8857" lon="6.14268">
        <ele>465.3</ele>
        <time>2013-08-17T08:38:57Z</time>
      </trkpt>
      <trkpt lat="45.88576" lon="6.14271">
        <ele>464.8</ele>
        <time>2013-08-17T08:38:58Z</time>
      </trkpt>
      <trkpt lat="45.88585" lon="6.14275">
        <ele>464</ele>
        <time>2013-08-17T08:38:59Z</time>
      </trkpt>
      <trkpt lat="45.88588" lon="6.14277">
        <ele>463.6</ele>
        <time>2013-08-17T08:39:00Z</time>
      </trkpt>
      <trkpt lat="45.88595" lon="6.14281">
        <ele>462.5</ele>
        <time>2013-08-17T08:39:01Z</time>
      </trkpt>
      <trkpt lat="45.886" lon="6.14286">
        <ele>460.8</ele>
        <time>2013-08-17T08:39:02Z</time>
      </trkpt>
      <trkpt lat="45.88605" lon="6.1429">
        <ele>459.1</ele>
        <time>2013-08-17T08:39:03Z</time>
      </trkpt>
      <trkpt lat="45.88611" lon="6.14294">
        <ele>459.2</ele>
        <time>2013-08-17T08:39:04Z</time>
      </trkpt>
      <trkpt lat="45.88617" lon="6.14297">
        <ele>459.7</ele>
        <time>2013-08-17T08:39:05Z</time>
      </trkpt>
      <trkpt lat="45.88623" lon="6.14301">
        <ele>460.1</ele>
        <time>2013-08-17T08:39:06Z</time>
      </trkpt>
      <trkpt lat="45.88627" lon="6.14303">
        <ele>460.4</ele>
        <time>2013-08-17T08:39:07Z</time>
      </trkpt>
      <trkpt lat="45.88633" lon="6.14306">
        <ele>460.9</ele>
        <time>2013-08-17T08:39:08Z</time>
      </trkpt>
      <trkpt lat="45.88638" lon="6.14308">
        <ele>461.1</ele>
        <time>2013-08-17T08:39:09Z</time>
      </trkpt>
      <trkpt lat="45.88646" lon="6.1431">
        <ele>462</ele>
        <time>2013-08-17T08:39:10Z</time>
      </trkpt>
      <trkpt lat="45.88652" lon="6.1431">
        <ele>463</ele>
        <time>2013-08-17T08:39:11Z</time>
      </trkpt>
      <trkpt lat="45.88658" lon="6.14313">
        <ele>463.2</ele>
        <time>2013-08-17T08:39:12Z</time>
      </trkpt>
      <trkpt lat="45.88662" lon="6.14315">
        <ele>463.2</ele>
        <time>2013-08-17T08:39:13Z</time>
      </trkpt>
      <trkpt lat="45.88669" lon="6.14317">
        <ele>463.7</ele>
        <time>2013-08-17T08:39:14Z</time>
      </trkpt>
      <trkpt lat="45.88675" lon="6.14321">
        <ele>463.5</ele>
        <time>2013-08-17T08:39:15Z</time>
      </trkpt>
      <trkpt lat="45.8868" lon="6.14323">
        <ele>463.5</ele>
        <time>2013-08-17T08:39:16Z</time>
      </trkpt>
      <trkpt lat="45.88686" lon="6.14325">
        <ele>463.4</ele>
        <time>2013-08-17T08:39:17Z</time>
      </trkpt>
      <trkpt lat="45.88692" lon="6.14328">
        <ele>463.1</ele>
        <time>2013-08-17T08:39:18Z</time>
      </trkpt>
      <trkpt lat="45.88698" lon="6.1433">
        <ele>463.1</ele>
        <time>2013-08-17T08:39:19Z</time>
      </trkpt>
      <trkpt lat="45.88707" lon="6.14331">
        <ele>463.8</ele>
        <time>2013-08-17T08:39:20Z</time>
      </trkpt>
      <trkpt lat="45.88714" lon="6.14332">
        <ele>464.2</ele>
        <time>2013-08-17T08:39:21Z</time>
      </trkpt>
      <trkpt lat="45.8872" lon="6.14335">
        <ele>463.9</ele>
        <time>2013-08-17T08:39:22Z</time>
      </trkpt>
      <trkpt lat="45.88726" lon="6.14338">
        <ele>463.6</ele>
        <time>2013-08-17T08:39:23Z</time>
      </trkpt>
      <trkpt lat="45.88732" lon="6.1434">
        <ele>463.4</ele>
        <time>2013-08-17T08:39:24Z</time>
      </trkpt>
      <trkpt lat="45.88738" lon="6.14342">
        <ele>463.2</ele>
        <time>2013-08-17T08:39:25Z</time>
      </trkpt>
      <trkpt lat="45.88743" lon="6.14344">
        <ele>462.6</ele>
        <time>2013-08-17T08:39:26Z</time>
      </trkpt>
      <trkpt lat="45.88749" lon="6.14347">
        <ele>461.7</ele>
        <time>2013-08-17T08:39:27Z</time>
      </trkpt>
      <trkpt lat="45.88754" lon="6.14347">
        <ele>462</ele>
        <time>2013-08-17T08:39:28Z</time>
      </trkpt>
      <trkpt lat="45.8876" lon="6.14351">
        <ele>460.8</ele>
        <time>2013-08-17T08:39:29Z</time>
      </trkpt>
      <trkpt lat="45.88766" lon="6.1435">
        <ele>461.6</ele>
        <time>2013-08-17T08:39:30Z</time>
      </trkpt>
      <trkpt lat="45.88773" lon="6.14352">
        <ele>461.3</ele>
        <time>2013-08-17T08:39:31Z</time>
      </trkpt>
      <trkpt lat="45.88777" lon="6.14352">
        <ele>461.6</ele>
        <time>2013-08-17T08:39:32Z</time>
      </trkpt>
      <trkpt lat="45.88783" lon="6.14356">
        <ele>459.1</ele>
        <time>2013-08-17T08:39:33Z</time>
      </trkpt>
      <trkpt lat="45.8879" lon="6.14357">
        <ele>459.1</ele>
        <time>2013-08-17T08:39:34Z</time>
      </trkpt>
      <trkpt lat="45.88796" lon="6.14359">
        <ele>459</ele>
        <time>2013-08-17T08:39:35Z</time>
      </trkpt>
      <trkpt lat="45.88804" lon="6.1436">
        <ele>460.3</ele>
        <time>2013-08-17T08:39:36Z</time>
      </trkpt>
      <trkpt lat="45.88809" lon="6.14361">
        <ele>460.5</ele>
        <time>2013-08-17T08:39:37Z</time>
      </trkpt>
      <trkpt lat="45.88816" lon="6.14362">
        <ele>461.7</ele>
        <time>2013-08-17T08:39:38Z</time>
      </trkpt>
      <trkpt lat="45.88823" lon="6.14365">
        <ele>462.2</ele>
        <time>2013-08-17T08:39:39Z</time>
      </trkpt>
      <trkpt lat="45.8883" lon="6.14366">
        <ele>463.4</ele>
        <time>2013-08-17T08:39:40Z</time>
      </trkpt>
      <trkpt lat="45.88836" lon="6.14367">
        <ele>464.5</ele>
        <time>2013-08-17T08:39:41Z</time>
      </trkpt>
      <trkpt lat="45.88844" lon="6.14368">
        <ele>466.3</ele>
        <time>2013-08-17T08:39:42Z</time>
      </trkpt>
      <trkpt lat="45.8885" lon="6.14367">
        <ele>468.2</ele>
        <time>2013-08-17T08:39:43Z</time>
      </trkpt>
      <trkpt lat="45.88856" lon="6.14367">
        <ele>469.9</ele>
        <time>2013-08-17T08:39:44Z</time>
      </trkpt>
      <trkpt lat="45.88862" lon="6.14366">
        <ele>471.8</ele>
        <time>2013-08-17T08:39:45Z</time>
      </trkpt>
      <trkpt lat="45.88868" lon="6.14366">
        <ele>473.4</ele>
        <time>2013-08-17T08:39:46Z</time>
      </trkpt>
      <trkpt lat="45.88873" lon="6.14368">
        <ele>473.9</ele>
        <time>2013-08-17T08:39:47Z</time>
      </trkpt>
      <trkpt lat="45.88878" lon="6.1437">
        <ele>473.8</ele>
        <time>2013-08-17T08:39:48Z</time>
      </trkpt>
      <trkpt lat="45.88884" lon="6.14371">
        <ele>473.6</ele>
        <time>2013-08-17T08:39:49Z</time>
      </trkpt>
      <trkpt lat="45.88893" lon="6.14373">
        <ele>473</ele>
        <time>2013-08-17T08:39:50Z</time>
      </trkpt>
      <trkpt lat="45.88898" lon="6.14373">
        <ele>473.2</ele>
        <time>2013-08-17T08:39:51Z</time>
      </trkpt>
      <trkpt lat="45.88905" lon="6.14375">
        <ele>472.9</ele>
        <time>2013-08-17T08:39:52Z</time>
      </trkpt>
      <trkpt lat="45.88911" lon="6.14374">
        <ele>473.4</ele>
        <time>2013-08-17T08:39:53Z</time>
      </trkpt>
      <trkpt lat="45.88915" lon="6.14374">
        <ele>473.3</ele>
        <time>2013-08-17T08:39:54Z</time>
      </trkpt>
      <trkpt lat="45.8892" lon="6.14371">
        <ele>474.3</ele>
        <time>2013-08-17T08:39:55Z</time>
      </trkpt>
      <trkpt lat="45.88924" lon="6.14373">
        <ele>473.8</ele>
        <time>2013-08-17T08:39:56Z</time>
      </trkpt>
      <trkpt lat="45.88929" lon="6.14373">
        <ele>474</ele>
        <time>2013-08-17T08:39:57Z</time>
      </trkpt>
      <trkpt lat="45.88933" lon="6.14374">
        <ele>473.7</ele>
        <time>2013-08-17T08:39:58Z</time>
      </trkpt>
      <trkpt lat="45.88938" lon="6.14373">
        <ele>474.2</ele>
        <time>2013-08-17T08:39:59Z</time>
      </trkpt>
      <trkpt lat="45.88946" lon="6.14369">
        <ele>475.5</ele>
        <time>2013-08-17T08:40:01Z</time>
      </trkpt>
      <trkpt lat="45.8895" lon="6.1437">
        <ele>475.5</ele>
        <time>2013-08-17T08:40:02Z</time>
      </trkpt>
      <trkpt lat="45.88955" lon="6.14369">
        <ele>475.9</ele>
        <time>2013-08-17T08:40:03Z</time>
      </trkpt>
      <trkpt lat="45.88959" lon="6.14368">
        <ele>476.1</ele>
        <time>2013-08-17T08:40:04Z</time>
      </trkpt>
      <trkpt lat="45.88962" lon="6.14368">
        <ele>475.5</ele>
        <time>2013-08-17T08:40:05Z</time>
      </trkpt>
      <trkpt lat="45.88966" lon="6.14367">
        <ele>475</ele>
        <time>2013-08-17T08:40:06Z</time>
      </trkpt>
      <trkpt lat="45.88971" lon="6.14366">
        <ele>474.3</ele>
        <time>2013-08-17T08:40:07Z</time>
      </trkpt>
      <trkpt lat="45.88976" lon="6.14363">
        <ele>474.1</ele>
        <time>2013-08-17T08:40:08Z</time>
      </trkpt>
      <trkpt lat="45.88982" lon="6.14357">
        <ele>474.6</ele>
        <time>2013-08-17T08:40:09Z</time>
      </trkpt>
      <trkpt lat="45.88987" lon="6.14354">
        <ele>474.5</ele>
        <time>2013-08-17T08:40:10Z</time>
      </trkpt>
      <trkpt lat="45.8899" lon="6.14352">
        <ele>474.3</ele>
        <time>2013-08-17T08:40:11Z</time>
      </trkpt>
      <trkpt lat="45.88996" lon="6.14345">
        <ele>474.6</ele>
        <time>2013-08-17T08:40:12Z</time>
      </trkpt>
      <trkpt lat="45.89" lon="6.1434">
        <ele>474.8</ele>
        <time>2013-08-17T08:40:13Z</time>
      </trkpt>
      <trkpt lat="45.89006" lon="6.14335">
        <ele>474.6</ele>
        <time>2013-08-17T08:40:14Z</time>
      </trkpt>
      <trkpt lat="45.89009" lon="6.14333">
        <ele>474.4</ele>
        <time>2013-08-17T08:40:15Z</time>
      </trkpt>
      <trkpt lat="45.89014" lon="6.14327">
        <ele>474.2</ele>
        <time>2013-08-17T08:40:16Z</time>
      </trkpt>
      <trkpt lat="45.89019" lon="6.1432">
        <ele>474.6</ele>
        <time>2013-08-17T08:40:17Z</time>
      </trkpt>
      <trkpt lat="45.89021" lon="6.14315">
        <ele>475</ele>
        <time>2013-08-17T08:40:18Z</time>
      </trkpt>
      <trkpt lat="45.89023" lon="6.14311">
        <ele>475</ele>
        <time>2013-08-17T08:40:19Z</time>
      </trkpt>
      <trkpt lat="45.89027" lon="6.14307">
        <ele>474.8</ele>
        <time>2013-08-17T08:40:20Z</time>
      </trkpt>
      <trkpt lat="45.89033" lon="6.14299">
        <ele>474.6</ele>
        <time>2013-08-17T08:40:21Z</time>
      </trkpt>
      <trkpt lat="45.89037" lon="6.1429">
        <ele>475</ele>
        <time>2013-08-17T08:40:22Z</time>
      </trkpt>
      <trkpt lat="45.89039" lon="6.14286">
        <ele>474.8</ele>
        <time>2013-08-17T08:40:23Z</time>
      </trkpt>
      <trkpt lat="45.89044" lon="6.14275">
        <ele>475.3</ele>
        <time>2013-08-17T08:40:24Z</time>
      </trkpt>
      <trkpt lat="45.89046" lon="6.14267">
        <ele>475.8</ele>
        <time>2013-08-17T08:40:25Z</time>
      </trkpt>
      <trkpt lat="45.89049" lon="6.14261">
        <ele>476.2</ele>
        <time>2013-08-17T08:40:26Z</time>
      </trkpt>
      <trkpt lat="45.8905" lon="6.14253">
        <ele>476.9</ele>
        <time>2013-08-17T08:40:27Z</time>
      </trkpt>
      <trkpt lat="45.89051" lon="6.14247">
        <ele>477.5</ele>
        <time>2013-08-17T08:40:28Z</time>
      </trkpt>
      <trkpt lat="45.89052" lon="6.14243">
        <ele>477.9</ele>
        <time>2013-08-17T08:40:29Z</time>
      </trkpt>
      <trkpt lat="45.89054" lon="6.14232">
        <ele>479.2</ele>
        <time>2013-08-17T08:40:31Z</time>
      </trkpt>
      <trkpt lat="45.89055" lon="6.14222">
        <ele>480.3</ele>
        <time>2013-08-17T08:40:32Z</time>
      </trkpt>
      <trkpt lat="45.89055" lon="6.14218">
        <ele>480.9</ele>
        <time>2013-08-17T08:40:33Z</time>
      </trkpt>
      <trkpt lat="45.89056" lon="6.14203">
        <ele>481.9</ele>
        <time>2013-08-17T08:40:34Z</time>
      </trkpt>
      <trkpt lat="45.89057" lon="6.14188">
        <ele>481.2</ele>
        <time>2013-08-17T08:40:35Z</time>
      </trkpt>
      <trkpt lat="45.89058" lon="6.14178">
        <ele>480.7</ele>
        <time>2013-08-17T08:40:36Z</time>
      </trkpt>
      <trkpt lat="45.89058" lon="6.14173">
        <ele>480.4</ele>
        <time>2013-08-17T08:40:37Z</time>
      </trkpt>
      <trkpt lat="45.8906" lon="6.14142">
        <ele>478.7</ele>
        <time>2013-08-17T08:40:39Z</time>
      </trkpt>
      <trkpt lat="45.89061" lon="6.14132">
        <ele>478</ele>
        <time>2013-08-17T08:40:40Z</time>
      </trkpt>
      <trkpt lat="45.89062" lon="6.1412">
        <ele>477.2</ele>
        <time>2013-08-17T08:40:41Z</time>
      </trkpt>
      <trkpt lat="45.89063" lon="6.14113">
        <ele>476.9</ele>
        <time>2013-08-17T08:40:42Z</time>
      </trkpt>
      <trkpt lat="45.89065" lon="6.14101">
        <ele>476</ele>
        <time>2013-08-17T08:40:43Z</time>
      </trkpt>
      <trkpt lat="45.89067" lon="6.1409">
        <ele>475</ele>
        <time>2013-08-17T08:40:44Z</time>
      </trkpt>
      <trkpt lat="45.89071" lon="6.14079">
        <ele>473.4</ele>
        <time>2013-08-17T08:40:45Z</time>
      </trkpt>
      <trkpt lat="45.89074" lon="6.14067">
        <ele>472.4</ele>
        <time>2013-08-17T08:40:46Z</time>
      </trkpt>
      <trkpt lat="45.89076" lon="6.1406">
        <ele>471.6</ele>
        <time>2013-08-17T08:40:47Z</time>
      </trkpt>
      <trkpt lat="45.89083" lon="6.14047">
        <ele>469</ele>
        <time>2013-08-17T08:40:49Z</time>
      </trkpt>
      <trkpt lat="45.89087" lon="6.14037">
        <ele>467.4</ele>
        <time>2013-08-17T08:40:50Z</time>
      </trkpt>
      <trkpt lat="45.89089" lon="6.1403">
        <ele>466.4</ele>
        <time>2013-08-17T08:40:51Z</time>
      </trkpt>
      <trkpt lat="45.89092" lon="6.14026">
        <ele>465.4</ele>
        <time>2013-08-17T08:40:52Z</time>
      </trkpt>
      <trkpt lat="45.89096" lon="6.14019">
        <ele>463.9</ele>
        <time>2013-08-17T08:40:53Z</time>
      </trkpt>
      <trkpt lat="45.891" lon="6.14014">
        <ele>462.6</ele>
        <time>2013-08-17T08:40:54Z</time>
      </trkpt>
      <trkpt lat="45.89102" lon="6.14009">
        <ele>461.9</ele>
        <time>2013-08-17T08:40:55Z</time>
      </trkpt>
      <trkpt lat="45.89104" lon="6.14003">
        <ele>461.1</ele>
        <time>2013-08-17T08:40:56Z</time>
      </trkpt>
      <trkpt lat="45.89108" lon="6.14001">
        <ele>460.1</ele>
        <time>2013-08-17T08:40:57Z</time>
      </trkpt>
      <trkpt lat="45.89109" lon="6.13996">
        <ele>459.8</ele>
        <time>2013-08-17T08:40:58Z</time>
      </trkpt>
      <trkpt lat="45.89113" lon="6.13992">
        <ele>458.6</ele>
        <time>2013-08-17T08:41:01Z</time>
      </trkpt>
      <trkpt lat="45.89117" lon="6.13985">
        <ele>457.4</ele>
        <time>2013-08-17T08:41:03Z</time>
      </trkpt>
      <trkpt lat="45.89119" lon="6.13981">
        <ele>457</ele>
        <time>2013-08-17T08:41:04Z</time>
      </trkpt>
      <trkpt lat="45.89122" lon="6.13977">
        <ele>456.4</ele>
        <time>2013-08-17T08:41:05Z</time>
      </trkpt>
      <trkpt lat="45.89126" lon="6.1397">
        <ele>455.7</ele>
        <time>2013-08-17T08:41:07Z</time>
      </trkpt>
      <trkpt lat="45.89128" lon="6.13966">
        <ele>455.8</ele>
        <time>2013-08-17T08:41:08Z</time>
      </trkpt>
      <trkpt lat="45.8913" lon="6.13962">
        <ele>455.8</ele>
        <time>2013-08-17T08:41:09Z</time>
      </trkpt>
      <trkpt lat="45.8914" lon="6.13943">
        <ele>456</ele>
        <time>2013-08-17T08:41:14Z</time>
      </trkpt>
      <trkpt lat="45.89143" lon="6.13939">
        <ele>456</ele>
        <time>2013-08-17T08:41:15Z</time>
      </trkpt>
      <trkpt lat="45.89145" lon="6.13934">
        <ele>455.9</ele>
        <time>2013-08-17T08:41:16Z</time>
      </trkpt>
      <trkpt lat="45.89147" lon="6.1393">
        <ele>455.9</ele>
        <time>2013-08-17T08:41:17Z</time>
      </trkpt>
      <trkpt lat="45.89151" lon="6.13924">
        <ele>455.8</ele>
        <time>2013-08-17T08:41:18Z</time>
      </trkpt>
      <trkpt lat="45.89154" lon="6.13918">
        <ele>455.6</ele>
        <time>2013-08-17T08:41:19Z</time>
      </trkpt>
      <trkpt lat="45.89158" lon="6.13911">
        <ele>455.4</ele>
        <time>2013-08-17T08:41:20Z</time>
      </trkpt>
      <trkpt lat="45.89162" lon="6.13904">
        <ele>455.1</ele>
        <time>2013-08-17T08:41:21Z</time>
      </trkpt>
      <trkpt lat="45.89165" lon="6.13899">
        <ele>454.9</ele>
        <time>2013-08-17T08:41:22Z</time>
      </trkpt>
      <trkpt lat="45.89168" lon="6.13893">
        <ele>454.6</ele>
        <time>2013-08-17T08:41:23Z</time>
      </trkpt>
      <trkpt lat="45.89174" lon="6.13882">
        <ele>454</ele>
        <time>2013-08-17T08:41:24Z</time>
      </trkpt>
      <trkpt lat="45.89181" lon="6.1387">
        <ele>453.3</ele>
        <time>2013-08-17T08:41:25Z</time>
      </trkpt>
      <trkpt lat="45.89183" lon="6.13866">
        <ele>453.1</ele>
        <time>2013-08-17T08:41:26Z</time>
      </trkpt>
      <trkpt lat="45.89187" lon="6.13859">
        <ele>452.7</ele>
        <time>2013-08-17T08:41:27Z</time>
      </trkpt>
      <trkpt lat="45.8919" lon="6.13854">
        <ele>452.4</ele>
        <time>2013-08-17T08:41:28Z</time>
      </trkpt>
      <trkpt lat="45.89193" lon="6.1385">
        <ele>452.2</ele>
        <time>2013-08-17T08:41:29Z</time>
      </trkpt>
      <trkpt lat="45.89195" lon="6.13846">
        <ele>451.9</ele>
        <time>2013-08-17T08:41:30Z</time>
      </trkpt>
      <trkpt lat="45.89198" lon="6.13841">
        <ele>451.6</ele>
        <time>2013-08-17T08:41:31Z</time>
      </trkpt>
      <trkpt lat="45.892" lon="6.13837">
        <ele>451.4</ele>
        <time>2013-08-17T08:41:32Z</time>
      </trkpt>
      <trkpt lat="45.89203" lon="6.13833">
        <ele>451.1</ele>
        <time>2013-08-17T08:41:33Z</time>
      </trkpt>
      <trkpt lat="45.89206" lon="6.13828">
        <ele>450.7</ele>
        <time>2013-08-17T08:41:34Z</time>
      </trkpt>
      <trkpt lat="45.89208" lon="6.13823">
        <ele>450.4</ele>
        <time>2013-08-17T08:41:35Z</time>
      </trkpt>
      <trkpt lat="45.89211" lon="6.13818">
        <ele>450.3</ele>
        <time>2013-08-17T08:41:36Z</time>
      </trkpt>
      <trkpt lat="45.89214" lon="6.13813">
        <ele>450.2</ele>
        <time>2013-08-17T08:41:37Z</time>
      </trkpt>
      <trkpt lat="45.89222" lon="6.138">
        <ele>450</ele>
        <time>2013-08-17T08:41:38Z</time>
      </trkpt>
      <trkpt lat="45.89225" lon="6.13793">
        <ele>450</ele>
        <time>2013-08-17T08:41:39Z</time>
      </trkpt>
      <trkpt lat="45.89228" lon="6.13788">
        <ele>450.2</ele>
        <time>2013-08-17T08:41:40Z</time>
      </trkpt>
      <trkpt lat="45.89232" lon="6.13782">
        <ele>450.6</ele>
        <time>2013-08-17T08:41:41Z</time>
      </trkpt>
      <trkpt lat="45.89235" lon="6.13777">
        <ele>451</ele>
        <time>2013-08-17T08:41:42Z</time>
      </trkpt>
      <trkpt lat="45.89238" lon="6.13772">
        <ele>451.3</ele>
        <time>2013-08-17T08:41:43Z</time>
      </trkpt>
      <trkpt lat="45.89243" lon="6.13764">
        <ele>451.7</ele>
        <time>2013-08-17T08:41:44Z</time>
      </trkpt>
      <trkpt lat="45.89247" lon="6.13757">
        <ele>452.1</ele>
        <time>2013-08-17T08:41:45Z</time>
      </trkpt>
      <trkpt lat="45.89253" lon="6.13746">
        <ele>452.7</ele>
        <time>2013-08-17T08:41:46Z</time>
      </trkpt>
      <trkpt lat="45.89259" lon="6.13737">
        <ele>453.2</ele>
        <time>2013-08-17T08:41:47Z</time>
      </trkpt>
      <trkpt lat="45.89264" lon="6.13728">
        <ele>453.6</ele>
        <time>2013-08-17T08:41:48Z</time>
      </trkpt>
      <trkpt lat="45.89269" lon="6.1372">
        <ele>453.9</ele>
        <time>2013-08-17T08:41:49Z</time>
      </trkpt>
      <trkpt lat="45.8927" lon="6.13717">
        <ele>454</ele>
        <time>2013-08-17T08:41:50Z</time>
      </trkpt>
      <trkpt lat="45.89278" lon="6.13706">
        <ele>454.8</ele>
        <time>2013-08-17T08:41:51Z</time>
      </trkpt>
      <trkpt lat="45.89288" lon="6.13689">
        <ele>457</ele>
        <time>2013-08-17T08:41:53Z</time>
      </trkpt>
      <trkpt lat="45.8929" lon="6.13684">
        <ele>457.5</ele>
        <time>2013-08-17T08:41:54Z</time>
      </trkpt>
      <trkpt lat="45.89293" lon="6.1368">
        <ele>458</ele>
        <time>2013-08-17T08:41:55Z</time>
      </trkpt>
      <trkpt lat="45.89296" lon="6.13675">
        <ele>458.4</ele>
        <time>2013-08-17T08:41:56Z</time>
      </trkpt>
      <trkpt lat="45.89298" lon="6.13672">
        <ele>458.7</ele>
        <time>2013-08-17T08:41:57Z</time>
      </trkpt>
      <trkpt lat="45.893" lon="6.13668">
        <ele>459</ele>
        <time>2013-08-17T08:41:58Z</time>
      </trkpt>
      <trkpt lat="45.89302" lon="6.13665">
        <ele>459.3</ele>
        <time>2013-08-17T08:41:59Z</time>
      </trkpt>
      <trkpt lat="45.89305" lon="6.1366">
        <ele>459.6</ele>
        <time>2013-08-17T08:42:00Z</time>
      </trkpt>
      <trkpt lat="45.89307" lon="6.13657">
        <ele>459.8</ele>
        <time>2013-08-17T08:42:01Z</time>
      </trkpt>
      <trkpt lat="45.89311" lon="6.13651">
        <ele>460.1</ele>
        <time>2013-08-17T08:42:02Z</time>
      </trkpt>
      <trkpt lat="45.89314" lon="6.13646">
        <ele>460.3</ele>
        <time>2013-08-17T08:42:05Z</time>
      </trkpt>
      <trkpt lat="45.89316" lon="6.13643">
        <ele>460.4</ele>
        <time>2013-08-17T08:42:08Z</time>
      </trkpt>
      <trkpt lat="45.89318" lon="6.13639">
        <ele>460.6</ele>
        <time>2013-08-17T08:42:10Z</time>
      </trkpt>
      <trkpt lat="45.89322" lon="6.13633">
        <ele>460.7</ele>
        <time>2013-08-17T08:42:12Z</time>
      </trkpt>
      <trkpt lat="45.89325" lon="6.13628">
        <ele>460.8</ele>
        <time>2013-08-17T08:42:13Z</time>
      </trkpt>
      <trkpt lat="45.89334" lon="6.13616">
        <ele>461.3</ele>
        <time>2013-08-17T08:42:14Z</time>
      </trkpt>
      <trkpt lat="45.89343" lon="6.136">
        <ele>461.8</ele>
        <time>2013-08-17T08:42:15Z</time>
      </trkpt>
      <trkpt lat="45.89348" lon="6.13593">
        <ele>462</ele>
        <time>2013-08-17T08:42:16Z</time>
      </trkpt>
      <trkpt lat="45.89351" lon="6.13588">
        <ele>462</ele>
        <time>2013-08-17T08:42:17Z</time>
      </trkpt>
      <trkpt lat="45.89354" lon="6.13583">
        <ele>462.1</ele>
        <time>2013-08-17T08:42:18Z</time>
      </trkpt>
      <trkpt lat="45.89358" lon="6.13578">
        <ele>462.1</ele>
        <time>2013-08-17T08:42:19Z</time>
      </trkpt>
      <trkpt lat="45.89363" lon="6.1357">
        <ele>462.1</ele>
        <time>2013-08-17T08:42:20Z</time>
      </trkpt>
      <trkpt lat="45.89369" lon="6.13562">
        <ele>462</ele>
        <time>2013-08-17T08:42:21Z</time>
      </trkpt>
      <trkpt lat="45.89372" lon="6.13557">
        <ele>461.9</ele>
        <time>2013-08-17T08:42:22Z</time>
      </trkpt>
      <trkpt lat="45.89376" lon="6.13552">
        <ele>461.9</ele>
        <time>2013-08-17T08:42:23Z</time>
      </trkpt>
      <trkpt lat="45.89378" lon="6.13548">
        <ele>462</ele>
        <time>2013-08-17T08:42:24Z</time>
      </trkpt>
      <trkpt lat="45.89381" lon="6.13544">
        <ele>462.1</ele>
        <time>2013-08-17T08:42:25Z</time>
      </trkpt>
      <trkpt lat="45.89385" lon="6.13539">
        <ele>462.3</ele>
        <time>2013-08-17T08:42:27Z</time>
      </trkpt>
      <trkpt lat="45.89391" lon="6.13529">
        <ele>463</ele>
        <time>2013-08-17T08:42:29Z</time>
      </trkpt>
      <trkpt lat="45.89394" lon="6.13526">
        <ele>463.2</ele>
        <time>2013-08-17T08:42:30Z</time>
      </trkpt>
      <trkpt lat="45.89396" lon="6.13523">
        <ele>463.3</ele>
        <time>2013-08-17T08:42:31Z</time>
      </trkpt>
      <trkpt lat="45.89398" lon="6.13519">
        <ele>463.5</ele>
        <time>2013-08-17T08:42:32Z</time>
      </trkpt>
      <trkpt lat="45.894" lon="6.13516">
        <ele>463.6</ele>
        <time>2013-08-17T08:42:33Z</time>
      </trkpt>
      <trkpt lat="45.89402" lon="6.13513">
        <ele>463.7</ele>
        <time>2013-08-17T08:42:34Z</time>
      </trkpt>
      <trkpt lat="45.89405" lon="6.1351">
        <ele>463.9</ele>
        <time>2013-08-17T08:42:35Z</time>
      </trkpt>
      <trkpt lat="45.89407" lon="6.13506">
        <ele>464</ele>
        <time>2013-08-17T08:42:36Z</time>
      </trkpt>
      <trkpt lat="45.8941" lon="6.13502">
        <ele>464</ele>
        <time>2013-08-17T08:42:37Z</time>
      </trkpt>
      <trkpt lat="45.89414" lon="6.13497">
        <ele>464.1</ele>
        <time>2013-08-17T08:42:38Z</time>
      </trkpt>
      <trkpt lat="45.89417" lon="6.13494">
        <ele>464</ele>
        <time>2013-08-17T08:42:39Z</time>
      </trkpt>
      <trkpt lat="45.89419" lon="6.1349">
        <ele>464</ele>
        <time>2013-08-17T08:42:40Z</time>
      </trkpt>
      <trkpt lat="45.89422" lon="6.13487">
        <ele>464</ele>
        <time>2013-08-17T08:42:41Z</time>
      </trkpt>
      <trkpt lat="45.89424" lon="6.13484">
        <ele>463.9</ele>
        <time>2013-08-17T08:42:42Z</time>
      </trkpt>
      <trkpt lat="45.89427" lon="6.13481">
        <ele>463.9</ele>
        <time>2013-08-17T08:42:43Z</time>
      </trkpt>
      <trkpt lat="45.89429" lon="6.13478">
        <ele>463.8</ele>
        <time>2013-08-17T08:42:44Z</time>
      </trkpt>
      <trkpt lat="45.89432" lon="6.13474">
        <ele>463.7</ele>
        <time>2013-08-17T08:42:45Z</time>
      </trkpt>
      <trkpt lat="45.89434" lon="6.13471">
        <ele>463.5</ele>
        <time>2013-08-17T08:42:46Z</time>
      </trkpt>
      <trkpt lat="45.89437" lon="6.13467">
        <ele>463.4</ele>
        <time>2013-08-17T08:42:47Z</time>
      </trkpt>
      <trkpt lat="45.89441" lon="6.13462">
        <ele>463.1</ele>
        <time>2013-08-17T08:42:48Z</time>
      </trkpt>
      <trkpt lat="45.89454" lon="6.13447">
        <ele>461.8</ele>
        <time>2013-08-17T08:42:51Z</time>
      </trkpt>
      <trkpt lat="45.89457" lon="6.13444">
        <ele>461.4</ele>
        <time>2013-08-17T08:42:52Z</time>
      </trkpt>
      <trkpt lat="45.8946" lon="6.13439">
        <ele>461.2</ele>
        <time>2013-08-17T08:42:53Z</time>
      </trkpt>
      <trkpt lat="45.89463" lon="6.13436">
        <ele>461</ele>
        <time>2013-08-17T08:42:54Z</time>
      </trkpt>
      <trkpt lat="45.89467" lon="6.13432">
        <ele>460.9</ele>
        <time>2013-08-17T08:42:55Z</time>
      </trkpt>
      <trkpt lat="45.8947" lon="6.13428">
        <ele>460.7</ele>
        <time>2013-08-17T08:42:56Z</time>
      </trkpt>
      <trkpt lat="45.89473" lon="6.13424">
        <ele>460.6</ele>
        <time>2013-08-17T08:42:57Z</time>
      </trkpt>
      <trkpt lat="45.89476" lon="6.13421">
        <ele>460.4</ele>
        <time>2013-08-17T08:42:58Z</time>
      </trkpt>
      <trkpt lat="45.89479" lon="6.13418">
        <ele>460.2</ele>
        <time>2013-08-17T08:42:59Z</time>
      </trkpt>
      <trkpt lat="45.89482" lon="6.13415">
        <ele>460</ele>
        <time>2013-08-17T08:43:00Z</time>
      </trkpt>
      <trkpt lat="45.89486" lon="6.13411">
        <ele>459.7</ele>
        <time>2013-08-17T08:43:01Z</time>
      </trkpt>
      <trkpt lat="45.89489" lon="6.13407">
        <ele>459.5</ele>
        <time>2013-08-17T08:43:02Z</time>
      </trkpt>
      <trkpt lat="45.89492" lon="6.13404">
        <ele>459.2</ele>
        <time>2013-08-17T08:43:03Z</time>
      </trkpt>
      <trkpt lat="45.89495" lon="6.13401">
        <ele>459</ele>
        <time>2013-08-17T08:43:04Z</time>
      </trkpt>
      <trkpt lat="45.89498" lon="6.13397">
        <ele>458.7</ele>
        <time>2013-08-17T08:43:06Z</time>
      </trkpt>
      <trkpt lat="45.89501" lon="6.13394">
        <ele>458.5</ele>
        <time>2013-08-17T08:43:08Z</time>
      </trkpt>
      <trkpt lat="45.89504" lon="6.13391">
        <ele>458.2</ele>
        <time>2013-08-17T08:43:10Z</time>
      </trkpt>
      <trkpt lat="45.89507" lon="6.13388">
        <ele>457.9</ele>
        <time>2013-08-17T08:43:11Z</time>
      </trkpt>
      <trkpt lat="45.89512" lon="6.13382">
        <ele>457.4</ele>
        <time>2013-08-17T08:43:13Z</time>
      </trkpt>
      <trkpt lat="45.89517" lon="6.13377">
        <ele>456.8</ele>
        <time>2013-08-17T08:43:14Z</time>
      </trkpt>
      <trkpt lat="45.8952" lon="6.13373">
        <ele>456.6</ele>
        <time>2013-08-17T08:43:15Z</time>
      </trkpt>
      <trkpt lat="45.89523" lon="6.1337">
        <ele>456.6</ele>
        <time>2013-08-17T08:43:16Z</time>
      </trkpt>
      <trkpt lat="45.89525" lon="6.13367">
        <ele>456.6</ele>
        <time>2013-08-17T08:43:17Z</time>
      </trkpt>
      <trkpt lat="45.89528" lon="6.13365">
        <ele>456.7</ele>
        <time>2013-08-17T08:43:18Z</time>
      </trkpt>
      <trkpt lat="45.89531" lon="6.13361">
        <ele>456.7</ele>
        <time>2013-08-17T08:43:20Z</time>
      </trkpt>
      <trkpt lat="45.89536" lon="6.13361">
        <ele>456</ele>
        <time>2013-08-17T08:43:22Z</time>
      </trkpt>
      <trkpt lat="45.89544" lon="6.13375">
        <ele>453</ele>
        <time>2013-08-17T08:43:23Z</time>
      </trkpt>
      <trkpt lat="45.89555" lon="6.13391">
        <ele>452.2</ele>
        <time>2013-08-17T08:43:24Z</time>
      </trkpt>
      <trkpt lat="45.89558" lon="6.13394">
        <ele>452</ele>
        <time>2013-08-17T08:43:25Z</time>
      </trkpt>
      <trkpt lat="45.8956" lon="6.13396">
        <ele>451.9</ele>
        <time>2013-08-17T08:43:26Z</time>
      </trkpt>
      <trkpt lat="45.89565" lon="6.134">
        <ele>451.7</ele>
        <time>2013-08-17T08:43:28Z</time>
      </trkpt>
      <trkpt lat="45.89567" lon="6.13403">
        <ele>451.5</ele>
        <time>2013-08-17T08:43:29Z</time>
      </trkpt>
      <trkpt lat="45.89569" lon="6.13406">
        <ele>451.4</ele>
        <time>2013-08-17T08:43:30Z</time>
      </trkpt>
      <trkpt lat="45.89571" lon="6.13408">
        <ele>451.3</ele>
        <time>2013-08-17T08:43:31Z</time>
      </trkpt>
      <trkpt lat="45.89573" lon="6.13411">
        <ele>451.2</ele>
        <time>2013-08-17T08:43:32Z</time>
      </trkpt>
      <trkpt lat="45.89576" lon="6.13415">
        <ele>451</ele>
        <time>2013-08-17T08:43:33Z</time>
      </trkpt>
      <trkpt lat="45.89579" lon="6.13418">
        <ele>450.8</ele>
        <time>2013-08-17T08:43:34Z</time>
      </trkpt>
      <trkpt lat="45.89582" lon="6.13422">
        <ele>450.7</ele>
        <time>2013-08-17T08:43:35Z</time>
      </trkpt>
      <trkpt lat="45.89586" lon="6.13427">
        <ele>450.5</ele>
        <time>2013-08-17T08:43:36Z</time>
      </trkpt>
      <trkpt lat="45.89591" lon="6.13433">
        <ele>450.2</ele>
        <time>2013-08-17T08:43:37Z</time>
      </trkpt>
      <trkpt lat="45.89595" lon="6.13438">
        <ele>450.1</ele>
        <time>2013-08-17T08:43:38Z</time>
      </trkpt>
      <trkpt lat="45.89597" lon="6.13442">
        <ele>449.9</ele>
        <time>2013-08-17T08:43:39Z</time>
      </trkpt>
      <trkpt lat="45.896" lon="6.13447">
        <ele>449.8</ele>
        <time>2013-08-17T08:43:40Z</time>
      </trkpt>
      <trkpt lat="45.89608" lon="6.13457">
        <ele>449.4</ele>
        <time>2013-08-17T08:43:41Z</time>
      </trkpt>
      <trkpt lat="45.89617" lon="6.13467">
        <ele>449.1</ele>
        <time>2013-08-17T08:43:42Z</time>
      </trkpt>
      <trkpt lat="45.89622" lon="6.1347">
        <ele>448.8</ele>
        <time>2013-08-17T08:43:43Z</time>
      </trkpt>
      <trkpt lat="45.89626" lon="6.13472">
        <ele>448.6</ele>
        <time>2013-08-17T08:43:44Z</time>
      </trkpt>
      <trkpt lat="45.8963" lon="6.13475">
        <ele>448.5</ele>
        <time>2013-08-17T08:43:45Z</time>
      </trkpt>
      <trkpt lat="45.89635" lon="6.13475">
        <ele>448.3</ele>
        <time>2013-08-17T08:43:46Z</time>
      </trkpt>
      <trkpt lat="45.89639" lon="6.13476">
        <ele>448.2</ele>
        <time>2013-08-17T08:43:47Z</time>
      </trkpt>
      <trkpt lat="45.8964" lon="6.13472">
        <ele>448.2</ele>
        <time>2013-08-17T08:43:48Z</time>
      </trkpt>
      <trkpt lat="45.89644" lon="6.1347">
        <ele>448.1</ele>
        <time>2013-08-17T08:43:49Z</time>
      </trkpt>
      <trkpt lat="45.89647" lon="6.13469">
        <ele>448</ele>
        <time>2013-08-17T08:43:51Z</time>
      </trkpt>
      <trkpt lat="45.89652" lon="6.13469">
        <ele>447.9</ele>
        <time>2013-08-17T08:43:53Z</time>
      </trkpt>
      <trkpt lat="45.89656" lon="6.13467">
        <ele>447.8</ele>
        <time>2013-08-17T08:43:55Z</time>
      </trkpt>
      <trkpt lat="45.89658" lon="6.13464">
        <ele>447.8</ele>
        <time>2013-08-17T08:43:56Z</time>
      </trkpt>
      <trkpt lat="45.8966" lon="6.1346">
        <ele>447.7</ele>
        <time>2013-08-17T08:43:57Z</time>
      </trkpt>
      <trkpt lat="45.89663" lon="6.13456">
        <ele>447.7</ele>
        <time>2013-08-17T08:43:58Z</time>
      </trkpt>
      <trkpt lat="45.89666" lon="6.13452">
        <ele>447.8</ele>
        <time>2013-08-17T08:43:59Z</time>
      </trkpt>
      <trkpt lat="45.89669" lon="6.13448">
        <ele>447.8</ele>
        <time>2013-08-17T08:44:00Z</time>
      </trkpt>
      <trkpt lat="45.89672" lon="6.13445">
        <ele>447.8</ele>
        <time>2013-08-17T08:44:01Z</time>
      </trkpt>
      <trkpt lat="45.89675" lon="6.13441">
        <ele>447.9</ele>
        <time>2013-08-17T08:44:02Z</time>
      </trkpt>
      <trkpt lat="45.89678" lon="6.13437">
        <ele>448</ele>
        <time>2013-08-17T08:44:03Z</time>
      </trkpt>
      <trkpt lat="45.89682" lon="6.13433">
        <ele>448.1</ele>
        <time>2013-08-17T08:44:04Z</time>
      </trkpt>
      <trkpt lat="45.89685" lon="6.1343">
        <ele>448.2</ele>
        <time>2013-08-17T08:44:05Z</time>
      </trkpt>
      <trkpt lat="45.89694" lon="6.13417">
        <ele>448.7</ele>
        <time>2013-08-17T08:44:06Z</time>
      </trkpt>
      <trkpt lat="45.89698" lon="6.13411">
        <ele>448.9</ele>
        <time>2013-08-17T08:44:07Z</time>
      </trkpt>
      <trkpt lat="45.89702" lon="6.13407">
        <ele>449.1</ele>
        <time>2013-08-17T08:44:08Z</time>
      </trkpt>
      <trkpt lat="45.89707" lon="6.134">
        <ele>449.5</ele>
        <time>2013-08-17T08:44:09Z</time>
      </trkpt>
      <trkpt lat="45.8971" lon="6.13394">
        <ele>449.9</ele>
        <time>2013-08-17T08:44:10Z</time>
      </trkpt>
      <trkpt lat="45.89715" lon="6.13388">
        <ele>450.4</ele>
        <time>2013-08-17T08:44:11Z</time>
      </trkpt>
      <trkpt lat="45.89719" lon="6.13381">
        <ele>450.9</ele>
        <time>2013-08-17T08:44:12Z</time>
      </trkpt>
      <trkpt lat="45.89723" lon="6.13376">
        <ele>451.3</ele>
        <time>2013-08-17T08:44:13Z</time>
      </trkpt>
      <trkpt lat="45.89727" lon="6.13371">
        <ele>451.4</ele>
        <time>2013-08-17T08:44:14Z</time>
      </trkpt>
      <trkpt lat="45.8973" lon="6.13366">
        <ele>451.4</ele>
        <time>2013-08-17T08:44:15Z</time>
      </trkpt>
      <trkpt lat="45.89734" lon="6.13361">
        <ele>451.4</ele>
        <time>2013-08-17T08:44:16Z</time>
      </trkpt>
      <trkpt lat="45.89737" lon="6.13358">
        <ele>451.4</ele>
        <time>2013-08-17T08:44:17Z</time>
      </trkpt>
      <trkpt lat="45.89741" lon="6.13354">
        <ele>451.4</ele>
        <time>2013-08-17T08:44:18Z</time>
      </trkpt>
      <trkpt lat="45.89744" lon="6.13349">
        <ele>451.3</ele>
        <time>2013-08-17T08:44:19Z</time>
      </trkpt>
      <trkpt lat="45.89747" lon="6.13345">
        <ele>451.3</ele>
        <time>2013-08-17T08:44:20Z</time>
      </trkpt>
      <trkpt lat="45.89751" lon="6.1334">
        <ele>451.2</ele>
        <time>2013-08-17T08:44:21Z</time>
      </trkpt>
      <trkpt lat="45.89754" lon="6.13335">
        <ele>451.1</ele>
        <time>2013-08-17T08:44:22Z</time>
      </trkpt>
      <trkpt lat="45.89758" lon="6.13331">
        <ele>450.9</ele>
        <time>2013-08-17T08:44:23Z</time>
      </trkpt>
      <trkpt lat="45.89761" lon="6.13326">
        <ele>450.8</ele>
        <time>2013-08-17T08:44:24Z</time>
      </trkpt>
      <trkpt lat="45.89763" lon="6.13321">
        <ele>450.6</ele>
        <time>2013-08-17T08:44:25Z</time>
      </trkpt>
      <trkpt lat="45.89766" lon="6.13318">
        <ele>450.5</ele>
        <time>2013-08-17T08:44:26Z</time>
      </trkpt>
      <trkpt lat="45.89768" lon="6.13315">
        <ele>450.4</ele>
        <time>2013-08-17T08:44:27Z</time>
      </trkpt>
      <trkpt lat="45.8977" lon="6.13309">
        <ele>450.1</ele>
        <time>2013-08-17T08:44:28Z</time>
      </trkpt>
      <trkpt lat="45.89772" lon="6.13305">
        <ele>450</ele>
        <time>2013-08-17T08:44:29Z</time>
      </trkpt>
      <trkpt lat="45.89774" lon="6.133">
        <ele>449.7</ele>
        <time>2013-08-17T08:44:30Z</time>
      </trkpt>
      <trkpt lat="45.89776" lon="6.13296">
        <ele>449.5</ele>
        <time>2013-08-17T08:44:31Z</time>
      </trkpt>
      <trkpt lat="45.89778" lon="6.13292">
        <ele>449.3</ele>
        <time>2013-08-17T08:44:32Z</time>
      </trkpt>
      <trkpt lat="45.8978" lon="6.13288">
        <ele>449.3</ele>
        <time>2013-08-17T08:44:33Z</time>
      </trkpt>
      <trkpt lat="45.89782" lon="6.13284">
        <ele>449.2</ele>
        <time>2013-08-17T08:44:34Z</time>
      </trkpt>
      <trkpt lat="45.89784" lon="6.13279">
        <ele>449.2</ele>
        <time>2013-08-17T08:44:35Z</time>
      </trkpt>
      <trkpt lat="45.89786" lon="6.13274">
        <ele>449.2</ele>
        <time>2013-08-17T08:44:36Z</time>
      </trkpt>
      <trkpt lat="45.89788" lon="6.13269">
        <ele>449.1</ele>
        <time>2013-08-17T08:44:37Z</time>
      </trkpt>
      <trkpt lat="45.8979" lon="6.13263">
        <ele>449.1</ele>
        <time>2013-08-17T08:44:38Z</time>
      </trkpt>
      <trkpt lat="45.89791" lon="6.13254">
        <ele>449</ele>
        <time>2013-08-17T08:44:39Z</time>
      </trkpt>
      <trkpt lat="45.89792" lon="6.13248">
        <ele>449</ele>
        <time>2013-08-17T08:44:40Z</time>
      </trkpt>
      <trkpt lat="45.89793" lon="6.1324">
        <ele>449</ele>
        <time>2013-08-17T08:44:41Z</time>
      </trkpt>
      <trkpt lat="45.89795" lon="6.13233">
        <ele>449</ele>
        <time>2013-08-17T08:44:42Z</time>
      </trkpt>
      <trkpt lat="45.89798" lon="6.13227">
        <ele>449</ele>
        <time>2013-08-17T08:44:43Z</time>
      </trkpt>
      <trkpt lat="45.898" lon="6.13222">
        <ele>449</ele>
        <time>2013-08-17T08:44:44Z</time>
      </trkpt>
      <trkpt lat="45.89802" lon="6.13219">
        <ele>449</ele>
        <time>2013-08-17T08:44:46Z</time>
      </trkpt>
      <trkpt lat="45.89803" lon="6.13214">
        <ele>449</ele>
        <time>2013-08-17T08:44:47Z</time>
      </trkpt>
      <trkpt lat="45.89804" lon="6.13206">
        <ele>449.1</ele>
        <time>2013-08-17T08:44:48Z</time>
      </trkpt>
      <trkpt lat="45.89805" lon="6.13198">
        <ele>449.4</ele>
        <time>2013-08-17T08:44:49Z</time>
      </trkpt>
      <trkpt lat="45.89807" lon="6.1319">
        <ele>449.8</ele>
        <time>2013-08-17T08:44:50Z</time>
      </trkpt>
      <trkpt lat="45.89806" lon="6.13182">
        <ele>450.1</ele>
        <time>2013-08-17T08:44:51Z</time>
      </trkpt>
      <trkpt lat="45.89806" lon="6.13175">
        <ele>450.4</ele>
        <time>2013-08-17T08:44:52Z</time>
      </trkpt>
      <trkpt lat="45.89808" lon="6.13167">
        <ele>450.7</ele>
        <time>2013-08-17T08:44:53Z</time>
      </trkpt>
      <trkpt lat="45.89808" lon="6.13157">
        <ele>451.1</ele>
        <time>2013-08-17T08:44:54Z</time>
      </trkpt>
      <trkpt lat="45.89809" lon="6.13151">
        <ele>451.3</ele>
        <time>2013-08-17T08:44:55Z</time>
      </trkpt>
      <trkpt lat="45.89809" lon="6.13141">
        <ele>451.8</ele>
        <time>2013-08-17T08:44:56Z</time>
      </trkpt>
      <trkpt lat="45.89809" lon="6.13131">
        <ele>452.2</ele>
        <time>2013-08-17T08:44:57Z</time>
      </trkpt>
      <trkpt lat="45.89808" lon="6.13124">
        <ele>452.4</ele>
        <time>2013-08-17T08:44:58Z</time>
      </trkpt>
      <trkpt lat="45.89809" lon="6.13117">
        <ele>452.6</ele>
        <time>2013-08-17T08:44:59Z</time>
      </trkpt>
      <trkpt lat="45.898" lon="6.13111">
        <ele>453.2</ele>
        <time>2013-08-17T08:45:00Z</time>
      </trkpt>
      <trkpt lat="45.89792" lon="6.13104">
        <ele>453.8</ele>
        <time>2013-08-17T08:45:01Z</time>
      </trkpt>
      <trkpt lat="45.89792" lon="6.13097">
        <ele>454</ele>
        <time>2013-08-17T08:45:02Z</time>
      </trkpt>
      <trkpt lat="45.89792" lon="6.13093">
        <ele>454.2</ele>
        <time>2013-08-17T08:45:03Z</time>
      </trkpt>
      <trkpt lat="45.89791" lon="6.13087">
        <ele>454.4</ele>
        <time>2013-08-17T08:45:04Z</time>
      </trkpt>
      <trkpt lat="45.89791" lon="6.1308">
        <ele>454.6</ele>
        <time>2013-08-17T08:45:07Z</time>
      </trkpt>
      <trkpt lat="45.8979" lon="6.13076">
        <ele>454.8</ele>
        <time>2013-08-17T08:45:08Z</time>
      </trkpt>
      <trkpt lat="45.89788" lon="6.13071">
        <ele>455</ele>
        <time>2013-08-17T08:45:12Z</time>
      </trkpt>
      <trkpt lat="45.89785" lon="6.13037">
        <ele>456.3</ele>
        <time>2013-08-17T08:45:16Z</time>
      </trkpt>
      <trkpt lat="45.89786" lon="6.13033">
        <ele>456.4</ele>
        <time>2013-08-17T08:45:18Z</time>
      </trkpt>
      <trkpt lat="45.89786" lon="6.13029">
        <ele>456.6</ele>
        <time>2013-08-17T08:45:20Z</time>
      </trkpt>
      <trkpt lat="45.89787" lon="6.13021">
        <ele>456.8</ele>
        <time>2013-08-17T08:45:22Z</time>
      </trkpt>
      <trkpt lat="45.89787" lon="6.13013">
        <ele>457.1</ele>
        <time>2013-08-17T08:45:24Z</time>
      </trkpt>
      <trkpt lat="45.89788" lon="6.13009">
        <ele>457.3</ele>
        <time>2013-08-17T08:45:25Z</time>
      </trkpt>
      <trkpt lat="45.89788" lon="6.13005">
        <ele>457.5</ele>
        <time>2013-08-17T08:45:26Z</time>
      </trkpt>
      <trkpt lat="45.89789" lon="6.12997">
        <ele>457.7</ele>
        <time>2013-08-17T08:45:28Z</time>
      </trkpt>
      <trkpt lat="45.89789" lon="6.12992">
        <ele>457.9</ele>
        <time>2013-08-17T08:45:29Z</time>
      </trkpt>
      <trkpt lat="45.8979" lon="6.12986">
        <ele>458.1</ele>
        <time>2013-08-17T08:45:30Z</time>
      </trkpt>
      <trkpt lat="45.89791" lon="6.12977">
        <ele>458.4</ele>
        <time>2013-08-17T08:45:31Z</time>
      </trkpt>
      <trkpt lat="45.89792" lon="6.12972">
        <ele>458.5</ele>
        <time>2013-08-17T08:45:32Z</time>
      </trkpt>
      <trkpt lat="45.89792" lon="6.12966">
        <ele>458.7</ele>
        <time>2013-08-17T08:45:33Z</time>
      </trkpt>
      <trkpt lat="45.89793" lon="6.1296">
        <ele>458.8</ele>
        <time>2013-08-17T08:45:35Z</time>
      </trkpt>
      <trkpt lat="45.89794" lon="6.12954">
        <ele>458.7</ele>
        <time>2013-08-17T08:45:37Z</time>
      </trkpt>
      <trkpt lat="45.89795" lon="6.12948">
        <ele>458.7</ele>
        <time>2013-08-17T08:45:39Z</time>
      </trkpt>
      <trkpt lat="45.89797" lon="6.12942">
        <ele>458.5</ele>
        <time>2013-08-17T08:45:42Z</time>
      </trkpt>
      <trkpt lat="45.89801" lon="6.12933">
        <ele>458.1</ele>
        <time>2013-08-17T08:45:44Z</time>
      </trkpt>
      <trkpt lat="45.89804" lon="6.12929">
        <ele>457.9</ele>
        <time>2013-08-17T08:45:45Z</time>
      </trkpt>
      <trkpt lat="45.89808" lon="6.12926">
        <ele>457.6</ele>
        <time>2013-08-17T08:45:48Z</time>
      </trkpt>
      <trkpt lat="45.89811" lon="6.12923">
        <ele>457.3</ele>
        <time>2013-08-17T08:45:55Z</time>
      </trkpt>
      <trkpt lat="45.89823" lon="6.1292">
        <ele>456.1</ele>
        <time>2013-08-17T08:45:57Z</time>
      </trkpt>
      <trkpt lat="45.89827" lon="6.12919">
        <ele>455.8</ele>
        <time>2013-08-17T08:45:59Z</time>
      </trkpt>
      <trkpt lat="45.8983" lon="6.12919">
        <ele>455.5</ele>
        <time>2013-08-17T08:46:01Z</time>
      </trkpt>
      <trkpt lat="45.89834" lon="6.12918">
        <ele>455.2</ele>
        <time>2013-08-17T08:46:04Z</time>
      </trkpt>
      <trkpt lat="45.89837" lon="6.12918">
        <ele>454.9</ele>
        <time>2013-08-17T08:46:08Z</time>
      </trkpt>
      <trkpt lat="45.8984" lon="6.12918">
        <ele>454.7</ele>
        <time>2013-08-17T08:46:10Z</time>
      </trkpt>
      <trkpt lat="45.89843" lon="6.12917">
        <ele>454.4</ele>
        <time>2013-08-17T08:46:11Z</time>
      </trkpt>
      <trkpt lat="45.89847" lon="6.12915">
        <ele>454</ele>
        <time>2013-08-17T08:46:13Z</time>
      </trkpt>
      <trkpt lat="45.8985" lon="6.12912">
        <ele>453.8</ele>
        <time>2013-08-17T08:46:14Z</time>
      </trkpt>
      <trkpt lat="45.89853" lon="6.1291">
        <ele>453.5</ele>
        <time>2013-08-17T08:46:16Z</time>
      </trkpt>
      <trkpt lat="45.89853" lon="6.12906">
        <ele>453.6</ele>
        <time>2013-08-17T08:46:20Z</time>
      </trkpt>
      <trkpt lat="45.89871" lon="6.129">
        <ele>452.1</ele>
        <time>2013-08-17T08:46:23Z</time>
      </trkpt>
      <trkpt lat="45.89875" lon="6.12901">
        <ele>451.7</ele>
        <time>2013-08-17T08:46:24Z</time>
      </trkpt>
      <trkpt lat="45.8988" lon="6.129">
        <ele>451.7</ele>
        <time>2013-08-17T08:46:25Z</time>
      </trkpt>
      <trkpt lat="45.89886" lon="6.12898">
        <ele>451.8</ele>
        <time>2013-08-17T08:46:26Z</time>
      </trkpt>
      <trkpt lat="45.8989" lon="6.12896">
        <ele>451.9</ele>
        <time>2013-08-17T08:46:27Z</time>
      </trkpt>
      <trkpt lat="45.89895" lon="6.12894">
        <ele>452</ele>
        <time>2013-08-17T08:46:28Z</time>
      </trkpt>
      <trkpt lat="45.89899" lon="6.12892">
        <ele>452</ele>
        <time>2013-08-17T08:46:29Z</time>
      </trkpt>
      <trkpt lat="45.89903" lon="6.1289">
        <ele>452.1</ele>
        <time>2013-08-17T08:46:30Z</time>
      </trkpt>
      <trkpt lat="45.89906" lon="6.12888">
        <ele>452.2</ele>
        <time>2013-08-17T08:46:31Z</time>
      </trkpt>
      <trkpt lat="45.89909" lon="6.12886">
        <ele>452.2</ele>
        <time>2013-08-17T08:46:32Z</time>
      </trkpt>
      <trkpt lat="45.89913" lon="6.12885">
        <ele>452.3</ele>
        <time>2013-08-17T08:46:33Z</time>
      </trkpt>
      <trkpt lat="45.89916" lon="6.12883">
        <ele>452.4</ele>
        <time>2013-08-17T08:46:34Z</time>
      </trkpt>
      <trkpt lat="45.8992" lon="6.12881">
        <ele>452.4</ele>
        <time>2013-08-17T08:46:35Z</time>
      </trkpt>
      <trkpt lat="45.89928" lon="6.12876">
        <ele>452.6</ele>
        <time>2013-08-17T08:46:36Z</time>
      </trkpt>
      <trkpt lat="45.89932" lon="6.12875">
        <ele>452.7</ele>
        <time>2013-08-17T08:46:37Z</time>
      </trkpt>
      <trkpt lat="45.89934" lon="6.12873">
        <ele>452.8</ele>
        <time>2013-08-17T08:46:38Z</time>
      </trkpt>
      <trkpt lat="45.89939" lon="6.1287">
        <ele>452.9</ele>
        <time>2013-08-17T08:46:40Z</time>
      </trkpt>
      <trkpt lat="45.89942" lon="6.12869">
        <ele>453</ele>
        <time>2013-08-17T08:46:41Z</time>
      </trkpt>
      <trkpt lat="45.89949" lon="6.12864">
        <ele>453.3</ele>
        <time>2013-08-17T08:46:44Z</time>
      </trkpt>
      <trkpt lat="45.89954" lon="6.12861">
        <ele>453.4</ele>
        <time>2013-08-17T08:46:47Z</time>
      </trkpt>
      <trkpt lat="45.89971" lon="6.1285">
        <ele>454.3</ele>
        <time>2013-08-17T08:46:51Z</time>
      </trkpt>
      <trkpt lat="45.89975" lon="6.12853">
        <ele>454.2</ele>
        <time>2013-08-17T08:46:53Z</time>
      </trkpt>
      <trkpt lat="45.89978" lon="6.12851">
        <ele>454.4</ele>
        <time>2013-08-17T08:46:56Z</time>
      </trkpt>
      <trkpt lat="45.89982" lon="6.12849">
        <ele>454.6</ele>
        <time>2013-08-17T08:46:59Z</time>
      </trkpt>
      <trkpt lat="45.89986" lon="6.1285">
        <ele>454.7</ele>
        <time>2013-08-17T08:47:03Z</time>
      </trkpt>
      <trkpt lat="45.89992" lon="6.12834">
        <ele>455.5</ele>
        <time>2013-08-17T08:47:05Z</time>
      </trkpt>
      <trkpt lat="45.89987" lon="6.12845">
        <ele>454.9</ele>
        <time>2013-08-17T08:47:06Z</time>
      </trkpt>
      <trkpt lat="45.8999" lon="6.12843">
        <ele>455.1</ele>
        <time>2013-08-17T08:47:08Z</time>
      </trkpt>
      <trkpt lat="45.89995" lon="6.1284">
        <ele>455.3</ele>
        <time>2013-08-17T08:47:10Z</time>
      </trkpt>
      <trkpt lat="45.89998" lon="6.12838">
        <ele>455.5</ele>
        <time>2013-08-17T08:47:11Z</time>
      </trkpt>
      <trkpt lat="45.90002" lon="6.12835">
        <ele>455.7</ele>
        <time>2013-08-17T08:47:12Z</time>
      </trkpt>
      <trkpt lat="45.90005" lon="6.12833">
        <ele>455.9</ele>
        <time>2013-08-17T08:47:13Z</time>
      </trkpt>
      <trkpt lat="45.9001" lon="6.1283">
        <ele>456.2</ele>
        <time>2013-08-17T08:47:14Z</time>
      </trkpt>
      <trkpt lat="45.9003" lon="6.12815">
        <ele>457.5</ele>
        <time>2013-08-17T08:47:18Z</time>
      </trkpt>
      <trkpt lat="45.90035" lon="6.12811">
        <ele>457.8</ele>
        <time>2013-08-17T08:47:19Z</time>
      </trkpt>
      <trkpt lat="45.90039" lon="6.12808">
        <ele>458.2</ele>
        <time>2013-08-17T08:47:20Z</time>
      </trkpt>
      <trkpt lat="45.90053" lon="6.12797">
        <ele>458.1</ele>
        <time>2013-08-17T08:47:27Z</time>
      </trkpt>
      <trkpt lat="45.90058" lon="6.12794">
        <ele>457.9</ele>
        <time>2013-08-17T08:47:28Z</time>
      </trkpt>
      <trkpt lat="45.90063" lon="6.1279">
        <ele>457.7</ele>
        <time>2013-08-17T08:47:29Z</time>
      </trkpt>
      <trkpt lat="45.90067" lon="6.12787">
        <ele>457.4</ele>
        <time>2013-08-17T08:47:30Z</time>
      </trkpt>
      <trkpt lat="45.90071" lon="6.12783">
        <ele>457.2</ele>
        <time>2013-08-17T08:47:31Z</time>
      </trkpt>
      <trkpt lat="45.90075" lon="6.1278">
        <ele>456.9</ele>
        <time>2013-08-17T08:47:32Z</time>
      </trkpt>
      <trkpt lat="45.90078" lon="6.12778">
        <ele>456.8</ele>
        <time>2013-08-17T08:47:33Z</time>
      </trkpt>
      <trkpt lat="45.90081" lon="6.12775">
        <ele>456.6</ele>
        <time>2013-08-17T08:47:35Z</time>
      </trkpt>
      <trkpt lat="45.90084" lon="6.12773">
        <ele>456.5</ele>
        <time>2013-08-17T08:47:37Z</time>
      </trkpt>
      <trkpt lat="45.90087" lon="6.12771">
        <ele>456.3</ele>
        <time>2013-08-17T08:47:39Z</time>
      </trkpt>
      <trkpt lat="45.90089" lon="6.12768">
        <ele>456.2</ele>
        <time>2013-08-17T08:47:41Z</time>
      </trkpt>
      <trkpt lat="45.90121" lon="6.12779">
        <ele>454.5</ele>
        <time>2013-08-17T08:47:51Z</time>
      </trkpt>
      <trkpt lat="45.90115" lon="6.12789">
        <ele>454.6</ele>
        <time>2013-08-17T08:47:52Z</time>
      </trkpt>
      <trkpt lat="45.90108" lon="6.12803">
        <ele>454.8</ele>
        <time>2013-08-17T08:47:53Z</time>
      </trkpt>
      <trkpt lat="45.90109" lon="6.12803">
        <ele>454.7</ele>
        <time>2013-08-17T08:47:55Z</time>
      </trkpt>
      <trkpt lat="45.90109" lon="6.12799">
        <ele>454.8</ele>
        <time>2013-08-17T08:47:56Z</time>
      </trkpt>
      <trkpt lat="45.90114" lon="6.128">
        <ele>454.5</ele>
        <time>2013-08-17T08:47:58Z</time>
      </trkpt>
      <trkpt lat="45.90116" lon="6.12805">
        <ele>454.3</ele>
        <time>2013-08-17T08:47:59Z</time>
      </trkpt>
      <trkpt lat="45.90121" lon="6.12817">
        <ele>453.9</ele>
        <time>2013-08-17T08:48:00Z</time>
      </trkpt>
      <trkpt lat="45.90123" lon="6.12822">
        <ele>453.7</ele>
        <time>2013-08-17T08:48:01Z</time>
      </trkpt>
      <trkpt lat="45.90126" lon="6.12828">
        <ele>453.6</ele>
        <time>2013-08-17T08:48:02Z</time>
      </trkpt>
      <trkpt lat="45.90129" lon="6.12835">
        <ele>453.7</ele>
        <time>2013-08-17T08:48:03Z</time>
      </trkpt>
      <trkpt lat="45.90134" lon="6.12858">
        <ele>453.6</ele>
        <time>2013-08-17T08:48:04Z</time>
      </trkpt>
      <trkpt lat="45.90142" lon="6.12888">
        <ele>453.3</ele>
        <time>2013-08-17T08:48:05Z</time>
      </trkpt>
      <trkpt lat="45.90144" lon="6.12896">
        <ele>453.1</ele>
        <time>2013-08-17T08:48:06Z</time>
      </trkpt>
      <trkpt lat="45.90148" lon="6.1291">
        <ele>452.7</ele>
        <time>2013-08-17T08:48:07Z</time>
      </trkpt>
      <trkpt lat="45.90149" lon="6.12915">
        <ele>452.6</ele>
        <time>2013-08-17T08:48:08Z</time>
      </trkpt>
      <trkpt lat="45.90156" lon="6.12944">
        <ele>451.7</ele>
        <time>2013-08-17T08:48:10Z</time>
      </trkpt>
      <trkpt lat="45.90159" lon="6.12954">
        <ele>451.4</ele>
        <time>2013-08-17T08:48:11Z</time>
      </trkpt>
      <trkpt lat="45.90162" lon="6.12964">
        <ele>451.1</ele>
        <time>2013-08-17T08:48:12Z</time>
      </trkpt>
      <trkpt lat="45.90164" lon="6.12974">
        <ele>450.8</ele>
        <time>2013-08-17T08:48:13Z</time>
      </trkpt>
      <trkpt lat="45.90166" lon="6.12981">
        <ele>450.5</ele>
        <time>2013-08-17T08:48:14Z</time>
      </trkpt>
      <trkpt lat="45.90168" lon="6.12986">
        <ele>450.4</ele>
        <time>2013-08-17T08:48:15Z</time>
      </trkpt>
      <trkpt lat="45.90171" lon="6.12997">
        <ele>450</ele>
        <time>2013-08-17T08:48:16Z</time>
      </trkpt>
      <trkpt lat="45.90174" lon="6.13007">
        <ele>449.6</ele>
        <time>2013-08-17T08:48:17Z</time>
      </trkpt>
      <trkpt lat="45.90175" lon="6.13012">
        <ele>449.5</ele>
        <time>2013-08-17T08:48:18Z</time>
      </trkpt>
      <trkpt lat="45.90177" lon="6.1302">
        <ele>449.2</ele>
        <time>2013-08-17T08:48:19Z</time>
      </trkpt>
      <trkpt lat="45.90179" lon="6.13028">
        <ele>448.9</ele>
        <time>2013-08-17T08:48:20Z</time>
      </trkpt>
      <trkpt lat="45.90181" lon="6.13036">
        <ele>448.6</ele>
        <time>2013-08-17T08:48:21Z</time>
      </trkpt>
      <trkpt lat="45.90184" lon="6.13044">
        <ele>448.4</ele>
        <time>2013-08-17T08:48:22Z</time>
      </trkpt>
      <trkpt lat="45.90186" lon="6.13051">
        <ele>448.4</ele>
        <time>2013-08-17T08:48:23Z</time>
      </trkpt>
      <trkpt lat="45.90188" lon="6.13058">
        <ele>448.4</ele>
        <time>2013-08-17T08:48:24Z</time>
      </trkpt>
      <trkpt lat="45.9019" lon="6.13069">
        <ele>448.4</ele>
        <time>2013-08-17T08:48:25Z</time>
      </trkpt>
      <trkpt lat="45.90192" lon="6.13076">
        <ele>448.4</ele>
        <time>2013-08-17T08:48:26Z</time>
      </trkpt>
      <trkpt lat="45.90195" lon="6.13086">
        <ele>448.3</ele>
        <time>2013-08-17T08:48:27Z</time>
      </trkpt>
      <trkpt lat="45.90198" lon="6.13094">
        <ele>448.3</ele>
        <time>2013-08-17T08:48:28Z</time>
      </trkpt>
      <trkpt lat="45.902" lon="6.13103">
        <ele>448.2</ele>
        <time>2013-08-17T08:48:29Z</time>
      </trkpt>
      <trkpt lat="45.90202" lon="6.1311">
        <ele>448.2</ele>
        <time>2013-08-17T08:48:30Z</time>
      </trkpt>
      <trkpt lat="45.90204" lon="6.13118">
        <ele>448.1</ele>
        <time>2013-08-17T08:48:31Z</time>
      </trkpt>
      <trkpt lat="45.90206" lon="6.13126">
        <ele>448</ele>
        <time>2013-08-17T08:48:32Z</time>
      </trkpt>
      <trkpt lat="45.90208" lon="6.13133">
        <ele>448.4</ele>
        <time>2013-08-17T08:48:33Z</time>
      </trkpt>
      <trkpt lat="45.90208" lon="6.13137">
        <ele>448.6</ele>
        <time>2013-08-17T08:48:34Z</time>
      </trkpt>
      <trkpt lat="45.90214" lon="6.13159">
        <ele>449.8</ele>
        <time>2013-08-17T08:48:36Z</time>
      </trkpt>
      <trkpt lat="45.90215" lon="6.13163">
        <ele>450</ele>
        <time>2013-08-17T08:48:37Z</time>
      </trkpt>
      <trkpt lat="45.90217" lon="6.13168">
        <ele>450.2</ele>
        <time>2013-08-17T08:48:38Z</time>
      </trkpt>
      <trkpt lat="45.90221" lon="6.13177">
        <ele>450.7</ele>
        <time>2013-08-17T08:48:39Z</time>
      </trkpt>
      <trkpt lat="45.90222" lon="6.1319">
        <ele>451.4</ele>
        <time>2013-08-17T08:48:40Z</time>
      </trkpt>
      <trkpt lat="45.90222" lon="6.13197">
        <ele>451.7</ele>
        <time>2013-08-17T08:48:41Z</time>
      </trkpt>
      <trkpt lat="45.90225" lon="6.13205">
        <ele>452.1</ele>
        <time>2013-08-17T08:48:42Z</time>
      </trkpt>
      <trkpt lat="45.90228" lon="6.13212">
        <ele>452.3</ele>
        <time>2013-08-17T08:48:43Z</time>
      </trkpt>
      <trkpt lat="45.90229" lon="6.1322">
        <ele>452.5</ele>
        <time>2013-08-17T08:48:44Z</time>
      </trkpt>
      <trkpt lat="45.90232" lon="6.13229">
        <ele>452.7</ele>
        <time>2013-08-17T08:48:45Z</time>
      </trkpt>
      <trkpt lat="45.90234" lon="6.13236">
        <ele>452.9</ele>
        <time>2013-08-17T08:48:46Z</time>
      </trkpt>
      <trkpt lat="45.90237" lon="6.13243">
        <ele>453</ele>
        <time>2013-08-17T08:48:47Z</time>
      </trkpt>
      <trkpt lat="45.9024" lon="6.13251">
        <ele>453.3</ele>
        <time>2013-08-17T08:48:48Z</time>
      </trkpt>
      <trkpt lat="45.90243" lon="6.1326">
        <ele>453.6</ele>
        <time>2013-08-17T08:48:49Z</time>
      </trkpt>
      <trkpt lat="45.90246" lon="6.13268">
        <ele>453.8</ele>
        <time>2013-08-17T08:48:50Z</time>
      </trkpt>
      <trkpt lat="45.90247" lon="6.13275">
        <ele>454</ele>
        <time>2013-08-17T08:48:51Z</time>
      </trkpt>
      <trkpt lat="45.90249" lon="6.13284">
        <ele>454.3</ele>
        <time>2013-08-17T08:48:52Z</time>
      </trkpt>
      <trkpt lat="45.90251" lon="6.13291">
        <ele>454.5</ele>
        <time>2013-08-17T08:48:53Z</time>
      </trkpt>
      <trkpt lat="45.90253" lon="6.13299">
        <ele>454.5</ele>
        <time>2013-08-17T08:48:54Z</time>
      </trkpt>
      <trkpt lat="45.90255" lon="6.13308">
        <ele>454.4</ele>
        <time>2013-08-17T08:48:55Z</time>
      </trkpt>
      <trkpt lat="45.90256" lon="6.13313">
        <ele>454.4</ele>
        <time>2013-08-17T08:48:56Z</time>
      </trkpt>
      <trkpt lat="45.9026" lon="6.13321">
        <ele>454.4</ele>
        <time>2013-08-17T08:48:57Z</time>
      </trkpt>
      <trkpt lat="45.90263" lon="6.13327">
        <ele>454.4</ele>
        <time>2013-08-17T08:48:58Z</time>
      </trkpt>
      <trkpt lat="45.90266" lon="6.13334">
        <ele>454.4</ele>
        <time>2013-08-17T08:48:59Z</time>
      </trkpt>
      <trkpt lat="45.90265" lon="6.13345">
        <ele>454.2</ele>
        <time>2013-08-17T08:49:01Z</time>
      </trkpt>
      <trkpt lat="45.90267" lon="6.13351">
        <ele>454.2</ele>
        <time>2013-08-17T08:49:02Z</time>
      </trkpt>
      <trkpt lat="45.90269" lon="6.13356">
        <ele>454.2</ele>
        <time>2013-08-17T08:49:03Z</time>
      </trkpt>
      <trkpt lat="45.9027" lon="6.1336">
        <ele>454.2</ele>
        <time>2013-08-17T08:49:04Z</time>
      </trkpt>
      <trkpt lat="45.90269" lon="6.13365">
        <ele>454.1</ele>
        <time>2013-08-17T08:49:05Z</time>
      </trkpt>
      <trkpt lat="45.90271" lon="6.1337">
        <ele>454.1</ele>
        <time>2013-08-17T08:49:06Z</time>
      </trkpt>
      <trkpt lat="45.90273" lon="6.13382">
        <ele>454</ele>
        <time>2013-08-17T08:49:07Z</time>
      </trkpt>
      <trkpt lat="45.90276" lon="6.13389">
        <ele>454</ele>
        <time>2013-08-17T08:49:08Z</time>
      </trkpt>
      <trkpt lat="45.90278" lon="6.13396">
        <ele>454</ele>
        <time>2013-08-17T08:49:09Z</time>
      </trkpt>
      <trkpt lat="45.90281" lon="6.13405">
        <ele>454</ele>
        <time>2013-08-17T08:49:10Z</time>
      </trkpt>
      <trkpt lat="45.90284" lon="6.13414">
        <ele>454</ele>
        <time>2013-08-17T08:49:11Z</time>
      </trkpt>
      <trkpt lat="45.90287" lon="6.13419">
        <ele>454.1</ele>
        <time>2013-08-17T08:49:12Z</time>
      </trkpt>
      <trkpt lat="45.90289" lon="6.13421">
        <ele>454.3</ele>
        <time>2013-08-17T08:49:13Z</time>
      </trkpt>
      <trkpt lat="45.90291" lon="6.13425">
        <ele>454.3</ele>
        <time>2013-08-17T08:49:15Z</time>
      </trkpt>
      <trkpt lat="45.90292" lon="6.1343">
        <ele>454.3</ele>
        <time>2013-08-17T08:49:17Z</time>
      </trkpt>
      <trkpt lat="45.90293" lon="6.13435">
        <ele>454.3</ele>
        <time>2013-08-17T08:49:18Z</time>
      </trkpt>
      <trkpt lat="45.90295" lon="6.13441">
        <ele>454.3</ele>
        <time>2013-08-17T08:49:20Z</time>
      </trkpt>
      <trkpt lat="45.90296" lon="6.13445">
        <ele>454.2</ele>
        <time>2013-08-17T08:49:21Z</time>
      </trkpt>
      <trkpt lat="45.90297" lon="6.1345">
        <ele>454.2</ele>
        <time>2013-08-17T08:49:22Z</time>
      </trkpt>
      <trkpt lat="45.90298" lon="6.13456">
        <ele>454.2</ele>
        <time>2013-08-17T08:49:23Z</time>
      </trkpt>
      <trkpt lat="45.903" lon="6.13462">
        <ele>454.2</ele>
        <time>2013-08-17T08:49:24Z</time>
      </trkpt>
      <trkpt lat="45.90302" lon="6.13468">
        <ele>454.3</ele>
        <time>2013-08-17T08:49:25Z</time>
      </trkpt>
      <trkpt lat="45.90304" lon="6.13474">
        <ele>454.3</ele>
        <time>2013-08-17T08:49:26Z</time>
      </trkpt>
      <trkpt lat="45.90306" lon="6.13481">
        <ele>454.4</ele>
        <time>2013-08-17T08:49:27Z</time>
      </trkpt>
      <trkpt lat="45.90306" lon="6.13486">
        <ele>454.4</ele>
        <time>2013-08-17T08:49:28Z</time>
      </trkpt>
      <trkpt lat="45.90306" lon="6.1349">
        <ele>454.4</ele>
        <time>2013-08-17T08:49:29Z</time>
      </trkpt>
      <trkpt lat="45.90305" lon="6.13497">
        <ele>454.4</ele>
        <time>2013-08-17T08:49:31Z</time>
      </trkpt>
      <trkpt lat="45.90304" lon="6.13503">
        <ele>454.4</ele>
        <time>2013-08-17T08:49:32Z</time>
      </trkpt>
      <trkpt lat="45.90306" lon="6.13519">
        <ele>454.5</ele>
        <time>2013-08-17T08:49:34Z</time>
      </trkpt>
      <trkpt lat="45.90307" lon="6.13529">
        <ele>454.5</ele>
        <time>2013-08-17T08:49:35Z</time>
      </trkpt>
      <trkpt lat="45.90313" lon="6.13546">
        <ele>454.5</ele>
        <time>2013-08-17T08:49:36Z</time>
      </trkpt>
      <trkpt lat="45.9032" lon="6.13567">
        <ele>453.6</ele>
        <time>2013-08-17T08:49:37Z</time>
      </trkpt>
      <trkpt lat="45.9032" lon="6.13574">
        <ele>453.2</ele>
        <time>2013-08-17T08:49:38Z</time>
      </trkpt>
      <trkpt lat="45.90321" lon="6.13583">
        <ele>452.9</ele>
        <time>2013-08-17T08:49:39Z</time>
      </trkpt>
      <trkpt lat="45.90323" lon="6.13589">
        <ele>452.7</ele>
        <time>2013-08-17T08:49:40Z</time>
      </trkpt>
      <trkpt lat="45.90327" lon="6.13596">
        <ele>452.7</ele>
        <time>2013-08-17T08:49:41Z</time>
      </trkpt>
      <trkpt lat="45.90331" lon="6.13594">
        <ele>453.1</ele>
        <time>2013-08-17T08:49:43Z</time>
      </trkpt>
      <trkpt lat="45.90336" lon="6.13607">
        <ele>453</ele>
        <time>2013-08-17T08:49:44Z</time>
      </trkpt>
      <trkpt lat="45.90342" lon="6.13623">
        <ele>453.1</ele>
        <time>2013-08-17T08:49:45Z</time>
      </trkpt>
      <trkpt lat="45.90345" lon="6.13625">
        <ele>453.4</ele>
        <time>2013-08-17T08:49:46Z</time>
      </trkpt>
      <trkpt lat="45.90348" lon="6.13625">
        <ele>453.7</ele>
        <time>2013-08-17T08:49:48Z</time>
      </trkpt>
      <trkpt lat="45.90346" lon="6.13629">
        <ele>453.1</ele>
        <time>2013-08-17T08:49:57Z</time>
      </trkpt>
      <trkpt lat="45.90346" lon="6.13636">
        <ele>452.7</ele>
        <time>2013-08-17T08:49:59Z</time>
      </trkpt>
      <trkpt lat="45.90347" lon="6.13647">
        <ele>451.9</ele>
        <time>2013-08-17T08:50:01Z</time>
      </trkpt>
      <trkpt lat="45.90348" lon="6.13654">
        <ele>451.4</ele>
        <time>2013-08-17T08:50:02Z</time>
      </trkpt>
      <trkpt lat="45.90349" lon="6.13661">
        <ele>450.9</ele>
        <time>2013-08-17T08:50:03Z</time>
      </trkpt>
      <trkpt lat="45.90351" lon="6.13669">
        <ele>450.3</ele>
        <time>2013-08-17T08:50:04Z</time>
      </trkpt>
      <trkpt lat="45.90352" lon="6.13675">
        <ele>449.8</ele>
        <time>2013-08-17T08:50:05Z</time>
      </trkpt>
      <trkpt lat="45.90352" lon="6.13679">
        <ele>449.5</ele>
        <time>2013-08-17T08:50:06Z</time>
      </trkpt>
      <trkpt lat="45.90354" lon="6.13691">
        <ele>448.6</ele>
        <time>2013-08-17T08:50:07Z</time>
      </trkpt>
      <trkpt lat="45.90355" lon="6.13699">
        <ele>447.9</ele>
        <time>2013-08-17T08:50:08Z</time>
      </trkpt>
      <trkpt lat="45.90358" lon="6.13707">
        <ele>447.1</ele>
        <time>2013-08-17T08:50:09Z</time>
      </trkpt>
      <trkpt lat="45.90365" lon="6.13727">
        <ele>447</ele>
        <time>2013-08-17T08:50:10Z</time>
      </trkpt>
      <trkpt lat="45.90369" lon="6.13737">
        <ele>447</ele>
        <time>2013-08-17T08:50:11Z</time>
      </trkpt>
      <trkpt lat="45.90371" lon="6.13742">
        <ele>447</ele>
        <time>2013-08-17T08:50:12Z</time>
      </trkpt>
      <trkpt lat="45.90374" lon="6.13753">
        <ele>447</ele>
        <time>2013-08-17T08:50:14Z</time>
      </trkpt>
      <trkpt lat="45.90375" lon="6.13757">
        <ele>447.1</ele>
        <time>2013-08-17T08:50:15Z</time>
      </trkpt>
      <trkpt lat="45.90376" lon="6.13761">
        <ele>447.2</ele>
        <time>2013-08-17T08:50:16Z</time>
      </trkpt>
      <trkpt lat="45.90374" lon="6.13766">
        <ele>447</ele>
        <time>2013-08-17T08:50:18Z</time>
      </trkpt>
      <trkpt lat="45.90373" lon="6.13771">
        <ele>447</ele>
        <time>2013-08-17T08:50:19Z</time>
      </trkpt>
      <trkpt lat="45.90373" lon="6.13779">
        <ele>447</ele>
        <time>2013-08-17T08:50:20Z</time>
      </trkpt>
      <trkpt lat="45.90373" lon="6.13788">
        <ele>447</ele>
        <time>2013-08-17T08:50:21Z</time>
      </trkpt>
      <trkpt lat="45.90375" lon="6.13796">
        <ele>447</ele>
        <time>2013-08-17T08:50:22Z</time>
      </trkpt>
      <trkpt lat="45.90378" lon="6.13811">
        <ele>447.5</ele>
        <time>2013-08-17T08:50:23Z</time>
      </trkpt>
      <trkpt lat="45.90384" lon="6.1383">
        <ele>448.4</ele>
        <time>2013-08-17T08:50:24Z</time>
      </trkpt>
      <trkpt lat="45.90387" lon="6.13841">
        <ele>448.8</ele>
        <time>2013-08-17T08:50:25Z</time>
      </trkpt>
      <trkpt lat="45.9039" lon="6.13854">
        <ele>449.3</ele>
        <time>2013-08-17T08:50:26Z</time>
      </trkpt>
      <trkpt lat="45.90393" lon="6.13865">
        <ele>449.8</ele>
        <time>2013-08-17T08:50:27Z</time>
      </trkpt>
      <trkpt lat="45.90396" lon="6.13876">
        <ele>450.3</ele>
        <time>2013-08-17T08:50:28Z</time>
      </trkpt>
      <trkpt lat="45.90401" lon="6.13881">
        <ele>451</ele>
        <time>2013-08-17T08:50:30Z</time>
      </trkpt>
      <trkpt lat="45.90403" lon="6.13888">
        <ele>451.4</ele>
        <time>2013-08-17T08:50:31Z</time>
      </trkpt>
      <trkpt lat="45.90408" lon="6.13905">
        <ele>452.2</ele>
        <time>2013-08-17T08:50:32Z</time>
      </trkpt>
      <trkpt lat="45.90411" lon="6.13907">
        <ele>452.6</ele>
        <time>2013-08-17T08:50:33Z</time>
      </trkpt>
      <trkpt lat="45.90412" lon="6.13912">
        <ele>452.8</ele>
        <time>2013-08-17T08:50:37Z</time>
      </trkpt>
      <trkpt lat="45.90414" lon="6.13915">
        <ele>453</ele>
        <time>2013-08-17T08:50:38Z</time>
      </trkpt>
      <trkpt lat="45.90416" lon="6.1392">
        <ele>453.3</ele>
        <time>2013-08-17T08:50:40Z</time>
      </trkpt>
      <trkpt lat="45.90417" lon="6.13924">
        <ele>453.5</ele>
        <time>2013-08-17T08:50:41Z</time>
      </trkpt>
      <trkpt lat="45.90418" lon="6.13927">
        <ele>453.8</ele>
        <time>2013-08-17T08:50:42Z</time>
      </trkpt>
      <trkpt lat="45.9042" lon="6.13931">
        <ele>453.9</ele>
        <time>2013-08-17T08:50:43Z</time>
      </trkpt>
      <trkpt lat="45.90421" lon="6.13935">
        <ele>454.1</ele>
        <time>2013-08-17T08:50:44Z</time>
      </trkpt>
      <trkpt lat="45.90422" lon="6.13939">
        <ele>454.3</ele>
        <time>2013-08-17T08:50:45Z</time>
      </trkpt>
      <trkpt lat="45.90423" lon="6.13943">
        <ele>454.5</ele>
        <time>2013-08-17T08:50:46Z</time>
      </trkpt>
      <trkpt lat="45.90424" lon="6.13948">
        <ele>454.6</ele>
        <time>2013-08-17T08:50:47Z</time>
      </trkpt>
      <trkpt lat="45.90425" lon="6.13953">
        <ele>454.8</ele>
        <time>2013-08-17T08:50:48Z</time>
      </trkpt>
      <trkpt lat="45.90426" lon="6.1396">
        <ele>454.9</ele>
        <time>2013-08-17T08:50:49Z</time>
      </trkpt>
      <trkpt lat="45.90428" lon="6.13967">
        <ele>454.9</ele>
        <time>2013-08-17T08:50:50Z</time>
      </trkpt>
      <trkpt lat="45.90429" lon="6.13975">
        <ele>454.8</ele>
        <time>2013-08-17T08:50:51Z</time>
      </trkpt>
      <trkpt lat="45.90431" lon="6.13983">
        <ele>454.8</ele>
        <time>2013-08-17T08:50:52Z</time>
      </trkpt>
      <trkpt lat="45.90432" lon="6.13987">
        <ele>454.7</ele>
        <time>2013-08-17T08:50:53Z</time>
      </trkpt>
      <trkpt lat="45.90435" lon="6.13997">
        <ele>454.7</ele>
        <time>2013-08-17T08:50:54Z</time>
      </trkpt>
      <trkpt lat="45.90437" lon="6.14003">
        <ele>454.7</ele>
        <time>2013-08-17T08:50:55Z</time>
      </trkpt>
      <trkpt lat="45.90438" lon="6.14009">
        <ele>454.6</ele>
        <time>2013-08-17T08:50:56Z</time>
      </trkpt>
      <trkpt lat="45.90439" lon="6.14013">
        <ele>454.5</ele>
        <time>2013-08-17T08:50:57Z</time>
      </trkpt>
      <trkpt lat="45.90441" lon="6.14017">
        <ele>454.4</ele>
        <time>2013-08-17T08:50:58Z</time>
      </trkpt>
      <trkpt lat="45.90442" lon="6.14021">
        <ele>454.4</ele>
        <time>2013-08-17T08:50:59Z</time>
      </trkpt>
      <trkpt lat="45.90443" lon="6.14025">
        <ele>454.3</ele>
        <time>2013-08-17T08:51:00Z</time>
      </trkpt>
      <trkpt lat="45.90445" lon="6.1403">
        <ele>454.3</ele>
        <time>2013-08-17T08:51:01Z</time>
      </trkpt>
      <trkpt lat="45.90446" lon="6.14036">
        <ele>454.2</ele>
        <time>2013-08-17T08:51:02Z</time>
      </trkpt>
      <trkpt lat="45.90448" lon="6.14043">
        <ele>454</ele>
        <time>2013-08-17T08:51:03Z</time>
      </trkpt>
      <trkpt lat="45.90451" lon="6.14052">
        <ele>454</ele>
        <time>2013-08-17T08:51:04Z</time>
      </trkpt>
      <trkpt lat="45.90453" lon="6.14058">
        <ele>454</ele>
        <time>2013-08-17T08:51:05Z</time>
      </trkpt>
      <trkpt lat="45.90455" lon="6.14064">
        <ele>453.9</ele>
        <time>2013-08-17T08:51:06Z</time>
      </trkpt>
      <trkpt lat="45.9045" lon="6.14077">
        <ele>453.1</ele>
        <time>2013-08-17T08:51:07Z</time>
      </trkpt>
      <trkpt lat="45.90457" lon="6.14104">
        <ele>452.7</ele>
        <time>2013-08-17T08:51:08Z</time>
      </trkpt>
      <trkpt lat="45.9046" lon="6.14115">
        <ele>452.4</ele>
        <time>2013-08-17T08:51:09Z</time>
      </trkpt>
      <trkpt lat="45.90464" lon="6.14129">
        <ele>452</ele>
        <time>2013-08-17T08:51:10Z</time>
      </trkpt>
      <trkpt lat="45.90468" lon="6.14141">
        <ele>451.8</ele>
        <time>2013-08-17T08:51:11Z</time>
      </trkpt>
      <trkpt lat="45.90473" lon="6.14151">
        <ele>451.7</ele>
        <time>2013-08-17T08:51:12Z</time>
      </trkpt>
      <trkpt lat="45.90477" lon="6.1416">
        <ele>451.6</ele>
        <time>2013-08-17T08:51:13Z</time>
      </trkpt>
      <trkpt lat="45.90481" lon="6.14171">
        <ele>451.5</ele>
        <time>2013-08-17T08:51:14Z</time>
      </trkpt>
      <trkpt lat="45.90488" lon="6.14195">
        <ele>451.2</ele>
        <time>2013-08-17T08:51:17Z</time>
      </trkpt>
      <trkpt lat="45.90492" lon="6.14215">
        <ele>451</ele>
        <time>2013-08-17T08:51:22Z</time>
      </trkpt>
      <trkpt lat="45.90494" lon="6.14227">
        <ele>451.1</ele>
        <time>2013-08-17T08:51:23Z</time>
      </trkpt>
      <trkpt lat="45.905" lon="6.14238">
        <ele>451.2</ele>
        <time>2013-08-17T08:51:25Z</time>
      </trkpt>
      <trkpt lat="45.90503" lon="6.1425">
        <ele>451.2</ele>
        <time>2013-08-17T08:51:27Z</time>
      </trkpt>
      <trkpt lat="45.90505" lon="6.14257">
        <ele>451.3</ele>
        <time>2013-08-17T08:51:28Z</time>
      </trkpt>
      <trkpt lat="45.90506" lon="6.14266">
        <ele>451.3</ele>
        <time>2013-08-17T08:51:29Z</time>
      </trkpt>
      <trkpt lat="45.90506" lon="6.14271">
        <ele>451.3</ele>
        <time>2013-08-17T08:51:33Z</time>
      </trkpt>
      <trkpt lat="45.90507" lon="6.1428">
        <ele>451.4</ele>
        <time>2013-08-17T08:51:35Z</time>
      </trkpt>
      <trkpt lat="45.90509" lon="6.14287">
        <ele>451.4</ele>
        <time>2013-08-17T08:51:36Z</time>
      </trkpt>
      <trkpt lat="45.90509" lon="6.14292">
        <ele>451.4</ele>
        <time>2013-08-17T08:51:37Z</time>
      </trkpt>
      <trkpt lat="45.90508" lon="6.143">
        <ele>451.5</ele>
        <time>2013-08-17T08:51:38Z</time>
      </trkpt>
      <trkpt lat="45.90507" lon="6.14314">
        <ele>451.6</ele>
        <time>2013-08-17T08:51:39Z</time>
      </trkpt>
      <trkpt lat="45.90507" lon="6.14324">
        <ele>451.7</ele>
        <time>2013-08-17T08:51:40Z</time>
      </trkpt>
      <trkpt lat="45.90507" lon="6.14329">
        <ele>451.8</ele>
        <time>2013-08-17T08:51:41Z</time>
      </trkpt>
      <trkpt lat="45.90504" lon="6.14351">
        <ele>451.9</ele>
        <time>2013-08-17T08:51:43Z</time>
      </trkpt>
      <trkpt lat="45.90503" lon="6.1436">
        <ele>452</ele>
        <time>2013-08-17T08:51:44Z</time>
      </trkpt>
      <trkpt lat="45.90501" lon="6.14373">
        <ele>452</ele>
        <time>2013-08-17T08:51:45Z</time>
      </trkpt>
      <trkpt lat="45.90499" lon="6.14385">
        <ele>452</ele>
        <time>2013-08-17T08:51:46Z</time>
      </trkpt>
      <trkpt lat="45.90497" lon="6.14394">
        <ele>452.1</ele>
        <time>2013-08-17T08:51:47Z</time>
      </trkpt>
      <trkpt lat="45.90491" lon="6.14412">
        <ele>452.1</ele>
        <time>2013-08-17T08:51:48Z</time>
      </trkpt>
      <trkpt lat="45.90484" lon="6.14436">
        <ele>452.1</ele>
        <time>2013-08-17T08:51:49Z</time>
      </trkpt>
      <trkpt lat="45.90481" lon="6.14443">
        <ele>452.1</ele>
        <time>2013-08-17T08:51:50Z</time>
      </trkpt>
      <trkpt lat="45.9048" lon="6.14448">
        <ele>452.2</ele>
        <time>2013-08-17T08:51:51Z</time>
      </trkpt>
      <trkpt lat="45.90477" lon="6.14457">
        <ele>452.2</ele>
        <time>2013-08-17T08:51:52Z</time>
      </trkpt>
      <trkpt lat="45.90476" lon="6.14467">
        <ele>452.3</ele>
        <time>2013-08-17T08:51:54Z</time>
      </trkpt>
      <trkpt lat="45.90475" lon="6.14475">
        <ele>452.4</ele>
        <time>2013-08-17T08:51:55Z</time>
      </trkpt>
      <trkpt lat="45.90472" lon="6.14494">
        <ele>452.4</ele>
        <time>2013-08-17T08:51:56Z</time>
      </trkpt>
      <trkpt lat="45.90472" lon="6.14501">
        <ele>452.5</ele>
        <time>2013-08-17T08:51:57Z</time>
      </trkpt>
      <trkpt lat="45.90471" lon="6.14519">
        <ele>452.6</ele>
        <time>2013-08-17T08:51:58Z</time>
      </trkpt>
      <trkpt lat="45.90471" lon="6.14526">
        <ele>452.6</ele>
        <time>2013-08-17T08:52:00Z</time>
      </trkpt>
      <trkpt lat="45.90463" lon="6.1456">
        <ele>452.3</ele>
        <time>2013-08-17T08:52:02Z</time>
      </trkpt>
      <trkpt lat="45.90461" lon="6.14572">
        <ele>452.1</ele>
        <time>2013-08-17T08:52:03Z</time>
      </trkpt>
      <trkpt lat="45.90459" lon="6.1458">
        <ele>452</ele>
        <time>2013-08-17T08:52:04Z</time>
      </trkpt>
      <trkpt lat="45.90457" lon="6.1459">
        <ele>452</ele>
        <time>2013-08-17T08:52:05Z</time>
      </trkpt>
      <trkpt lat="45.90458" lon="6.14597">
        <ele>452</ele>
        <time>2013-08-17T08:52:06Z</time>
      </trkpt>
      <trkpt lat="45.9046" lon="6.14603">
        <ele>452.1</ele>
        <time>2013-08-17T08:52:07Z</time>
      </trkpt>
      <trkpt lat="45.90459" lon="6.14611">
        <ele>452</ele>
        <time>2013-08-17T08:52:08Z</time>
      </trkpt>
      <trkpt lat="45.90458" lon="6.14624">
        <ele>452</ele>
        <time>2013-08-17T08:52:09Z</time>
      </trkpt>
      <trkpt lat="45.90457" lon="6.14634">
        <ele>452</ele>
        <time>2013-08-17T08:52:10Z</time>
      </trkpt>
      <trkpt lat="45.90456" lon="6.14647">
        <ele>452</ele>
        <time>2013-08-17T08:52:11Z</time>
      </trkpt>
      <trkpt lat="45.90456" lon="6.1466">
        <ele>451.9</ele>
        <time>2013-08-17T08:52:12Z</time>
      </trkpt>
      <trkpt lat="45.90458" lon="6.1467">
        <ele>452</ele>
        <time>2013-08-17T08:52:13Z</time>
      </trkpt>
      <trkpt lat="45.90459" lon="6.1468">
        <ele>452.1</ele>
        <time>2013-08-17T08:52:14Z</time>
      </trkpt>
      <trkpt lat="45.90461" lon="6.14689">
        <ele>452.2</ele>
        <time>2013-08-17T08:52:15Z</time>
      </trkpt>
      <trkpt lat="45.90461" lon="6.14695">
        <ele>452.2</ele>
        <time>2013-08-17T08:52:18Z</time>
      </trkpt>
      <trkpt lat="45.90462" lon="6.14702">
        <ele>452.3</ele>
        <time>2013-08-17T08:52:19Z</time>
      </trkpt>
      <trkpt lat="45.90462" lon="6.14708">
        <ele>452.3</ele>
        <time>2013-08-17T08:52:20Z</time>
      </trkpt>
      <trkpt lat="45.90462" lon="6.14714">
        <ele>452.3</ele>
        <time>2013-08-17T08:52:21Z</time>
      </trkpt>
      <trkpt lat="45.90463" lon="6.14719">
        <ele>452.3</ele>
        <time>2013-08-17T08:52:23Z</time>
      </trkpt>
      <trkpt lat="45.90464" lon="6.14725">
        <ele>452.4</ele>
        <time>2013-08-17T08:52:24Z</time>
      </trkpt>
      <trkpt lat="45.90465" lon="6.14729">
        <ele>452.4</ele>
        <time>2013-08-17T08:52:25Z</time>
      </trkpt>
      <trkpt lat="45.90465" lon="6.14733">
        <ele>452.4</ele>
        <time>2013-08-17T08:52:26Z</time>
      </trkpt>
      <trkpt lat="45.90466" lon="6.14738">
        <ele>452.4</ele>
        <time>2013-08-17T08:52:27Z</time>
      </trkpt>
      <trkpt lat="45.90466" lon="6.14743">
        <ele>452.4</ele>
        <time>2013-08-17T08:52:28Z</time>
      </trkpt>
      <trkpt lat="45.90466" lon="6.14748">
        <ele>452.4</ele>
        <time>2013-08-17T08:52:29Z</time>
      </trkpt>
      <trkpt lat="45.90467" lon="6.14755">
        <ele>452.4</ele>
        <time>2013-08-17T08:52:30Z</time>
      </trkpt>
      <trkpt lat="45.90468" lon="6.14769">
        <ele>452.3</ele>
        <time>2013-08-17T08:52:31Z</time>
      </trkpt>
      <trkpt lat="45.9047" lon="6.14787">
        <ele>452.2</ele>
        <time>2013-08-17T08:52:32Z</time>
      </trkpt>
      <trkpt lat="45.90471" lon="6.14795">
        <ele>452.1</ele>
        <time>2013-08-17T08:52:33Z</time>
      </trkpt>
      <trkpt lat="45.90473" lon="6.14805">
        <ele>452</ele>
        <time>2013-08-17T08:52:34Z</time>
      </trkpt>
      <trkpt lat="45.90474" lon="6.14812">
        <ele>451.9</ele>
        <time>2013-08-17T08:52:35Z</time>
      </trkpt>
      <trkpt lat="45.90475" lon="6.14817">
        <ele>451.8</ele>
        <time>2013-08-17T08:52:36Z</time>
      </trkpt>
      <trkpt lat="45.90478" lon="6.14823">
        <ele>451.7</ele>
        <time>2013-08-17T08:52:37Z</time>
      </trkpt>
      <trkpt lat="45.90479" lon="6.14832">
        <ele>451.5</ele>
        <time>2013-08-17T08:52:38Z</time>
      </trkpt>
      <trkpt lat="45.9048" lon="6.14843">
        <ele>451.3</ele>
        <time>2013-08-17T08:52:39Z</time>
      </trkpt>
      <trkpt lat="45.90481" lon="6.1485">
        <ele>451.2</ele>
        <time>2013-08-17T08:52:40Z</time>
      </trkpt>
      <trkpt lat="45.90481" lon="6.14855">
        <ele>451.1</ele>
        <time>2013-08-17T08:52:41Z</time>
      </trkpt>
      <trkpt lat="45.90482" lon="6.14861">
        <ele>451</ele>
        <time>2013-08-17T08:52:42Z</time>
      </trkpt>
      <trkpt lat="45.90482" lon="6.14867">
        <ele>450.9</ele>
        <time>2013-08-17T08:52:43Z</time>
      </trkpt>
      <trkpt lat="45.90482" lon="6.14873">
        <ele>450.7</ele>
        <time>2013-08-17T08:52:45Z</time>
      </trkpt>
      <trkpt lat="45.90482" lon="6.14886">
        <ele>450.8</ele>
        <time>2013-08-17T08:52:47Z</time>
      </trkpt>
      <trkpt lat="45.90483" lon="6.14891">
        <ele>450.8</ele>
        <time>2013-08-17T08:52:48Z</time>
      </trkpt>
      <trkpt lat="45.90483" lon="6.14895">
        <ele>450.8</ele>
        <time>2013-08-17T08:52:49Z</time>
      </trkpt>
      <trkpt lat="45.90483" lon="6.14899">
        <ele>450.8</ele>
        <time>2013-08-17T08:52:50Z</time>
      </trkpt>
      <trkpt lat="45.90483" lon="6.14903">
        <ele>450.8</ele>
        <time>2013-08-17T08:52:51Z</time>
      </trkpt>
      <trkpt lat="45.90484" lon="6.14913">
        <ele>450.8</ele>
        <time>2013-08-17T08:52:53Z</time>
      </trkpt>
      <trkpt lat="45.90484" lon="6.1492">
        <ele>450.9</ele>
        <time>2013-08-17T08:52:54Z</time>
      </trkpt>
      <trkpt lat="45.90485" lon="6.14926">
        <ele>450.9</ele>
        <time>2013-08-17T08:52:55Z</time>
      </trkpt>
      <trkpt lat="45.90486" lon="6.14932">
        <ele>450.9</ele>
        <time>2013-08-17T08:52:56Z</time>
      </trkpt>
      <trkpt lat="45.90486" lon="6.14938">
        <ele>450.9</ele>
        <time>2013-08-17T08:52:57Z</time>
      </trkpt>
      <trkpt lat="45.90487" lon="6.14945">
        <ele>450.9</ele>
        <time>2013-08-17T08:52:58Z</time>
      </trkpt>
      <trkpt lat="45.90491" lon="6.1497">
        <ele>451.1</ele>
        <time>2013-08-17T08:53:01Z</time>
      </trkpt>
      <trkpt lat="45.90494" lon="6.14978">
        <ele>451.2</ele>
        <time>2013-08-17T08:53:02Z</time>
      </trkpt>
      <trkpt lat="45.90496" lon="6.14983">
        <ele>451.2</ele>
        <time>2013-08-17T08:53:03Z</time>
      </trkpt>
      <trkpt lat="45.90499" lon="6.1499">
        <ele>451.2</ele>
        <time>2013-08-17T08:53:04Z</time>
      </trkpt>
      <trkpt lat="45.90502" lon="6.14999">
        <ele>451.2</ele>
        <time>2013-08-17T08:53:06Z</time>
      </trkpt>
      <trkpt lat="45.90502" lon="6.15004">
        <ele>451.2</ele>
        <time>2013-08-17T08:53:07Z</time>
      </trkpt>
      <trkpt lat="45.90505" lon="6.15017">
        <ele>451.2</ele>
        <time>2013-08-17T08:53:09Z</time>
      </trkpt>
      <trkpt lat="45.90506" lon="6.15024">
        <ele>451.2</ele>
        <time>2013-08-17T08:53:10Z</time>
      </trkpt>
      <trkpt lat="45.90507" lon="6.15031">
        <ele>451.2</ele>
        <time>2013-08-17T08:53:11Z</time>
      </trkpt>
      <trkpt lat="45.90509" lon="6.15048">
        <ele>450.9</ele>
        <time>2013-08-17T08:53:13Z</time>
      </trkpt>
      <trkpt lat="45.90511" lon="6.15059">
        <ele>450.5</ele>
        <time>2013-08-17T08:53:15Z</time>
      </trkpt>
      <trkpt lat="45.90514" lon="6.15071">
        <ele>450.1</ele>
        <time>2013-08-17T08:53:16Z</time>
      </trkpt>
      <trkpt lat="45.90515" lon="6.1508">
        <ele>449.8</ele>
        <time>2013-08-17T08:53:17Z</time>
      </trkpt>
      <trkpt lat="45.90516" lon="6.15085">
        <ele>449.6</ele>
        <time>2013-08-17T08:53:18Z</time>
      </trkpt>
      <trkpt lat="45.90517" lon="6.15096">
        <ele>449.3</ele>
        <time>2013-08-17T08:53:19Z</time>
      </trkpt>
      <trkpt lat="45.90517" lon="6.15103">
        <ele>449.1</ele>
        <time>2013-08-17T08:53:20Z</time>
      </trkpt>
      <trkpt lat="45.90516" lon="6.15109">
        <ele>448.9</ele>
        <time>2013-08-17T08:53:21Z</time>
      </trkpt>
      <trkpt lat="45.90516" lon="6.15114">
        <ele>448.7</ele>
        <time>2013-08-17T08:53:22Z</time>
      </trkpt>
      <trkpt lat="45.90516" lon="6.15121">
        <ele>448.5</ele>
        <time>2013-08-17T08:53:23Z</time>
      </trkpt>
      <trkpt lat="45.90517" lon="6.15128">
        <ele>448.4</ele>
        <time>2013-08-17T08:53:24Z</time>
      </trkpt>
      <trkpt lat="45.90518" lon="6.15136">
        <ele>448.3</ele>
        <time>2013-08-17T08:53:25Z</time>
      </trkpt>
      <trkpt lat="45.90521" lon="6.1515">
        <ele>448.3</ele>
        <time>2013-08-17T08:53:26Z</time>
      </trkpt>
      <trkpt lat="45.90525" lon="6.15169">
        <ele>448.2</ele>
        <time>2013-08-17T08:53:27Z</time>
      </trkpt>
      <trkpt lat="45.90528" lon="6.15179">
        <ele>448.1</ele>
        <time>2013-08-17T08:53:28Z</time>
      </trkpt>
      <trkpt lat="45.9053" lon="6.15187">
        <ele>448.1</ele>
        <time>2013-08-17T08:53:29Z</time>
      </trkpt>
      <trkpt lat="45.90532" lon="6.15196">
        <ele>448</ele>
        <time>2013-08-17T08:53:30Z</time>
      </trkpt>
      <trkpt lat="45.90534" lon="6.15206">
        <ele>447.9</ele>
        <time>2013-08-17T08:53:31Z</time>
      </trkpt>
      <trkpt lat="45.90537" lon="6.15217">
        <ele>448.1</ele>
        <time>2013-08-17T08:53:32Z</time>
      </trkpt>
      <trkpt lat="45.90537" lon="6.15226">
        <ele>448.2</ele>
        <time>2013-08-17T08:53:33Z</time>
      </trkpt>
      <trkpt lat="45.90538" lon="6.15233">
        <ele>448.3</ele>
        <time>2013-08-17T08:53:34Z</time>
      </trkpt>
      <trkpt lat="45.90539" lon="6.15239">
        <ele>448.4</ele>
        <time>2013-08-17T08:53:35Z</time>
      </trkpt>
      <trkpt lat="45.90541" lon="6.15247">
        <ele>448.5</ele>
        <time>2013-08-17T08:53:36Z</time>
      </trkpt>
      <trkpt lat="45.90541" lon="6.15253">
        <ele>448.5</ele>
        <time>2013-08-17T08:53:37Z</time>
      </trkpt>
      <trkpt lat="45.90543" lon="6.15262">
        <ele>448.7</ele>
        <time>2013-08-17T08:53:39Z</time>
      </trkpt>
      <trkpt lat="45.90545" lon="6.15268">
        <ele>448.8</ele>
        <time>2013-08-17T08:53:40Z</time>
      </trkpt>
      <trkpt lat="45.90545" lon="6.15273">
        <ele>448.8</ele>
        <time>2013-08-17T08:53:41Z</time>
      </trkpt>
      <trkpt lat="45.90548" lon="6.15279">
        <ele>448.9</ele>
        <time>2013-08-17T08:53:42Z</time>
      </trkpt>
      <trkpt lat="45.90548" lon="6.15284">
        <ele>449</ele>
        <time>2013-08-17T08:53:43Z</time>
      </trkpt>
      <trkpt lat="45.9055" lon="6.1529">
        <ele>449.1</ele>
        <time>2013-08-17T08:53:44Z</time>
      </trkpt>
      <trkpt lat="45.9055" lon="6.15295">
        <ele>449</ele>
        <time>2013-08-17T08:53:45Z</time>
      </trkpt>
      <trkpt lat="45.90551" lon="6.15299">
        <ele>449</ele>
        <time>2013-08-17T08:53:46Z</time>
      </trkpt>
      <trkpt lat="45.90551" lon="6.15304">
        <ele>448.9</ele>
        <time>2013-08-17T08:53:47Z</time>
      </trkpt>
      <trkpt lat="45.90552" lon="6.15309">
        <ele>448.8</ele>
        <time>2013-08-17T08:53:48Z</time>
      </trkpt>
      <trkpt lat="45.90553" lon="6.15316">
        <ele>448.7</ele>
        <time>2013-08-17T08:53:49Z</time>
      </trkpt>
      <trkpt lat="45.90554" lon="6.15321">
        <ele>448.6</ele>
        <time>2013-08-17T08:53:50Z</time>
      </trkpt>
      <trkpt lat="45.90554" lon="6.15327">
        <ele>448.5</ele>
        <time>2013-08-17T08:53:51Z</time>
      </trkpt>
      <trkpt lat="45.90555" lon="6.15332">
        <ele>448.4</ele>
        <time>2013-08-17T08:53:52Z</time>
      </trkpt>
      <trkpt lat="45.90556" lon="6.15337">
        <ele>448.4</ele>
        <time>2013-08-17T08:53:53Z</time>
      </trkpt>
      <trkpt lat="45.90557" lon="6.15344">
        <ele>448.3</ele>
        <time>2013-08-17T08:53:55Z</time>
      </trkpt>
      <trkpt lat="45.90558" lon="6.15351">
        <ele>448.2</ele>
        <time>2013-08-17T08:53:57Z</time>
      </trkpt>
      <trkpt lat="45.90559" lon="6.15357">
        <ele>448.2</ele>
        <time>2013-08-17T08:53:58Z</time>
      </trkpt>
      <trkpt lat="45.9056" lon="6.15364">
        <ele>448.1</ele>
        <time>2013-08-17T08:53:59Z</time>
      </trkpt>
      <trkpt lat="45.90561" lon="6.15371">
        <ele>448</ele>
        <time>2013-08-17T08:54:00Z</time>
      </trkpt>
      <trkpt lat="45.90565" lon="6.15395">
        <ele>448.4</ele>
        <time>2013-08-17T08:54:05Z</time>
      </trkpt>
      <trkpt lat="45.90566" lon="6.154">
        <ele>448.5</ele>
        <time>2013-08-17T08:54:06Z</time>
      </trkpt>
      <trkpt lat="45.90566" lon="6.15404">
        <ele>448.6</ele>
        <time>2013-08-17T08:54:07Z</time>
      </trkpt>
      <trkpt lat="45.90566" lon="6.15409">
        <ele>448.6</ele>
        <time>2013-08-17T08:54:08Z</time>
      </trkpt>
      <trkpt lat="45.90567" lon="6.15414">
        <ele>448.7</ele>
        <time>2013-08-17T08:54:09Z</time>
      </trkpt>
      <trkpt lat="45.90567" lon="6.1542">
        <ele>448.8</ele>
        <time>2013-08-17T08:54:10Z</time>
      </trkpt>
      <trkpt lat="45.90568" lon="6.15425">
        <ele>448.9</ele>
        <time>2013-08-17T08:54:11Z</time>
      </trkpt>
      <trkpt lat="45.9057" lon="6.1543">
        <ele>449</ele>
        <time>2013-08-17T08:54:12Z</time>
      </trkpt>
      <trkpt lat="45.90571" lon="6.15436">
        <ele>449.1</ele>
        <time>2013-08-17T08:54:13Z</time>
      </trkpt>
      <trkpt lat="45.90572" lon="6.15441">
        <ele>449.2</ele>
        <time>2013-08-17T08:54:14Z</time>
      </trkpt>
      <trkpt lat="45.90572" lon="6.15446">
        <ele>449.2</ele>
        <time>2013-08-17T08:54:15Z</time>
      </trkpt>
      <trkpt lat="45.90573" lon="6.1545">
        <ele>449.3</ele>
        <time>2013-08-17T08:54:16Z</time>
      </trkpt>
      <trkpt lat="45.90573" lon="6.15456">
        <ele>449.4</ele>
        <time>2013-08-17T08:54:17Z</time>
      </trkpt>
      <trkpt lat="45.90574" lon="6.1546">
        <ele>449.4</ele>
        <time>2013-08-17T08:54:18Z</time>
      </trkpt>
      <trkpt lat="45.90574" lon="6.15465">
        <ele>449.3</ele>
        <time>2013-08-17T08:54:19Z</time>
      </trkpt>
      <trkpt lat="45.90575" lon="6.1547">
        <ele>449.2</ele>
        <time>2013-08-17T08:54:20Z</time>
      </trkpt>
      <trkpt lat="45.90576" lon="6.15474">
        <ele>449.2</ele>
        <time>2013-08-17T08:54:21Z</time>
      </trkpt>
      <trkpt lat="45.90577" lon="6.15479">
        <ele>449.1</ele>
        <time>2013-08-17T08:54:22Z</time>
      </trkpt>
      <trkpt lat="45.90578" lon="6.15484">
        <ele>449.1</ele>
        <time>2013-08-17T08:54:23Z</time>
      </trkpt>
      <trkpt lat="45.90579" lon="6.15496">
        <ele>448.9</ele>
        <time>2013-08-17T08:54:25Z</time>
      </trkpt>
      <trkpt lat="45.90578" lon="6.15502">
        <ele>448.8</ele>
        <time>2013-08-17T08:54:26Z</time>
      </trkpt>
      <trkpt lat="45.90577" lon="6.15509">
        <ele>448.7</ele>
        <time>2013-08-17T08:54:27Z</time>
      </trkpt>
      <trkpt lat="45.90577" lon="6.15515">
        <ele>448.6</ele>
        <time>2013-08-17T08:54:28Z</time>
      </trkpt>
      <trkpt lat="45.90581" lon="6.15525">
        <ele>448.6</ele>
        <time>2013-08-17T08:54:29Z</time>
      </trkpt>
      <trkpt lat="45.90581" lon="6.15533">
        <ele>448.5</ele>
        <time>2013-08-17T08:54:31Z</time>
      </trkpt>
      <trkpt lat="45.90581" lon="6.15538">
        <ele>448.5</ele>
        <time>2013-08-17T08:54:32Z</time>
      </trkpt>
      <trkpt lat="45.90582" lon="6.15544">
        <ele>448.5</ele>
        <time>2013-08-17T08:54:33Z</time>
      </trkpt>
      <trkpt lat="45.90584" lon="6.1555">
        <ele>448.5</ele>
        <time>2013-08-17T08:54:34Z</time>
      </trkpt>
      <trkpt lat="45.90585" lon="6.15556">
        <ele>448.5</ele>
        <time>2013-08-17T08:54:35Z</time>
      </trkpt>
      <trkpt lat="45.90586" lon="6.15562">
        <ele>448.5</ele>
        <time>2013-08-17T08:54:36Z</time>
      </trkpt>
      <trkpt lat="45.90589" lon="6.15574">
        <ele>448.5</ele>
        <time>2013-08-17T08:54:37Z</time>
      </trkpt>
      <trkpt lat="45.9059" lon="6.15583">
        <ele>448.5</ele>
        <time>2013-08-17T08:54:38Z</time>
      </trkpt>
      <trkpt lat="45.90591" lon="6.15589">
        <ele>448.5</ele>
        <time>2013-08-17T08:54:39Z</time>
      </trkpt>
      <trkpt lat="45.9059" lon="6.15602">
        <ele>448.3</ele>
        <time>2013-08-17T08:54:40Z</time>
      </trkpt>
      <trkpt lat="45.90589" lon="6.15635">
        <ele>448.1</ele>
        <time>2013-08-17T08:54:44Z</time>
      </trkpt>
      <trkpt lat="45.90587" lon="6.15644">
        <ele>448.1</ele>
        <time>2013-08-17T08:54:45Z</time>
      </trkpt>
      <trkpt lat="45.90586" lon="6.15651">
        <ele>448.1</ele>
        <time>2013-08-17T08:54:46Z</time>
      </trkpt>
      <trkpt lat="45.90585" lon="6.15657">
        <ele>448</ele>
        <time>2013-08-17T08:54:47Z</time>
      </trkpt>
      <trkpt lat="45.90584" lon="6.15666">
        <ele>448</ele>
        <time>2013-08-17T08:54:48Z</time>
      </trkpt>
      <trkpt lat="45.90583" lon="6.15673">
        <ele>448</ele>
        <time>2013-08-17T08:54:49Z</time>
      </trkpt>
      <trkpt lat="45.90582" lon="6.15682">
        <ele>448</ele>
        <time>2013-08-17T08:54:50Z</time>
      </trkpt>
      <trkpt lat="45.9058" lon="6.15689">
        <ele>447.9</ele>
        <time>2013-08-17T08:54:51Z</time>
      </trkpt>
      <trkpt lat="45.90579" lon="6.15697">
        <ele>447.9</ele>
        <time>2013-08-17T08:54:52Z</time>
      </trkpt>
      <trkpt lat="45.90577" lon="6.15705">
        <ele>447.9</ele>
        <time>2013-08-17T08:54:53Z</time>
      </trkpt>
      <trkpt lat="45.90576" lon="6.1571">
        <ele>447.8</ele>
        <time>2013-08-17T08:54:54Z</time>
      </trkpt>
      <trkpt lat="45.90574" lon="6.15719">
        <ele>447.8</ele>
        <time>2013-08-17T08:54:55Z</time>
      </trkpt>
      <trkpt lat="45.90572" lon="6.15727">
        <ele>447.7</ele>
        <time>2013-08-17T08:54:56Z</time>
      </trkpt>
      <trkpt lat="45.9057" lon="6.15736">
        <ele>447.7</ele>
        <time>2013-08-17T08:54:57Z</time>
      </trkpt>
      <trkpt lat="45.90568" lon="6.15745">
        <ele>447.6</ele>
        <time>2013-08-17T08:54:58Z</time>
      </trkpt>
      <trkpt lat="45.90567" lon="6.1575">
        <ele>447.6</ele>
        <time>2013-08-17T08:54:59Z</time>
      </trkpt>
      <trkpt lat="45.90565" lon="6.15757">
        <ele>447.6</ele>
        <time>2013-08-17T08:55:00Z</time>
      </trkpt>
      <trkpt lat="45.90563" lon="6.15765">
        <ele>447.5</ele>
        <time>2013-08-17T08:55:01Z</time>
      </trkpt>
      <trkpt lat="45.90561" lon="6.15772">
        <ele>447.5</ele>
        <time>2013-08-17T08:55:02Z</time>
      </trkpt>
      <trkpt lat="45.90558" lon="6.1578">
        <ele>447.4</ele>
        <time>2013-08-17T08:55:03Z</time>
      </trkpt>
      <trkpt lat="45.90556" lon="6.15789">
        <ele>447.3</ele>
        <time>2013-08-17T08:55:04Z</time>
      </trkpt>
      <trkpt lat="45.90553" lon="6.15797">
        <ele>447.4</ele>
        <time>2013-08-17T08:55:05Z</time>
      </trkpt>
      <trkpt lat="45.90552" lon="6.15802">
        <ele>447.5</ele>
        <time>2013-08-17T08:55:06Z</time>
      </trkpt>
      <trkpt lat="45.90551" lon="6.15806">
        <ele>447.6</ele>
        <time>2013-08-17T08:55:07Z</time>
      </trkpt>
      <trkpt lat="45.90549" lon="6.15813">
        <ele>447.7</ele>
        <time>2013-08-17T08:55:09Z</time>
      </trkpt>
      <trkpt lat="45.90543" lon="6.15824">
        <ele>447.8</ele>
        <time>2013-08-17T08:55:10Z</time>
      </trkpt>
      <trkpt lat="45.90532" lon="6.15848">
        <ele>448.2</ele>
        <time>2013-08-17T08:55:15Z</time>
      </trkpt>
      <trkpt lat="45.90526" lon="6.15854">
        <ele>448.2</ele>
        <time>2013-08-17T08:55:16Z</time>
      </trkpt>
      <trkpt lat="45.90523" lon="6.15857">
        <ele>448.2</ele>
        <time>2013-08-17T08:55:18Z</time>
      </trkpt>
      <trkpt lat="45.90521" lon="6.1586">
        <ele>448.2</ele>
        <time>2013-08-17T08:55:19Z</time>
      </trkpt>
      <trkpt lat="45.90518" lon="6.15865">
        <ele>448.2</ele>
        <time>2013-08-17T08:55:20Z</time>
      </trkpt>
      <trkpt lat="45.90514" lon="6.15869">
        <ele>448.3</ele>
        <time>2013-08-17T08:55:21Z</time>
      </trkpt>
      <trkpt lat="45.90498" lon="6.15891">
        <ele>448.2</ele>
        <time>2013-08-17T08:55:25Z</time>
      </trkpt>
      <trkpt lat="45.90493" lon="6.15897">
        <ele>448.2</ele>
        <time>2013-08-17T08:55:26Z</time>
      </trkpt>
      <trkpt lat="45.90488" lon="6.15903">
        <ele>448.2</ele>
        <time>2013-08-17T08:55:27Z</time>
      </trkpt>
      <trkpt lat="45.90484" lon="6.15908">
        <ele>448.1</ele>
        <time>2013-08-17T08:55:28Z</time>
      </trkpt>
      <trkpt lat="45.9048" lon="6.15913">
        <ele>448.1</ele>
        <time>2013-08-17T08:55:29Z</time>
      </trkpt>
      <trkpt lat="45.90476" lon="6.15918">
        <ele>448</ele>
        <time>2013-08-17T08:55:30Z</time>
      </trkpt>
      <trkpt lat="45.90472" lon="6.15922">
        <ele>448</ele>
        <time>2013-08-17T08:55:31Z</time>
      </trkpt>
      <trkpt lat="45.90468" lon="6.15926">
        <ele>447.9</ele>
        <time>2013-08-17T08:55:32Z</time>
      </trkpt>
      <trkpt lat="45.90463" lon="6.15931">
        <ele>447.8</ele>
        <time>2013-08-17T08:55:33Z</time>
      </trkpt>
      <trkpt lat="45.90457" lon="6.15937">
        <ele>447.7</ele>
        <time>2013-08-17T08:55:34Z</time>
      </trkpt>
      <trkpt lat="45.90468" lon="6.15929">
        <ele>448</ele>
        <time>2013-08-17T08:55:35Z</time>
      </trkpt>
      <trkpt lat="45.90462" lon="6.15932">
        <ele>447.8</ele>
        <time>2013-08-17T08:55:36Z</time>
      </trkpt>
      <trkpt lat="45.90457" lon="6.15936">
        <ele>447.7</ele>
        <time>2013-08-17T08:55:37Z</time>
      </trkpt>
      <trkpt lat="45.90451" lon="6.15942">
        <ele>447.7</ele>
        <time>2013-08-17T08:55:38Z</time>
      </trkpt>
      <trkpt lat="45.90445" lon="6.15947">
        <ele>447.7</ele>
        <time>2013-08-17T08:55:39Z</time>
      </trkpt>
      <trkpt lat="45.90426" lon="6.15959">
        <ele>447.6</ele>
        <time>2013-08-17T08:55:41Z</time>
      </trkpt>
      <trkpt lat="45.90421" lon="6.15962">
        <ele>447.7</ele>
        <time>2013-08-17T08:55:42Z</time>
      </trkpt>
      <trkpt lat="45.90416" lon="6.15965">
        <ele>447.9</ele>
        <time>2013-08-17T08:55:43Z</time>
      </trkpt>
      <trkpt lat="45.90408" lon="6.15968">
        <ele>448</ele>
        <time>2013-08-17T08:55:44Z</time>
      </trkpt>
      <trkpt lat="45.90403" lon="6.15971">
        <ele>448.1</ele>
        <time>2013-08-17T08:55:45Z</time>
      </trkpt>
      <trkpt lat="45.90399" lon="6.15974">
        <ele>448.2</ele>
        <time>2013-08-17T08:55:46Z</time>
      </trkpt>
      <trkpt lat="45.90395" lon="6.15976">
        <ele>448.3</ele>
        <time>2013-08-17T08:55:47Z</time>
      </trkpt>
      <trkpt lat="45.90388" lon="6.15979">
        <ele>448.4</ele>
        <time>2013-08-17T08:55:48Z</time>
      </trkpt>
      <trkpt lat="45.90385" lon="6.1598">
        <ele>448.4</ele>
        <time>2013-08-17T08:55:49Z</time>
      </trkpt>
      <trkpt lat="45.90366" lon="6.15988">
        <ele>448.6</ele>
        <time>2013-08-17T08:55:52Z</time>
      </trkpt>
      <trkpt lat="45.90357" lon="6.15992">
        <ele>448.5</ele>
        <time>2013-08-17T08:55:53Z</time>
      </trkpt>
      <trkpt lat="45.9035" lon="6.15994">
        <ele>448.5</ele>
        <time>2013-08-17T08:55:54Z</time>
      </trkpt>
      <trkpt lat="45.90344" lon="6.15997">
        <ele>448.4</ele>
        <time>2013-08-17T08:55:55Z</time>
      </trkpt>
      <trkpt lat="45.90339" lon="6.15999">
        <ele>448.4</ele>
        <time>2013-08-17T08:55:56Z</time>
      </trkpt>
      <trkpt lat="45.90332" lon="6.16002">
        <ele>448.3</ele>
        <time>2013-08-17T08:55:57Z</time>
      </trkpt>
      <trkpt lat="45.90326" lon="6.16004">
        <ele>448.1</ele>
        <time>2013-08-17T08:55:58Z</time>
      </trkpt>
      <trkpt lat="45.90321" lon="6.16006">
        <ele>448</ele>
        <time>2013-08-17T08:55:59Z</time>
      </trkpt>
      <trkpt lat="45.90315" lon="6.16009">
        <ele>447.8</ele>
        <time>2013-08-17T08:56:00Z</time>
      </trkpt>
      <trkpt lat="45.90305" lon="6.16013">
        <ele>447.5</ele>
        <time>2013-08-17T08:56:01Z</time>
      </trkpt>
      <trkpt lat="45.90299" lon="6.16015">
        <ele>447.3</ele>
        <time>2013-08-17T08:56:02Z</time>
      </trkpt>
      <trkpt lat="45.90294" lon="6.16017">
        <ele>447.1</ele>
        <time>2013-08-17T08:56:03Z</time>
      </trkpt>
      <trkpt lat="45.90289" lon="6.16019">
        <ele>447</ele>
        <time>2013-08-17T08:56:04Z</time>
      </trkpt>
      <trkpt lat="45.90282" lon="6.16022">
        <ele>447</ele>
        <time>2013-08-17T08:56:05Z</time>
      </trkpt>
      <trkpt lat="45.90276" lon="6.16025">
        <ele>447</ele>
        <time>2013-08-17T08:56:06Z</time>
      </trkpt>
      <trkpt lat="45.90271" lon="6.16027">
        <ele>447</ele>
        <time>2013-08-17T08:56:07Z</time>
      </trkpt>
      <trkpt lat="45.90263" lon="6.1603">
        <ele>447</ele>
        <time>2013-08-17T08:56:08Z</time>
      </trkpt>
      <trkpt lat="45.90257" lon="6.16033">
        <ele>447</ele>
        <time>2013-08-17T08:56:09Z</time>
      </trkpt>
      <trkpt lat="45.9025" lon="6.16036">
        <ele>447</ele>
        <time>2013-08-17T08:56:10Z</time>
      </trkpt>
      <trkpt lat="45.90243" lon="6.16038">
        <ele>447</ele>
        <time>2013-08-17T08:56:11Z</time>
      </trkpt>
      <trkpt lat="45.90238" lon="6.1604">
        <ele>447</ele>
        <time>2013-08-17T08:56:12Z</time>
      </trkpt>
      <trkpt lat="45.90234" lon="6.16042">
        <ele>447</ele>
        <time>2013-08-17T08:56:13Z</time>
      </trkpt>
      <trkpt lat="45.9023" lon="6.16044">
        <ele>447.1</ele>
        <time>2013-08-17T08:56:14Z</time>
      </trkpt>
      <trkpt lat="45.90226" lon="6.16046">
        <ele>447.1</ele>
        <time>2013-08-17T08:56:15Z</time>
      </trkpt>
      <trkpt lat="45.90221" lon="6.16048">
        <ele>447.1</ele>
        <time>2013-08-17T08:56:16Z</time>
      </trkpt>
      <trkpt lat="45.90215" lon="6.16052">
        <ele>447.1</ele>
        <time>2013-08-17T08:56:17Z</time>
      </trkpt>
      <trkpt lat="45.9021" lon="6.16054">
        <ele>447</ele>
        <time>2013-08-17T08:56:18Z</time>
      </trkpt>
      <trkpt lat="45.90206" lon="6.16056">
        <ele>447</ele>
        <time>2013-08-17T08:56:19Z</time>
      </trkpt>
      <trkpt lat="45.90201" lon="6.16059">
        <ele>447</ele>
        <time>2013-08-17T08:56:20Z</time>
      </trkpt>
      <trkpt lat="45.90195" lon="6.16062">
        <ele>447</ele>
        <time>2013-08-17T08:56:21Z</time>
      </trkpt>
      <trkpt lat="45.90189" lon="6.16066">
        <ele>447</ele>
        <time>2013-08-17T08:56:22Z</time>
      </trkpt>
      <trkpt lat="45.90182" lon="6.1607">
        <ele>447</ele>
        <time>2013-08-17T08:56:23Z</time>
      </trkpt>
      <trkpt lat="45.90175" lon="6.16074">
        <ele>447</ele>
        <time>2013-08-17T08:56:24Z</time>
      </trkpt>
      <trkpt lat="45.90171" lon="6.16076">
        <ele>447</ele>
        <time>2013-08-17T08:56:25Z</time>
      </trkpt>
      <trkpt lat="45.90168" lon="6.16079">
        <ele>447</ele>
        <time>2013-08-17T08:56:26Z</time>
      </trkpt>
      <trkpt lat="45.90164" lon="6.16082">
        <ele>447</ele>
        <time>2013-08-17T08:56:27Z</time>
      </trkpt>
      <trkpt lat="45.90158" lon="6.16084">
        <ele>447</ele>
        <time>2013-08-17T08:56:28Z</time>
      </trkpt>
      <trkpt lat="45.90154" lon="6.16088">
        <ele>447</ele>
        <time>2013-08-17T08:56:29Z</time>
      </trkpt>
      <trkpt lat="45.90149" lon="6.16094">
        <ele>447</ele>
        <time>2013-08-17T08:56:30Z</time>
      </trkpt>
      <trkpt lat="45.90144" lon="6.161">
        <ele>447</ele>
        <time>2013-08-17T08:56:31Z</time>
      </trkpt>
      <trkpt lat="45.9014" lon="6.16105">
        <ele>447</ele>
        <time>2013-08-17T08:56:32Z</time>
      </trkpt>
      <trkpt lat="45.90135" lon="6.16105">
        <ele>447</ele>
        <time>2013-08-17T08:56:33Z</time>
      </trkpt>
      <trkpt lat="45.9013" lon="6.16107">
        <ele>447</ele>
        <time>2013-08-17T08:56:34Z</time>
      </trkpt>
      <trkpt lat="45.90123" lon="6.1611">
        <ele>447</ele>
        <time>2013-08-17T08:56:35Z</time>
      </trkpt>
      <trkpt lat="45.90117" lon="6.16112">
        <ele>447</ele>
        <time>2013-08-17T08:56:36Z</time>
      </trkpt>
      <trkpt lat="45.90112" lon="6.16116">
        <ele>447</ele>
        <time>2013-08-17T08:56:37Z</time>
      </trkpt>
      <trkpt lat="45.90106" lon="6.16118">
        <ele>447</ele>
        <time>2013-08-17T08:56:38Z</time>
      </trkpt>
      <trkpt lat="45.90099" lon="6.16121">
        <ele>447</ele>
        <time>2013-08-17T08:56:39Z</time>
      </trkpt>
      <trkpt lat="45.90091" lon="6.16124">
        <ele>447</ele>
        <time>2013-08-17T08:56:40Z</time>
      </trkpt>
      <trkpt lat="45.90085" lon="6.16126">
        <ele>447.1</ele>
        <time>2013-08-17T08:56:41Z</time>
      </trkpt>
      <trkpt lat="45.90079" lon="6.16129">
        <ele>447.5</ele>
        <time>2013-08-17T08:56:42Z</time>
      </trkpt>
      <trkpt lat="45.90075" lon="6.1613">
        <ele>447.7</ele>
        <time>2013-08-17T08:56:43Z</time>
      </trkpt>
      <trkpt lat="45.90056" lon="6.16137">
        <ele>448.7</ele>
        <time>2013-08-17T08:56:46Z</time>
      </trkpt>
      <trkpt lat="45.90051" lon="6.16138">
        <ele>449</ele>
        <time>2013-08-17T08:56:47Z</time>
      </trkpt>
      <trkpt lat="45.90045" lon="6.1614">
        <ele>449.3</ele>
        <time>2013-08-17T08:56:48Z</time>
      </trkpt>
      <trkpt lat="45.90039" lon="6.16142">
        <ele>449.6</ele>
        <time>2013-08-17T08:56:49Z</time>
      </trkpt>
      <trkpt lat="45.90035" lon="6.16144">
        <ele>449.7</ele>
        <time>2013-08-17T08:56:50Z</time>
      </trkpt>
      <trkpt lat="45.90028" lon="6.16146">
        <ele>449.8</ele>
        <time>2013-08-17T08:56:51Z</time>
      </trkpt>
      <trkpt lat="45.90022" lon="6.16148">
        <ele>449.8</ele>
        <time>2013-08-17T08:56:52Z</time>
      </trkpt>
      <trkpt lat="45.90015" lon="6.16151">
        <ele>449.7</ele>
        <time>2013-08-17T08:56:53Z</time>
      </trkpt>
      <trkpt lat="45.90009" lon="6.16153">
        <ele>449.7</ele>
        <time>2013-08-17T08:56:54Z</time>
      </trkpt>
      <trkpt lat="45.90004" lon="6.16155">
        <ele>449.5</ele>
        <time>2013-08-17T08:56:55Z</time>
      </trkpt>
      <trkpt lat="45.89998" lon="6.16157">
        <ele>449.4</ele>
        <time>2013-08-17T08:56:57Z</time>
      </trkpt>
      <trkpt lat="45.89993" lon="6.16163">
        <ele>449.4</ele>
        <time>2013-08-17T08:56:59Z</time>
      </trkpt>
      <trkpt lat="45.89991" lon="6.16166">
        <ele>449.5</ele>
        <time>2013-08-17T08:57:00Z</time>
      </trkpt>
      <trkpt lat="45.89986" lon="6.16171">
        <ele>449.4</ele>
        <time>2013-08-17T08:57:01Z</time>
      </trkpt>
      <trkpt lat="45.89981" lon="6.16175">
        <ele>449.1</ele>
        <time>2013-08-17T08:57:02Z</time>
      </trkpt>
      <trkpt lat="45.89976" lon="6.1618">
        <ele>448.8</ele>
        <time>2013-08-17T08:57:03Z</time>
      </trkpt>
      <trkpt lat="45.89971" lon="6.16182">
        <ele>448.3</ele>
        <time>2013-08-17T08:57:04Z</time>
      </trkpt>
      <trkpt lat="45.89965" lon="6.16185">
        <ele>447.7</ele>
        <time>2013-08-17T08:57:05Z</time>
      </trkpt>
      <trkpt lat="45.89961" lon="6.16187">
        <ele>447.3</ele>
        <time>2013-08-17T08:57:06Z</time>
      </trkpt>
      <trkpt lat="45.89952" lon="6.16191">
        <ele>447</ele>
        <time>2013-08-17T08:57:07Z</time>
      </trkpt>
      <trkpt lat="45.89945" lon="6.16195">
        <ele>447</ele>
        <time>2013-08-17T08:57:09Z</time>
      </trkpt>
      <trkpt lat="45.89941" lon="6.16199">
        <ele>447</ele>
        <time>2013-08-17T08:57:10Z</time>
      </trkpt>
      <trkpt lat="45.89938" lon="6.16201">
        <ele>447</ele>
        <time>2013-08-17T08:57:11Z</time>
      </trkpt>
      <trkpt lat="45.89917" lon="6.1621">
        <ele>447.4</ele>
        <time>2013-08-17T08:57:13Z</time>
      </trkpt>
      <trkpt lat="45.89911" lon="6.16213">
        <ele>448.1</ele>
        <time>2013-08-17T08:57:14Z</time>
      </trkpt>
      <trkpt lat="45.89901" lon="6.16221">
        <ele>449.9</ele>
        <time>2013-08-17T08:57:15Z</time>
      </trkpt>
      <trkpt lat="45.89896" lon="6.16225">
        <ele>450.6</ele>
        <time>2013-08-17T08:57:16Z</time>
      </trkpt>
      <trkpt lat="45.89892" lon="6.16231">
        <ele>451.4</ele>
        <time>2013-08-17T08:57:17Z</time>
      </trkpt>
      <trkpt lat="45.89881" lon="6.16238">
        <ele>452</ele>
        <time>2013-08-17T08:57:18Z</time>
      </trkpt>
      <trkpt lat="45.89876" lon="6.16242">
        <ele>452.3</ele>
        <time>2013-08-17T08:57:19Z</time>
      </trkpt>
      <trkpt lat="45.89871" lon="6.16248">
        <ele>452.8</ele>
        <time>2013-08-17T08:57:20Z</time>
      </trkpt>
      <trkpt lat="45.89867" lon="6.16255">
        <ele>453.5</ele>
        <time>2013-08-17T08:57:21Z</time>
      </trkpt>
      <trkpt lat="45.89862" lon="6.16257">
        <ele>453.4</ele>
        <time>2013-08-17T08:57:22Z</time>
      </trkpt>
      <trkpt lat="45.89856" lon="6.16261">
        <ele>453.2</ele>
        <time>2013-08-17T08:57:23Z</time>
      </trkpt>
      <trkpt lat="45.89851" lon="6.16263">
        <ele>453</ele>
        <time>2013-08-17T08:57:24Z</time>
      </trkpt>
      <trkpt lat="45.89846" lon="6.16266">
        <ele>452.8</ele>
        <time>2013-08-17T08:57:25Z</time>
      </trkpt>
      <trkpt lat="45.8984" lon="6.1627">
        <ele>452.6</ele>
        <time>2013-08-17T08:57:26Z</time>
      </trkpt>
      <trkpt lat="45.89836" lon="6.16273">
        <ele>452.4</ele>
        <time>2013-08-17T08:57:27Z</time>
      </trkpt>
      <trkpt lat="45.89831" lon="6.16278">
        <ele>452.2</ele>
        <time>2013-08-17T08:57:28Z</time>
      </trkpt>
      <trkpt lat="45.89828" lon="6.16282">
        <ele>452</ele>
        <time>2013-08-17T08:57:29Z</time>
      </trkpt>
      <trkpt lat="45.89824" lon="6.16286">
        <ele>451.7</ele>
        <time>2013-08-17T08:57:30Z</time>
      </trkpt>
      <trkpt lat="45.89819" lon="6.16291">
        <ele>451.2</ele>
        <time>2013-08-17T08:57:31Z</time>
      </trkpt>
      <trkpt lat="45.89814" lon="6.16297">
        <ele>451</ele>
        <time>2013-08-17T08:57:32Z</time>
      </trkpt>
      <trkpt lat="45.89809" lon="6.163">
        <ele>450.6</ele>
        <time>2013-08-17T08:57:33Z</time>
      </trkpt>
      <trkpt lat="45.89805" lon="6.16305">
        <ele>450.5</ele>
        <time>2013-08-17T08:57:34Z</time>
      </trkpt>
      <trkpt lat="45.89802" lon="6.1631">
        <ele>450.5</ele>
        <time>2013-08-17T08:57:35Z</time>
      </trkpt>
      <trkpt lat="45.89799" lon="6.16314">
        <ele>450.3</ele>
        <time>2013-08-17T08:57:36Z</time>
      </trkpt>
      <trkpt lat="45.89794" lon="6.16317">
        <ele>449.8</ele>
        <time>2013-08-17T08:57:37Z</time>
      </trkpt>
      <trkpt lat="45.8979" lon="6.16322">
        <ele>449.8</ele>
        <time>2013-08-17T08:57:38Z</time>
      </trkpt>
      <trkpt lat="45.89785" lon="6.16327">
        <ele>450.2</ele>
        <time>2013-08-17T08:57:39Z</time>
      </trkpt>
      <trkpt lat="45.89782" lon="6.16332">
        <ele>450.4</ele>
        <time>2013-08-17T08:57:40Z</time>
      </trkpt>
      <trkpt lat="45.89779" lon="6.16335">
        <ele>450.6</ele>
        <time>2013-08-17T08:57:41Z</time>
      </trkpt>
      <trkpt lat="45.89777" lon="6.16338">
        <ele>450.7</ele>
        <time>2013-08-17T08:57:42Z</time>
      </trkpt>
      <trkpt lat="45.89774" lon="6.16342">
        <ele>450.8</ele>
        <time>2013-08-17T08:57:43Z</time>
      </trkpt>
      <trkpt lat="45.89769" lon="6.16349">
        <ele>450.9</ele>
        <time>2013-08-17T08:57:44Z</time>
      </trkpt>
      <trkpt lat="45.89763" lon="6.16355">
        <ele>451</ele>
        <time>2013-08-17T08:57:45Z</time>
      </trkpt>
      <trkpt lat="45.89759" lon="6.1636">
        <ele>451</ele>
        <time>2013-08-17T08:57:46Z</time>
      </trkpt>
      <trkpt lat="45.89755" lon="6.16369">
        <ele>451.1</ele>
        <time>2013-08-17T08:57:47Z</time>
      </trkpt>
      <trkpt lat="45.89753" lon="6.16375">
        <ele>451.2</ele>
        <time>2013-08-17T08:57:48Z</time>
      </trkpt>
      <trkpt lat="45.89752" lon="6.16382">
        <ele>452.3</ele>
        <time>2013-08-17T08:57:50Z</time>
      </trkpt>
      <trkpt lat="45.8975" lon="6.16386">
        <ele>452.6</ele>
        <time>2013-08-17T08:57:51Z</time>
      </trkpt>
      <trkpt lat="45.89746" lon="6.16388">
        <ele>452.6</ele>
        <time>2013-08-17T08:57:52Z</time>
      </trkpt>
      <trkpt lat="45.89741" lon="6.16393">
        <ele>452.6</ele>
        <time>2013-08-17T08:57:53Z</time>
      </trkpt>
      <trkpt lat="45.89735" lon="6.164">
        <ele>452.9</ele>
        <time>2013-08-17T08:57:54Z</time>
      </trkpt>
      <trkpt lat="45.89729" lon="6.16408">
        <ele>453.2</ele>
        <time>2013-08-17T08:57:55Z</time>
      </trkpt>
      <trkpt lat="45.89725" lon="6.16414">
        <ele>453.5</ele>
        <time>2013-08-17T08:57:56Z</time>
      </trkpt>
      <trkpt lat="45.8972" lon="6.1642">
        <ele>453.5</ele>
        <time>2013-08-17T08:57:57Z</time>
      </trkpt>
      <trkpt lat="45.89714" lon="6.16426">
        <ele>453.4</ele>
        <time>2013-08-17T08:57:58Z</time>
      </trkpt>
      <trkpt lat="45.8971" lon="6.16431">
        <ele>453.2</ele>
        <time>2013-08-17T08:57:59Z</time>
      </trkpt>
      <trkpt lat="45.89705" lon="6.16438">
        <ele>453.6</ele>
        <time>2013-08-17T08:58:00Z</time>
      </trkpt>
      <trkpt lat="45.897" lon="6.16446">
        <ele>453.8</ele>
        <time>2013-08-17T08:58:01Z</time>
      </trkpt>
      <trkpt lat="45.89695" lon="6.1645">
        <ele>453.8</ele>
        <time>2013-08-17T08:58:02Z</time>
      </trkpt>
      <trkpt lat="45.8969" lon="6.16458">
        <ele>454</ele>
        <time>2013-08-17T08:58:03Z</time>
      </trkpt>
      <trkpt lat="45.89685" lon="6.16463">
        <ele>454</ele>
        <time>2013-08-17T08:58:04Z</time>
      </trkpt>
      <trkpt lat="45.89682" lon="6.1647">
        <ele>454.4</ele>
        <time>2013-08-17T08:58:05Z</time>
      </trkpt>
      <trkpt lat="45.89679" lon="6.16476">
        <ele>454.9</ele>
        <time>2013-08-17T08:58:06Z</time>
      </trkpt>
      <trkpt lat="45.89673" lon="6.16486">
        <ele>455.3</ele>
        <time>2013-08-17T08:58:07Z</time>
      </trkpt>
      <trkpt lat="45.89667" lon="6.16491">
        <ele>455.2</ele>
        <time>2013-08-17T08:58:08Z</time>
      </trkpt>
      <trkpt lat="45.89663" lon="6.16497">
        <ele>455.5</ele>
        <time>2013-08-17T08:58:09Z</time>
      </trkpt>
      <trkpt lat="45.8966" lon="6.16504">
        <ele>455.9</ele>
        <time>2013-08-17T08:58:10Z</time>
      </trkpt>
      <trkpt lat="45.89655" lon="6.16509">
        <ele>455.9</ele>
        <time>2013-08-17T08:58:11Z</time>
      </trkpt>
      <trkpt lat="45.89648" lon="6.16516">
        <ele>455.9</ele>
        <time>2013-08-17T08:58:12Z</time>
      </trkpt>
      <trkpt lat="45.89641" lon="6.16522">
        <ele>455.8</ele>
        <time>2013-08-17T08:58:13Z</time>
      </trkpt>
      <trkpt lat="45.89635" lon="6.16528">
        <ele>455.7</ele>
        <time>2013-08-17T08:58:14Z</time>
      </trkpt>
      <trkpt lat="45.89629" lon="6.16533">
        <ele>455.5</ele>
        <time>2013-08-17T08:58:15Z</time>
      </trkpt>
      <trkpt lat="45.89623" lon="6.16537">
        <ele>455.3</ele>
        <time>2013-08-17T08:58:16Z</time>
      </trkpt>
      <trkpt lat="45.89619" lon="6.16543">
        <ele>455.5</ele>
        <time>2013-08-17T08:58:17Z</time>
      </trkpt>
      <trkpt lat="45.89614" lon="6.16549">
        <ele>455.5</ele>
        <time>2013-08-17T08:58:18Z</time>
      </trkpt>
      <trkpt lat="45.8961" lon="6.16556">
        <ele>455.8</ele>
        <time>2013-08-17T08:58:19Z</time>
      </trkpt>
      <trkpt lat="45.89606" lon="6.16562">
        <ele>455.9</ele>
        <time>2013-08-17T08:58:20Z</time>
      </trkpt>
      <trkpt lat="45.89603" lon="6.16565">
        <ele>455.8</ele>
        <time>2013-08-17T08:58:21Z</time>
      </trkpt>
      <trkpt lat="45.89591" lon="6.16576">
        <ele>455.7</ele>
        <time>2013-08-17T08:58:23Z</time>
      </trkpt>
      <trkpt lat="45.89588" lon="6.1658">
        <ele>455.7</ele>
        <time>2013-08-17T08:58:24Z</time>
      </trkpt>
      <trkpt lat="45.89583" lon="6.16585">
        <ele>455.6</ele>
        <time>2013-08-17T08:58:25Z</time>
      </trkpt>
      <trkpt lat="45.89579" lon="6.16588">
        <ele>455.5</ele>
        <time>2013-08-17T08:58:26Z</time>
      </trkpt>
      <trkpt lat="45.89574" lon="6.16593">
        <ele>455.4</ele>
        <time>2013-08-17T08:58:27Z</time>
      </trkpt>
      <trkpt lat="45.8957" lon="6.16597">
        <ele>455.4</ele>
        <time>2013-08-17T08:58:28Z</time>
      </trkpt>
      <trkpt lat="45.89568" lon="6.16602">
        <ele>455.6</ele>
        <time>2013-08-17T08:58:29Z</time>
      </trkpt>
      <trkpt lat="45.89563" lon="6.16604">
        <ele>455.3</ele>
        <time>2013-08-17T08:58:30Z</time>
      </trkpt>
      <trkpt lat="45.8956" lon="6.16608">
        <ele>455.4</ele>
        <time>2013-08-17T08:58:31Z</time>
      </trkpt>
      <trkpt lat="45.89557" lon="6.16612">
        <ele>455.4</ele>
        <time>2013-08-17T08:58:32Z</time>
      </trkpt>
      <trkpt lat="45.89553" lon="6.16615">
        <ele>455.3</ele>
        <time>2013-08-17T08:58:33Z</time>
      </trkpt>
      <trkpt lat="45.89552" lon="6.16619">
        <ele>455.5</ele>
        <time>2013-08-17T08:58:34Z</time>
      </trkpt>
      <trkpt lat="45.89549" lon="6.16624">
        <ele>455.7</ele>
        <time>2013-08-17T08:58:35Z</time>
      </trkpt>
      <trkpt lat="45.89547" lon="6.16628">
        <ele>455.8</ele>
        <time>2013-08-17T08:58:36Z</time>
      </trkpt>
      <trkpt lat="45.89543" lon="6.16634">
        <ele>456</ele>
        <time>2013-08-17T08:58:37Z</time>
      </trkpt>
      <trkpt lat="45.8954" lon="6.16638">
        <ele>456.1</ele>
        <time>2013-08-17T08:58:38Z</time>
      </trkpt>
      <trkpt lat="45.89537" lon="6.16643">
        <ele>456.3</ele>
        <time>2013-08-17T08:58:39Z</time>
      </trkpt>
      <trkpt lat="45.8953" lon="6.16651">
        <ele>456.3</ele>
        <time>2013-08-17T08:58:41Z</time>
      </trkpt>
      <trkpt lat="45.89525" lon="6.16654">
        <ele>456.1</ele>
        <time>2013-08-17T08:58:42Z</time>
      </trkpt>
      <trkpt lat="45.89519" lon="6.1666">
        <ele>456.1</ele>
        <time>2013-08-17T08:58:44Z</time>
      </trkpt>
      <trkpt lat="45.89515" lon="6.16666">
        <ele>456.2</ele>
        <time>2013-08-17T08:58:46Z</time>
      </trkpt>
      <trkpt lat="45.89511" lon="6.1667">
        <ele>456.2</ele>
        <time>2013-08-17T08:58:50Z</time>
      </trkpt>
      <trkpt lat="45.89509" lon="6.16672">
        <ele>456.2</ele>
        <time>2013-08-17T08:58:54Z</time>
      </trkpt>
      <trkpt lat="45.89507" lon="6.16675">
        <ele>456.2</ele>
        <time>2013-08-17T08:58:58Z</time>
      </trkpt>
      <trkpt lat="45.89503" lon="6.1668">
        <ele>456.3</ele>
        <time>2013-08-17T08:59:02Z</time>
      </trkpt>
      <trkpt lat="45.895" lon="6.16684">
        <ele>456.3</ele>
        <time>2013-08-17T08:59:03Z</time>
      </trkpt>
      <trkpt lat="45.89491" lon="6.16696">
        <ele>456.4</ele>
        <time>2013-08-17T08:59:04Z</time>
      </trkpt>
      <trkpt lat="45.89475" lon="6.16719">
        <ele>456.4</ele>
        <time>2013-08-17T08:59:07Z</time>
      </trkpt>
      <trkpt lat="45.8947" lon="6.16726">
        <ele>456.3</ele>
        <time>2013-08-17T08:59:08Z</time>
      </trkpt>
      <trkpt lat="45.8946" lon="6.16725">
        <ele>455.2</ele>
        <time>2013-08-17T08:59:09Z</time>
      </trkpt>
      <trkpt lat="45.89454" lon="6.16731">
        <ele>455.4</ele>
        <time>2013-08-17T08:59:10Z</time>
      </trkpt>
      <trkpt lat="45.8945" lon="6.16737">
        <ele>455.8</ele>
        <time>2013-08-17T08:59:11Z</time>
      </trkpt>
      <trkpt lat="45.89445" lon="6.16743">
        <ele>456.2</ele>
        <time>2013-08-17T08:59:12Z</time>
      </trkpt>
      <trkpt lat="45.89454" lon="6.16746">
        <ele>456.3</ele>
        <time>2013-08-17T08:59:13Z</time>
      </trkpt>
      <trkpt lat="45.89441" lon="6.16761">
        <ele>457.3</ele>
        <time>2013-08-17T08:59:14Z</time>
      </trkpt>
      <trkpt lat="45.89432" lon="6.16759">
        <ele>457.2</ele>
        <time>2013-08-17T08:59:15Z</time>
      </trkpt>
      <trkpt lat="45.89428" lon="6.16763">
        <ele>457.5</ele>
        <time>2013-08-17T08:59:16Z</time>
      </trkpt>
      <trkpt lat="45.89423" lon="6.16768">
        <ele>457.9</ele>
        <time>2013-08-17T08:59:17Z</time>
      </trkpt>
      <trkpt lat="45.89418" lon="6.16772">
        <ele>458.2</ele>
        <time>2013-08-17T08:59:18Z</time>
      </trkpt>
      <trkpt lat="45.89425" lon="6.16778">
        <ele>458.5</ele>
        <time>2013-08-17T08:59:19Z</time>
      </trkpt>
      <trkpt lat="45.89414" lon="6.16789">
        <ele>459.4</ele>
        <time>2013-08-17T08:59:20Z</time>
      </trkpt>
      <trkpt lat="45.8941" lon="6.16792">
        <ele>459.7</ele>
        <time>2013-08-17T08:59:21Z</time>
      </trkpt>
      <trkpt lat="45.89405" lon="6.16797">
        <ele>460.2</ele>
        <time>2013-08-17T08:59:22Z</time>
      </trkpt>
      <trkpt lat="45.89401" lon="6.16801">
        <ele>460.7</ele>
        <time>2013-08-17T08:59:23Z</time>
      </trkpt>
      <trkpt lat="45.89399" lon="6.16804">
        <ele>461</ele>
        <time>2013-08-17T08:59:24Z</time>
      </trkpt>
      <trkpt lat="45.89383" lon="6.16817">
        <ele>462.7</ele>
        <time>2013-08-17T08:59:29Z</time>
      </trkpt>
      <trkpt lat="45.89378" lon="6.16822">
        <ele>463.2</ele>
        <time>2013-08-17T08:59:30Z</time>
      </trkpt>
      <trkpt lat="45.89374" lon="6.16825">
        <ele>463.6</ele>
        <time>2013-08-17T08:59:32Z</time>
      </trkpt>
      <trkpt lat="45.89371" lon="6.16827">
        <ele>463.9</ele>
        <time>2013-08-17T08:59:33Z</time>
      </trkpt>
      <trkpt lat="45.89368" lon="6.1683">
        <ele>464.2</ele>
        <time>2013-08-17T08:59:34Z</time>
      </trkpt>
      <trkpt lat="45.89365" lon="6.16832">
        <ele>464.4</ele>
        <time>2013-08-17T08:59:35Z</time>
      </trkpt>
      <trkpt lat="45.89361" lon="6.16835">
        <ele>464.8</ele>
        <time>2013-08-17T08:59:36Z</time>
      </trkpt>
      <trkpt lat="45.89358" lon="6.16837">
        <ele>465.1</ele>
        <time>2013-08-17T08:59:37Z</time>
      </trkpt>
      <trkpt lat="45.89355" lon="6.16839">
        <ele>465.3</ele>
        <time>2013-08-17T08:59:38Z</time>
      </trkpt>
      <trkpt lat="45.89351" lon="6.16841">
        <ele>465.6</ele>
        <time>2013-08-17T08:59:39Z</time>
      </trkpt>
      <trkpt lat="45.89332" lon="6.16852">
        <ele>466.8</ele>
        <time>2013-08-17T08:59:43Z</time>
      </trkpt>
      <trkpt lat="45.89327" lon="6.16854">
        <ele>467</ele>
        <time>2013-08-17T08:59:44Z</time>
      </trkpt>
      <trkpt lat="45.89324" lon="6.16856">
        <ele>467.2</ele>
        <time>2013-08-17T08:59:45Z</time>
      </trkpt>
      <trkpt lat="45.89321" lon="6.16857">
        <ele>467.4</ele>
        <time>2013-08-17T08:59:46Z</time>
      </trkpt>
      <trkpt lat="45.89318" lon="6.16859">
        <ele>467.5</ele>
        <time>2013-08-17T08:59:47Z</time>
      </trkpt>
      <trkpt lat="45.89302" lon="6.16864">
        <ele>468</ele>
        <time>2013-08-17T08:59:53Z</time>
      </trkpt>
      <trkpt lat="45.89299" lon="6.16865">
        <ele>468.1</ele>
        <time>2013-08-17T08:59:55Z</time>
      </trkpt>
      <trkpt lat="45.89294" lon="6.16867">
        <ele>468.3</ele>
        <time>2013-08-17T08:59:57Z</time>
      </trkpt>
      <trkpt lat="45.8929" lon="6.16868">
        <ele>468.3</ele>
        <time>2013-08-17T08:59:58Z</time>
      </trkpt>
      <trkpt lat="45.89288" lon="6.16869">
        <ele>468.1</ele>
        <time>2013-08-17T09:00:00Z</time>
      </trkpt>
      <trkpt lat="45.89282" lon="6.16872">
        <ele>467.8</ele>
        <time>2013-08-17T09:00:02Z</time>
      </trkpt>
      <trkpt lat="45.89279" lon="6.16873">
        <ele>467.6</ele>
        <time>2013-08-17T09:00:03Z</time>
      </trkpt>
      <trkpt lat="45.89275" lon="6.16875">
        <ele>467.4</ele>
        <time>2013-08-17T09:00:04Z</time>
      </trkpt>
      <trkpt lat="45.89271" lon="6.16877">
        <ele>467.2</ele>
        <time>2013-08-17T09:00:05Z</time>
      </trkpt>
      <trkpt lat="45.89252" lon="6.16874">
        <ele>465.1</ele>
        <time>2013-08-17T09:00:08Z</time>
      </trkpt>
      <trkpt lat="45.89247" lon="6.16877">
        <ele>464.8</ele>
        <time>2013-08-17T09:00:09Z</time>
      </trkpt>
      <trkpt lat="45.89243" lon="6.16879">
        <ele>464.6</ele>
        <time>2013-08-17T09:00:10Z</time>
      </trkpt>
      <trkpt lat="45.89241" lon="6.16883">
        <ele>464.6</ele>
        <time>2013-08-17T09:00:11Z</time>
      </trkpt>
      <trkpt lat="45.89241" lon="6.16896">
        <ele>465.3</ele>
        <time>2013-08-17T09:00:12Z</time>
      </trkpt>
      <trkpt lat="45.89238" lon="6.16898">
        <ele>465.2</ele>
        <time>2013-08-17T09:00:13Z</time>
      </trkpt>
      <trkpt lat="45.89221" lon="6.1691">
        <ele>464.3</ele>
        <time>2013-08-17T09:00:16Z</time>
      </trkpt>
      <trkpt lat="45.89214" lon="6.16914">
        <ele>463.9</ele>
        <time>2013-08-17T09:00:17Z</time>
      </trkpt>
      <trkpt lat="45.89205" lon="6.1692">
        <ele>463.4</ele>
        <time>2013-08-17T09:00:18Z</time>
      </trkpt>
      <trkpt lat="45.89199" lon="6.16922">
        <ele>463</ele>
        <time>2013-08-17T09:00:20Z</time>
      </trkpt>
      <trkpt lat="45.89195" lon="6.16923">
        <ele>462.8</ele>
        <time>2013-08-17T09:00:21Z</time>
      </trkpt>
      <trkpt lat="45.89191" lon="6.16924">
        <ele>462.5</ele>
        <time>2013-08-17T09:00:22Z</time>
      </trkpt>
      <trkpt lat="45.89188" lon="6.16925">
        <ele>462.3</ele>
        <time>2013-08-17T09:00:23Z</time>
      </trkpt>
      <trkpt lat="45.89185" lon="6.16926">
        <ele>462.1</ele>
        <time>2013-08-17T09:00:24Z</time>
      </trkpt>
      <trkpt lat="45.8918" lon="6.16927">
        <ele>461.7</ele>
        <time>2013-08-17T09:00:26Z</time>
      </trkpt>
      <trkpt lat="45.89167" lon="6.16929">
        <ele>460.7</ele>
        <time>2013-08-17T09:00:31Z</time>
      </trkpt>
      <trkpt lat="45.89162" lon="6.1693">
        <ele>460.4</ele>
        <time>2013-08-17T09:00:33Z</time>
      </trkpt>
      <trkpt lat="45.89142" lon="6.16936">
        <ele>459.1</ele>
        <time>2013-08-17T09:00:41Z</time>
      </trkpt>
      <trkpt lat="45.89133" lon="6.16943">
        <ele>458.7</ele>
        <time>2013-08-17T09:00:42Z</time>
      </trkpt>
      <trkpt lat="45.89124" lon="6.16949">
        <ele>458.4</ele>
        <time>2013-08-17T09:00:43Z</time>
      </trkpt>
      <trkpt lat="45.8911" lon="6.16967">
        <ele>457.6</ele>
        <time>2013-08-17T09:00:45Z</time>
      </trkpt>
      <trkpt lat="45.89104" lon="6.16974">
        <ele>457.2</ele>
        <time>2013-08-17T09:00:46Z</time>
      </trkpt>
      <trkpt lat="45.89089" lon="6.1699">
        <ele>455.9</ele>
        <time>2013-08-17T09:00:49Z</time>
      </trkpt>
      <trkpt lat="45.89082" lon="6.16997">
        <ele>455.3</ele>
        <time>2013-08-17T09:00:50Z</time>
      </trkpt>
      <trkpt lat="45.89075" lon="6.17006">
        <ele>454.7</ele>
        <time>2013-08-17T09:00:51Z</time>
      </trkpt>
      <trkpt lat="45.89072" lon="6.1701">
        <ele>454.5</ele>
        <time>2013-08-17T09:00:52Z</time>
      </trkpt>
      <trkpt lat="45.8907" lon="6.17014">
        <ele>454.4</ele>
        <time>2013-08-17T09:00:53Z</time>
      </trkpt>
      <trkpt lat="45.89066" lon="6.17021">
        <ele>454.1</ele>
        <time>2013-08-17T09:00:54Z</time>
      </trkpt>
      <trkpt lat="45.89064" lon="6.17025">
        <ele>453.9</ele>
        <time>2013-08-17T09:00:55Z</time>
      </trkpt>
      <trkpt lat="45.89052" lon="6.1705">
        <ele>453.1</ele>
        <time>2013-08-17T09:00:58Z</time>
      </trkpt>
      <trkpt lat="45.89049" lon="6.17056">
        <ele>452.9</ele>
        <time>2013-08-17T09:00:59Z</time>
      </trkpt>
      <trkpt lat="45.89046" lon="6.17064">
        <ele>452.7</ele>
        <time>2013-08-17T09:01:00Z</time>
      </trkpt>
      <trkpt lat="45.89043" lon="6.17073">
        <ele>452.5</ele>
        <time>2013-08-17T09:01:01Z</time>
      </trkpt>
      <trkpt lat="45.89039" lon="6.17082">
        <ele>452.3</ele>
        <time>2013-08-17T09:01:02Z</time>
      </trkpt>
      <trkpt lat="45.89036" lon="6.1709">
        <ele>452.2</ele>
        <time>2013-08-17T09:01:03Z</time>
      </trkpt>
      <trkpt lat="45.89034" lon="6.17097">
        <ele>452.2</ele>
        <time>2013-08-17T09:01:04Z</time>
      </trkpt>
      <trkpt lat="45.89031" lon="6.17108">
        <ele>452.1</ele>
        <time>2013-08-17T09:01:05Z</time>
      </trkpt>
      <trkpt lat="45.89029" lon="6.17113">
        <ele>452.1</ele>
        <time>2013-08-17T09:01:06Z</time>
      </trkpt>
      <trkpt lat="45.89027" lon="6.17121">
        <ele>452.1</ele>
        <time>2013-08-17T09:01:07Z</time>
      </trkpt>
      <trkpt lat="45.89025" lon="6.17127">
        <ele>452.2</ele>
        <time>2013-08-17T09:01:08Z</time>
      </trkpt>
      <trkpt lat="45.89015" lon="6.17146">
        <ele>453.3</ele>
        <time>2013-08-17T09:01:10Z</time>
      </trkpt>
      <trkpt lat="45.89012" lon="6.17152">
        <ele>453.5</ele>
        <time>2013-08-17T09:01:11Z</time>
      </trkpt>
      <trkpt lat="45.89008" lon="6.17158">
        <ele>453.8</ele>
        <time>2013-08-17T09:01:12Z</time>
      </trkpt>
      <trkpt lat="45.89003" lon="6.17166">
        <ele>454.2</ele>
        <time>2013-08-17T09:01:13Z</time>
      </trkpt>
      <trkpt lat="45.88998" lon="6.17173">
        <ele>454.4</ele>
        <time>2013-08-17T09:01:14Z</time>
      </trkpt>
      <trkpt lat="45.88994" lon="6.1718">
        <ele>454.6</ele>
        <time>2013-08-17T09:01:15Z</time>
      </trkpt>
      <trkpt lat="45.88989" lon="6.17186">
        <ele>454.8</ele>
        <time>2013-08-17T09:01:16Z</time>
      </trkpt>
      <trkpt lat="45.88985" lon="6.17192">
        <ele>454.9</ele>
        <time>2013-08-17T09:01:17Z</time>
      </trkpt>
      <trkpt lat="45.88979" lon="6.17198">
        <ele>454.9</ele>
        <time>2013-08-17T09:01:18Z</time>
      </trkpt>
      <trkpt lat="45.88975" lon="6.17201">
        <ele>454.8</ele>
        <time>2013-08-17T09:01:19Z</time>
      </trkpt>
      <trkpt lat="45.88967" lon="6.17206">
        <ele>454.6</ele>
        <time>2013-08-17T09:01:20Z</time>
      </trkpt>
      <trkpt lat="45.88963" lon="6.17209">
        <ele>454.4</ele>
        <time>2013-08-17T09:01:21Z</time>
      </trkpt>
      <trkpt lat="45.8896" lon="6.17211">
        <ele>454.4</ele>
        <time>2013-08-17T09:01:22Z</time>
      </trkpt>
      <trkpt lat="45.88954" lon="6.17214">
        <ele>454.3</ele>
        <time>2013-08-17T09:01:25Z</time>
      </trkpt>
      <trkpt lat="45.8895" lon="6.17216">
        <ele>454.3</ele>
        <time>2013-08-17T09:01:26Z</time>
      </trkpt>
      <trkpt lat="45.88945" lon="6.17218">
        <ele>454.2</ele>
        <time>2013-08-17T09:01:28Z</time>
      </trkpt>
      <trkpt lat="45.88933" lon="6.17221">
        <ele>453.8</ele>
        <time>2013-08-17T09:01:29Z</time>
      </trkpt>
      <trkpt lat="45.88923" lon="6.17223">
        <ele>453.5</ele>
        <time>2013-08-17T09:01:30Z</time>
      </trkpt>
      <trkpt lat="45.8892" lon="6.17225">
        <ele>453.5</ele>
        <time>2013-08-17T09:01:31Z</time>
      </trkpt>
      <trkpt lat="45.88914" lon="6.1723">
        <ele>453.5</ele>
        <time>2013-08-17T09:01:32Z</time>
      </trkpt>
      <trkpt lat="45.88907" lon="6.17238">
        <ele>453.7</ele>
        <time>2013-08-17T09:01:33Z</time>
      </trkpt>
      <trkpt lat="45.88904" lon="6.17242">
        <ele>453.8</ele>
        <time>2013-08-17T09:01:34Z</time>
      </trkpt>
      <trkpt lat="45.889" lon="6.17248">
        <ele>454</ele>
        <time>2013-08-17T09:01:35Z</time>
      </trkpt>
      <trkpt lat="45.88896" lon="6.17254">
        <ele>454.2</ele>
        <time>2013-08-17T09:01:36Z</time>
      </trkpt>
      <trkpt lat="45.88892" lon="6.17261">
        <ele>454.4</ele>
        <time>2013-08-17T09:01:37Z</time>
      </trkpt>
      <trkpt lat="45.88889" lon="6.17267">
        <ele>454.5</ele>
        <time>2013-08-17T09:01:38Z</time>
      </trkpt>
      <trkpt lat="45.88886" lon="6.1727">
        <ele>454.5</ele>
        <time>2013-08-17T09:01:39Z</time>
      </trkpt>
      <trkpt lat="45.88878" lon="6.17282">
        <ele>454.6</ele>
        <time>2013-08-17T09:01:40Z</time>
      </trkpt>
      <trkpt lat="45.88872" lon="6.17286">
        <ele>454.6</ele>
        <time>2013-08-17T09:01:42Z</time>
      </trkpt>
      <trkpt lat="45.88867" lon="6.17289">
        <ele>454.7</ele>
        <time>2013-08-17T09:01:43Z</time>
      </trkpt>
      <trkpt lat="45.88862" lon="6.17291">
        <ele>454.8</ele>
        <time>2013-08-17T09:01:44Z</time>
      </trkpt>
      <trkpt lat="45.88857" lon="6.17293">
        <ele>455</ele>
        <time>2013-08-17T09:01:45Z</time>
      </trkpt>
      <trkpt lat="45.88852" lon="6.17296">
        <ele>455.3</ele>
        <time>2013-08-17T09:01:46Z</time>
      </trkpt>
      <trkpt lat="45.88848" lon="6.17298">
        <ele>455.6</ele>
        <time>2013-08-17T09:01:47Z</time>
      </trkpt>
      <trkpt lat="45.88843" lon="6.173">
        <ele>455.8</ele>
        <time>2013-08-17T09:01:48Z</time>
      </trkpt>
      <trkpt lat="45.88837" lon="6.17302">
        <ele>456</ele>
        <time>2013-08-17T09:01:49Z</time>
      </trkpt>
      <trkpt lat="45.8883" lon="6.17305">
        <ele>456.3</ele>
        <time>2013-08-17T09:01:50Z</time>
      </trkpt>
      <trkpt lat="45.88825" lon="6.17306">
        <ele>456.5</ele>
        <time>2013-08-17T09:01:51Z</time>
      </trkpt>
      <trkpt lat="45.88819" lon="6.17309">
        <ele>456.7</ele>
        <time>2013-08-17T09:01:52Z</time>
      </trkpt>
      <trkpt lat="45.88813" lon="6.1731">
        <ele>456.8</ele>
        <time>2013-08-17T09:01:53Z</time>
      </trkpt>
      <trkpt lat="45.88807" lon="6.17312">
        <ele>457</ele>
        <time>2013-08-17T09:01:54Z</time>
      </trkpt>
      <trkpt lat="45.888" lon="6.17314">
        <ele>457.1</ele>
        <time>2013-08-17T09:01:55Z</time>
      </trkpt>
      <trkpt lat="45.88794" lon="6.17316">
        <ele>457.3</ele>
        <time>2013-08-17T09:01:56Z</time>
      </trkpt>
      <trkpt lat="45.88787" lon="6.17318">
        <ele>457.5</ele>
        <time>2013-08-17T09:01:57Z</time>
      </trkpt>
      <trkpt lat="45.88781" lon="6.1732">
        <ele>457.7</ele>
        <time>2013-08-17T09:01:58Z</time>
      </trkpt>
      <trkpt lat="45.8877" lon="6.17323">
        <ele>458.1</ele>
        <time>2013-08-17T09:02:01Z</time>
      </trkpt>
      <trkpt lat="45.88763" lon="6.17326">
        <ele>458.4</ele>
        <time>2013-08-17T09:02:02Z</time>
      </trkpt>
      <trkpt lat="45.88755" lon="6.17331">
        <ele>459</ele>
        <time>2013-08-17T09:02:04Z</time>
      </trkpt>
      <trkpt lat="45.88751" lon="6.17334">
        <ele>459.4</ele>
        <time>2013-08-17T09:02:08Z</time>
      </trkpt>
      <trkpt lat="45.88747" lon="6.17338">
        <ele>459.8</ele>
        <time>2013-08-17T09:02:09Z</time>
      </trkpt>
      <trkpt lat="45.88734" lon="6.17348">
        <ele>460.7</ele>
        <time>2013-08-17T09:02:12Z</time>
      </trkpt>
      <trkpt lat="45.8873" lon="6.1735">
        <ele>460.9</ele>
        <time>2013-08-17T09:02:13Z</time>
      </trkpt>
      <trkpt lat="45.88727" lon="6.17352">
        <ele>461.1</ele>
        <time>2013-08-17T09:02:14Z</time>
      </trkpt>
      <trkpt lat="45.88724" lon="6.17354">
        <ele>461.2</ele>
        <time>2013-08-17T09:02:16Z</time>
      </trkpt>
      <trkpt lat="45.8872" lon="6.17357">
        <ele>461.4</ele>
        <time>2013-08-17T09:02:17Z</time>
      </trkpt>
      <trkpt lat="45.88718" lon="6.17358">
        <ele>461.5</ele>
        <time>2013-08-17T09:02:18Z</time>
      </trkpt>
      <trkpt lat="45.88714" lon="6.1736">
        <ele>461.7</ele>
        <time>2013-08-17T09:02:20Z</time>
      </trkpt>
      <trkpt lat="45.88711" lon="6.17362">
        <ele>461.8</ele>
        <time>2013-08-17T09:02:21Z</time>
      </trkpt>
      <trkpt lat="45.88705" lon="6.17366">
        <ele>462.1</ele>
        <time>2013-08-17T09:02:23Z</time>
      </trkpt>
      <trkpt lat="45.88702" lon="6.17368">
        <ele>462.3</ele>
        <time>2013-08-17T09:02:24Z</time>
      </trkpt>
      <trkpt lat="45.88698" lon="6.17371">
        <ele>462.5</ele>
        <time>2013-08-17T09:02:25Z</time>
      </trkpt>
      <trkpt lat="45.88694" lon="6.17373">
        <ele>462.7</ele>
        <time>2013-08-17T09:02:26Z</time>
      </trkpt>
      <trkpt lat="45.88692" lon="6.17375">
        <ele>462.8</ele>
        <time>2013-08-17T09:02:27Z</time>
      </trkpt>
      <trkpt lat="45.88686" lon="6.1738">
        <ele>463.2</ele>
        <time>2013-08-17T09:02:29Z</time>
      </trkpt>
      <trkpt lat="45.8868" lon="6.17384">
        <ele>463.6</ele>
        <time>2013-08-17T09:02:58Z</time>
      </trkpt>
      <trkpt lat="45.88677" lon="6.17387">
        <ele>463.8</ele>
        <time>2013-08-17T09:03:00Z</time>
      </trkpt>
      <trkpt lat="45.88673" lon="6.1739">
        <ele>464.1</ele>
        <time>2013-08-17T09:03:01Z</time>
      </trkpt>
      <trkpt lat="45.8867" lon="6.17393">
        <ele>464.3</ele>
        <time>2013-08-17T09:03:02Z</time>
      </trkpt>
      <trkpt lat="45.88667" lon="6.17396">
        <ele>464.5</ele>
        <time>2013-08-17T09:03:03Z</time>
      </trkpt>
      <trkpt lat="45.88663" lon="6.17399">
        <ele>464.7</ele>
        <time>2013-08-17T09:03:04Z</time>
      </trkpt>
      <trkpt lat="45.8866" lon="6.17403">
        <ele>465</ele>
        <time>2013-08-17T09:03:05Z</time>
      </trkpt>
      <trkpt lat="45.88656" lon="6.17406">
        <ele>465.2</ele>
        <time>2013-08-17T09:03:06Z</time>
      </trkpt>
      <trkpt lat="45.88653" lon="6.1741">
        <ele>465.4</ele>
        <time>2013-08-17T09:03:07Z</time>
      </trkpt>
      <trkpt lat="45.8865" lon="6.17413">
        <ele>465.6</ele>
        <time>2013-08-17T09:03:08Z</time>
      </trkpt>
      <trkpt lat="45.88647" lon="6.17418">
        <ele>465.9</ele>
        <time>2013-08-17T09:03:09Z</time>
      </trkpt>
      <trkpt lat="45.88643" lon="6.17422">
        <ele>466.1</ele>
        <time>2013-08-17T09:03:10Z</time>
      </trkpt>
      <trkpt lat="45.88633" lon="6.1743">
        <ele>466.3</ele>
        <time>2013-08-17T09:03:12Z</time>
      </trkpt>
      <trkpt lat="45.88629" lon="6.17432">
        <ele>466.3</ele>
        <time>2013-08-17T09:03:13Z</time>
      </trkpt>
      <trkpt lat="45.88624" lon="6.17434">
        <ele>466.2</ele>
        <time>2013-08-17T09:03:14Z</time>
      </trkpt>
      <trkpt lat="45.88612" lon="6.1744">
        <ele>465.5</ele>
        <time>2013-08-17T09:03:15Z</time>
      </trkpt>
      <trkpt lat="45.88586" lon="6.17452">
        <ele>464.2</ele>
        <time>2013-08-17T09:03:17Z</time>
      </trkpt>
      <trkpt lat="45.88563" lon="6.17457">
        <ele>462.7</ele>
        <time>2013-08-17T09:03:19Z</time>
      </trkpt>
      <trkpt lat="45.88557" lon="6.17459">
        <ele>462.3</ele>
        <time>2013-08-17T09:03:20Z</time>
      </trkpt>
      <trkpt lat="45.88529" lon="6.1747">
        <ele>461.3</ele>
        <time>2013-08-17T09:03:22Z</time>
      </trkpt>
      <trkpt lat="45.88513" lon="6.17473">
        <ele>460.5</ele>
        <time>2013-08-17T09:03:23Z</time>
      </trkpt>
      <trkpt lat="45.88504" lon="6.17475">
        <ele>460</ele>
        <time>2013-08-17T09:03:24Z</time>
      </trkpt>
      <trkpt lat="45.88491" lon="6.17478">
        <ele>459.3</ele>
        <time>2013-08-17T09:03:25Z</time>
      </trkpt>
      <trkpt lat="45.88479" lon="6.17481">
        <ele>458.7</ele>
        <time>2013-08-17T09:03:26Z</time>
      </trkpt>
      <trkpt lat="45.88473" lon="6.17482">
        <ele>458.4</ele>
        <time>2013-08-17T09:03:27Z</time>
      </trkpt>
      <trkpt lat="45.88462" lon="6.17484">
        <ele>457.7</ele>
        <time>2013-08-17T09:03:28Z</time>
      </trkpt>
      <trkpt lat="45.88453" lon="6.17485">
        <ele>457.5</ele>
        <time>2013-08-17T09:03:29Z</time>
      </trkpt>
      <trkpt lat="45.88444" lon="6.17487">
        <ele>457.5</ele>
        <time>2013-08-17T09:03:30Z</time>
      </trkpt>
      <trkpt lat="45.88436" lon="6.1747">
        <ele>455.7</ele>
        <time>2013-08-17T09:03:31Z</time>
      </trkpt>
      <trkpt lat="45.88429" lon="6.17474">
        <ele>455.8</ele>
        <time>2013-08-17T09:03:32Z</time>
      </trkpt>
      <trkpt lat="45.88418" lon="6.17475">
        <ele>455.7</ele>
        <time>2013-08-17T09:03:33Z</time>
      </trkpt>
      <trkpt lat="45.88409" lon="6.17477">
        <ele>455.8</ele>
        <time>2013-08-17T09:03:34Z</time>
      </trkpt>
      <trkpt lat="45.88406" lon="6.17496">
        <ele>457.6</ele>
        <time>2013-08-17T09:03:35Z</time>
      </trkpt>
      <trkpt lat="45.884" lon="6.17497">
        <ele>457.7</ele>
        <time>2013-08-17T09:03:36Z</time>
      </trkpt>
      <trkpt lat="45.88394" lon="6.17499">
        <ele>457.7</ele>
        <time>2013-08-17T09:03:37Z</time>
      </trkpt>
      <trkpt lat="45.8839" lon="6.175">
        <ele>457.7</ele>
        <time>2013-08-17T09:03:38Z</time>
      </trkpt>
      <trkpt lat="45.88367" lon="6.17505">
        <ele>457.8</ele>
        <time>2013-08-17T09:03:40Z</time>
      </trkpt>
      <trkpt lat="45.88358" lon="6.17507">
        <ele>457.8</ele>
        <time>2013-08-17T09:03:41Z</time>
      </trkpt>
      <trkpt lat="45.88352" lon="6.17508">
        <ele>457.7</ele>
        <time>2013-08-17T09:03:42Z</time>
      </trkpt>
      <trkpt lat="45.8834" lon="6.17511">
        <ele>457.7</ele>
        <time>2013-08-17T09:03:43Z</time>
      </trkpt>
      <trkpt lat="45.88332" lon="6.17514">
        <ele>457.6</ele>
        <time>2013-08-17T09:03:44Z</time>
      </trkpt>
      <trkpt lat="45.88325" lon="6.17515">
        <ele>457.5</ele>
        <time>2013-08-17T09:03:45Z</time>
      </trkpt>
      <trkpt lat="45.8832" lon="6.17517">
        <ele>457.4</ele>
        <time>2013-08-17T09:03:46Z</time>
      </trkpt>
      <trkpt lat="45.88314" lon="6.17518">
        <ele>457.4</ele>
        <time>2013-08-17T09:03:47Z</time>
      </trkpt>
      <trkpt lat="45.88308" lon="6.1752">
        <ele>457.3</ele>
        <time>2013-08-17T09:03:48Z</time>
      </trkpt>
      <trkpt lat="45.88302" lon="6.17521">
        <ele>457.2</ele>
        <time>2013-08-17T09:03:49Z</time>
      </trkpt>
      <trkpt lat="45.88296" lon="6.17523">
        <ele>457</ele>
        <time>2013-08-17T09:03:50Z</time>
      </trkpt>
      <trkpt lat="45.88288" lon="6.17526">
        <ele>456.8</ele>
        <time>2013-08-17T09:03:51Z</time>
      </trkpt>
      <trkpt lat="45.88282" lon="6.17528">
        <ele>456.6</ele>
        <time>2013-08-17T09:03:52Z</time>
      </trkpt>
      <trkpt lat="45.88267" lon="6.17533">
        <ele>456</ele>
        <time>2013-08-17T09:03:54Z</time>
      </trkpt>
      <trkpt lat="45.8826" lon="6.17535">
        <ele>455.8</ele>
        <time>2013-08-17T09:03:55Z</time>
      </trkpt>
      <trkpt lat="45.88254" lon="6.17538">
        <ele>455.5</ele>
        <time>2013-08-17T09:03:56Z</time>
      </trkpt>
      <trkpt lat="45.88248" lon="6.1754">
        <ele>455.3</ele>
        <time>2013-08-17T09:03:57Z</time>
      </trkpt>
      <trkpt lat="45.88241" lon="6.17543">
        <ele>455</ele>
        <time>2013-08-17T09:03:59Z</time>
      </trkpt>
      <trkpt lat="45.88236" lon="6.17545">
        <ele>454.9</ele>
        <time>2013-08-17T09:04:00Z</time>
      </trkpt>
      <trkpt lat="45.88233" lon="6.17546">
        <ele>454.8</ele>
        <time>2013-08-17T09:04:01Z</time>
      </trkpt>
      <trkpt lat="45.88222" lon="6.1753">
        <ele>453.4</ele>
        <time>2013-08-17T09:04:02Z</time>
      </trkpt>
      <trkpt lat="45.88209" lon="6.1751">
        <ele>451.9</ele>
        <time>2013-08-17T09:04:03Z</time>
      </trkpt>
      <trkpt lat="45.88197" lon="6.17513">
        <ele>451.6</ele>
        <time>2013-08-17T09:04:04Z</time>
      </trkpt>
      <trkpt lat="45.88189" lon="6.17517">
        <ele>451.6</ele>
        <time>2013-08-17T09:04:05Z</time>
      </trkpt>
      <trkpt lat="45.88188" lon="6.17542">
        <ele>452.5</ele>
        <time>2013-08-17T09:04:06Z</time>
      </trkpt>
      <trkpt lat="45.88183" lon="6.17544">
        <ele>452.6</ele>
        <time>2013-08-17T09:04:07Z</time>
      </trkpt>
      <trkpt lat="45.88177" lon="6.17547">
        <ele>452.6</ele>
        <time>2013-08-17T09:04:08Z</time>
      </trkpt>
      <trkpt lat="45.8817" lon="6.17551">
        <ele>452.7</ele>
        <time>2013-08-17T09:04:09Z</time>
      </trkpt>
      <trkpt lat="45.88165" lon="6.17553">
        <ele>452.7</ele>
        <time>2013-08-17T09:04:10Z</time>
      </trkpt>
      <trkpt lat="45.88158" lon="6.17557">
        <ele>452.8</ele>
        <time>2013-08-17T09:04:11Z</time>
      </trkpt>
      <trkpt lat="45.88152" lon="6.1756">
        <ele>452.8</ele>
        <time>2013-08-17T09:04:12Z</time>
      </trkpt>
      <trkpt lat="45.88146" lon="6.17563">
        <ele>452.9</ele>
        <time>2013-08-17T09:04:13Z</time>
      </trkpt>
      <trkpt lat="45.8814" lon="6.17566">
        <ele>452.9</ele>
        <time>2013-08-17T09:04:14Z</time>
      </trkpt>
      <trkpt lat="45.88121" lon="6.17576">
        <ele>453.1</ele>
        <time>2013-08-17T09:04:17Z</time>
      </trkpt>
      <trkpt lat="45.88116" lon="6.17578">
        <ele>453.3</ele>
        <time>2013-08-17T09:04:18Z</time>
      </trkpt>
      <trkpt lat="45.88112" lon="6.1758">
        <ele>453.4</ele>
        <time>2013-08-17T09:04:19Z</time>
      </trkpt>
      <trkpt lat="45.88109" lon="6.17582">
        <ele>453.5</ele>
        <time>2013-08-17T09:04:20Z</time>
      </trkpt>
      <trkpt lat="45.88103" lon="6.17585">
        <ele>453.7</ele>
        <time>2013-08-17T09:04:21Z</time>
      </trkpt>
      <trkpt lat="45.88099" lon="6.17587">
        <ele>453.9</ele>
        <time>2013-08-17T09:04:22Z</time>
      </trkpt>
      <trkpt lat="45.88095" lon="6.17589">
        <ele>454</ele>
        <time>2013-08-17T09:04:23Z</time>
      </trkpt>
      <trkpt lat="45.88091" lon="6.17591">
        <ele>454.1</ele>
        <time>2013-08-17T09:04:24Z</time>
      </trkpt>
      <trkpt lat="45.8808" lon="6.17596">
        <ele>454.5</ele>
        <time>2013-08-17T09:04:26Z</time>
      </trkpt>
      <trkpt lat="45.88071" lon="6.176">
        <ele>454.7</ele>
        <time>2013-08-17T09:04:28Z</time>
      </trkpt>
      <trkpt lat="45.88055" lon="6.17605">
        <ele>455</ele>
        <time>2013-08-17T09:04:31Z</time>
      </trkpt>
      <trkpt lat="45.88049" lon="6.17606">
        <ele>455.1</ele>
        <time>2013-08-17T09:04:32Z</time>
      </trkpt>
      <trkpt lat="45.88044" lon="6.17608">
        <ele>455.2</ele>
        <time>2013-08-17T09:04:33Z</time>
      </trkpt>
      <trkpt lat="45.88039" lon="6.17609">
        <ele>455.2</ele>
        <time>2013-08-17T09:04:34Z</time>
      </trkpt>
      <trkpt lat="45.88035" lon="6.1761">
        <ele>455.3</ele>
        <time>2013-08-17T09:04:35Z</time>
      </trkpt>
      <trkpt lat="45.8803" lon="6.17611">
        <ele>455.3</ele>
        <time>2013-08-17T09:04:36Z</time>
      </trkpt>
      <trkpt lat="45.88025" lon="6.17613">
        <ele>455.4</ele>
        <time>2013-08-17T09:04:37Z</time>
      </trkpt>
      <trkpt lat="45.88021" lon="6.17614">
        <ele>455.4</ele>
        <time>2013-08-17T09:04:38Z</time>
      </trkpt>
      <trkpt lat="45.88018" lon="6.17615">
        <ele>455.4</ele>
        <time>2013-08-17T09:04:39Z</time>
      </trkpt>
      <trkpt lat="45.88009" lon="6.17617">
        <ele>455.6</ele>
        <time>2013-08-17T09:04:41Z</time>
      </trkpt>
      <trkpt lat="45.88003" lon="6.17619">
        <ele>455.6</ele>
        <time>2013-08-17T09:04:42Z</time>
      </trkpt>
      <trkpt lat="45.87997" lon="6.17621">
        <ele>455.7</ele>
        <time>2013-08-17T09:04:43Z</time>
      </trkpt>
      <trkpt lat="45.87993" lon="6.17622">
        <ele>455.8</ele>
        <time>2013-08-17T09:04:44Z</time>
      </trkpt>
      <trkpt lat="45.87988" lon="6.17623">
        <ele>455.9</ele>
        <time>2013-08-17T09:04:45Z</time>
      </trkpt>
      <trkpt lat="45.87984" lon="6.17625">
        <ele>456</ele>
        <time>2013-08-17T09:04:46Z</time>
      </trkpt>
      <trkpt lat="45.87981" lon="6.17626">
        <ele>456.1</ele>
        <time>2013-08-17T09:04:47Z</time>
      </trkpt>
      <trkpt lat="45.87967" lon="6.17627">
        <ele>456.1</ele>
        <time>2013-08-17T09:04:49Z</time>
      </trkpt>
      <trkpt lat="45.87963" lon="6.17627">
        <ele>456.2</ele>
        <time>2013-08-17T09:04:50Z</time>
      </trkpt>
      <trkpt lat="45.87956" lon="6.17629">
        <ele>456.3</ele>
        <time>2013-08-17T09:04:51Z</time>
      </trkpt>
      <trkpt lat="45.87953" lon="6.17631">
        <ele>456.3</ele>
        <time>2013-08-17T09:04:52Z</time>
      </trkpt>
      <trkpt lat="45.87947" lon="6.17633">
        <ele>456.4</ele>
        <time>2013-08-17T09:04:53Z</time>
      </trkpt>
      <trkpt lat="45.87943" lon="6.17635">
        <ele>456.4</ele>
        <time>2013-08-17T09:04:54Z</time>
      </trkpt>
      <trkpt lat="45.87938" lon="6.17637">
        <ele>456.5</ele>
        <time>2013-08-17T09:04:55Z</time>
      </trkpt>
      <trkpt lat="45.87932" lon="6.17639">
        <ele>456.5</ele>
        <time>2013-08-17T09:04:56Z</time>
      </trkpt>
      <trkpt lat="45.87929" lon="6.17641">
        <ele>456.6</ele>
        <time>2013-08-17T09:04:57Z</time>
      </trkpt>
      <trkpt lat="45.87927" lon="6.17642">
        <ele>456.6</ele>
        <time>2013-08-17T09:04:58Z</time>
      </trkpt>
      <trkpt lat="45.87922" lon="6.17645">
        <ele>456.7</ele>
        <time>2013-08-17T09:04:59Z</time>
      </trkpt>
      <trkpt lat="45.87917" lon="6.1765">
        <ele>456.9</ele>
        <time>2013-08-17T09:05:00Z</time>
      </trkpt>
      <trkpt lat="45.87914" lon="6.17653">
        <ele>457.1</ele>
        <time>2013-08-17T09:05:01Z</time>
      </trkpt>
      <trkpt lat="45.8791" lon="6.17658">
        <ele>457.3</ele>
        <time>2013-08-17T09:05:02Z</time>
      </trkpt>
      <trkpt lat="45.87907" lon="6.17661">
        <ele>457.5</ele>
        <time>2013-08-17T09:05:03Z</time>
      </trkpt>
      <trkpt lat="45.87903" lon="6.17665">
        <ele>457.7</ele>
        <time>2013-08-17T09:05:04Z</time>
      </trkpt>
      <trkpt lat="45.87899" lon="6.17669">
        <ele>457.9</ele>
        <time>2013-08-17T09:05:05Z</time>
      </trkpt>
      <trkpt lat="45.87896" lon="6.17672">
        <ele>458</ele>
        <time>2013-08-17T09:05:06Z</time>
      </trkpt>
      <trkpt lat="45.87893" lon="6.17676">
        <ele>458.2</ele>
        <time>2013-08-17T09:05:07Z</time>
      </trkpt>
      <trkpt lat="45.8789" lon="6.17679">
        <ele>458.4</ele>
        <time>2013-08-17T09:05:08Z</time>
      </trkpt>
      <trkpt lat="45.87887" lon="6.17683">
        <ele>458.5</ele>
        <time>2013-08-17T09:05:09Z</time>
      </trkpt>
      <trkpt lat="45.87881" lon="6.17701">
        <ele>459.7</ele>
        <time>2013-08-17T09:05:13Z</time>
      </trkpt>
      <trkpt lat="45.87879" lon="6.17707">
        <ele>460</ele>
        <time>2013-08-17T09:05:14Z</time>
      </trkpt>
      <trkpt lat="45.87877" lon="6.17711">
        <ele>460.2</ele>
        <time>2013-08-17T09:05:15Z</time>
      </trkpt>
      <trkpt lat="45.87875" lon="6.17717">
        <ele>460.5</ele>
        <time>2013-08-17T09:05:17Z</time>
      </trkpt>
      <trkpt lat="45.87873" lon="6.17723">
        <ele>460.8</ele>
        <time>2013-08-17T09:05:19Z</time>
      </trkpt>
      <trkpt lat="45.87872" lon="6.17727">
        <ele>461</ele>
        <time>2013-08-17T09:05:20Z</time>
      </trkpt>
      <trkpt lat="45.8787" lon="6.17731">
        <ele>461.1</ele>
        <time>2013-08-17T09:05:21Z</time>
      </trkpt>
      <trkpt lat="45.87868" lon="6.17735">
        <ele>461.3</ele>
        <time>2013-08-17T09:05:22Z</time>
      </trkpt>
      <trkpt lat="45.87866" lon="6.1774">
        <ele>461.6</ele>
        <time>2013-08-17T09:05:23Z</time>
      </trkpt>
      <trkpt lat="45.87861" lon="6.1775">
        <ele>462.1</ele>
        <time>2013-08-17T09:05:24Z</time>
      </trkpt>
      <trkpt lat="45.87858" lon="6.17755">
        <ele>462.3</ele>
        <time>2013-08-17T09:05:26Z</time>
      </trkpt>
      <trkpt lat="45.87856" lon="6.17759">
        <ele>462.5</ele>
        <time>2013-08-17T09:05:27Z</time>
      </trkpt>
      <trkpt lat="45.87852" lon="6.17764">
        <ele>462.8</ele>
        <time>2013-08-17T09:05:28Z</time>
      </trkpt>
      <trkpt lat="45.87844" lon="6.17775">
        <ele>463.4</ele>
        <time>2013-08-17T09:05:29Z</time>
      </trkpt>
      <trkpt lat="45.87841" lon="6.17779">
        <ele>463.7</ele>
        <time>2013-08-17T09:05:30Z</time>
      </trkpt>
      <trkpt lat="45.87838" lon="6.17783">
        <ele>463.9</ele>
        <time>2013-08-17T09:05:31Z</time>
      </trkpt>
      <trkpt lat="45.87835" lon="6.17788">
        <ele>464.2</ele>
        <time>2013-08-17T09:05:32Z</time>
      </trkpt>
      <trkpt lat="45.87833" lon="6.1779">
        <ele>464.4</ele>
        <time>2013-08-17T09:05:33Z</time>
      </trkpt>
      <trkpt lat="45.87829" lon="6.17796">
        <ele>464.7</ele>
        <time>2013-08-17T09:05:34Z</time>
      </trkpt>
      <trkpt lat="45.87827" lon="6.17799">
        <ele>464.8</ele>
        <time>2013-08-17T09:05:35Z</time>
      </trkpt>
      <trkpt lat="45.87823" lon="6.17804">
        <ele>465</ele>
        <time>2013-08-17T09:05:36Z</time>
      </trkpt>
      <trkpt lat="45.8782" lon="6.17809">
        <ele>465.2</ele>
        <time>2013-08-17T09:05:37Z</time>
      </trkpt>
      <trkpt lat="45.87817" lon="6.17813">
        <ele>465.3</ele>
        <time>2013-08-17T09:05:38Z</time>
      </trkpt>
      <trkpt lat="45.87813" lon="6.17817">
        <ele>465.5</ele>
        <time>2013-08-17T09:05:39Z</time>
      </trkpt>
      <trkpt lat="45.87811" lon="6.17821">
        <ele>465.6</ele>
        <time>2013-08-17T09:05:40Z</time>
      </trkpt>
      <trkpt lat="45.87808" lon="6.17825">
        <ele>465.8</ele>
        <time>2013-08-17T09:05:41Z</time>
      </trkpt>
      <trkpt lat="45.87804" lon="6.1783">
        <ele>466</ele>
        <time>2013-08-17T09:05:42Z</time>
      </trkpt>
      <trkpt lat="45.87797" lon="6.1784">
        <ele>466.4</ele>
        <time>2013-08-17T09:05:43Z</time>
      </trkpt>
      <trkpt lat="45.87793" lon="6.17845">
        <ele>466.6</ele>
        <time>2013-08-17T09:05:44Z</time>
      </trkpt>
      <trkpt lat="45.87789" lon="6.17851">
        <ele>466.9</ele>
        <time>2013-08-17T09:05:45Z</time>
      </trkpt>
      <trkpt lat="45.87786" lon="6.17855">
        <ele>467.1</ele>
        <time>2013-08-17T09:05:46Z</time>
      </trkpt>
      <trkpt lat="45.87782" lon="6.17861">
        <ele>467.5</ele>
        <time>2013-08-17T09:05:47Z</time>
      </trkpt>
      <trkpt lat="45.87779" lon="6.17865">
        <ele>467.8</ele>
        <time>2013-08-17T09:05:48Z</time>
      </trkpt>
      <trkpt lat="45.87776" lon="6.17871">
        <ele>468.2</ele>
        <time>2013-08-17T09:05:49Z</time>
      </trkpt>
      <trkpt lat="45.87773" lon="6.17875">
        <ele>468.4</ele>
        <time>2013-08-17T09:05:50Z</time>
      </trkpt>
      <trkpt lat="45.87769" lon="6.17882">
        <ele>468.8</ele>
        <time>2013-08-17T09:05:52Z</time>
      </trkpt>
      <trkpt lat="45.87767" lon="6.17885">
        <ele>469</ele>
        <time>2013-08-17T09:05:53Z</time>
      </trkpt>
      <trkpt lat="45.87765" lon="6.17889">
        <ele>469.2</ele>
        <time>2013-08-17T09:05:54Z</time>
      </trkpt>
      <trkpt lat="45.87763" lon="6.17891">
        <ele>469.3</ele>
        <time>2013-08-17T09:05:55Z</time>
      </trkpt>
      <trkpt lat="45.8776" lon="6.17896">
        <ele>469.6</ele>
        <time>2013-08-17T09:05:57Z</time>
      </trkpt>
      <trkpt lat="45.87751" lon="6.17903">
        <ele>470</ele>
        <time>2013-08-17T09:05:59Z</time>
      </trkpt>
      <trkpt lat="45.87745" lon="6.17906">
        <ele>470.2</ele>
        <time>2013-08-17T09:06:02Z</time>
      </trkpt>
      <trkpt lat="45.87738" lon="6.17909">
        <ele>470.4</ele>
        <time>2013-08-17T09:06:04Z</time>
      </trkpt>
      <trkpt lat="45.87735" lon="6.17909">
        <ele>470.4</ele>
        <time>2013-08-17T09:06:05Z</time>
      </trkpt>
      <trkpt lat="45.8773" lon="6.1791">
        <ele>470.5</ele>
        <time>2013-08-17T09:06:07Z</time>
      </trkpt>
      <trkpt lat="45.87726" lon="6.1791">
        <ele>470.6</ele>
        <time>2013-08-17T09:06:09Z</time>
      </trkpt>
      <trkpt lat="45.8772" lon="6.1791">
        <ele>470.7</ele>
        <time>2013-08-17T09:06:11Z</time>
      </trkpt>
      <trkpt lat="45.87717" lon="6.17911">
        <ele>470.7</ele>
        <time>2013-08-17T09:06:12Z</time>
      </trkpt>
      <trkpt lat="45.87713" lon="6.17911">
        <ele>470.8</ele>
        <time>2013-08-17T09:06:13Z</time>
      </trkpt>
      <trkpt lat="45.87708" lon="6.17912">
        <ele>470.9</ele>
        <time>2013-08-17T09:06:14Z</time>
      </trkpt>
      <trkpt lat="45.87705" lon="6.17912">
        <ele>470.8</ele>
        <time>2013-08-17T09:06:15Z</time>
      </trkpt>
      <trkpt lat="45.877" lon="6.17912">
        <ele>470.7</ele>
        <time>2013-08-17T09:06:16Z</time>
      </trkpt>
      <trkpt lat="45.87697" lon="6.17913">
        <ele>470.7</ele>
        <time>2013-08-17T09:06:17Z</time>
      </trkpt>
      <trkpt lat="45.87694" lon="6.17913">
        <ele>470.6</ele>
        <time>2013-08-17T09:06:18Z</time>
      </trkpt>
      <trkpt lat="45.87691" lon="6.17913">
        <ele>470.6</ele>
        <time>2013-08-17T09:06:19Z</time>
      </trkpt>
      <trkpt lat="45.87687" lon="6.17914">
        <ele>470.5</ele>
        <time>2013-08-17T09:06:20Z</time>
      </trkpt>
      <trkpt lat="45.87683" lon="6.17914">
        <ele>470.5</ele>
        <time>2013-08-17T09:06:21Z</time>
      </trkpt>
      <trkpt lat="45.8768" lon="6.17914">
        <ele>470.4</ele>
        <time>2013-08-17T09:06:22Z</time>
      </trkpt>
      <trkpt lat="45.87677" lon="6.17915">
        <ele>470.4</ele>
        <time>2013-08-17T09:06:23Z</time>
      </trkpt>
      <trkpt lat="45.87674" lon="6.17915">
        <ele>470.3</ele>
        <time>2013-08-17T09:06:24Z</time>
      </trkpt>
      <trkpt lat="45.8767" lon="6.17916">
        <ele>470.3</ele>
        <time>2013-08-17T09:06:26Z</time>
      </trkpt>
      <trkpt lat="45.87668" lon="6.17916">
        <ele>470.2</ele>
        <time>2013-08-17T09:06:27Z</time>
      </trkpt>
      <trkpt lat="45.87663" lon="6.17917">
        <ele>470.2</ele>
        <time>2013-08-17T09:06:29Z</time>
      </trkpt>
      <trkpt lat="45.87659" lon="6.17917">
        <ele>470.1</ele>
        <time>2013-08-17T09:06:30Z</time>
      </trkpt>
      <trkpt lat="45.87655" lon="6.17918">
        <ele>470.1</ele>
        <time>2013-08-17T09:06:31Z</time>
      </trkpt>
      <trkpt lat="45.8765" lon="6.17919">
        <ele>470</ele>
        <time>2013-08-17T09:06:32Z</time>
      </trkpt>
      <trkpt lat="45.87646" lon="6.1792">
        <ele>470</ele>
        <time>2013-08-17T09:06:33Z</time>
      </trkpt>
      <trkpt lat="45.87642" lon="6.1792">
        <ele>469.9</ele>
        <time>2013-08-17T09:06:34Z</time>
      </trkpt>
      <trkpt lat="45.87638" lon="6.17921">
        <ele>469.9</ele>
        <time>2013-08-17T09:06:35Z</time>
      </trkpt>
      <trkpt lat="45.87615" lon="6.17929">
        <ele>469.2</ele>
        <time>2013-08-17T09:06:39Z</time>
      </trkpt>
      <trkpt lat="45.87608" lon="6.17931">
        <ele>468.7</ele>
        <time>2013-08-17T09:06:40Z</time>
      </trkpt>
      <trkpt lat="45.87602" lon="6.17933">
        <ele>468.4</ele>
        <time>2013-08-17T09:06:41Z</time>
      </trkpt>
      <trkpt lat="45.87598" lon="6.17936">
        <ele>468.2</ele>
        <time>2013-08-17T09:06:42Z</time>
      </trkpt>
      <trkpt lat="45.87593" lon="6.17938">
        <ele>468</ele>
        <time>2013-08-17T09:06:43Z</time>
      </trkpt>
      <trkpt lat="45.8759" lon="6.1794">
        <ele>467.9</ele>
        <time>2013-08-17T09:06:44Z</time>
      </trkpt>
      <trkpt lat="45.87586" lon="6.17942">
        <ele>467.7</ele>
        <time>2013-08-17T09:06:45Z</time>
      </trkpt>
      <trkpt lat="45.87581" lon="6.17945">
        <ele>467.6</ele>
        <time>2013-08-17T09:06:46Z</time>
      </trkpt>
      <trkpt lat="45.87575" lon="6.17949">
        <ele>467.4</ele>
        <time>2013-08-17T09:06:47Z</time>
      </trkpt>
      <trkpt lat="45.87571" lon="6.17952">
        <ele>467.3</ele>
        <time>2013-08-17T09:06:48Z</time>
      </trkpt>
      <trkpt lat="45.87551" lon="6.17963">
        <ele>466.9</ele>
        <time>2013-08-17T09:06:51Z</time>
      </trkpt>
      <trkpt lat="45.87547" lon="6.17966">
        <ele>466.8</ele>
        <time>2013-08-17T09:06:52Z</time>
      </trkpt>
      <trkpt lat="45.8753" lon="6.17978">
        <ele>466.5</ele>
        <time>2013-08-17T09:06:55Z</time>
      </trkpt>
      <trkpt lat="45.87524" lon="6.17983">
        <ele>466.3</ele>
        <time>2013-08-17T09:06:56Z</time>
      </trkpt>
      <trkpt lat="45.87519" lon="6.17987">
        <ele>466.2</ele>
        <time>2013-08-17T09:06:57Z</time>
      </trkpt>
      <trkpt lat="45.87514" lon="6.1799">
        <ele>466.1</ele>
        <time>2013-08-17T09:06:58Z</time>
      </trkpt>
      <trkpt lat="45.87509" lon="6.17994">
        <ele>466</ele>
        <time>2013-08-17T09:06:59Z</time>
      </trkpt>
      <trkpt lat="45.87504" lon="6.17998">
        <ele>465.9</ele>
        <time>2013-08-17T09:07:00Z</time>
      </trkpt>
      <trkpt lat="45.87501" lon="6.18001">
        <ele>465.9</ele>
        <time>2013-08-17T09:07:01Z</time>
      </trkpt>
      <trkpt lat="45.87484" lon="6.18014">
        <ele>465.6</ele>
        <time>2013-08-17T09:07:04Z</time>
      </trkpt>
      <trkpt lat="45.87477" lon="6.18019">
        <ele>465.5</ele>
        <time>2013-08-17T09:07:05Z</time>
      </trkpt>
      <trkpt lat="45.87471" lon="6.18024">
        <ele>465.4</ele>
        <time>2013-08-17T09:07:06Z</time>
      </trkpt>
      <trkpt lat="45.87457" lon="6.18034">
        <ele>465.2</ele>
        <time>2013-08-17T09:07:09Z</time>
      </trkpt>
      <trkpt lat="45.8745" lon="6.18039">
        <ele>465.1</ele>
        <time>2013-08-17T09:07:10Z</time>
      </trkpt>
      <trkpt lat="45.87445" lon="6.18042">
        <ele>465.1</ele>
        <time>2013-08-17T09:07:11Z</time>
      </trkpt>
      <trkpt lat="45.87429" lon="6.18054">
        <ele>465</ele>
        <time>2013-08-17T09:07:14Z</time>
      </trkpt>
      <trkpt lat="45.87424" lon="6.18059">
        <ele>465</ele>
        <time>2013-08-17T09:07:15Z</time>
      </trkpt>
      <trkpt lat="45.87418" lon="6.18064">
        <ele>465</ele>
        <time>2013-08-17T09:07:16Z</time>
      </trkpt>
      <trkpt lat="45.87413" lon="6.18067">
        <ele>465.1</ele>
        <time>2013-08-17T09:07:17Z</time>
      </trkpt>
      <trkpt lat="45.87408" lon="6.18072">
        <ele>465.1</ele>
        <time>2013-08-17T09:07:18Z</time>
      </trkpt>
      <trkpt lat="45.87389" lon="6.18086">
        <ele>465.2</ele>
        <time>2013-08-17T09:07:22Z</time>
      </trkpt>
      <trkpt lat="45.87384" lon="6.1809">
        <ele>465.2</ele>
        <time>2013-08-17T09:07:23Z</time>
      </trkpt>
      <trkpt lat="45.87379" lon="6.18094">
        <ele>465.3</ele>
        <time>2013-08-17T09:07:24Z</time>
      </trkpt>
      <trkpt lat="45.87375" lon="6.18098">
        <ele>465.3</ele>
        <time>2013-08-17T09:07:25Z</time>
      </trkpt>
      <trkpt lat="45.8737" lon="6.18101">
        <ele>465.3</ele>
        <time>2013-08-17T09:07:26Z</time>
      </trkpt>
      <trkpt lat="45.87365" lon="6.18104">
        <ele>465.1</ele>
        <time>2013-08-17T09:07:27Z</time>
      </trkpt>
      <trkpt lat="45.87361" lon="6.18107">
        <ele>465</ele>
        <time>2013-08-17T09:07:28Z</time>
      </trkpt>
      <trkpt lat="45.87358" lon="6.18109">
        <ele>465</ele>
        <time>2013-08-17T09:07:29Z</time>
      </trkpt>
      <trkpt lat="45.87353" lon="6.18112">
        <ele>464.8</ele>
        <time>2013-08-17T09:07:30Z</time>
      </trkpt>
      <trkpt lat="45.87348" lon="6.18115">
        <ele>464.7</ele>
        <time>2013-08-17T09:07:31Z</time>
      </trkpt>
      <trkpt lat="45.87344" lon="6.18117">
        <ele>464.6</ele>
        <time>2013-08-17T09:07:32Z</time>
      </trkpt>
      <trkpt lat="45.87337" lon="6.18121">
        <ele>464.5</ele>
        <time>2013-08-17T09:07:33Z</time>
      </trkpt>
      <trkpt lat="45.87332" lon="6.18125">
        <ele>464.4</ele>
        <time>2013-08-17T09:07:34Z</time>
      </trkpt>
      <trkpt lat="45.87327" lon="6.18128">
        <ele>464.3</ele>
        <time>2013-08-17T09:07:35Z</time>
      </trkpt>
      <trkpt lat="45.87322" lon="6.18131">
        <ele>464.3</ele>
        <time>2013-08-17T09:07:36Z</time>
      </trkpt>
      <trkpt lat="45.87317" lon="6.18134">
        <ele>464.3</ele>
        <time>2013-08-17T09:07:37Z</time>
      </trkpt>
      <trkpt lat="45.87312" lon="6.18137">
        <ele>464.3</ele>
        <time>2013-08-17T09:07:38Z</time>
      </trkpt>
      <trkpt lat="45.87308" lon="6.1814">
        <ele>464.3</ele>
        <time>2013-08-17T09:07:39Z</time>
      </trkpt>
      <trkpt lat="45.87303" lon="6.18143">
        <ele>464.3</ele>
        <time>2013-08-17T09:07:40Z</time>
      </trkpt>
      <trkpt lat="45.87299" lon="6.18146">
        <ele>464.3</ele>
        <time>2013-08-17T09:07:41Z</time>
      </trkpt>
      <trkpt lat="45.87295" lon="6.18149">
        <ele>464.3</ele>
        <time>2013-08-17T09:07:42Z</time>
      </trkpt>
      <trkpt lat="45.8729" lon="6.18151">
        <ele>464.3</ele>
        <time>2013-08-17T09:07:43Z</time>
      </trkpt>
      <trkpt lat="45.87284" lon="6.18155">
        <ele>464.2</ele>
        <time>2013-08-17T09:07:44Z</time>
      </trkpt>
      <trkpt lat="45.87279" lon="6.18158">
        <ele>464.1</ele>
        <time>2013-08-17T09:07:45Z</time>
      </trkpt>
      <trkpt lat="45.87273" lon="6.18161">
        <ele>463.9</ele>
        <time>2013-08-17T09:07:46Z</time>
      </trkpt>
      <trkpt lat="45.87267" lon="6.18164">
        <ele>463.8</ele>
        <time>2013-08-17T09:07:47Z</time>
      </trkpt>
      <trkpt lat="45.87262" lon="6.18167">
        <ele>463.7</ele>
        <time>2013-08-17T09:07:48Z</time>
      </trkpt>
      <trkpt lat="45.87256" lon="6.1817">
        <ele>463.5</ele>
        <time>2013-08-17T09:07:49Z</time>
      </trkpt>
      <trkpt lat="45.87254" lon="6.18171">
        <ele>463.5</ele>
        <time>2013-08-17T09:07:50Z</time>
      </trkpt>
      <trkpt lat="45.87248" lon="6.18175">
        <ele>463.3</ele>
        <time>2013-08-17T09:07:51Z</time>
      </trkpt>
      <trkpt lat="45.87243" lon="6.18177">
        <ele>463.2</ele>
        <time>2013-08-17T09:07:52Z</time>
      </trkpt>
      <trkpt lat="45.87238" lon="6.1818">
        <ele>463</ele>
        <time>2013-08-17T09:07:53Z</time>
      </trkpt>
      <trkpt lat="45.87234" lon="6.18181">
        <ele>462.9</ele>
        <time>2013-08-17T09:07:54Z</time>
      </trkpt>
      <trkpt lat="45.8723" lon="6.18184">
        <ele>462.8</ele>
        <time>2013-08-17T09:07:55Z</time>
      </trkpt>
      <trkpt lat="45.87225" lon="6.18186">
        <ele>462.6</ele>
        <time>2013-08-17T09:07:56Z</time>
      </trkpt>
      <trkpt lat="45.87219" lon="6.18189">
        <ele>462.4</ele>
        <time>2013-08-17T09:07:57Z</time>
      </trkpt>
      <trkpt lat="45.87216" lon="6.1819">
        <ele>462.3</ele>
        <time>2013-08-17T09:07:58Z</time>
      </trkpt>
      <trkpt lat="45.87211" lon="6.18192">
        <ele>462.2</ele>
        <time>2013-08-17T09:07:59Z</time>
      </trkpt>
      <trkpt lat="45.87207" lon="6.18194">
        <ele>462</ele>
        <time>2013-08-17T09:08:00Z</time>
      </trkpt>
      <trkpt lat="45.872" lon="6.18197">
        <ele>461.8</ele>
        <time>2013-08-17T09:08:01Z</time>
      </trkpt>
      <trkpt lat="45.87197" lon="6.18199">
        <ele>461.6</ele>
        <time>2013-08-17T09:08:02Z</time>
      </trkpt>
      <trkpt lat="45.87192" lon="6.18201">
        <ele>461.4</ele>
        <time>2013-08-17T09:08:03Z</time>
      </trkpt>
      <trkpt lat="45.87188" lon="6.18203">
        <ele>461.3</ele>
        <time>2013-08-17T09:08:04Z</time>
      </trkpt>
      <trkpt lat="45.87183" lon="6.18206">
        <ele>461</ele>
        <time>2013-08-17T09:08:05Z</time>
      </trkpt>
      <trkpt lat="45.87176" lon="6.18209">
        <ele>460.6</ele>
        <time>2013-08-17T09:08:06Z</time>
      </trkpt>
      <trkpt lat="45.87173" lon="6.18211">
        <ele>460.5</ele>
        <time>2013-08-17T09:08:07Z</time>
      </trkpt>
      <trkpt lat="45.87168" lon="6.18214">
        <ele>460.2</ele>
        <time>2013-08-17T09:08:08Z</time>
      </trkpt>
      <trkpt lat="45.87162" lon="6.18216">
        <ele>460</ele>
        <time>2013-08-17T09:08:09Z</time>
      </trkpt>
      <trkpt lat="45.87156" lon="6.1822">
        <ele>459.7</ele>
        <time>2013-08-17T09:08:10Z</time>
      </trkpt>
      <trkpt lat="45.8715" lon="6.18223">
        <ele>459.4</ele>
        <time>2013-08-17T09:08:11Z</time>
      </trkpt>
      <trkpt lat="45.87143" lon="6.18227">
        <ele>459.1</ele>
        <time>2013-08-17T09:08:12Z</time>
      </trkpt>
      <trkpt lat="45.87134" lon="6.18233">
        <ele>458.6</ele>
        <time>2013-08-17T09:08:13Z</time>
      </trkpt>
      <trkpt lat="45.87124" lon="6.18238">
        <ele>458.2</ele>
        <time>2013-08-17T09:08:14Z</time>
      </trkpt>
      <trkpt lat="45.87117" lon="6.18242">
        <ele>458.2</ele>
        <time>2013-08-17T09:08:15Z</time>
      </trkpt>
      <trkpt lat="45.87106" lon="6.18249">
        <ele>458.2</ele>
        <time>2013-08-17T09:08:16Z</time>
      </trkpt>
      <trkpt lat="45.87099" lon="6.18253">
        <ele>458.3</ele>
        <time>2013-08-17T09:08:17Z</time>
      </trkpt>
      <trkpt lat="45.87094" lon="6.18256">
        <ele>458.3</ele>
        <time>2013-08-17T09:08:18Z</time>
      </trkpt>
      <trkpt lat="45.87088" lon="6.1826">
        <ele>458.3</ele>
        <time>2013-08-17T09:08:19Z</time>
      </trkpt>
      <trkpt lat="45.87074" lon="6.18272">
        <ele>458.8</ele>
        <time>2013-08-17T09:08:21Z</time>
      </trkpt>
      <trkpt lat="45.87068" lon="6.18276">
        <ele>458.9</ele>
        <time>2013-08-17T09:08:22Z</time>
      </trkpt>
      <trkpt lat="45.87064" lon="6.18279">
        <ele>459</ele>
        <time>2013-08-17T09:08:23Z</time>
      </trkpt>
      <trkpt lat="45.8706" lon="6.18283">
        <ele>459.1</ele>
        <time>2013-08-17T09:08:24Z</time>
      </trkpt>
      <trkpt lat="45.87054" lon="6.18287">
        <ele>459.2</ele>
        <time>2013-08-17T09:08:25Z</time>
      </trkpt>
      <trkpt lat="45.87049" lon="6.1829">
        <ele>459.3</ele>
        <time>2013-08-17T09:08:26Z</time>
      </trkpt>
      <trkpt lat="45.87042" lon="6.18296">
        <ele>459.7</ele>
        <time>2013-08-17T09:08:27Z</time>
      </trkpt>
      <trkpt lat="45.87036" lon="6.183">
        <ele>459.9</ele>
        <time>2013-08-17T09:08:28Z</time>
      </trkpt>
      <trkpt lat="45.8703" lon="6.18305">
        <ele>460.1</ele>
        <time>2013-08-17T09:08:29Z</time>
      </trkpt>
      <trkpt lat="45.87024" lon="6.18309">
        <ele>460.2</ele>
        <time>2013-08-17T09:08:30Z</time>
      </trkpt>
      <trkpt lat="45.87017" lon="6.18314">
        <ele>460.3</ele>
        <time>2013-08-17T09:08:31Z</time>
      </trkpt>
      <trkpt lat="45.8701" lon="6.18318">
        <ele>460.3</ele>
        <time>2013-08-17T09:08:32Z</time>
      </trkpt>
      <trkpt lat="45.87005" lon="6.18321">
        <ele>460.3</ele>
        <time>2013-08-17T09:08:33Z</time>
      </trkpt>
      <trkpt lat="45.87" lon="6.18324">
        <ele>460.2</ele>
        <time>2013-08-17T09:08:34Z</time>
      </trkpt>
      <trkpt lat="45.86994" lon="6.18327">
        <ele>460.1</ele>
        <time>2013-08-17T09:08:35Z</time>
      </trkpt>
      <trkpt lat="45.86988" lon="6.18331">
        <ele>460</ele>
        <time>2013-08-17T09:08:36Z</time>
      </trkpt>
      <trkpt lat="45.86983" lon="6.18334">
        <ele>459.9</ele>
        <time>2013-08-17T09:08:37Z</time>
      </trkpt>
      <trkpt lat="45.86976" lon="6.18338">
        <ele>459.7</ele>
        <time>2013-08-17T09:08:38Z</time>
      </trkpt>
      <trkpt lat="45.86969" lon="6.18342">
        <ele>459.5</ele>
        <time>2013-08-17T09:08:39Z</time>
      </trkpt>
      <trkpt lat="45.86955" lon="6.1835">
        <ele>459.2</ele>
        <time>2013-08-17T09:08:41Z</time>
      </trkpt>
      <trkpt lat="45.8695" lon="6.18354">
        <ele>459.2</ele>
        <time>2013-08-17T09:08:42Z</time>
      </trkpt>
      <trkpt lat="45.86943" lon="6.18358">
        <ele>459.2</ele>
        <time>2013-08-17T09:08:43Z</time>
      </trkpt>
      <trkpt lat="45.86936" lon="6.18362">
        <ele>459</ele>
        <time>2013-08-17T09:08:44Z</time>
      </trkpt>
      <trkpt lat="45.86928" lon="6.18367">
        <ele>458.9</ele>
        <time>2013-08-17T09:08:45Z</time>
      </trkpt>
      <trkpt lat="45.86921" lon="6.18371">
        <ele>458.6</ele>
        <time>2013-08-17T09:08:46Z</time>
      </trkpt>
      <trkpt lat="45.86915" lon="6.18375">
        <ele>458.3</ele>
        <time>2013-08-17T09:08:47Z</time>
      </trkpt>
      <trkpt lat="45.86899" lon="6.18384">
        <ele>458.1</ele>
        <time>2013-08-17T09:08:49Z</time>
      </trkpt>
      <trkpt lat="45.86893" lon="6.18387">
        <ele>458.1</ele>
        <time>2013-08-17T09:08:50Z</time>
      </trkpt>
      <trkpt lat="45.86887" lon="6.1839">
        <ele>458</ele>
        <time>2013-08-17T09:08:51Z</time>
      </trkpt>
      <trkpt lat="45.86882" lon="6.18393">
        <ele>457.9</ele>
        <time>2013-08-17T09:08:52Z</time>
      </trkpt>
      <trkpt lat="45.86876" lon="6.18396">
        <ele>457.9</ele>
        <time>2013-08-17T09:08:53Z</time>
      </trkpt>
      <trkpt lat="45.86873" lon="6.18398">
        <ele>457.9</ele>
        <time>2013-08-17T09:08:54Z</time>
      </trkpt>
      <trkpt lat="45.8687" lon="6.18399">
        <ele>458</ele>
        <time>2013-08-17T09:08:55Z</time>
      </trkpt>
      <trkpt lat="45.86866" lon="6.18401">
        <ele>458.1</ele>
        <time>2013-08-17T09:08:56Z</time>
      </trkpt>
      <trkpt lat="45.86862" lon="6.18404">
        <ele>458.1</ele>
        <time>2013-08-17T09:08:57Z</time>
      </trkpt>
      <trkpt lat="45.86848" lon="6.18413">
        <ele>458.5</ele>
        <time>2013-08-17T09:08:59Z</time>
      </trkpt>
      <trkpt lat="45.86843" lon="6.18416">
        <ele>458.5</ele>
        <time>2013-08-17T09:09:00Z</time>
      </trkpt>
      <trkpt lat="45.86839" lon="6.18419">
        <ele>458.6</ele>
        <time>2013-08-17T09:09:01Z</time>
      </trkpt>
      <trkpt lat="45.86834" lon="6.18423">
        <ele>458.6</ele>
        <time>2013-08-17T09:09:02Z</time>
      </trkpt>
      <trkpt lat="45.86828" lon="6.18426">
        <ele>458.6</ele>
        <time>2013-08-17T09:09:03Z</time>
      </trkpt>
      <trkpt lat="45.86822" lon="6.1843">
        <ele>458.5</ele>
        <time>2013-08-17T09:09:04Z</time>
      </trkpt>
      <trkpt lat="45.86818" lon="6.18433">
        <ele>458.4</ele>
        <time>2013-08-17T09:09:05Z</time>
      </trkpt>
      <trkpt lat="45.86813" lon="6.18437">
        <ele>458.3</ele>
        <time>2013-08-17T09:09:06Z</time>
      </trkpt>
      <trkpt lat="45.86808" lon="6.1844">
        <ele>458.2</ele>
        <time>2013-08-17T09:09:07Z</time>
      </trkpt>
      <trkpt lat="45.86803" lon="6.18444">
        <ele>458</ele>
        <time>2013-08-17T09:09:08Z</time>
      </trkpt>
      <trkpt lat="45.86798" lon="6.18447">
        <ele>457.8</ele>
        <time>2013-08-17T09:09:09Z</time>
      </trkpt>
      <trkpt lat="45.86781" lon="6.18458">
        <ele>456.8</ele>
        <time>2013-08-17T09:09:12Z</time>
      </trkpt>
      <trkpt lat="45.86775" lon="6.18462">
        <ele>456.6</ele>
        <time>2013-08-17T09:09:13Z</time>
      </trkpt>
      <trkpt lat="45.8677" lon="6.18466">
        <ele>456.4</ele>
        <time>2013-08-17T09:09:14Z</time>
      </trkpt>
      <trkpt lat="45.86761" lon="6.18471">
        <ele>456.2</ele>
        <time>2013-08-17T09:09:15Z</time>
      </trkpt>
      <trkpt lat="45.86755" lon="6.18475">
        <ele>456</ele>
        <time>2013-08-17T09:09:16Z</time>
      </trkpt>
      <trkpt lat="45.86749" lon="6.1848">
        <ele>455.7</ele>
        <time>2013-08-17T09:09:17Z</time>
      </trkpt>
      <trkpt lat="45.86744" lon="6.18484">
        <ele>455.5</ele>
        <time>2013-08-17T09:09:18Z</time>
      </trkpt>
      <trkpt lat="45.86738" lon="6.18488">
        <ele>455.3</ele>
        <time>2013-08-17T09:09:19Z</time>
      </trkpt>
      <trkpt lat="45.86734" lon="6.18492">
        <ele>455.2</ele>
        <time>2013-08-17T09:09:20Z</time>
      </trkpt>
      <trkpt lat="45.86728" lon="6.18496">
        <ele>455</ele>
        <time>2013-08-17T09:09:21Z</time>
      </trkpt>
      <trkpt lat="45.86723" lon="6.185">
        <ele>454.8</ele>
        <time>2013-08-17T09:09:22Z</time>
      </trkpt>
      <trkpt lat="45.86709" lon="6.18516">
        <ele>454.7</ele>
        <time>2013-08-17T09:09:26Z</time>
      </trkpt>
      <trkpt lat="45.86706" lon="6.1852">
        <ele>454.8</ele>
        <time>2013-08-17T09:09:27Z</time>
      </trkpt>
      <trkpt lat="45.86703" lon="6.18524">
        <ele>454.9</ele>
        <time>2013-08-17T09:09:28Z</time>
      </trkpt>
      <trkpt lat="45.867" lon="6.18527">
        <ele>455</ele>
        <time>2013-08-17T09:09:29Z</time>
      </trkpt>
      <trkpt lat="45.86698" lon="6.1853">
        <ele>455</ele>
        <time>2013-08-17T09:09:30Z</time>
      </trkpt>
      <trkpt lat="45.86695" lon="6.18533">
        <ele>455.1</ele>
        <time>2013-08-17T09:09:31Z</time>
      </trkpt>
      <trkpt lat="45.86692" lon="6.18536">
        <ele>455.2</ele>
        <time>2013-08-17T09:09:32Z</time>
      </trkpt>
      <trkpt lat="45.86689" lon="6.1854">
        <ele>455.2</ele>
        <time>2013-08-17T09:09:33Z</time>
      </trkpt>
      <trkpt lat="45.86686" lon="6.18543">
        <ele>455.3</ele>
        <time>2013-08-17T09:09:34Z</time>
      </trkpt>
      <trkpt lat="45.86683" lon="6.18546">
        <ele>455.5</ele>
        <time>2013-08-17T09:09:35Z</time>
      </trkpt>
      <trkpt lat="45.86681" lon="6.18549">
        <ele>455.8</ele>
        <time>2013-08-17T09:09:36Z</time>
      </trkpt>
      <trkpt lat="45.86676" lon="6.18555">
        <ele>456.2</ele>
        <time>2013-08-17T09:09:38Z</time>
      </trkpt>
      <trkpt lat="45.86672" lon="6.18559">
        <ele>456.5</ele>
        <time>2013-08-17T09:09:39Z</time>
      </trkpt>
      <trkpt lat="45.86669" lon="6.18563">
        <ele>456.7</ele>
        <time>2013-08-17T09:09:41Z</time>
      </trkpt>
      <trkpt lat="45.86664" lon="6.18568">
        <ele>457.1</ele>
        <time>2013-08-17T09:09:42Z</time>
      </trkpt>
      <trkpt lat="45.8666" lon="6.18572">
        <ele>457.3</ele>
        <time>2013-08-17T09:09:44Z</time>
      </trkpt>
      <trkpt lat="45.86657" lon="6.18575">
        <ele>457.5</ele>
        <time>2013-08-17T09:09:45Z</time>
      </trkpt>
      <trkpt lat="45.86654" lon="6.18579">
        <ele>457.6</ele>
        <time>2013-08-17T09:09:46Z</time>
      </trkpt>
      <trkpt lat="45.86651" lon="6.18582">
        <ele>457.8</ele>
        <time>2013-08-17T09:09:47Z</time>
      </trkpt>
      <trkpt lat="45.86648" lon="6.18585">
        <ele>457.9</ele>
        <time>2013-08-17T09:09:48Z</time>
      </trkpt>
      <trkpt lat="45.86644" lon="6.18589">
        <ele>458.1</ele>
        <time>2013-08-17T09:09:49Z</time>
      </trkpt>
      <trkpt lat="45.8664" lon="6.18593">
        <ele>458.3</ele>
        <time>2013-08-17T09:09:50Z</time>
      </trkpt>
      <trkpt lat="45.86637" lon="6.18597">
        <ele>458.4</ele>
        <time>2013-08-17T09:09:51Z</time>
      </trkpt>
      <trkpt lat="45.86633" lon="6.18601">
        <ele>458.6</ele>
        <time>2013-08-17T09:09:52Z</time>
      </trkpt>
      <trkpt lat="45.8663" lon="6.18604">
        <ele>458.7</ele>
        <time>2013-08-17T09:09:53Z</time>
      </trkpt>
      <trkpt lat="45.86626" lon="6.18608">
        <ele>458.8</ele>
        <time>2013-08-17T09:09:54Z</time>
      </trkpt>
      <trkpt lat="45.86622" lon="6.18612">
        <ele>459</ele>
        <time>2013-08-17T09:09:55Z</time>
      </trkpt>
      <trkpt lat="45.86618" lon="6.18616">
        <ele>459.1</ele>
        <time>2013-08-17T09:09:56Z</time>
      </trkpt>
      <trkpt lat="45.86605" lon="6.18634">
        <ele>459.8</ele>
        <time>2013-08-17T09:10:00Z</time>
      </trkpt>
      <trkpt lat="45.86602" lon="6.18638">
        <ele>460</ele>
        <time>2013-08-17T09:10:01Z</time>
      </trkpt>
      <trkpt lat="45.86599" lon="6.18642">
        <ele>460.2</ele>
        <time>2013-08-17T09:10:02Z</time>
      </trkpt>
      <trkpt lat="45.86596" lon="6.18646">
        <ele>460.5</ele>
        <time>2013-08-17T09:10:03Z</time>
      </trkpt>
      <trkpt lat="45.86592" lon="6.18651">
        <ele>460.8</ele>
        <time>2013-08-17T09:10:04Z</time>
      </trkpt>
      <trkpt lat="45.86589" lon="6.18655">
        <ele>461.1</ele>
        <time>2013-08-17T09:10:05Z</time>
      </trkpt>
      <trkpt lat="45.86586" lon="6.18659">
        <ele>461.3</ele>
        <time>2013-08-17T09:10:06Z</time>
      </trkpt>
      <trkpt lat="45.86583" lon="6.18662">
        <ele>461.6</ele>
        <time>2013-08-17T09:10:07Z</time>
      </trkpt>
      <trkpt lat="45.8658" lon="6.18666">
        <ele>461.8</ele>
        <time>2013-08-17T09:10:08Z</time>
      </trkpt>
      <trkpt lat="45.86578" lon="6.18669">
        <ele>462.1</ele>
        <time>2013-08-17T09:10:09Z</time>
      </trkpt>
      <trkpt lat="45.86575" lon="6.18673">
        <ele>462.3</ele>
        <time>2013-08-17T09:10:10Z</time>
      </trkpt>
      <trkpt lat="45.86572" lon="6.18677">
        <ele>462.6</ele>
        <time>2013-08-17T09:10:11Z</time>
      </trkpt>
      <trkpt lat="45.86569" lon="6.1868">
        <ele>462.9</ele>
        <time>2013-08-17T09:10:12Z</time>
      </trkpt>
      <trkpt lat="45.86566" lon="6.18684">
        <ele>463.2</ele>
        <time>2013-08-17T09:10:13Z</time>
      </trkpt>
      <trkpt lat="45.86563" lon="6.18688">
        <ele>463.6</ele>
        <time>2013-08-17T09:10:14Z</time>
      </trkpt>
      <trkpt lat="45.8656" lon="6.18692">
        <ele>463.9</ele>
        <time>2013-08-17T09:10:15Z</time>
      </trkpt>
      <trkpt lat="45.86557" lon="6.18696">
        <ele>464.3</ele>
        <time>2013-08-17T09:10:16Z</time>
      </trkpt>
      <trkpt lat="45.86554" lon="6.187">
        <ele>464.6</ele>
        <time>2013-08-17T09:10:17Z</time>
      </trkpt>
      <trkpt lat="45.86551" lon="6.18704">
        <ele>465</ele>
        <time>2013-08-17T09:10:18Z</time>
      </trkpt>
      <trkpt lat="45.86547" lon="6.18708">
        <ele>465.4</ele>
        <time>2013-08-17T09:10:19Z</time>
      </trkpt>
      <trkpt lat="45.86525" lon="6.18734">
        <ele>466.1</ele>
        <time>2013-08-17T09:10:26Z</time>
      </trkpt>
      <trkpt lat="45.86522" lon="6.18739">
        <ele>466.2</ele>
        <time>2013-08-17T09:10:27Z</time>
      </trkpt>
      <trkpt lat="45.86519" lon="6.18743">
        <ele>466.4</ele>
        <time>2013-08-17T09:10:28Z</time>
      </trkpt>
      <trkpt lat="45.86516" lon="6.18748">
        <ele>466.6</ele>
        <time>2013-08-17T09:10:29Z</time>
      </trkpt>
      <trkpt lat="45.86513" lon="6.18752">
        <ele>466.8</ele>
        <time>2013-08-17T09:10:30Z</time>
      </trkpt>
      <trkpt lat="45.8651" lon="6.18756">
        <ele>466.9</ele>
        <time>2013-08-17T09:10:31Z</time>
      </trkpt>
      <trkpt lat="45.86507" lon="6.1876">
        <ele>467</ele>
        <time>2013-08-17T09:10:32Z</time>
      </trkpt>
      <trkpt lat="45.86504" lon="6.18764">
        <ele>467.1</ele>
        <time>2013-08-17T09:10:33Z</time>
      </trkpt>
      <trkpt lat="45.86502" lon="6.18768">
        <ele>467.2</ele>
        <time>2013-08-17T09:10:34Z</time>
      </trkpt>
      <trkpt lat="45.86499" lon="6.18772">
        <ele>467.4</ele>
        <time>2013-08-17T09:10:35Z</time>
      </trkpt>
      <trkpt lat="45.86496" lon="6.18777">
        <ele>467.6</ele>
        <time>2013-08-17T09:10:36Z</time>
      </trkpt>
      <trkpt lat="45.86494" lon="6.18781">
        <ele>467.8</ele>
        <time>2013-08-17T09:10:37Z</time>
      </trkpt>
      <trkpt lat="45.86493" lon="6.18784">
        <ele>468</ele>
        <time>2013-08-17T09:10:38Z</time>
      </trkpt>
      <trkpt lat="45.86491" lon="6.18789">
        <ele>468.4</ele>
        <time>2013-08-17T09:10:40Z</time>
      </trkpt>
      <trkpt lat="45.86491" lon="6.18793">
        <ele>468.8</ele>
        <time>2013-08-17T09:10:42Z</time>
      </trkpt>
      <trkpt lat="45.8649" lon="6.188">
        <ele>469.1</ele>
        <time>2013-08-17T09:10:44Z</time>
      </trkpt>
      <trkpt lat="45.86491" lon="6.18805">
        <ele>469.4</ele>
        <time>2013-08-17T09:10:45Z</time>
      </trkpt>
      <trkpt lat="45.86491" lon="6.18809">
        <ele>469.7</ele>
        <time>2013-08-17T09:10:46Z</time>
      </trkpt>
      <trkpt lat="45.86491" lon="6.18813">
        <ele>469.9</ele>
        <time>2013-08-17T09:10:47Z</time>
      </trkpt>
      <trkpt lat="45.8649" lon="6.18818">
        <ele>470.1</ele>
        <time>2013-08-17T09:10:48Z</time>
      </trkpt>
      <trkpt lat="45.86488" lon="6.18822">
        <ele>470.2</ele>
        <time>2013-08-17T09:10:49Z</time>
      </trkpt>
      <trkpt lat="45.86486" lon="6.18826">
        <ele>470.2</ele>
        <time>2013-08-17T09:10:50Z</time>
      </trkpt>
      <trkpt lat="45.86484" lon="6.1883">
        <ele>470.3</ele>
        <time>2013-08-17T09:10:51Z</time>
      </trkpt>
      <trkpt lat="45.8648" lon="6.18835">
        <ele>470.2</ele>
        <time>2013-08-17T09:10:52Z</time>
      </trkpt>
      <trkpt lat="45.86467" lon="6.18845">
        <ele>469.8</ele>
        <time>2013-08-17T09:10:53Z</time>
      </trkpt>
      <trkpt lat="45.86453" lon="6.18854">
        <ele>469.4</ele>
        <time>2013-08-17T09:10:54Z</time>
      </trkpt>
      <trkpt lat="45.8645" lon="6.18859">
        <ele>469.6</ele>
        <time>2013-08-17T09:10:55Z</time>
      </trkpt>
      <trkpt lat="45.86445" lon="6.18866">
        <ele>469.7</ele>
        <time>2013-08-17T09:10:56Z</time>
      </trkpt>
      <trkpt lat="45.86439" lon="6.1887">
        <ele>469.5</ele>
        <time>2013-08-17T09:10:57Z</time>
      </trkpt>
      <trkpt lat="45.86435" lon="6.18876">
        <ele>469.5</ele>
        <time>2013-08-17T09:10:58Z</time>
      </trkpt>
      <trkpt lat="45.86431" lon="6.18882">
        <ele>469.2</ele>
        <time>2013-08-17T09:10:59Z</time>
      </trkpt>
      <trkpt lat="45.86427" lon="6.18887">
        <ele>468.9</ele>
        <time>2013-08-17T09:11:00Z</time>
      </trkpt>
      <trkpt lat="45.86422" lon="6.18893">
        <ele>468.6</ele>
        <time>2013-08-17T09:11:01Z</time>
      </trkpt>
      <trkpt lat="45.86417" lon="6.189">
        <ele>468.3</ele>
        <time>2013-08-17T09:11:02Z</time>
      </trkpt>
      <trkpt lat="45.86413" lon="6.18906">
        <ele>468.1</ele>
        <time>2013-08-17T09:11:03Z</time>
      </trkpt>
      <trkpt lat="45.86408" lon="6.18914">
        <ele>467.9</ele>
        <time>2013-08-17T09:11:04Z</time>
      </trkpt>
      <trkpt lat="45.86403" lon="6.18922">
        <ele>467.7</ele>
        <time>2013-08-17T09:11:05Z</time>
      </trkpt>
      <trkpt lat="45.86399" lon="6.18927">
        <ele>467.6</ele>
        <time>2013-08-17T09:11:06Z</time>
      </trkpt>
      <trkpt lat="45.86395" lon="6.18934">
        <ele>467.4</ele>
        <time>2013-08-17T09:11:07Z</time>
      </trkpt>
      <trkpt lat="45.86392" lon="6.18937">
        <ele>467.4</ele>
        <time>2013-08-17T09:11:08Z</time>
      </trkpt>
      <trkpt lat="45.86389" lon="6.18942">
        <ele>467.3</ele>
        <time>2013-08-17T09:11:09Z</time>
      </trkpt>
      <trkpt lat="45.86386" lon="6.18946">
        <ele>467.2</ele>
        <time>2013-08-17T09:11:10Z</time>
      </trkpt>
      <trkpt lat="45.86383" lon="6.1895">
        <ele>467.2</ele>
        <time>2013-08-17T09:11:11Z</time>
      </trkpt>
      <trkpt lat="45.86379" lon="6.18955">
        <ele>467.1</ele>
        <time>2013-08-17T09:11:12Z</time>
      </trkpt>
      <trkpt lat="45.86375" lon="6.1896">
        <ele>467</ele>
        <time>2013-08-17T09:11:13Z</time>
      </trkpt>
      <trkpt lat="45.8637" lon="6.18965">
        <ele>466.9</ele>
        <time>2013-08-17T09:11:14Z</time>
      </trkpt>
      <trkpt lat="45.86367" lon="6.18968">
        <ele>466.9</ele>
        <time>2013-08-17T09:11:15Z</time>
      </trkpt>
      <trkpt lat="45.86363" lon="6.18972">
        <ele>466.8</ele>
        <time>2013-08-17T09:11:16Z</time>
      </trkpt>
      <trkpt lat="45.86357" lon="6.18978">
        <ele>466.7</ele>
        <time>2013-08-17T09:11:17Z</time>
      </trkpt>
      <trkpt lat="45.86354" lon="6.18981">
        <ele>466.6</ele>
        <time>2013-08-17T09:11:19Z</time>
      </trkpt>
      <trkpt lat="45.86352" lon="6.18983">
        <ele>466.6</ele>
        <time>2013-08-17T09:11:20Z</time>
      </trkpt>
      <trkpt lat="45.86348" lon="6.18986">
        <ele>466.5</ele>
        <time>2013-08-17T09:11:22Z</time>
      </trkpt>
      <trkpt lat="45.86344" lon="6.1899">
        <ele>466.4</ele>
        <time>2013-08-17T09:11:23Z</time>
      </trkpt>
      <trkpt lat="45.86338" lon="6.18996">
        <ele>466.3</ele>
        <time>2013-08-17T09:11:25Z</time>
      </trkpt>
      <trkpt lat="45.86334" lon="6.19">
        <ele>466.3</ele>
        <time>2013-08-17T09:11:26Z</time>
      </trkpt>
      <trkpt lat="45.86327" lon="6.19008">
        <ele>466.2</ele>
        <time>2013-08-17T09:11:31Z</time>
      </trkpt>
      <trkpt lat="45.86331" lon="6.19014">
        <ele>466.6</ele>
        <time>2013-08-17T09:11:40Z</time>
      </trkpt>
      <trkpt lat="45.86331" lon="6.19019">
        <ele>466.8</ele>
        <time>2013-08-17T09:11:42Z</time>
      </trkpt>
      <trkpt lat="45.86329" lon="6.19025">
        <ele>466.8</ele>
        <time>2013-08-17T09:11:43Z</time>
      </trkpt>
      <trkpt lat="45.8633" lon="6.1903">
        <ele>467</ele>
        <time>2013-08-17T09:11:45Z</time>
      </trkpt>
      <trkpt lat="45.86328" lon="6.19035">
        <ele>467.1</ele>
        <time>2013-08-17T09:11:46Z</time>
      </trkpt>
      <trkpt lat="45.86325" lon="6.1904">
        <ele>467.2</ele>
        <time>2013-08-17T09:11:47Z</time>
      </trkpt>
      <trkpt lat="45.86322" lon="6.19046">
        <ele>467.2</ele>
        <time>2013-08-17T09:11:48Z</time>
      </trkpt>
      <trkpt lat="45.86313" lon="6.19056">
        <ele>467.4</ele>
        <time>2013-08-17T09:11:50Z</time>
      </trkpt>
      <trkpt lat="45.8631" lon="6.19061">
        <ele>467.4</ele>
        <time>2013-08-17T09:11:51Z</time>
      </trkpt>
      <trkpt lat="45.86305" lon="6.19065">
        <ele>467.5</ele>
        <time>2013-08-17T09:11:52Z</time>
      </trkpt>
      <trkpt lat="45.86301" lon="6.19069">
        <ele>467.6</ele>
        <time>2013-08-17T09:11:53Z</time>
      </trkpt>
      <trkpt lat="45.86298" lon="6.19072">
        <ele>467.7</ele>
        <time>2013-08-17T09:11:54Z</time>
      </trkpt>
      <trkpt lat="45.86295" lon="6.19081">
        <ele>468</ele>
        <time>2013-08-17T09:11:56Z</time>
      </trkpt>
      <trkpt lat="45.86291" lon="6.19085">
        <ele>468.1</ele>
        <time>2013-08-17T09:11:57Z</time>
      </trkpt>
      <trkpt lat="45.86289" lon="6.1909">
        <ele>468.3</ele>
        <time>2013-08-17T09:11:58Z</time>
      </trkpt>
      <trkpt lat="45.86286" lon="6.19095">
        <ele>468.5</ele>
        <time>2013-08-17T09:11:59Z</time>
      </trkpt>
      <trkpt lat="45.86283" lon="6.19101">
        <ele>468.7</ele>
        <time>2013-08-17T09:12:00Z</time>
      </trkpt>
      <trkpt lat="45.86281" lon="6.19105">
        <ele>468.9</ele>
        <time>2013-08-17T09:12:01Z</time>
      </trkpt>
      <trkpt lat="45.86276" lon="6.19109">
        <ele>469</ele>
        <time>2013-08-17T09:12:02Z</time>
      </trkpt>
      <trkpt lat="45.86269" lon="6.19114">
        <ele>469.2</ele>
        <time>2013-08-17T09:12:04Z</time>
      </trkpt>
      <trkpt lat="45.86265" lon="6.19117">
        <ele>469.2</ele>
        <time>2013-08-17T09:12:05Z</time>
      </trkpt>
      <trkpt lat="45.86262" lon="6.19119">
        <ele>469.3</ele>
        <time>2013-08-17T09:12:06Z</time>
      </trkpt>
      <trkpt lat="45.8626" lon="6.19121">
        <ele>469.4</ele>
        <time>2013-08-17T09:12:07Z</time>
      </trkpt>
      <trkpt lat="45.86256" lon="6.19123">
        <ele>469.5</ele>
        <time>2013-08-17T09:12:08Z</time>
      </trkpt>
      <trkpt lat="45.86253" lon="6.19125">
        <ele>469.6</ele>
        <time>2013-08-17T09:12:09Z</time>
      </trkpt>
      <trkpt lat="45.86249" lon="6.19128">
        <ele>469.7</ele>
        <time>2013-08-17T09:12:10Z</time>
      </trkpt>
      <trkpt lat="45.86242" lon="6.19132">
        <ele>469.9</ele>
        <time>2013-08-17T09:12:12Z</time>
      </trkpt>
      <trkpt lat="45.86235" lon="6.19137">
        <ele>470</ele>
        <time>2013-08-17T09:12:13Z</time>
      </trkpt>
      <trkpt lat="45.86226" lon="6.19144">
        <ele>470.3</ele>
        <time>2013-08-17T09:12:14Z</time>
      </trkpt>
      <trkpt lat="45.8622" lon="6.19149">
        <ele>470.4</ele>
        <time>2013-08-17T09:12:15Z</time>
      </trkpt>
      <trkpt lat="45.86214" lon="6.19154">
        <ele>470.5</ele>
        <time>2013-08-17T09:12:16Z</time>
      </trkpt>
      <trkpt lat="45.86205" lon="6.1916">
        <ele>470.7</ele>
        <time>2013-08-17T09:12:17Z</time>
      </trkpt>
      <trkpt lat="45.86199" lon="6.19166">
        <ele>470.9</ele>
        <time>2013-08-17T09:12:18Z</time>
      </trkpt>
      <trkpt lat="45.8619" lon="6.19175">
        <ele>471.2</ele>
        <time>2013-08-17T09:12:19Z</time>
      </trkpt>
      <trkpt lat="45.86185" lon="6.19179">
        <ele>471.3</ele>
        <time>2013-08-17T09:12:20Z</time>
      </trkpt>
      <trkpt lat="45.8618" lon="6.19185">
        <ele>471.6</ele>
        <time>2013-08-17T09:12:21Z</time>
      </trkpt>
      <trkpt lat="45.86168" lon="6.19196">
        <ele>471.9</ele>
        <time>2013-08-17T09:12:23Z</time>
      </trkpt>
      <trkpt lat="45.86166" lon="6.19201">
        <ele>472.1</ele>
        <time>2013-08-17T09:12:24Z</time>
      </trkpt>
      <trkpt lat="45.86161" lon="6.19207">
        <ele>472.3</ele>
        <time>2013-08-17T09:12:25Z</time>
      </trkpt>
      <trkpt lat="45.86156" lon="6.19211">
        <ele>472.5</ele>
        <time>2013-08-17T09:12:26Z</time>
      </trkpt>
      <trkpt lat="45.86153" lon="6.19217">
        <ele>473</ele>
        <time>2013-08-17T09:12:27Z</time>
      </trkpt>
      <trkpt lat="45.8615" lon="6.19222">
        <ele>473.3</ele>
        <time>2013-08-17T09:12:28Z</time>
      </trkpt>
      <trkpt lat="45.86146" lon="6.19225">
        <ele>473.4</ele>
        <time>2013-08-17T09:12:29Z</time>
      </trkpt>
      <trkpt lat="45.86143" lon="6.19227">
        <ele>473.6</ele>
        <time>2013-08-17T09:12:30Z</time>
      </trkpt>
      <trkpt lat="45.86135" lon="6.19233">
        <ele>474.1</ele>
        <time>2013-08-17T09:12:32Z</time>
      </trkpt>
      <trkpt lat="45.8613" lon="6.1924">
        <ele>474.7</ele>
        <time>2013-08-17T09:12:34Z</time>
      </trkpt>
      <trkpt lat="45.86127" lon="6.19247">
        <ele>475.2</ele>
        <time>2013-08-17T09:12:35Z</time>
      </trkpt>
      <trkpt lat="45.86127" lon="6.19252">
        <ele>475.6</ele>
        <time>2013-08-17T09:12:36Z</time>
      </trkpt>
      <trkpt lat="45.86125" lon="6.19257">
        <ele>476</ele>
        <time>2013-08-17T09:12:37Z</time>
      </trkpt>
      <trkpt lat="45.86124" lon="6.19262">
        <ele>476.5</ele>
        <time>2013-08-17T09:12:38Z</time>
      </trkpt>
      <trkpt lat="45.86123" lon="6.19267">
        <ele>476.9</ele>
        <time>2013-08-17T09:12:39Z</time>
      </trkpt>
      <trkpt lat="45.86122" lon="6.19272">
        <ele>477.3</ele>
        <time>2013-08-17T09:12:40Z</time>
      </trkpt>
      <trkpt lat="45.86121" lon="6.19278">
        <ele>477.7</ele>
        <time>2013-08-17T09:12:41Z</time>
      </trkpt>
      <trkpt lat="45.8612" lon="6.19283">
        <ele>478.2</ele>
        <time>2013-08-17T09:12:42Z</time>
      </trkpt>
      <trkpt lat="45.86116" lon="6.19292">
        <ele>478.8</ele>
        <time>2013-08-17T09:12:43Z</time>
      </trkpt>
      <trkpt lat="45.86114" lon="6.19298">
        <ele>478.9</ele>
        <time>2013-08-17T09:12:45Z</time>
      </trkpt>
      <trkpt lat="45.86111" lon="6.19306">
        <ele>478.9</ele>
        <time>2013-08-17T09:12:46Z</time>
      </trkpt>
      <trkpt lat="45.86109" lon="6.19311">
        <ele>479</ele>
        <time>2013-08-17T09:12:48Z</time>
      </trkpt>
      <trkpt lat="45.86107" lon="6.19317">
        <ele>479.1</ele>
        <time>2013-08-17T09:12:49Z</time>
      </trkpt>
      <trkpt lat="45.86107" lon="6.19321">
        <ele>479.2</ele>
        <time>2013-08-17T09:12:50Z</time>
      </trkpt>
      <trkpt lat="45.86105" lon="6.19328">
        <ele>479.4</ele>
        <time>2013-08-17T09:12:51Z</time>
      </trkpt>
      <trkpt lat="45.86104" lon="6.19334">
        <ele>479.5</ele>
        <time>2013-08-17T09:12:52Z</time>
      </trkpt>
      <trkpt lat="45.86103" lon="6.19344">
        <ele>479.8</ele>
        <time>2013-08-17T09:12:53Z</time>
      </trkpt>
      <trkpt lat="45.86102" lon="6.19351">
        <ele>479.9</ele>
        <time>2013-08-17T09:12:54Z</time>
      </trkpt>
      <trkpt lat="45.86102" lon="6.19355">
        <ele>480.1</ele>
        <time>2013-08-17T09:12:55Z</time>
      </trkpt>
      <trkpt lat="45.861" lon="6.19369">
        <ele>480.4</ele>
        <time>2013-08-17T09:12:56Z</time>
      </trkpt>
      <trkpt lat="45.86099" lon="6.19377">
        <ele>480.6</ele>
        <time>2013-08-17T09:12:57Z</time>
      </trkpt>
      <trkpt lat="45.8609" lon="6.19398">
        <ele>481</ele>
        <time>2013-08-17T09:13:00Z</time>
      </trkpt>
      <trkpt lat="45.8609" lon="6.19404">
        <ele>481</ele>
        <time>2013-08-17T09:13:01Z</time>
      </trkpt>
      <trkpt lat="45.86089" lon="6.19413">
        <ele>481.1</ele>
        <time>2013-08-17T09:13:02Z</time>
      </trkpt>
      <trkpt lat="45.86088" lon="6.19422">
        <ele>481.2</ele>
        <time>2013-08-17T09:13:03Z</time>
      </trkpt>
      <trkpt lat="45.86086" lon="6.19427">
        <ele>481.3</ele>
        <time>2013-08-17T09:13:04Z</time>
      </trkpt>
      <trkpt lat="45.86086" lon="6.19435">
        <ele>481.3</ele>
        <time>2013-08-17T09:13:05Z</time>
      </trkpt>
      <trkpt lat="45.86084" lon="6.19439">
        <ele>481.4</ele>
        <time>2013-08-17T09:13:06Z</time>
      </trkpt>
      <trkpt lat="45.86082" lon="6.19445">
        <ele>481.4</ele>
        <time>2013-08-17T09:13:07Z</time>
      </trkpt>
      <trkpt lat="45.86076" lon="6.19468">
        <ele>481.9</ele>
        <time>2013-08-17T09:13:11Z</time>
      </trkpt>
      <trkpt lat="45.86075" lon="6.19475">
        <ele>482.2</ele>
        <time>2013-08-17T09:13:12Z</time>
      </trkpt>
      <trkpt lat="45.86074" lon="6.19491">
        <ele>482.8</ele>
        <time>2013-08-17T09:13:15Z</time>
      </trkpt>
      <trkpt lat="45.86073" lon="6.19495">
        <ele>483</ele>
        <time>2013-08-17T09:13:16Z</time>
      </trkpt>
      <trkpt lat="45.8606" lon="6.19509">
        <ele>483.6</ele>
        <time>2013-08-17T09:13:18Z</time>
      </trkpt>
      <trkpt lat="45.86056" lon="6.1951">
        <ele>483.7</ele>
        <time>2013-08-17T09:13:19Z</time>
      </trkpt>
      <trkpt lat="45.86053" lon="6.1951">
        <ele>483.7</ele>
        <time>2013-08-17T09:13:20Z</time>
      </trkpt>
      <trkpt lat="45.86048" lon="6.19515">
        <ele>484</ele>
        <time>2013-08-17T09:13:21Z</time>
      </trkpt>
      <trkpt lat="45.86045" lon="6.1952">
        <ele>484.2</ele>
        <time>2013-08-17T09:13:22Z</time>
      </trkpt>
      <trkpt lat="45.86042" lon="6.19524">
        <ele>484.3</ele>
        <time>2013-08-17T09:13:23Z</time>
      </trkpt>
      <trkpt lat="45.86038" lon="6.19528">
        <ele>484.3</ele>
        <time>2013-08-17T09:13:24Z</time>
      </trkpt>
      <trkpt lat="45.86035" lon="6.19533">
        <ele>484.4</ele>
        <time>2013-08-17T09:13:25Z</time>
      </trkpt>
      <trkpt lat="45.8603" lon="6.19538">
        <ele>484.3</ele>
        <time>2013-08-17T09:13:26Z</time>
      </trkpt>
      <trkpt lat="45.86028" lon="6.19542">
        <ele>484.4</ele>
        <time>2013-08-17T09:13:27Z</time>
      </trkpt>
      <trkpt lat="45.86031" lon="6.19546">
        <ele>484.6</ele>
        <time>2013-08-17T09:13:29Z</time>
      </trkpt>
      <trkpt lat="45.86023" lon="6.19555">
        <ele>484.5</ele>
        <time>2013-08-17T09:13:30Z</time>
      </trkpt>
      <trkpt lat="45.86014" lon="6.19566">
        <ele>484.4</ele>
        <time>2013-08-17T09:13:31Z</time>
      </trkpt>
      <trkpt lat="45.86011" lon="6.19569">
        <ele>484.3</ele>
        <time>2013-08-17T09:13:32Z</time>
      </trkpt>
      <trkpt lat="45.86008" lon="6.19572">
        <ele>484.2</ele>
        <time>2013-08-17T09:13:33Z</time>
      </trkpt>
      <trkpt lat="45.86002" lon="6.19576">
        <ele>484.1</ele>
        <time>2013-08-17T09:13:34Z</time>
      </trkpt>
      <trkpt lat="45.85998" lon="6.19581">
        <ele>484.1</ele>
        <time>2013-08-17T09:13:35Z</time>
      </trkpt>
      <trkpt lat="45.85995" lon="6.19584">
        <ele>484.1</ele>
        <time>2013-08-17T09:13:36Z</time>
      </trkpt>
      <trkpt lat="45.85991" lon="6.19588">
        <ele>484</ele>
        <time>2013-08-17T09:13:38Z</time>
      </trkpt>
      <trkpt lat="45.85989" lon="6.19593">
        <ele>484.1</ele>
        <time>2013-08-17T09:13:40Z</time>
      </trkpt>
      <trkpt lat="45.85987" lon="6.19596">
        <ele>484.1</ele>
        <time>2013-08-17T09:13:42Z</time>
      </trkpt>
      <trkpt lat="45.85984" lon="6.19598">
        <ele>484.1</ele>
        <time>2013-08-17T09:13:45Z</time>
      </trkpt>
      <trkpt lat="45.85982" lon="6.196">
        <ele>484</ele>
        <time>2013-08-17T09:13:54Z</time>
      </trkpt>
      <trkpt lat="45.8597" lon="6.19604">
        <ele>483.7</ele>
        <time>2013-08-17T09:13:57Z</time>
      </trkpt>
      <trkpt lat="45.85966" lon="6.19605">
        <ele>483.6</ele>
        <time>2013-08-17T09:13:58Z</time>
      </trkpt>
      <trkpt lat="45.85962" lon="6.19607">
        <ele>483.5</ele>
        <time>2013-08-17T09:13:59Z</time>
      </trkpt>
      <trkpt lat="45.85956" lon="6.19611">
        <ele>483.4</ele>
        <time>2013-08-17T09:14:00Z</time>
      </trkpt>
      <trkpt lat="45.85953" lon="6.19613">
        <ele>483.3</ele>
        <time>2013-08-17T09:14:01Z</time>
      </trkpt>
      <trkpt lat="45.8595" lon="6.19615">
        <ele>483.2</ele>
        <time>2013-08-17T09:14:02Z</time>
      </trkpt>
      <trkpt lat="45.85946" lon="6.19617">
        <ele>483.1</ele>
        <time>2013-08-17T09:14:04Z</time>
      </trkpt>
      <trkpt lat="45.85942" lon="6.19621">
        <ele>483.1</ele>
        <time>2013-08-17T09:14:06Z</time>
      </trkpt>
      <trkpt lat="45.8594" lon="6.19623">
        <ele>483</ele>
        <time>2013-08-17T09:14:07Z</time>
      </trkpt>
      <trkpt lat="45.85937" lon="6.19626">
        <ele>483</ele>
        <time>2013-08-17T09:14:08Z</time>
      </trkpt>
      <trkpt lat="45.85932" lon="6.1963">
        <ele>483</ele>
        <time>2013-08-17T09:14:10Z</time>
      </trkpt>
      <trkpt lat="45.85929" lon="6.19635">
        <ele>483</ele>
        <time>2013-08-17T09:14:12Z</time>
      </trkpt>
      <trkpt lat="45.85925" lon="6.1964">
        <ele>483.1</ele>
        <time>2013-08-17T09:14:14Z</time>
      </trkpt>
      <trkpt lat="45.85921" lon="6.19645">
        <ele>483.1</ele>
        <time>2013-08-17T09:14:16Z</time>
      </trkpt>
      <trkpt lat="45.85919" lon="6.19647">
        <ele>483.2</ele>
        <time>2013-08-17T09:14:17Z</time>
      </trkpt>
      <trkpt lat="45.85916" lon="6.1965">
        <ele>483.2</ele>
        <time>2013-08-17T09:14:18Z</time>
      </trkpt>
      <trkpt lat="45.85912" lon="6.19654">
        <ele>483.2</ele>
        <time>2013-08-17T09:14:19Z</time>
      </trkpt>
      <trkpt lat="45.85909" lon="6.19658">
        <ele>483.3</ele>
        <time>2013-08-17T09:14:20Z</time>
      </trkpt>
      <trkpt lat="45.85905" lon="6.19662">
        <ele>483.3</ele>
        <time>2013-08-17T09:14:21Z</time>
      </trkpt>
      <trkpt lat="45.85894" lon="6.19671">
        <ele>483.4</ele>
        <time>2013-08-17T09:14:22Z</time>
      </trkpt>
      <trkpt lat="45.85889" lon="6.19674">
        <ele>483.4</ele>
        <time>2013-08-17T09:14:23Z</time>
      </trkpt>
      <trkpt lat="45.8588" lon="6.19677">
        <ele>483.3</ele>
        <time>2013-08-17T09:14:24Z</time>
      </trkpt>
      <trkpt lat="45.85873" lon="6.19681">
        <ele>483.4</ele>
        <time>2013-08-17T09:14:25Z</time>
      </trkpt>
      <trkpt lat="45.85867" lon="6.19687">
        <ele>483.8</ele>
        <time>2013-08-17T09:14:26Z</time>
      </trkpt>
      <trkpt lat="45.85863" lon="6.19691">
        <ele>484</ele>
        <time>2013-08-17T09:14:27Z</time>
      </trkpt>
      <trkpt lat="45.85856" lon="6.19697">
        <ele>484.4</ele>
        <time>2013-08-17T09:14:28Z</time>
      </trkpt>
      <trkpt lat="45.85851" lon="6.19702">
        <ele>484.7</ele>
        <time>2013-08-17T09:14:29Z</time>
      </trkpt>
      <trkpt lat="45.85843" lon="6.19705">
        <ele>484.8</ele>
        <time>2013-08-17T09:14:30Z</time>
      </trkpt>
      <trkpt lat="45.85834" lon="6.19709">
        <ele>485</ele>
        <time>2013-08-17T09:14:31Z</time>
      </trkpt>
      <trkpt lat="45.8583" lon="6.19709">
        <ele>485</ele>
        <time>2013-08-17T09:14:32Z</time>
      </trkpt>
      <trkpt lat="45.85828" lon="6.19704">
        <ele>484.8</ele>
        <time>2013-08-17T09:14:34Z</time>
      </trkpt>
      <trkpt lat="45.85819" lon="6.19712">
        <ele>485.3</ele>
        <time>2013-08-17T09:14:35Z</time>
      </trkpt>
      <trkpt lat="45.8581" lon="6.19721">
        <ele>486.3</ele>
        <time>2013-08-17T09:14:36Z</time>
      </trkpt>
      <trkpt lat="45.85808" lon="6.19727">
        <ele>487</ele>
        <time>2013-08-17T09:14:37Z</time>
      </trkpt>
      <trkpt lat="45.85806" lon="6.19735">
        <ele>487.9</ele>
        <time>2013-08-17T09:14:38Z</time>
      </trkpt>
      <trkpt lat="45.85805" lon="6.19741">
        <ele>488.6</ele>
        <time>2013-08-17T09:14:39Z</time>
      </trkpt>
      <trkpt lat="45.85806" lon="6.19745">
        <ele>488.9</ele>
        <time>2013-08-17T09:14:41Z</time>
      </trkpt>
      <trkpt lat="45.85794" lon="6.19763">
        <ele>491.4</ele>
        <time>2013-08-17T09:14:44Z</time>
      </trkpt>
      <trkpt lat="45.85791" lon="6.19768">
        <ele>492.2</ele>
        <time>2013-08-17T09:14:45Z</time>
      </trkpt>
      <trkpt lat="45.85785" lon="6.19774">
        <ele>493.3</ele>
        <time>2013-08-17T09:14:47Z</time>
      </trkpt>
      <trkpt lat="45.85778" lon="6.19778">
        <ele>494.2</ele>
        <time>2013-08-17T09:14:49Z</time>
      </trkpt>
      <trkpt lat="45.85774" lon="6.1978">
        <ele>494.8</ele>
        <time>2013-08-17T09:14:50Z</time>
      </trkpt>
      <trkpt lat="45.85767" lon="6.19782">
        <ele>495.6</ele>
        <time>2013-08-17T09:14:52Z</time>
      </trkpt>
      <trkpt lat="45.85764" lon="6.19783">
        <ele>495.9</ele>
        <time>2013-08-17T09:14:53Z</time>
      </trkpt>
      <trkpt lat="45.85758" lon="6.19778">
        <ele>495.8</ele>
        <time>2013-08-17T09:14:58Z</time>
      </trkpt>
      <trkpt lat="45.85752" lon="6.19778">
        <ele>496.1</ele>
        <time>2013-08-17T09:14:59Z</time>
      </trkpt>
      <trkpt lat="45.8574" lon="6.19777">
        <ele>496.8</ele>
        <time>2013-08-17T09:15:00Z</time>
      </trkpt>
      <trkpt lat="45.85734" lon="6.19774">
        <ele>496.9</ele>
        <time>2013-08-17T09:15:01Z</time>
      </trkpt>
      <trkpt lat="45.85731" lon="6.19772">
        <ele>496.9</ele>
        <time>2013-08-17T09:15:02Z</time>
      </trkpt>
      <trkpt lat="45.85726" lon="6.1977">
        <ele>496.9</ele>
        <time>2013-08-17T09:15:03Z</time>
      </trkpt>
      <trkpt lat="45.85722" lon="6.19767">
        <ele>496.8</ele>
        <time>2013-08-17T09:15:04Z</time>
      </trkpt>
      <trkpt lat="45.85717" lon="6.19763">
        <ele>496.6</ele>
        <time>2013-08-17T09:15:05Z</time>
      </trkpt>
      <trkpt lat="45.85714" lon="6.1976">
        <ele>496.5</ele>
        <time>2013-08-17T09:15:06Z</time>
      </trkpt>
      <trkpt lat="45.8571" lon="6.19757">
        <ele>496.3</ele>
        <time>2013-08-17T09:15:07Z</time>
      </trkpt>
      <trkpt lat="45.85706" lon="6.19753">
        <ele>495.9</ele>
        <time>2013-08-17T09:15:08Z</time>
      </trkpt>
      <trkpt lat="45.85702" lon="6.19749">
        <ele>495.3</ele>
        <time>2013-08-17T09:15:09Z</time>
      </trkpt>
      <trkpt lat="45.85698" lon="6.19744">
        <ele>494.7</ele>
        <time>2013-08-17T09:15:10Z</time>
      </trkpt>
      <trkpt lat="45.85694" lon="6.1974">
        <ele>494.1</ele>
        <time>2013-08-17T09:15:11Z</time>
      </trkpt>
      <trkpt lat="45.8569" lon="6.19735">
        <ele>493.6</ele>
        <time>2013-08-17T09:15:12Z</time>
      </trkpt>
      <trkpt lat="45.85686" lon="6.19732">
        <ele>493.1</ele>
        <time>2013-08-17T09:15:13Z</time>
      </trkpt>
      <trkpt lat="45.85677" lon="6.19728">
        <ele>492.7</ele>
        <time>2013-08-17T09:15:14Z</time>
      </trkpt>
      <trkpt lat="45.85671" lon="6.19726">
        <ele>492.4</ele>
        <time>2013-08-17T09:15:15Z</time>
      </trkpt>
      <trkpt lat="45.85668" lon="6.19724">
        <ele>492.3</ele>
        <time>2013-08-17T09:15:16Z</time>
      </trkpt>
      <trkpt lat="45.85664" lon="6.19722">
        <ele>492.1</ele>
        <time>2013-08-17T09:15:17Z</time>
      </trkpt>
      <trkpt lat="45.85661" lon="6.19721">
        <ele>492</ele>
        <time>2013-08-17T09:15:18Z</time>
      </trkpt>
      <trkpt lat="45.85655" lon="6.19724">
        <ele>492.3</ele>
        <time>2013-08-17T09:15:19Z</time>
      </trkpt>
      <trkpt lat="45.85652" lon="6.19725">
        <ele>492.4</ele>
        <time>2013-08-17T09:15:20Z</time>
      </trkpt>
      <trkpt lat="45.85647" lon="6.19725">
        <ele>492.5</ele>
        <time>2013-08-17T09:15:21Z</time>
      </trkpt>
      <trkpt lat="45.85644" lon="6.19727">
        <ele>492.7</ele>
        <time>2013-08-17T09:15:22Z</time>
      </trkpt>
      <trkpt lat="45.85639" lon="6.19728">
        <ele>492.8</ele>
        <time>2013-08-17T09:15:23Z</time>
      </trkpt>
      <trkpt lat="45.85635" lon="6.19729">
        <ele>493</ele>
        <time>2013-08-17T09:15:24Z</time>
      </trkpt>
      <trkpt lat="45.85631" lon="6.1973">
        <ele>493.1</ele>
        <time>2013-08-17T09:15:25Z</time>
      </trkpt>
      <trkpt lat="45.85627" lon="6.19731">
        <ele>493.2</ele>
        <time>2013-08-17T09:15:26Z</time>
      </trkpt>
      <trkpt lat="45.8562" lon="6.19733">
        <ele>493.4</ele>
        <time>2013-08-17T09:15:27Z</time>
      </trkpt>
      <trkpt lat="45.85614" lon="6.19737">
        <ele>493.9</ele>
        <time>2013-08-17T09:15:29Z</time>
      </trkpt>
      <trkpt lat="45.85604" lon="6.19744">
        <ele>494.5</ele>
        <time>2013-08-17T09:15:30Z</time>
      </trkpt>
      <trkpt lat="45.85597" lon="6.19748">
        <ele>494.9</ele>
        <time>2013-08-17T09:15:31Z</time>
      </trkpt>
      <trkpt lat="45.85593" lon="6.19751">
        <ele>495.1</ele>
        <time>2013-08-17T09:15:32Z</time>
      </trkpt>
      <trkpt lat="45.85589" lon="6.19754">
        <ele>495.2</ele>
        <time>2013-08-17T09:15:33Z</time>
      </trkpt>
      <trkpt lat="45.85583" lon="6.19762">
        <ele>495.7</ele>
        <time>2013-08-17T09:15:34Z</time>
      </trkpt>
      <trkpt lat="45.85579" lon="6.19767">
        <ele>495.9</ele>
        <time>2013-08-17T09:15:35Z</time>
      </trkpt>
      <trkpt lat="45.85574" lon="6.19773">
        <ele>496.2</ele>
        <time>2013-08-17T09:15:36Z</time>
      </trkpt>
      <trkpt lat="45.85571" lon="6.19778">
        <ele>496.4</ele>
        <time>2013-08-17T09:15:37Z</time>
      </trkpt>
      <trkpt lat="45.85569" lon="6.19781">
        <ele>496.5</ele>
        <time>2013-08-17T09:15:38Z</time>
      </trkpt>
      <trkpt lat="45.85564" lon="6.19788">
        <ele>496.6</ele>
        <time>2013-08-17T09:15:39Z</time>
      </trkpt>
      <trkpt lat="45.8556" lon="6.19792">
        <ele>496.7</ele>
        <time>2013-08-17T09:15:40Z</time>
      </trkpt>
      <trkpt lat="45.85557" lon="6.19795">
        <ele>496.8</ele>
        <time>2013-08-17T09:15:41Z</time>
      </trkpt>
      <trkpt lat="45.85555" lon="6.198">
        <ele>497.1</ele>
        <time>2013-08-17T09:15:42Z</time>
      </trkpt>
      <trkpt lat="45.85551" lon="6.19803">
        <ele>497.2</ele>
        <time>2013-08-17T09:15:43Z</time>
      </trkpt>
      <trkpt lat="45.85547" lon="6.19808">
        <ele>497.3</ele>
        <time>2013-08-17T09:15:44Z</time>
      </trkpt>
      <trkpt lat="45.85543" lon="6.19811">
        <ele>497.5</ele>
        <time>2013-08-17T09:15:45Z</time>
      </trkpt>
      <trkpt lat="45.85541" lon="6.19816">
        <ele>497.8</ele>
        <time>2013-08-17T09:15:46Z</time>
      </trkpt>
      <trkpt lat="45.85538" lon="6.19822">
        <ele>498.6</ele>
        <time>2013-08-17T09:15:47Z</time>
      </trkpt>
      <trkpt lat="45.85535" lon="6.19826">
        <ele>499.1</ele>
        <time>2013-08-17T09:15:48Z</time>
      </trkpt>
      <trkpt lat="45.85532" lon="6.1983">
        <ele>499.8</ele>
        <time>2013-08-17T09:15:49Z</time>
      </trkpt>
      <trkpt lat="45.85528" lon="6.19834">
        <ele>500.4</ele>
        <time>2013-08-17T09:15:50Z</time>
      </trkpt>
      <trkpt lat="45.85525" lon="6.19838">
        <ele>501</ele>
        <time>2013-08-17T09:15:51Z</time>
      </trkpt>
      <trkpt lat="45.85519" lon="6.19845">
        <ele>501.9</ele>
        <time>2013-08-17T09:15:52Z</time>
      </trkpt>
      <trkpt lat="45.85515" lon="6.1985">
        <ele>502.6</ele>
        <time>2013-08-17T09:15:53Z</time>
      </trkpt>
      <trkpt lat="45.85512" lon="6.19855">
        <ele>503.1</ele>
        <time>2013-08-17T09:15:54Z</time>
      </trkpt>
      <trkpt lat="45.85511" lon="6.1986">
        <ele>503.5</ele>
        <time>2013-08-17T09:15:56Z</time>
      </trkpt>
      <trkpt lat="45.85509" lon="6.19864">
        <ele>503.9</ele>
        <time>2013-08-17T09:15:57Z</time>
      </trkpt>
      <trkpt lat="45.85506" lon="6.19869">
        <ele>504.3</ele>
        <time>2013-08-17T09:15:58Z</time>
      </trkpt>
      <trkpt lat="45.85502" lon="6.19872">
        <ele>504.7</ele>
        <time>2013-08-17T09:15:59Z</time>
      </trkpt>
      <trkpt lat="45.85497" lon="6.19876">
        <ele>505.3</ele>
        <time>2013-08-17T09:16:00Z</time>
      </trkpt>
      <trkpt lat="45.85496" lon="6.19881">
        <ele>505.7</ele>
        <time>2013-08-17T09:16:01Z</time>
      </trkpt>
      <trkpt lat="45.85493" lon="6.19886">
        <ele>506.3</ele>
        <time>2013-08-17T09:16:02Z</time>
      </trkpt>
      <trkpt lat="45.8549" lon="6.19892">
        <ele>506.8</ele>
        <time>2013-08-17T09:16:03Z</time>
      </trkpt>
      <trkpt lat="45.85489" lon="6.19896">
        <ele>507.2</ele>
        <time>2013-08-17T09:16:04Z</time>
      </trkpt>
      <trkpt lat="45.85486" lon="6.19901">
        <ele>507.6</ele>
        <time>2013-08-17T09:16:05Z</time>
      </trkpt>
      <trkpt lat="45.85483" lon="6.19905">
        <ele>508.1</ele>
        <time>2013-08-17T09:16:06Z</time>
      </trkpt>
      <trkpt lat="45.85481" lon="6.19909">
        <ele>508.5</ele>
        <time>2013-08-17T09:16:07Z</time>
      </trkpt>
      <trkpt lat="45.85477" lon="6.19913">
        <ele>508.9</ele>
        <time>2013-08-17T09:16:08Z</time>
      </trkpt>
      <trkpt lat="45.85474" lon="6.19917">
        <ele>509.2</ele>
        <time>2013-08-17T09:16:09Z</time>
      </trkpt>
      <trkpt lat="45.85471" lon="6.19921">
        <ele>509.6</ele>
        <time>2013-08-17T09:16:10Z</time>
      </trkpt>
      <trkpt lat="45.85468" lon="6.19925">
        <ele>509.9</ele>
        <time>2013-08-17T09:16:11Z</time>
      </trkpt>
      <trkpt lat="45.85466" lon="6.19929">
        <ele>510.3</ele>
        <time>2013-08-17T09:16:12Z</time>
      </trkpt>
      <trkpt lat="45.85463" lon="6.19933">
        <ele>510.6</ele>
        <time>2013-08-17T09:16:13Z</time>
      </trkpt>
      <trkpt lat="45.85461" lon="6.19938">
        <ele>510.9</ele>
        <time>2013-08-17T09:16:14Z</time>
      </trkpt>
      <trkpt lat="45.85459" lon="6.19942">
        <ele>511.2</ele>
        <time>2013-08-17T09:16:15Z</time>
      </trkpt>
      <trkpt lat="45.85456" lon="6.19947">
        <ele>511.7</ele>
        <time>2013-08-17T09:16:16Z</time>
      </trkpt>
      <trkpt lat="45.85453" lon="6.19952">
        <ele>512.3</ele>
        <time>2013-08-17T09:16:17Z</time>
      </trkpt>
      <trkpt lat="45.85451" lon="6.19956">
        <ele>512.7</ele>
        <time>2013-08-17T09:16:18Z</time>
      </trkpt>
      <trkpt lat="45.85449" lon="6.19961">
        <ele>513.1</ele>
        <time>2013-08-17T09:16:19Z</time>
      </trkpt>
      <trkpt lat="45.85447" lon="6.19966">
        <ele>513.4</ele>
        <time>2013-08-17T09:16:20Z</time>
      </trkpt>
      <trkpt lat="45.85445" lon="6.19971">
        <ele>513.8</ele>
        <time>2013-08-17T09:16:21Z</time>
      </trkpt>
      <trkpt lat="45.85444" lon="6.19976">
        <ele>514.1</ele>
        <time>2013-08-17T09:16:22Z</time>
      </trkpt>
      <trkpt lat="45.85442" lon="6.19981">
        <ele>514.4</ele>
        <time>2013-08-17T09:16:23Z</time>
      </trkpt>
      <trkpt lat="45.8544" lon="6.19986">
        <ele>514.7</ele>
        <time>2013-08-17T09:16:24Z</time>
      </trkpt>
      <trkpt lat="45.85438" lon="6.1999">
        <ele>515.1</ele>
        <time>2013-08-17T09:16:25Z</time>
      </trkpt>
      <trkpt lat="45.85436" lon="6.19994">
        <ele>515.4</ele>
        <time>2013-08-17T09:16:26Z</time>
      </trkpt>
      <trkpt lat="45.85434" lon="6.19998">
        <ele>515.7</ele>
        <time>2013-08-17T09:16:27Z</time>
      </trkpt>
      <trkpt lat="45.85432" lon="6.20002">
        <ele>515.9</ele>
        <time>2013-08-17T09:16:28Z</time>
      </trkpt>
      <trkpt lat="45.8543" lon="6.20005">
        <ele>516.2</ele>
        <time>2013-08-17T09:16:29Z</time>
      </trkpt>
      <trkpt lat="45.85428" lon="6.20008">
        <ele>516.4</ele>
        <time>2013-08-17T09:16:30Z</time>
      </trkpt>
      <trkpt lat="45.85426" lon="6.20012">
        <ele>516.7</ele>
        <time>2013-08-17T09:16:31Z</time>
      </trkpt>
      <trkpt lat="45.85424" lon="6.20016">
        <ele>517</ele>
        <time>2013-08-17T09:16:32Z</time>
      </trkpt>
      <trkpt lat="45.85421" lon="6.2002">
        <ele>517.2</ele>
        <time>2013-08-17T09:16:33Z</time>
      </trkpt>
      <trkpt lat="45.85419" lon="6.20024">
        <ele>517.5</ele>
        <time>2013-08-17T09:16:34Z</time>
      </trkpt>
      <trkpt lat="45.85417" lon="6.20028">
        <ele>517.7</ele>
        <time>2013-08-17T09:16:35Z</time>
      </trkpt>
      <trkpt lat="45.85415" lon="6.20032">
        <ele>517.9</ele>
        <time>2013-08-17T09:16:36Z</time>
      </trkpt>
      <trkpt lat="45.85413" lon="6.20036">
        <ele>518.1</ele>
        <time>2013-08-17T09:16:37Z</time>
      </trkpt>
      <trkpt lat="45.85411" lon="6.2004">
        <ele>518.4</ele>
        <time>2013-08-17T09:16:38Z</time>
      </trkpt>
      <trkpt lat="45.85409" lon="6.20044">
        <ele>518.6</ele>
        <time>2013-08-17T09:16:39Z</time>
      </trkpt>
      <trkpt lat="45.85407" lon="6.20048">
        <ele>519</ele>
        <time>2013-08-17T09:16:40Z</time>
      </trkpt>
      <trkpt lat="45.85404" lon="6.20053">
        <ele>519.4</ele>
        <time>2013-08-17T09:16:41Z</time>
      </trkpt>
      <trkpt lat="45.85402" lon="6.20059">
        <ele>519.7</ele>
        <time>2013-08-17T09:16:42Z</time>
      </trkpt>
      <trkpt lat="45.85399" lon="6.20065">
        <ele>520.1</ele>
        <time>2013-08-17T09:16:43Z</time>
      </trkpt>
      <trkpt lat="45.85397" lon="6.2007">
        <ele>520.4</ele>
        <time>2013-08-17T09:16:44Z</time>
      </trkpt>
      <trkpt lat="45.85396" lon="6.20076">
        <ele>520.7</ele>
        <time>2013-08-17T09:16:45Z</time>
      </trkpt>
      <trkpt lat="45.85394" lon="6.20081">
        <ele>521</ele>
        <time>2013-08-17T09:16:46Z</time>
      </trkpt>
      <trkpt lat="45.85393" lon="6.20086">
        <ele>521.2</ele>
        <time>2013-08-17T09:16:47Z</time>
      </trkpt>
      <trkpt lat="45.85391" lon="6.20091">
        <ele>521.5</ele>
        <time>2013-08-17T09:16:48Z</time>
      </trkpt>
      <trkpt lat="45.85389" lon="6.20096">
        <ele>521.7</ele>
        <time>2013-08-17T09:16:49Z</time>
      </trkpt>
      <trkpt lat="45.85388" lon="6.20102">
        <ele>522</ele>
        <time>2013-08-17T09:16:50Z</time>
      </trkpt>
      <trkpt lat="45.85385" lon="6.20109">
        <ele>522.3</ele>
        <time>2013-08-17T09:16:51Z</time>
      </trkpt>
      <trkpt lat="45.85383" lon="6.20116">
        <ele>522.5</ele>
        <time>2013-08-17T09:16:52Z</time>
      </trkpt>
      <trkpt lat="45.85381" lon="6.20121">
        <ele>522.8</ele>
        <time>2013-08-17T09:16:53Z</time>
      </trkpt>
      <trkpt lat="45.85379" lon="6.20128">
        <ele>523</ele>
        <time>2013-08-17T09:16:54Z</time>
      </trkpt>
      <trkpt lat="45.85376" lon="6.20133">
        <ele>523.2</ele>
        <time>2013-08-17T09:16:55Z</time>
      </trkpt>
      <trkpt lat="45.85373" lon="6.20139">
        <ele>523.5</ele>
        <time>2013-08-17T09:16:56Z</time>
      </trkpt>
      <trkpt lat="45.8537" lon="6.20145">
        <ele>523.9</ele>
        <time>2013-08-17T09:16:57Z</time>
      </trkpt>
      <trkpt lat="45.85368" lon="6.2015">
        <ele>524.3</ele>
        <time>2013-08-17T09:16:58Z</time>
      </trkpt>
      <trkpt lat="45.85365" lon="6.20155">
        <ele>524.6</ele>
        <time>2013-08-17T09:16:59Z</time>
      </trkpt>
      <trkpt lat="45.85363" lon="6.2016">
        <ele>525</ele>
        <time>2013-08-17T09:17:00Z</time>
      </trkpt>
      <trkpt lat="45.8536" lon="6.20165">
        <ele>525.4</ele>
        <time>2013-08-17T09:17:01Z</time>
      </trkpt>
      <trkpt lat="45.85358" lon="6.2017">
        <ele>525.7</ele>
        <time>2013-08-17T09:17:02Z</time>
      </trkpt>
      <trkpt lat="45.85356" lon="6.20175">
        <ele>526</ele>
        <time>2013-08-17T09:17:03Z</time>
      </trkpt>
      <trkpt lat="45.85354" lon="6.2018">
        <ele>526.3</ele>
        <time>2013-08-17T09:17:04Z</time>
      </trkpt>
      <trkpt lat="45.85353" lon="6.20184">
        <ele>526.6</ele>
        <time>2013-08-17T09:17:05Z</time>
      </trkpt>
      <trkpt lat="45.8535" lon="6.20189">
        <ele>527</ele>
        <time>2013-08-17T09:17:07Z</time>
      </trkpt>
      <trkpt lat="45.85349" lon="6.20194">
        <ele>527.1</ele>
        <time>2013-08-17T09:17:09Z</time>
      </trkpt>
      <trkpt lat="45.8535" lon="6.20198">
        <ele>527.1</ele>
        <time>2013-08-17T09:17:11Z</time>
      </trkpt>
      <trkpt lat="45.85353" lon="6.20199">
        <ele>526.9</ele>
        <time>2013-08-17T09:17:13Z</time>
      </trkpt>
      <trkpt lat="45.85354" lon="6.20196">
        <ele>526.7</ele>
        <time>2013-08-17T09:17:15Z</time>
      </trkpt>
      <trkpt lat="45.85354" lon="6.20209">
        <ele>527</ele>
        <time>2013-08-17T09:17:17Z</time>
      </trkpt>
      <trkpt lat="45.85351" lon="6.2022">
        <ele>527.6</ele>
        <time>2013-08-17T09:18:20Z</time>
      </trkpt>
      <trkpt lat="45.85348" lon="6.2022">
        <ele>527.9</ele>
        <time>2013-08-17T09:18:29Z</time>
      </trkpt>
      <trkpt lat="45.85344" lon="6.20222">
        <ele>528.3</ele>
        <time>2013-08-17T09:18:37Z</time>
      </trkpt>
      <trkpt lat="45.85343" lon="6.20227">
        <ele>528.5</ele>
        <time>2013-08-17T09:18:39Z</time>
      </trkpt>
      <trkpt lat="45.85341" lon="6.20233">
        <ele>528.8</ele>
        <time>2013-08-17T09:18:41Z</time>
      </trkpt>
      <trkpt lat="45.85339" lon="6.20238">
        <ele>529.2</ele>
        <time>2013-08-17T09:18:43Z</time>
      </trkpt>
      <trkpt lat="45.85336" lon="6.20247">
        <ele>529.6</ele>
        <time>2013-08-17T09:18:45Z</time>
      </trkpt>
      <trkpt lat="45.85335" lon="6.20253">
        <ele>529.9</ele>
        <time>2013-08-17T09:18:46Z</time>
      </trkpt>
      <trkpt lat="45.85333" lon="6.20261">
        <ele>530.3</ele>
        <time>2013-08-17T09:18:47Z</time>
      </trkpt>
      <trkpt lat="45.85331" lon="6.2027">
        <ele>530.7</ele>
        <time>2013-08-17T09:18:48Z</time>
      </trkpt>
      <trkpt lat="45.85328" lon="6.20285">
        <ele>531.3</ele>
        <time>2013-08-17T09:18:49Z</time>
      </trkpt>
      <trkpt lat="45.85325" lon="6.20306">
        <ele>531.9</ele>
        <time>2013-08-17T09:18:50Z</time>
      </trkpt>
      <trkpt lat="45.85324" lon="6.20319">
        <ele>532.2</ele>
        <time>2013-08-17T09:18:51Z</time>
      </trkpt>
      <trkpt lat="45.85323" lon="6.20327">
        <ele>532.4</ele>
        <time>2013-08-17T09:18:52Z</time>
      </trkpt>
      <trkpt lat="45.85322" lon="6.20336">
        <ele>532.5</ele>
        <time>2013-08-17T09:18:53Z</time>
      </trkpt>
      <trkpt lat="45.8532" lon="6.20343">
        <ele>532.7</ele>
        <time>2013-08-17T09:18:54Z</time>
      </trkpt>
      <trkpt lat="45.85318" lon="6.20348">
        <ele>532.9</ele>
        <time>2013-08-17T09:18:55Z</time>
      </trkpt>
      <trkpt lat="45.85318" lon="6.20354">
        <ele>533</ele>
        <time>2013-08-17T09:18:56Z</time>
      </trkpt>
      <trkpt lat="45.85318" lon="6.20359">
        <ele>533</ele>
        <time>2013-08-17T09:18:57Z</time>
      </trkpt>
      <trkpt lat="45.85317" lon="6.20365">
        <ele>533.1</ele>
        <time>2013-08-17T09:18:58Z</time>
      </trkpt>
      <trkpt lat="45.85317" lon="6.20373">
        <ele>533.2</ele>
        <time>2013-08-17T09:18:59Z</time>
      </trkpt>
      <trkpt lat="45.85317" lon="6.20377">
        <ele>533.2</ele>
        <time>2013-08-17T09:19:00Z</time>
      </trkpt>
      <trkpt lat="45.85317" lon="6.20382">
        <ele>533.4</ele>
        <time>2013-08-17T09:19:01Z</time>
      </trkpt>
      <trkpt lat="45.85316" lon="6.20386">
        <ele>533.5</ele>
        <time>2013-08-17T09:19:02Z</time>
      </trkpt>
      <trkpt lat="45.85316" lon="6.2039">
        <ele>533.6</ele>
        <time>2013-08-17T09:19:03Z</time>
      </trkpt>
      <trkpt lat="45.85315" lon="6.20395">
        <ele>533.7</ele>
        <time>2013-08-17T09:19:04Z</time>
      </trkpt>
      <trkpt lat="45.85315" lon="6.204">
        <ele>533.9</ele>
        <time>2013-08-17T09:19:05Z</time>
      </trkpt>
      <trkpt lat="45.85315" lon="6.20404">
        <ele>534</ele>
        <time>2013-08-17T09:19:06Z</time>
      </trkpt>
      <trkpt lat="45.85315" lon="6.20409">
        <ele>534.1</ele>
        <time>2013-08-17T09:19:07Z</time>
      </trkpt>
      <trkpt lat="45.85314" lon="6.20413">
        <ele>534.2</ele>
        <time>2013-08-17T09:19:08Z</time>
      </trkpt>
      <trkpt lat="45.85313" lon="6.20418">
        <ele>534.4</ele>
        <time>2013-08-17T09:19:09Z</time>
      </trkpt>
      <trkpt lat="45.85312" lon="6.20422">
        <ele>534.5</ele>
        <time>2013-08-17T09:19:10Z</time>
      </trkpt>
      <trkpt lat="45.85312" lon="6.20426">
        <ele>534.6</ele>
        <time>2013-08-17T09:19:11Z</time>
      </trkpt>
      <trkpt lat="45.85311" lon="6.20431">
        <ele>534.8</ele>
        <time>2013-08-17T09:19:12Z</time>
      </trkpt>
      <trkpt lat="45.8531" lon="6.20435">
        <ele>534.9</ele>
        <time>2013-08-17T09:19:13Z</time>
      </trkpt>
      <trkpt lat="45.85309" lon="6.20439">
        <ele>535</ele>
        <time>2013-08-17T09:19:14Z</time>
      </trkpt>
      <trkpt lat="45.85308" lon="6.20443">
        <ele>535.1</ele>
        <time>2013-08-17T09:19:15Z</time>
      </trkpt>
      <trkpt lat="45.85307" lon="6.20447">
        <ele>535.2</ele>
        <time>2013-08-17T09:19:16Z</time>
      </trkpt>
      <trkpt lat="45.85306" lon="6.20451">
        <ele>535.3</ele>
        <time>2013-08-17T09:19:17Z</time>
      </trkpt>
      <trkpt lat="45.85305" lon="6.20455">
        <ele>535.5</ele>
        <time>2013-08-17T09:19:18Z</time>
      </trkpt>
      <trkpt lat="45.85304" lon="6.20458">
        <ele>535.6</ele>
        <time>2013-08-17T09:19:19Z</time>
      </trkpt>
      <trkpt lat="45.85302" lon="6.20463">
        <ele>535.6</ele>
        <time>2013-08-17T09:19:20Z</time>
      </trkpt>
      <trkpt lat="45.853" lon="6.20467">
        <ele>535.7</ele>
        <time>2013-08-17T09:19:21Z</time>
      </trkpt>
      <trkpt lat="45.85299" lon="6.20471">
        <ele>535.8</ele>
        <time>2013-08-17T09:19:22Z</time>
      </trkpt>
      <trkpt lat="45.85297" lon="6.20475">
        <ele>535.8</ele>
        <time>2013-08-17T09:19:23Z</time>
      </trkpt>
      <trkpt lat="45.85295" lon="6.20478">
        <ele>535.9</ele>
        <time>2013-08-17T09:19:24Z</time>
      </trkpt>
      <trkpt lat="45.85294" lon="6.20482">
        <ele>535.9</ele>
        <time>2013-08-17T09:19:25Z</time>
      </trkpt>
      <trkpt lat="45.85292" lon="6.20485">
        <ele>536</ele>
        <time>2013-08-17T09:19:26Z</time>
      </trkpt>
      <trkpt lat="45.8529" lon="6.20488">
        <ele>536.2</ele>
        <time>2013-08-17T09:19:27Z</time>
      </trkpt>
      <trkpt lat="45.85287" lon="6.20491">
        <ele>536.5</ele>
        <time>2013-08-17T09:19:28Z</time>
      </trkpt>
      <trkpt lat="45.85285" lon="6.20494">
        <ele>536.7</ele>
        <time>2013-08-17T09:19:29Z</time>
      </trkpt>
      <trkpt lat="45.85284" lon="6.20497">
        <ele>536.9</ele>
        <time>2013-08-17T09:19:30Z</time>
      </trkpt>
      <trkpt lat="45.85282" lon="6.20501">
        <ele>537.1</ele>
        <time>2013-08-17T09:19:31Z</time>
      </trkpt>
      <trkpt lat="45.8528" lon="6.20504">
        <ele>537.4</ele>
        <time>2013-08-17T09:19:32Z</time>
      </trkpt>
      <trkpt lat="45.85278" lon="6.20508">
        <ele>537.6</ele>
        <time>2013-08-17T09:19:33Z</time>
      </trkpt>
      <trkpt lat="45.85276" lon="6.20512">
        <ele>537.9</ele>
        <time>2013-08-17T09:19:34Z</time>
      </trkpt>
      <trkpt lat="45.85274" lon="6.20514">
        <ele>538.1</ele>
        <time>2013-08-17T09:19:35Z</time>
      </trkpt>
      <trkpt lat="45.85271" lon="6.20518">
        <ele>538.5</ele>
        <time>2013-08-17T09:19:36Z</time>
      </trkpt>
      <trkpt lat="45.85269" lon="6.20523">
        <ele>538.8</ele>
        <time>2013-08-17T09:19:37Z</time>
      </trkpt>
      <trkpt lat="45.85267" lon="6.20526">
        <ele>539</ele>
        <time>2013-08-17T09:19:38Z</time>
      </trkpt>
      <trkpt lat="45.85266" lon="6.20529">
        <ele>539.3</ele>
        <time>2013-08-17T09:19:39Z</time>
      </trkpt>
      <trkpt lat="45.85263" lon="6.20535">
        <ele>539.7</ele>
        <time>2013-08-17T09:19:41Z</time>
      </trkpt>
      <trkpt lat="45.85259" lon="6.20539">
        <ele>540.2</ele>
        <time>2013-08-17T09:19:43Z</time>
      </trkpt>
      <trkpt lat="45.85257" lon="6.20542">
        <ele>540.6</ele>
        <time>2013-08-17T09:19:44Z</time>
      </trkpt>
      <trkpt lat="45.85254" lon="6.20545">
        <ele>540.9</ele>
        <time>2013-08-17T09:19:45Z</time>
      </trkpt>
      <trkpt lat="45.85252" lon="6.20548">
        <ele>541.3</ele>
        <time>2013-08-17T09:19:46Z</time>
      </trkpt>
      <trkpt lat="45.85249" lon="6.20551">
        <ele>541.6</ele>
        <time>2013-08-17T09:19:47Z</time>
      </trkpt>
      <trkpt lat="45.85246" lon="6.20554">
        <ele>541.9</ele>
        <time>2013-08-17T09:19:48Z</time>
      </trkpt>
      <trkpt lat="45.85243" lon="6.20558">
        <ele>542.2</ele>
        <time>2013-08-17T09:19:49Z</time>
      </trkpt>
      <trkpt lat="45.85241" lon="6.20561">
        <ele>542.5</ele>
        <time>2013-08-17T09:19:50Z</time>
      </trkpt>
      <trkpt lat="45.85239" lon="6.20563">
        <ele>542.8</ele>
        <time>2013-08-17T09:19:51Z</time>
      </trkpt>
      <trkpt lat="45.85236" lon="6.20566">
        <ele>543.1</ele>
        <time>2013-08-17T09:19:52Z</time>
      </trkpt>
      <trkpt lat="45.85233" lon="6.20569">
        <ele>543.3</ele>
        <time>2013-08-17T09:19:53Z</time>
      </trkpt>
      <trkpt lat="45.85231" lon="6.20572">
        <ele>543.6</ele>
        <time>2013-08-17T09:19:54Z</time>
      </trkpt>
      <trkpt lat="45.85228" lon="6.20574">
        <ele>543.9</ele>
        <time>2013-08-17T09:19:55Z</time>
      </trkpt>
      <trkpt lat="45.85226" lon="6.20577">
        <ele>544.1</ele>
        <time>2013-08-17T09:19:56Z</time>
      </trkpt>
      <trkpt lat="45.85224" lon="6.2058">
        <ele>544.3</ele>
        <time>2013-08-17T09:19:57Z</time>
      </trkpt>
      <trkpt lat="45.85221" lon="6.20583">
        <ele>544.6</ele>
        <time>2013-08-17T09:19:58Z</time>
      </trkpt>
      <trkpt lat="45.85219" lon="6.20586">
        <ele>544.8</ele>
        <time>2013-08-17T09:19:59Z</time>
      </trkpt>
      <trkpt lat="45.85217" lon="6.20589">
        <ele>544.9</ele>
        <time>2013-08-17T09:20:00Z</time>
      </trkpt>
      <trkpt lat="45.85214" lon="6.20592">
        <ele>545.1</ele>
        <time>2013-08-17T09:20:01Z</time>
      </trkpt>
      <trkpt lat="45.85211" lon="6.20595">
        <ele>545.4</ele>
        <time>2013-08-17T09:20:02Z</time>
      </trkpt>
      <trkpt lat="45.85208" lon="6.20597">
        <ele>545.7</ele>
        <time>2013-08-17T09:20:03Z</time>
      </trkpt>
      <trkpt lat="45.85205" lon="6.20599">
        <ele>545.9</ele>
        <time>2013-08-17T09:20:04Z</time>
      </trkpt>
      <trkpt lat="45.85203" lon="6.20602">
        <ele>546.1</ele>
        <time>2013-08-17T09:20:05Z</time>
      </trkpt>
      <trkpt lat="45.85201" lon="6.20604">
        <ele>546.2</ele>
        <time>2013-08-17T09:20:06Z</time>
      </trkpt>
      <trkpt lat="45.85199" lon="6.20607">
        <ele>546.4</ele>
        <time>2013-08-17T09:20:07Z</time>
      </trkpt>
      <trkpt lat="45.85196" lon="6.20613">
        <ele>546.5</ele>
        <time>2013-08-17T09:20:09Z</time>
      </trkpt>
      <trkpt lat="45.85193" lon="6.20618">
        <ele>546.7</ele>
        <time>2013-08-17T09:20:11Z</time>
      </trkpt>
      <trkpt lat="45.8519" lon="6.20623">
        <ele>546.9</ele>
        <time>2013-08-17T09:20:13Z</time>
      </trkpt>
      <trkpt lat="45.85186" lon="6.20628">
        <ele>547</ele>
        <time>2013-08-17T09:20:15Z</time>
      </trkpt>
      <trkpt lat="45.85184" lon="6.20631">
        <ele>547.2</ele>
        <time>2013-08-17T09:20:16Z</time>
      </trkpt>
      <trkpt lat="45.85182" lon="6.20634">
        <ele>547.3</ele>
        <time>2013-08-17T09:20:17Z</time>
      </trkpt>
      <trkpt lat="45.8518" lon="6.20637">
        <ele>547.4</ele>
        <time>2013-08-17T09:20:18Z</time>
      </trkpt>
      <trkpt lat="45.85177" lon="6.20641">
        <ele>547.5</ele>
        <time>2013-08-17T09:20:19Z</time>
      </trkpt>
      <trkpt lat="45.85175" lon="6.20643">
        <ele>547.6</ele>
        <time>2013-08-17T09:20:20Z</time>
      </trkpt>
      <trkpt lat="45.85172" lon="6.20647">
        <ele>547.8</ele>
        <time>2013-08-17T09:20:21Z</time>
      </trkpt>
      <trkpt lat="45.85169" lon="6.2065">
        <ele>547.9</ele>
        <time>2013-08-17T09:20:22Z</time>
      </trkpt>
      <trkpt lat="45.85167" lon="6.20653">
        <ele>548</ele>
        <time>2013-08-17T09:20:23Z</time>
      </trkpt>
      <trkpt lat="45.85164" lon="6.20656">
        <ele>548.1</ele>
        <time>2013-08-17T09:20:24Z</time>
      </trkpt>
      <trkpt lat="45.85163" lon="6.2066">
        <ele>548.1</ele>
        <time>2013-08-17T09:20:25Z</time>
      </trkpt>
      <trkpt lat="45.8516" lon="6.20664">
        <ele>548.1</ele>
        <time>2013-08-17T09:20:27Z</time>
      </trkpt>
      <trkpt lat="45.85158" lon="6.20669">
        <ele>548.2</ele>
        <time>2013-08-17T09:20:29Z</time>
      </trkpt>
      <trkpt lat="45.85155" lon="6.20673">
        <ele>548.2</ele>
        <time>2013-08-17T09:20:31Z</time>
      </trkpt>
      <trkpt lat="45.85151" lon="6.20679">
        <ele>548.3</ele>
        <time>2013-08-17T09:20:33Z</time>
      </trkpt>
      <trkpt lat="45.85149" lon="6.20681">
        <ele>548.4</ele>
        <time>2013-08-17T09:20:34Z</time>
      </trkpt>
      <trkpt lat="45.85146" lon="6.20684">
        <ele>548.5</ele>
        <time>2013-08-17T09:20:35Z</time>
      </trkpt>
      <trkpt lat="45.85144" lon="6.20687">
        <ele>548.6</ele>
        <time>2013-08-17T09:20:36Z</time>
      </trkpt>
      <trkpt lat="45.85141" lon="6.2069">
        <ele>548.7</ele>
        <time>2013-08-17T09:20:37Z</time>
      </trkpt>
      <trkpt lat="45.85138" lon="6.20693">
        <ele>548.7</ele>
        <time>2013-08-17T09:20:38Z</time>
      </trkpt>
      <trkpt lat="45.85136" lon="6.20696">
        <ele>548.8</ele>
        <time>2013-08-17T09:20:39Z</time>
      </trkpt>
      <trkpt lat="45.85134" lon="6.20699">
        <ele>548.8</ele>
        <time>2013-08-17T09:20:40Z</time>
      </trkpt>
      <trkpt lat="45.85131" lon="6.20703">
        <ele>548.8</ele>
        <time>2013-08-17T09:20:41Z</time>
      </trkpt>
      <trkpt lat="45.85128" lon="6.20706">
        <ele>548.9</ele>
        <time>2013-08-17T09:20:42Z</time>
      </trkpt>
      <trkpt lat="45.85125" lon="6.2071">
        <ele>548.9</ele>
        <time>2013-08-17T09:20:43Z</time>
      </trkpt>
      <trkpt lat="45.85122" lon="6.20714">
        <ele>549</ele>
        <time>2013-08-17T09:20:44Z</time>
      </trkpt>
      <trkpt lat="45.85119" lon="6.20718">
        <ele>549</ele>
        <time>2013-08-17T09:20:45Z</time>
      </trkpt>
      <trkpt lat="45.85116" lon="6.20722">
        <ele>549</ele>
        <time>2013-08-17T09:20:46Z</time>
      </trkpt>
      <trkpt lat="45.85113" lon="6.20726">
        <ele>549.1</ele>
        <time>2013-08-17T09:20:47Z</time>
      </trkpt>
      <trkpt lat="45.8511" lon="6.2073">
        <ele>549.1</ele>
        <time>2013-08-17T09:20:48Z</time>
      </trkpt>
      <trkpt lat="45.85107" lon="6.20733">
        <ele>549.1</ele>
        <time>2013-08-17T09:20:49Z</time>
      </trkpt>
      <trkpt lat="45.85105" lon="6.20736">
        <ele>549.1</ele>
        <time>2013-08-17T09:20:50Z</time>
      </trkpt>
      <trkpt lat="45.85103" lon="6.2074">
        <ele>549</ele>
        <time>2013-08-17T09:20:51Z</time>
      </trkpt>
      <trkpt lat="45.85099" lon="6.20745">
        <ele>548.9</ele>
        <time>2013-08-17T09:20:53Z</time>
      </trkpt>
      <trkpt lat="45.85097" lon="6.20748">
        <ele>548.9</ele>
        <time>2013-08-17T09:20:54Z</time>
      </trkpt>
      <trkpt lat="45.85095" lon="6.20751">
        <ele>548.9</ele>
        <time>2013-08-17T09:20:55Z</time>
      </trkpt>
      <trkpt lat="45.85092" lon="6.20754">
        <ele>548.9</ele>
        <time>2013-08-17T09:20:56Z</time>
      </trkpt>
      <trkpt lat="45.85089" lon="6.20758">
        <ele>548.9</ele>
        <time>2013-08-17T09:20:57Z</time>
      </trkpt>
      <trkpt lat="45.85085" lon="6.20762">
        <ele>548.9</ele>
        <time>2013-08-17T09:20:58Z</time>
      </trkpt>
      <trkpt lat="45.85081" lon="6.20766">
        <ele>548.8</ele>
        <time>2013-08-17T09:20:59Z</time>
      </trkpt>
      <trkpt lat="45.85077" lon="6.20771">
        <ele>548.8</ele>
        <time>2013-08-17T09:21:00Z</time>
      </trkpt>
      <trkpt lat="45.85073" lon="6.20776">
        <ele>548.7</ele>
        <time>2013-08-17T09:21:01Z</time>
      </trkpt>
      <trkpt lat="45.85069" lon="6.20781">
        <ele>548.6</ele>
        <time>2013-08-17T09:21:02Z</time>
      </trkpt>
      <trkpt lat="45.85061" lon="6.2079">
        <ele>548.4</ele>
        <time>2013-08-17T09:21:03Z</time>
      </trkpt>
      <trkpt lat="45.85057" lon="6.20795">
        <ele>548.4</ele>
        <time>2013-08-17T09:21:04Z</time>
      </trkpt>
      <trkpt lat="45.85054" lon="6.20799">
        <ele>548.4</ele>
        <time>2013-08-17T09:21:05Z</time>
      </trkpt>
      <trkpt lat="45.8505" lon="6.20805">
        <ele>548.3</ele>
        <time>2013-08-17T09:21:06Z</time>
      </trkpt>
      <trkpt lat="45.85045" lon="6.20809">
        <ele>548.3</ele>
        <time>2013-08-17T09:21:07Z</time>
      </trkpt>
      <trkpt lat="45.85041" lon="6.20813">
        <ele>548.2</ele>
        <time>2013-08-17T09:21:08Z</time>
      </trkpt>
      <trkpt lat="45.85037" lon="6.20817">
        <ele>548.2</ele>
        <time>2013-08-17T09:21:09Z</time>
      </trkpt>
      <trkpt lat="45.85033" lon="6.20822">
        <ele>548.2</ele>
        <time>2013-08-17T09:21:10Z</time>
      </trkpt>
      <trkpt lat="45.85029" lon="6.20828">
        <ele>548.1</ele>
        <time>2013-08-17T09:21:11Z</time>
      </trkpt>
      <trkpt lat="45.85025" lon="6.20835">
        <ele>548</ele>
        <time>2013-08-17T09:21:12Z</time>
      </trkpt>
      <trkpt lat="45.85021" lon="6.20839">
        <ele>548.1</ele>
        <time>2013-08-17T09:21:13Z</time>
      </trkpt>
      <trkpt lat="45.85017" lon="6.20843">
        <ele>548.1</ele>
        <time>2013-08-17T09:21:14Z</time>
      </trkpt>
      <trkpt lat="45.85014" lon="6.20848">
        <ele>548.1</ele>
        <time>2013-08-17T09:21:15Z</time>
      </trkpt>
      <trkpt lat="45.8501" lon="6.20853">
        <ele>548.1</ele>
        <time>2013-08-17T09:21:16Z</time>
      </trkpt>
      <trkpt lat="45.85007" lon="6.20857">
        <ele>548.1</ele>
        <time>2013-08-17T09:21:17Z</time>
      </trkpt>
      <trkpt lat="45.85003" lon="6.20863">
        <ele>548.2</ele>
        <time>2013-08-17T09:21:18Z</time>
      </trkpt>
      <trkpt lat="45.84999" lon="6.20868">
        <ele>548.2</ele>
        <time>2013-08-17T09:21:19Z</time>
      </trkpt>
      <trkpt lat="45.84997" lon="6.20873">
        <ele>548.2</ele>
        <time>2013-08-17T09:21:20Z</time>
      </trkpt>
      <trkpt lat="45.84993" lon="6.2088">
        <ele>548.3</ele>
        <time>2013-08-17T09:21:21Z</time>
      </trkpt>
      <trkpt lat="45.84992" lon="6.20885">
        <ele>548.4</ele>
        <time>2013-08-17T09:21:22Z</time>
      </trkpt>
      <trkpt lat="45.8499" lon="6.2089">
        <ele>548.5</ele>
        <time>2013-08-17T09:21:23Z</time>
      </trkpt>
      <trkpt lat="45.84987" lon="6.20894">
        <ele>548.6</ele>
        <time>2013-08-17T09:21:24Z</time>
      </trkpt>
      <trkpt lat="45.84983" lon="6.20898">
        <ele>548.8</ele>
        <time>2013-08-17T09:21:25Z</time>
      </trkpt>
      <trkpt lat="45.8498" lon="6.20903">
        <ele>549</ele>
        <time>2013-08-17T09:21:26Z</time>
      </trkpt>
      <trkpt lat="45.84978" lon="6.20911">
        <ele>549.1</ele>
        <time>2013-08-17T09:21:27Z</time>
      </trkpt>
      <trkpt lat="45.84972" lon="6.20917">
        <ele>549.4</ele>
        <time>2013-08-17T09:21:28Z</time>
      </trkpt>
      <trkpt lat="45.84967" lon="6.20923">
        <ele>549.6</ele>
        <time>2013-08-17T09:21:29Z</time>
      </trkpt>
      <trkpt lat="45.84964" lon="6.20929">
        <ele>549.7</ele>
        <time>2013-08-17T09:21:30Z</time>
      </trkpt>
      <trkpt lat="45.84958" lon="6.20935">
        <ele>550</ele>
        <time>2013-08-17T09:21:31Z</time>
      </trkpt>
      <trkpt lat="45.84955" lon="6.20941">
        <ele>550.1</ele>
        <time>2013-08-17T09:21:32Z</time>
      </trkpt>
      <trkpt lat="45.84951" lon="6.20946">
        <ele>550.2</ele>
        <time>2013-08-17T09:21:33Z</time>
      </trkpt>
      <trkpt lat="45.84948" lon="6.20953">
        <ele>550.3</ele>
        <time>2013-08-17T09:21:34Z</time>
      </trkpt>
      <trkpt lat="45.84944" lon="6.2096">
        <ele>550.4</ele>
        <time>2013-08-17T09:21:35Z</time>
      </trkpt>
      <trkpt lat="45.84941" lon="6.20968">
        <ele>550.6</ele>
        <time>2013-08-17T09:21:36Z</time>
      </trkpt>
      <trkpt lat="45.84937" lon="6.20974">
        <ele>550.8</ele>
        <time>2013-08-17T09:21:37Z</time>
      </trkpt>
      <trkpt lat="45.84933" lon="6.2098">
        <ele>551.1</ele>
        <time>2013-08-17T09:21:38Z</time>
      </trkpt>
      <trkpt lat="45.8493" lon="6.20986">
        <ele>551.3</ele>
        <time>2013-08-17T09:21:39Z</time>
      </trkpt>
      <trkpt lat="45.84927" lon="6.20992">
        <ele>551.6</ele>
        <time>2013-08-17T09:21:40Z</time>
      </trkpt>
      <trkpt lat="45.84924" lon="6.20999">
        <ele>551.9</ele>
        <time>2013-08-17T09:21:41Z</time>
      </trkpt>
      <trkpt lat="45.84921" lon="6.21005">
        <ele>552.2</ele>
        <time>2013-08-17T09:21:42Z</time>
      </trkpt>
      <trkpt lat="45.84919" lon="6.2101">
        <ele>552.5</ele>
        <time>2013-08-17T09:21:43Z</time>
      </trkpt>
      <trkpt lat="45.84915" lon="6.21015">
        <ele>552.8</ele>
        <time>2013-08-17T09:21:44Z</time>
      </trkpt>
      <trkpt lat="45.84912" lon="6.21021">
        <ele>553.1</ele>
        <time>2013-08-17T09:21:45Z</time>
      </trkpt>
      <trkpt lat="45.8491" lon="6.21025">
        <ele>553.3</ele>
        <time>2013-08-17T09:21:46Z</time>
      </trkpt>
      <trkpt lat="45.84907" lon="6.2103">
        <ele>553.7</ele>
        <time>2013-08-17T09:21:47Z</time>
      </trkpt>
      <trkpt lat="45.84905" lon="6.21035">
        <ele>554</ele>
        <time>2013-08-17T09:21:48Z</time>
      </trkpt>
      <trkpt lat="45.84903" lon="6.2104">
        <ele>554.3</ele>
        <time>2013-08-17T09:21:49Z</time>
      </trkpt>
      <trkpt lat="45.849" lon="6.21046">
        <ele>554.4</ele>
        <time>2013-08-17T09:21:50Z</time>
      </trkpt>
      <trkpt lat="45.84895" lon="6.21051">
        <ele>554.6</ele>
        <time>2013-08-17T09:21:51Z</time>
      </trkpt>
      <trkpt lat="45.84892" lon="6.21057">
        <ele>554.6</ele>
        <time>2013-08-17T09:21:52Z</time>
      </trkpt>
      <trkpt lat="45.84888" lon="6.21064">
        <ele>554.7</ele>
        <time>2013-08-17T09:21:53Z</time>
      </trkpt>
      <trkpt lat="45.84883" lon="6.21069">
        <ele>554.9</ele>
        <time>2013-08-17T09:21:54Z</time>
      </trkpt>
      <trkpt lat="45.8488" lon="6.21074">
        <ele>555</ele>
        <time>2013-08-17T09:21:55Z</time>
      </trkpt>
      <trkpt lat="45.84877" lon="6.2108">
        <ele>555</ele>
        <time>2013-08-17T09:21:56Z</time>
      </trkpt>
      <trkpt lat="45.84873" lon="6.21087">
        <ele>555.2</ele>
        <time>2013-08-17T09:21:57Z</time>
      </trkpt>
      <trkpt lat="45.84872" lon="6.21091">
        <ele>555.2</ele>
        <time>2013-08-17T09:21:58Z</time>
      </trkpt>
      <trkpt lat="45.84862" lon="6.21111">
        <ele>556</ele>
        <time>2013-08-17T09:22:01Z</time>
      </trkpt>
      <trkpt lat="45.8486" lon="6.21118">
        <ele>556.2</ele>
        <time>2013-08-17T09:22:02Z</time>
      </trkpt>
      <trkpt lat="45.84858" lon="6.21126">
        <ele>556.5</ele>
        <time>2013-08-17T09:22:03Z</time>
      </trkpt>
      <trkpt lat="45.84856" lon="6.2113">
        <ele>556.5</ele>
        <time>2013-08-17T09:22:04Z</time>
      </trkpt>
      <trkpt lat="45.84852" lon="6.21135">
        <ele>556.8</ele>
        <time>2013-08-17T09:22:05Z</time>
      </trkpt>
      <trkpt lat="45.84848" lon="6.21139">
        <ele>557.1</ele>
        <time>2013-08-17T09:22:06Z</time>
      </trkpt>
      <trkpt lat="45.84846" lon="6.21143">
        <ele>557.2</ele>
        <time>2013-08-17T09:22:07Z</time>
      </trkpt>
      <trkpt lat="45.84844" lon="6.21151">
        <ele>557.1</ele>
        <time>2013-08-17T09:22:08Z</time>
      </trkpt>
      <trkpt lat="45.84842" lon="6.21157">
        <ele>557</ele>
        <time>2013-08-17T09:22:09Z</time>
      </trkpt>
      <trkpt lat="45.8484" lon="6.21165">
        <ele>556.8</ele>
        <time>2013-08-17T09:22:10Z</time>
      </trkpt>
      <trkpt lat="45.84837" lon="6.21173">
        <ele>556.8</ele>
        <time>2013-08-17T09:22:11Z</time>
      </trkpt>
      <trkpt lat="45.84834" lon="6.21177">
        <ele>557.1</ele>
        <time>2013-08-17T09:22:12Z</time>
      </trkpt>
      <trkpt lat="45.8483" lon="6.21183">
        <ele>557.4</ele>
        <time>2013-08-17T09:22:13Z</time>
      </trkpt>
      <trkpt lat="45.84827" lon="6.21187">
        <ele>557.7</ele>
        <time>2013-08-17T09:22:14Z</time>
      </trkpt>
      <trkpt lat="45.84823" lon="6.2119">
        <ele>558</ele>
        <time>2013-08-17T09:22:15Z</time>
      </trkpt>
      <trkpt lat="45.84819" lon="6.21194">
        <ele>558.5</ele>
        <time>2013-08-17T09:22:16Z</time>
      </trkpt>
      <trkpt lat="45.84814" lon="6.212">
        <ele>559</ele>
        <time>2013-08-17T09:22:17Z</time>
      </trkpt>
      <trkpt lat="45.84811" lon="6.21204">
        <ele>559.3</ele>
        <time>2013-08-17T09:22:18Z</time>
      </trkpt>
      <trkpt lat="45.84807" lon="6.2121">
        <ele>559.5</ele>
        <time>2013-08-17T09:22:19Z</time>
      </trkpt>
      <trkpt lat="45.84804" lon="6.21215">
        <ele>559.7</ele>
        <time>2013-08-17T09:22:20Z</time>
      </trkpt>
      <trkpt lat="45.848" lon="6.2122">
        <ele>560.1</ele>
        <time>2013-08-17T09:22:21Z</time>
      </trkpt>
      <trkpt lat="45.84796" lon="6.21224">
        <ele>560.5</ele>
        <time>2013-08-17T09:22:22Z</time>
      </trkpt>
      <trkpt lat="45.84793" lon="6.2123">
        <ele>560.5</ele>
        <time>2013-08-17T09:22:23Z</time>
      </trkpt>
      <trkpt lat="45.8479" lon="6.21236">
        <ele>560.5</ele>
        <time>2013-08-17T09:22:24Z</time>
      </trkpt>
      <trkpt lat="45.84786" lon="6.21242">
        <ele>560.4</ele>
        <time>2013-08-17T09:22:25Z</time>
      </trkpt>
      <trkpt lat="45.84783" lon="6.21247">
        <ele>560.3</ele>
        <time>2013-08-17T09:22:26Z</time>
      </trkpt>
      <trkpt lat="45.84779" lon="6.21253">
        <ele>560.2</ele>
        <time>2013-08-17T09:22:27Z</time>
      </trkpt>
      <trkpt lat="45.84776" lon="6.21258">
        <ele>560.1</ele>
        <time>2013-08-17T09:22:28Z</time>
      </trkpt>
      <trkpt lat="45.84773" lon="6.21263">
        <ele>560</ele>
        <time>2013-08-17T09:22:29Z</time>
      </trkpt>
      <trkpt lat="45.8477" lon="6.21268">
        <ele>559.9</ele>
        <time>2013-08-17T09:22:30Z</time>
      </trkpt>
      <trkpt lat="45.84767" lon="6.21273">
        <ele>559.7</ele>
        <time>2013-08-17T09:22:31Z</time>
      </trkpt>
      <trkpt lat="45.84764" lon="6.21278">
        <ele>559.6</ele>
        <time>2013-08-17T09:22:32Z</time>
      </trkpt>
      <trkpt lat="45.84762" lon="6.21283">
        <ele>559.4</ele>
        <time>2013-08-17T09:22:33Z</time>
      </trkpt>
      <trkpt lat="45.8476" lon="6.21286">
        <ele>559.3</ele>
        <time>2013-08-17T09:22:34Z</time>
      </trkpt>
      <trkpt lat="45.84757" lon="6.21291">
        <ele>559.1</ele>
        <time>2013-08-17T09:22:35Z</time>
      </trkpt>
      <trkpt lat="45.84754" lon="6.21296">
        <ele>559.1</ele>
        <time>2013-08-17T09:22:36Z</time>
      </trkpt>
      <trkpt lat="45.84751" lon="6.21301">
        <ele>558.9</ele>
        <time>2013-08-17T09:22:37Z</time>
      </trkpt>
      <trkpt lat="45.84748" lon="6.21306">
        <ele>558.8</ele>
        <time>2013-08-17T09:22:38Z</time>
      </trkpt>
      <trkpt lat="45.84746" lon="6.2131">
        <ele>558.7</ele>
        <time>2013-08-17T09:22:39Z</time>
      </trkpt>
      <trkpt lat="45.84743" lon="6.21315">
        <ele>558.6</ele>
        <time>2013-08-17T09:22:40Z</time>
      </trkpt>
      <trkpt lat="45.84731" lon="6.21337">
        <ele>558.1</ele>
        <time>2013-08-17T09:22:45Z</time>
      </trkpt>
      <trkpt lat="45.84729" lon="6.21342">
        <ele>557.9</ele>
        <time>2013-08-17T09:22:46Z</time>
      </trkpt>
      <trkpt lat="45.84727" lon="6.21346">
        <ele>557.8</ele>
        <time>2013-08-17T09:22:47Z</time>
      </trkpt>
      <trkpt lat="45.84724" lon="6.21351">
        <ele>557.6</ele>
        <time>2013-08-17T09:22:48Z</time>
      </trkpt>
      <trkpt lat="45.84722" lon="6.21355">
        <ele>557.5</ele>
        <time>2013-08-17T09:22:49Z</time>
      </trkpt>
      <trkpt lat="45.84719" lon="6.21359">
        <ele>557.4</ele>
        <time>2013-08-17T09:22:50Z</time>
      </trkpt>
      <trkpt lat="45.84717" lon="6.21364">
        <ele>557.2</ele>
        <time>2013-08-17T09:22:51Z</time>
      </trkpt>
      <trkpt lat="45.84715" lon="6.21368">
        <ele>557.1</ele>
        <time>2013-08-17T09:22:52Z</time>
      </trkpt>
      <trkpt lat="45.84713" lon="6.21372">
        <ele>557</ele>
        <time>2013-08-17T09:22:53Z</time>
      </trkpt>
      <trkpt lat="45.8471" lon="6.21376">
        <ele>556.9</ele>
        <time>2013-08-17T09:22:54Z</time>
      </trkpt>
      <trkpt lat="45.84709" lon="6.21379">
        <ele>557</ele>
        <time>2013-08-17T09:22:55Z</time>
      </trkpt>
      <trkpt lat="45.84706" lon="6.21385">
        <ele>556.9</ele>
        <time>2013-08-17T09:22:57Z</time>
      </trkpt>
      <trkpt lat="45.84703" lon="6.2139">
        <ele>556.8</ele>
        <time>2013-08-17T09:22:58Z</time>
      </trkpt>
      <trkpt lat="45.84701" lon="6.21394">
        <ele>556.6</ele>
        <time>2013-08-17T09:22:59Z</time>
      </trkpt>
      <trkpt lat="45.84694" lon="6.21404">
        <ele>556.4</ele>
        <time>2013-08-17T09:23:02Z</time>
      </trkpt>
      <trkpt lat="45.84692" lon="6.21409">
        <ele>556.3</ele>
        <time>2013-08-17T09:23:04Z</time>
      </trkpt>
      <trkpt lat="45.84687" lon="6.21413">
        <ele>556.1</ele>
        <time>2013-08-17T09:23:05Z</time>
      </trkpt>
      <trkpt lat="45.8468" lon="6.21418">
        <ele>555.8</ele>
        <time>2013-08-17T09:23:08Z</time>
      </trkpt>
      <trkpt lat="45.84674" lon="6.21419">
        <ele>555.6</ele>
        <time>2013-08-17T09:23:09Z</time>
      </trkpt>
      <trkpt lat="45.84667" lon="6.21416">
        <ele>555.3</ele>
        <time>2013-08-17T09:23:11Z</time>
      </trkpt>
      <trkpt lat="45.84663" lon="6.21415">
        <ele>555.1</ele>
        <time>2013-08-17T09:23:12Z</time>
      </trkpt>
      <trkpt lat="45.8466" lon="6.21414">
        <ele>554.9</ele>
        <time>2013-08-17T09:23:13Z</time>
      </trkpt>
      <trkpt lat="45.84657" lon="6.21412">
        <ele>554.8</ele>
        <time>2013-08-17T09:23:14Z</time>
      </trkpt>
      <trkpt lat="45.84654" lon="6.21409">
        <ele>554.7</ele>
        <time>2013-08-17T09:23:15Z</time>
      </trkpt>
      <trkpt lat="45.84652" lon="6.21406">
        <ele>554.5</ele>
        <time>2013-08-17T09:23:16Z</time>
      </trkpt>
      <trkpt lat="45.84649" lon="6.21403">
        <ele>554.4</ele>
        <time>2013-08-17T09:23:17Z</time>
      </trkpt>
      <trkpt lat="45.84647" lon="6.21399">
        <ele>554.2</ele>
        <time>2013-08-17T09:23:18Z</time>
      </trkpt>
      <trkpt lat="45.84644" lon="6.21397">
        <ele>554.1</ele>
        <time>2013-08-17T09:23:19Z</time>
      </trkpt>
      <trkpt lat="45.84641" lon="6.21388">
        <ele>553.9</ele>
        <time>2013-08-17T09:23:22Z</time>
      </trkpt>
      <trkpt lat="45.84636" lon="6.21383">
        <ele>553.6</ele>
        <time>2013-08-17T09:23:23Z</time>
      </trkpt>
      <trkpt lat="45.84628" lon="6.21373">
        <ele>553.2</ele>
        <time>2013-08-17T09:23:24Z</time>
      </trkpt>
      <trkpt lat="45.84624" lon="6.21367">
        <ele>553.1</ele>
        <time>2013-08-17T09:23:25Z</time>
      </trkpt>
      <trkpt lat="45.84618" lon="6.21361">
        <ele>552.4</ele>
        <time>2013-08-17T09:23:26Z</time>
      </trkpt>
      <trkpt lat="45.8461" lon="6.21352">
        <ele>551.5</ele>
        <time>2013-08-17T09:23:27Z</time>
      </trkpt>
      <trkpt lat="45.84604" lon="6.21344">
        <ele>550.8</ele>
        <time>2013-08-17T09:23:28Z</time>
      </trkpt>
      <trkpt lat="45.84598" lon="6.21334">
        <ele>550.1</ele>
        <time>2013-08-17T09:23:29Z</time>
      </trkpt>
      <trkpt lat="45.8459" lon="6.21325">
        <ele>549</ele>
        <time>2013-08-17T09:23:30Z</time>
      </trkpt>
      <trkpt lat="45.84583" lon="6.21317">
        <ele>548</ele>
        <time>2013-08-17T09:23:31Z</time>
      </trkpt>
      <trkpt lat="45.84575" lon="6.21309">
        <ele>546.8</ele>
        <time>2013-08-17T09:23:32Z</time>
      </trkpt>
      <trkpt lat="45.84567" lon="6.213">
        <ele>545.5</ele>
        <time>2013-08-17T09:23:33Z</time>
      </trkpt>
      <trkpt lat="45.84559" lon="6.2129">
        <ele>544.2</ele>
        <time>2013-08-17T09:23:34Z</time>
      </trkpt>
      <trkpt lat="45.84552" lon="6.21281">
        <ele>543.6</ele>
        <time>2013-08-17T09:23:35Z</time>
      </trkpt>
      <trkpt lat="45.84546" lon="6.21273">
        <ele>542.9</ele>
        <time>2013-08-17T09:23:36Z</time>
      </trkpt>
      <trkpt lat="45.84542" lon="6.21267">
        <ele>542.4</ele>
        <time>2013-08-17T09:23:37Z</time>
      </trkpt>
      <trkpt lat="45.84536" lon="6.21262">
        <ele>541.5</ele>
        <time>2013-08-17T09:23:38Z</time>
      </trkpt>
      <trkpt lat="45.84533" lon="6.21257">
        <ele>541.2</ele>
        <time>2013-08-17T09:23:40Z</time>
      </trkpt>
      <trkpt lat="45.84525" lon="6.21254">
        <ele>539.7</ele>
        <time>2013-08-17T09:23:41Z</time>
      </trkpt>
      <trkpt lat="45.8452" lon="6.21254">
        <ele>538.5</ele>
        <time>2013-08-17T09:23:42Z</time>
      </trkpt>
      <trkpt lat="45.84514" lon="6.21257">
        <ele>537.3</ele>
        <time>2013-08-17T09:23:43Z</time>
      </trkpt>
      <trkpt lat="45.84507" lon="6.21265">
        <ele>535.4</ele>
        <time>2013-08-17T09:23:44Z</time>
      </trkpt>
      <trkpt lat="45.84504" lon="6.2127">
        <ele>534.5</ele>
        <time>2013-08-17T09:23:45Z</time>
      </trkpt>
      <trkpt lat="45.84498" lon="6.21279">
        <ele>533.1</ele>
        <time>2013-08-17T09:23:46Z</time>
      </trkpt>
      <trkpt lat="45.84492" lon="6.21287">
        <ele>531.7</ele>
        <time>2013-08-17T09:23:47Z</time>
      </trkpt>
      <trkpt lat="45.84488" lon="6.21295">
        <ele>530.7</ele>
        <time>2013-08-17T09:23:48Z</time>
      </trkpt>
      <trkpt lat="45.84481" lon="6.21306">
        <ele>529.7</ele>
        <time>2013-08-17T09:23:49Z</time>
      </trkpt>
      <trkpt lat="45.84475" lon="6.21318">
        <ele>528.8</ele>
        <time>2013-08-17T09:23:50Z</time>
      </trkpt>
      <trkpt lat="45.84469" lon="6.21327">
        <ele>527.8</ele>
        <time>2013-08-17T09:23:51Z</time>
      </trkpt>
      <trkpt lat="45.84462" lon="6.21338">
        <ele>526.7</ele>
        <time>2013-08-17T09:23:52Z</time>
      </trkpt>
      <trkpt lat="45.84455" lon="6.21349">
        <ele>525.5</ele>
        <time>2013-08-17T09:23:53Z</time>
      </trkpt>
      <trkpt lat="45.84448" lon="6.21359">
        <ele>524</ele>
        <time>2013-08-17T09:23:54Z</time>
      </trkpt>
      <trkpt lat="45.84441" lon="6.21369">
        <ele>522.7</ele>
        <time>2013-08-17T09:23:55Z</time>
      </trkpt>
      <trkpt lat="45.84436" lon="6.21379">
        <ele>521.8</ele>
        <time>2013-08-17T09:23:56Z</time>
      </trkpt>
      <trkpt lat="45.84432" lon="6.21384">
        <ele>521.1</ele>
        <time>2013-08-17T09:23:57Z</time>
      </trkpt>
      <trkpt lat="45.84428" lon="6.21382">
        <ele>520</ele>
        <time>2013-08-17T09:23:59Z</time>
      </trkpt>
      <trkpt lat="45.84426" lon="6.21377">
        <ele>519.3</ele>
        <time>2013-08-17T09:24:00Z</time>
      </trkpt>
      <trkpt lat="45.84424" lon="6.21374">
        <ele>518.7</ele>
        <time>2013-08-17T09:24:01Z</time>
      </trkpt>
      <trkpt lat="45.84422" lon="6.21361">
        <ele>517.9</ele>
        <time>2013-08-17T09:24:02Z</time>
      </trkpt>
      <trkpt lat="45.84421" lon="6.2135">
        <ele>517.1</ele>
        <time>2013-08-17T09:24:03Z</time>
      </trkpt>
      <trkpt lat="45.8442" lon="6.21339">
        <ele>516.6</ele>
        <time>2013-08-17T09:24:04Z</time>
      </trkpt>
      <trkpt lat="45.84421" lon="6.21325">
        <ele>516.4</ele>
        <time>2013-08-17T09:24:05Z</time>
      </trkpt>
      <trkpt lat="45.84422" lon="6.21311">
        <ele>516.2</ele>
        <time>2013-08-17T09:24:06Z</time>
      </trkpt>
      <trkpt lat="45.84424" lon="6.21299">
        <ele>516.1</ele>
        <time>2013-08-17T09:24:07Z</time>
      </trkpt>
      <trkpt lat="45.84424" lon="6.21284">
        <ele>516.1</ele>
        <time>2013-08-17T09:24:08Z</time>
      </trkpt>
      <trkpt lat="45.84426" lon="6.21269">
        <ele>516.6</ele>
        <time>2013-08-17T09:24:09Z</time>
      </trkpt>
      <trkpt lat="45.84426" lon="6.21254">
        <ele>516.6</ele>
        <time>2013-08-17T09:24:10Z</time>
      </trkpt>
      <trkpt lat="45.84424" lon="6.2123">
        <ele>516.3</ele>
        <time>2013-08-17T09:24:11Z</time>
      </trkpt>
      <trkpt lat="45.84419" lon="6.21218">
        <ele>515</ele>
        <time>2013-08-17T09:24:12Z</time>
      </trkpt>
      <trkpt lat="45.8441" lon="6.21206">
        <ele>512.8</ele>
        <time>2013-08-17T09:24:13Z</time>
      </trkpt>
      <trkpt lat="45.84402" lon="6.21187">
        <ele>511</ele>
        <time>2013-08-17T09:24:14Z</time>
      </trkpt>
      <trkpt lat="45.84397" lon="6.21177">
        <ele>509.9</ele>
        <time>2013-08-17T09:24:15Z</time>
      </trkpt>
      <trkpt lat="45.84391" lon="6.21165">
        <ele>508.6</ele>
        <time>2013-08-17T09:24:16Z</time>
      </trkpt>
      <trkpt lat="45.84384" lon="6.21147">
        <ele>506.9</ele>
        <time>2013-08-17T09:24:17Z</time>
      </trkpt>
      <trkpt lat="45.84379" lon="6.21132">
        <ele>505.9</ele>
        <time>2013-08-17T09:24:18Z</time>
      </trkpt>
      <trkpt lat="45.84374" lon="6.21118">
        <ele>504.8</ele>
        <time>2013-08-17T09:24:19Z</time>
      </trkpt>
      <trkpt lat="45.8437" lon="6.21107">
        <ele>503.6</ele>
        <time>2013-08-17T09:24:20Z</time>
      </trkpt>
      <trkpt lat="45.84366" lon="6.21095">
        <ele>502.3</ele>
        <time>2013-08-17T09:24:21Z</time>
      </trkpt>
      <trkpt lat="45.84364" lon="6.21091">
        <ele>501.7</ele>
        <time>2013-08-17T09:24:22Z</time>
      </trkpt>
      <trkpt lat="45.84361" lon="6.21083">
        <ele>500.7</ele>
        <time>2013-08-17T09:24:23Z</time>
      </trkpt>
      <trkpt lat="45.84358" lon="6.21081">
        <ele>499.4</ele>
        <time>2013-08-17T09:24:25Z</time>
      </trkpt>
      <trkpt lat="45.8435" lon="6.21083">
        <ele>496.9</ele>
        <time>2013-08-17T09:24:26Z</time>
      </trkpt>
      <trkpt lat="45.8435" lon="6.21107">
        <ele>496.9</ele>
        <time>2013-08-17T09:24:28Z</time>
      </trkpt>
      <trkpt lat="45.84348" lon="6.2112">
        <ele>496.1</ele>
        <time>2013-08-17T09:24:29Z</time>
      </trkpt>
      <trkpt lat="45.84346" lon="6.21129">
        <ele>495.5</ele>
        <time>2013-08-17T09:24:30Z</time>
      </trkpt>
      <trkpt lat="45.84345" lon="6.21146">
        <ele>495.1</ele>
        <time>2013-08-17T09:24:31Z</time>
      </trkpt>
      <trkpt lat="45.84344" lon="6.21162">
        <ele>494.8</ele>
        <time>2013-08-17T09:24:32Z</time>
      </trkpt>
      <trkpt lat="45.84343" lon="6.21177">
        <ele>494.6</ele>
        <time>2013-08-17T09:24:33Z</time>
      </trkpt>
      <trkpt lat="45.84342" lon="6.21192">
        <ele>494.3</ele>
        <time>2013-08-17T09:24:34Z</time>
      </trkpt>
      <trkpt lat="45.8434" lon="6.21208">
        <ele>493.6</ele>
        <time>2013-08-17T09:24:35Z</time>
      </trkpt>
      <trkpt lat="45.84336" lon="6.21219">
        <ele>492.9</ele>
        <time>2013-08-17T09:24:36Z</time>
      </trkpt>
      <trkpt lat="45.8433" lon="6.21241">
        <ele>491.7</ele>
        <time>2013-08-17T09:24:37Z</time>
      </trkpt>
      <trkpt lat="45.84324" lon="6.21254">
        <ele>490.6</ele>
        <time>2013-08-17T09:24:38Z</time>
      </trkpt>
      <trkpt lat="45.84321" lon="6.21262">
        <ele>490</ele>
        <time>2013-08-17T09:24:39Z</time>
      </trkpt>
      <trkpt lat="45.8431" lon="6.21275">
        <ele>487.7</ele>
        <time>2013-08-17T09:24:40Z</time>
      </trkpt>
      <trkpt lat="45.84298" lon="6.2129">
        <ele>485.3</ele>
        <time>2013-08-17T09:24:41Z</time>
      </trkpt>
      <trkpt lat="45.84286" lon="6.21302">
        <ele>483.7</ele>
        <time>2013-08-17T09:24:42Z</time>
      </trkpt>
      <trkpt lat="45.84284" lon="6.21309">
        <ele>483.6</ele>
        <time>2013-08-17T09:24:43Z</time>
      </trkpt>
      <trkpt lat="45.84275" lon="6.21327">
        <ele>483.2</ele>
        <time>2013-08-17T09:24:44Z</time>
      </trkpt>
      <trkpt lat="45.84265" lon="6.2135">
        <ele>482.7</ele>
        <time>2013-08-17T09:24:45Z</time>
      </trkpt>
      <trkpt lat="45.84261" lon="6.21363">
        <ele>482.8</ele>
        <time>2013-08-17T09:24:46Z</time>
      </trkpt>
      <trkpt lat="45.84254" lon="6.21381">
        <ele>482.5</ele>
        <time>2013-08-17T09:24:47Z</time>
      </trkpt>
      <trkpt lat="45.84248" lon="6.21397">
        <ele>482.1</ele>
        <time>2013-08-17T09:24:48Z</time>
      </trkpt>
      <trkpt lat="45.84242" lon="6.21414">
        <ele>481.9</ele>
        <time>2013-08-17T09:24:49Z</time>
      </trkpt>
      <trkpt lat="45.84236" lon="6.2143">
        <ele>481.9</ele>
        <time>2013-08-17T09:24:50Z</time>
      </trkpt>
      <trkpt lat="45.84227" lon="6.21446">
        <ele>481.7</ele>
        <time>2013-08-17T09:24:51Z</time>
      </trkpt>
      <trkpt lat="45.84221" lon="6.21462">
        <ele>482.1</ele>
        <time>2013-08-17T09:24:52Z</time>
      </trkpt>
      <trkpt lat="45.84212" lon="6.21475">
        <ele>482.3</ele>
        <time>2013-08-17T09:24:53Z</time>
      </trkpt>
      <trkpt lat="45.84204" lon="6.21487">
        <ele>482.6</ele>
        <time>2013-08-17T09:24:54Z</time>
      </trkpt>
      <trkpt lat="45.84196" lon="6.21497">
        <ele>482.7</ele>
        <time>2013-08-17T09:24:55Z</time>
      </trkpt>
      <trkpt lat="45.84187" lon="6.21507">
        <ele>482.8</ele>
        <time>2013-08-17T09:24:56Z</time>
      </trkpt>
      <trkpt lat="45.84179" lon="6.21513">
        <ele>482.4</ele>
        <time>2013-08-17T09:24:57Z</time>
      </trkpt>
      <trkpt lat="45.84171" lon="6.21519">
        <ele>482</ele>
        <time>2013-08-17T09:24:58Z</time>
      </trkpt>
      <trkpt lat="45.84162" lon="6.21526">
        <ele>481.5</ele>
        <time>2013-08-17T09:24:59Z</time>
      </trkpt>
      <trkpt lat="45.84154" lon="6.21533">
        <ele>481.1</ele>
        <time>2013-08-17T09:25:00Z</time>
      </trkpt>
      <trkpt lat="45.84146" lon="6.21539">
        <ele>480.6</ele>
        <time>2013-08-17T09:25:01Z</time>
      </trkpt>
      <trkpt lat="45.84138" lon="6.21547">
        <ele>480.3</ele>
        <time>2013-08-17T09:25:02Z</time>
      </trkpt>
      <trkpt lat="45.84131" lon="6.21553">
        <ele>480</ele>
        <time>2013-08-17T09:25:03Z</time>
      </trkpt>
      <trkpt lat="45.84124" lon="6.2156">
        <ele>479.6</ele>
        <time>2013-08-17T09:25:04Z</time>
      </trkpt>
      <trkpt lat="45.84116" lon="6.21567">
        <ele>479.7</ele>
        <time>2013-08-17T09:25:05Z</time>
      </trkpt>
      <trkpt lat="45.84109" lon="6.21573">
        <ele>479.7</ele>
        <time>2013-08-17T09:25:06Z</time>
      </trkpt>
      <trkpt lat="45.84101" lon="6.21581">
        <ele>479.6</ele>
        <time>2013-08-17T09:25:07Z</time>
      </trkpt>
      <trkpt lat="45.84093" lon="6.21587">
        <ele>479.4</ele>
        <time>2013-08-17T09:25:08Z</time>
      </trkpt>
      <trkpt lat="45.84085" lon="6.21593">
        <ele>479.1</ele>
        <time>2013-08-17T09:25:09Z</time>
      </trkpt>
      <trkpt lat="45.84077" lon="6.21599">
        <ele>478.6</ele>
        <time>2013-08-17T09:25:10Z</time>
      </trkpt>
      <trkpt lat="45.8407" lon="6.21605">
        <ele>478.2</ele>
        <time>2013-08-17T09:25:11Z</time>
      </trkpt>
      <trkpt lat="45.84062" lon="6.21612">
        <ele>477.8</ele>
        <time>2013-08-17T09:25:12Z</time>
      </trkpt>
      <trkpt lat="45.84056" lon="6.21617">
        <ele>477.4</ele>
        <time>2013-08-17T09:25:13Z</time>
      </trkpt>
      <trkpt lat="45.84051" lon="6.21621">
        <ele>476.9</ele>
        <time>2013-08-17T09:25:14Z</time>
      </trkpt>
      <trkpt lat="45.84043" lon="6.21626">
        <ele>476.3</ele>
        <time>2013-08-17T09:25:15Z</time>
      </trkpt>
      <trkpt lat="45.84037" lon="6.21631">
        <ele>476.3</ele>
        <time>2013-08-17T09:25:16Z</time>
      </trkpt>
      <trkpt lat="45.84031" lon="6.21635">
        <ele>476.4</ele>
        <time>2013-08-17T09:25:17Z</time>
      </trkpt>
      <trkpt lat="45.84023" lon="6.21642">
        <ele>476.6</ele>
        <time>2013-08-17T09:25:18Z</time>
      </trkpt>
      <trkpt lat="45.84016" lon="6.21647">
        <ele>476.7</ele>
        <time>2013-08-17T09:25:19Z</time>
      </trkpt>
      <trkpt lat="45.84008" lon="6.21651">
        <ele>476.7</ele>
        <time>2013-08-17T09:25:20Z</time>
      </trkpt>
      <trkpt lat="45.84001" lon="6.21655">
        <ele>476.6</ele>
        <time>2013-08-17T09:25:21Z</time>
      </trkpt>
      <trkpt lat="45.83994" lon="6.21658">
        <ele>476.6</ele>
        <time>2013-08-17T09:25:22Z</time>
      </trkpt>
      <trkpt lat="45.83989" lon="6.21661">
        <ele>476.5</ele>
        <time>2013-08-17T09:25:23Z</time>
      </trkpt>
      <trkpt lat="45.83984" lon="6.21663">
        <ele>476.4</ele>
        <time>2013-08-17T09:25:25Z</time>
      </trkpt>
      <trkpt lat="45.83971" lon="6.21662">
        <ele>475.8</ele>
        <time>2013-08-17T09:25:27Z</time>
      </trkpt>
      <trkpt lat="45.83968" lon="6.21661">
        <ele>475.7</ele>
        <time>2013-08-17T09:25:31Z</time>
      </trkpt>
      <trkpt lat="45.83965" lon="6.21661">
        <ele>475.6</ele>
        <time>2013-08-17T09:25:33Z</time>
      </trkpt>
      <trkpt lat="45.83961" lon="6.21664">
        <ele>475.5</ele>
        <time>2013-08-17T09:25:35Z</time>
      </trkpt>
      <trkpt lat="45.83958" lon="6.21668">
        <ele>475.5</ele>
        <time>2013-08-17T09:25:36Z</time>
      </trkpt>
      <trkpt lat="45.83951" lon="6.21673">
        <ele>475.1</ele>
        <time>2013-08-17T09:25:37Z</time>
      </trkpt>
      <trkpt lat="45.83946" lon="6.21678">
        <ele>474.8</ele>
        <time>2013-08-17T09:25:39Z</time>
      </trkpt>
      <trkpt lat="45.83943" lon="6.2168">
        <ele>474.6</ele>
        <time>2013-08-17T09:25:40Z</time>
      </trkpt>
      <trkpt lat="45.83939" lon="6.21682">
        <ele>474.4</ele>
        <time>2013-08-17T09:25:41Z</time>
      </trkpt>
      <trkpt lat="45.83932" lon="6.21683">
        <ele>473.8</ele>
        <time>2013-08-17T09:25:42Z</time>
      </trkpt>
      <trkpt lat="45.83928" lon="6.21686">
        <ele>473.4</ele>
        <time>2013-08-17T09:25:43Z</time>
      </trkpt>
      <trkpt lat="45.83922" lon="6.21687">
        <ele>473</ele>
        <time>2013-08-17T09:25:44Z</time>
      </trkpt>
      <trkpt lat="45.83917" lon="6.21689">
        <ele>472.5</ele>
        <time>2013-08-17T09:25:45Z</time>
      </trkpt>
      <trkpt lat="45.83911" lon="6.21691">
        <ele>472.1</ele>
        <time>2013-08-17T09:25:46Z</time>
      </trkpt>
      <trkpt lat="45.83904" lon="6.21693">
        <ele>471.5</ele>
        <time>2013-08-17T09:25:47Z</time>
      </trkpt>
      <trkpt lat="45.83897" lon="6.21695">
        <ele>470.8</ele>
        <time>2013-08-17T09:25:48Z</time>
      </trkpt>
      <trkpt lat="45.8389" lon="6.21697">
        <ele>470.2</ele>
        <time>2013-08-17T09:25:49Z</time>
      </trkpt>
      <trkpt lat="45.83882" lon="6.21699">
        <ele>469.6</ele>
        <time>2013-08-17T09:25:50Z</time>
      </trkpt>
      <trkpt lat="45.83875" lon="6.21701">
        <ele>468.9</ele>
        <time>2013-08-17T09:25:51Z</time>
      </trkpt>
      <trkpt lat="45.83867" lon="6.21702">
        <ele>468.3</ele>
        <time>2013-08-17T09:25:52Z</time>
      </trkpt>
      <trkpt lat="45.83859" lon="6.21704">
        <ele>467.8</ele>
        <time>2013-08-17T09:25:53Z</time>
      </trkpt>
      <trkpt lat="45.83852" lon="6.21705">
        <ele>467.3</ele>
        <time>2013-08-17T09:25:54Z</time>
      </trkpt>
      <trkpt lat="45.83843" lon="6.21706">
        <ele>466.7</ele>
        <time>2013-08-17T09:25:55Z</time>
      </trkpt>
      <trkpt lat="45.83837" lon="6.21706">
        <ele>466.2</ele>
        <time>2013-08-17T09:25:56Z</time>
      </trkpt>
      <trkpt lat="45.83829" lon="6.21706">
        <ele>465.6</ele>
        <time>2013-08-17T09:25:57Z</time>
      </trkpt>
      <trkpt lat="45.83821" lon="6.21707">
        <ele>465.1</ele>
        <time>2013-08-17T09:25:58Z</time>
      </trkpt>
      <trkpt lat="45.83815" lon="6.21707">
        <ele>464.7</ele>
        <time>2013-08-17T09:25:59Z</time>
      </trkpt>
      <trkpt lat="45.83805" lon="6.21706">
        <ele>463.9</ele>
        <time>2013-08-17T09:26:00Z</time>
      </trkpt>
      <trkpt lat="45.83797" lon="6.21706">
        <ele>463.4</ele>
        <time>2013-08-17T09:26:01Z</time>
      </trkpt>
      <trkpt lat="45.8379" lon="6.21704">
        <ele>462.8</ele>
        <time>2013-08-17T09:26:02Z</time>
      </trkpt>
      <trkpt lat="45.83782" lon="6.21704">
        <ele>462</ele>
        <time>2013-08-17T09:26:03Z</time>
      </trkpt>
      <trkpt lat="45.83773" lon="6.21703">
        <ele>461.2</ele>
        <time>2013-08-17T09:26:04Z</time>
      </trkpt>
      <trkpt lat="45.83764" lon="6.21702">
        <ele>460.3</ele>
        <time>2013-08-17T09:26:05Z</time>
      </trkpt>
      <trkpt lat="45.83755" lon="6.21702">
        <ele>459.5</ele>
        <time>2013-08-17T09:26:06Z</time>
      </trkpt>
      <trkpt lat="45.83747" lon="6.21702">
        <ele>458.7</ele>
        <time>2013-08-17T09:26:07Z</time>
      </trkpt>
      <trkpt lat="45.83737" lon="6.21701">
        <ele>457.7</ele>
        <time>2013-08-17T09:26:08Z</time>
      </trkpt>
      <trkpt lat="45.83728" lon="6.21699">
        <ele>456.9</ele>
        <time>2013-08-17T09:26:09Z</time>
      </trkpt>
      <trkpt lat="45.83721" lon="6.21697">
        <ele>456.2</ele>
        <time>2013-08-17T09:26:10Z</time>
      </trkpt>
      <trkpt lat="45.83714" lon="6.21695">
        <ele>455.5</ele>
        <time>2013-08-17T09:26:11Z</time>
      </trkpt>
      <trkpt lat="45.83708" lon="6.21693">
        <ele>455</ele>
        <time>2013-08-17T09:26:12Z</time>
      </trkpt>
      <trkpt lat="45.83702" lon="6.21691">
        <ele>454.6</ele>
        <time>2013-08-17T09:26:13Z</time>
      </trkpt>
      <trkpt lat="45.83695" lon="6.2169">
        <ele>454.3</ele>
        <time>2013-08-17T09:26:14Z</time>
      </trkpt>
      <trkpt lat="45.83688" lon="6.2169">
        <ele>453.9</ele>
        <time>2013-08-17T09:26:15Z</time>
      </trkpt>
      <trkpt lat="45.83681" lon="6.2169">
        <ele>453.6</ele>
        <time>2013-08-17T09:26:16Z</time>
      </trkpt>
      <trkpt lat="45.83677" lon="6.21686">
        <ele>453.3</ele>
        <time>2013-08-17T09:26:17Z</time>
      </trkpt>
      <trkpt lat="45.8366" lon="6.21694">
        <ele>452.5</ele>
        <time>2013-08-17T09:26:19Z</time>
      </trkpt>
      <trkpt lat="45.83652" lon="6.21694">
        <ele>452.1</ele>
        <time>2013-08-17T09:26:20Z</time>
      </trkpt>
      <trkpt lat="45.83644" lon="6.21695">
        <ele>451.7</ele>
        <time>2013-08-17T09:26:21Z</time>
      </trkpt>
      <trkpt lat="45.83636" lon="6.21696">
        <ele>451.2</ele>
        <time>2013-08-17T09:26:22Z</time>
      </trkpt>
      <trkpt lat="45.83628" lon="6.21696">
        <ele>450.8</ele>
        <time>2013-08-17T09:26:23Z</time>
      </trkpt>
      <trkpt lat="45.8362" lon="6.21696">
        <ele>450.5</ele>
        <time>2013-08-17T09:26:24Z</time>
      </trkpt>
      <trkpt lat="45.83612" lon="6.21696">
        <ele>450.1</ele>
        <time>2013-08-17T09:26:25Z</time>
      </trkpt>
      <trkpt lat="45.83606" lon="6.21695">
        <ele>449.8</ele>
        <time>2013-08-17T09:26:26Z</time>
      </trkpt>
      <trkpt lat="45.83597" lon="6.21695">
        <ele>449.5</ele>
        <time>2013-08-17T09:26:27Z</time>
      </trkpt>
      <trkpt lat="45.8359" lon="6.21696">
        <ele>449.2</ele>
        <time>2013-08-17T09:26:28Z</time>
      </trkpt>
      <trkpt lat="45.83583" lon="6.21697">
        <ele>448.8</ele>
        <time>2013-08-17T09:26:29Z</time>
      </trkpt>
      <trkpt lat="45.83576" lon="6.21697">
        <ele>448.5</ele>
        <time>2013-08-17T09:26:30Z</time>
      </trkpt>
      <trkpt lat="45.83569" lon="6.21697">
        <ele>448.2</ele>
        <time>2013-08-17T09:26:31Z</time>
      </trkpt>
      <trkpt lat="45.83562" lon="6.21698">
        <ele>447.9</ele>
        <time>2013-08-17T09:26:32Z</time>
      </trkpt>
      <trkpt lat="45.83555" lon="6.21697">
        <ele>447.6</ele>
        <time>2013-08-17T09:26:33Z</time>
      </trkpt>
      <trkpt lat="45.8355" lon="6.21697">
        <ele>447.4</ele>
        <time>2013-08-17T09:26:34Z</time>
      </trkpt>
      <trkpt lat="45.83543" lon="6.21696">
        <ele>447.1</ele>
        <time>2013-08-17T09:26:35Z</time>
      </trkpt>
      <trkpt lat="45.83535" lon="6.21695">
        <ele>447</ele>
        <time>2013-08-17T09:26:36Z</time>
      </trkpt>
      <trkpt lat="45.8353" lon="6.21694">
        <ele>447</ele>
        <time>2013-08-17T09:26:37Z</time>
      </trkpt>
      <trkpt lat="45.83523" lon="6.21695">
        <ele>447</ele>
        <time>2013-08-17T09:26:38Z</time>
      </trkpt>
      <trkpt lat="45.83517" lon="6.21695">
        <ele>447</ele>
        <time>2013-08-17T09:26:39Z</time>
      </trkpt>
      <trkpt lat="45.83511" lon="6.21695">
        <ele>447</ele>
        <time>2013-08-17T09:26:40Z</time>
      </trkpt>
      <trkpt lat="45.83504" lon="6.21696">
        <ele>447</ele>
        <time>2013-08-17T09:26:41Z</time>
      </trkpt>
      <trkpt lat="45.83498" lon="6.21696">
        <ele>447</ele>
        <time>2013-08-17T09:26:42Z</time>
      </trkpt>
      <trkpt lat="45.8349" lon="6.21697">
        <ele>447</ele>
        <time>2013-08-17T09:26:43Z</time>
      </trkpt>
      <trkpt lat="45.83484" lon="6.21698">
        <ele>447</ele>
        <time>2013-08-17T09:26:44Z</time>
      </trkpt>
      <trkpt lat="45.83479" lon="6.21698">
        <ele>447</ele>
        <time>2013-08-17T09:26:45Z</time>
      </trkpt>
      <trkpt lat="45.8347" lon="6.217">
        <ele>447</ele>
        <time>2013-08-17T09:26:46Z</time>
      </trkpt>
      <trkpt lat="45.83464" lon="6.21701">
        <ele>447</ele>
        <time>2013-08-17T09:26:47Z</time>
      </trkpt>
      <trkpt lat="45.83457" lon="6.21702">
        <ele>447</ele>
        <time>2013-08-17T09:26:48Z</time>
      </trkpt>
      <trkpt lat="45.83451" lon="6.21703">
        <ele>447</ele>
        <time>2013-08-17T09:26:49Z</time>
      </trkpt>
      <trkpt lat="45.83445" lon="6.21704">
        <ele>447</ele>
        <time>2013-08-17T09:26:50Z</time>
      </trkpt>
      <trkpt lat="45.8344" lon="6.21707">
        <ele>447</ele>
        <time>2013-08-17T09:26:51Z</time>
      </trkpt>
      <trkpt lat="45.83428" lon="6.21713">
        <ele>448</ele>
        <time>2013-08-17T09:26:54Z</time>
      </trkpt>
      <trkpt lat="45.83424" lon="6.21715">
        <ele>448.3</ele>
        <time>2013-08-17T09:26:55Z</time>
      </trkpt>
      <trkpt lat="45.8342" lon="6.21717">
        <ele>448.4</ele>
        <time>2013-08-17T09:26:56Z</time>
      </trkpt>
      <trkpt lat="45.83414" lon="6.21717">
        <ele>448.3</ele>
        <time>2013-08-17T09:26:57Z</time>
      </trkpt>
      <trkpt lat="45.8341" lon="6.21718">
        <ele>448.3</ele>
        <time>2013-08-17T09:26:58Z</time>
      </trkpt>
      <trkpt lat="45.83405" lon="6.21719">
        <ele>448.2</ele>
        <time>2013-08-17T09:26:59Z</time>
      </trkpt>
      <trkpt lat="45.83401" lon="6.21721">
        <ele>448.2</ele>
        <time>2013-08-17T09:27:00Z</time>
      </trkpt>
      <trkpt lat="45.83396" lon="6.21723">
        <ele>448.2</ele>
        <time>2013-08-17T09:27:01Z</time>
      </trkpt>
      <trkpt lat="45.83391" lon="6.21725">
        <ele>448</ele>
        <time>2013-08-17T09:27:02Z</time>
      </trkpt>
      <trkpt lat="45.83386" lon="6.21727">
        <ele>447.8</ele>
        <time>2013-08-17T09:27:03Z</time>
      </trkpt>
      <trkpt lat="45.83378" lon="6.21731">
        <ele>447.2</ele>
        <time>2013-08-17T09:27:05Z</time>
      </trkpt>
      <trkpt lat="45.83374" lon="6.21734">
        <ele>447</ele>
        <time>2013-08-17T09:27:06Z</time>
      </trkpt>
      <trkpt lat="45.83369" lon="6.21738">
        <ele>447</ele>
        <time>2013-08-17T09:27:07Z</time>
      </trkpt>
      <trkpt lat="45.83364" lon="6.21741">
        <ele>447</ele>
        <time>2013-08-17T09:27:08Z</time>
      </trkpt>
      <trkpt lat="45.8336" lon="6.21744">
        <ele>447</ele>
        <time>2013-08-17T09:27:09Z</time>
      </trkpt>
      <trkpt lat="45.83354" lon="6.2175">
        <ele>447</ele>
        <time>2013-08-17T09:27:10Z</time>
      </trkpt>
      <trkpt lat="45.83352" lon="6.21753">
        <ele>447</ele>
        <time>2013-08-17T09:27:11Z</time>
      </trkpt>
      <trkpt lat="45.83347" lon="6.21759">
        <ele>447</ele>
        <time>2013-08-17T09:27:12Z</time>
      </trkpt>
      <trkpt lat="45.83344" lon="6.21765">
        <ele>447</ele>
        <time>2013-08-17T09:27:13Z</time>
      </trkpt>
      <trkpt lat="45.83344" lon="6.21769">
        <ele>447</ele>
        <time>2013-08-17T09:27:14Z</time>
      </trkpt>
      <trkpt lat="45.83339" lon="6.21776">
        <ele>447</ele>
        <time>2013-08-17T09:27:15Z</time>
      </trkpt>
      <trkpt lat="45.83333" lon="6.21781">
        <ele>447</ele>
        <time>2013-08-17T09:27:16Z</time>
      </trkpt>
      <trkpt lat="45.83328" lon="6.21788">
        <ele>447</ele>
        <time>2013-08-17T09:27:17Z</time>
      </trkpt>
      <trkpt lat="45.83325" lon="6.21797">
        <ele>447.6</ele>
        <time>2013-08-17T09:27:18Z</time>
      </trkpt>
      <trkpt lat="45.83323" lon="6.21803">
        <ele>448.3</ele>
        <time>2013-08-17T09:27:19Z</time>
      </trkpt>
      <trkpt lat="45.83319" lon="6.21809">
        <ele>448.8</ele>
        <time>2013-08-17T09:27:20Z</time>
      </trkpt>
      <trkpt lat="45.83315" lon="6.21815">
        <ele>449.1</ele>
        <time>2013-08-17T09:27:21Z</time>
      </trkpt>
      <trkpt lat="45.83313" lon="6.21821">
        <ele>449.4</ele>
        <time>2013-08-17T09:27:22Z</time>
      </trkpt>
      <trkpt lat="45.8331" lon="6.21828">
        <ele>449.6</ele>
        <time>2013-08-17T09:27:23Z</time>
      </trkpt>
      <trkpt lat="45.83309" lon="6.21833">
        <ele>449.7</ele>
        <time>2013-08-17T09:27:24Z</time>
      </trkpt>
      <trkpt lat="45.83308" lon="6.21837">
        <ele>449.9</ele>
        <time>2013-08-17T09:27:25Z</time>
      </trkpt>
      <trkpt lat="45.83305" lon="6.21842">
        <ele>449.7</ele>
        <time>2013-08-17T09:27:26Z</time>
      </trkpt>
      <trkpt lat="45.83301" lon="6.21846">
        <ele>449</ele>
        <time>2013-08-17T09:27:27Z</time>
      </trkpt>
      <trkpt lat="45.83295" lon="6.21855">
        <ele>447.9</ele>
        <time>2013-08-17T09:27:28Z</time>
      </trkpt>
      <trkpt lat="45.8329" lon="6.21862">
        <ele>447</ele>
        <time>2013-08-17T09:27:29Z</time>
      </trkpt>
      <trkpt lat="45.83287" lon="6.21868">
        <ele>447</ele>
        <time>2013-08-17T09:27:30Z</time>
      </trkpt>
      <trkpt lat="45.83284" lon="6.21875">
        <ele>447</ele>
        <time>2013-08-17T09:27:31Z</time>
      </trkpt>
      <trkpt lat="45.83281" lon="6.2188">
        <ele>447.5</ele>
        <time>2013-08-17T09:27:32Z</time>
      </trkpt>
      <trkpt lat="45.83279" lon="6.21884">
        <ele>448</ele>
        <time>2013-08-17T09:27:33Z</time>
      </trkpt>
      <trkpt lat="45.83276" lon="6.21889">
        <ele>448.5</ele>
        <time>2013-08-17T09:27:34Z</time>
      </trkpt>
      <trkpt lat="45.83273" lon="6.21893">
        <ele>448.8</ele>
        <time>2013-08-17T09:27:35Z</time>
      </trkpt>
      <trkpt lat="45.83269" lon="6.21898">
        <ele>449.2</ele>
        <time>2013-08-17T09:27:36Z</time>
      </trkpt>
      <trkpt lat="45.83265" lon="6.21903">
        <ele>449.5</ele>
        <time>2013-08-17T09:27:37Z</time>
      </trkpt>
      <trkpt lat="45.83261" lon="6.21909">
        <ele>449.8</ele>
        <time>2013-08-17T09:27:38Z</time>
      </trkpt>
      <trkpt lat="45.83255" lon="6.21916">
        <ele>450</ele>
        <time>2013-08-17T09:27:39Z</time>
      </trkpt>
      <trkpt lat="45.83251" lon="6.21919">
        <ele>450</ele>
        <time>2013-08-17T09:27:40Z</time>
      </trkpt>
      <trkpt lat="45.83246" lon="6.21924">
        <ele>449.9</ele>
        <time>2013-08-17T09:27:41Z</time>
      </trkpt>
      <trkpt lat="45.83239" lon="6.2193">
        <ele>449.7</ele>
        <time>2013-08-17T09:27:42Z</time>
      </trkpt>
      <trkpt lat="45.83234" lon="6.21935">
        <ele>449.4</ele>
        <time>2013-08-17T09:27:43Z</time>
      </trkpt>
      <trkpt lat="45.83228" lon="6.2194">
        <ele>449.1</ele>
        <time>2013-08-17T09:27:44Z</time>
      </trkpt>
      <trkpt lat="45.83223" lon="6.21945">
        <ele>448.6</ele>
        <time>2013-08-17T09:27:45Z</time>
      </trkpt>
      <trkpt lat="45.83218" lon="6.2195">
        <ele>448.2</ele>
        <time>2013-08-17T09:27:46Z</time>
      </trkpt>
      <trkpt lat="45.83213" lon="6.21955">
        <ele>447.6</ele>
        <time>2013-08-17T09:27:47Z</time>
      </trkpt>
      <trkpt lat="45.83209" lon="6.2196">
        <ele>447.2</ele>
        <time>2013-08-17T09:27:48Z</time>
      </trkpt>
      <trkpt lat="45.83203" lon="6.21966">
        <ele>448</ele>
        <time>2013-08-17T09:27:49Z</time>
      </trkpt>
      <trkpt lat="45.83199" lon="6.2197">
        <ele>448.7</ele>
        <time>2013-08-17T09:27:50Z</time>
      </trkpt>
      <trkpt lat="45.83194" lon="6.21974">
        <ele>449.2</ele>
        <time>2013-08-17T09:27:51Z</time>
      </trkpt>
      <trkpt lat="45.83188" lon="6.21978">
        <ele>449.8</ele>
        <time>2013-08-17T09:27:52Z</time>
      </trkpt>
      <trkpt lat="45.83183" lon="6.21982">
        <ele>450.4</ele>
        <time>2013-08-17T09:27:53Z</time>
      </trkpt>
      <trkpt lat="45.83177" lon="6.21986">
        <ele>450.9</ele>
        <time>2013-08-17T09:27:54Z</time>
      </trkpt>
      <trkpt lat="45.83171" lon="6.2199">
        <ele>451.4</ele>
        <time>2013-08-17T09:27:55Z</time>
      </trkpt>
      <trkpt lat="45.83165" lon="6.21995">
        <ele>451.9</ele>
        <time>2013-08-17T09:27:56Z</time>
      </trkpt>
      <trkpt lat="45.83159" lon="6.21997">
        <ele>452.2</ele>
        <time>2013-08-17T09:27:57Z</time>
      </trkpt>
      <trkpt lat="45.83153" lon="6.21999">
        <ele>452.4</ele>
        <time>2013-08-17T09:27:58Z</time>
      </trkpt>
      <trkpt lat="45.83146" lon="6.22003">
        <ele>452.8</ele>
        <time>2013-08-17T09:27:59Z</time>
      </trkpt>
      <trkpt lat="45.83141" lon="6.22006">
        <ele>453.1</ele>
        <time>2013-08-17T09:28:00Z</time>
      </trkpt>
      <trkpt lat="45.83134" lon="6.2201">
        <ele>453.4</ele>
        <time>2013-08-17T09:28:01Z</time>
      </trkpt>
      <trkpt lat="45.83128" lon="6.22011">
        <ele>453.5</ele>
        <time>2013-08-17T09:28:02Z</time>
      </trkpt>
      <trkpt lat="45.83122" lon="6.22015">
        <ele>453.7</ele>
        <time>2013-08-17T09:28:03Z</time>
      </trkpt>
      <trkpt lat="45.83117" lon="6.22019">
        <ele>453.7</ele>
        <time>2013-08-17T09:28:04Z</time>
      </trkpt>
      <trkpt lat="45.8311" lon="6.2202">
        <ele>453.7</ele>
        <time>2013-08-17T09:28:05Z</time>
      </trkpt>
      <trkpt lat="45.83104" lon="6.22022">
        <ele>453.6</ele>
        <time>2013-08-17T09:28:06Z</time>
      </trkpt>
      <trkpt lat="45.83098" lon="6.22023">
        <ele>453.5</ele>
        <time>2013-08-17T09:28:07Z</time>
      </trkpt>
      <trkpt lat="45.83093" lon="6.22025">
        <ele>453.5</ele>
        <time>2013-08-17T09:28:08Z</time>
      </trkpt>
      <trkpt lat="45.83087" lon="6.22027">
        <ele>453.5</ele>
        <time>2013-08-17T09:28:09Z</time>
      </trkpt>
      <trkpt lat="45.83081" lon="6.2203">
        <ele>453.4</ele>
        <time>2013-08-17T09:28:10Z</time>
      </trkpt>
      <trkpt lat="45.83076" lon="6.22033">
        <ele>453.5</ele>
        <time>2013-08-17T09:28:11Z</time>
      </trkpt>
      <trkpt lat="45.83069" lon="6.22035">
        <ele>453.4</ele>
        <time>2013-08-17T09:28:12Z</time>
      </trkpt>
      <trkpt lat="45.83063" lon="6.22037">
        <ele>453.3</ele>
        <time>2013-08-17T09:28:13Z</time>
      </trkpt>
      <trkpt lat="45.83057" lon="6.22038">
        <ele>453.2</ele>
        <time>2013-08-17T09:28:14Z</time>
      </trkpt>
      <trkpt lat="45.83052" lon="6.22038">
        <ele>453.1</ele>
        <time>2013-08-17T09:28:15Z</time>
      </trkpt>
      <trkpt lat="45.83047" lon="6.22041">
        <ele>453.1</ele>
        <time>2013-08-17T09:28:16Z</time>
      </trkpt>
      <trkpt lat="45.83043" lon="6.22044">
        <ele>453.3</ele>
        <time>2013-08-17T09:28:17Z</time>
      </trkpt>
      <trkpt lat="45.83039" lon="6.22046">
        <ele>453.7</ele>
        <time>2013-08-17T09:28:18Z</time>
      </trkpt>
      <trkpt lat="45.83032" lon="6.22047">
        <ele>453.8</ele>
        <time>2013-08-17T09:28:19Z</time>
      </trkpt>
      <trkpt lat="45.83027" lon="6.22049">
        <ele>454.1</ele>
        <time>2013-08-17T09:28:20Z</time>
      </trkpt>
      <trkpt lat="45.83024" lon="6.22052">
        <ele>454.4</ele>
        <time>2013-08-17T09:28:21Z</time>
      </trkpt>
      <trkpt lat="45.8302" lon="6.22056">
        <ele>454.9</ele>
        <time>2013-08-17T09:28:22Z</time>
      </trkpt>
      <trkpt lat="45.83016" lon="6.22056">
        <ele>454.8</ele>
        <time>2013-08-17T09:28:23Z</time>
      </trkpt>
      <trkpt lat="45.8301" lon="6.22056">
        <ele>454.8</ele>
        <time>2013-08-17T09:28:24Z</time>
      </trkpt>
      <trkpt lat="45.83005" lon="6.22059">
        <ele>455</ele>
        <time>2013-08-17T09:28:25Z</time>
      </trkpt>
      <trkpt lat="45.82999" lon="6.22063">
        <ele>455.3</ele>
        <time>2013-08-17T09:28:27Z</time>
      </trkpt>
      <trkpt lat="45.82995" lon="6.22066">
        <ele>455.4</ele>
        <time>2013-08-17T09:28:28Z</time>
      </trkpt>
      <trkpt lat="45.82992" lon="6.2207">
        <ele>455.7</ele>
        <time>2013-08-17T09:28:30Z</time>
      </trkpt>
      <trkpt lat="45.82984" lon="6.22072">
        <ele>455.5</ele>
        <time>2013-08-17T09:28:31Z</time>
      </trkpt>
      <trkpt lat="45.82978" lon="6.22073">
        <ele>455.4</ele>
        <time>2013-08-17T09:28:32Z</time>
      </trkpt>
      <trkpt lat="45.82975" lon="6.22074">
        <ele>455.3</ele>
        <time>2013-08-17T09:28:33Z</time>
      </trkpt>
      <trkpt lat="45.82968" lon="6.22076">
        <ele>455.2</ele>
        <time>2013-08-17T09:28:35Z</time>
      </trkpt>
      <trkpt lat="45.82962" lon="6.22079">
        <ele>455.1</ele>
        <time>2013-08-17T09:28:36Z</time>
      </trkpt>
      <trkpt lat="45.82958" lon="6.2208">
        <ele>454.9</ele>
        <time>2013-08-17T09:28:37Z</time>
      </trkpt>
      <trkpt lat="45.82955" lon="6.22082">
        <ele>454.8</ele>
        <time>2013-08-17T09:28:38Z</time>
      </trkpt>
      <trkpt lat="45.82945" lon="6.22086">
        <ele>454.6</ele>
        <time>2013-08-17T09:28:40Z</time>
      </trkpt>
      <trkpt lat="45.82941" lon="6.22089">
        <ele>454.5</ele>
        <time>2013-08-17T09:28:41Z</time>
      </trkpt>
      <trkpt lat="45.82935" lon="6.22088">
        <ele>454.3</ele>
        <time>2013-08-17T09:28:42Z</time>
      </trkpt>
      <trkpt lat="45.8293" lon="6.22087">
        <ele>454.1</ele>
        <time>2013-08-17T09:28:43Z</time>
      </trkpt>
      <trkpt lat="45.82924" lon="6.22088">
        <ele>453.9</ele>
        <time>2013-08-17T09:28:44Z</time>
      </trkpt>
      <trkpt lat="45.82919" lon="6.22091">
        <ele>453.8</ele>
        <time>2013-08-17T09:28:45Z</time>
      </trkpt>
      <trkpt lat="45.82915" lon="6.22094">
        <ele>453.8</ele>
        <time>2013-08-17T09:28:46Z</time>
      </trkpt>
      <trkpt lat="45.82909" lon="6.22095">
        <ele>453.7</ele>
        <time>2013-08-17T09:28:47Z</time>
      </trkpt>
      <trkpt lat="45.829" lon="6.22093">
        <ele>453.3</ele>
        <time>2013-08-17T09:28:50Z</time>
      </trkpt>
      <trkpt lat="45.82895" lon="6.22094">
        <ele>453.1</ele>
        <time>2013-08-17T09:28:51Z</time>
      </trkpt>
      <trkpt lat="45.82883" lon="6.22095">
        <ele>452.8</ele>
        <time>2013-08-17T09:28:52Z</time>
      </trkpt>
      <trkpt lat="45.82876" lon="6.22093">
        <ele>452.5</ele>
        <time>2013-08-17T09:28:53Z</time>
      </trkpt>
      <trkpt lat="45.82872" lon="6.22096">
        <ele>452.7</ele>
        <time>2013-08-17T09:28:54Z</time>
      </trkpt>
      <trkpt lat="45.82865" lon="6.22097">
        <ele>452.9</ele>
        <time>2013-08-17T09:28:55Z</time>
      </trkpt>
      <trkpt lat="45.82858" lon="6.22096">
        <ele>453</ele>
        <time>2013-08-17T09:28:56Z</time>
      </trkpt>
      <trkpt lat="45.82854" lon="6.22095">
        <ele>453.1</ele>
        <time>2013-08-17T09:28:57Z</time>
      </trkpt>
      <trkpt lat="45.82849" lon="6.22096">
        <ele>453.2</ele>
        <time>2013-08-17T09:28:58Z</time>
      </trkpt>
      <trkpt lat="45.82844" lon="6.22097">
        <ele>453.4</ele>
        <time>2013-08-17T09:28:59Z</time>
      </trkpt>
      <trkpt lat="45.82839" lon="6.22097">
        <ele>453.5</ele>
        <time>2013-08-17T09:29:00Z</time>
      </trkpt>
      <trkpt lat="45.82835" lon="6.22097">
        <ele>453.6</ele>
        <time>2013-08-17T09:29:01Z</time>
      </trkpt>
      <trkpt lat="45.82831" lon="6.22098">
        <ele>453.7</ele>
        <time>2013-08-17T09:29:02Z</time>
      </trkpt>
      <trkpt lat="45.82828" lon="6.22098">
        <ele>453.8</ele>
        <time>2013-08-17T09:29:03Z</time>
      </trkpt>
      <trkpt lat="45.82823" lon="6.22102">
        <ele>454.1</ele>
        <time>2013-08-17T09:29:05Z</time>
      </trkpt>
      <trkpt lat="45.82818" lon="6.22102">
        <ele>454.2</ele>
        <time>2013-08-17T09:29:07Z</time>
      </trkpt>
      <trkpt lat="45.82811" lon="6.22102">
        <ele>454.4</ele>
        <time>2013-08-17T09:29:09Z</time>
      </trkpt>
      <trkpt lat="45.82805" lon="6.22102">
        <ele>454.6</ele>
        <time>2013-08-17T09:29:10Z</time>
      </trkpt>
      <trkpt lat="45.82802" lon="6.22103">
        <ele>454.7</ele>
        <time>2013-08-17T09:29:11Z</time>
      </trkpt>
      <trkpt lat="45.82799" lon="6.22104">
        <ele>454.8</ele>
        <time>2013-08-17T09:29:12Z</time>
      </trkpt>
      <trkpt lat="45.82795" lon="6.22106">
        <ele>455</ele>
        <time>2013-08-17T09:29:13Z</time>
      </trkpt>
      <trkpt lat="45.82786" lon="6.22107">
        <ele>455</ele>
        <time>2013-08-17T09:29:14Z</time>
      </trkpt>
      <trkpt lat="45.8278" lon="6.22109">
        <ele>455</ele>
        <time>2013-08-17T09:29:15Z</time>
      </trkpt>
      <trkpt lat="45.82772" lon="6.22111">
        <ele>454.9</ele>
        <time>2013-08-17T09:29:16Z</time>
      </trkpt>
      <trkpt lat="45.82767" lon="6.22113">
        <ele>454.9</ele>
        <time>2013-08-17T09:29:17Z</time>
      </trkpt>
      <trkpt lat="45.82761" lon="6.22115">
        <ele>454.8</ele>
        <time>2013-08-17T09:29:18Z</time>
      </trkpt>
      <trkpt lat="45.82755" lon="6.22117">
        <ele>454.8</ele>
        <time>2013-08-17T09:29:19Z</time>
      </trkpt>
      <trkpt lat="45.82748" lon="6.22118">
        <ele>454.7</ele>
        <time>2013-08-17T09:29:20Z</time>
      </trkpt>
      <trkpt lat="45.82742" lon="6.22119">
        <ele>454.6</ele>
        <time>2013-08-17T09:29:21Z</time>
      </trkpt>
      <trkpt lat="45.82736" lon="6.2212">
        <ele>454.5</ele>
        <time>2013-08-17T09:29:22Z</time>
      </trkpt>
      <trkpt lat="45.8273" lon="6.22122">
        <ele>454.4</ele>
        <time>2013-08-17T09:29:23Z</time>
      </trkpt>
      <trkpt lat="45.82724" lon="6.22124">
        <ele>454.3</ele>
        <time>2013-08-17T09:29:24Z</time>
      </trkpt>
      <trkpt lat="45.82718" lon="6.22125">
        <ele>454.2</ele>
        <time>2013-08-17T09:29:25Z</time>
      </trkpt>
      <trkpt lat="45.82713" lon="6.22127">
        <ele>454.2</ele>
        <time>2013-08-17T09:29:26Z</time>
      </trkpt>
      <trkpt lat="45.82709" lon="6.22127">
        <ele>454.1</ele>
        <time>2013-08-17T09:29:27Z</time>
      </trkpt>
      <trkpt lat="45.8269" lon="6.22138">
        <ele>454.2</ele>
        <time>2013-08-17T09:29:30Z</time>
      </trkpt>
      <trkpt lat="45.82686" lon="6.22141">
        <ele>454.2</ele>
        <time>2013-08-17T09:29:31Z</time>
      </trkpt>
      <trkpt lat="45.82683" lon="6.22144">
        <ele>454.3</ele>
        <time>2013-08-17T09:29:32Z</time>
      </trkpt>
      <trkpt lat="45.82679" lon="6.22147">
        <ele>454.3</ele>
        <time>2013-08-17T09:29:33Z</time>
      </trkpt>
      <trkpt lat="45.82673" lon="6.2215">
        <ele>454.3</ele>
        <time>2013-08-17T09:29:34Z</time>
      </trkpt>
      <trkpt lat="45.8267" lon="6.22154">
        <ele>454.4</ele>
        <time>2013-08-17T09:29:35Z</time>
      </trkpt>
      <trkpt lat="45.82658" lon="6.22163">
        <ele>454.5</ele>
        <time>2013-08-17T09:29:37Z</time>
      </trkpt>
      <trkpt lat="45.82652" lon="6.22166">
        <ele>454.4</ele>
        <time>2013-08-17T09:29:38Z</time>
      </trkpt>
      <trkpt lat="45.82646" lon="6.22168">
        <ele>454.4</ele>
        <time>2013-08-17T09:29:39Z</time>
      </trkpt>
      <trkpt lat="45.82643" lon="6.22169">
        <ele>454.4</ele>
        <time>2013-08-17T09:29:40Z</time>
      </trkpt>
      <trkpt lat="45.82637" lon="6.22175">
        <ele>454.4</ele>
        <time>2013-08-17T09:29:41Z</time>
      </trkpt>
      <trkpt lat="45.82631" lon="6.2218">
        <ele>454.4</ele>
        <time>2013-08-17T09:29:42Z</time>
      </trkpt>
      <trkpt lat="45.82627" lon="6.22182">
        <ele>454.4</ele>
        <time>2013-08-17T09:29:43Z</time>
      </trkpt>
      <trkpt lat="45.82623" lon="6.2219">
        <ele>454.5</ele>
        <time>2013-08-17T09:29:44Z</time>
      </trkpt>
      <trkpt lat="45.82619" lon="6.22194">
        <ele>454.6</ele>
        <time>2013-08-17T09:29:45Z</time>
      </trkpt>
      <trkpt lat="45.82615" lon="6.22198">
        <ele>454.7</ele>
        <time>2013-08-17T09:29:46Z</time>
      </trkpt>
      <trkpt lat="45.82613" lon="6.222">
        <ele>454.8</ele>
        <time>2013-08-17T09:29:47Z</time>
      </trkpt>
      <trkpt lat="45.82599" lon="6.22216">
        <ele>455.1</ele>
        <time>2013-08-17T09:29:50Z</time>
      </trkpt>
      <trkpt lat="45.82597" lon="6.22221">
        <ele>455.1</ele>
        <time>2013-08-17T09:29:53Z</time>
      </trkpt>
      <trkpt lat="45.82593" lon="6.22223">
        <ele>455.1</ele>
        <time>2013-08-17T09:29:54Z</time>
      </trkpt>
      <trkpt lat="45.82588" lon="6.22226">
        <ele>455.1</ele>
        <time>2013-08-17T09:29:55Z</time>
      </trkpt>
      <trkpt lat="45.82584" lon="6.22234">
        <ele>455.2</ele>
        <time>2013-08-17T09:29:56Z</time>
      </trkpt>
      <trkpt lat="45.82582" lon="6.2224">
        <ele>455.2</ele>
        <time>2013-08-17T09:29:57Z</time>
      </trkpt>
      <trkpt lat="45.82577" lon="6.22245">
        <ele>455.1</ele>
        <time>2013-08-17T09:29:58Z</time>
      </trkpt>
      <trkpt lat="45.82574" lon="6.22249">
        <ele>455.1</ele>
        <time>2013-08-17T09:29:59Z</time>
      </trkpt>
      <trkpt lat="45.82573" lon="6.22253">
        <ele>455.1</ele>
        <time>2013-08-17T09:30:00Z</time>
      </trkpt>
      <trkpt lat="45.82571" lon="6.22256">
        <ele>455</ele>
        <time>2013-08-17T09:30:01Z</time>
      </trkpt>
      <trkpt lat="45.82568" lon="6.22259">
        <ele>455</ele>
        <time>2013-08-17T09:30:02Z</time>
      </trkpt>
      <trkpt lat="45.82565" lon="6.22262">
        <ele>454.9</ele>
        <time>2013-08-17T09:30:03Z</time>
      </trkpt>
      <trkpt lat="45.82562" lon="6.22265">
        <ele>454.8</ele>
        <time>2013-08-17T09:30:04Z</time>
      </trkpt>
      <trkpt lat="45.82559" lon="6.2227">
        <ele>454.7</ele>
        <time>2013-08-17T09:30:05Z</time>
      </trkpt>
      <trkpt lat="45.82556" lon="6.22275">
        <ele>454.6</ele>
        <time>2013-08-17T09:30:06Z</time>
      </trkpt>
      <trkpt lat="45.82553" lon="6.2228">
        <ele>454.5</ele>
        <time>2013-08-17T09:30:07Z</time>
      </trkpt>
      <trkpt lat="45.82548" lon="6.22288">
        <ele>454.3</ele>
        <time>2013-08-17T09:30:08Z</time>
      </trkpt>
      <trkpt lat="45.82545" lon="6.22294">
        <ele>454.1</ele>
        <time>2013-08-17T09:30:09Z</time>
      </trkpt>
      <trkpt lat="45.82541" lon="6.22299">
        <ele>453.9</ele>
        <time>2013-08-17T09:30:10Z</time>
      </trkpt>
      <trkpt lat="45.82538" lon="6.22306">
        <ele>453.8</ele>
        <time>2013-08-17T09:30:11Z</time>
      </trkpt>
      <trkpt lat="45.82536" lon="6.22311">
        <ele>453.7</ele>
        <time>2013-08-17T09:30:12Z</time>
      </trkpt>
      <trkpt lat="45.82534" lon="6.22316">
        <ele>453.6</ele>
        <time>2013-08-17T09:30:13Z</time>
      </trkpt>
      <trkpt lat="45.82532" lon="6.2232">
        <ele>453.5</ele>
        <time>2013-08-17T09:30:14Z</time>
      </trkpt>
      <trkpt lat="45.82529" lon="6.22327">
        <ele>453.4</ele>
        <time>2013-08-17T09:30:16Z</time>
      </trkpt>
      <trkpt lat="45.82527" lon="6.22334">
        <ele>453.2</ele>
        <time>2013-08-17T09:30:18Z</time>
      </trkpt>
      <trkpt lat="45.82526" lon="6.22339">
        <ele>453.1</ele>
        <time>2013-08-17T09:30:20Z</time>
      </trkpt>
      <trkpt lat="45.8251" lon="6.22365">
        <ele>452.4</ele>
        <time>2013-08-17T09:30:24Z</time>
      </trkpt>
      <trkpt lat="45.82504" lon="6.22373">
        <ele>452.1</ele>
        <time>2013-08-17T09:30:26Z</time>
      </trkpt>
      <trkpt lat="45.825" lon="6.2238">
        <ele>452</ele>
        <time>2013-08-17T09:30:27Z</time>
      </trkpt>
      <trkpt lat="45.82491" lon="6.22394">
        <ele>451.9</ele>
        <time>2013-08-17T09:30:28Z</time>
      </trkpt>
      <trkpt lat="45.82487" lon="6.22401">
        <ele>451.8</ele>
        <time>2013-08-17T09:30:29Z</time>
      </trkpt>
      <trkpt lat="45.82482" lon="6.22409">
        <ele>451.7</ele>
        <time>2013-08-17T09:30:30Z</time>
      </trkpt>
      <trkpt lat="45.82478" lon="6.22416">
        <ele>451.6</ele>
        <time>2013-08-17T09:30:31Z</time>
      </trkpt>
      <trkpt lat="45.82473" lon="6.22424">
        <ele>451.5</ele>
        <time>2013-08-17T09:30:32Z</time>
      </trkpt>
      <trkpt lat="45.82469" lon="6.22432">
        <ele>451.3</ele>
        <time>2013-08-17T09:30:33Z</time>
      </trkpt>
      <trkpt lat="45.82465" lon="6.22439">
        <ele>451.2</ele>
        <time>2013-08-17T09:30:34Z</time>
      </trkpt>
      <trkpt lat="45.8246" lon="6.22447">
        <ele>451.1</ele>
        <time>2013-08-17T09:30:35Z</time>
      </trkpt>
      <trkpt lat="45.82455" lon="6.22455">
        <ele>450.9</ele>
        <time>2013-08-17T09:30:36Z</time>
      </trkpt>
      <trkpt lat="45.82451" lon="6.22463">
        <ele>450.8</ele>
        <time>2013-08-17T09:30:37Z</time>
      </trkpt>
      <trkpt lat="45.82446" lon="6.22472">
        <ele>450.8</ele>
        <time>2013-08-17T09:30:38Z</time>
      </trkpt>
      <trkpt lat="45.82442" lon="6.2248">
        <ele>450.8</ele>
        <time>2013-08-17T09:30:39Z</time>
      </trkpt>
      <trkpt lat="45.82438" lon="6.22488">
        <ele>450.8</ele>
        <time>2013-08-17T09:30:40Z</time>
      </trkpt>
      <trkpt lat="45.82433" lon="6.22496">
        <ele>450.8</ele>
        <time>2013-08-17T09:30:41Z</time>
      </trkpt>
      <trkpt lat="45.82429" lon="6.22503">
        <ele>450.9</ele>
        <time>2013-08-17T09:30:42Z</time>
      </trkpt>
      <trkpt lat="45.82424" lon="6.22511">
        <ele>450.9</ele>
        <time>2013-08-17T09:30:43Z</time>
      </trkpt>
      <trkpt lat="45.8242" lon="6.22519">
        <ele>450.9</ele>
        <time>2013-08-17T09:30:44Z</time>
      </trkpt>
      <trkpt lat="45.82415" lon="6.22527">
        <ele>451</ele>
        <time>2013-08-17T09:30:45Z</time>
      </trkpt>
      <trkpt lat="45.8241" lon="6.22535">
        <ele>451.1</ele>
        <time>2013-08-17T09:30:46Z</time>
      </trkpt>
      <trkpt lat="45.82407" lon="6.22543">
        <ele>451.2</ele>
        <time>2013-08-17T09:30:47Z</time>
      </trkpt>
      <trkpt lat="45.82402" lon="6.2255">
        <ele>451.3</ele>
        <time>2013-08-17T09:30:48Z</time>
      </trkpt>
      <trkpt lat="45.82398" lon="6.22557">
        <ele>451.4</ele>
        <time>2013-08-17T09:30:49Z</time>
      </trkpt>
      <trkpt lat="45.82395" lon="6.22563">
        <ele>451.5</ele>
        <time>2013-08-17T09:30:50Z</time>
      </trkpt>
      <trkpt lat="45.82392" lon="6.22571">
        <ele>451.5</ele>
        <time>2013-08-17T09:30:51Z</time>
      </trkpt>
      <trkpt lat="45.82388" lon="6.22577">
        <ele>451.4</ele>
        <time>2013-08-17T09:30:52Z</time>
      </trkpt>
      <trkpt lat="45.82385" lon="6.22584">
        <ele>451.4</ele>
        <time>2013-08-17T09:30:53Z</time>
      </trkpt>
      <trkpt lat="45.82382" lon="6.22589">
        <ele>451.2</ele>
        <time>2013-08-17T09:30:54Z</time>
      </trkpt>
      <trkpt lat="45.82381" lon="6.22593">
        <ele>451.2</ele>
        <time>2013-08-17T09:30:55Z</time>
      </trkpt>
      <trkpt lat="45.82369" lon="6.22608">
        <ele>450.5</ele>
        <time>2013-08-17T09:31:00Z</time>
      </trkpt>
      <trkpt lat="45.82366" lon="6.2261">
        <ele>450.4</ele>
        <time>2013-08-17T09:31:01Z</time>
      </trkpt>
      <trkpt lat="45.82365" lon="6.22613">
        <ele>450.4</ele>
        <time>2013-08-17T09:31:02Z</time>
      </trkpt>
      <trkpt lat="45.8236" lon="6.22622">
        <ele>450.3</ele>
        <time>2013-08-17T09:31:04Z</time>
      </trkpt>
      <trkpt lat="45.82358" lon="6.22627">
        <ele>450.3</ele>
        <time>2013-08-17T09:31:05Z</time>
      </trkpt>
      <trkpt lat="45.82355" lon="6.22631">
        <ele>450.5</ele>
        <time>2013-08-17T09:31:06Z</time>
      </trkpt>
      <trkpt lat="45.82352" lon="6.2264">
        <ele>450.9</ele>
        <time>2013-08-17T09:31:07Z</time>
      </trkpt>
      <trkpt lat="45.82349" lon="6.22648">
        <ele>451.2</ele>
        <time>2013-08-17T09:31:08Z</time>
      </trkpt>
      <trkpt lat="45.82345" lon="6.22652">
        <ele>451.2</ele>
        <time>2013-08-17T09:31:09Z</time>
      </trkpt>
      <trkpt lat="45.82341" lon="6.22658">
        <ele>451.2</ele>
        <time>2013-08-17T09:31:10Z</time>
      </trkpt>
      <trkpt lat="45.82325" lon="6.22676">
        <ele>450.6</ele>
        <time>2013-08-17T09:31:13Z</time>
      </trkpt>
      <trkpt lat="45.8232" lon="6.22681">
        <ele>450.2</ele>
        <time>2013-08-17T09:31:14Z</time>
      </trkpt>
      <trkpt lat="45.82314" lon="6.22686">
        <ele>449.6</ele>
        <time>2013-08-17T09:31:15Z</time>
      </trkpt>
      <trkpt lat="45.82308" lon="6.2269">
        <ele>449</ele>
        <time>2013-08-17T09:31:16Z</time>
      </trkpt>
      <trkpt lat="45.823" lon="6.22693">
        <ele>448.1</ele>
        <time>2013-08-17T09:31:17Z</time>
      </trkpt>
      <trkpt lat="45.82294" lon="6.22697">
        <ele>447.3</ele>
        <time>2013-08-17T09:31:18Z</time>
      </trkpt>
      <trkpt lat="45.82287" lon="6.227">
        <ele>447</ele>
        <time>2013-08-17T09:31:19Z</time>
      </trkpt>
      <trkpt lat="45.8228" lon="6.22703">
        <ele>447</ele>
        <time>2013-08-17T09:31:20Z</time>
      </trkpt>
      <trkpt lat="45.82273" lon="6.22705">
        <ele>447</ele>
        <time>2013-08-17T09:31:21Z</time>
      </trkpt>
      <trkpt lat="45.82266" lon="6.22707">
        <ele>447</ele>
        <time>2013-08-17T09:31:22Z</time>
      </trkpt>
      <trkpt lat="45.82257" lon="6.2271">
        <ele>447.3</ele>
        <time>2013-08-17T09:31:23Z</time>
      </trkpt>
      <trkpt lat="45.82249" lon="6.2271">
        <ele>447.4</ele>
        <time>2013-08-17T09:31:24Z</time>
      </trkpt>
      <trkpt lat="45.82242" lon="6.22711">
        <ele>447.6</ele>
        <time>2013-08-17T09:31:25Z</time>
      </trkpt>
      <trkpt lat="45.82235" lon="6.22713">
        <ele>447.8</ele>
        <time>2013-08-17T09:31:26Z</time>
      </trkpt>
      <trkpt lat="45.8223" lon="6.22712">
        <ele>447.7</ele>
        <time>2013-08-17T09:31:27Z</time>
      </trkpt>
      <trkpt lat="45.82222" lon="6.2271">
        <ele>447.3</ele>
        <time>2013-08-17T09:31:28Z</time>
      </trkpt>
      <trkpt lat="45.82214" lon="6.22708">
        <ele>447</ele>
        <time>2013-08-17T09:31:29Z</time>
      </trkpt>
      <trkpt lat="45.82208" lon="6.22705">
        <ele>447</ele>
        <time>2013-08-17T09:31:30Z</time>
      </trkpt>
      <trkpt lat="45.82202" lon="6.227">
        <ele>447</ele>
        <time>2013-08-17T09:31:31Z</time>
      </trkpt>
      <trkpt lat="45.82194" lon="6.22694">
        <ele>447</ele>
        <time>2013-08-17T09:31:32Z</time>
      </trkpt>
      <trkpt lat="45.82187" lon="6.22689">
        <ele>447</ele>
        <time>2013-08-17T09:31:33Z</time>
      </trkpt>
      <trkpt lat="45.8218" lon="6.22684">
        <ele>447</ele>
        <time>2013-08-17T09:31:34Z</time>
      </trkpt>
      <trkpt lat="45.82174" lon="6.22679">
        <ele>447</ele>
        <time>2013-08-17T09:31:35Z</time>
      </trkpt>
      <trkpt lat="45.82168" lon="6.22679">
        <ele>447</ele>
        <time>2013-08-17T09:31:36Z</time>
      </trkpt>
      <trkpt lat="45.82161" lon="6.22677">
        <ele>447</ele>
        <time>2013-08-17T09:31:37Z</time>
      </trkpt>
      <trkpt lat="45.82157" lon="6.22676">
        <ele>447</ele>
        <time>2013-08-17T09:31:38Z</time>
      </trkpt>
      <trkpt lat="45.82147" lon="6.22681">
        <ele>447</ele>
        <time>2013-08-17T09:31:39Z</time>
      </trkpt>
      <trkpt lat="45.8214" lon="6.22684">
        <ele>447</ele>
        <time>2013-08-17T09:31:40Z</time>
      </trkpt>
      <trkpt lat="45.82133" lon="6.22685">
        <ele>447</ele>
        <time>2013-08-17T09:31:41Z</time>
      </trkpt>
      <trkpt lat="45.82126" lon="6.22692">
        <ele>447</ele>
        <time>2013-08-17T09:31:42Z</time>
      </trkpt>
      <trkpt lat="45.8212" lon="6.22698">
        <ele>447</ele>
        <time>2013-08-17T09:31:43Z</time>
      </trkpt>
      <trkpt lat="45.82113" lon="6.22703">
        <ele>447</ele>
        <time>2013-08-17T09:31:44Z</time>
      </trkpt>
      <trkpt lat="45.82106" lon="6.22709">
        <ele>447.1</ele>
        <time>2013-08-17T09:31:45Z</time>
      </trkpt>
      <trkpt lat="45.82098" lon="6.22716">
        <ele>447.4</ele>
        <time>2013-08-17T09:31:46Z</time>
      </trkpt>
      <trkpt lat="45.82093" lon="6.22721">
        <ele>447.6</ele>
        <time>2013-08-17T09:31:47Z</time>
      </trkpt>
      <trkpt lat="45.82087" lon="6.22723">
        <ele>447.6</ele>
        <time>2013-08-17T09:31:48Z</time>
      </trkpt>
      <trkpt lat="45.8208" lon="6.22732">
        <ele>447.8</ele>
        <time>2013-08-17T09:31:49Z</time>
      </trkpt>
      <trkpt lat="45.82074" lon="6.2274">
        <ele>447.9</ele>
        <time>2013-08-17T09:31:50Z</time>
      </trkpt>
      <trkpt lat="45.8207" lon="6.22746">
        <ele>447.9</ele>
        <time>2013-08-17T09:31:51Z</time>
      </trkpt>
      <trkpt lat="45.82065" lon="6.22754">
        <ele>447.9</ele>
        <time>2013-08-17T09:31:52Z</time>
      </trkpt>
      <trkpt lat="45.8206" lon="6.22761">
        <ele>447.8</ele>
        <time>2013-08-17T09:31:53Z</time>
      </trkpt>
      <trkpt lat="45.82054" lon="6.2277">
        <ele>447.7</ele>
        <time>2013-08-17T09:31:54Z</time>
      </trkpt>
      <trkpt lat="45.82049" lon="6.22779">
        <ele>447.5</ele>
        <time>2013-08-17T09:31:55Z</time>
      </trkpt>
      <trkpt lat="45.82044" lon="6.22785">
        <ele>447.1</ele>
        <time>2013-08-17T09:31:56Z</time>
      </trkpt>
      <trkpt lat="45.82038" lon="6.22792">
        <ele>447</ele>
        <time>2013-08-17T09:31:57Z</time>
      </trkpt>
      <trkpt lat="45.82031" lon="6.22799">
        <ele>447</ele>
        <time>2013-08-17T09:31:58Z</time>
      </trkpt>
      <trkpt lat="45.82026" lon="6.22805">
        <ele>447</ele>
        <time>2013-08-17T09:31:59Z</time>
      </trkpt>
      <trkpt lat="45.82019" lon="6.2281">
        <ele>447</ele>
        <time>2013-08-17T09:32:00Z</time>
      </trkpt>
      <trkpt lat="45.82012" lon="6.22817">
        <ele>447</ele>
        <time>2013-08-17T09:32:01Z</time>
      </trkpt>
      <trkpt lat="45.82006" lon="6.22822">
        <ele>447</ele>
        <time>2013-08-17T09:32:02Z</time>
      </trkpt>
      <trkpt lat="45.81999" lon="6.22828">
        <ele>447</ele>
        <time>2013-08-17T09:32:03Z</time>
      </trkpt>
      <trkpt lat="45.81993" lon="6.22832">
        <ele>447</ele>
        <time>2013-08-17T09:32:04Z</time>
      </trkpt>
      <trkpt lat="45.81987" lon="6.22837">
        <ele>447</ele>
        <time>2013-08-17T09:32:05Z</time>
      </trkpt>
      <trkpt lat="45.8198" lon="6.22841">
        <ele>447</ele>
        <time>2013-08-17T09:32:06Z</time>
      </trkpt>
      <trkpt lat="45.81972" lon="6.22845">
        <ele>447</ele>
        <time>2013-08-17T09:32:07Z</time>
      </trkpt>
      <trkpt lat="45.81965" lon="6.22849">
        <ele>447</ele>
        <time>2013-08-17T09:32:08Z</time>
      </trkpt>
      <trkpt lat="45.81958" lon="6.22854">
        <ele>447</ele>
        <time>2013-08-17T09:32:09Z</time>
      </trkpt>
      <trkpt lat="45.81951" lon="6.22859">
        <ele>447</ele>
        <time>2013-08-17T09:32:10Z</time>
      </trkpt>
      <trkpt lat="45.81945" lon="6.22861">
        <ele>447</ele>
        <time>2013-08-17T09:32:11Z</time>
      </trkpt>
      <trkpt lat="45.8194" lon="6.22866">
        <ele>447</ele>
        <time>2013-08-17T09:32:12Z</time>
      </trkpt>
      <trkpt lat="45.8193" lon="6.2287">
        <ele>447</ele>
        <time>2013-08-17T09:32:13Z</time>
      </trkpt>
      <trkpt lat="45.81923" lon="6.22874">
        <ele>447</ele>
        <time>2013-08-17T09:32:14Z</time>
      </trkpt>
      <trkpt lat="45.81916" lon="6.22875">
        <ele>447</ele>
        <time>2013-08-17T09:32:15Z</time>
      </trkpt>
      <trkpt lat="45.81908" lon="6.22878">
        <ele>447.4</ele>
        <time>2013-08-17T09:32:16Z</time>
      </trkpt>
      <trkpt lat="45.81901" lon="6.22878">
        <ele>447.5</ele>
        <time>2013-08-17T09:32:17Z</time>
      </trkpt>
      <trkpt lat="45.81894" lon="6.22877">
        <ele>447.2</ele>
        <time>2013-08-17T09:32:18Z</time>
      </trkpt>
      <trkpt lat="45.81885" lon="6.22875">
        <ele>447</ele>
        <time>2013-08-17T09:32:19Z</time>
      </trkpt>
      <trkpt lat="45.81881" lon="6.22875">
        <ele>447</ele>
        <time>2013-08-17T09:32:20Z</time>
      </trkpt>
      <trkpt lat="45.81869" lon="6.22877">
        <ele>447.2</ele>
        <time>2013-08-17T09:32:21Z</time>
      </trkpt>
      <trkpt lat="45.81862" lon="6.22879">
        <ele>447.4</ele>
        <time>2013-08-17T09:32:22Z</time>
      </trkpt>
      <trkpt lat="45.81855" lon="6.22883">
        <ele>447.8</ele>
        <time>2013-08-17T09:32:23Z</time>
      </trkpt>
      <trkpt lat="45.81848" lon="6.22887">
        <ele>448.1</ele>
        <time>2013-08-17T09:32:24Z</time>
      </trkpt>
      <trkpt lat="45.81841" lon="6.22893">
        <ele>448.6</ele>
        <time>2013-08-17T09:32:25Z</time>
      </trkpt>
      <trkpt lat="45.81833" lon="6.22897">
        <ele>448.9</ele>
        <time>2013-08-17T09:32:26Z</time>
      </trkpt>
      <trkpt lat="45.81825" lon="6.22901">
        <ele>449.1</ele>
        <time>2013-08-17T09:32:27Z</time>
      </trkpt>
      <trkpt lat="45.81819" lon="6.22905">
        <ele>449.2</ele>
        <time>2013-08-17T09:32:28Z</time>
      </trkpt>
      <trkpt lat="45.8181" lon="6.2291">
        <ele>449.5</ele>
        <time>2013-08-17T09:32:29Z</time>
      </trkpt>
      <trkpt lat="45.81802" lon="6.22914">
        <ele>449.5</ele>
        <time>2013-08-17T09:32:30Z</time>
      </trkpt>
      <trkpt lat="45.81795" lon="6.22917">
        <ele>449.6</ele>
        <time>2013-08-17T09:32:31Z</time>
      </trkpt>
      <trkpt lat="45.81787" lon="6.22922">
        <ele>449.6</ele>
        <time>2013-08-17T09:32:32Z</time>
      </trkpt>
      <trkpt lat="45.81782" lon="6.22925">
        <ele>449.7</ele>
        <time>2013-08-17T09:32:33Z</time>
      </trkpt>
      <trkpt lat="45.81773" lon="6.22928">
        <ele>449.5</ele>
        <time>2013-08-17T09:32:34Z</time>
      </trkpt>
      <trkpt lat="45.81763" lon="6.22924">
        <ele>448.9</ele>
        <time>2013-08-17T09:32:35Z</time>
      </trkpt>
      <trkpt lat="45.81755" lon="6.22921">
        <ele>448.5</ele>
        <time>2013-08-17T09:32:36Z</time>
      </trkpt>
      <trkpt lat="45.81744" lon="6.22916">
        <ele>448</ele>
        <time>2013-08-17T09:32:37Z</time>
      </trkpt>
      <trkpt lat="45.81736" lon="6.22913">
        <ele>447.7</ele>
        <time>2013-08-17T09:32:38Z</time>
      </trkpt>
      <trkpt lat="45.8173" lon="6.22911">
        <ele>447.6</ele>
        <time>2013-08-17T09:32:39Z</time>
      </trkpt>
      <trkpt lat="45.81723" lon="6.22908">
        <ele>447.4</ele>
        <time>2013-08-17T09:32:40Z</time>
      </trkpt>
      <trkpt lat="45.81716" lon="6.22906">
        <ele>447.2</ele>
        <time>2013-08-17T09:32:41Z</time>
      </trkpt>
      <trkpt lat="45.81708" lon="6.22904">
        <ele>447</ele>
        <time>2013-08-17T09:32:42Z</time>
      </trkpt>
      <trkpt lat="45.817" lon="6.22903">
        <ele>447</ele>
        <time>2013-08-17T09:32:43Z</time>
      </trkpt>
      <trkpt lat="45.81692" lon="6.22901">
        <ele>447</ele>
        <time>2013-08-17T09:32:44Z</time>
      </trkpt>
      <trkpt lat="45.81684" lon="6.22901">
        <ele>447</ele>
        <time>2013-08-17T09:32:45Z</time>
      </trkpt>
      <trkpt lat="45.81675" lon="6.229">
        <ele>447</ele>
        <time>2013-08-17T09:32:46Z</time>
      </trkpt>
      <trkpt lat="45.81667" lon="6.229">
        <ele>447</ele>
        <time>2013-08-17T09:32:47Z</time>
      </trkpt>
      <trkpt lat="45.8166" lon="6.22901">
        <ele>447</ele>
        <time>2013-08-17T09:32:48Z</time>
      </trkpt>
      <trkpt lat="45.81652" lon="6.22901">
        <ele>447</ele>
        <time>2013-08-17T09:32:49Z</time>
      </trkpt>
      <trkpt lat="45.81645" lon="6.22901">
        <ele>447</ele>
        <time>2013-08-17T09:32:50Z</time>
      </trkpt>
      <trkpt lat="45.81636" lon="6.22902">
        <ele>447</ele>
        <time>2013-08-17T09:32:51Z</time>
      </trkpt>
      <trkpt lat="45.81629" lon="6.22902">
        <ele>447</ele>
        <time>2013-08-17T09:32:52Z</time>
      </trkpt>
      <trkpt lat="45.81622" lon="6.22903">
        <ele>447</ele>
        <time>2013-08-17T09:32:53Z</time>
      </trkpt>
      <trkpt lat="45.81615" lon="6.22903">
        <ele>447</ele>
        <time>2013-08-17T09:32:54Z</time>
      </trkpt>
      <trkpt lat="45.81608" lon="6.22903">
        <ele>447</ele>
        <time>2013-08-17T09:32:55Z</time>
      </trkpt>
      <trkpt lat="45.81602" lon="6.22904">
        <ele>447</ele>
        <time>2013-08-17T09:32:56Z</time>
      </trkpt>
      <trkpt lat="45.81597" lon="6.22903">
        <ele>447</ele>
        <time>2013-08-17T09:32:57Z</time>
      </trkpt>
      <trkpt lat="45.81591" lon="6.22907">
        <ele>447</ele>
        <time>2013-08-17T09:32:58Z</time>
      </trkpt>
      <trkpt lat="45.81584" lon="6.22914">
        <ele>447</ele>
        <time>2013-08-17T09:33:00Z</time>
      </trkpt>
      <trkpt lat="45.81578" lon="6.22918">
        <ele>447</ele>
        <time>2013-08-17T09:33:01Z</time>
      </trkpt>
      <trkpt lat="45.81566" lon="6.22925">
        <ele>447</ele>
        <time>2013-08-17T09:33:02Z</time>
      </trkpt>
      <trkpt lat="45.8156" lon="6.22931">
        <ele>447</ele>
        <time>2013-08-17T09:33:03Z</time>
      </trkpt>
      <trkpt lat="45.81553" lon="6.22938">
        <ele>447</ele>
        <time>2013-08-17T09:33:04Z</time>
      </trkpt>
      <trkpt lat="45.81547" lon="6.22943">
        <ele>447</ele>
        <time>2013-08-17T09:33:05Z</time>
      </trkpt>
      <trkpt lat="45.81542" lon="6.22949">
        <ele>447</ele>
        <time>2013-08-17T09:33:06Z</time>
      </trkpt>
      <trkpt lat="45.81535" lon="6.22954">
        <ele>447</ele>
        <time>2013-08-17T09:33:07Z</time>
      </trkpt>
      <trkpt lat="45.81529" lon="6.22959">
        <ele>447</ele>
        <time>2013-08-17T09:33:08Z</time>
      </trkpt>
      <trkpt lat="45.81522" lon="6.22964">
        <ele>447.4</ele>
        <time>2013-08-17T09:33:09Z</time>
      </trkpt>
      <trkpt lat="45.81516" lon="6.22968">
        <ele>447.7</ele>
        <time>2013-08-17T09:33:10Z</time>
      </trkpt>
      <trkpt lat="45.81509" lon="6.22972">
        <ele>447.8</ele>
        <time>2013-08-17T09:33:11Z</time>
      </trkpt>
      <trkpt lat="45.81503" lon="6.22976">
        <ele>447.9</ele>
        <time>2013-08-17T09:33:12Z</time>
      </trkpt>
      <trkpt lat="45.81495" lon="6.2298">
        <ele>447.9</ele>
        <time>2013-08-17T09:33:13Z</time>
      </trkpt>
      <trkpt lat="45.81489" lon="6.22983">
        <ele>447.9</ele>
        <time>2013-08-17T09:33:14Z</time>
      </trkpt>
      <trkpt lat="45.81481" lon="6.22987">
        <ele>447.8</ele>
        <time>2013-08-17T09:33:15Z</time>
      </trkpt>
      <trkpt lat="45.81475" lon="6.22993">
        <ele>447.7</ele>
        <time>2013-08-17T09:33:16Z</time>
      </trkpt>
      <trkpt lat="45.81468" lon="6.22998">
        <ele>447.4</ele>
        <time>2013-08-17T09:33:17Z</time>
      </trkpt>
      <trkpt lat="45.81462" lon="6.23004">
        <ele>447.2</ele>
        <time>2013-08-17T09:33:18Z</time>
      </trkpt>
      <trkpt lat="45.81457" lon="6.2301">
        <ele>447</ele>
        <time>2013-08-17T09:33:19Z</time>
      </trkpt>
      <trkpt lat="45.81451" lon="6.23018">
        <ele>447</ele>
        <time>2013-08-17T09:33:20Z</time>
      </trkpt>
      <trkpt lat="45.81445" lon="6.23024">
        <ele>447</ele>
        <time>2013-08-17T09:33:21Z</time>
      </trkpt>
      <trkpt lat="45.8144" lon="6.2303">
        <ele>447</ele>
        <time>2013-08-17T09:33:22Z</time>
      </trkpt>
      <trkpt lat="45.81434" lon="6.23036">
        <ele>447</ele>
        <time>2013-08-17T09:33:23Z</time>
      </trkpt>
      <trkpt lat="45.81428" lon="6.23041">
        <ele>447</ele>
        <time>2013-08-17T09:33:24Z</time>
      </trkpt>
      <trkpt lat="45.81421" lon="6.23047">
        <ele>448.8</ele>
        <time>2013-08-17T09:33:25Z</time>
      </trkpt>
      <trkpt lat="45.81416" lon="6.23052">
        <ele>450.6</ele>
        <time>2013-08-17T09:33:26Z</time>
      </trkpt>
      <trkpt lat="45.8141" lon="6.23057">
        <ele>452.5</ele>
        <time>2013-08-17T09:33:27Z</time>
      </trkpt>
      <trkpt lat="45.81404" lon="6.23062">
        <ele>454.2</ele>
        <time>2013-08-17T09:33:28Z</time>
      </trkpt>
      <trkpt lat="45.81398" lon="6.23066">
        <ele>455.9</ele>
        <time>2013-08-17T09:33:29Z</time>
      </trkpt>
      <trkpt lat="45.81392" lon="6.2307">
        <ele>457.2</ele>
        <time>2013-08-17T09:33:30Z</time>
      </trkpt>
      <trkpt lat="45.81386" lon="6.23073">
        <ele>458.2</ele>
        <time>2013-08-17T09:33:31Z</time>
      </trkpt>
      <trkpt lat="45.81379" lon="6.23075">
        <ele>458.9</ele>
        <time>2013-08-17T09:33:32Z</time>
      </trkpt>
      <trkpt lat="45.81373" lon="6.23075">
        <ele>458.9</ele>
        <time>2013-08-17T09:33:33Z</time>
      </trkpt>
      <trkpt lat="45.81368" lon="6.23074">
        <ele>458.6</ele>
        <time>2013-08-17T09:33:34Z</time>
      </trkpt>
      <trkpt lat="45.81362" lon="6.23073">
        <ele>458.1</ele>
        <time>2013-08-17T09:33:35Z</time>
      </trkpt>
      <trkpt lat="45.81356" lon="6.2307">
        <ele>457</ele>
        <time>2013-08-17T09:33:36Z</time>
      </trkpt>
      <trkpt lat="45.8135" lon="6.23068">
        <ele>456.2</ele>
        <time>2013-08-17T09:33:37Z</time>
      </trkpt>
      <trkpt lat="45.81346" lon="6.23065">
        <ele>455.1</ele>
        <time>2013-08-17T09:33:38Z</time>
      </trkpt>
      <trkpt lat="45.81341" lon="6.23062">
        <ele>453.9</ele>
        <time>2013-08-17T09:33:39Z</time>
      </trkpt>
      <trkpt lat="45.81335" lon="6.2306">
        <ele>453.3</ele>
        <time>2013-08-17T09:33:40Z</time>
      </trkpt>
      <trkpt lat="45.81329" lon="6.2306">
        <ele>453.3</ele>
        <time>2013-08-17T09:33:41Z</time>
      </trkpt>
      <trkpt lat="45.81323" lon="6.23061">
        <ele>453.4</ele>
        <time>2013-08-17T09:33:42Z</time>
      </trkpt>
      <trkpt lat="45.81318" lon="6.23061">
        <ele>453.5</ele>
        <time>2013-08-17T09:33:43Z</time>
      </trkpt>
      <trkpt lat="45.81309" lon="6.23062">
        <ele>453.9</ele>
        <time>2013-08-17T09:33:44Z</time>
      </trkpt>
      <trkpt lat="45.81304" lon="6.23063">
        <ele>454.1</ele>
        <time>2013-08-17T09:33:45Z</time>
      </trkpt>
      <trkpt lat="45.81298" lon="6.23064">
        <ele>454.2</ele>
        <time>2013-08-17T09:33:46Z</time>
      </trkpt>
      <trkpt lat="45.81291" lon="6.23065">
        <ele>454.5</ele>
        <time>2013-08-17T09:33:47Z</time>
      </trkpt>
      <trkpt lat="45.81284" lon="6.23066">
        <ele>454.1</ele>
        <time>2013-08-17T09:33:48Z</time>
      </trkpt>
      <trkpt lat="45.81277" lon="6.23066">
        <ele>453.6</ele>
        <time>2013-08-17T09:33:49Z</time>
      </trkpt>
      <trkpt lat="45.81269" lon="6.23067">
        <ele>453.1</ele>
        <time>2013-08-17T09:33:50Z</time>
      </trkpt>
      <trkpt lat="45.81263" lon="6.23069">
        <ele>452.7</ele>
        <time>2013-08-17T09:33:51Z</time>
      </trkpt>
      <trkpt lat="45.81257" lon="6.2307">
        <ele>452.2</ele>
        <time>2013-08-17T09:33:52Z</time>
      </trkpt>
      <trkpt lat="45.81251" lon="6.23072">
        <ele>452</ele>
        <time>2013-08-17T09:33:53Z</time>
      </trkpt>
      <trkpt lat="45.81245" lon="6.23076">
        <ele>451.9</ele>
        <time>2013-08-17T09:33:54Z</time>
      </trkpt>
      <trkpt lat="45.81237" lon="6.23079">
        <ele>451.2</ele>
        <time>2013-08-17T09:33:55Z</time>
      </trkpt>
      <trkpt lat="45.81232" lon="6.23082">
        <ele>450.6</ele>
        <time>2013-08-17T09:33:56Z</time>
      </trkpt>
      <trkpt lat="45.81225" lon="6.23081">
        <ele>449.6</ele>
        <time>2013-08-17T09:33:57Z</time>
      </trkpt>
      <trkpt lat="45.8122" lon="6.2308">
        <ele>448.7</ele>
        <time>2013-08-17T09:33:58Z</time>
      </trkpt>
      <trkpt lat="45.81211" lon="6.23081">
        <ele>447.4</ele>
        <time>2013-08-17T09:33:59Z</time>
      </trkpt>
      <trkpt lat="45.81205" lon="6.23081">
        <ele>447</ele>
        <time>2013-08-17T09:34:00Z</time>
      </trkpt>
      <trkpt lat="45.81194" lon="6.23084">
        <ele>447</ele>
        <time>2013-08-17T09:34:01Z</time>
      </trkpt>
      <trkpt lat="45.81186" lon="6.23088">
        <ele>447</ele>
        <time>2013-08-17T09:34:02Z</time>
      </trkpt>
      <trkpt lat="45.81178" lon="6.23094">
        <ele>447</ele>
        <time>2013-08-17T09:34:03Z</time>
      </trkpt>
      <trkpt lat="45.8117" lon="6.23098">
        <ele>447</ele>
        <time>2013-08-17T09:34:04Z</time>
      </trkpt>
      <trkpt lat="45.81163" lon="6.23103">
        <ele>447</ele>
        <time>2013-08-17T09:34:05Z</time>
      </trkpt>
      <trkpt lat="45.81155" lon="6.23107">
        <ele>447</ele>
        <time>2013-08-17T09:34:06Z</time>
      </trkpt>
      <trkpt lat="45.81147" lon="6.2311">
        <ele>447</ele>
        <time>2013-08-17T09:34:07Z</time>
      </trkpt>
      <trkpt lat="45.81138" lon="6.23113">
        <ele>447</ele>
        <time>2013-08-17T09:34:08Z</time>
      </trkpt>
      <trkpt lat="45.81129" lon="6.23115">
        <ele>447</ele>
        <time>2013-08-17T09:34:09Z</time>
      </trkpt>
      <trkpt lat="45.8112" lon="6.23116">
        <ele>447</ele>
        <time>2013-08-17T09:34:10Z</time>
      </trkpt>
      <trkpt lat="45.81111" lon="6.23119">
        <ele>447</ele>
        <time>2013-08-17T09:34:11Z</time>
      </trkpt>
      <trkpt lat="45.81103" lon="6.23121">
        <ele>447</ele>
        <time>2013-08-17T09:34:12Z</time>
      </trkpt>
      <trkpt lat="45.81093" lon="6.23122">
        <ele>447</ele>
        <time>2013-08-17T09:34:13Z</time>
      </trkpt>
      <trkpt lat="45.81084" lon="6.23123">
        <ele>447</ele>
        <time>2013-08-17T09:34:14Z</time>
      </trkpt>
      <trkpt lat="45.81076" lon="6.23125">
        <ele>447</ele>
        <time>2013-08-17T09:34:15Z</time>
      </trkpt>
      <trkpt lat="45.81066" lon="6.23125">
        <ele>447</ele>
        <time>2013-08-17T09:34:16Z</time>
      </trkpt>
      <trkpt lat="45.81058" lon="6.23128">
        <ele>448</ele>
        <time>2013-08-17T09:34:17Z</time>
      </trkpt>
      <trkpt lat="45.8105" lon="6.23132">
        <ele>449.1</ele>
        <time>2013-08-17T09:34:18Z</time>
      </trkpt>
      <trkpt lat="45.81041" lon="6.23135">
        <ele>449.7</ele>
        <time>2013-08-17T09:34:19Z</time>
      </trkpt>
      <trkpt lat="45.81032" lon="6.23138">
        <ele>450.2</ele>
        <time>2013-08-17T09:34:20Z</time>
      </trkpt>
      <trkpt lat="45.81024" lon="6.23141">
        <ele>450.5</ele>
        <time>2013-08-17T09:34:21Z</time>
      </trkpt>
      <trkpt lat="45.81015" lon="6.23143">
        <ele>450.6</ele>
        <time>2013-08-17T09:34:22Z</time>
      </trkpt>
      <trkpt lat="45.81007" lon="6.23147">
        <ele>450.7</ele>
        <time>2013-08-17T09:34:23Z</time>
      </trkpt>
      <trkpt lat="45.80999" lon="6.23151">
        <ele>450.6</ele>
        <time>2013-08-17T09:34:24Z</time>
      </trkpt>
      <trkpt lat="45.8099" lon="6.23154">
        <ele>450.1</ele>
        <time>2013-08-17T09:34:25Z</time>
      </trkpt>
      <trkpt lat="45.80981" lon="6.23157">
        <ele>449.4</ele>
        <time>2013-08-17T09:34:26Z</time>
      </trkpt>
      <trkpt lat="45.80972" lon="6.23161">
        <ele>448.7</ele>
        <time>2013-08-17T09:34:27Z</time>
      </trkpt>
      <trkpt lat="45.80965" lon="6.23165">
        <ele>447.9</ele>
        <time>2013-08-17T09:34:28Z</time>
      </trkpt>
      <trkpt lat="45.80955" lon="6.23169">
        <ele>447</ele>
        <time>2013-08-17T09:34:29Z</time>
      </trkpt>
      <trkpt lat="45.80947" lon="6.23169">
        <ele>447</ele>
        <time>2013-08-17T09:34:30Z</time>
      </trkpt>
      <trkpt lat="45.80939" lon="6.23169">
        <ele>447</ele>
        <time>2013-08-17T09:34:31Z</time>
      </trkpt>
      <trkpt lat="45.80932" lon="6.23169">
        <ele>447</ele>
        <time>2013-08-17T09:34:32Z</time>
      </trkpt>
      <trkpt lat="45.80925" lon="6.23167">
        <ele>447</ele>
        <time>2013-08-17T09:34:33Z</time>
      </trkpt>
      <trkpt lat="45.8092" lon="6.23166">
        <ele>447</ele>
        <time>2013-08-17T09:34:34Z</time>
      </trkpt>
      <trkpt lat="45.80911" lon="6.23164">
        <ele>447</ele>
        <time>2013-08-17T09:34:35Z</time>
      </trkpt>
      <trkpt lat="45.80901" lon="6.23163">
        <ele>447</ele>
        <time>2013-08-17T09:34:36Z</time>
      </trkpt>
      <trkpt lat="45.80894" lon="6.23163">
        <ele>447</ele>
        <time>2013-08-17T09:34:37Z</time>
      </trkpt>
      <trkpt lat="45.80883" lon="6.23162">
        <ele>447</ele>
        <time>2013-08-17T09:34:38Z</time>
      </trkpt>
      <trkpt lat="45.80878" lon="6.23163">
        <ele>447</ele>
        <time>2013-08-17T09:34:39Z</time>
      </trkpt>
      <trkpt lat="45.80872" lon="6.23165">
        <ele>447</ele>
        <time>2013-08-17T09:34:40Z</time>
      </trkpt>
      <trkpt lat="45.80865" lon="6.23167">
        <ele>447</ele>
        <time>2013-08-17T09:34:41Z</time>
      </trkpt>
      <trkpt lat="45.80854" lon="6.23169">
        <ele>447</ele>
        <time>2013-08-17T09:34:42Z</time>
      </trkpt>
      <trkpt lat="45.80846" lon="6.23173">
        <ele>447</ele>
        <time>2013-08-17T09:34:43Z</time>
      </trkpt>
      <trkpt lat="45.80839" lon="6.23178">
        <ele>447</ele>
        <time>2013-08-17T09:34:44Z</time>
      </trkpt>
      <trkpt lat="45.80829" lon="6.23183">
        <ele>447</ele>
        <time>2013-08-17T09:34:45Z</time>
      </trkpt>
      <trkpt lat="45.80823" lon="6.23186">
        <ele>447</ele>
        <time>2013-08-17T09:34:46Z</time>
      </trkpt>
      <trkpt lat="45.80815" lon="6.23189">
        <ele>447</ele>
        <time>2013-08-17T09:34:47Z</time>
      </trkpt>
      <trkpt lat="45.80808" lon="6.23192">
        <ele>447</ele>
        <time>2013-08-17T09:34:48Z</time>
      </trkpt>
      <trkpt lat="45.80799" lon="6.23194">
        <ele>447</ele>
        <time>2013-08-17T09:34:49Z</time>
      </trkpt>
      <trkpt lat="45.8079" lon="6.23197">
        <ele>447</ele>
        <time>2013-08-17T09:34:50Z</time>
      </trkpt>
      <trkpt lat="45.80783" lon="6.23199">
        <ele>447</ele>
        <time>2013-08-17T09:34:51Z</time>
      </trkpt>
      <trkpt lat="45.80775" lon="6.23199">
        <ele>447</ele>
        <time>2013-08-17T09:34:52Z</time>
      </trkpt>
      <trkpt lat="45.80767" lon="6.232">
        <ele>447</ele>
        <time>2013-08-17T09:34:53Z</time>
      </trkpt>
      <trkpt lat="45.80759" lon="6.23202">
        <ele>447</ele>
        <time>2013-08-17T09:34:54Z</time>
      </trkpt>
      <trkpt lat="45.80751" lon="6.23204">
        <ele>447</ele>
        <time>2013-08-17T09:34:55Z</time>
      </trkpt>
      <trkpt lat="45.80743" lon="6.23208">
        <ele>447</ele>
        <time>2013-08-17T09:34:56Z</time>
      </trkpt>
      <trkpt lat="45.80734" lon="6.23212">
        <ele>448.2</ele>
        <time>2013-08-17T09:34:57Z</time>
      </trkpt>
      <trkpt lat="45.80728" lon="6.23214">
        <ele>448.8</ele>
        <time>2013-08-17T09:34:58Z</time>
      </trkpt>
      <trkpt lat="45.8072" lon="6.23215">
        <ele>449.1</ele>
        <time>2013-08-17T09:34:59Z</time>
      </trkpt>
      <trkpt lat="45.80713" lon="6.23214">
        <ele>448.8</ele>
        <time>2013-08-17T09:35:00Z</time>
      </trkpt>
      <trkpt lat="45.80705" lon="6.23212">
        <ele>448.1</ele>
        <time>2013-08-17T09:35:01Z</time>
      </trkpt>
      <trkpt lat="45.80697" lon="6.23209">
        <ele>447.1</ele>
        <time>2013-08-17T09:35:02Z</time>
      </trkpt>
      <trkpt lat="45.8069" lon="6.23206">
        <ele>447</ele>
        <time>2013-08-17T09:35:03Z</time>
      </trkpt>
      <trkpt lat="45.80683" lon="6.23204">
        <ele>447</ele>
        <time>2013-08-17T09:35:04Z</time>
      </trkpt>
      <trkpt lat="45.80676" lon="6.23202">
        <ele>447</ele>
        <time>2013-08-17T09:35:05Z</time>
      </trkpt>
      <trkpt lat="45.80667" lon="6.23201">
        <ele>447</ele>
        <time>2013-08-17T09:35:06Z</time>
      </trkpt>
      <trkpt lat="45.80659" lon="6.23202">
        <ele>447</ele>
        <time>2013-08-17T09:35:07Z</time>
      </trkpt>
      <trkpt lat="45.8065" lon="6.23204">
        <ele>447</ele>
        <time>2013-08-17T09:35:08Z</time>
      </trkpt>
      <trkpt lat="45.80643" lon="6.23206">
        <ele>447</ele>
        <time>2013-08-17T09:35:09Z</time>
      </trkpt>
      <trkpt lat="45.80635" lon="6.2321">
        <ele>447.4</ele>
        <time>2013-08-17T09:35:10Z</time>
      </trkpt>
      <trkpt lat="45.80629" lon="6.23212">
        <ele>448.3</ele>
        <time>2013-08-17T09:35:11Z</time>
      </trkpt>
      <trkpt lat="45.80623" lon="6.23215">
        <ele>449.4</ele>
        <time>2013-08-17T09:35:12Z</time>
      </trkpt>
      <trkpt lat="45.80616" lon="6.23218">
        <ele>451.1</ele>
        <time>2013-08-17T09:35:13Z</time>
      </trkpt>
      <trkpt lat="45.8061" lon="6.2322">
        <ele>452.5</ele>
        <time>2013-08-17T09:35:14Z</time>
      </trkpt>
      <trkpt lat="45.80603" lon="6.23223">
        <ele>454</ele>
        <time>2013-08-17T09:35:15Z</time>
      </trkpt>
      <trkpt lat="45.80598" lon="6.23223">
        <ele>454.8</ele>
        <time>2013-08-17T09:35:16Z</time>
      </trkpt>
      <trkpt lat="45.80592" lon="6.23224">
        <ele>455.6</ele>
        <time>2013-08-17T09:35:17Z</time>
      </trkpt>
      <trkpt lat="45.80584" lon="6.2322">
        <ele>455.4</ele>
        <time>2013-08-17T09:35:18Z</time>
      </trkpt>
      <trkpt lat="45.8058" lon="6.23219">
        <ele>455.6</ele>
        <time>2013-08-17T09:35:19Z</time>
      </trkpt>
      <trkpt lat="45.80574" lon="6.23213">
        <ele>454.5</ele>
        <time>2013-08-17T09:35:20Z</time>
      </trkpt>
      <trkpt lat="45.80566" lon="6.23203">
        <ele>453.6</ele>
        <time>2013-08-17T09:35:21Z</time>
      </trkpt>
      <trkpt lat="45.8056" lon="6.23199">
        <ele>454</ele>
        <time>2013-08-17T09:35:22Z</time>
      </trkpt>
      <trkpt lat="45.80552" lon="6.23192">
        <ele>454.1</ele>
        <time>2013-08-17T09:35:23Z</time>
      </trkpt>
      <trkpt lat="45.80545" lon="6.23187">
        <ele>454.1</ele>
        <time>2013-08-17T09:35:24Z</time>
      </trkpt>
      <trkpt lat="45.80538" lon="6.23181">
        <ele>453.8</ele>
        <time>2013-08-17T09:35:25Z</time>
      </trkpt>
      <trkpt lat="45.80532" lon="6.23176">
        <ele>453.5</ele>
        <time>2013-08-17T09:35:26Z</time>
      </trkpt>
      <trkpt lat="45.80527" lon="6.23175">
        <ele>453.5</ele>
        <time>2013-08-17T09:35:27Z</time>
      </trkpt>
      <trkpt lat="45.80519" lon="6.23173">
        <ele>453.5</ele>
        <time>2013-08-17T09:35:28Z</time>
      </trkpt>
      <trkpt lat="45.80512" lon="6.23171">
        <ele>453.6</ele>
        <time>2013-08-17T09:35:29Z</time>
      </trkpt>
      <trkpt lat="45.80506" lon="6.2317">
        <ele>453.6</ele>
        <time>2013-08-17T09:35:30Z</time>
      </trkpt>
      <trkpt lat="45.80499" lon="6.23167">
        <ele>453.6</ele>
        <time>2013-08-17T09:35:31Z</time>
      </trkpt>
      <trkpt lat="45.80493" lon="6.23165">
        <ele>453.6</ele>
        <time>2013-08-17T09:35:32Z</time>
      </trkpt>
      <trkpt lat="45.80483" lon="6.2316">
        <ele>453.3</ele>
        <time>2013-08-17T09:35:33Z</time>
      </trkpt>
      <trkpt lat="45.80476" lon="6.23155">
        <ele>453</ele>
        <time>2013-08-17T09:35:34Z</time>
      </trkpt>
      <trkpt lat="45.80468" lon="6.2315">
        <ele>452.6</ele>
        <time>2013-08-17T09:35:35Z</time>
      </trkpt>
      <trkpt lat="45.80462" lon="6.23145">
        <ele>452.3</ele>
        <time>2013-08-17T09:35:36Z</time>
      </trkpt>
      <trkpt lat="45.80455" lon="6.2314">
        <ele>452.5</ele>
        <time>2013-08-17T09:35:37Z</time>
      </trkpt>
      <trkpt lat="45.8045" lon="6.23136">
        <ele>453.1</ele>
        <time>2013-08-17T09:35:38Z</time>
      </trkpt>
      <trkpt lat="45.80443" lon="6.23131">
        <ele>453.8</ele>
        <time>2013-08-17T09:35:39Z</time>
      </trkpt>
      <trkpt lat="45.80438" lon="6.23126">
        <ele>454.4</ele>
        <time>2013-08-17T09:35:40Z</time>
      </trkpt>
      <trkpt lat="45.80431" lon="6.23121">
        <ele>455.1</ele>
        <time>2013-08-17T09:35:41Z</time>
      </trkpt>
      <trkpt lat="45.80425" lon="6.23115">
        <ele>455.6</ele>
        <time>2013-08-17T09:35:42Z</time>
      </trkpt>
      <trkpt lat="45.8042" lon="6.2311">
        <ele>455.9</ele>
        <time>2013-08-17T09:35:43Z</time>
      </trkpt>
      <trkpt lat="45.80413" lon="6.23101">
        <ele>455.8</ele>
        <time>2013-08-17T09:35:44Z</time>
      </trkpt>
      <trkpt lat="45.80407" lon="6.23096">
        <ele>455.7</ele>
        <time>2013-08-17T09:35:45Z</time>
      </trkpt>
      <trkpt lat="45.80402" lon="6.23092">
        <ele>455.7</ele>
        <time>2013-08-17T09:35:46Z</time>
      </trkpt>
      <trkpt lat="45.80397" lon="6.23086">
        <ele>455.2</ele>
        <time>2013-08-17T09:35:47Z</time>
      </trkpt>
      <trkpt lat="45.80392" lon="6.2308">
        <ele>454.7</ele>
        <time>2013-08-17T09:35:48Z</time>
      </trkpt>
      <trkpt lat="45.80385" lon="6.23074">
        <ele>453.9</ele>
        <time>2013-08-17T09:35:49Z</time>
      </trkpt>
      <trkpt lat="45.80379" lon="6.23068">
        <ele>453</ele>
        <time>2013-08-17T09:35:50Z</time>
      </trkpt>
      <trkpt lat="45.80373" lon="6.23062">
        <ele>452.4</ele>
        <time>2013-08-17T09:35:51Z</time>
      </trkpt>
      <trkpt lat="45.80366" lon="6.23057">
        <ele>452.4</ele>
        <time>2013-08-17T09:35:52Z</time>
      </trkpt>
      <trkpt lat="45.8036" lon="6.23052">
        <ele>452.4</ele>
        <time>2013-08-17T09:35:53Z</time>
      </trkpt>
      <trkpt lat="45.80355" lon="6.23047">
        <ele>452.2</ele>
        <time>2013-08-17T09:35:54Z</time>
      </trkpt>
      <trkpt lat="45.8035" lon="6.23041">
        <ele>452</ele>
        <time>2013-08-17T09:35:55Z</time>
      </trkpt>
      <trkpt lat="45.80345" lon="6.23036">
        <ele>452.6</ele>
        <time>2013-08-17T09:35:56Z</time>
      </trkpt>
      <trkpt lat="45.8034" lon="6.2303">
        <ele>453.2</ele>
        <time>2013-08-17T09:35:57Z</time>
      </trkpt>
      <trkpt lat="45.80335" lon="6.23026">
        <ele>453.7</ele>
        <time>2013-08-17T09:35:58Z</time>
      </trkpt>
      <trkpt lat="45.80328" lon="6.23021">
        <ele>454.2</ele>
        <time>2013-08-17T09:35:59Z</time>
      </trkpt>
      <trkpt lat="45.8032" lon="6.23015">
        <ele>454.6</ele>
        <time>2013-08-17T09:36:00Z</time>
      </trkpt>
      <trkpt lat="45.80314" lon="6.23012">
        <ele>455</ele>
        <time>2013-08-17T09:36:01Z</time>
      </trkpt>
      <trkpt lat="45.80309" lon="6.23009">
        <ele>455.2</ele>
        <time>2013-08-17T09:36:02Z</time>
      </trkpt>
      <trkpt lat="45.80303" lon="6.23005">
        <ele>455.2</ele>
        <time>2013-08-17T09:36:03Z</time>
      </trkpt>
      <trkpt lat="45.803" lon="6.23001">
        <ele>454.8</ele>
        <time>2013-08-17T09:36:04Z</time>
      </trkpt>
      <trkpt lat="45.80294" lon="6.22995">
        <ele>454.3</ele>
        <time>2013-08-17T09:36:05Z</time>
      </trkpt>
      <trkpt lat="45.80289" lon="6.22992">
        <ele>453.9</ele>
        <time>2013-08-17T09:36:06Z</time>
      </trkpt>
      <trkpt lat="45.80284" lon="6.22988">
        <ele>453.1</ele>
        <time>2013-08-17T09:36:07Z</time>
      </trkpt>
      <trkpt lat="45.80277" lon="6.22984">
        <ele>452.2</ele>
        <time>2013-08-17T09:36:08Z</time>
      </trkpt>
      <trkpt lat="45.8027" lon="6.2298">
        <ele>451.3</ele>
        <time>2013-08-17T09:36:09Z</time>
      </trkpt>
      <trkpt lat="45.80265" lon="6.22976">
        <ele>450.5</ele>
        <time>2013-08-17T09:36:10Z</time>
      </trkpt>
      <trkpt lat="45.80258" lon="6.22972">
        <ele>449.5</ele>
        <time>2013-08-17T09:36:11Z</time>
      </trkpt>
      <trkpt lat="45.80251" lon="6.22968">
        <ele>448.6</ele>
        <time>2013-08-17T09:36:12Z</time>
      </trkpt>
      <trkpt lat="45.80244" lon="6.22964">
        <ele>447.7</ele>
        <time>2013-08-17T09:36:13Z</time>
      </trkpt>
      <trkpt lat="45.80237" lon="6.2296">
        <ele>446.7</ele>
        <time>2013-08-17T09:36:14Z</time>
      </trkpt>
      <trkpt lat="45.80229" lon="6.22956">
        <ele>446.3</ele>
        <time>2013-08-17T09:36:15Z</time>
      </trkpt>
      <trkpt lat="45.80222" lon="6.22952">
        <ele>446.2</ele>
        <time>2013-08-17T09:36:16Z</time>
      </trkpt>
      <trkpt lat="45.80216" lon="6.22949">
        <ele>446.2</ele>
        <time>2013-08-17T09:36:17Z</time>
      </trkpt>
      <trkpt lat="45.8021" lon="6.22945">
        <ele>446.2</ele>
        <time>2013-08-17T09:36:18Z</time>
      </trkpt>
      <trkpt lat="45.80204" lon="6.22943">
        <ele>446.3</ele>
        <time>2013-08-17T09:36:19Z</time>
      </trkpt>
      <trkpt lat="45.80198" lon="6.22939">
        <ele>446.5</ele>
        <time>2013-08-17T09:36:20Z</time>
      </trkpt>
      <trkpt lat="45.80189" lon="6.22933">
        <ele>446.8</ele>
        <time>2013-08-17T09:36:21Z</time>
      </trkpt>
      <trkpt lat="45.80182" lon="6.22929">
        <ele>447</ele>
        <time>2013-08-17T09:36:22Z</time>
      </trkpt>
      <trkpt lat="45.80176" lon="6.22926">
        <ele>447.1</ele>
        <time>2013-08-17T09:36:23Z</time>
      </trkpt>
      <trkpt lat="45.80169" lon="6.22922">
        <ele>447.2</ele>
        <time>2013-08-17T09:36:24Z</time>
      </trkpt>
      <trkpt lat="45.80164" lon="6.2292">
        <ele>447.3</ele>
        <time>2013-08-17T09:36:25Z</time>
      </trkpt>
      <trkpt lat="45.80157" lon="6.22916">
        <ele>447.4</ele>
        <time>2013-08-17T09:36:26Z</time>
      </trkpt>
      <trkpt lat="45.80151" lon="6.22914">
        <ele>447.5</ele>
        <time>2013-08-17T09:36:27Z</time>
      </trkpt>
      <trkpt lat="45.80145" lon="6.22912">
        <ele>447.6</ele>
        <time>2013-08-17T09:36:28Z</time>
      </trkpt>
      <trkpt lat="45.80139" lon="6.2291">
        <ele>447.6</ele>
        <time>2013-08-17T09:36:29Z</time>
      </trkpt>
      <trkpt lat="45.80135" lon="6.22909">
        <ele>447.7</ele>
        <time>2013-08-17T09:36:30Z</time>
      </trkpt>
      <trkpt lat="45.8013" lon="6.22909">
        <ele>447.7</ele>
        <time>2013-08-17T09:36:31Z</time>
      </trkpt>
      <trkpt lat="45.80126" lon="6.22909">
        <ele>447.8</ele>
        <time>2013-08-17T09:36:32Z</time>
      </trkpt>
      <trkpt lat="45.80119" lon="6.22907">
        <ele>447.8</ele>
        <time>2013-08-17T09:37:23Z</time>
      </trkpt>
      <trkpt lat="45.80116" lon="6.22907">
        <ele>447.9</ele>
        <time>2013-08-17T09:37:37Z</time>
      </trkpt>
      <trkpt lat="45.80113" lon="6.22907">
        <ele>447.9</ele>
        <time>2013-08-17T09:37:39Z</time>
      </trkpt>
      <trkpt lat="45.80106" lon="6.22907">
        <ele>447.9</ele>
        <time>2013-08-17T09:37:41Z</time>
      </trkpt>
      <trkpt lat="45.80096" lon="6.22907">
        <ele>448</ele>
        <time>2013-08-17T09:37:42Z</time>
      </trkpt>
      <trkpt lat="45.80092" lon="6.22908">
        <ele>448.1</ele>
        <time>2013-08-17T09:37:43Z</time>
      </trkpt>
      <trkpt lat="45.80085" lon="6.22908">
        <ele>448.2</ele>
        <time>2013-08-17T09:37:44Z</time>
      </trkpt>
      <trkpt lat="45.80078" lon="6.22909">
        <ele>448.3</ele>
        <time>2013-08-17T09:37:45Z</time>
      </trkpt>
      <trkpt lat="45.8007" lon="6.2291">
        <ele>448.4</ele>
        <time>2013-08-17T09:37:46Z</time>
      </trkpt>
      <trkpt lat="45.8006" lon="6.22911">
        <ele>448.5</ele>
        <time>2013-08-17T09:37:47Z</time>
      </trkpt>
      <trkpt lat="45.80052" lon="6.22913">
        <ele>448.7</ele>
        <time>2013-08-17T09:37:48Z</time>
      </trkpt>
      <trkpt lat="45.80043" lon="6.22914">
        <ele>448.9</ele>
        <time>2013-08-17T09:37:49Z</time>
      </trkpt>
      <trkpt lat="45.80032" lon="6.22917">
        <ele>448.8</ele>
        <time>2013-08-17T09:37:50Z</time>
      </trkpt>
      <trkpt lat="45.80023" lon="6.22919">
        <ele>448.7</ele>
        <time>2013-08-17T09:37:51Z</time>
      </trkpt>
      <trkpt lat="45.80014" lon="6.22925">
        <ele>448.6</ele>
        <time>2013-08-17T09:37:52Z</time>
      </trkpt>
      <trkpt lat="45.80004" lon="6.22932">
        <ele>448.5</ele>
        <time>2013-08-17T09:37:53Z</time>
      </trkpt>
      <trkpt lat="45.79998" lon="6.22935">
        <ele>448.4</ele>
        <time>2013-08-17T09:37:54Z</time>
      </trkpt>
      <trkpt lat="45.79989" lon="6.22948">
        <ele>448.3</ele>
        <time>2013-08-17T09:37:55Z</time>
      </trkpt>
      <trkpt lat="45.79983" lon="6.22955">
        <ele>448.2</ele>
        <time>2013-08-17T09:37:56Z</time>
      </trkpt>
      <trkpt lat="45.79976" lon="6.22963">
        <ele>448.1</ele>
        <time>2013-08-17T09:37:57Z</time>
      </trkpt>
      <trkpt lat="45.7997" lon="6.22972">
        <ele>448.2</ele>
        <time>2013-08-17T09:37:58Z</time>
      </trkpt>
      <trkpt lat="45.79961" lon="6.22981">
        <ele>448.2</ele>
        <time>2013-08-17T09:37:59Z</time>
      </trkpt>
      <trkpt lat="45.79953" lon="6.22989">
        <ele>448.6</ele>
        <time>2013-08-17T09:38:00Z</time>
      </trkpt>
      <trkpt lat="45.79947" lon="6.22998">
        <ele>449.1</ele>
        <time>2013-08-17T09:38:01Z</time>
      </trkpt>
      <trkpt lat="45.79939" lon="6.23005">
        <ele>449.4</ele>
        <time>2013-08-17T09:38:02Z</time>
      </trkpt>
      <trkpt lat="45.79932" lon="6.23015">
        <ele>449.7</ele>
        <time>2013-08-17T09:38:03Z</time>
      </trkpt>
      <trkpt lat="45.79925" lon="6.23024">
        <ele>449.9</ele>
        <time>2013-08-17T09:38:04Z</time>
      </trkpt>
      <trkpt lat="45.79914" lon="6.23042">
        <ele>449.9</ele>
        <time>2013-08-17T09:38:06Z</time>
      </trkpt>
      <trkpt lat="45.79907" lon="6.23051">
        <ele>450.2</ele>
        <time>2013-08-17T09:38:07Z</time>
      </trkpt>
      <trkpt lat="45.79899" lon="6.2306">
        <ele>450.5</ele>
        <time>2013-08-17T09:38:08Z</time>
      </trkpt>
      <trkpt lat="45.79892" lon="6.23068">
        <ele>450.6</ele>
        <time>2013-08-17T09:38:09Z</time>
      </trkpt>
      <trkpt lat="45.79886" lon="6.23076">
        <ele>450.7</ele>
        <time>2013-08-17T09:38:10Z</time>
      </trkpt>
      <trkpt lat="45.79881" lon="6.23083">
        <ele>450.8</ele>
        <time>2013-08-17T09:38:11Z</time>
      </trkpt>
      <trkpt lat="45.79874" lon="6.23091">
        <ele>450.8</ele>
        <time>2013-08-17T09:38:12Z</time>
      </trkpt>
      <trkpt lat="45.79869" lon="6.23097">
        <ele>451</ele>
        <time>2013-08-17T09:38:13Z</time>
      </trkpt>
      <trkpt lat="45.79859" lon="6.23105">
        <ele>451.2</ele>
        <time>2013-08-17T09:38:14Z</time>
      </trkpt>
      <trkpt lat="45.79852" lon="6.23111">
        <ele>451.4</ele>
        <time>2013-08-17T09:38:15Z</time>
      </trkpt>
      <trkpt lat="45.79846" lon="6.23117">
        <ele>451.5</ele>
        <time>2013-08-17T09:38:16Z</time>
      </trkpt>
      <trkpt lat="45.79837" lon="6.23123">
        <ele>451.5</ele>
        <time>2013-08-17T09:38:17Z</time>
      </trkpt>
      <trkpt lat="45.7983" lon="6.23127">
        <ele>451.9</ele>
        <time>2013-08-17T09:38:18Z</time>
      </trkpt>
      <trkpt lat="45.79822" lon="6.23131">
        <ele>452.5</ele>
        <time>2013-08-17T09:38:19Z</time>
      </trkpt>
      <trkpt lat="45.79815" lon="6.23135">
        <ele>453</ele>
        <time>2013-08-17T09:38:20Z</time>
      </trkpt>
      <trkpt lat="45.79807" lon="6.23137">
        <ele>453.2</ele>
        <time>2013-08-17T09:38:21Z</time>
      </trkpt>
      <trkpt lat="45.79799" lon="6.2314">
        <ele>453.4</ele>
        <time>2013-08-17T09:38:22Z</time>
      </trkpt>
      <trkpt lat="45.79792" lon="6.23141">
        <ele>453.3</ele>
        <time>2013-08-17T09:38:23Z</time>
      </trkpt>
      <trkpt lat="45.79783" lon="6.23142">
        <ele>453.3</ele>
        <time>2013-08-17T09:38:24Z</time>
      </trkpt>
      <trkpt lat="45.79776" lon="6.23144">
        <ele>453.6</ele>
        <time>2013-08-17T09:38:25Z</time>
      </trkpt>
      <trkpt lat="45.79771" lon="6.23146">
        <ele>453.8</ele>
        <time>2013-08-17T09:38:26Z</time>
      </trkpt>
      <trkpt lat="45.79761" lon="6.23148">
        <ele>453.8</ele>
        <time>2013-08-17T09:38:27Z</time>
      </trkpt>
      <trkpt lat="45.79754" lon="6.2315">
        <ele>454</ele>
        <time>2013-08-17T09:38:28Z</time>
      </trkpt>
      <trkpt lat="45.79746" lon="6.23152">
        <ele>454.2</ele>
        <time>2013-08-17T09:38:29Z</time>
      </trkpt>
      <trkpt lat="45.79739" lon="6.23154">
        <ele>454.3</ele>
        <time>2013-08-17T09:38:30Z</time>
      </trkpt>
      <trkpt lat="45.79732" lon="6.23155">
        <ele>454.4</ele>
        <time>2013-08-17T09:38:31Z</time>
      </trkpt>
      <trkpt lat="45.79724" lon="6.23157">
        <ele>454.5</ele>
        <time>2013-08-17T09:38:32Z</time>
      </trkpt>
      <trkpt lat="45.79718" lon="6.23158">
        <ele>454.5</ele>
        <time>2013-08-17T09:38:33Z</time>
      </trkpt>
      <trkpt lat="45.79712" lon="6.23159">
        <ele>454.6</ele>
        <time>2013-08-17T09:38:34Z</time>
      </trkpt>
      <trkpt lat="45.79704" lon="6.2316">
        <ele>454.5</ele>
        <time>2013-08-17T09:38:35Z</time>
      </trkpt>
      <trkpt lat="45.79696" lon="6.23161">
        <ele>454.4</ele>
        <time>2013-08-17T09:38:36Z</time>
      </trkpt>
      <trkpt lat="45.79687" lon="6.23163">
        <ele>454.5</ele>
        <time>2013-08-17T09:38:37Z</time>
      </trkpt>
      <trkpt lat="45.7968" lon="6.23165">
        <ele>454.4</ele>
        <time>2013-08-17T09:38:38Z</time>
      </trkpt>
      <trkpt lat="45.79674" lon="6.23166">
        <ele>454.4</ele>
        <time>2013-08-17T09:38:39Z</time>
      </trkpt>
      <trkpt lat="45.79665" lon="6.23167">
        <ele>454.2</ele>
        <time>2013-08-17T09:38:40Z</time>
      </trkpt>
      <trkpt lat="45.79656" lon="6.23168">
        <ele>454.1</ele>
        <time>2013-08-17T09:38:41Z</time>
      </trkpt>
      <trkpt lat="45.79649" lon="6.23169">
        <ele>453.9</ele>
        <time>2013-08-17T09:38:42Z</time>
      </trkpt>
      <trkpt lat="45.7964" lon="6.23171">
        <ele>453.8</ele>
        <time>2013-08-17T09:38:43Z</time>
      </trkpt>
      <trkpt lat="45.79634" lon="6.23172">
        <ele>453.7</ele>
        <time>2013-08-17T09:38:44Z</time>
      </trkpt>
      <trkpt lat="45.79624" lon="6.23174">
        <ele>453.5</ele>
        <time>2013-08-17T09:38:45Z</time>
      </trkpt>
      <trkpt lat="45.79616" lon="6.23175">
        <ele>453.4</ele>
        <time>2013-08-17T09:38:46Z</time>
      </trkpt>
      <trkpt lat="45.79609" lon="6.23176">
        <ele>453.3</ele>
        <time>2013-08-17T09:38:47Z</time>
      </trkpt>
      <trkpt lat="45.79602" lon="6.23178">
        <ele>453.2</ele>
        <time>2013-08-17T09:38:48Z</time>
      </trkpt>
      <trkpt lat="45.79593" lon="6.2318">
        <ele>453.1</ele>
        <time>2013-08-17T09:38:49Z</time>
      </trkpt>
      <trkpt lat="45.79586" lon="6.23181">
        <ele>452.9</ele>
        <time>2013-08-17T09:38:50Z</time>
      </trkpt>
      <trkpt lat="45.79577" lon="6.23183">
        <ele>452.7</ele>
        <time>2013-08-17T09:38:51Z</time>
      </trkpt>
      <trkpt lat="45.7957" lon="6.23185">
        <ele>452.6</ele>
        <time>2013-08-17T09:38:52Z</time>
      </trkpt>
      <trkpt lat="45.79563" lon="6.23186">
        <ele>452.4</ele>
        <time>2013-08-17T09:38:53Z</time>
      </trkpt>
      <trkpt lat="45.79554" lon="6.23188">
        <ele>452.2</ele>
        <time>2013-08-17T09:38:54Z</time>
      </trkpt>
      <trkpt lat="45.79548" lon="6.23189">
        <ele>452</ele>
        <time>2013-08-17T09:38:55Z</time>
      </trkpt>
      <trkpt lat="45.7954" lon="6.2319">
        <ele>451.8</ele>
        <time>2013-08-17T09:38:56Z</time>
      </trkpt>
      <trkpt lat="45.79532" lon="6.2319">
        <ele>451.7</ele>
        <time>2013-08-17T09:38:57Z</time>
      </trkpt>
      <trkpt lat="45.79524" lon="6.23192">
        <ele>451.6</ele>
        <time>2013-08-17T09:38:58Z</time>
      </trkpt>
      <trkpt lat="45.79516" lon="6.23192">
        <ele>451.5</ele>
        <time>2013-08-17T09:38:59Z</time>
      </trkpt>
      <trkpt lat="45.79509" lon="6.23193">
        <ele>451.4</ele>
        <time>2013-08-17T09:39:00Z</time>
      </trkpt>
      <trkpt lat="45.79503" lon="6.23196">
        <ele>451.4</ele>
        <time>2013-08-17T09:39:01Z</time>
      </trkpt>
      <trkpt lat="45.79496" lon="6.23197">
        <ele>451.3</ele>
        <time>2013-08-17T09:39:02Z</time>
      </trkpt>
      <trkpt lat="45.79487" lon="6.232">
        <ele>451.2</ele>
        <time>2013-08-17T09:39:03Z</time>
      </trkpt>
      <trkpt lat="45.7948" lon="6.232">
        <ele>451.2</ele>
        <time>2013-08-17T09:39:04Z</time>
      </trkpt>
      <trkpt lat="45.79471" lon="6.23203">
        <ele>451.1</ele>
        <time>2013-08-17T09:39:05Z</time>
      </trkpt>
      <trkpt lat="45.79464" lon="6.23202">
        <ele>451</ele>
        <time>2013-08-17T09:39:06Z</time>
      </trkpt>
      <trkpt lat="45.79456" lon="6.23204">
        <ele>451</ele>
        <time>2013-08-17T09:39:07Z</time>
      </trkpt>
      <trkpt lat="45.79448" lon="6.23205">
        <ele>451.2</ele>
        <time>2013-08-17T09:39:08Z</time>
      </trkpt>
      <trkpt lat="45.79442" lon="6.23208">
        <ele>451.4</ele>
        <time>2013-08-17T09:39:09Z</time>
      </trkpt>
      <trkpt lat="45.79435" lon="6.2321">
        <ele>451.7</ele>
        <time>2013-08-17T09:39:10Z</time>
      </trkpt>
      <trkpt lat="45.79428" lon="6.23212">
        <ele>452</ele>
        <time>2013-08-17T09:39:11Z</time>
      </trkpt>
      <trkpt lat="45.7942" lon="6.23213">
        <ele>452.3</ele>
        <time>2013-08-17T09:39:12Z</time>
      </trkpt>
      <trkpt lat="45.79414" lon="6.23214">
        <ele>452.5</ele>
        <time>2013-08-17T09:39:13Z</time>
      </trkpt>
      <trkpt lat="45.79407" lon="6.23217">
        <ele>452.8</ele>
        <time>2013-08-17T09:39:14Z</time>
      </trkpt>
      <trkpt lat="45.794" lon="6.23218">
        <ele>453</ele>
        <time>2013-08-17T09:39:15Z</time>
      </trkpt>
      <trkpt lat="45.79393" lon="6.23221">
        <ele>453.2</ele>
        <time>2013-08-17T09:39:16Z</time>
      </trkpt>
      <trkpt lat="45.79387" lon="6.23223">
        <ele>453.4</ele>
        <time>2013-08-17T09:39:17Z</time>
      </trkpt>
      <trkpt lat="45.7938" lon="6.23225">
        <ele>453.6</ele>
        <time>2013-08-17T09:39:18Z</time>
      </trkpt>
      <trkpt lat="45.79373" lon="6.23225">
        <ele>453.6</ele>
        <time>2013-08-17T09:39:19Z</time>
      </trkpt>
      <trkpt lat="45.79365" lon="6.23226">
        <ele>453.7</ele>
        <time>2013-08-17T09:39:20Z</time>
      </trkpt>
      <trkpt lat="45.79358" lon="6.23226">
        <ele>453.7</ele>
        <time>2013-08-17T09:39:21Z</time>
      </trkpt>
      <trkpt lat="45.79349" lon="6.23225">
        <ele>453.8</ele>
        <time>2013-08-17T09:39:22Z</time>
      </trkpt>
      <trkpt lat="45.79342" lon="6.23226">
        <ele>453.9</ele>
        <time>2013-08-17T09:39:23Z</time>
      </trkpt>
      <trkpt lat="45.79337" lon="6.23226">
        <ele>453.9</ele>
        <time>2013-08-17T09:39:24Z</time>
      </trkpt>
      <trkpt lat="45.79329" lon="6.23228">
        <ele>454</ele>
        <time>2013-08-17T09:39:25Z</time>
      </trkpt>
      <trkpt lat="45.79323" lon="6.23229">
        <ele>454.1</ele>
        <time>2013-08-17T09:39:26Z</time>
      </trkpt>
      <trkpt lat="45.79312" lon="6.23229">
        <ele>454.1</ele>
        <time>2013-08-17T09:39:27Z</time>
      </trkpt>
      <trkpt lat="45.79305" lon="6.23228">
        <ele>454.1</ele>
        <time>2013-08-17T09:39:28Z</time>
      </trkpt>
      <trkpt lat="45.79295" lon="6.23224">
        <ele>454.2</ele>
        <time>2013-08-17T09:39:29Z</time>
      </trkpt>
      <trkpt lat="45.79288" lon="6.23223">
        <ele>454.2</ele>
        <time>2013-08-17T09:39:30Z</time>
      </trkpt>
      <trkpt lat="45.79281" lon="6.2322">
        <ele>454.3</ele>
        <time>2013-08-17T09:39:31Z</time>
      </trkpt>
      <trkpt lat="45.79277" lon="6.23219">
        <ele>454.4</ele>
        <time>2013-08-17T09:39:32Z</time>
      </trkpt>
      <trkpt lat="45.7927" lon="6.23217">
        <ele>454.5</ele>
        <time>2013-08-17T09:39:33Z</time>
      </trkpt>
      <trkpt lat="45.79263" lon="6.23215">
        <ele>454.5</ele>
        <time>2013-08-17T09:39:34Z</time>
      </trkpt>
      <trkpt lat="45.79256" lon="6.2321">
        <ele>454.5</ele>
        <time>2013-08-17T09:39:35Z</time>
      </trkpt>
      <trkpt lat="45.79248" lon="6.23204">
        <ele>454.5</ele>
        <time>2013-08-17T09:39:36Z</time>
      </trkpt>
      <trkpt lat="45.79241" lon="6.23199">
        <ele>454.6</ele>
        <time>2013-08-17T09:39:37Z</time>
      </trkpt>
      <trkpt lat="45.79235" lon="6.23195">
        <ele>454.7</ele>
        <time>2013-08-17T09:39:38Z</time>
      </trkpt>
      <trkpt lat="45.7923" lon="6.23191">
        <ele>454.8</ele>
        <time>2013-08-17T09:39:39Z</time>
      </trkpt>
      <trkpt lat="45.79225" lon="6.23185">
        <ele>454.9</ele>
        <time>2013-08-17T09:39:40Z</time>
      </trkpt>
      <trkpt lat="45.79218" lon="6.23178">
        <ele>455.1</ele>
        <time>2013-08-17T09:39:41Z</time>
      </trkpt>
      <trkpt lat="45.79211" lon="6.23173">
        <ele>455.3</ele>
        <time>2013-08-17T09:39:42Z</time>
      </trkpt>
      <trkpt lat="45.79205" lon="6.23168">
        <ele>455.5</ele>
        <time>2013-08-17T09:39:43Z</time>
      </trkpt>
      <trkpt lat="45.79199" lon="6.23166">
        <ele>455.6</ele>
        <time>2013-08-17T09:39:44Z</time>
      </trkpt>
      <trkpt lat="45.79193" lon="6.23162">
        <ele>455.7</ele>
        <time>2013-08-17T09:39:45Z</time>
      </trkpt>
      <trkpt lat="45.79187" lon="6.23159">
        <ele>455.8</ele>
        <time>2013-08-17T09:39:46Z</time>
      </trkpt>
      <trkpt lat="45.79181" lon="6.23156">
        <ele>455.9</ele>
        <time>2013-08-17T09:39:47Z</time>
      </trkpt>
      <trkpt lat="45.79177" lon="6.23156">
        <ele>455.9</ele>
        <time>2013-08-17T09:39:48Z</time>
      </trkpt>
      <trkpt lat="45.79163" lon="6.23154">
        <ele>456</ele>
        <time>2013-08-17T09:39:50Z</time>
      </trkpt>
      <trkpt lat="45.7916" lon="6.23155">
        <ele>456.1</ele>
        <time>2013-08-17T09:39:51Z</time>
      </trkpt>
      <trkpt lat="45.79155" lon="6.23158">
        <ele>456.1</ele>
        <time>2013-08-17T09:39:52Z</time>
      </trkpt>
      <trkpt lat="45.79148" lon="6.23157">
        <ele>456.2</ele>
        <time>2013-08-17T09:39:53Z</time>
      </trkpt>
      <trkpt lat="45.7914" lon="6.23155">
        <ele>456.2</ele>
        <time>2013-08-17T09:39:54Z</time>
      </trkpt>
      <trkpt lat="45.7913" lon="6.23156">
        <ele>456.3</ele>
        <time>2013-08-17T09:39:55Z</time>
      </trkpt>
      <trkpt lat="45.79124" lon="6.23156">
        <ele>456.4</ele>
        <time>2013-08-17T09:39:56Z</time>
      </trkpt>
      <trkpt lat="45.79117" lon="6.23156">
        <ele>456.3</ele>
        <time>2013-08-17T09:39:57Z</time>
      </trkpt>
      <trkpt lat="45.79109" lon="6.23157">
        <ele>456.2</ele>
        <time>2013-08-17T09:39:58Z</time>
      </trkpt>
      <trkpt lat="45.79102" lon="6.23156">
        <ele>456.1</ele>
        <time>2013-08-17T09:39:59Z</time>
      </trkpt>
      <trkpt lat="45.7909" lon="6.23155">
        <ele>455.9</ele>
        <time>2013-08-17T09:40:00Z</time>
      </trkpt>
      <trkpt lat="45.79084" lon="6.23156">
        <ele>455.9</ele>
        <time>2013-08-17T09:40:01Z</time>
      </trkpt>
      <trkpt lat="45.79076" lon="6.23156">
        <ele>455.8</ele>
        <time>2013-08-17T09:40:02Z</time>
      </trkpt>
      <trkpt lat="45.7907" lon="6.23157">
        <ele>455.7</ele>
        <time>2013-08-17T09:40:03Z</time>
      </trkpt>
      <trkpt lat="45.79065" lon="6.23157">
        <ele>455.7</ele>
        <time>2013-08-17T09:40:04Z</time>
      </trkpt>
      <trkpt lat="45.79059" lon="6.23158">
        <ele>455.6</ele>
        <time>2013-08-17T09:40:05Z</time>
      </trkpt>
      <trkpt lat="45.79051" lon="6.23158">
        <ele>455.5</ele>
        <time>2013-08-17T09:40:06Z</time>
      </trkpt>
      <trkpt lat="45.79046" lon="6.23162">
        <ele>455.5</ele>
        <time>2013-08-17T09:40:07Z</time>
      </trkpt>
      <trkpt lat="45.79038" lon="6.23162">
        <ele>455.4</ele>
        <time>2013-08-17T09:40:08Z</time>
      </trkpt>
      <trkpt lat="45.79033" lon="6.23163">
        <ele>455.3</ele>
        <time>2013-08-17T09:40:09Z</time>
      </trkpt>
      <trkpt lat="45.79016" lon="6.23166">
        <ele>455.2</ele>
        <time>2013-08-17T09:40:11Z</time>
      </trkpt>
      <trkpt lat="45.79008" lon="6.23168">
        <ele>455.1</ele>
        <time>2013-08-17T09:40:12Z</time>
      </trkpt>
      <trkpt lat="45.79002" lon="6.23169">
        <ele>455.1</ele>
        <time>2013-08-17T09:40:13Z</time>
      </trkpt>
      <trkpt lat="45.78993" lon="6.2317">
        <ele>455</ele>
        <time>2013-08-17T09:40:14Z</time>
      </trkpt>
      <trkpt lat="45.78987" lon="6.23171">
        <ele>455</ele>
        <time>2013-08-17T09:40:15Z</time>
      </trkpt>
      <trkpt lat="45.7898" lon="6.23172">
        <ele>454.9</ele>
        <time>2013-08-17T09:40:16Z</time>
      </trkpt>
      <trkpt lat="45.78972" lon="6.23173">
        <ele>454.9</ele>
        <time>2013-08-17T09:40:17Z</time>
      </trkpt>
      <trkpt lat="45.78959" lon="6.23176">
        <ele>454.8</ele>
        <time>2013-08-17T09:40:19Z</time>
      </trkpt>
      <trkpt lat="45.78956" lon="6.23175">
        <ele>454.8</ele>
        <time>2013-08-17T09:40:20Z</time>
      </trkpt>
      <trkpt lat="45.7894" lon="6.23173">
        <ele>455</ele>
        <time>2013-08-17T09:40:22Z</time>
      </trkpt>
      <trkpt lat="45.78934" lon="6.23174">
        <ele>455.1</ele>
        <time>2013-08-17T09:40:23Z</time>
      </trkpt>
      <trkpt lat="45.78926" lon="6.23172">
        <ele>455.2</ele>
        <time>2013-08-17T09:40:24Z</time>
      </trkpt>
      <trkpt lat="45.78919" lon="6.23171">
        <ele>455.3</ele>
        <time>2013-08-17T09:40:25Z</time>
      </trkpt>
      <trkpt lat="45.78912" lon="6.2317">
        <ele>455.4</ele>
        <time>2013-08-17T09:40:26Z</time>
      </trkpt>
      <trkpt lat="45.78905" lon="6.23168">
        <ele>455.5</ele>
        <time>2013-08-17T09:40:27Z</time>
      </trkpt>
      <trkpt lat="45.78897" lon="6.23165">
        <ele>455.6</ele>
        <time>2013-08-17T09:40:28Z</time>
      </trkpt>
      <trkpt lat="45.78891" lon="6.23163">
        <ele>455.7</ele>
        <time>2013-08-17T09:40:29Z</time>
      </trkpt>
      <trkpt lat="45.78884" lon="6.23162">
        <ele>455.8</ele>
        <time>2013-08-17T09:40:30Z</time>
      </trkpt>
      <trkpt lat="45.78877" lon="6.23161">
        <ele>456</ele>
        <time>2013-08-17T09:40:31Z</time>
      </trkpt>
      <trkpt lat="45.78867" lon="6.23156">
        <ele>456</ele>
        <time>2013-08-17T09:40:32Z</time>
      </trkpt>
      <trkpt lat="45.78859" lon="6.23153">
        <ele>455.9</ele>
        <time>2013-08-17T09:40:33Z</time>
      </trkpt>
      <trkpt lat="45.78853" lon="6.2315">
        <ele>455.9</ele>
        <time>2013-08-17T09:40:34Z</time>
      </trkpt>
      <trkpt lat="45.78845" lon="6.23148">
        <ele>455.9</ele>
        <time>2013-08-17T09:40:35Z</time>
      </trkpt>
      <trkpt lat="45.78838" lon="6.23145">
        <ele>455.9</ele>
        <time>2013-08-17T09:40:36Z</time>
      </trkpt>
      <trkpt lat="45.7883" lon="6.23142">
        <ele>455.9</ele>
        <time>2013-08-17T09:40:37Z</time>
      </trkpt>
      <trkpt lat="45.78822" lon="6.2314">
        <ele>455.9</ele>
        <time>2013-08-17T09:40:38Z</time>
      </trkpt>
      <trkpt lat="45.78816" lon="6.23138">
        <ele>455.9</ele>
        <time>2013-08-17T09:40:39Z</time>
      </trkpt>
      <trkpt lat="45.78808" lon="6.23135">
        <ele>455.9</ele>
        <time>2013-08-17T09:40:40Z</time>
      </trkpt>
      <trkpt lat="45.78801" lon="6.23133">
        <ele>455.9</ele>
        <time>2013-08-17T09:40:41Z</time>
      </trkpt>
      <trkpt lat="45.78793" lon="6.2313">
        <ele>455.9</ele>
        <time>2013-08-17T09:40:42Z</time>
      </trkpt>
      <trkpt lat="45.78785" lon="6.23127">
        <ele>456.2</ele>
        <time>2013-08-17T09:40:43Z</time>
      </trkpt>
      <trkpt lat="45.78777" lon="6.23125">
        <ele>456.5</ele>
        <time>2013-08-17T09:40:44Z</time>
      </trkpt>
      <trkpt lat="45.78771" lon="6.23123">
        <ele>456.7</ele>
        <time>2013-08-17T09:40:45Z</time>
      </trkpt>
      <trkpt lat="45.78762" lon="6.23119">
        <ele>457</ele>
        <time>2013-08-17T09:40:46Z</time>
      </trkpt>
      <trkpt lat="45.78757" lon="6.23117">
        <ele>457.1</ele>
        <time>2013-08-17T09:40:47Z</time>
      </trkpt>
      <trkpt lat="45.7875" lon="6.23115">
        <ele>457.4</ele>
        <time>2013-08-17T09:40:48Z</time>
      </trkpt>
      <trkpt lat="45.78744" lon="6.23114">
        <ele>457.6</ele>
        <time>2013-08-17T09:40:49Z</time>
      </trkpt>
      <trkpt lat="45.78736" lon="6.23112">
        <ele>457.9</ele>
        <time>2013-08-17T09:40:50Z</time>
      </trkpt>
      <trkpt lat="45.78729" lon="6.2311">
        <ele>458.1</ele>
        <time>2013-08-17T09:40:51Z</time>
      </trkpt>
      <trkpt lat="45.78724" lon="6.23106">
        <ele>458.2</ele>
        <time>2013-08-17T09:40:52Z</time>
      </trkpt>
      <trkpt lat="45.78717" lon="6.23103">
        <ele>458.4</ele>
        <time>2013-08-17T09:40:53Z</time>
      </trkpt>
      <trkpt lat="45.78711" lon="6.23101">
        <ele>458.6</ele>
        <time>2013-08-17T09:40:54Z</time>
      </trkpt>
      <trkpt lat="45.78705" lon="6.231">
        <ele>458.7</ele>
        <time>2013-08-17T09:40:55Z</time>
      </trkpt>
      <trkpt lat="45.78698" lon="6.23097">
        <ele>458.6</ele>
        <time>2013-08-17T09:40:56Z</time>
      </trkpt>
      <trkpt lat="45.78688" lon="6.23093">
        <ele>458.5</ele>
        <time>2013-08-17T09:40:57Z</time>
      </trkpt>
      <trkpt lat="45.78681" lon="6.23091">
        <ele>458.4</ele>
        <time>2013-08-17T09:40:58Z</time>
      </trkpt>
      <trkpt lat="45.78674" lon="6.23087">
        <ele>458.3</ele>
        <time>2013-08-17T09:40:59Z</time>
      </trkpt>
      <trkpt lat="45.78666" lon="6.23083">
        <ele>458.2</ele>
        <time>2013-08-17T09:41:00Z</time>
      </trkpt>
      <trkpt lat="45.7866" lon="6.2308">
        <ele>458.2</ele>
        <time>2013-08-17T09:41:01Z</time>
      </trkpt>
      <trkpt lat="45.78649" lon="6.23078">
        <ele>458.1</ele>
        <time>2013-08-17T09:41:03Z</time>
      </trkpt>
      <trkpt lat="45.78644" lon="6.23077">
        <ele>458.1</ele>
        <time>2013-08-17T09:41:04Z</time>
      </trkpt>
      <trkpt lat="45.78639" lon="6.23078">
        <ele>458.1</ele>
        <time>2013-08-17T09:41:05Z</time>
      </trkpt>
      <trkpt lat="45.78634" lon="6.23077">
        <ele>458</ele>
        <time>2013-08-17T09:41:06Z</time>
      </trkpt>
      <trkpt lat="45.78624" lon="6.23071">
        <ele>458</ele>
        <time>2013-08-17T09:41:07Z</time>
      </trkpt>
      <trkpt lat="45.78617" lon="6.23066">
        <ele>458</ele>
        <time>2013-08-17T09:41:08Z</time>
      </trkpt>
      <trkpt lat="45.78611" lon="6.23065">
        <ele>458</ele>
        <time>2013-08-17T09:41:09Z</time>
      </trkpt>
      <trkpt lat="45.78605" lon="6.23064">
        <ele>458</ele>
        <time>2013-08-17T09:41:10Z</time>
      </trkpt>
      <trkpt lat="45.78598" lon="6.23062">
        <ele>458</ele>
        <time>2013-08-17T09:41:11Z</time>
      </trkpt>
      <trkpt lat="45.7859" lon="6.23061">
        <ele>458</ele>
        <time>2013-08-17T09:41:12Z</time>
      </trkpt>
      <trkpt lat="45.78584" lon="6.23059">
        <ele>458</ele>
        <time>2013-08-17T09:41:13Z</time>
      </trkpt>
      <trkpt lat="45.7858" lon="6.23059">
        <ele>458</ele>
        <time>2013-08-17T09:41:14Z</time>
      </trkpt>
      <trkpt lat="45.78573" lon="6.23056">
        <ele>458</ele>
        <time>2013-08-17T09:41:15Z</time>
      </trkpt>
      <trkpt lat="45.78569" lon="6.23056">
        <ele>458</ele>
        <time>2013-08-17T09:41:16Z</time>
      </trkpt>
      <trkpt lat="45.78565" lon="6.23058">
        <ele>458</ele>
        <time>2013-08-17T09:41:17Z</time>
      </trkpt>
      <trkpt lat="45.7856" lon="6.23057">
        <ele>458</ele>
        <time>2013-08-17T09:41:18Z</time>
      </trkpt>
      <trkpt lat="45.78551" lon="6.23057">
        <ele>458</ele>
        <time>2013-08-17T09:41:19Z</time>
      </trkpt>
      <trkpt lat="45.78542" lon="6.23057">
        <ele>458</ele>
        <time>2013-08-17T09:41:20Z</time>
      </trkpt>
      <trkpt lat="45.78536" lon="6.23057">
        <ele>458.2</ele>
        <time>2013-08-17T09:41:21Z</time>
      </trkpt>
      <trkpt lat="45.7853" lon="6.23058">
        <ele>458.4</ele>
        <time>2013-08-17T09:41:22Z</time>
      </trkpt>
      <trkpt lat="45.78522" lon="6.23059">
        <ele>458.6</ele>
        <time>2013-08-17T09:41:23Z</time>
      </trkpt>
      <trkpt lat="45.78516" lon="6.23059">
        <ele>458.9</ele>
        <time>2013-08-17T09:41:25Z</time>
      </trkpt>
      <trkpt lat="45.78508" lon="6.2306">
        <ele>459.1</ele>
        <time>2013-08-17T09:41:26Z</time>
      </trkpt>
      <trkpt lat="45.785" lon="6.23061">
        <ele>459.4</ele>
        <time>2013-08-17T09:41:27Z</time>
      </trkpt>
      <trkpt lat="45.78493" lon="6.23063">
        <ele>459.6</ele>
        <time>2013-08-17T09:41:28Z</time>
      </trkpt>
      <trkpt lat="45.78484" lon="6.23063">
        <ele>459.9</ele>
        <time>2013-08-17T09:41:29Z</time>
      </trkpt>
      <trkpt lat="45.78477" lon="6.23064">
        <ele>460.1</ele>
        <time>2013-08-17T09:41:30Z</time>
      </trkpt>
      <trkpt lat="45.78472" lon="6.23066">
        <ele>460.3</ele>
        <time>2013-08-17T09:41:31Z</time>
      </trkpt>
      <trkpt lat="45.78468" lon="6.23068">
        <ele>460.4</ele>
        <time>2013-08-17T09:41:32Z</time>
      </trkpt>
      <trkpt lat="45.7846" lon="6.23072">
        <ele>460.6</ele>
        <time>2013-08-17T09:41:33Z</time>
      </trkpt>
      <trkpt lat="45.78454" lon="6.23072">
        <ele>460.7</ele>
        <time>2013-08-17T09:41:34Z</time>
      </trkpt>
      <trkpt lat="45.78447" lon="6.23073">
        <ele>460.8</ele>
        <time>2013-08-17T09:41:35Z</time>
      </trkpt>
      <trkpt lat="45.7844" lon="6.23074">
        <ele>460.8</ele>
        <time>2013-08-17T09:41:36Z</time>
      </trkpt>
      <trkpt lat="45.78434" lon="6.23076">
        <ele>460.9</ele>
        <time>2013-08-17T09:41:37Z</time>
      </trkpt>
      <trkpt lat="45.78431" lon="6.23078">
        <ele>460.9</ele>
        <time>2013-08-17T09:41:38Z</time>
      </trkpt>
      <trkpt lat="45.78427" lon="6.23079">
        <ele>460.9</ele>
        <time>2013-08-17T09:41:39Z</time>
      </trkpt>
      <trkpt lat="45.7842" lon="6.23081">
        <ele>461</ele>
        <time>2013-08-17T09:41:41Z</time>
      </trkpt>
      <trkpt lat="45.78416" lon="6.23081">
        <ele>461</ele>
        <time>2013-08-17T09:41:42Z</time>
      </trkpt>
      <trkpt lat="45.78412" lon="6.23082">
        <ele>461.1</ele>
        <time>2013-08-17T09:41:43Z</time>
      </trkpt>
      <trkpt lat="45.78408" lon="6.23081">
        <ele>461.1</ele>
        <time>2013-08-17T09:41:44Z</time>
      </trkpt>
      <trkpt lat="45.78401" lon="6.2308">
        <ele>461.2</ele>
        <time>2013-08-17T09:41:45Z</time>
      </trkpt>
      <trkpt lat="45.78396" lon="6.23082">
        <ele>461.3</ele>
        <time>2013-08-17T09:41:47Z</time>
      </trkpt>
      <trkpt lat="45.78392" lon="6.23082">
        <ele>461.3</ele>
        <time>2013-08-17T09:41:48Z</time>
      </trkpt>
      <trkpt lat="45.78388" lon="6.23081">
        <ele>461.4</ele>
        <time>2013-08-17T09:41:49Z</time>
      </trkpt>
      <trkpt lat="45.78385" lon="6.23081">
        <ele>461.4</ele>
        <time>2013-08-17T09:41:50Z</time>
      </trkpt>
      <trkpt lat="45.78382" lon="6.2308">
        <ele>461.5</ele>
        <time>2013-08-17T09:41:51Z</time>
      </trkpt>
      <trkpt lat="45.78378" lon="6.23079">
        <ele>461.5</ele>
        <time>2013-08-17T09:41:52Z</time>
      </trkpt>
      <trkpt lat="45.78375" lon="6.23079">
        <ele>461.6</ele>
        <time>2013-08-17T09:41:53Z</time>
      </trkpt>
      <trkpt lat="45.78372" lon="6.23079">
        <ele>461.6</ele>
        <time>2013-08-17T09:41:54Z</time>
      </trkpt>
      <trkpt lat="45.78368" lon="6.2308">
        <ele>461.7</ele>
        <time>2013-08-17T09:41:55Z</time>
      </trkpt>
      <trkpt lat="45.78364" lon="6.23079">
        <ele>461.8</ele>
        <time>2013-08-17T09:41:56Z</time>
      </trkpt>
      <trkpt lat="45.78359" lon="6.23079">
        <ele>461.9</ele>
        <time>2013-08-17T09:41:57Z</time>
      </trkpt>
      <trkpt lat="45.78355" lon="6.23078">
        <ele>462</ele>
        <time>2013-08-17T09:41:58Z</time>
      </trkpt>
      <trkpt lat="45.78342" lon="6.23073">
        <ele>462.4</ele>
        <time>2013-08-17T09:41:59Z</time>
      </trkpt>
      <trkpt lat="45.7834" lon="6.2307">
        <ele>462.5</ele>
        <time>2013-08-17T09:42:00Z</time>
      </trkpt>
      <trkpt lat="45.78334" lon="6.23068">
        <ele>462.7</ele>
        <time>2013-08-17T09:42:01Z</time>
      </trkpt>
      <trkpt lat="45.7833" lon="6.23067">
        <ele>462.8</ele>
        <time>2013-08-17T09:42:02Z</time>
      </trkpt>
      <trkpt lat="45.78323" lon="6.23062">
        <ele>463</ele>
        <time>2013-08-17T09:42:03Z</time>
      </trkpt>
      <trkpt lat="45.78317" lon="6.23057">
        <ele>463.2</ele>
        <time>2013-08-17T09:42:04Z</time>
      </trkpt>
      <trkpt lat="45.783" lon="6.23044">
        <ele>463.8</ele>
        <time>2013-08-17T09:42:07Z</time>
      </trkpt>
      <trkpt lat="45.78294" lon="6.2304">
        <ele>463.9</ele>
        <time>2013-08-17T09:42:08Z</time>
      </trkpt>
      <trkpt lat="45.78289" lon="6.23035">
        <ele>464</ele>
        <time>2013-08-17T09:42:09Z</time>
      </trkpt>
      <trkpt lat="45.78286" lon="6.23032">
        <ele>464.1</ele>
        <time>2013-08-17T09:42:10Z</time>
      </trkpt>
      <trkpt lat="45.78278" lon="6.23022">
        <ele>464.2</ele>
        <time>2013-08-17T09:42:11Z</time>
      </trkpt>
      <trkpt lat="45.78263" lon="6.23003">
        <ele>464.3</ele>
        <time>2013-08-17T09:42:14Z</time>
      </trkpt>
      <trkpt lat="45.78259" lon="6.22997">
        <ele>464.4</ele>
        <time>2013-08-17T09:42:15Z</time>
      </trkpt>
      <trkpt lat="45.78253" lon="6.22992">
        <ele>464.5</ele>
        <time>2013-08-17T09:42:16Z</time>
      </trkpt>
      <trkpt lat="45.78248" lon="6.22985">
        <ele>464.5</ele>
        <time>2013-08-17T09:42:17Z</time>
      </trkpt>
      <trkpt lat="45.78243" lon="6.22979">
        <ele>464.6</ele>
        <time>2013-08-17T09:42:18Z</time>
      </trkpt>
      <trkpt lat="45.78227" lon="6.22959">
        <ele>464.8</ele>
        <time>2013-08-17T09:42:21Z</time>
      </trkpt>
      <trkpt lat="45.78223" lon="6.22953">
        <ele>464.8</ele>
        <time>2013-08-17T09:42:22Z</time>
      </trkpt>
      <trkpt lat="45.78217" lon="6.22946">
        <ele>464.9</ele>
        <time>2013-08-17T09:42:23Z</time>
      </trkpt>
      <trkpt lat="45.78214" lon="6.22943">
        <ele>464.9</ele>
        <time>2013-08-17T09:42:24Z</time>
      </trkpt>
      <trkpt lat="45.78201" lon="6.22926">
        <ele>465.1</ele>
        <time>2013-08-17T09:42:26Z</time>
      </trkpt>
      <trkpt lat="45.78197" lon="6.22918">
        <ele>465.1</ele>
        <time>2013-08-17T09:42:27Z</time>
      </trkpt>
      <trkpt lat="45.78192" lon="6.22912">
        <ele>465.2</ele>
        <time>2013-08-17T09:42:28Z</time>
      </trkpt>
      <trkpt lat="45.78189" lon="6.22908">
        <ele>465.2</ele>
        <time>2013-08-17T09:42:29Z</time>
      </trkpt>
      <trkpt lat="45.78182" lon="6.22901">
        <ele>465.3</ele>
        <time>2013-08-17T09:42:30Z</time>
      </trkpt>
      <trkpt lat="45.78178" lon="6.22896">
        <ele>465.4</ele>
        <time>2013-08-17T09:42:31Z</time>
      </trkpt>
      <trkpt lat="45.78174" lon="6.22891">
        <ele>465.4</ele>
        <time>2013-08-17T09:42:32Z</time>
      </trkpt>
      <trkpt lat="45.78172" lon="6.22886">
        <ele>465.4</ele>
        <time>2013-08-17T09:42:33Z</time>
      </trkpt>
      <trkpt lat="45.78167" lon="6.22883">
        <ele>465.5</ele>
        <time>2013-08-17T09:42:34Z</time>
      </trkpt>
      <trkpt lat="45.78164" lon="6.22879">
        <ele>465.5</ele>
        <time>2013-08-17T09:42:35Z</time>
      </trkpt>
      <trkpt lat="45.78162" lon="6.22875">
        <ele>465.6</ele>
        <time>2013-08-17T09:42:36Z</time>
      </trkpt>
      <trkpt lat="45.78159" lon="6.2287">
        <ele>465.6</ele>
        <time>2013-08-17T09:42:38Z</time>
      </trkpt>
      <trkpt lat="45.78156" lon="6.22862">
        <ele>465.6</ele>
        <time>2013-08-17T09:42:40Z</time>
      </trkpt>
      <trkpt lat="45.78154" lon="6.22859">
        <ele>465.6</ele>
        <time>2013-08-17T09:42:41Z</time>
      </trkpt>
      <trkpt lat="45.78154" lon="6.22853">
        <ele>465.6</ele>
        <time>2013-08-17T09:42:42Z</time>
      </trkpt>
      <trkpt lat="45.78147" lon="6.22841">
        <ele>465.6</ele>
        <time>2013-08-17T09:42:44Z</time>
      </trkpt>
      <trkpt lat="45.78137" lon="6.22838">
        <ele>465.8</ele>
        <time>2013-08-17T09:42:46Z</time>
      </trkpt>
      <trkpt lat="45.78131" lon="6.22838">
        <ele>465.9</ele>
        <time>2013-08-17T09:42:48Z</time>
      </trkpt>
      <trkpt lat="45.78115" lon="6.22833">
        <ele>466.2</ele>
        <time>2013-08-17T09:42:50Z</time>
      </trkpt>
      <trkpt lat="45.78111" lon="6.22829">
        <ele>466.3</ele>
        <time>2013-08-17T09:42:52Z</time>
      </trkpt>
      <trkpt lat="45.78108" lon="6.22828">
        <ele>466.3</ele>
        <time>2013-08-17T09:42:54Z</time>
      </trkpt>
      <trkpt lat="45.78104" lon="6.22826">
        <ele>466.4</ele>
        <time>2013-08-17T09:42:56Z</time>
      </trkpt>
      <trkpt lat="45.78101" lon="6.22824">
        <ele>466.5</ele>
        <time>2013-08-17T09:42:58Z</time>
      </trkpt>
      <trkpt lat="45.78097" lon="6.2282">
        <ele>466.6</ele>
        <time>2013-08-17T09:42:59Z</time>
      </trkpt>
      <trkpt lat="45.78095" lon="6.22812">
        <ele>466.6</ele>
        <time>2013-08-17T09:43:02Z</time>
      </trkpt>
      <trkpt lat="45.78092" lon="6.22809">
        <ele>466.7</ele>
        <time>2013-08-17T09:43:03Z</time>
      </trkpt>
      <trkpt lat="45.78098" lon="6.22799">
        <ele>466.6</ele>
        <time>2013-08-17T09:43:07Z</time>
      </trkpt>
      <trkpt lat="45.78101" lon="6.22796">
        <ele>466.6</ele>
        <time>2013-08-17T09:43:08Z</time>
      </trkpt>
      <trkpt lat="45.78104" lon="6.22792">
        <ele>466.5</ele>
        <time>2013-08-17T09:43:10Z</time>
      </trkpt>
      <trkpt lat="45.78106" lon="6.2279">
        <ele>466.4</ele>
        <time>2013-08-17T09:43:11Z</time>
      </trkpt>
      <trkpt lat="45.7811" lon="6.22785">
        <ele>466.3</ele>
        <time>2013-08-17T09:43:13Z</time>
      </trkpt>
      <trkpt lat="45.78113" lon="6.22781">
        <ele>466.3</ele>
        <time>2013-08-17T09:43:15Z</time>
      </trkpt>
      <trkpt lat="45.78116" lon="6.22778">
        <ele>466.2</ele>
        <time>2013-08-17T09:43:17Z</time>
      </trkpt>
      <trkpt lat="45.78118" lon="6.22775">
        <ele>466.2</ele>
        <time>2013-08-17T09:43:19Z</time>
      </trkpt>
      <trkpt lat="45.78121" lon="6.2277">
        <ele>466.1</ele>
        <time>2013-08-17T09:43:21Z</time>
      </trkpt>
      <trkpt lat="45.78124" lon="6.22766">
        <ele>466</ele>
        <time>2013-08-17T09:43:23Z</time>
      </trkpt>
      <trkpt lat="45.78128" lon="6.22761">
        <ele>465.9</ele>
        <time>2013-08-17T09:43:26Z</time>
      </trkpt>
      <trkpt lat="45.7813" lon="6.22758">
        <ele>465.9</ele>
        <time>2013-08-17T09:43:32Z</time>
      </trkpt>
      <trkpt lat="45.78132" lon="6.22756">
        <ele>465.9</ele>
        <time>2013-08-17T09:43:46Z</time>
      </trkpt>
      <trkpt lat="45.78134" lon="6.22753">
        <ele>465.8</ele>
        <time>2013-08-17T09:43:47Z</time>
      </trkpt>
      <trkpt lat="45.78137" lon="6.22749">
        <ele>465.8</ele>
        <time>2013-08-17T09:43:48Z</time>
      </trkpt>
      <trkpt lat="45.7814" lon="6.22744">
        <ele>465.7</ele>
        <time>2013-08-17T09:43:49Z</time>
      </trkpt>
      <trkpt lat="45.78147" lon="6.22735">
        <ele>465.7</ele>
        <time>2013-08-17T09:43:50Z</time>
      </trkpt>
      <trkpt lat="45.78151" lon="6.22729">
        <ele>465.6</ele>
        <time>2013-08-17T09:43:51Z</time>
      </trkpt>
      <trkpt lat="45.78154" lon="6.22725">
        <ele>465.6</ele>
        <time>2013-08-17T09:43:52Z</time>
      </trkpt>
      <trkpt lat="45.78158" lon="6.2272">
        <ele>465.6</ele>
        <time>2013-08-17T09:43:53Z</time>
      </trkpt>
      <trkpt lat="45.78161" lon="6.22716">
        <ele>465.5</ele>
        <time>2013-08-17T09:43:54Z</time>
      </trkpt>
      <trkpt lat="45.78164" lon="6.22712">
        <ele>465.5</ele>
        <time>2013-08-17T09:43:55Z</time>
      </trkpt>
      <trkpt lat="45.78167" lon="6.22708">
        <ele>465.5</ele>
        <time>2013-08-17T09:43:56Z</time>
      </trkpt>
      <trkpt lat="45.78169" lon="6.22704">
        <ele>465.5</ele>
        <time>2013-08-17T09:43:57Z</time>
      </trkpt>
      <trkpt lat="45.78174" lon="6.22698">
        <ele>465.6</ele>
        <time>2013-08-17T09:43:59Z</time>
      </trkpt>
      <trkpt lat="45.78177" lon="6.22694">
        <ele>465.7</ele>
        <time>2013-08-17T09:44:00Z</time>
      </trkpt>
      <trkpt lat="45.78181" lon="6.22688">
        <ele>465.7</ele>
        <time>2013-08-17T09:44:01Z</time>
      </trkpt>
      <trkpt lat="45.78184" lon="6.22684">
        <ele>465.8</ele>
        <time>2013-08-17T09:44:02Z</time>
      </trkpt>
      <trkpt lat="45.78187" lon="6.2268">
        <ele>465.9</ele>
        <time>2013-08-17T09:44:03Z</time>
      </trkpt>
      <trkpt lat="45.7819" lon="6.22676">
        <ele>465.9</ele>
        <time>2013-08-17T09:44:04Z</time>
      </trkpt>
      <trkpt lat="45.78193" lon="6.22672">
        <ele>466</ele>
        <time>2013-08-17T09:44:05Z</time>
      </trkpt>
      <trkpt lat="45.78196" lon="6.22668">
        <ele>466.1</ele>
        <time>2013-08-17T09:44:06Z</time>
      </trkpt>
      <trkpt lat="45.78199" lon="6.22664">
        <ele>466.1</ele>
        <time>2013-08-17T09:44:07Z</time>
      </trkpt>
      <trkpt lat="45.78202" lon="6.22659">
        <ele>466.2</ele>
        <time>2013-08-17T09:44:08Z</time>
      </trkpt>
      <trkpt lat="45.78204" lon="6.22656">
        <ele>466.3</ele>
        <time>2013-08-17T09:44:09Z</time>
      </trkpt>
      <trkpt lat="45.78207" lon="6.22653">
        <ele>466.3</ele>
        <time>2013-08-17T09:44:10Z</time>
      </trkpt>
      <trkpt lat="45.78209" lon="6.22649">
        <ele>466.4</ele>
        <time>2013-08-17T09:44:11Z</time>
      </trkpt>
      <trkpt lat="45.78212" lon="6.22646">
        <ele>466.5</ele>
        <time>2013-08-17T09:44:12Z</time>
      </trkpt>
      <trkpt lat="45.78214" lon="6.22642">
        <ele>466.5</ele>
        <time>2013-08-17T09:44:13Z</time>
      </trkpt>
      <trkpt lat="45.78217" lon="6.22638">
        <ele>466.6</ele>
        <time>2013-08-17T09:44:15Z</time>
      </trkpt>
      <trkpt lat="45.78219" lon="6.22635">
        <ele>466.7</ele>
        <time>2013-08-17T09:44:16Z</time>
      </trkpt>
      <trkpt lat="45.78222" lon="6.22632">
        <ele>466.7</ele>
        <time>2013-08-17T09:44:17Z</time>
      </trkpt>
      <trkpt lat="45.78224" lon="6.22629">
        <ele>466.7</ele>
        <time>2013-08-17T09:44:18Z</time>
      </trkpt>
      <trkpt lat="45.78227" lon="6.22625">
        <ele>466.8</ele>
        <time>2013-08-17T09:44:19Z</time>
      </trkpt>
      <trkpt lat="45.78229" lon="6.22621">
        <ele>466.9</ele>
        <time>2013-08-17T09:44:20Z</time>
      </trkpt>
      <trkpt lat="45.78232" lon="6.22618">
        <ele>467</ele>
        <time>2013-08-17T09:44:21Z</time>
      </trkpt>
      <trkpt lat="45.78235" lon="6.22613">
        <ele>467.1</ele>
        <time>2013-08-17T09:44:22Z</time>
      </trkpt>
      <trkpt lat="45.78238" lon="6.2261">
        <ele>467.2</ele>
        <time>2013-08-17T09:44:23Z</time>
      </trkpt>
      <trkpt lat="45.78241" lon="6.22605">
        <ele>467.3</ele>
        <time>2013-08-17T09:44:24Z</time>
      </trkpt>
      <trkpt lat="45.78244" lon="6.22601">
        <ele>467.4</ele>
        <time>2013-08-17T09:44:25Z</time>
      </trkpt>
      <trkpt lat="45.78246" lon="6.22598">
        <ele>467.5</ele>
        <time>2013-08-17T09:44:26Z</time>
      </trkpt>
      <trkpt lat="45.7825" lon="6.22593">
        <ele>467.7</ele>
        <time>2013-08-17T09:44:27Z</time>
      </trkpt>
      <trkpt lat="45.78253" lon="6.22588">
        <ele>467.8</ele>
        <time>2013-08-17T09:44:28Z</time>
      </trkpt>
      <trkpt lat="45.78258" lon="6.22582">
        <ele>468</ele>
        <time>2013-08-17T09:44:29Z</time>
      </trkpt>
      <trkpt lat="45.78261" lon="6.22577">
        <ele>468.1</ele>
        <time>2013-08-17T09:44:30Z</time>
      </trkpt>
      <trkpt lat="45.78264" lon="6.22573">
        <ele>468.2</ele>
        <time>2013-08-17T09:44:31Z</time>
      </trkpt>
      <trkpt lat="45.78268" lon="6.22568">
        <ele>468.3</ele>
        <time>2013-08-17T09:44:32Z</time>
      </trkpt>
      <trkpt lat="45.78271" lon="6.22563">
        <ele>468.5</ele>
        <time>2013-08-17T09:44:33Z</time>
      </trkpt>
      <trkpt lat="45.78274" lon="6.22558">
        <ele>468.6</ele>
        <time>2013-08-17T09:44:34Z</time>
      </trkpt>
      <trkpt lat="45.78278" lon="6.22553">
        <ele>468.7</ele>
        <time>2013-08-17T09:44:35Z</time>
      </trkpt>
      <trkpt lat="45.78282" lon="6.22548">
        <ele>468.9</ele>
        <time>2013-08-17T09:44:36Z</time>
      </trkpt>
      <trkpt lat="45.78286" lon="6.22542">
        <ele>469.1</ele>
        <time>2013-08-17T09:44:37Z</time>
      </trkpt>
      <trkpt lat="45.78289" lon="6.22537">
        <ele>469</ele>
        <time>2013-08-17T09:44:38Z</time>
      </trkpt>
      <trkpt lat="45.78293" lon="6.22532">
        <ele>469</ele>
        <time>2013-08-17T09:44:39Z</time>
      </trkpt>
      <trkpt lat="45.78298" lon="6.22525">
        <ele>468.9</ele>
        <time>2013-08-17T09:44:40Z</time>
      </trkpt>
      <trkpt lat="45.78302" lon="6.2252">
        <ele>468.8</ele>
        <time>2013-08-17T09:44:41Z</time>
      </trkpt>
      <trkpt lat="45.78305" lon="6.22515">
        <ele>468.7</ele>
        <time>2013-08-17T09:44:42Z</time>
      </trkpt>
      <trkpt lat="45.78309" lon="6.2251">
        <ele>468.6</ele>
        <time>2013-08-17T09:44:43Z</time>
      </trkpt>
      <trkpt lat="45.78311" lon="6.22507">
        <ele>468.5</ele>
        <time>2013-08-17T09:44:44Z</time>
      </trkpt>
      <trkpt lat="45.78315" lon="6.22502">
        <ele>468.4</ele>
        <time>2013-08-17T09:44:46Z</time>
      </trkpt>
      <trkpt lat="45.7832" lon="6.22494">
        <ele>468.3</ele>
        <time>2013-08-17T09:44:47Z</time>
      </trkpt>
      <trkpt lat="45.78323" lon="6.22489">
        <ele>468.2</ele>
        <time>2013-08-17T09:44:48Z</time>
      </trkpt>
      <trkpt lat="45.78326" lon="6.22486">
        <ele>468.2</ele>
        <time>2013-08-17T09:44:49Z</time>
      </trkpt>
      <trkpt lat="45.7833" lon="6.2248">
        <ele>468.1</ele>
        <time>2013-08-17T09:44:50Z</time>
      </trkpt>
      <trkpt lat="45.78333" lon="6.22475">
        <ele>468</ele>
        <time>2013-08-17T09:44:51Z</time>
      </trkpt>
      <trkpt lat="45.78335" lon="6.22473">
        <ele>468</ele>
        <time>2013-08-17T09:44:52Z</time>
      </trkpt>
      <trkpt lat="45.78338" lon="6.22469">
        <ele>467.9</ele>
        <time>2013-08-17T09:44:53Z</time>
      </trkpt>
      <trkpt lat="45.7834" lon="6.22466">
        <ele>467.8</ele>
        <time>2013-08-17T09:44:54Z</time>
      </trkpt>
      <trkpt lat="45.78343" lon="6.22462">
        <ele>467.8</ele>
        <time>2013-08-17T09:44:56Z</time>
      </trkpt>
      <trkpt lat="45.78345" lon="6.22459">
        <ele>467.7</ele>
        <time>2013-08-17T09:44:58Z</time>
      </trkpt>
      <trkpt lat="45.78347" lon="6.22456">
        <ele>467.6</ele>
        <time>2013-08-17T09:45:00Z</time>
      </trkpt>
      <trkpt lat="45.78349" lon="6.22453">
        <ele>467.4</ele>
        <time>2013-08-17T09:45:03Z</time>
      </trkpt>
      <trkpt lat="45.78354" lon="6.22448">
        <ele>467</ele>
        <time>2013-08-17T09:45:12Z</time>
      </trkpt>
      <trkpt lat="45.78356" lon="6.22445">
        <ele>466.9</ele>
        <time>2013-08-17T09:45:13Z</time>
      </trkpt>
      <trkpt lat="45.78361" lon="6.22438">
        <ele>466.4</ele>
        <time>2013-08-17T09:45:15Z</time>
      </trkpt>
      <trkpt lat="45.78363" lon="6.22436">
        <ele>466.2</ele>
        <time>2013-08-17T09:45:16Z</time>
      </trkpt>
      <trkpt lat="45.784" lon="6.22413">
        <ele>464.1</ele>
        <time>2013-08-17T09:45:22Z</time>
      </trkpt>
      <trkpt lat="45.78404" lon="6.22406">
        <ele>463.7</ele>
        <time>2013-08-17T09:45:23Z</time>
      </trkpt>
      <trkpt lat="45.78406" lon="6.22399">
        <ele>463.5</ele>
        <time>2013-08-17T09:45:24Z</time>
      </trkpt>
      <trkpt lat="45.78409" lon="6.22394">
        <ele>463.2</ele>
        <time>2013-08-17T09:45:25Z</time>
      </trkpt>
      <trkpt lat="45.78411" lon="6.2239">
        <ele>463</ele>
        <time>2013-08-17T09:45:26Z</time>
      </trkpt>
      <trkpt lat="45.78415" lon="6.22385">
        <ele>462.8</ele>
        <time>2013-08-17T09:45:27Z</time>
      </trkpt>
      <trkpt lat="45.78421" lon="6.22378">
        <ele>462.5</ele>
        <time>2013-08-17T09:45:28Z</time>
      </trkpt>
      <trkpt lat="45.78425" lon="6.22372">
        <ele>462.4</ele>
        <time>2013-08-17T09:45:29Z</time>
      </trkpt>
      <trkpt lat="45.78428" lon="6.22366">
        <ele>462.3</ele>
        <time>2013-08-17T09:45:30Z</time>
      </trkpt>
      <trkpt lat="45.78433" lon="6.22356">
        <ele>462.2</ele>
        <time>2013-08-17T09:45:31Z</time>
      </trkpt>
      <trkpt lat="45.78437" lon="6.22349">
        <ele>462.1</ele>
        <time>2013-08-17T09:45:32Z</time>
      </trkpt>
      <trkpt lat="45.78441" lon="6.22342">
        <ele>462</ele>
        <time>2013-08-17T09:45:33Z</time>
      </trkpt>
      <trkpt lat="45.78445" lon="6.22335">
        <ele>461.8</ele>
        <time>2013-08-17T09:45:34Z</time>
      </trkpt>
      <trkpt lat="45.78449" lon="6.22329">
        <ele>461.7</ele>
        <time>2013-08-17T09:45:35Z</time>
      </trkpt>
      <trkpt lat="45.78453" lon="6.22322">
        <ele>461.5</ele>
        <time>2013-08-17T09:45:36Z</time>
      </trkpt>
      <trkpt lat="45.78457" lon="6.22314">
        <ele>461.3</ele>
        <time>2013-08-17T09:45:37Z</time>
      </trkpt>
      <trkpt lat="45.7846" lon="6.22307">
        <ele>461.2</ele>
        <time>2013-08-17T09:45:38Z</time>
      </trkpt>
      <trkpt lat="45.78464" lon="6.22301">
        <ele>461.1</ele>
        <time>2013-08-17T09:45:39Z</time>
      </trkpt>
      <trkpt lat="45.78468" lon="6.22293">
        <ele>461</ele>
        <time>2013-08-17T09:45:40Z</time>
      </trkpt>
      <trkpt lat="45.78472" lon="6.22284">
        <ele>461</ele>
        <time>2013-08-17T09:45:41Z</time>
      </trkpt>
      <trkpt lat="45.78475" lon="6.22277">
        <ele>461</ele>
        <time>2013-08-17T09:45:42Z</time>
      </trkpt>
      <trkpt lat="45.78479" lon="6.22269">
        <ele>461</ele>
        <time>2013-08-17T09:45:43Z</time>
      </trkpt>
      <trkpt lat="45.78483" lon="6.22262">
        <ele>461</ele>
        <time>2013-08-17T09:45:44Z</time>
      </trkpt>
      <trkpt lat="45.78486" lon="6.22255">
        <ele>461</ele>
        <time>2013-08-17T09:45:45Z</time>
      </trkpt>
      <trkpt lat="45.78491" lon="6.22246">
        <ele>461</ele>
        <time>2013-08-17T09:45:46Z</time>
      </trkpt>
      <trkpt lat="45.78495" lon="6.22237">
        <ele>461</ele>
        <time>2013-08-17T09:45:47Z</time>
      </trkpt>
      <trkpt lat="45.785" lon="6.22227">
        <ele>461</ele>
        <time>2013-08-17T09:45:48Z</time>
      </trkpt>
      <trkpt lat="45.78504" lon="6.22218">
        <ele>461</ele>
        <time>2013-08-17T09:45:49Z</time>
      </trkpt>
      <trkpt lat="45.78509" lon="6.22208">
        <ele>461</ele>
        <time>2013-08-17T09:45:50Z</time>
      </trkpt>
      <trkpt lat="45.78513" lon="6.222">
        <ele>460.9</ele>
        <time>2013-08-17T09:45:51Z</time>
      </trkpt>
      <trkpt lat="45.78517" lon="6.22187">
        <ele>460.8</ele>
        <time>2013-08-17T09:45:52Z</time>
      </trkpt>
      <trkpt lat="45.78522" lon="6.22178">
        <ele>460.7</ele>
        <time>2013-08-17T09:45:53Z</time>
      </trkpt>
      <trkpt lat="45.78526" lon="6.22169">
        <ele>460.6</ele>
        <time>2013-08-17T09:45:54Z</time>
      </trkpt>
      <trkpt lat="45.7853" lon="6.22159">
        <ele>460.5</ele>
        <time>2013-08-17T09:45:55Z</time>
      </trkpt>
      <trkpt lat="45.78534" lon="6.22151">
        <ele>460.4</ele>
        <time>2013-08-17T09:45:56Z</time>
      </trkpt>
      <trkpt lat="45.78538" lon="6.22142">
        <ele>460.2</ele>
        <time>2013-08-17T09:45:57Z</time>
      </trkpt>
      <trkpt lat="45.78543" lon="6.22131">
        <ele>460.1</ele>
        <time>2013-08-17T09:45:58Z</time>
      </trkpt>
      <trkpt lat="45.78548" lon="6.22121">
        <ele>459.9</ele>
        <time>2013-08-17T09:45:59Z</time>
      </trkpt>
      <trkpt lat="45.78552" lon="6.22111">
        <ele>459.9</ele>
        <time>2013-08-17T09:46:00Z</time>
      </trkpt>
      <trkpt lat="45.78556" lon="6.22101">
        <ele>459.8</ele>
        <time>2013-08-17T09:46:01Z</time>
      </trkpt>
      <trkpt lat="45.7856" lon="6.22093">
        <ele>459.8</ele>
        <time>2013-08-17T09:46:02Z</time>
      </trkpt>
      <trkpt lat="45.78565" lon="6.22083">
        <ele>459.7</ele>
        <time>2013-08-17T09:46:03Z</time>
      </trkpt>
      <trkpt lat="45.78569" lon="6.22075">
        <ele>459.7</ele>
        <time>2013-08-17T09:46:04Z</time>
      </trkpt>
      <trkpt lat="45.78572" lon="6.22067">
        <ele>459.6</ele>
        <time>2013-08-17T09:46:05Z</time>
      </trkpt>
      <trkpt lat="45.78577" lon="6.22057">
        <ele>459.6</ele>
        <time>2013-08-17T09:46:06Z</time>
      </trkpt>
      <trkpt lat="45.78581" lon="6.22049">
        <ele>459.5</ele>
        <time>2013-08-17T09:46:07Z</time>
      </trkpt>
      <trkpt lat="45.78585" lon="6.22039">
        <ele>459.4</ele>
        <time>2013-08-17T09:46:08Z</time>
      </trkpt>
      <trkpt lat="45.7859" lon="6.2203">
        <ele>459.3</ele>
        <time>2013-08-17T09:46:09Z</time>
      </trkpt>
      <trkpt lat="45.78594" lon="6.22021">
        <ele>459.1</ele>
        <time>2013-08-17T09:46:10Z</time>
      </trkpt>
      <trkpt lat="45.78599" lon="6.22011">
        <ele>458.9</ele>
        <time>2013-08-17T09:46:11Z</time>
      </trkpt>
      <trkpt lat="45.78603" lon="6.22003">
        <ele>458.8</ele>
        <time>2013-08-17T09:46:12Z</time>
      </trkpt>
      <trkpt lat="45.78607" lon="6.21994">
        <ele>458.6</ele>
        <time>2013-08-17T09:46:13Z</time>
      </trkpt>
      <trkpt lat="45.78611" lon="6.21985">
        <ele>458.5</ele>
        <time>2013-08-17T09:46:14Z</time>
      </trkpt>
      <trkpt lat="45.78614" lon="6.21977">
        <ele>458.4</ele>
        <time>2013-08-17T09:46:15Z</time>
      </trkpt>
      <trkpt lat="45.78618" lon="6.21968">
        <ele>458.2</ele>
        <time>2013-08-17T09:46:16Z</time>
      </trkpt>
      <trkpt lat="45.78623" lon="6.21959">
        <ele>458</ele>
        <time>2013-08-17T09:46:17Z</time>
      </trkpt>
      <trkpt lat="45.78626" lon="6.2195">
        <ele>458</ele>
        <time>2013-08-17T09:46:18Z</time>
      </trkpt>
      <trkpt lat="45.7863" lon="6.21942">
        <ele>458</ele>
        <time>2013-08-17T09:46:19Z</time>
      </trkpt>
      <trkpt lat="45.78635" lon="6.21932">
        <ele>458.1</ele>
        <time>2013-08-17T09:46:20Z</time>
      </trkpt>
      <trkpt lat="45.78639" lon="6.21923">
        <ele>458.1</ele>
        <time>2013-08-17T09:46:21Z</time>
      </trkpt>
      <trkpt lat="45.78643" lon="6.21914">
        <ele>458.2</ele>
        <time>2013-08-17T09:46:22Z</time>
      </trkpt>
      <trkpt lat="45.78645" lon="6.21909">
        <ele>458.3</ele>
        <time>2013-08-17T09:46:23Z</time>
      </trkpt>
      <trkpt lat="45.78649" lon="6.21902">
        <ele>458.4</ele>
        <time>2013-08-17T09:46:24Z</time>
      </trkpt>
      <trkpt lat="45.78654" lon="6.21891">
        <ele>458.6</ele>
        <time>2013-08-17T09:46:25Z</time>
      </trkpt>
      <trkpt lat="45.78659" lon="6.21883">
        <ele>458.7</ele>
        <time>2013-08-17T09:46:26Z</time>
      </trkpt>
      <trkpt lat="45.78663" lon="6.21875">
        <ele>458.9</ele>
        <time>2013-08-17T09:46:27Z</time>
      </trkpt>
      <trkpt lat="45.78668" lon="6.21866">
        <ele>459</ele>
        <time>2013-08-17T09:46:28Z</time>
      </trkpt>
      <trkpt lat="45.78673" lon="6.21858">
        <ele>459.1</ele>
        <time>2013-08-17T09:46:29Z</time>
      </trkpt>
      <trkpt lat="45.78679" lon="6.21849">
        <ele>459.1</ele>
        <time>2013-08-17T09:46:30Z</time>
      </trkpt>
      <trkpt lat="45.78683" lon="6.21841">
        <ele>459.1</ele>
        <time>2013-08-17T09:46:31Z</time>
      </trkpt>
      <trkpt lat="45.78688" lon="6.21832">
        <ele>459</ele>
        <time>2013-08-17T09:46:32Z</time>
      </trkpt>
      <trkpt lat="45.78692" lon="6.21823">
        <ele>458.9</ele>
        <time>2013-08-17T09:46:33Z</time>
      </trkpt>
      <trkpt lat="45.78697" lon="6.21815">
        <ele>458.7</ele>
        <time>2013-08-17T09:46:34Z</time>
      </trkpt>
      <trkpt lat="45.78702" lon="6.21806">
        <ele>458.4</ele>
        <time>2013-08-17T09:46:35Z</time>
      </trkpt>
      <trkpt lat="45.78707" lon="6.21799">
        <ele>458.2</ele>
        <time>2013-08-17T09:46:36Z</time>
      </trkpt>
      <trkpt lat="45.78714" lon="6.2179">
        <ele>457.8</ele>
        <time>2013-08-17T09:46:37Z</time>
      </trkpt>
      <trkpt lat="45.78718" lon="6.21781">
        <ele>457.5</ele>
        <time>2013-08-17T09:46:38Z</time>
      </trkpt>
      <trkpt lat="45.78723" lon="6.21774">
        <ele>457.3</ele>
        <time>2013-08-17T09:46:39Z</time>
      </trkpt>
      <trkpt lat="45.78729" lon="6.21766">
        <ele>457</ele>
        <time>2013-08-17T09:46:40Z</time>
      </trkpt>
      <trkpt lat="45.78734" lon="6.21757">
        <ele>456.8</ele>
        <time>2013-08-17T09:46:41Z</time>
      </trkpt>
      <trkpt lat="45.78741" lon="6.21748">
        <ele>456.5</ele>
        <time>2013-08-17T09:46:42Z</time>
      </trkpt>
      <trkpt lat="45.78747" lon="6.2174">
        <ele>456.3</ele>
        <time>2013-08-17T09:46:43Z</time>
      </trkpt>
      <trkpt lat="45.78751" lon="6.21735">
        <ele>456.1</ele>
        <time>2013-08-17T09:46:44Z</time>
      </trkpt>
      <trkpt lat="45.78757" lon="6.21727">
        <ele>455.9</ele>
        <time>2013-08-17T09:46:45Z</time>
      </trkpt>
      <trkpt lat="45.78762" lon="6.2172">
        <ele>455.8</ele>
        <time>2013-08-17T09:46:46Z</time>
      </trkpt>
      <trkpt lat="45.78767" lon="6.21713">
        <ele>455.6</ele>
        <time>2013-08-17T09:46:47Z</time>
      </trkpt>
      <trkpt lat="45.78773" lon="6.21706">
        <ele>455.4</ele>
        <time>2013-08-17T09:46:48Z</time>
      </trkpt>
      <trkpt lat="45.78778" lon="6.217">
        <ele>455.2</ele>
        <time>2013-08-17T09:46:49Z</time>
      </trkpt>
      <trkpt lat="45.78784" lon="6.21693">
        <ele>455</ele>
        <time>2013-08-17T09:46:50Z</time>
      </trkpt>
      <trkpt lat="45.7879" lon="6.21686">
        <ele>454.8</ele>
        <time>2013-08-17T09:46:51Z</time>
      </trkpt>
      <trkpt lat="45.78796" lon="6.21678">
        <ele>454.6</ele>
        <time>2013-08-17T09:46:52Z</time>
      </trkpt>
      <trkpt lat="45.78802" lon="6.2167">
        <ele>454.5</ele>
        <time>2013-08-17T09:46:53Z</time>
      </trkpt>
      <trkpt lat="45.78807" lon="6.21664">
        <ele>454.4</ele>
        <time>2013-08-17T09:46:54Z</time>
      </trkpt>
      <trkpt lat="45.78812" lon="6.21658">
        <ele>454.3</ele>
        <time>2013-08-17T09:46:55Z</time>
      </trkpt>
      <trkpt lat="45.78819" lon="6.21651">
        <ele>454.2</ele>
        <time>2013-08-17T09:46:56Z</time>
      </trkpt>
      <trkpt lat="45.78825" lon="6.21644">
        <ele>454.1</ele>
        <time>2013-08-17T09:46:57Z</time>
      </trkpt>
      <trkpt lat="45.78831" lon="6.21638">
        <ele>454.1</ele>
        <time>2013-08-17T09:46:58Z</time>
      </trkpt>
      <trkpt lat="45.78837" lon="6.21632">
        <ele>454</ele>
        <time>2013-08-17T09:46:59Z</time>
      </trkpt>
      <trkpt lat="45.78843" lon="6.21625">
        <ele>454</ele>
        <time>2013-08-17T09:47:00Z</time>
      </trkpt>
      <trkpt lat="45.7885" lon="6.21618">
        <ele>454.1</ele>
        <time>2013-08-17T09:47:01Z</time>
      </trkpt>
      <trkpt lat="45.78856" lon="6.21612">
        <ele>454.2</ele>
        <time>2013-08-17T09:47:02Z</time>
      </trkpt>
      <trkpt lat="45.78862" lon="6.21608">
        <ele>454.2</ele>
        <time>2013-08-17T09:47:03Z</time>
      </trkpt>
      <trkpt lat="45.78868" lon="6.21601">
        <ele>454.3</ele>
        <time>2013-08-17T09:47:04Z</time>
      </trkpt>
      <trkpt lat="45.78875" lon="6.21595">
        <ele>454.4</ele>
        <time>2013-08-17T09:47:05Z</time>
      </trkpt>
      <trkpt lat="45.78882" lon="6.21589">
        <ele>454.5</ele>
        <time>2013-08-17T09:47:06Z</time>
      </trkpt>
      <trkpt lat="45.78888" lon="6.21583">
        <ele>454.7</ele>
        <time>2013-08-17T09:47:07Z</time>
      </trkpt>
      <trkpt lat="45.78894" lon="6.21575">
        <ele>454.8</ele>
        <time>2013-08-17T09:47:08Z</time>
      </trkpt>
      <trkpt lat="45.789" lon="6.21569">
        <ele>454.9</ele>
        <time>2013-08-17T09:47:09Z</time>
      </trkpt>
      <trkpt lat="45.78906" lon="6.21562">
        <ele>454.9</ele>
        <time>2013-08-17T09:47:10Z</time>
      </trkpt>
      <trkpt lat="45.78913" lon="6.21556">
        <ele>455</ele>
        <time>2013-08-17T09:47:11Z</time>
      </trkpt>
      <trkpt lat="45.78919" lon="6.2155">
        <ele>455</ele>
        <time>2013-08-17T09:47:12Z</time>
      </trkpt>
      <trkpt lat="45.78924" lon="6.21543">
        <ele>455</ele>
        <time>2013-08-17T09:47:13Z</time>
      </trkpt>
      <trkpt lat="45.78929" lon="6.21537">
        <ele>455</ele>
        <time>2013-08-17T09:47:14Z</time>
      </trkpt>
      <trkpt lat="45.78936" lon="6.21531">
        <ele>454.9</ele>
        <time>2013-08-17T09:47:15Z</time>
      </trkpt>
      <trkpt lat="45.78943" lon="6.21525">
        <ele>454.8</ele>
        <time>2013-08-17T09:47:16Z</time>
      </trkpt>
      <trkpt lat="45.78951" lon="6.21517">
        <ele>454.7</ele>
        <time>2013-08-17T09:47:17Z</time>
      </trkpt>
      <trkpt lat="45.78957" lon="6.21511">
        <ele>454.6</ele>
        <time>2013-08-17T09:47:18Z</time>
      </trkpt>
      <trkpt lat="45.78965" lon="6.21507">
        <ele>454.6</ele>
        <time>2013-08-17T09:47:19Z</time>
      </trkpt>
      <trkpt lat="45.78973" lon="6.215">
        <ele>454.5</ele>
        <time>2013-08-17T09:47:20Z</time>
      </trkpt>
      <trkpt lat="45.7898" lon="6.21494">
        <ele>454.5</ele>
        <time>2013-08-17T09:47:21Z</time>
      </trkpt>
      <trkpt lat="45.78986" lon="6.21488">
        <ele>454.5</ele>
        <time>2013-08-17T09:47:22Z</time>
      </trkpt>
      <trkpt lat="45.78992" lon="6.21481">
        <ele>454.5</ele>
        <time>2013-08-17T09:47:23Z</time>
      </trkpt>
      <trkpt lat="45.78996" lon="6.21477">
        <ele>454.5</ele>
        <time>2013-08-17T09:47:24Z</time>
      </trkpt>
      <trkpt lat="45.79002" lon="6.21471">
        <ele>454.5</ele>
        <time>2013-08-17T09:47:25Z</time>
      </trkpt>
      <trkpt lat="45.79007" lon="6.21466">
        <ele>454.6</ele>
        <time>2013-08-17T09:47:26Z</time>
      </trkpt>
      <trkpt lat="45.79014" lon="6.21459">
        <ele>454.7</ele>
        <time>2013-08-17T09:47:27Z</time>
      </trkpt>
      <trkpt lat="45.79022" lon="6.21452">
        <ele>454.7</ele>
        <time>2013-08-17T09:47:28Z</time>
      </trkpt>
      <trkpt lat="45.7903" lon="6.21447">
        <ele>454.7</ele>
        <time>2013-08-17T09:47:29Z</time>
      </trkpt>
      <trkpt lat="45.79037" lon="6.21442">
        <ele>454.8</ele>
        <time>2013-08-17T09:47:30Z</time>
      </trkpt>
      <trkpt lat="45.79045" lon="6.21436">
        <ele>454.7</ele>
        <time>2013-08-17T09:47:31Z</time>
      </trkpt>
      <trkpt lat="45.79051" lon="6.21433">
        <ele>454.6</ele>
        <time>2013-08-17T09:47:32Z</time>
      </trkpt>
      <trkpt lat="45.79059" lon="6.21423">
        <ele>454.4</ele>
        <time>2013-08-17T09:47:33Z</time>
      </trkpt>
      <trkpt lat="45.79067" lon="6.21416">
        <ele>454.3</ele>
        <time>2013-08-17T09:47:34Z</time>
      </trkpt>
      <trkpt lat="45.79073" lon="6.21408">
        <ele>454.3</ele>
        <time>2013-08-17T09:47:35Z</time>
      </trkpt>
      <trkpt lat="45.79078" lon="6.21403">
        <ele>454.3</ele>
        <time>2013-08-17T09:47:36Z</time>
      </trkpt>
      <trkpt lat="45.79084" lon="6.21396">
        <ele>454.4</ele>
        <time>2013-08-17T09:47:37Z</time>
      </trkpt>
      <trkpt lat="45.79091" lon="6.21392">
        <ele>454.4</ele>
        <time>2013-08-17T09:47:38Z</time>
      </trkpt>
      <trkpt lat="45.79099" lon="6.21386">
        <ele>454.6</ele>
        <time>2013-08-17T09:47:39Z</time>
      </trkpt>
      <trkpt lat="45.79105" lon="6.21379">
        <ele>454.7</ele>
        <time>2013-08-17T09:47:40Z</time>
      </trkpt>
      <trkpt lat="45.79111" lon="6.21372">
        <ele>455</ele>
        <time>2013-08-17T09:47:41Z</time>
      </trkpt>
      <trkpt lat="45.79116" lon="6.21365">
        <ele>455.3</ele>
        <time>2013-08-17T09:47:42Z</time>
      </trkpt>
      <trkpt lat="45.79123" lon="6.21362">
        <ele>455.6</ele>
        <time>2013-08-17T09:47:43Z</time>
      </trkpt>
      <trkpt lat="45.79128" lon="6.21357">
        <ele>455.9</ele>
        <time>2013-08-17T09:47:44Z</time>
      </trkpt>
      <trkpt lat="45.79132" lon="6.2135">
        <ele>456.2</ele>
        <time>2013-08-17T09:47:45Z</time>
      </trkpt>
      <trkpt lat="45.79136" lon="6.21346">
        <ele>456.3</ele>
        <time>2013-08-17T09:47:46Z</time>
      </trkpt>
      <trkpt lat="45.7914" lon="6.21347">
        <ele>456.2</ele>
        <time>2013-08-17T09:47:48Z</time>
      </trkpt>
      <trkpt lat="45.79143" lon="6.21345">
        <ele>456.3</ele>
        <time>2013-08-17T09:47:49Z</time>
      </trkpt>
      <trkpt lat="45.79145" lon="6.2134">
        <ele>456.5</ele>
        <time>2013-08-17T09:47:52Z</time>
      </trkpt>
      <trkpt lat="45.79149" lon="6.21339">
        <ele>456.5</ele>
        <time>2013-08-17T09:47:56Z</time>
      </trkpt>
      <trkpt lat="45.79152" lon="6.21333">
        <ele>456.7</ele>
        <time>2013-08-17T09:47:58Z</time>
      </trkpt>
      <trkpt lat="45.79157" lon="6.2133">
        <ele>456.8</ele>
        <time>2013-08-17T09:48:00Z</time>
      </trkpt>
      <trkpt lat="45.79161" lon="6.21327">
        <ele>456.8</ele>
        <time>2013-08-17T09:48:02Z</time>
      </trkpt>
      <trkpt lat="45.79165" lon="6.21327">
        <ele>456.8</ele>
        <time>2013-08-17T09:48:04Z</time>
      </trkpt>
      <trkpt lat="45.79173" lon="6.2132">
        <ele>456.9</ele>
        <time>2013-08-17T09:48:05Z</time>
      </trkpt>
      <trkpt lat="45.79178" lon="6.21316">
        <ele>456.9</ele>
        <time>2013-08-17T09:48:06Z</time>
      </trkpt>
      <trkpt lat="45.79183" lon="6.21312">
        <ele>457</ele>
        <time>2013-08-17T09:48:07Z</time>
      </trkpt>
      <trkpt lat="45.79189" lon="6.21308">
        <ele>457</ele>
        <time>2013-08-17T09:48:08Z</time>
      </trkpt>
      <trkpt lat="45.79195" lon="6.21304">
        <ele>457</ele>
        <time>2013-08-17T09:48:09Z</time>
      </trkpt>
      <trkpt lat="45.79201" lon="6.21298">
        <ele>457</ele>
        <time>2013-08-17T09:48:10Z</time>
      </trkpt>
      <trkpt lat="45.79206" lon="6.21293">
        <ele>457</ele>
        <time>2013-08-17T09:48:11Z</time>
      </trkpt>
      <trkpt lat="45.79211" lon="6.21288">
        <ele>456.9</ele>
        <time>2013-08-17T09:48:12Z</time>
      </trkpt>
      <trkpt lat="45.79215" lon="6.21284">
        <ele>456.7</ele>
        <time>2013-08-17T09:48:13Z</time>
      </trkpt>
      <trkpt lat="45.7922" lon="6.21281">
        <ele>456.5</ele>
        <time>2013-08-17T09:48:14Z</time>
      </trkpt>
      <trkpt lat="45.79228" lon="6.21275">
        <ele>456</ele>
        <time>2013-08-17T09:48:15Z</time>
      </trkpt>
      <trkpt lat="45.79232" lon="6.21268">
        <ele>455.9</ele>
        <time>2013-08-17T09:48:16Z</time>
      </trkpt>
      <trkpt lat="45.79237" lon="6.21263">
        <ele>455.6</ele>
        <time>2013-08-17T09:48:17Z</time>
      </trkpt>
      <trkpt lat="45.79242" lon="6.2126">
        <ele>455.4</ele>
        <time>2013-08-17T09:48:18Z</time>
      </trkpt>
      <trkpt lat="45.79248" lon="6.21256">
        <ele>455</ele>
        <time>2013-08-17T09:48:19Z</time>
      </trkpt>
      <trkpt lat="45.79254" lon="6.21251">
        <ele>454.7</ele>
        <time>2013-08-17T09:48:20Z</time>
      </trkpt>
      <trkpt lat="45.7926" lon="6.21248">
        <ele>454.4</ele>
        <time>2013-08-17T09:48:21Z</time>
      </trkpt>
      <trkpt lat="45.79265" lon="6.21243">
        <ele>454.2</ele>
        <time>2013-08-17T09:48:22Z</time>
      </trkpt>
      <trkpt lat="45.7927" lon="6.21239">
        <ele>453.9</ele>
        <time>2013-08-17T09:48:23Z</time>
      </trkpt>
      <trkpt lat="45.79276" lon="6.21236">
        <ele>453.6</ele>
        <time>2013-08-17T09:48:24Z</time>
      </trkpt>
      <trkpt lat="45.79282" lon="6.21233">
        <ele>453.3</ele>
        <time>2013-08-17T09:48:25Z</time>
      </trkpt>
      <trkpt lat="45.79288" lon="6.21229">
        <ele>453</ele>
        <time>2013-08-17T09:48:26Z</time>
      </trkpt>
      <trkpt lat="45.79294" lon="6.21226">
        <ele>452.8</ele>
        <time>2013-08-17T09:48:27Z</time>
      </trkpt>
      <trkpt lat="45.793" lon="6.21221">
        <ele>452.8</ele>
        <time>2013-08-17T09:48:28Z</time>
      </trkpt>
      <trkpt lat="45.79305" lon="6.21219">
        <ele>452.7</ele>
        <time>2013-08-17T09:48:29Z</time>
      </trkpt>
      <trkpt lat="45.7931" lon="6.21216">
        <ele>452.7</ele>
        <time>2013-08-17T09:48:30Z</time>
      </trkpt>
      <trkpt lat="45.79315" lon="6.21214">
        <ele>452.7</ele>
        <time>2013-08-17T09:48:31Z</time>
      </trkpt>
      <trkpt lat="45.79322" lon="6.2121">
        <ele>452.6</ele>
        <time>2013-08-17T09:48:32Z</time>
      </trkpt>
      <trkpt lat="45.79329" lon="6.21207">
        <ele>452.5</ele>
        <time>2013-08-17T09:48:33Z</time>
      </trkpt>
      <trkpt lat="45.79336" lon="6.21205">
        <ele>452.5</ele>
        <time>2013-08-17T09:48:34Z</time>
      </trkpt>
      <trkpt lat="45.79341" lon="6.21194">
        <ele>452.3</ele>
        <time>2013-08-17T09:48:35Z</time>
      </trkpt>
      <trkpt lat="45.79348" lon="6.21179">
        <ele>452.1</ele>
        <time>2013-08-17T09:48:36Z</time>
      </trkpt>
      <trkpt lat="45.79351" lon="6.21178">
        <ele>452</ele>
        <time>2013-08-17T09:48:37Z</time>
      </trkpt>
      <trkpt lat="45.79357" lon="6.21177">
        <ele>451.9</ele>
        <time>2013-08-17T09:48:38Z</time>
      </trkpt>
      <trkpt lat="45.79363" lon="6.21175">
        <ele>451.8</ele>
        <time>2013-08-17T09:48:39Z</time>
      </trkpt>
      <trkpt lat="45.79371" lon="6.21173">
        <ele>451.6</ele>
        <time>2013-08-17T09:48:40Z</time>
      </trkpt>
      <trkpt lat="45.79377" lon="6.21172">
        <ele>451.6</ele>
        <time>2013-08-17T09:48:41Z</time>
      </trkpt>
      <trkpt lat="45.79381" lon="6.21171">
        <ele>451.8</ele>
        <time>2013-08-17T09:48:42Z</time>
      </trkpt>
      <trkpt lat="45.79389" lon="6.21169">
        <ele>452.1</ele>
        <time>2013-08-17T09:48:43Z</time>
      </trkpt>
      <trkpt lat="45.79393" lon="6.21168">
        <ele>452.3</ele>
        <time>2013-08-17T09:48:44Z</time>
      </trkpt>
      <trkpt lat="45.79401" lon="6.21167">
        <ele>452.6</ele>
        <time>2013-08-17T09:48:45Z</time>
      </trkpt>
      <trkpt lat="45.79407" lon="6.21165">
        <ele>452.9</ele>
        <time>2013-08-17T09:48:46Z</time>
      </trkpt>
      <trkpt lat="45.79414" lon="6.21164">
        <ele>453.1</ele>
        <time>2013-08-17T09:48:47Z</time>
      </trkpt>
      <trkpt lat="45.79419" lon="6.21163">
        <ele>453.3</ele>
        <time>2013-08-17T09:48:48Z</time>
      </trkpt>
      <trkpt lat="45.79425" lon="6.21162">
        <ele>453.6</ele>
        <time>2013-08-17T09:48:49Z</time>
      </trkpt>
      <trkpt lat="45.79431" lon="6.21161">
        <ele>453.8</ele>
        <time>2013-08-17T09:48:50Z</time>
      </trkpt>
      <trkpt lat="45.79436" lon="6.2116">
        <ele>454.1</ele>
        <time>2013-08-17T09:48:51Z</time>
      </trkpt>
      <trkpt lat="45.79444" lon="6.21158">
        <ele>454.4</ele>
        <time>2013-08-17T09:48:52Z</time>
      </trkpt>
      <trkpt lat="45.7945" lon="6.21157">
        <ele>454.6</ele>
        <time>2013-08-17T09:48:53Z</time>
      </trkpt>
      <trkpt lat="45.79456" lon="6.21156">
        <ele>454.9</ele>
        <time>2013-08-17T09:48:54Z</time>
      </trkpt>
      <trkpt lat="45.79462" lon="6.21155">
        <ele>455.1</ele>
        <time>2013-08-17T09:48:55Z</time>
      </trkpt>
      <trkpt lat="45.7947" lon="6.21153">
        <ele>455.3</ele>
        <time>2013-08-17T09:48:56Z</time>
      </trkpt>
      <trkpt lat="45.79478" lon="6.21152">
        <ele>455.5</ele>
        <time>2013-08-17T09:48:57Z</time>
      </trkpt>
      <trkpt lat="45.79485" lon="6.21153">
        <ele>455.6</ele>
        <time>2013-08-17T09:48:58Z</time>
      </trkpt>
      <trkpt lat="45.79491" lon="6.21153">
        <ele>455.8</ele>
        <time>2013-08-17T09:48:59Z</time>
      </trkpt>
      <trkpt lat="45.79498" lon="6.21153">
        <ele>456</ele>
        <time>2013-08-17T09:49:00Z</time>
      </trkpt>
      <trkpt lat="45.79504" lon="6.21152">
        <ele>456.1</ele>
        <time>2013-08-17T09:49:01Z</time>
      </trkpt>
      <trkpt lat="45.79511" lon="6.21152">
        <ele>456.3</ele>
        <time>2013-08-17T09:49:02Z</time>
      </trkpt>
      <trkpt lat="45.79514" lon="6.21152">
        <ele>456.3</ele>
        <time>2013-08-17T09:49:04Z</time>
      </trkpt>
      <trkpt lat="45.79517" lon="6.21152">
        <ele>456.4</ele>
        <time>2013-08-17T09:49:05Z</time>
      </trkpt>
      <trkpt lat="45.79524" lon="6.21152">
        <ele>456.6</ele>
        <time>2013-08-17T09:49:06Z</time>
      </trkpt>
      <trkpt lat="45.79527" lon="6.21152">
        <ele>456.7</ele>
        <time>2013-08-17T09:49:08Z</time>
      </trkpt>
      <trkpt lat="45.7953" lon="6.21152">
        <ele>456.7</ele>
        <time>2013-08-17T09:49:10Z</time>
      </trkpt>
      <trkpt lat="45.79558" lon="6.21132">
        <ele>458.3</ele>
        <time>2013-08-17T09:49:19Z</time>
      </trkpt>
      <trkpt lat="45.79562" lon="6.21131">
        <ele>458.6</ele>
        <time>2013-08-17T09:49:20Z</time>
      </trkpt>
      <trkpt lat="45.79568" lon="6.21129">
        <ele>459.1</ele>
        <time>2013-08-17T09:49:21Z</time>
      </trkpt>
      <trkpt lat="45.79574" lon="6.21128">
        <ele>459.6</ele>
        <time>2013-08-17T09:49:23Z</time>
      </trkpt>
      <trkpt lat="45.79577" lon="6.21128">
        <ele>459.9</ele>
        <time>2013-08-17T09:49:24Z</time>
      </trkpt>
      <trkpt lat="45.79581" lon="6.21128">
        <ele>460.2</ele>
        <time>2013-08-17T09:49:25Z</time>
      </trkpt>
      <trkpt lat="45.79584" lon="6.21128">
        <ele>460.5</ele>
        <time>2013-08-17T09:49:26Z</time>
      </trkpt>
      <trkpt lat="45.79588" lon="6.21128">
        <ele>460.8</ele>
        <time>2013-08-17T09:49:27Z</time>
      </trkpt>
      <trkpt lat="45.79592" lon="6.21128">
        <ele>461.1</ele>
        <time>2013-08-17T09:49:28Z</time>
      </trkpt>
      <trkpt lat="45.79597" lon="6.21128">
        <ele>461.5</ele>
        <time>2013-08-17T09:49:29Z</time>
      </trkpt>
      <trkpt lat="45.79606" lon="6.21128">
        <ele>462.2</ele>
        <time>2013-08-17T09:49:30Z</time>
      </trkpt>
      <trkpt lat="45.7961" lon="6.21128">
        <ele>462.6</ele>
        <time>2013-08-17T09:49:31Z</time>
      </trkpt>
      <trkpt lat="45.79614" lon="6.21128">
        <ele>462.9</ele>
        <time>2013-08-17T09:49:32Z</time>
      </trkpt>
      <trkpt lat="45.79618" lon="6.21128">
        <ele>463.2</ele>
        <time>2013-08-17T09:49:33Z</time>
      </trkpt>
      <trkpt lat="45.79624" lon="6.21128">
        <ele>463.8</ele>
        <time>2013-08-17T09:49:34Z</time>
      </trkpt>
      <trkpt lat="45.79631" lon="6.21128">
        <ele>464</ele>
        <time>2013-08-17T09:49:35Z</time>
      </trkpt>
      <trkpt lat="45.79636" lon="6.21128">
        <ele>464.1</ele>
        <time>2013-08-17T09:49:36Z</time>
      </trkpt>
      <trkpt lat="45.7964" lon="6.21128">
        <ele>464.2</ele>
        <time>2013-08-17T09:49:37Z</time>
      </trkpt>
      <trkpt lat="45.79644" lon="6.21128">
        <ele>464.3</ele>
        <time>2013-08-17T09:49:38Z</time>
      </trkpt>
      <trkpt lat="45.79652" lon="6.21128">
        <ele>464.4</ele>
        <time>2013-08-17T09:49:39Z</time>
      </trkpt>
      <trkpt lat="45.79657" lon="6.21128">
        <ele>464.6</ele>
        <time>2013-08-17T09:49:40Z</time>
      </trkpt>
      <trkpt lat="45.79662" lon="6.21128">
        <ele>464.7</ele>
        <time>2013-08-17T09:49:41Z</time>
      </trkpt>
      <trkpt lat="45.79667" lon="6.21128">
        <ele>464.8</ele>
        <time>2013-08-17T09:49:42Z</time>
      </trkpt>
      <trkpt lat="45.79672" lon="6.21127">
        <ele>464.9</ele>
        <time>2013-08-17T09:49:43Z</time>
      </trkpt>
      <trkpt lat="45.79677" lon="6.21127">
        <ele>465.1</ele>
        <time>2013-08-17T09:49:44Z</time>
      </trkpt>
      <trkpt lat="45.79683" lon="6.21127">
        <ele>465.2</ele>
        <time>2013-08-17T09:49:45Z</time>
      </trkpt>
      <trkpt lat="45.79689" lon="6.21127">
        <ele>465.4</ele>
        <time>2013-08-17T09:49:46Z</time>
      </trkpt>
      <trkpt lat="45.79693" lon="6.21127">
        <ele>465.5</ele>
        <time>2013-08-17T09:49:47Z</time>
      </trkpt>
      <trkpt lat="45.79699" lon="6.21127">
        <ele>465.6</ele>
        <time>2013-08-17T09:49:48Z</time>
      </trkpt>
      <trkpt lat="45.79704" lon="6.21127">
        <ele>465.8</ele>
        <time>2013-08-17T09:49:49Z</time>
      </trkpt>
      <trkpt lat="45.79712" lon="6.21126">
        <ele>465.8</ele>
        <time>2013-08-17T09:49:50Z</time>
      </trkpt>
      <trkpt lat="45.79718" lon="6.21126">
        <ele>465.7</ele>
        <time>2013-08-17T09:49:51Z</time>
      </trkpt>
      <trkpt lat="45.79725" lon="6.21126">
        <ele>465.5</ele>
        <time>2013-08-17T09:49:52Z</time>
      </trkpt>
      <trkpt lat="45.7973" lon="6.21126">
        <ele>465.4</ele>
        <time>2013-08-17T09:49:53Z</time>
      </trkpt>
      <trkpt lat="45.79739" lon="6.21126">
        <ele>465.2</ele>
        <time>2013-08-17T09:49:54Z</time>
      </trkpt>
      <trkpt lat="45.79745" lon="6.21126">
        <ele>465.1</ele>
        <time>2013-08-17T09:49:55Z</time>
      </trkpt>
      <trkpt lat="45.79752" lon="6.21125">
        <ele>464.9</ele>
        <time>2013-08-17T09:49:56Z</time>
      </trkpt>
      <trkpt lat="45.79757" lon="6.21142">
        <ele>463.2</ele>
        <time>2013-08-17T09:49:57Z</time>
      </trkpt>
      <trkpt lat="45.79764" lon="6.21163">
        <ele>460.8</ele>
        <time>2013-08-17T09:49:58Z</time>
      </trkpt>
      <trkpt lat="45.79771" lon="6.21164">
        <ele>460.6</ele>
        <time>2013-08-17T09:49:59Z</time>
      </trkpt>
      <trkpt lat="45.79777" lon="6.21163">
        <ele>460.4</ele>
        <time>2013-08-17T09:50:00Z</time>
      </trkpt>
      <trkpt lat="45.79783" lon="6.21163">
        <ele>460.2</ele>
        <time>2013-08-17T09:50:01Z</time>
      </trkpt>
      <trkpt lat="45.79788" lon="6.21162">
        <ele>460.1</ele>
        <time>2013-08-17T09:50:02Z</time>
      </trkpt>
      <trkpt lat="45.79794" lon="6.21162">
        <ele>459.9</ele>
        <time>2013-08-17T09:50:03Z</time>
      </trkpt>
      <trkpt lat="45.798" lon="6.21162">
        <ele>459.7</ele>
        <time>2013-08-17T09:50:04Z</time>
      </trkpt>
      <trkpt lat="45.79805" lon="6.21162">
        <ele>459.5</ele>
        <time>2013-08-17T09:50:05Z</time>
      </trkpt>
      <trkpt lat="45.79811" lon="6.21163">
        <ele>459.3</ele>
        <time>2013-08-17T09:50:06Z</time>
      </trkpt>
      <trkpt lat="45.79817" lon="6.21163">
        <ele>459.1</ele>
        <time>2013-08-17T09:50:07Z</time>
      </trkpt>
      <trkpt lat="45.79823" lon="6.21163">
        <ele>458.9</ele>
        <time>2013-08-17T09:50:08Z</time>
      </trkpt>
      <trkpt lat="45.79829" lon="6.21162">
        <ele>458.8</ele>
        <time>2013-08-17T09:50:09Z</time>
      </trkpt>
      <trkpt lat="45.79835" lon="6.21161">
        <ele>458.7</ele>
        <time>2013-08-17T09:50:10Z</time>
      </trkpt>
      <trkpt lat="45.79839" lon="6.21161">
        <ele>458.5</ele>
        <time>2013-08-17T09:50:11Z</time>
      </trkpt>
      <trkpt lat="45.79845" lon="6.21161">
        <ele>458.3</ele>
        <time>2013-08-17T09:50:12Z</time>
      </trkpt>
      <trkpt lat="45.79851" lon="6.21161">
        <ele>458.1</ele>
        <time>2013-08-17T09:50:13Z</time>
      </trkpt>
      <trkpt lat="45.79857" lon="6.21162">
        <ele>457.9</ele>
        <time>2013-08-17T09:50:14Z</time>
      </trkpt>
      <trkpt lat="45.79863" lon="6.21162">
        <ele>457.7</ele>
        <time>2013-08-17T09:50:15Z</time>
      </trkpt>
      <trkpt lat="45.79869" lon="6.21161">
        <ele>457.5</ele>
        <time>2013-08-17T09:50:16Z</time>
      </trkpt>
      <trkpt lat="45.79874" lon="6.2116">
        <ele>457.4</ele>
        <time>2013-08-17T09:50:17Z</time>
      </trkpt>
      <trkpt lat="45.7988" lon="6.2116">
        <ele>457.5</ele>
        <time>2013-08-17T09:50:18Z</time>
      </trkpt>
      <trkpt lat="45.79885" lon="6.21159">
        <ele>457.6</ele>
        <time>2013-08-17T09:50:19Z</time>
      </trkpt>
      <trkpt lat="45.79892" lon="6.21159">
        <ele>457.8</ele>
        <time>2013-08-17T09:50:20Z</time>
      </trkpt>
      <trkpt lat="45.79897" lon="6.21159">
        <ele>458</ele>
        <time>2013-08-17T09:50:21Z</time>
      </trkpt>
      <trkpt lat="45.79903" lon="6.21157">
        <ele>458.3</ele>
        <time>2013-08-17T09:50:22Z</time>
      </trkpt>
      <trkpt lat="45.79909" lon="6.21157">
        <ele>458.4</ele>
        <time>2013-08-17T09:50:23Z</time>
      </trkpt>
      <trkpt lat="45.79915" lon="6.21156">
        <ele>458.6</ele>
        <time>2013-08-17T09:50:24Z</time>
      </trkpt>
      <trkpt lat="45.79921" lon="6.21157">
        <ele>458.8</ele>
        <time>2013-08-17T09:50:25Z</time>
      </trkpt>
      <trkpt lat="45.79927" lon="6.21156">
        <ele>459</ele>
        <time>2013-08-17T09:50:26Z</time>
      </trkpt>
      <trkpt lat="45.79933" lon="6.21155">
        <ele>459.2</ele>
        <time>2013-08-17T09:50:27Z</time>
      </trkpt>
      <trkpt lat="45.79939" lon="6.21155">
        <ele>459.4</ele>
        <time>2013-08-17T09:50:28Z</time>
      </trkpt>
      <trkpt lat="45.79945" lon="6.21155">
        <ele>459.5</ele>
        <time>2013-08-17T09:50:29Z</time>
      </trkpt>
      <trkpt lat="45.7995" lon="6.21155">
        <ele>459.7</ele>
        <time>2013-08-17T09:50:30Z</time>
      </trkpt>
      <trkpt lat="45.79956" lon="6.21156">
        <ele>459.8</ele>
        <time>2013-08-17T09:50:31Z</time>
      </trkpt>
      <trkpt lat="45.79962" lon="6.21157">
        <ele>459.9</ele>
        <time>2013-08-17T09:50:32Z</time>
      </trkpt>
      <trkpt lat="45.79968" lon="6.21156">
        <ele>460</ele>
        <time>2013-08-17T09:50:33Z</time>
      </trkpt>
      <trkpt lat="45.79973" lon="6.21156">
        <ele>460.1</ele>
        <time>2013-08-17T09:50:34Z</time>
      </trkpt>
      <trkpt lat="45.79978" lon="6.21156">
        <ele>460.3</ele>
        <time>2013-08-17T09:50:35Z</time>
      </trkpt>
      <trkpt lat="45.79984" lon="6.21156">
        <ele>460.3</ele>
        <time>2013-08-17T09:50:36Z</time>
      </trkpt>
      <trkpt lat="45.79991" lon="6.21155">
        <ele>460.5</ele>
        <time>2013-08-17T09:50:37Z</time>
      </trkpt>
      <trkpt lat="45.79997" lon="6.21154">
        <ele>460.6</ele>
        <time>2013-08-17T09:50:38Z</time>
      </trkpt>
      <trkpt lat="45.80003" lon="6.21152">
        <ele>460.7</ele>
        <time>2013-08-17T09:50:39Z</time>
      </trkpt>
      <trkpt lat="45.80009" lon="6.21152">
        <ele>460.8</ele>
        <time>2013-08-17T09:50:40Z</time>
      </trkpt>
      <trkpt lat="45.80016" lon="6.21152">
        <ele>460.9</ele>
        <time>2013-08-17T09:50:41Z</time>
      </trkpt>
      <trkpt lat="45.80022" lon="6.21153">
        <ele>461</ele>
        <time>2013-08-17T09:50:42Z</time>
      </trkpt>
      <trkpt lat="45.80028" lon="6.21153">
        <ele>461.1</ele>
        <time>2013-08-17T09:50:43Z</time>
      </trkpt>
      <trkpt lat="45.80035" lon="6.21153">
        <ele>461.2</ele>
        <time>2013-08-17T09:50:44Z</time>
      </trkpt>
      <trkpt lat="45.80041" lon="6.21154">
        <ele>461.3</ele>
        <time>2013-08-17T09:50:45Z</time>
      </trkpt>
      <trkpt lat="45.80047" lon="6.21153">
        <ele>461.4</ele>
        <time>2013-08-17T09:50:46Z</time>
      </trkpt>
      <trkpt lat="45.80053" lon="6.21152">
        <ele>461.6</ele>
        <time>2013-08-17T09:50:47Z</time>
      </trkpt>
      <trkpt lat="45.80059" lon="6.21152">
        <ele>461.7</ele>
        <time>2013-08-17T09:50:48Z</time>
      </trkpt>
      <trkpt lat="45.80066" lon="6.21152">
        <ele>461.8</ele>
        <time>2013-08-17T09:50:49Z</time>
      </trkpt>
      <trkpt lat="45.80072" lon="6.21152">
        <ele>461.9</ele>
        <time>2013-08-17T09:50:50Z</time>
      </trkpt>
      <trkpt lat="45.80079" lon="6.21152">
        <ele>462.1</ele>
        <time>2013-08-17T09:50:51Z</time>
      </trkpt>
      <trkpt lat="45.80084" lon="6.21154">
        <ele>462.2</ele>
        <time>2013-08-17T09:50:52Z</time>
      </trkpt>
      <trkpt lat="45.8009" lon="6.21153">
        <ele>462.3</ele>
        <time>2013-08-17T09:50:53Z</time>
      </trkpt>
      <trkpt lat="45.80096" lon="6.21153">
        <ele>462.4</ele>
        <time>2013-08-17T09:50:54Z</time>
      </trkpt>
      <trkpt lat="45.80101" lon="6.21154">
        <ele>462.5</ele>
        <time>2013-08-17T09:50:55Z</time>
      </trkpt>
      <trkpt lat="45.80107" lon="6.21155">
        <ele>462.6</ele>
        <time>2013-08-17T09:50:56Z</time>
      </trkpt>
      <trkpt lat="45.80114" lon="6.21155">
        <ele>462.7</ele>
        <time>2013-08-17T09:50:57Z</time>
      </trkpt>
      <trkpt lat="45.8012" lon="6.21156">
        <ele>462.8</ele>
        <time>2013-08-17T09:50:58Z</time>
      </trkpt>
      <trkpt lat="45.80126" lon="6.21154">
        <ele>463</ele>
        <time>2013-08-17T09:50:59Z</time>
      </trkpt>
      <trkpt lat="45.80131" lon="6.21153">
        <ele>463.1</ele>
        <time>2013-08-17T09:51:00Z</time>
      </trkpt>
      <trkpt lat="45.80137" lon="6.21153">
        <ele>463.2</ele>
        <time>2013-08-17T09:51:01Z</time>
      </trkpt>
      <trkpt lat="45.80144" lon="6.21154">
        <ele>463.4</ele>
        <time>2013-08-17T09:51:02Z</time>
      </trkpt>
      <trkpt lat="45.80151" lon="6.21152">
        <ele>463.5</ele>
        <time>2013-08-17T09:51:03Z</time>
      </trkpt>
      <trkpt lat="45.80158" lon="6.21152">
        <ele>463.7</ele>
        <time>2013-08-17T09:51:04Z</time>
      </trkpt>
      <trkpt lat="45.80166" lon="6.21152">
        <ele>463.8</ele>
        <time>2013-08-17T09:51:05Z</time>
      </trkpt>
      <trkpt lat="45.80172" lon="6.21152">
        <ele>464</ele>
        <time>2013-08-17T09:51:06Z</time>
      </trkpt>
      <trkpt lat="45.80177" lon="6.21151">
        <ele>464.1</ele>
        <time>2013-08-17T09:51:07Z</time>
      </trkpt>
      <trkpt lat="45.80184" lon="6.21151">
        <ele>464.2</ele>
        <time>2013-08-17T09:51:08Z</time>
      </trkpt>
      <trkpt lat="45.80189" lon="6.21151">
        <ele>464.3</ele>
        <time>2013-08-17T09:51:09Z</time>
      </trkpt>
      <trkpt lat="45.80196" lon="6.21152">
        <ele>464.4</ele>
        <time>2013-08-17T09:51:10Z</time>
      </trkpt>
      <trkpt lat="45.80201" lon="6.21151">
        <ele>464.5</ele>
        <time>2013-08-17T09:51:11Z</time>
      </trkpt>
      <trkpt lat="45.80205" lon="6.21151">
        <ele>464.6</ele>
        <time>2013-08-17T09:51:12Z</time>
      </trkpt>
      <trkpt lat="45.80211" lon="6.21153">
        <ele>464.8</ele>
        <time>2013-08-17T09:51:13Z</time>
      </trkpt>
      <trkpt lat="45.80217" lon="6.21153">
        <ele>464.9</ele>
        <time>2013-08-17T09:51:14Z</time>
      </trkpt>
      <trkpt lat="45.80223" lon="6.21154">
        <ele>465.1</ele>
        <time>2013-08-17T09:51:15Z</time>
      </trkpt>
      <trkpt lat="45.80228" lon="6.21154">
        <ele>465.3</ele>
        <time>2013-08-17T09:51:16Z</time>
      </trkpt>
      <trkpt lat="45.80233" lon="6.21151">
        <ele>465.5</ele>
        <time>2013-08-17T09:51:17Z</time>
      </trkpt>
      <trkpt lat="45.80238" lon="6.21151">
        <ele>465.7</ele>
        <time>2013-08-17T09:51:19Z</time>
      </trkpt>
      <trkpt lat="45.80243" lon="6.21151">
        <ele>465.8</ele>
        <time>2013-08-17T09:51:20Z</time>
      </trkpt>
      <trkpt lat="45.80247" lon="6.21152">
        <ele>465.9</ele>
        <time>2013-08-17T09:51:21Z</time>
      </trkpt>
      <trkpt lat="45.80253" lon="6.21151">
        <ele>466.1</ele>
        <time>2013-08-17T09:51:22Z</time>
      </trkpt>
      <trkpt lat="45.80258" lon="6.21151">
        <ele>466.3</ele>
        <time>2013-08-17T09:51:23Z</time>
      </trkpt>
      <trkpt lat="45.80262" lon="6.21152">
        <ele>466.4</ele>
        <time>2013-08-17T09:51:24Z</time>
      </trkpt>
      <trkpt lat="45.80265" lon="6.21152">
        <ele>466.5</ele>
        <time>2013-08-17T09:51:25Z</time>
      </trkpt>
      <trkpt lat="45.80272" lon="6.2115">
        <ele>466.7</ele>
        <time>2013-08-17T09:51:26Z</time>
      </trkpt>
      <trkpt lat="45.80277" lon="6.21151">
        <ele>466.9</ele>
        <time>2013-08-17T09:51:27Z</time>
      </trkpt>
      <trkpt lat="45.80281" lon="6.21152">
        <ele>467</ele>
        <time>2013-08-17T09:51:28Z</time>
      </trkpt>
      <trkpt lat="45.80285" lon="6.21152">
        <ele>467.1</ele>
        <time>2013-08-17T09:51:29Z</time>
      </trkpt>
      <trkpt lat="45.80291" lon="6.21151">
        <ele>467.3</ele>
        <time>2013-08-17T09:51:30Z</time>
      </trkpt>
      <trkpt lat="45.80298" lon="6.21152">
        <ele>467.5</ele>
        <time>2013-08-17T09:51:31Z</time>
      </trkpt>
      <trkpt lat="45.80303" lon="6.21152">
        <ele>467.5</ele>
        <time>2013-08-17T09:51:32Z</time>
      </trkpt>
      <trkpt lat="45.80311" lon="6.21151">
        <ele>467.7</ele>
        <time>2013-08-17T09:51:33Z</time>
      </trkpt>
      <trkpt lat="45.80317" lon="6.21149">
        <ele>467.9</ele>
        <time>2013-08-17T09:51:34Z</time>
      </trkpt>
      <trkpt lat="45.80326" lon="6.21148">
        <ele>468</ele>
        <time>2013-08-17T09:51:35Z</time>
      </trkpt>
      <trkpt lat="45.80332" lon="6.21147">
        <ele>468.2</ele>
        <time>2013-08-17T09:51:36Z</time>
      </trkpt>
      <trkpt lat="45.80342" lon="6.21145">
        <ele>468.4</ele>
        <time>2013-08-17T09:51:37Z</time>
      </trkpt>
      <trkpt lat="45.80348" lon="6.21144">
        <ele>468.6</ele>
        <time>2013-08-17T09:51:38Z</time>
      </trkpt>
      <trkpt lat="45.80352" lon="6.21143">
        <ele>468.7</ele>
        <time>2013-08-17T09:51:39Z</time>
      </trkpt>
      <trkpt lat="45.80355" lon="6.21143">
        <ele>468.8</ele>
        <time>2013-08-17T09:51:40Z</time>
      </trkpt>
      <trkpt lat="45.80362" lon="6.21143">
        <ele>468.9</ele>
        <time>2013-08-17T09:51:42Z</time>
      </trkpt>
      <trkpt lat="45.80367" lon="6.21142">
        <ele>469</ele>
        <time>2013-08-17T09:51:43Z</time>
      </trkpt>
      <trkpt lat="45.80374" lon="6.21139">
        <ele>469.3</ele>
        <time>2013-08-17T09:51:44Z</time>
      </trkpt>
      <trkpt lat="45.8038" lon="6.21137">
        <ele>469.6</ele>
        <time>2013-08-17T09:51:45Z</time>
      </trkpt>
      <trkpt lat="45.80386" lon="6.21133">
        <ele>469.9</ele>
        <time>2013-08-17T09:51:46Z</time>
      </trkpt>
      <trkpt lat="45.80394" lon="6.21131">
        <ele>470.1</ele>
        <time>2013-08-17T09:51:47Z</time>
      </trkpt>
      <trkpt lat="45.80402" lon="6.2113">
        <ele>470.4</ele>
        <time>2013-08-17T09:51:48Z</time>
      </trkpt>
      <trkpt lat="45.80413" lon="6.21127">
        <ele>470.8</ele>
        <time>2013-08-17T09:51:49Z</time>
      </trkpt>
      <trkpt lat="45.80421" lon="6.21124">
        <ele>471.1</ele>
        <time>2013-08-17T09:51:50Z</time>
      </trkpt>
      <trkpt lat="45.80427" lon="6.21121">
        <ele>471.3</ele>
        <time>2013-08-17T09:51:51Z</time>
      </trkpt>
      <trkpt lat="45.80432" lon="6.2112">
        <ele>471.4</ele>
        <time>2013-08-17T09:51:52Z</time>
      </trkpt>
      <trkpt lat="45.80437" lon="6.21118">
        <ele>471.5</ele>
        <time>2013-08-17T09:51:53Z</time>
      </trkpt>
      <trkpt lat="45.80443" lon="6.21117">
        <ele>471.6</ele>
        <time>2013-08-17T09:51:54Z</time>
      </trkpt>
      <trkpt lat="45.80449" lon="6.21112">
        <ele>471.8</ele>
        <time>2013-08-17T09:51:55Z</time>
      </trkpt>
      <trkpt lat="45.80455" lon="6.21108">
        <ele>471.9</ele>
        <time>2013-08-17T09:51:56Z</time>
      </trkpt>
      <trkpt lat="45.80459" lon="6.21107">
        <ele>472</ele>
        <time>2013-08-17T09:51:57Z</time>
      </trkpt>
      <trkpt lat="45.80461" lon="6.21109">
        <ele>472</ele>
        <time>2013-08-17T09:51:58Z</time>
      </trkpt>
      <trkpt lat="45.80467" lon="6.21109">
        <ele>472.1</ele>
        <time>2013-08-17T09:51:59Z</time>
      </trkpt>
      <trkpt lat="45.80477" lon="6.21106">
        <ele>472.2</ele>
        <time>2013-08-17T09:52:00Z</time>
      </trkpt>
      <trkpt lat="45.80483" lon="6.21104">
        <ele>472.3</ele>
        <time>2013-08-17T09:52:01Z</time>
      </trkpt>
      <trkpt lat="45.80488" lon="6.21101">
        <ele>472.4</ele>
        <time>2013-08-17T09:52:02Z</time>
      </trkpt>
      <trkpt lat="45.80493" lon="6.21099">
        <ele>472.4</ele>
        <time>2013-08-17T09:52:03Z</time>
      </trkpt>
      <trkpt lat="45.80499" lon="6.21097">
        <ele>472.5</ele>
        <time>2013-08-17T09:52:04Z</time>
      </trkpt>
      <trkpt lat="45.80506" lon="6.21096">
        <ele>472.6</ele>
        <time>2013-08-17T09:52:05Z</time>
      </trkpt>
      <trkpt lat="45.80515" lon="6.21095">
        <ele>472.7</ele>
        <time>2013-08-17T09:52:06Z</time>
      </trkpt>
      <trkpt lat="45.80522" lon="6.21092">
        <ele>472.8</ele>
        <time>2013-08-17T09:52:07Z</time>
      </trkpt>
      <trkpt lat="45.80528" lon="6.21092">
        <ele>472.8</ele>
        <time>2013-08-17T09:52:08Z</time>
      </trkpt>
      <trkpt lat="45.80534" lon="6.21089">
        <ele>472.9</ele>
        <time>2013-08-17T09:52:09Z</time>
      </trkpt>
      <trkpt lat="45.80539" lon="6.21087">
        <ele>473</ele>
        <time>2013-08-17T09:52:10Z</time>
      </trkpt>
      <trkpt lat="45.80544" lon="6.21087">
        <ele>473</ele>
        <time>2013-08-17T09:52:11Z</time>
      </trkpt>
      <trkpt lat="45.80549" lon="6.21085">
        <ele>473</ele>
        <time>2013-08-17T09:52:12Z</time>
      </trkpt>
      <trkpt lat="45.80554" lon="6.21084">
        <ele>473</ele>
        <time>2013-08-17T09:52:13Z</time>
      </trkpt>
      <trkpt lat="45.80557" lon="6.21084">
        <ele>473</ele>
        <time>2013-08-17T09:52:14Z</time>
      </trkpt>
      <trkpt lat="45.8056" lon="6.21082">
        <ele>473</ele>
        <time>2013-08-17T09:52:15Z</time>
      </trkpt>
      <trkpt lat="45.80566" lon="6.21077">
        <ele>473</ele>
        <time>2013-08-17T09:52:17Z</time>
      </trkpt>
      <trkpt lat="45.8057" lon="6.21074">
        <ele>473.1</ele>
        <time>2013-08-17T09:52:18Z</time>
      </trkpt>
      <trkpt lat="45.80578" lon="6.2107">
        <ele>473.1</ele>
        <time>2013-08-17T09:52:19Z</time>
      </trkpt>
      <trkpt lat="45.80584" lon="6.2107">
        <ele>473.2</ele>
        <time>2013-08-17T09:52:20Z</time>
      </trkpt>
      <trkpt lat="45.80588" lon="6.21068">
        <ele>473.2</ele>
        <time>2013-08-17T09:52:21Z</time>
      </trkpt>
      <trkpt lat="45.806" lon="6.21066">
        <ele>473.3</ele>
        <time>2013-08-17T09:52:22Z</time>
      </trkpt>
      <trkpt lat="45.80605" lon="6.21063">
        <ele>473.4</ele>
        <time>2013-08-17T09:52:23Z</time>
      </trkpt>
      <trkpt lat="45.8061" lon="6.21059">
        <ele>473.5</ele>
        <time>2013-08-17T09:52:24Z</time>
      </trkpt>
      <trkpt lat="45.80617" lon="6.21057">
        <ele>473.6</ele>
        <time>2013-08-17T09:52:25Z</time>
      </trkpt>
      <trkpt lat="45.80622" lon="6.21055">
        <ele>473.6</ele>
        <time>2013-08-17T09:52:26Z</time>
      </trkpt>
      <trkpt lat="45.80629" lon="6.21054">
        <ele>473.6</ele>
        <time>2013-08-17T09:52:27Z</time>
      </trkpt>
      <trkpt lat="45.80635" lon="6.21052">
        <ele>473.5</ele>
        <time>2013-08-17T09:52:28Z</time>
      </trkpt>
      <trkpt lat="45.80641" lon="6.21049">
        <ele>473.4</ele>
        <time>2013-08-17T09:52:29Z</time>
      </trkpt>
      <trkpt lat="45.80647" lon="6.21046">
        <ele>473.4</ele>
        <time>2013-08-17T09:52:30Z</time>
      </trkpt>
      <trkpt lat="45.80653" lon="6.21043">
        <ele>473.3</ele>
        <time>2013-08-17T09:52:31Z</time>
      </trkpt>
      <trkpt lat="45.8066" lon="6.21041">
        <ele>473.2</ele>
        <time>2013-08-17T09:52:32Z</time>
      </trkpt>
      <trkpt lat="45.80666" lon="6.21038">
        <ele>473.1</ele>
        <time>2013-08-17T09:52:33Z</time>
      </trkpt>
      <trkpt lat="45.80672" lon="6.21037">
        <ele>473.1</ele>
        <time>2013-08-17T09:52:34Z</time>
      </trkpt>
      <trkpt lat="45.80677" lon="6.21035">
        <ele>473</ele>
        <time>2013-08-17T09:52:35Z</time>
      </trkpt>
      <trkpt lat="45.80681" lon="6.21031">
        <ele>473.1</ele>
        <time>2013-08-17T09:52:36Z</time>
      </trkpt>
      <trkpt lat="45.80686" lon="6.21029">
        <ele>473</ele>
        <time>2013-08-17T09:52:37Z</time>
      </trkpt>
      <trkpt lat="45.80692" lon="6.21026">
        <ele>473.1</ele>
        <time>2013-08-17T09:52:38Z</time>
      </trkpt>
      <trkpt lat="45.80697" lon="6.21024">
        <ele>473.1</ele>
        <time>2013-08-17T09:52:39Z</time>
      </trkpt>
      <trkpt lat="45.80701" lon="6.21023">
        <ele>473</ele>
        <time>2013-08-17T09:52:40Z</time>
      </trkpt>
      <trkpt lat="45.80704" lon="6.21021">
        <ele>473.1</ele>
        <time>2013-08-17T09:52:41Z</time>
      </trkpt>
      <trkpt lat="45.80708" lon="6.2102">
        <ele>473.1</ele>
        <time>2013-08-17T09:52:42Z</time>
      </trkpt>
      <trkpt lat="45.8071" lon="6.21018">
        <ele>473.1</ele>
        <time>2013-08-17T09:52:43Z</time>
      </trkpt>
      <trkpt lat="45.80715" lon="6.21016">
        <ele>473.2</ele>
        <time>2013-08-17T09:52:45Z</time>
      </trkpt>
      <trkpt lat="45.80722" lon="6.21013">
        <ele>473.2</ele>
        <time>2013-08-17T09:52:47Z</time>
      </trkpt>
      <trkpt lat="45.80726" lon="6.21011">
        <ele>473.2</ele>
        <time>2013-08-17T09:52:48Z</time>
      </trkpt>
      <trkpt lat="45.8073" lon="6.2101">
        <ele>473.3</ele>
        <time>2013-08-17T09:52:49Z</time>
      </trkpt>
      <trkpt lat="45.80733" lon="6.21009">
        <ele>473.3</ele>
        <time>2013-08-17T09:52:50Z</time>
      </trkpt>
      <trkpt lat="45.80738" lon="6.21008">
        <ele>473.3</ele>
        <time>2013-08-17T09:52:51Z</time>
      </trkpt>
      <trkpt lat="45.80742" lon="6.21007">
        <ele>473.3</ele>
        <time>2013-08-17T09:52:52Z</time>
      </trkpt>
      <trkpt lat="45.80747" lon="6.21006">
        <ele>473.3</ele>
        <time>2013-08-17T09:52:53Z</time>
      </trkpt>
      <trkpt lat="45.8076" lon="6.21005">
        <ele>473.1</ele>
        <time>2013-08-17T09:52:54Z</time>
      </trkpt>
      <trkpt lat="45.80772" lon="6.21005">
        <ele>473</ele>
        <time>2013-08-17T09:52:55Z</time>
      </trkpt>
      <trkpt lat="45.80779" lon="6.21003">
        <ele>473</ele>
        <time>2013-08-17T09:52:56Z</time>
      </trkpt>
      <trkpt lat="45.80786" lon="6.21001">
        <ele>473</ele>
        <time>2013-08-17T09:52:57Z</time>
      </trkpt>
      <trkpt lat="45.80791" lon="6.21">
        <ele>473</ele>
        <time>2013-08-17T09:52:58Z</time>
      </trkpt>
      <trkpt lat="45.80797" lon="6.20999">
        <ele>472.9</ele>
        <time>2013-08-17T09:52:59Z</time>
      </trkpt>
      <trkpt lat="45.80805" lon="6.20992">
        <ele>473</ele>
        <time>2013-08-17T09:53:00Z</time>
      </trkpt>
      <trkpt lat="45.80812" lon="6.20989">
        <ele>473</ele>
        <time>2013-08-17T09:53:01Z</time>
      </trkpt>
      <trkpt lat="45.80819" lon="6.20986">
        <ele>473</ele>
        <time>2013-08-17T09:53:02Z</time>
      </trkpt>
      <trkpt lat="45.80825" lon="6.20983">
        <ele>473</ele>
        <time>2013-08-17T09:53:03Z</time>
      </trkpt>
      <trkpt lat="45.80832" lon="6.20982">
        <ele>473</ele>
        <time>2013-08-17T09:53:04Z</time>
      </trkpt>
      <trkpt lat="45.80838" lon="6.20981">
        <ele>472.9</ele>
        <time>2013-08-17T09:53:05Z</time>
      </trkpt>
      <trkpt lat="45.80843" lon="6.20978">
        <ele>473</ele>
        <time>2013-08-17T09:53:06Z</time>
      </trkpt>
      <trkpt lat="45.80849" lon="6.20976">
        <ele>473</ele>
        <time>2013-08-17T09:53:07Z</time>
      </trkpt>
      <trkpt lat="45.80855" lon="6.20973">
        <ele>473.1</ele>
        <time>2013-08-17T09:53:08Z</time>
      </trkpt>
      <trkpt lat="45.80862" lon="6.20972">
        <ele>473.1</ele>
        <time>2013-08-17T09:53:09Z</time>
      </trkpt>
      <trkpt lat="45.80869" lon="6.20969">
        <ele>473.2</ele>
        <time>2013-08-17T09:53:10Z</time>
      </trkpt>
      <trkpt lat="45.80875" lon="6.20966">
        <ele>473.4</ele>
        <time>2013-08-17T09:53:11Z</time>
      </trkpt>
      <trkpt lat="45.80881" lon="6.20965">
        <ele>473.3</ele>
        <time>2013-08-17T09:53:12Z</time>
      </trkpt>
      <trkpt lat="45.80887" lon="6.20962">
        <ele>473.3</ele>
        <time>2013-08-17T09:53:13Z</time>
      </trkpt>
      <trkpt lat="45.80893" lon="6.20958">
        <ele>473.3</ele>
        <time>2013-08-17T09:53:14Z</time>
      </trkpt>
      <trkpt lat="45.80899" lon="6.20958">
        <ele>473.1</ele>
        <time>2013-08-17T09:53:15Z</time>
      </trkpt>
      <trkpt lat="45.80905" lon="6.20954">
        <ele>473</ele>
        <time>2013-08-17T09:53:16Z</time>
      </trkpt>
      <trkpt lat="45.8091" lon="6.20952">
        <ele>472.8</ele>
        <time>2013-08-17T09:53:17Z</time>
      </trkpt>
      <trkpt lat="45.80915" lon="6.20951">
        <ele>472.7</ele>
        <time>2013-08-17T09:53:18Z</time>
      </trkpt>
      <trkpt lat="45.80919" lon="6.2095">
        <ele>472.6</ele>
        <time>2013-08-17T09:53:19Z</time>
      </trkpt>
      <trkpt lat="45.80924" lon="6.2095">
        <ele>472.4</ele>
        <time>2013-08-17T09:53:20Z</time>
      </trkpt>
      <trkpt lat="45.80929" lon="6.20951">
        <ele>472.2</ele>
        <time>2013-08-17T09:53:21Z</time>
      </trkpt>
      <trkpt lat="45.80933" lon="6.20951">
        <ele>472.1</ele>
        <time>2013-08-17T09:53:22Z</time>
      </trkpt>
      <trkpt lat="45.80938" lon="6.2095">
        <ele>472</ele>
        <time>2013-08-17T09:53:23Z</time>
      </trkpt>
      <trkpt lat="45.80942" lon="6.2095">
        <ele>471.9</ele>
        <time>2013-08-17T09:53:24Z</time>
      </trkpt>
      <trkpt lat="45.80945" lon="6.2095">
        <ele>471.7</ele>
        <time>2013-08-17T09:53:25Z</time>
      </trkpt>
      <trkpt lat="45.80948" lon="6.20949">
        <ele>471.6</ele>
        <time>2013-08-17T09:53:26Z</time>
      </trkpt>
      <trkpt lat="45.8095" lon="6.20945">
        <ele>471.8</ele>
        <time>2013-08-17T09:53:27Z</time>
      </trkpt>
      <trkpt lat="45.80953" lon="6.20943">
        <ele>471.7</ele>
        <time>2013-08-17T09:53:28Z</time>
      </trkpt>
      <trkpt lat="45.80957" lon="6.20938">
        <ele>471.8</ele>
        <time>2013-08-17T09:53:30Z</time>
      </trkpt>
      <trkpt lat="45.80959" lon="6.20934">
        <ele>471.9</ele>
        <time>2013-08-17T09:53:31Z</time>
      </trkpt>
      <trkpt lat="45.80961" lon="6.2093">
        <ele>471.9</ele>
        <time>2013-08-17T09:53:33Z</time>
      </trkpt>
      <trkpt lat="45.80964" lon="6.20928">
        <ele>471.9</ele>
        <time>2013-08-17T09:53:35Z</time>
      </trkpt>
      <trkpt lat="45.80967" lon="6.2093">
        <ele>471.8</ele>
        <time>2013-08-17T09:53:37Z</time>
      </trkpt>
      <trkpt lat="45.80971" lon="6.20932">
        <ele>471.6</ele>
        <time>2013-08-17T09:53:40Z</time>
      </trkpt>
      <trkpt lat="45.80975" lon="6.20932">
        <ele>471.4</ele>
        <time>2013-08-17T09:53:42Z</time>
      </trkpt>
      <trkpt lat="45.8098" lon="6.20929">
        <ele>471.4</ele>
        <time>2013-08-17T09:53:44Z</time>
      </trkpt>
      <trkpt lat="45.80982" lon="6.20928">
        <ele>471.3</ele>
        <time>2013-08-17T09:53:45Z</time>
      </trkpt>
      <trkpt lat="45.80987" lon="6.20925">
        <ele>471.3</ele>
        <time>2013-08-17T09:53:47Z</time>
      </trkpt>
      <trkpt lat="45.80991" lon="6.20924">
        <ele>471.2</ele>
        <time>2013-08-17T09:53:48Z</time>
      </trkpt>
      <trkpt lat="45.80996" lon="6.20922">
        <ele>471.2</ele>
        <time>2013-08-17T09:53:50Z</time>
      </trkpt>
      <trkpt lat="45.81" lon="6.2092">
        <ele>471.1</ele>
        <time>2013-08-17T09:53:51Z</time>
      </trkpt>
      <trkpt lat="45.81003" lon="6.20919">
        <ele>471.1</ele>
        <time>2013-08-17T09:53:52Z</time>
      </trkpt>
      <trkpt lat="45.81006" lon="6.20917">
        <ele>471</ele>
        <time>2013-08-17T09:53:53Z</time>
      </trkpt>
      <trkpt lat="45.81009" lon="6.20916">
        <ele>471</ele>
        <time>2013-08-17T09:53:54Z</time>
      </trkpt>
      <trkpt lat="45.81013" lon="6.20914">
        <ele>471</ele>
        <time>2013-08-17T09:53:55Z</time>
      </trkpt>
      <trkpt lat="45.81016" lon="6.20912">
        <ele>471</ele>
        <time>2013-08-17T09:53:56Z</time>
      </trkpt>
      <trkpt lat="45.81019" lon="6.20911">
        <ele>470.9</ele>
        <time>2013-08-17T09:53:57Z</time>
      </trkpt>
      <trkpt lat="45.81022" lon="6.20909">
        <ele>470.9</ele>
        <time>2013-08-17T09:53:58Z</time>
      </trkpt>
      <trkpt lat="45.81026" lon="6.20908">
        <ele>470.9</ele>
        <time>2013-08-17T09:53:59Z</time>
      </trkpt>
      <trkpt lat="45.81029" lon="6.20907">
        <ele>470.9</ele>
        <time>2013-08-17T09:54:00Z</time>
      </trkpt>
      <trkpt lat="45.81033" lon="6.20905">
        <ele>470.8</ele>
        <time>2013-08-17T09:54:01Z</time>
      </trkpt>
      <trkpt lat="45.81037" lon="6.20904">
        <ele>470.7</ele>
        <time>2013-08-17T09:54:02Z</time>
      </trkpt>
      <trkpt lat="45.81041" lon="6.20903">
        <ele>470.7</ele>
        <time>2013-08-17T09:54:03Z</time>
      </trkpt>
      <trkpt lat="45.81045" lon="6.20902">
        <ele>470.6</ele>
        <time>2013-08-17T09:54:04Z</time>
      </trkpt>
      <trkpt lat="45.81049" lon="6.20901">
        <ele>470.5</ele>
        <time>2013-08-17T09:54:05Z</time>
      </trkpt>
      <trkpt lat="45.81053" lon="6.20899">
        <ele>470.4</ele>
        <time>2013-08-17T09:54:06Z</time>
      </trkpt>
      <trkpt lat="45.81057" lon="6.20898">
        <ele>470.3</ele>
        <time>2013-08-17T09:54:07Z</time>
      </trkpt>
      <trkpt lat="45.81061" lon="6.20897">
        <ele>470.1</ele>
        <time>2013-08-17T09:54:08Z</time>
      </trkpt>
      <trkpt lat="45.81065" lon="6.20896">
        <ele>470</ele>
        <time>2013-08-17T09:54:09Z</time>
      </trkpt>
      <trkpt lat="45.81069" lon="6.20895">
        <ele>469.9</ele>
        <time>2013-08-17T09:54:10Z</time>
      </trkpt>
      <trkpt lat="45.81073" lon="6.20893">
        <ele>469.8</ele>
        <time>2013-08-17T09:54:11Z</time>
      </trkpt>
      <trkpt lat="45.81077" lon="6.20892">
        <ele>469.7</ele>
        <time>2013-08-17T09:54:12Z</time>
      </trkpt>
      <trkpt lat="45.81082" lon="6.2089">
        <ele>469.5</ele>
        <time>2013-08-17T09:54:13Z</time>
      </trkpt>
      <trkpt lat="45.81086" lon="6.20888">
        <ele>469.4</ele>
        <time>2013-08-17T09:54:14Z</time>
      </trkpt>
      <trkpt lat="45.81089" lon="6.20887">
        <ele>469.3</ele>
        <time>2013-08-17T09:54:15Z</time>
      </trkpt>
      <trkpt lat="45.81093" lon="6.20885">
        <ele>469.2</ele>
        <time>2013-08-17T09:54:16Z</time>
      </trkpt>
      <trkpt lat="45.81097" lon="6.20884">
        <ele>469.1</ele>
        <time>2013-08-17T09:54:17Z</time>
      </trkpt>
      <trkpt lat="45.811" lon="6.20883">
        <ele>468.9</ele>
        <time>2013-08-17T09:54:18Z</time>
      </trkpt>
      <trkpt lat="45.81104" lon="6.20881">
        <ele>468.8</ele>
        <time>2013-08-17T09:54:19Z</time>
      </trkpt>
      <trkpt lat="45.81109" lon="6.2088">
        <ele>468.6</ele>
        <time>2013-08-17T09:54:20Z</time>
      </trkpt>
      <trkpt lat="45.81112" lon="6.20879">
        <ele>468.5</ele>
        <time>2013-08-17T09:54:21Z</time>
      </trkpt>
      <trkpt lat="45.81115" lon="6.20878">
        <ele>468.4</ele>
        <time>2013-08-17T09:54:22Z</time>
      </trkpt>
      <trkpt lat="45.8112" lon="6.20876">
        <ele>468.2</ele>
        <time>2013-08-17T09:54:24Z</time>
      </trkpt>
      <trkpt lat="45.81125" lon="6.20874">
        <ele>468.1</ele>
        <time>2013-08-17T09:54:26Z</time>
      </trkpt>
      <trkpt lat="45.81128" lon="6.20872">
        <ele>468.6</ele>
        <time>2013-08-17T09:54:28Z</time>
      </trkpt>
      <trkpt lat="45.81131" lon="6.20871">
        <ele>468.8</ele>
        <time>2013-08-17T09:54:29Z</time>
      </trkpt>
      <trkpt lat="45.81134" lon="6.20869">
        <ele>469</ele>
        <time>2013-08-17T09:54:30Z</time>
      </trkpt>
      <trkpt lat="45.81138" lon="6.20868">
        <ele>469.3</ele>
        <time>2013-08-17T09:54:31Z</time>
      </trkpt>
      <trkpt lat="45.81142" lon="6.20866">
        <ele>469.6</ele>
        <time>2013-08-17T09:54:32Z</time>
      </trkpt>
      <trkpt lat="45.81146" lon="6.20865">
        <ele>469.9</ele>
        <time>2013-08-17T09:54:33Z</time>
      </trkpt>
      <trkpt lat="45.81151" lon="6.20862">
        <ele>470.3</ele>
        <time>2013-08-17T09:54:34Z</time>
      </trkpt>
      <trkpt lat="45.81155" lon="6.2086">
        <ele>470.6</ele>
        <time>2013-08-17T09:54:35Z</time>
      </trkpt>
      <trkpt lat="45.8116" lon="6.20858">
        <ele>470.9</ele>
        <time>2013-08-17T09:54:36Z</time>
      </trkpt>
      <trkpt lat="45.81165" lon="6.20857">
        <ele>471.2</ele>
        <time>2013-08-17T09:54:37Z</time>
      </trkpt>
      <trkpt lat="45.81169" lon="6.20855">
        <ele>471.5</ele>
        <time>2013-08-17T09:54:38Z</time>
      </trkpt>
      <trkpt lat="45.81172" lon="6.20854">
        <ele>471.7</ele>
        <time>2013-08-17T09:54:39Z</time>
      </trkpt>
      <trkpt lat="45.81177" lon="6.20852">
        <ele>472</ele>
        <time>2013-08-17T09:54:40Z</time>
      </trkpt>
      <trkpt lat="45.81182" lon="6.20849">
        <ele>472.5</ele>
        <time>2013-08-17T09:54:41Z</time>
      </trkpt>
      <trkpt lat="45.81187" lon="6.20846">
        <ele>473</ele>
        <time>2013-08-17T09:54:42Z</time>
      </trkpt>
      <trkpt lat="45.81193" lon="6.20846">
        <ele>473.1</ele>
        <time>2013-08-17T09:54:43Z</time>
      </trkpt>
      <trkpt lat="45.81197" lon="6.20845">
        <ele>473.3</ele>
        <time>2013-08-17T09:54:44Z</time>
      </trkpt>
      <trkpt lat="45.81202" lon="6.20843">
        <ele>473.6</ele>
        <time>2013-08-17T09:54:45Z</time>
      </trkpt>
      <trkpt lat="45.81207" lon="6.20841">
        <ele>473.8</ele>
        <time>2013-08-17T09:54:46Z</time>
      </trkpt>
      <trkpt lat="45.81214" lon="6.20839">
        <ele>474</ele>
        <time>2013-08-17T09:54:47Z</time>
      </trkpt>
      <trkpt lat="45.81219" lon="6.20839">
        <ele>473.9</ele>
        <time>2013-08-17T09:54:48Z</time>
      </trkpt>
      <trkpt lat="45.81224" lon="6.20838">
        <ele>473.9</ele>
        <time>2013-08-17T09:54:49Z</time>
      </trkpt>
      <trkpt lat="45.81229" lon="6.20836">
        <ele>474</ele>
        <time>2013-08-17T09:54:50Z</time>
      </trkpt>
      <trkpt lat="45.81234" lon="6.20835">
        <ele>474</ele>
        <time>2013-08-17T09:54:51Z</time>
      </trkpt>
      <trkpt lat="45.8124" lon="6.20833">
        <ele>474.1</ele>
        <time>2013-08-17T09:54:52Z</time>
      </trkpt>
      <trkpt lat="45.81245" lon="6.20831">
        <ele>474.2</ele>
        <time>2013-08-17T09:54:53Z</time>
      </trkpt>
      <trkpt lat="45.8125" lon="6.20829">
        <ele>474.4</ele>
        <time>2013-08-17T09:54:54Z</time>
      </trkpt>
      <trkpt lat="45.81253" lon="6.20828">
        <ele>474.5</ele>
        <time>2013-08-17T09:54:55Z</time>
      </trkpt>
      <trkpt lat="45.81257" lon="6.20825">
        <ele>474.9</ele>
        <time>2013-08-17T09:54:56Z</time>
      </trkpt>
      <trkpt lat="45.8126" lon="6.20823">
        <ele>475.1</ele>
        <time>2013-08-17T09:54:57Z</time>
      </trkpt>
      <trkpt lat="45.81264" lon="6.20822">
        <ele>475.1</ele>
        <time>2013-08-17T09:54:58Z</time>
      </trkpt>
      <trkpt lat="45.81269" lon="6.20822">
        <ele>475</ele>
        <time>2013-08-17T09:54:59Z</time>
      </trkpt>
      <trkpt lat="45.81275" lon="6.20821">
        <ele>475</ele>
        <time>2013-08-17T09:55:00Z</time>
      </trkpt>
      <trkpt lat="45.81288" lon="6.2082">
        <ele>474.7</ele>
        <time>2013-08-17T09:55:01Z</time>
      </trkpt>
      <trkpt lat="45.81295" lon="6.20818">
        <ele>474.8</ele>
        <time>2013-08-17T09:55:02Z</time>
      </trkpt>
      <trkpt lat="45.813" lon="6.20817">
        <ele>475.1</ele>
        <time>2013-08-17T09:55:03Z</time>
      </trkpt>
      <trkpt lat="45.81307" lon="6.20815">
        <ele>475.3</ele>
        <time>2013-08-17T09:55:04Z</time>
      </trkpt>
      <trkpt lat="45.81313" lon="6.20813">
        <ele>475.7</ele>
        <time>2013-08-17T09:55:05Z</time>
      </trkpt>
      <trkpt lat="45.81319" lon="6.2081">
        <ele>476.3</ele>
        <time>2013-08-17T09:55:06Z</time>
      </trkpt>
      <trkpt lat="45.81325" lon="6.20811">
        <ele>476.2</ele>
        <time>2013-08-17T09:55:07Z</time>
      </trkpt>
      <trkpt lat="45.81331" lon="6.20809">
        <ele>476.6</ele>
        <time>2013-08-17T09:55:08Z</time>
      </trkpt>
      <trkpt lat="45.81338" lon="6.20808">
        <ele>476.8</ele>
        <time>2013-08-17T09:55:09Z</time>
      </trkpt>
      <trkpt lat="45.81344" lon="6.20806">
        <ele>477.2</ele>
        <time>2013-08-17T09:55:10Z</time>
      </trkpt>
      <trkpt lat="45.81349" lon="6.20807">
        <ele>477.2</ele>
        <time>2013-08-17T09:55:11Z</time>
      </trkpt>
      <trkpt lat="45.81356" lon="6.20806">
        <ele>477.4</ele>
        <time>2013-08-17T09:55:12Z</time>
      </trkpt>
      <trkpt lat="45.81361" lon="6.20804">
        <ele>478</ele>
        <time>2013-08-17T09:55:13Z</time>
      </trkpt>
      <trkpt lat="45.81366" lon="6.20803">
        <ele>478.2</ele>
        <time>2013-08-17T09:55:14Z</time>
      </trkpt>
      <trkpt lat="45.81373" lon="6.20803">
        <ele>478.3</ele>
        <time>2013-08-17T09:55:15Z</time>
      </trkpt>
      <trkpt lat="45.81378" lon="6.20802">
        <ele>478.3</ele>
        <time>2013-08-17T09:55:16Z</time>
      </trkpt>
      <trkpt lat="45.81385" lon="6.208">
        <ele>478.2</ele>
        <time>2013-08-17T09:55:17Z</time>
      </trkpt>
      <trkpt lat="45.81391" lon="6.20799">
        <ele>477.7</ele>
        <time>2013-08-17T09:55:18Z</time>
      </trkpt>
      <trkpt lat="45.81396" lon="6.20798">
        <ele>477.3</ele>
        <time>2013-08-17T09:55:19Z</time>
      </trkpt>
      <trkpt lat="45.81402" lon="6.20797">
        <ele>477</ele>
        <time>2013-08-17T09:55:20Z</time>
      </trkpt>
      <trkpt lat="45.81407" lon="6.20794">
        <ele>477.1</ele>
        <time>2013-08-17T09:55:21Z</time>
      </trkpt>
      <trkpt lat="45.81413" lon="6.20794">
        <ele>476.5</ele>
        <time>2013-08-17T09:55:22Z</time>
      </trkpt>
      <trkpt lat="45.81419" lon="6.20793">
        <ele>476</ele>
        <time>2013-08-17T09:55:23Z</time>
      </trkpt>
      <trkpt lat="45.81427" lon="6.20792">
        <ele>475.3</ele>
        <time>2013-08-17T09:55:24Z</time>
      </trkpt>
      <trkpt lat="45.81432" lon="6.2079">
        <ele>475.1</ele>
        <time>2013-08-17T09:55:25Z</time>
      </trkpt>
      <trkpt lat="45.81439" lon="6.20788">
        <ele>474.7</ele>
        <time>2013-08-17T09:55:26Z</time>
      </trkpt>
      <trkpt lat="45.81446" lon="6.20788">
        <ele>474</ele>
        <time>2013-08-17T09:55:27Z</time>
      </trkpt>
      <trkpt lat="45.81453" lon="6.20786">
        <ele>473.5</ele>
        <time>2013-08-17T09:55:28Z</time>
      </trkpt>
      <trkpt lat="45.81459" lon="6.20785">
        <ele>473</ele>
        <time>2013-08-17T09:55:29Z</time>
      </trkpt>
      <trkpt lat="45.81466" lon="6.20787">
        <ele>472.5</ele>
        <time>2013-08-17T09:55:30Z</time>
      </trkpt>
      <trkpt lat="45.81473" lon="6.20782">
        <ele>473.1</ele>
        <time>2013-08-17T09:55:31Z</time>
      </trkpt>
      <trkpt lat="45.81479" lon="6.2078">
        <ele>473.1</ele>
        <time>2013-08-17T09:55:32Z</time>
      </trkpt>
      <trkpt lat="45.81485" lon="6.20777">
        <ele>473.4</ele>
        <time>2013-08-17T09:55:33Z</time>
      </trkpt>
      <trkpt lat="45.81492" lon="6.20775">
        <ele>473.5</ele>
        <time>2013-08-17T09:55:34Z</time>
      </trkpt>
      <trkpt lat="45.81499" lon="6.20774">
        <ele>473.4</ele>
        <time>2013-08-17T09:55:35Z</time>
      </trkpt>
      <trkpt lat="45.81505" lon="6.20773">
        <ele>473.4</ele>
        <time>2013-08-17T09:55:36Z</time>
      </trkpt>
      <trkpt lat="45.81514" lon="6.20781">
        <ele>471.8</ele>
        <time>2013-08-17T09:55:37Z</time>
      </trkpt>
      <trkpt lat="45.81524" lon="6.20789">
        <ele>470.1</ele>
        <time>2013-08-17T09:55:38Z</time>
      </trkpt>
      <trkpt lat="45.8153" lon="6.20785">
        <ele>470.5</ele>
        <time>2013-08-17T09:55:39Z</time>
      </trkpt>
      <trkpt lat="45.8154" lon="6.2078">
        <ele>471</ele>
        <time>2013-08-17T09:55:40Z</time>
      </trkpt>
      <trkpt lat="45.81548" lon="6.20776">
        <ele>471.2</ele>
        <time>2013-08-17T09:55:42Z</time>
      </trkpt>
      <trkpt lat="45.81555" lon="6.20774">
        <ele>471.3</ele>
        <time>2013-08-17T09:55:43Z</time>
      </trkpt>
      <trkpt lat="45.81561" lon="6.20771">
        <ele>471.4</ele>
        <time>2013-08-17T09:55:44Z</time>
      </trkpt>
      <trkpt lat="45.81569" lon="6.20769">
        <ele>471.4</ele>
        <time>2013-08-17T09:55:45Z</time>
      </trkpt>
      <trkpt lat="45.81574" lon="6.20767">
        <ele>471.4</ele>
        <time>2013-08-17T09:55:46Z</time>
      </trkpt>
      <trkpt lat="45.81581" lon="6.20766">
        <ele>471.4</ele>
        <time>2013-08-17T09:55:47Z</time>
      </trkpt>
      <trkpt lat="45.81587" lon="6.20764">
        <ele>471.3</ele>
        <time>2013-08-17T09:55:48Z</time>
      </trkpt>
      <trkpt lat="45.81595" lon="6.20762">
        <ele>471.2</ele>
        <time>2013-08-17T09:55:49Z</time>
      </trkpt>
      <trkpt lat="45.81602" lon="6.20761">
        <ele>471.1</ele>
        <time>2013-08-17T09:55:50Z</time>
      </trkpt>
      <trkpt lat="45.8161" lon="6.20759">
        <ele>471</ele>
        <time>2013-08-17T09:55:51Z</time>
      </trkpt>
      <trkpt lat="45.81618" lon="6.20757">
        <ele>471</ele>
        <time>2013-08-17T09:55:52Z</time>
      </trkpt>
      <trkpt lat="45.81627" lon="6.20755">
        <ele>470.8</ele>
        <time>2013-08-17T09:55:53Z</time>
      </trkpt>
      <trkpt lat="45.81635" lon="6.20754">
        <ele>470.6</ele>
        <time>2013-08-17T09:55:54Z</time>
      </trkpt>
      <trkpt lat="45.81642" lon="6.20752">
        <ele>470.3</ele>
        <time>2013-08-17T09:55:55Z</time>
      </trkpt>
      <trkpt lat="45.8165" lon="6.2075">
        <ele>470</ele>
        <time>2013-08-17T09:55:56Z</time>
      </trkpt>
      <trkpt lat="45.81657" lon="6.20749">
        <ele>469.7</ele>
        <time>2013-08-17T09:55:57Z</time>
      </trkpt>
      <trkpt lat="45.81665" lon="6.20747">
        <ele>469.4</ele>
        <time>2013-08-17T09:55:58Z</time>
      </trkpt>
      <trkpt lat="45.81672" lon="6.20746">
        <ele>469.1</ele>
        <time>2013-08-17T09:55:59Z</time>
      </trkpt>
      <trkpt lat="45.81679" lon="6.20744">
        <ele>468.8</ele>
        <time>2013-08-17T09:56:00Z</time>
      </trkpt>
      <trkpt lat="45.81711" lon="6.20728">
        <ele>468.8</ele>
        <time>2013-08-17T09:56:05Z</time>
      </trkpt>
      <trkpt lat="45.81718" lon="6.20726">
        <ele>468.9</ele>
        <time>2013-08-17T09:56:06Z</time>
      </trkpt>
      <trkpt lat="45.81725" lon="6.20723">
        <ele>469.2</ele>
        <time>2013-08-17T09:56:07Z</time>
      </trkpt>
      <trkpt lat="45.81732" lon="6.20721">
        <ele>469.2</ele>
        <time>2013-08-17T09:56:08Z</time>
      </trkpt>
      <trkpt lat="45.8174" lon="6.2072">
        <ele>469.2</ele>
        <time>2013-08-17T09:56:09Z</time>
      </trkpt>
      <trkpt lat="45.81747" lon="6.20718">
        <ele>469.2</ele>
        <time>2013-08-17T09:56:10Z</time>
      </trkpt>
      <trkpt lat="45.81754" lon="6.20717">
        <ele>469.1</ele>
        <time>2013-08-17T09:56:11Z</time>
      </trkpt>
      <trkpt lat="45.81761" lon="6.20715">
        <ele>469.2</ele>
        <time>2013-08-17T09:56:12Z</time>
      </trkpt>
      <trkpt lat="45.81767" lon="6.20712">
        <ele>469.4</ele>
        <time>2013-08-17T09:56:13Z</time>
      </trkpt>
      <trkpt lat="45.81775" lon="6.20713">
        <ele>469</ele>
        <time>2013-08-17T09:56:14Z</time>
      </trkpt>
      <trkpt lat="45.81781" lon="6.20708">
        <ele>469.4</ele>
        <time>2013-08-17T09:56:15Z</time>
      </trkpt>
      <trkpt lat="45.81787" lon="6.20706">
        <ele>469.5</ele>
        <time>2013-08-17T09:56:16Z</time>
      </trkpt>
      <trkpt lat="45.81794" lon="6.20704">
        <ele>469.5</ele>
        <time>2013-08-17T09:56:17Z</time>
      </trkpt>
      <trkpt lat="45.818" lon="6.20702">
        <ele>469.4</ele>
        <time>2013-08-17T09:56:18Z</time>
      </trkpt>
      <trkpt lat="45.81807" lon="6.20702">
        <ele>469</ele>
        <time>2013-08-17T09:56:19Z</time>
      </trkpt>
      <trkpt lat="45.81814" lon="6.20701">
        <ele>468.7</ele>
        <time>2013-08-17T09:56:20Z</time>
      </trkpt>
      <trkpt lat="45.81821" lon="6.20697">
        <ele>468.8</ele>
        <time>2013-08-17T09:56:21Z</time>
      </trkpt>
      <trkpt lat="45.81829" lon="6.20694">
        <ele>468.8</ele>
        <time>2013-08-17T09:56:22Z</time>
      </trkpt>
      <trkpt lat="45.81837" lon="6.20693">
        <ele>468.4</ele>
        <time>2013-08-17T09:56:23Z</time>
      </trkpt>
      <trkpt lat="45.81843" lon="6.20692">
        <ele>468.2</ele>
        <time>2013-08-17T09:56:24Z</time>
      </trkpt>
      <trkpt lat="45.8185" lon="6.20688">
        <ele>468.5</ele>
        <time>2013-08-17T09:56:25Z</time>
      </trkpt>
      <trkpt lat="45.81856" lon="6.20684">
        <ele>468.6</ele>
        <time>2013-08-17T09:56:26Z</time>
      </trkpt>
      <trkpt lat="45.81864" lon="6.20682">
        <ele>468.4</ele>
        <time>2013-08-17T09:56:27Z</time>
      </trkpt>
      <trkpt lat="45.8187" lon="6.2068">
        <ele>468.5</ele>
        <time>2013-08-17T09:56:28Z</time>
      </trkpt>
      <trkpt lat="45.81877" lon="6.20677">
        <ele>468.6</ele>
        <time>2013-08-17T09:56:29Z</time>
      </trkpt>
      <trkpt lat="45.81884" lon="6.20674">
        <ele>468.9</ele>
        <time>2013-08-17T09:56:30Z</time>
      </trkpt>
      <trkpt lat="45.81889" lon="6.2067">
        <ele>469.5</ele>
        <time>2013-08-17T09:56:31Z</time>
      </trkpt>
      <trkpt lat="45.81896" lon="6.20666">
        <ele>470</ele>
        <time>2013-08-17T09:56:32Z</time>
      </trkpt>
      <trkpt lat="45.81903" lon="6.20662">
        <ele>470.5</ele>
        <time>2013-08-17T09:56:33Z</time>
      </trkpt>
      <trkpt lat="45.81911" lon="6.20661">
        <ele>470.5</ele>
        <time>2013-08-17T09:56:34Z</time>
      </trkpt>
      <trkpt lat="45.81918" lon="6.20657">
        <ele>471</ele>
        <time>2013-08-17T09:56:35Z</time>
      </trkpt>
      <trkpt lat="45.81922" lon="6.20658">
        <ele>470.7</ele>
        <time>2013-08-17T09:56:36Z</time>
      </trkpt>
      <trkpt lat="45.81929" lon="6.20656">
        <ele>470.8</ele>
        <time>2013-08-17T09:56:37Z</time>
      </trkpt>
      <trkpt lat="45.81939" lon="6.20653">
        <ele>471.2</ele>
        <time>2013-08-17T09:56:38Z</time>
      </trkpt>
      <trkpt lat="45.81945" lon="6.20649">
        <ele>471.7</ele>
        <time>2013-08-17T09:56:39Z</time>
      </trkpt>
      <trkpt lat="45.81952" lon="6.20646">
        <ele>472.1</ele>
        <time>2013-08-17T09:56:40Z</time>
      </trkpt>
      <trkpt lat="45.81957" lon="6.20643">
        <ele>472.7</ele>
        <time>2013-08-17T09:56:41Z</time>
      </trkpt>
      <trkpt lat="45.81963" lon="6.20639">
        <ele>473.3</ele>
        <time>2013-08-17T09:56:42Z</time>
      </trkpt>
      <trkpt lat="45.8197" lon="6.20636">
        <ele>474.1</ele>
        <time>2013-08-17T09:56:43Z</time>
      </trkpt>
      <trkpt lat="45.81976" lon="6.20633">
        <ele>475</ele>
        <time>2013-08-17T09:56:44Z</time>
      </trkpt>
      <trkpt lat="45.81983" lon="6.2063">
        <ele>475.8</ele>
        <time>2013-08-17T09:56:45Z</time>
      </trkpt>
      <trkpt lat="45.8199" lon="6.20627">
        <ele>476.7</ele>
        <time>2013-08-17T09:56:46Z</time>
      </trkpt>
      <trkpt lat="45.81996" lon="6.20625">
        <ele>477.3</ele>
        <time>2013-08-17T09:56:47Z</time>
      </trkpt>
      <trkpt lat="45.82004" lon="6.20622">
        <ele>478.5</ele>
        <time>2013-08-17T09:56:48Z</time>
      </trkpt>
      <trkpt lat="45.8201" lon="6.20622">
        <ele>478.8</ele>
        <time>2013-08-17T09:56:49Z</time>
      </trkpt>
      <trkpt lat="45.82018" lon="6.20621">
        <ele>479.4</ele>
        <time>2013-08-17T09:56:50Z</time>
      </trkpt>
      <trkpt lat="45.82027" lon="6.2062">
        <ele>480.3</ele>
        <time>2013-08-17T09:56:51Z</time>
      </trkpt>
      <trkpt lat="45.82034" lon="6.20619">
        <ele>480.8</ele>
        <time>2013-08-17T09:56:52Z</time>
      </trkpt>
      <trkpt lat="45.82041" lon="6.20618">
        <ele>481.5</ele>
        <time>2013-08-17T09:56:53Z</time>
      </trkpt>
      <trkpt lat="45.82048" lon="6.20618">
        <ele>482.2</ele>
        <time>2013-08-17T09:56:54Z</time>
      </trkpt>
      <trkpt lat="45.82055" lon="6.20619">
        <ele>482.8</ele>
        <time>2013-08-17T09:56:55Z</time>
      </trkpt>
      <trkpt lat="45.82062" lon="6.2062">
        <ele>483.6</ele>
        <time>2013-08-17T09:56:56Z</time>
      </trkpt>
      <trkpt lat="45.82069" lon="6.20621">
        <ele>484.3</ele>
        <time>2013-08-17T09:56:57Z</time>
      </trkpt>
      <trkpt lat="45.82076" lon="6.20622">
        <ele>484.9</ele>
        <time>2013-08-17T09:56:58Z</time>
      </trkpt>
      <trkpt lat="45.82082" lon="6.20621">
        <ele>485.9</ele>
        <time>2013-08-17T09:56:59Z</time>
      </trkpt>
      <trkpt lat="45.82088" lon="6.20622">
        <ele>486.9</ele>
        <time>2013-08-17T09:57:00Z</time>
      </trkpt>
      <trkpt lat="45.82096" lon="6.20624">
        <ele>487.2</ele>
        <time>2013-08-17T09:57:01Z</time>
      </trkpt>
      <trkpt lat="45.82101" lon="6.20629">
        <ele>486.1</ele>
        <time>2013-08-17T09:57:02Z</time>
      </trkpt>
      <trkpt lat="45.82108" lon="6.20632">
        <ele>485.7</ele>
        <time>2013-08-17T09:57:03Z</time>
      </trkpt>
      <trkpt lat="45.82115" lon="6.20635">
        <ele>485.7</ele>
        <time>2013-08-17T09:57:04Z</time>
      </trkpt>
      <trkpt lat="45.82124" lon="6.20622">
        <ele>491.6</ele>
        <time>2013-08-17T09:57:05Z</time>
      </trkpt>
      <trkpt lat="45.82128" lon="6.20624">
        <ele>491.7</ele>
        <time>2013-08-17T09:57:06Z</time>
      </trkpt>
      <trkpt lat="45.82135" lon="6.20627">
        <ele>491.7</ele>
        <time>2013-08-17T09:57:07Z</time>
      </trkpt>
      <trkpt lat="45.82139" lon="6.2063">
        <ele>491.4</ele>
        <time>2013-08-17T09:57:08Z</time>
      </trkpt>
      <trkpt lat="45.82147" lon="6.20635">
        <ele>490.6</ele>
        <time>2013-08-17T09:57:09Z</time>
      </trkpt>
      <trkpt lat="45.82152" lon="6.20638">
        <ele>490</ele>
        <time>2013-08-17T09:57:10Z</time>
      </trkpt>
      <trkpt lat="45.82157" lon="6.20642">
        <ele>489.3</ele>
        <time>2013-08-17T09:57:11Z</time>
      </trkpt>
      <trkpt lat="45.82161" lon="6.20645">
        <ele>488.7</ele>
        <time>2013-08-17T09:57:12Z</time>
      </trkpt>
      <trkpt lat="45.82168" lon="6.2065">
        <ele>487.7</ele>
        <time>2013-08-17T09:57:13Z</time>
      </trkpt>
      <trkpt lat="45.82172" lon="6.20653">
        <ele>487</ele>
        <time>2013-08-17T09:57:14Z</time>
      </trkpt>
      <trkpt lat="45.82178" lon="6.20658">
        <ele>486</ele>
        <time>2013-08-17T09:57:15Z</time>
      </trkpt>
      <trkpt lat="45.82183" lon="6.20662">
        <ele>485.2</ele>
        <time>2013-08-17T09:57:16Z</time>
      </trkpt>
      <trkpt lat="45.8219" lon="6.20667">
        <ele>484</ele>
        <time>2013-08-17T09:57:17Z</time>
      </trkpt>
      <trkpt lat="45.82195" lon="6.20671">
        <ele>483</ele>
        <time>2013-08-17T09:57:18Z</time>
      </trkpt>
      <trkpt lat="45.822" lon="6.20675">
        <ele>482</ele>
        <time>2013-08-17T09:57:19Z</time>
      </trkpt>
      <trkpt lat="45.82207" lon="6.20681">
        <ele>480.7</ele>
        <time>2013-08-17T09:57:20Z</time>
      </trkpt>
      <trkpt lat="45.82214" lon="6.20687">
        <ele>479.6</ele>
        <time>2013-08-17T09:57:21Z</time>
      </trkpt>
      <trkpt lat="45.8222" lon="6.20691">
        <ele>478.7</ele>
        <time>2013-08-17T09:57:22Z</time>
      </trkpt>
      <trkpt lat="45.82226" lon="6.20696">
        <ele>477.7</ele>
        <time>2013-08-17T09:57:23Z</time>
      </trkpt>
      <trkpt lat="45.82232" lon="6.20701">
        <ele>476.7</ele>
        <time>2013-08-17T09:57:24Z</time>
      </trkpt>
      <trkpt lat="45.8224" lon="6.20708">
        <ele>475.1</ele>
        <time>2013-08-17T09:57:25Z</time>
      </trkpt>
      <trkpt lat="45.82243" lon="6.20711">
        <ele>475.1</ele>
        <time>2013-08-17T09:57:26Z</time>
      </trkpt>
      <trkpt lat="45.82248" lon="6.20716">
        <ele>475.1</ele>
        <time>2013-08-17T09:57:27Z</time>
      </trkpt>
      <trkpt lat="45.82254" lon="6.20721">
        <ele>475.1</ele>
        <time>2013-08-17T09:57:28Z</time>
      </trkpt>
      <trkpt lat="45.82259" lon="6.20726">
        <ele>475</ele>
        <time>2013-08-17T09:57:29Z</time>
      </trkpt>
      <trkpt lat="45.82263" lon="6.2073">
        <ele>475</ele>
        <time>2013-08-17T09:57:30Z</time>
      </trkpt>
      <trkpt lat="45.82269" lon="6.20735">
        <ele>474.9</ele>
        <time>2013-08-17T09:57:31Z</time>
      </trkpt>
      <trkpt lat="45.82273" lon="6.20738">
        <ele>474.9</ele>
        <time>2013-08-17T09:57:32Z</time>
      </trkpt>
      <trkpt lat="45.82277" lon="6.20742">
        <ele>474.8</ele>
        <time>2013-08-17T09:57:33Z</time>
      </trkpt>
      <trkpt lat="45.82283" lon="6.20747">
        <ele>474.6</ele>
        <time>2013-08-17T09:57:34Z</time>
      </trkpt>
      <trkpt lat="45.82286" lon="6.20751">
        <ele>474.4</ele>
        <time>2013-08-17T09:57:35Z</time>
      </trkpt>
      <trkpt lat="45.8229" lon="6.20754">
        <ele>474.2</ele>
        <time>2013-08-17T09:57:36Z</time>
      </trkpt>
      <trkpt lat="45.82295" lon="6.20759">
        <ele>473.9</ele>
        <time>2013-08-17T09:57:37Z</time>
      </trkpt>
      <trkpt lat="45.82301" lon="6.20766">
        <ele>473.3</ele>
        <time>2013-08-17T09:57:38Z</time>
      </trkpt>
      <trkpt lat="45.82306" lon="6.2077">
        <ele>472.9</ele>
        <time>2013-08-17T09:57:39Z</time>
      </trkpt>
      <trkpt lat="45.82312" lon="6.20775">
        <ele>472.3</ele>
        <time>2013-08-17T09:57:40Z</time>
      </trkpt>
      <trkpt lat="45.82319" lon="6.20781">
        <ele>471.7</ele>
        <time>2013-08-17T09:57:41Z</time>
      </trkpt>
      <trkpt lat="45.82327" lon="6.20788">
        <ele>470.8</ele>
        <time>2013-08-17T09:57:42Z</time>
      </trkpt>
      <trkpt lat="45.82336" lon="6.20795">
        <ele>470.4</ele>
        <time>2013-08-17T09:57:43Z</time>
      </trkpt>
      <trkpt lat="45.82343" lon="6.20799">
        <ele>470.4</ele>
        <time>2013-08-17T09:57:44Z</time>
      </trkpt>
      <trkpt lat="45.82351" lon="6.20803">
        <ele>470.6</ele>
        <time>2013-08-17T09:57:45Z</time>
      </trkpt>
      <trkpt lat="45.82358" lon="6.20806">
        <ele>470.7</ele>
        <time>2013-08-17T09:57:46Z</time>
      </trkpt>
      <trkpt lat="45.82364" lon="6.20808">
        <ele>470.9</ele>
        <time>2013-08-17T09:57:47Z</time>
      </trkpt>
      <trkpt lat="45.82372" lon="6.20811">
        <ele>471.3</ele>
        <time>2013-08-17T09:57:48Z</time>
      </trkpt>
      <trkpt lat="45.82379" lon="6.20813">
        <ele>471.5</ele>
        <time>2013-08-17T09:57:49Z</time>
      </trkpt>
      <trkpt lat="45.82386" lon="6.20815">
        <ele>471.6</ele>
        <time>2013-08-17T09:57:50Z</time>
      </trkpt>
      <trkpt lat="45.82392" lon="6.20816">
        <ele>471.7</ele>
        <time>2013-08-17T09:57:51Z</time>
      </trkpt>
      <trkpt lat="45.824" lon="6.20818">
        <ele>472</ele>
        <time>2013-08-17T09:57:52Z</time>
      </trkpt>
      <trkpt lat="45.82407" lon="6.20818">
        <ele>472.3</ele>
        <time>2013-08-17T09:57:53Z</time>
      </trkpt>
      <trkpt lat="45.82412" lon="6.20818">
        <ele>472.6</ele>
        <time>2013-08-17T09:57:54Z</time>
      </trkpt>
      <trkpt lat="45.82417" lon="6.20818">
        <ele>473</ele>
        <time>2013-08-17T09:57:55Z</time>
      </trkpt>
      <trkpt lat="45.82423" lon="6.20818">
        <ele>473.4</ele>
        <time>2013-08-17T09:57:56Z</time>
      </trkpt>
      <trkpt lat="45.8243" lon="6.20818">
        <ele>473.9</ele>
        <time>2013-08-17T09:57:57Z</time>
      </trkpt>
      <trkpt lat="45.82436" lon="6.20818">
        <ele>474.3</ele>
        <time>2013-08-17T09:57:58Z</time>
      </trkpt>
      <trkpt lat="45.82442" lon="6.20817">
        <ele>474.8</ele>
        <time>2013-08-17T09:57:59Z</time>
      </trkpt>
      <trkpt lat="45.82448" lon="6.20817">
        <ele>475.3</ele>
        <time>2013-08-17T09:58:00Z</time>
      </trkpt>
      <trkpt lat="45.82452" lon="6.20816">
        <ele>475.7</ele>
        <time>2013-08-17T09:58:01Z</time>
      </trkpt>
      <trkpt lat="45.82455" lon="6.20816">
        <ele>476</ele>
        <time>2013-08-17T09:58:02Z</time>
      </trkpt>
      <trkpt lat="45.82462" lon="6.20814">
        <ele>476.5</ele>
        <time>2013-08-17T09:58:03Z</time>
      </trkpt>
      <trkpt lat="45.82468" lon="6.20813">
        <ele>476.6</ele>
        <time>2013-08-17T09:58:04Z</time>
      </trkpt>
      <trkpt lat="45.82473" lon="6.20812">
        <ele>476.8</ele>
        <time>2013-08-17T09:58:05Z</time>
      </trkpt>
      <trkpt lat="45.82479" lon="6.20811">
        <ele>477</ele>
        <time>2013-08-17T09:58:06Z</time>
      </trkpt>
      <trkpt lat="45.82484" lon="6.20809">
        <ele>477.2</ele>
        <time>2013-08-17T09:58:07Z</time>
      </trkpt>
      <trkpt lat="45.82491" lon="6.20807">
        <ele>477.5</ele>
        <time>2013-08-17T09:58:08Z</time>
      </trkpt>
      <trkpt lat="45.82496" lon="6.20805">
        <ele>477.7</ele>
        <time>2013-08-17T09:58:09Z</time>
      </trkpt>
      <trkpt lat="45.82502" lon="6.20803">
        <ele>478</ele>
        <time>2013-08-17T09:58:10Z</time>
      </trkpt>
      <trkpt lat="45.82507" lon="6.20801">
        <ele>478.3</ele>
        <time>2013-08-17T09:58:11Z</time>
      </trkpt>
      <trkpt lat="45.82513" lon="6.20799">
        <ele>478.5</ele>
        <time>2013-08-17T09:58:12Z</time>
      </trkpt>
      <trkpt lat="45.82518" lon="6.20797">
        <ele>478.8</ele>
        <time>2013-08-17T09:58:13Z</time>
      </trkpt>
      <trkpt lat="45.82523" lon="6.20795">
        <ele>479.1</ele>
        <time>2013-08-17T09:58:14Z</time>
      </trkpt>
      <trkpt lat="45.82527" lon="6.20793">
        <ele>479.3</ele>
        <time>2013-08-17T09:58:15Z</time>
      </trkpt>
      <trkpt lat="45.82532" lon="6.2079">
        <ele>480</ele>
        <time>2013-08-17T09:58:16Z</time>
      </trkpt>
      <trkpt lat="45.82537" lon="6.20788">
        <ele>480.9</ele>
        <time>2013-08-17T09:58:17Z</time>
      </trkpt>
      <trkpt lat="45.82539" lon="6.20786">
        <ele>481.5</ele>
        <time>2013-08-17T09:58:18Z</time>
      </trkpt>
      <trkpt lat="45.82544" lon="6.20784">
        <ele>482</ele>
        <time>2013-08-17T09:58:19Z</time>
      </trkpt>
      <trkpt lat="45.82548" lon="6.20782">
        <ele>482.2</ele>
        <time>2013-08-17T09:58:20Z</time>
      </trkpt>
      <trkpt lat="45.82553" lon="6.20779">
        <ele>482.4</ele>
        <time>2013-08-17T09:58:21Z</time>
      </trkpt>
      <trkpt lat="45.82556" lon="6.20777">
        <ele>482.5</ele>
        <time>2013-08-17T09:58:22Z</time>
      </trkpt>
      <trkpt lat="45.82561" lon="6.20775">
        <ele>482.7</ele>
        <time>2013-08-17T09:58:23Z</time>
      </trkpt>
      <trkpt lat="45.82565" lon="6.20772">
        <ele>482.8</ele>
        <time>2013-08-17T09:58:24Z</time>
      </trkpt>
      <trkpt lat="45.8257" lon="6.2077">
        <ele>482.9</ele>
        <time>2013-08-17T09:58:25Z</time>
      </trkpt>
      <trkpt lat="45.82574" lon="6.20767">
        <ele>483</ele>
        <time>2013-08-17T09:58:26Z</time>
      </trkpt>
      <trkpt lat="45.82577" lon="6.20766">
        <ele>483.1</ele>
        <time>2013-08-17T09:58:27Z</time>
      </trkpt>
      <trkpt lat="45.82581" lon="6.20764">
        <ele>483.1</ele>
        <time>2013-08-17T09:58:28Z</time>
      </trkpt>
      <trkpt lat="45.82584" lon="6.20762">
        <ele>483.1</ele>
        <time>2013-08-17T09:58:29Z</time>
      </trkpt>
      <trkpt lat="45.82592" lon="6.20759">
        <ele>482.5</ele>
        <time>2013-08-17T09:58:31Z</time>
      </trkpt>
      <trkpt lat="45.82596" lon="6.20758">
        <ele>482.3</ele>
        <time>2013-08-17T09:58:33Z</time>
      </trkpt>
      <trkpt lat="45.826" lon="6.20756">
        <ele>481.9</ele>
        <time>2013-08-17T09:58:34Z</time>
      </trkpt>
      <trkpt lat="45.82606" lon="6.20754">
        <ele>481.4</ele>
        <time>2013-08-17T09:58:35Z</time>
      </trkpt>
      <trkpt lat="45.82605" lon="6.20741">
        <ele>486.4</ele>
        <time>2013-08-17T09:58:36Z</time>
      </trkpt>
      <trkpt lat="45.82609" lon="6.20737">
        <ele>487.1</ele>
        <time>2013-08-17T09:58:37Z</time>
      </trkpt>
      <trkpt lat="45.82612" lon="6.20733">
        <ele>487.7</ele>
        <time>2013-08-17T09:58:38Z</time>
      </trkpt>
      <trkpt lat="45.82615" lon="6.2073">
        <ele>488.1</ele>
        <time>2013-08-17T09:58:39Z</time>
      </trkpt>
      <trkpt lat="45.8262" lon="6.20727">
        <ele>487.7</ele>
        <time>2013-08-17T09:58:40Z</time>
      </trkpt>
      <trkpt lat="45.82623" lon="6.20727">
        <ele>487</ele>
        <time>2013-08-17T09:58:41Z</time>
      </trkpt>
      <trkpt lat="45.82626" lon="6.20727">
        <ele>486.3</ele>
        <time>2013-08-17T09:58:42Z</time>
      </trkpt>
      <trkpt lat="45.82629" lon="6.20731">
        <ele>484.4</ele>
        <time>2013-08-17T09:58:44Z</time>
      </trkpt>
      <trkpt lat="45.82631" lon="6.20735">
        <ele>482.5</ele>
        <time>2013-08-17T09:58:46Z</time>
      </trkpt>
      <trkpt lat="45.82645" lon="6.20726">
        <ele>482</ele>
        <time>2013-08-17T09:58:48Z</time>
      </trkpt>
      <trkpt lat="45.82643" lon="6.20714">
        <ele>486.4</ele>
        <time>2013-08-17T09:58:49Z</time>
      </trkpt>
      <trkpt lat="45.82641" lon="6.20696">
        <ele>496.4</ele>
        <time>2013-08-17T09:58:50Z</time>
      </trkpt>
      <trkpt lat="45.82644" lon="6.20692">
        <ele>498.1</ele>
        <time>2013-08-17T09:58:51Z</time>
      </trkpt>
      <trkpt lat="45.82646" lon="6.20688">
        <ele>499.6</ele>
        <time>2013-08-17T09:58:52Z</time>
      </trkpt>
      <trkpt lat="45.82653" lon="6.20694">
        <ele>494</ele>
        <time>2013-08-17T09:58:53Z</time>
      </trkpt>
      <trkpt lat="45.82667" lon="6.20706">
        <ele>482.8</ele>
        <time>2013-08-17T09:58:55Z</time>
      </trkpt>
      <trkpt lat="45.8267" lon="6.20703">
        <ele>483.8</ele>
        <time>2013-08-17T09:58:58Z</time>
      </trkpt>
      <trkpt lat="45.82676" lon="6.20698">
        <ele>484.5</ele>
        <time>2013-08-17T09:59:03Z</time>
      </trkpt>
      <trkpt lat="45.82671" lon="6.20453">
        <ele>490</ele>
        <time>2013-08-17T09:59:24Z</time>
      </trkpt>
      <trkpt lat="45.82679" lon="6.20436">
        <ele>480.5</ele>
        <time>2013-08-17T09:59:25Z</time>
      </trkpt>
      <trkpt lat="45.82684" lon="6.20433">
        <ele>477.4</ele>
        <time>2013-08-17T09:59:26Z</time>
      </trkpt>
      <trkpt lat="45.8268" lon="6.20424">
        <ele>475.7</ele>
        <time>2013-08-17T09:59:27Z</time>
      </trkpt>
      <trkpt lat="45.82677" lon="6.20414">
        <ele>473</ele>
        <time>2013-08-17T09:59:29Z</time>
      </trkpt>
      <trkpt lat="45.82672" lon="6.20413">
        <ele>474.1</ele>
        <time>2013-08-17T09:59:30Z</time>
      </trkpt>
      <trkpt lat="45.82675" lon="6.204">
        <ele>468.4</ele>
        <time>2013-08-17T09:59:31Z</time>
      </trkpt>
      <trkpt lat="45.82674" lon="6.20392">
        <ele>465.6</ele>
        <time>2013-08-17T09:59:32Z</time>
      </trkpt>
      <trkpt lat="45.82674" lon="6.20385">
        <ele>462.9</ele>
        <time>2013-08-17T09:59:33Z</time>
      </trkpt>
      <trkpt lat="45.82673" lon="6.20378">
        <ele>460.3</ele>
        <time>2013-08-17T09:59:34Z</time>
      </trkpt>
      <trkpt lat="45.82672" lon="6.20371">
        <ele>459.2</ele>
        <time>2013-08-17T09:59:35Z</time>
      </trkpt>
      <trkpt lat="45.8267" lon="6.20352">
        <ele>458</ele>
        <time>2013-08-17T09:59:36Z</time>
      </trkpt>
      <trkpt lat="45.82666" lon="6.20327">
        <ele>456.2</ele>
        <time>2013-08-17T09:59:37Z</time>
      </trkpt>
      <trkpt lat="45.82668" lon="6.20305">
        <ele>454.1</ele>
        <time>2013-08-17T09:59:38Z</time>
      </trkpt>
      <trkpt lat="45.82667" lon="6.20289">
        <ele>453</ele>
        <time>2013-08-17T09:59:39Z</time>
      </trkpt>
      <trkpt lat="45.82677" lon="6.20274">
        <ele>452.9</ele>
        <time>2013-08-17T09:59:40Z</time>
      </trkpt>
      <trkpt lat="45.82675" lon="6.20264">
        <ele>453.2</ele>
        <time>2013-08-17T09:59:41Z</time>
      </trkpt>
      <trkpt lat="45.82674" lon="6.20257">
        <ele>453.4</ele>
        <time>2013-08-17T09:59:42Z</time>
      </trkpt>
      <trkpt lat="45.82673" lon="6.20249">
        <ele>453.6</ele>
        <time>2013-08-17T09:59:43Z</time>
      </trkpt>
      <trkpt lat="45.82671" lon="6.20236">
        <ele>453.9</ele>
        <time>2013-08-17T09:59:44Z</time>
      </trkpt>
      <trkpt lat="45.82654" lon="6.20197">
        <ele>454.9</ele>
        <time>2013-08-17T09:59:48Z</time>
      </trkpt>
      <trkpt lat="45.82655" lon="6.20186">
        <ele>455.2</ele>
        <time>2013-08-17T09:59:49Z</time>
      </trkpt>
      <trkpt lat="45.82653" lon="6.20176">
        <ele>455.4</ele>
        <time>2013-08-17T09:59:50Z</time>
      </trkpt>
      <trkpt lat="45.8264" lon="6.20168">
        <ele>455.8</ele>
        <time>2013-08-17T09:59:51Z</time>
      </trkpt>
      <trkpt lat="45.82639" lon="6.2016">
        <ele>456</ele>
        <time>2013-08-17T09:59:52Z</time>
      </trkpt>
      <trkpt lat="45.82637" lon="6.20148">
        <ele>456.3</ele>
        <time>2013-08-17T09:59:53Z</time>
      </trkpt>
      <trkpt lat="45.82636" lon="6.20138">
        <ele>456.6</ele>
        <time>2013-08-17T09:59:54Z</time>
      </trkpt>
      <trkpt lat="45.82635" lon="6.20129">
        <ele>456.8</ele>
        <time>2013-08-17T09:59:55Z</time>
      </trkpt>
      <trkpt lat="45.82633" lon="6.2012">
        <ele>456.9</ele>
        <time>2013-08-17T09:59:56Z</time>
      </trkpt>
      <trkpt lat="45.82632" lon="6.2011">
        <ele>456.9</ele>
        <time>2013-08-17T09:59:57Z</time>
      </trkpt>
      <trkpt lat="45.82631" lon="6.20103">
        <ele>456.9</ele>
        <time>2013-08-17T09:59:58Z</time>
      </trkpt>
      <trkpt lat="45.8263" lon="6.20096">
        <ele>456.9</ele>
        <time>2013-08-17T09:59:59Z</time>
      </trkpt>
      <trkpt lat="45.82629" lon="6.20087">
        <ele>457</ele>
        <time>2013-08-17T10:00:00Z</time>
      </trkpt>
      <trkpt lat="45.82628" lon="6.20079">
        <ele>457</ele>
        <time>2013-08-17T10:00:01Z</time>
      </trkpt>
      <trkpt lat="45.82627" lon="6.20071">
        <ele>457</ele>
        <time>2013-08-17T10:00:02Z</time>
      </trkpt>
      <trkpt lat="45.82625" lon="6.20059">
        <ele>457</ele>
        <time>2013-08-17T10:00:03Z</time>
      </trkpt>
      <trkpt lat="45.82624" lon="6.20049">
        <ele>457.1</ele>
        <time>2013-08-17T10:00:04Z</time>
      </trkpt>
      <trkpt lat="45.82622" lon="6.20038">
        <ele>457.1</ele>
        <time>2013-08-17T10:00:05Z</time>
      </trkpt>
      <trkpt lat="45.8262" lon="6.20028">
        <ele>457</ele>
        <time>2013-08-17T10:00:06Z</time>
      </trkpt>
      <trkpt lat="45.82619" lon="6.20019">
        <ele>456.9</ele>
        <time>2013-08-17T10:00:07Z</time>
      </trkpt>
      <trkpt lat="45.82618" lon="6.2001">
        <ele>456.7</ele>
        <time>2013-08-17T10:00:08Z</time>
      </trkpt>
      <trkpt lat="45.82616" lon="6.20001">
        <ele>456.6</ele>
        <time>2013-08-17T10:00:09Z</time>
      </trkpt>
      <trkpt lat="45.82615" lon="6.19992">
        <ele>456.5</ele>
        <time>2013-08-17T10:00:10Z</time>
      </trkpt>
      <trkpt lat="45.82613" lon="6.19983">
        <ele>456.3</ele>
        <time>2013-08-17T10:00:11Z</time>
      </trkpt>
      <trkpt lat="45.82612" lon="6.19975">
        <ele>456.2</ele>
        <time>2013-08-17T10:00:12Z</time>
      </trkpt>
      <trkpt lat="45.82611" lon="6.19967">
        <ele>456.1</ele>
        <time>2013-08-17T10:00:13Z</time>
      </trkpt>
      <trkpt lat="45.8261" lon="6.19958">
        <ele>455.9</ele>
        <time>2013-08-17T10:00:14Z</time>
      </trkpt>
      <trkpt lat="45.82608" lon="6.19948">
        <ele>455.9</ele>
        <time>2013-08-17T10:00:15Z</time>
      </trkpt>
      <trkpt lat="45.82606" lon="6.1994">
        <ele>455.9</ele>
        <time>2013-08-17T10:00:16Z</time>
      </trkpt>
      <trkpt lat="45.82605" lon="6.19931">
        <ele>456</ele>
        <time>2013-08-17T10:00:17Z</time>
      </trkpt>
      <trkpt lat="45.82604" lon="6.19924">
        <ele>456</ele>
        <time>2013-08-17T10:00:18Z</time>
      </trkpt>
      <trkpt lat="45.82602" lon="6.19915">
        <ele>456</ele>
        <time>2013-08-17T10:00:19Z</time>
      </trkpt>
      <trkpt lat="45.82601" lon="6.19907">
        <ele>456</ele>
        <time>2013-08-17T10:00:20Z</time>
      </trkpt>
      <trkpt lat="45.82599" lon="6.19898">
        <ele>456</ele>
        <time>2013-08-17T10:00:21Z</time>
      </trkpt>
      <trkpt lat="45.82598" lon="6.19889">
        <ele>456.1</ele>
        <time>2013-08-17T10:00:22Z</time>
      </trkpt>
      <trkpt lat="45.82599" lon="6.19894">
        <ele>456</ele>
        <time>2013-08-17T10:00:23Z</time>
      </trkpt>
      <trkpt lat="45.82597" lon="6.19884">
        <ele>456.1</ele>
        <time>2013-08-17T10:00:24Z</time>
      </trkpt>
      <trkpt lat="45.82596" lon="6.19878">
        <ele>456.1</ele>
        <time>2013-08-17T10:00:25Z</time>
      </trkpt>
      <trkpt lat="45.82595" lon="6.1987">
        <ele>456.3</ele>
        <time>2013-08-17T10:00:26Z</time>
      </trkpt>
      <trkpt lat="45.82593" lon="6.19861">
        <ele>456.6</ele>
        <time>2013-08-17T10:00:27Z</time>
      </trkpt>
      <trkpt lat="45.82592" lon="6.19853">
        <ele>456.9</ele>
        <time>2013-08-17T10:00:28Z</time>
      </trkpt>
      <trkpt lat="45.8259" lon="6.19844">
        <ele>457.2</ele>
        <time>2013-08-17T10:00:29Z</time>
      </trkpt>
      <trkpt lat="45.82589" lon="6.19835">
        <ele>457.5</ele>
        <time>2013-08-17T10:00:30Z</time>
      </trkpt>
      <trkpt lat="45.82587" lon="6.19826">
        <ele>457.8</ele>
        <time>2013-08-17T10:00:31Z</time>
      </trkpt>
      <trkpt lat="45.82586" lon="6.19817">
        <ele>458.2</ele>
        <time>2013-08-17T10:00:32Z</time>
      </trkpt>
      <trkpt lat="45.82585" lon="6.19809">
        <ele>458.5</ele>
        <time>2013-08-17T10:00:33Z</time>
      </trkpt>
      <trkpt lat="45.82583" lon="6.19798">
        <ele>458.9</ele>
        <time>2013-08-17T10:00:34Z</time>
      </trkpt>
      <trkpt lat="45.82581" lon="6.19789">
        <ele>459.2</ele>
        <time>2013-08-17T10:00:35Z</time>
      </trkpt>
      <trkpt lat="45.8258" lon="6.19783">
        <ele>459.5</ele>
        <time>2013-08-17T10:00:36Z</time>
      </trkpt>
      <trkpt lat="45.82579" lon="6.19777">
        <ele>459.7</ele>
        <time>2013-08-17T10:00:37Z</time>
      </trkpt>
      <trkpt lat="45.82577" lon="6.19767">
        <ele>460.1</ele>
        <time>2013-08-17T10:00:38Z</time>
      </trkpt>
      <trkpt lat="45.82576" lon="6.19759">
        <ele>460.4</ele>
        <time>2013-08-17T10:00:39Z</time>
      </trkpt>
      <trkpt lat="45.82575" lon="6.1975">
        <ele>460.8</ele>
        <time>2013-08-17T10:00:40Z</time>
      </trkpt>
      <trkpt lat="45.82573" lon="6.19741">
        <ele>461.1</ele>
        <time>2013-08-17T10:00:41Z</time>
      </trkpt>
      <trkpt lat="45.82571" lon="6.19732">
        <ele>461.6</ele>
        <time>2013-08-17T10:00:42Z</time>
      </trkpt>
      <trkpt lat="45.8257" lon="6.19724">
        <ele>461.9</ele>
        <time>2013-08-17T10:00:43Z</time>
      </trkpt>
      <trkpt lat="45.82568" lon="6.19716">
        <ele>462.3</ele>
        <time>2013-08-17T10:00:44Z</time>
      </trkpt>
      <trkpt lat="45.82566" lon="6.19708">
        <ele>462.7</ele>
        <time>2013-08-17T10:00:45Z</time>
      </trkpt>
      <trkpt lat="45.82565" lon="6.19701">
        <ele>462.8</ele>
        <time>2013-08-17T10:00:46Z</time>
      </trkpt>
      <trkpt lat="45.82563" lon="6.19694">
        <ele>462.9</ele>
        <time>2013-08-17T10:00:47Z</time>
      </trkpt>
      <trkpt lat="45.82562" lon="6.19687">
        <ele>463</ele>
        <time>2013-08-17T10:00:48Z</time>
      </trkpt>
      <trkpt lat="45.82561" lon="6.19683">
        <ele>463</ele>
        <time>2013-08-17T10:00:49Z</time>
      </trkpt>
      <trkpt lat="45.8256" lon="6.19677">
        <ele>463.1</ele>
        <time>2013-08-17T10:00:51Z</time>
      </trkpt>
      <trkpt lat="45.82558" lon="6.19669">
        <ele>463.1</ele>
        <time>2013-08-17T10:00:53Z</time>
      </trkpt>
      <trkpt lat="45.82557" lon="6.19664">
        <ele>463.1</ele>
        <time>2013-08-17T10:00:55Z</time>
      </trkpt>
      <trkpt lat="45.82556" lon="6.19659">
        <ele>463.1</ele>
        <time>2013-08-17T10:01:02Z</time>
      </trkpt>
      <trkpt lat="45.82555" lon="6.19631">
        <ele>462.7</ele>
        <time>2013-08-17T10:01:13Z</time>
      </trkpt>
      <trkpt lat="45.82554" lon="6.19625">
        <ele>462.6</ele>
        <time>2013-08-17T10:01:15Z</time>
      </trkpt>
      <trkpt lat="45.82554" lon="6.1962">
        <ele>462.6</ele>
        <time>2013-08-17T10:01:16Z</time>
      </trkpt>
      <trkpt lat="45.82554" lon="6.19615">
        <ele>462.6</ele>
        <time>2013-08-17T10:01:17Z</time>
      </trkpt>
      <trkpt lat="45.82554" lon="6.19609">
        <ele>462.6</ele>
        <time>2013-08-17T10:01:18Z</time>
      </trkpt>
      <trkpt lat="45.82553" lon="6.19602">
        <ele>462.5</ele>
        <time>2013-08-17T10:01:19Z</time>
      </trkpt>
      <trkpt lat="45.82553" lon="6.19594">
        <ele>462.5</ele>
        <time>2013-08-17T10:01:20Z</time>
      </trkpt>
      <trkpt lat="45.82553" lon="6.19587">
        <ele>462.5</ele>
        <time>2013-08-17T10:01:21Z</time>
      </trkpt>
      <trkpt lat="45.82552" lon="6.19581">
        <ele>462.5</ele>
        <time>2013-08-17T10:01:22Z</time>
      </trkpt>
      <trkpt lat="45.82552" lon="6.19574">
        <ele>462.4</ele>
        <time>2013-08-17T10:01:23Z</time>
      </trkpt>
      <trkpt lat="45.82551" lon="6.19562">
        <ele>462.4</ele>
        <time>2013-08-17T10:01:24Z</time>
      </trkpt>
      <trkpt lat="45.8255" lon="6.19551">
        <ele>462.4</ele>
        <time>2013-08-17T10:01:25Z</time>
      </trkpt>
      <trkpt lat="45.8255" lon="6.19545">
        <ele>462.4</ele>
        <time>2013-08-17T10:01:26Z</time>
      </trkpt>
      <trkpt lat="45.82549" lon="6.19533">
        <ele>462.4</ele>
        <time>2013-08-17T10:01:27Z</time>
      </trkpt>
      <trkpt lat="45.82549" lon="6.19521">
        <ele>462.4</ele>
        <time>2013-08-17T10:01:28Z</time>
      </trkpt>
      <trkpt lat="45.82548" lon="6.1951">
        <ele>462.4</ele>
        <time>2013-08-17T10:01:29Z</time>
      </trkpt>
      <trkpt lat="45.82549" lon="6.19502">
        <ele>462.4</ele>
        <time>2013-08-17T10:01:30Z</time>
      </trkpt>
      <trkpt lat="45.82549" lon="6.19492">
        <ele>462.4</ele>
        <time>2013-08-17T10:01:31Z</time>
      </trkpt>
      <trkpt lat="45.82549" lon="6.19481">
        <ele>462.4</ele>
        <time>2013-08-17T10:01:32Z</time>
      </trkpt>
      <trkpt lat="45.82549" lon="6.19471">
        <ele>462.4</ele>
        <time>2013-08-17T10:01:33Z</time>
      </trkpt>
      <trkpt lat="45.8255" lon="6.1946">
        <ele>462.3</ele>
        <time>2013-08-17T10:01:34Z</time>
      </trkpt>
      <trkpt lat="45.82551" lon="6.1945">
        <ele>462.3</ele>
        <time>2013-08-17T10:01:35Z</time>
      </trkpt>
      <trkpt lat="45.82551" lon="6.1944">
        <ele>462.2</ele>
        <time>2013-08-17T10:01:36Z</time>
      </trkpt>
      <trkpt lat="45.82552" lon="6.1943">
        <ele>462.1</ele>
        <time>2013-08-17T10:01:37Z</time>
      </trkpt>
      <trkpt lat="45.82554" lon="6.19418">
        <ele>462.1</ele>
        <time>2013-08-17T10:01:38Z</time>
      </trkpt>
      <trkpt lat="45.82555" lon="6.19409">
        <ele>462</ele>
        <time>2013-08-17T10:01:39Z</time>
      </trkpt>
      <trkpt lat="45.82556" lon="6.19398">
        <ele>461.9</ele>
        <time>2013-08-17T10:01:40Z</time>
      </trkpt>
      <trkpt lat="45.82558" lon="6.19388">
        <ele>461.8</ele>
        <time>2013-08-17T10:01:41Z</time>
      </trkpt>
      <trkpt lat="45.8256" lon="6.19377">
        <ele>461.6</ele>
        <time>2013-08-17T10:01:42Z</time>
      </trkpt>
      <trkpt lat="45.82563" lon="6.19367">
        <ele>461.5</ele>
        <time>2013-08-17T10:01:43Z</time>
      </trkpt>
      <trkpt lat="45.82565" lon="6.19358">
        <ele>461.4</ele>
        <time>2013-08-17T10:01:44Z</time>
      </trkpt>
      <trkpt lat="45.82568" lon="6.19345">
        <ele>461.2</ele>
        <time>2013-08-17T10:01:45Z</time>
      </trkpt>
      <trkpt lat="45.82572" lon="6.19333">
        <ele>461</ele>
        <time>2013-08-17T10:01:46Z</time>
      </trkpt>
      <trkpt lat="45.82575" lon="6.19323">
        <ele>460.9</ele>
        <time>2013-08-17T10:01:47Z</time>
      </trkpt>
      <trkpt lat="45.82578" lon="6.19308">
        <ele>460.7</ele>
        <time>2013-08-17T10:01:48Z</time>
      </trkpt>
      <trkpt lat="45.82582" lon="6.19297">
        <ele>460.6</ele>
        <time>2013-08-17T10:01:49Z</time>
      </trkpt>
      <trkpt lat="45.82585" lon="6.19287">
        <ele>460.4</ele>
        <time>2013-08-17T10:01:50Z</time>
      </trkpt>
      <trkpt lat="45.82588" lon="6.19276">
        <ele>460</ele>
        <time>2013-08-17T10:01:51Z</time>
      </trkpt>
      <trkpt lat="45.82592" lon="6.19265">
        <ele>459.7</ele>
        <time>2013-08-17T10:01:52Z</time>
      </trkpt>
      <trkpt lat="45.82595" lon="6.19255">
        <ele>459.4</ele>
        <time>2013-08-17T10:01:53Z</time>
      </trkpt>
      <trkpt lat="45.82597" lon="6.19248">
        <ele>459.2</ele>
        <time>2013-08-17T10:01:54Z</time>
      </trkpt>
      <trkpt lat="45.826" lon="6.19238">
        <ele>458.8</ele>
        <time>2013-08-17T10:01:55Z</time>
      </trkpt>
      <trkpt lat="45.82603" lon="6.19229">
        <ele>458.6</ele>
        <time>2013-08-17T10:01:56Z</time>
      </trkpt>
      <trkpt lat="45.82606" lon="6.19219">
        <ele>458.2</ele>
        <time>2013-08-17T10:01:57Z</time>
      </trkpt>
      <trkpt lat="45.82609" lon="6.1921">
        <ele>458</ele>
        <time>2013-08-17T10:01:58Z</time>
      </trkpt>
      <trkpt lat="45.82612" lon="6.19202">
        <ele>457.8</ele>
        <time>2013-08-17T10:01:59Z</time>
      </trkpt>
      <trkpt lat="45.82615" lon="6.19192">
        <ele>457.6</ele>
        <time>2013-08-17T10:02:00Z</time>
      </trkpt>
      <trkpt lat="45.82618" lon="6.19183">
        <ele>457.4</ele>
        <time>2013-08-17T10:02:01Z</time>
      </trkpt>
      <trkpt lat="45.82621" lon="6.19174">
        <ele>457.3</ele>
        <time>2013-08-17T10:02:02Z</time>
      </trkpt>
      <trkpt lat="45.82624" lon="6.19165">
        <ele>457.1</ele>
        <time>2013-08-17T10:02:03Z</time>
      </trkpt>
      <trkpt lat="45.82627" lon="6.19155">
        <ele>457</ele>
        <time>2013-08-17T10:02:04Z</time>
      </trkpt>
      <trkpt lat="45.82629" lon="6.1915">
        <ele>457</ele>
        <time>2013-08-17T10:02:05Z</time>
      </trkpt>
      <trkpt lat="45.82635" lon="6.19129">
        <ele>456.9</ele>
        <time>2013-08-17T10:02:07Z</time>
      </trkpt>
      <trkpt lat="45.82638" lon="6.1912">
        <ele>456.9</ele>
        <time>2013-08-17T10:02:08Z</time>
      </trkpt>
      <trkpt lat="45.82641" lon="6.19112">
        <ele>456.9</ele>
        <time>2013-08-17T10:02:09Z</time>
      </trkpt>
      <trkpt lat="45.82643" lon="6.19104">
        <ele>457</ele>
        <time>2013-08-17T10:02:10Z</time>
      </trkpt>
      <trkpt lat="45.82646" lon="6.19097">
        <ele>457</ele>
        <time>2013-08-17T10:02:11Z</time>
      </trkpt>
      <trkpt lat="45.82647" lon="6.19092">
        <ele>457</ele>
        <time>2013-08-17T10:02:12Z</time>
      </trkpt>
      <trkpt lat="45.8265" lon="6.19084">
        <ele>457</ele>
        <time>2013-08-17T10:02:13Z</time>
      </trkpt>
      <trkpt lat="45.82653" lon="6.19075">
        <ele>457.1</ele>
        <time>2013-08-17T10:02:14Z</time>
      </trkpt>
      <trkpt lat="45.82655" lon="6.19068">
        <ele>457.1</ele>
        <time>2013-08-17T10:02:15Z</time>
      </trkpt>
      <trkpt lat="45.82656" lon="6.19063">
        <ele>457.1</ele>
        <time>2013-08-17T10:02:16Z</time>
      </trkpt>
      <trkpt lat="45.82662" lon="6.19044">
        <ele>457.1</ele>
        <time>2013-08-17T10:02:18Z</time>
      </trkpt>
      <trkpt lat="45.82665" lon="6.19036">
        <ele>457.2</ele>
        <time>2013-08-17T10:02:19Z</time>
      </trkpt>
      <trkpt lat="45.82667" lon="6.19026">
        <ele>457.5</ele>
        <time>2013-08-17T10:02:20Z</time>
      </trkpt>
      <trkpt lat="45.82669" lon="6.19018">
        <ele>457.6</ele>
        <time>2013-08-17T10:02:21Z</time>
      </trkpt>
      <trkpt lat="45.82672" lon="6.19009">
        <ele>457.8</ele>
        <time>2013-08-17T10:02:22Z</time>
      </trkpt>
      <trkpt lat="45.82674" lon="6.19001">
        <ele>458</ele>
        <time>2013-08-17T10:02:23Z</time>
      </trkpt>
      <trkpt lat="45.82676" lon="6.18994">
        <ele>458.2</ele>
        <time>2013-08-17T10:02:24Z</time>
      </trkpt>
      <trkpt lat="45.82677" lon="6.18986">
        <ele>458.3</ele>
        <time>2013-08-17T10:02:25Z</time>
      </trkpt>
      <trkpt lat="45.82678" lon="6.18981">
        <ele>458.5</ele>
        <time>2013-08-17T10:02:26Z</time>
      </trkpt>
      <trkpt lat="45.82679" lon="6.1897">
        <ele>458.7</ele>
        <time>2013-08-17T10:02:27Z</time>
      </trkpt>
      <trkpt lat="45.82679" lon="6.18962">
        <ele>459</ele>
        <time>2013-08-17T10:02:28Z</time>
      </trkpt>
      <trkpt lat="45.82679" lon="6.18955">
        <ele>459.2</ele>
        <time>2013-08-17T10:02:29Z</time>
      </trkpt>
      <trkpt lat="45.82679" lon="6.1895">
        <ele>459.4</ele>
        <time>2013-08-17T10:02:30Z</time>
      </trkpt>
      <trkpt lat="45.82679" lon="6.18939">
        <ele>459.9</ele>
        <time>2013-08-17T10:02:31Z</time>
      </trkpt>
      <trkpt lat="45.82678" lon="6.18925">
        <ele>460.6</ele>
        <time>2013-08-17T10:02:33Z</time>
      </trkpt>
      <trkpt lat="45.82678" lon="6.18918">
        <ele>460.9</ele>
        <time>2013-08-17T10:02:34Z</time>
      </trkpt>
      <trkpt lat="45.82677" lon="6.18908">
        <ele>461.3</ele>
        <time>2013-08-17T10:02:35Z</time>
      </trkpt>
      <trkpt lat="45.82677" lon="6.18901">
        <ele>461.6</ele>
        <time>2013-08-17T10:02:36Z</time>
      </trkpt>
      <trkpt lat="45.82677" lon="6.18893">
        <ele>462</ele>
        <time>2013-08-17T10:02:37Z</time>
      </trkpt>
      <trkpt lat="45.82677" lon="6.1888">
        <ele>462.5</ele>
        <time>2013-08-17T10:02:38Z</time>
      </trkpt>
      <trkpt lat="45.82677" lon="6.18873">
        <ele>462.8</ele>
        <time>2013-08-17T10:02:39Z</time>
      </trkpt>
      <trkpt lat="45.82678" lon="6.1886">
        <ele>462.9</ele>
        <time>2013-08-17T10:02:40Z</time>
      </trkpt>
      <trkpt lat="45.82679" lon="6.18854">
        <ele>463</ele>
        <time>2013-08-17T10:02:41Z</time>
      </trkpt>
      <trkpt lat="45.82681" lon="6.18842">
        <ele>463</ele>
        <time>2013-08-17T10:02:42Z</time>
      </trkpt>
      <trkpt lat="45.82684" lon="6.18832">
        <ele>463.1</ele>
        <time>2013-08-17T10:02:43Z</time>
      </trkpt>
      <trkpt lat="45.82688" lon="6.18821">
        <ele>463.1</ele>
        <time>2013-08-17T10:02:44Z</time>
      </trkpt>
      <trkpt lat="45.82703" lon="6.18806">
        <ele>463</ele>
        <time>2013-08-17T10:02:47Z</time>
      </trkpt>
      <trkpt lat="45.8271" lon="6.18804">
        <ele>462.8</ele>
        <time>2013-08-17T10:02:48Z</time>
      </trkpt>
      <trkpt lat="45.82719" lon="6.18795">
        <ele>462.6</ele>
        <time>2013-08-17T10:02:51Z</time>
      </trkpt>
      <trkpt lat="45.82719" lon="6.18791">
        <ele>462.6</ele>
        <time>2013-08-17T10:02:52Z</time>
      </trkpt>
      <trkpt lat="45.8272" lon="6.18784">
        <ele>462.5</ele>
        <time>2013-08-17T10:02:53Z</time>
      </trkpt>
      <trkpt lat="45.82722" lon="6.18774">
        <ele>462.3</ele>
        <time>2013-08-17T10:02:56Z</time>
      </trkpt>
      <trkpt lat="45.82724" lon="6.18765">
        <ele>462.2</ele>
        <time>2013-08-17T10:02:57Z</time>
      </trkpt>
      <trkpt lat="45.82726" lon="6.18759">
        <ele>462.1</ele>
        <time>2013-08-17T10:02:58Z</time>
      </trkpt>
      <trkpt lat="45.82728" lon="6.18752">
        <ele>461.9</ele>
        <time>2013-08-17T10:02:59Z</time>
      </trkpt>
      <trkpt lat="45.82731" lon="6.18741">
        <ele>461.7</ele>
        <time>2013-08-17T10:03:00Z</time>
      </trkpt>
      <trkpt lat="45.82734" lon="6.1873">
        <ele>461.6</ele>
        <time>2013-08-17T10:03:01Z</time>
      </trkpt>
      <trkpt lat="45.82735" lon="6.18723">
        <ele>461.5</ele>
        <time>2013-08-17T10:03:02Z</time>
      </trkpt>
      <trkpt lat="45.82737" lon="6.18714">
        <ele>461.3</ele>
        <time>2013-08-17T10:03:03Z</time>
      </trkpt>
      <trkpt lat="45.8274" lon="6.18702">
        <ele>461.3</ele>
        <time>2013-08-17T10:03:04Z</time>
      </trkpt>
      <trkpt lat="45.82741" lon="6.18694">
        <ele>461.2</ele>
        <time>2013-08-17T10:03:05Z</time>
      </trkpt>
      <trkpt lat="45.82743" lon="6.18683">
        <ele>461.2</ele>
        <time>2013-08-17T10:03:06Z</time>
      </trkpt>
      <trkpt lat="45.82746" lon="6.18669">
        <ele>461.1</ele>
        <time>2013-08-17T10:03:07Z</time>
      </trkpt>
      <trkpt lat="45.82748" lon="6.18656">
        <ele>461.1</ele>
        <time>2013-08-17T10:03:08Z</time>
      </trkpt>
      <trkpt lat="45.8275" lon="6.18645">
        <ele>461</ele>
        <time>2013-08-17T10:03:09Z</time>
      </trkpt>
      <trkpt lat="45.82752" lon="6.18635">
        <ele>460.9</ele>
        <time>2013-08-17T10:03:10Z</time>
      </trkpt>
      <trkpt lat="45.82753" lon="6.18628">
        <ele>460.9</ele>
        <time>2013-08-17T10:03:11Z</time>
      </trkpt>
      <trkpt lat="45.82755" lon="6.18617">
        <ele>461</ele>
        <time>2013-08-17T10:03:12Z</time>
      </trkpt>
      <trkpt lat="45.82757" lon="6.18607">
        <ele>461.2</ele>
        <time>2013-08-17T10:03:13Z</time>
      </trkpt>
      <trkpt lat="45.82758" lon="6.18597">
        <ele>461.5</ele>
        <time>2013-08-17T10:03:14Z</time>
      </trkpt>
      <trkpt lat="45.8276" lon="6.18584">
        <ele>461.8</ele>
        <time>2013-08-17T10:03:15Z</time>
      </trkpt>
      <trkpt lat="45.82762" lon="6.18575">
        <ele>462</ele>
        <time>2013-08-17T10:03:16Z</time>
      </trkpt>
      <trkpt lat="45.82763" lon="6.18564">
        <ele>462.3</ele>
        <time>2013-08-17T10:03:17Z</time>
      </trkpt>
      <trkpt lat="45.82765" lon="6.18553">
        <ele>462.6</ele>
        <time>2013-08-17T10:03:18Z</time>
      </trkpt>
      <trkpt lat="45.82767" lon="6.18544">
        <ele>462.8</ele>
        <time>2013-08-17T10:03:19Z</time>
      </trkpt>
      <trkpt lat="45.82767" lon="6.1854">
        <ele>462.9</ele>
        <time>2013-08-17T10:03:20Z</time>
      </trkpt>
      <trkpt lat="45.82771" lon="6.18524">
        <ele>463.3</ele>
        <time>2013-08-17T10:03:21Z</time>
      </trkpt>
      <trkpt lat="45.82773" lon="6.18516">
        <ele>463.5</ele>
        <time>2013-08-17T10:03:22Z</time>
      </trkpt>
      <trkpt lat="45.82775" lon="6.18507">
        <ele>463.7</ele>
        <time>2013-08-17T10:03:23Z</time>
      </trkpt>
      <trkpt lat="45.82776" lon="6.18496">
        <ele>464</ele>
        <time>2013-08-17T10:03:24Z</time>
      </trkpt>
      <trkpt lat="45.82777" lon="6.18486">
        <ele>464.2</ele>
        <time>2013-08-17T10:03:25Z</time>
      </trkpt>
      <trkpt lat="45.82778" lon="6.18477">
        <ele>464.4</ele>
        <time>2013-08-17T10:03:26Z</time>
      </trkpt>
      <trkpt lat="45.82779" lon="6.18469">
        <ele>464.6</ele>
        <time>2013-08-17T10:03:27Z</time>
      </trkpt>
      <trkpt lat="45.8278" lon="6.18456">
        <ele>464.9</ele>
        <time>2013-08-17T10:03:28Z</time>
      </trkpt>
      <trkpt lat="45.82781" lon="6.18443">
        <ele>465.3</ele>
        <time>2013-08-17T10:03:29Z</time>
      </trkpt>
      <trkpt lat="45.82782" lon="6.18427">
        <ele>465.7</ele>
        <time>2013-08-17T10:03:30Z</time>
      </trkpt>
      <trkpt lat="45.82782" lon="6.18423">
        <ele>465.8</ele>
        <time>2013-08-17T10:03:31Z</time>
      </trkpt>
      <trkpt lat="45.82783" lon="6.18416">
        <ele>466</ele>
        <time>2013-08-17T10:03:32Z</time>
      </trkpt>
      <trkpt lat="45.82784" lon="6.18404">
        <ele>466.4</ele>
        <time>2013-08-17T10:03:33Z</time>
      </trkpt>
      <trkpt lat="45.82785" lon="6.18395">
        <ele>466.6</ele>
        <time>2013-08-17T10:03:34Z</time>
      </trkpt>
      <trkpt lat="45.82786" lon="6.18386">
        <ele>466.9</ele>
        <time>2013-08-17T10:03:35Z</time>
      </trkpt>
      <trkpt lat="45.82787" lon="6.18378">
        <ele>467.1</ele>
        <time>2013-08-17T10:03:36Z</time>
      </trkpt>
      <trkpt lat="45.82788" lon="6.18366">
        <ele>467.3</ele>
        <time>2013-08-17T10:03:37Z</time>
      </trkpt>
      <trkpt lat="45.82789" lon="6.18358">
        <ele>467.3</ele>
        <time>2013-08-17T10:03:38Z</time>
      </trkpt>
      <trkpt lat="45.8279" lon="6.18351">
        <ele>467.4</ele>
        <time>2013-08-17T10:03:39Z</time>
      </trkpt>
      <trkpt lat="45.8279" lon="6.18344">
        <ele>467.4</ele>
        <time>2013-08-17T10:03:40Z</time>
      </trkpt>
      <trkpt lat="45.82791" lon="6.18337">
        <ele>467.5</ele>
        <time>2013-08-17T10:03:41Z</time>
      </trkpt>
      <trkpt lat="45.82791" lon="6.18329">
        <ele>467.6</ele>
        <time>2013-08-17T10:03:43Z</time>
      </trkpt>
      <trkpt lat="45.82792" lon="6.18324">
        <ele>467.6</ele>
        <time>2013-08-17T10:03:44Z</time>
      </trkpt>
      <trkpt lat="45.82792" lon="6.1832">
        <ele>467.6</ele>
        <time>2013-08-17T10:03:45Z</time>
      </trkpt>
      <trkpt lat="45.82792" lon="6.18315">
        <ele>467.7</ele>
        <time>2013-08-17T10:03:46Z</time>
      </trkpt>
      <trkpt lat="45.82793" lon="6.18309">
        <ele>467.7</ele>
        <time>2013-08-17T10:03:47Z</time>
      </trkpt>
      <trkpt lat="45.82793" lon="6.18301">
        <ele>467.8</ele>
        <time>2013-08-17T10:03:48Z</time>
      </trkpt>
      <trkpt lat="45.82793" lon="6.18297">
        <ele>467.8</ele>
        <time>2013-08-17T10:03:49Z</time>
      </trkpt>
      <trkpt lat="45.82793" lon="6.1829">
        <ele>467.9</ele>
        <time>2013-08-17T10:03:50Z</time>
      </trkpt>
      <trkpt lat="45.82794" lon="6.18283">
        <ele>468.1</ele>
        <time>2013-08-17T10:03:51Z</time>
      </trkpt>
      <trkpt lat="45.82794" lon="6.18276">
        <ele>468.3</ele>
        <time>2013-08-17T10:03:52Z</time>
      </trkpt>
      <trkpt lat="45.82794" lon="6.18268">
        <ele>468.6</ele>
        <time>2013-08-17T10:03:53Z</time>
      </trkpt>
      <trkpt lat="45.82795" lon="6.1826">
        <ele>468.8</ele>
        <time>2013-08-17T10:03:54Z</time>
      </trkpt>
      <trkpt lat="45.82795" lon="6.18253">
        <ele>469</ele>
        <time>2013-08-17T10:03:55Z</time>
      </trkpt>
      <trkpt lat="45.82796" lon="6.18246">
        <ele>469.2</ele>
        <time>2013-08-17T10:03:56Z</time>
      </trkpt>
      <trkpt lat="45.82799" lon="6.18225">
        <ele>469.6</ele>
        <time>2013-08-17T10:03:57Z</time>
      </trkpt>
      <trkpt lat="45.82804" lon="6.18196">
        <ele>469.7</ele>
        <time>2013-08-17T10:03:58Z</time>
      </trkpt>
      <trkpt lat="45.82811" lon="6.18177">
        <ele>469</ele>
        <time>2013-08-17T10:03:59Z</time>
      </trkpt>
      <trkpt lat="45.82815" lon="6.18174">
        <ele>468.6</ele>
        <time>2013-08-17T10:04:00Z</time>
      </trkpt>
      <trkpt lat="45.82825" lon="6.18161">
        <ele>467.6</ele>
        <time>2013-08-17T10:04:01Z</time>
      </trkpt>
      <trkpt lat="45.82837" lon="6.18146">
        <ele>466.5</ele>
        <time>2013-08-17T10:04:02Z</time>
      </trkpt>
      <trkpt lat="45.8284" lon="6.18139">
        <ele>466.3</ele>
        <time>2013-08-17T10:04:03Z</time>
      </trkpt>
      <trkpt lat="45.82844" lon="6.1813">
        <ele>466</ele>
        <time>2013-08-17T10:04:05Z</time>
      </trkpt>
      <trkpt lat="45.82849" lon="6.18118">
        <ele>465.3</ele>
        <time>2013-08-17T10:04:09Z</time>
      </trkpt>
      <trkpt lat="45.82851" lon="6.18112">
        <ele>464.9</ele>
        <time>2013-08-17T10:04:10Z</time>
      </trkpt>
      <trkpt lat="45.82857" lon="6.18098">
        <ele>464.1</ele>
        <time>2013-08-17T10:04:11Z</time>
      </trkpt>
      <trkpt lat="45.82859" lon="6.18091">
        <ele>463.8</ele>
        <time>2013-08-17T10:04:12Z</time>
      </trkpt>
      <trkpt lat="45.8286" lon="6.18087">
        <ele>463.6</ele>
        <time>2013-08-17T10:04:13Z</time>
      </trkpt>
      <trkpt lat="45.82863" lon="6.18077">
        <ele>463.2</ele>
        <time>2013-08-17T10:04:14Z</time>
      </trkpt>
      <trkpt lat="45.82864" lon="6.18072">
        <ele>463.1</ele>
        <time>2013-08-17T10:04:16Z</time>
      </trkpt>
      <trkpt lat="45.82865" lon="6.18067">
        <ele>462.9</ele>
        <time>2013-08-17T10:04:17Z</time>
      </trkpt>
      <trkpt lat="45.82865" lon="6.18062">
        <ele>462.8</ele>
        <time>2013-08-17T10:04:18Z</time>
      </trkpt>
      <trkpt lat="45.82865" lon="6.18058">
        <ele>462.8</ele>
        <time>2013-08-17T10:04:19Z</time>
      </trkpt>
      <trkpt lat="45.82864" lon="6.1805">
        <ele>462.7</ele>
        <time>2013-08-17T10:04:20Z</time>
      </trkpt>
      <trkpt lat="45.82864" lon="6.1804">
        <ele>462.5</ele>
        <time>2013-08-17T10:04:21Z</time>
      </trkpt>
      <trkpt lat="45.82867" lon="6.18023">
        <ele>462.2</ele>
        <time>2013-08-17T10:04:22Z</time>
      </trkpt>
      <trkpt lat="45.82868" lon="6.18014">
        <ele>462</ele>
        <time>2013-08-17T10:04:23Z</time>
      </trkpt>
      <trkpt lat="45.8287" lon="6.18004">
        <ele>461.8</ele>
        <time>2013-08-17T10:04:24Z</time>
      </trkpt>
      <trkpt lat="45.82873" lon="6.17986">
        <ele>461.5</ele>
        <time>2013-08-17T10:04:25Z</time>
      </trkpt>
      <trkpt lat="45.82873" lon="6.17979">
        <ele>461.4</ele>
        <time>2013-08-17T10:04:26Z</time>
      </trkpt>
      <trkpt lat="45.82875" lon="6.17967">
        <ele>461.1</ele>
        <time>2013-08-17T10:04:27Z</time>
      </trkpt>
      <trkpt lat="45.82876" lon="6.17952">
        <ele>461</ele>
        <time>2013-08-17T10:04:28Z</time>
      </trkpt>
      <trkpt lat="45.82877" lon="6.17938">
        <ele>460.9</ele>
        <time>2013-08-17T10:04:29Z</time>
      </trkpt>
      <trkpt lat="45.82879" lon="6.17921">
        <ele>460.9</ele>
        <time>2013-08-17T10:04:30Z</time>
      </trkpt>
      <trkpt lat="45.82881" lon="6.17901">
        <ele>460.9</ele>
        <time>2013-08-17T10:04:31Z</time>
      </trkpt>
      <trkpt lat="45.82886" lon="6.17878">
        <ele>460.9</ele>
        <time>2013-08-17T10:04:32Z</time>
      </trkpt>
      <trkpt lat="45.8289" lon="6.17865">
        <ele>461.1</ele>
        <time>2013-08-17T10:04:33Z</time>
      </trkpt>
      <trkpt lat="45.82894" lon="6.17854">
        <ele>461.4</ele>
        <time>2013-08-17T10:04:34Z</time>
      </trkpt>
      <trkpt lat="45.829" lon="6.17839">
        <ele>461.7</ele>
        <time>2013-08-17T10:04:35Z</time>
      </trkpt>
      <trkpt lat="45.82906" lon="6.17826">
        <ele>462</ele>
        <time>2013-08-17T10:04:36Z</time>
      </trkpt>
      <trkpt lat="45.82911" lon="6.17816">
        <ele>462.1</ele>
        <time>2013-08-17T10:04:37Z</time>
      </trkpt>
      <trkpt lat="45.82915" lon="6.1781">
        <ele>462.1</ele>
        <time>2013-08-17T10:04:38Z</time>
      </trkpt>
      <trkpt lat="45.82919" lon="6.17803">
        <ele>462.2</ele>
        <time>2013-08-17T10:04:39Z</time>
      </trkpt>
      <trkpt lat="45.82922" lon="6.17796">
        <ele>462.2</ele>
        <time>2013-08-17T10:04:40Z</time>
      </trkpt>
      <trkpt lat="45.82924" lon="6.17792">
        <ele>462.2</ele>
        <time>2013-08-17T10:04:41Z</time>
      </trkpt>
      <trkpt lat="45.82927" lon="6.17787">
        <ele>462.1</ele>
        <time>2013-08-17T10:04:42Z</time>
      </trkpt>
      <trkpt lat="45.82929" lon="6.17784">
        <ele>462</ele>
        <time>2013-08-17T10:04:43Z</time>
      </trkpt>
      <trkpt lat="45.82931" lon="6.1778">
        <ele>461.9</ele>
        <time>2013-08-17T10:04:45Z</time>
      </trkpt>
      <trkpt lat="45.82933" lon="6.17777">
        <ele>461.8</ele>
        <time>2013-08-17T10:04:46Z</time>
      </trkpt>
      <trkpt lat="45.82937" lon="6.1777">
        <ele>461.6</ele>
        <time>2013-08-17T10:04:48Z</time>
      </trkpt>
      <trkpt lat="45.82942" lon="6.1776">
        <ele>461.3</ele>
        <time>2013-08-17T10:04:50Z</time>
      </trkpt>
      <trkpt lat="45.82945" lon="6.17754">
        <ele>461.1</ele>
        <time>2013-08-17T10:04:52Z</time>
      </trkpt>
      <trkpt lat="45.82947" lon="6.17749">
        <ele>461</ele>
        <time>2013-08-17T10:04:54Z</time>
      </trkpt>
      <trkpt lat="45.8295" lon="6.1774">
        <ele>460.7</ele>
        <time>2013-08-17T10:04:56Z</time>
      </trkpt>
      <trkpt lat="45.82986" lon="6.1771">
        <ele>460</ele>
        <time>2013-08-17T10:05:00Z</time>
      </trkpt>
      <trkpt lat="45.82989" lon="6.17704">
        <ele>460</ele>
        <time>2013-08-17T10:05:01Z</time>
      </trkpt>
      <trkpt lat="45.82992" lon="6.17695">
        <ele>459.9</ele>
        <time>2013-08-17T10:05:02Z</time>
      </trkpt>
      <trkpt lat="45.82996" lon="6.17686">
        <ele>459.9</ele>
        <time>2013-08-17T10:05:03Z</time>
      </trkpt>
      <trkpt lat="45.83001" lon="6.17679">
        <ele>459.8</ele>
        <time>2013-08-17T10:05:04Z</time>
      </trkpt>
      <trkpt lat="45.83004" lon="6.17673">
        <ele>459.8</ele>
        <time>2013-08-17T10:05:05Z</time>
      </trkpt>
      <trkpt lat="45.83008" lon="6.17667">
        <ele>459.7</ele>
        <time>2013-08-17T10:05:06Z</time>
      </trkpt>
      <trkpt lat="45.8301" lon="6.17662">
        <ele>459.7</ele>
        <time>2013-08-17T10:05:07Z</time>
      </trkpt>
      <trkpt lat="45.83013" lon="6.17657">
        <ele>459.6</ele>
        <time>2013-08-17T10:05:08Z</time>
      </trkpt>
      <trkpt lat="45.83015" lon="6.17652">
        <ele>459.5</ele>
        <time>2013-08-17T10:05:09Z</time>
      </trkpt>
      <trkpt lat="45.83016" lon="6.17648">
        <ele>459.5</ele>
        <time>2013-08-17T10:05:10Z</time>
      </trkpt>
      <trkpt lat="45.83018" lon="6.17645">
        <ele>459.5</ele>
        <time>2013-08-17T10:05:11Z</time>
      </trkpt>
      <trkpt lat="45.83022" lon="6.17636">
        <ele>459.3</ele>
        <time>2013-08-17T10:05:12Z</time>
      </trkpt>
      <trkpt lat="45.83025" lon="6.17629">
        <ele>459.2</ele>
        <time>2013-08-17T10:05:13Z</time>
      </trkpt>
      <trkpt lat="45.83026" lon="6.17622">
        <ele>459.2</ele>
        <time>2013-08-17T10:05:14Z</time>
      </trkpt>
      <trkpt lat="45.83029" lon="6.17616">
        <ele>459.2</ele>
        <time>2013-08-17T10:05:15Z</time>
      </trkpt>
      <trkpt lat="45.83031" lon="6.17611">
        <ele>459.1</ele>
        <time>2013-08-17T10:05:16Z</time>
      </trkpt>
      <trkpt lat="45.83032" lon="6.17606">
        <ele>459.1</ele>
        <time>2013-08-17T10:05:17Z</time>
      </trkpt>
      <trkpt lat="45.83037" lon="6.17599">
        <ele>459.1</ele>
        <time>2013-08-17T10:05:18Z</time>
      </trkpt>
      <trkpt lat="45.8304" lon="6.17593">
        <ele>459</ele>
        <time>2013-08-17T10:05:19Z</time>
      </trkpt>
      <trkpt lat="45.83043" lon="6.17585">
        <ele>459</ele>
        <time>2013-08-17T10:05:20Z</time>
      </trkpt>
      <trkpt lat="45.83046" lon="6.17576">
        <ele>459.1</ele>
        <time>2013-08-17T10:05:21Z</time>
      </trkpt>
      <trkpt lat="45.83049" lon="6.17569">
        <ele>459.1</ele>
        <time>2013-08-17T10:05:22Z</time>
      </trkpt>
      <trkpt lat="45.83052" lon="6.1756">
        <ele>459.2</ele>
        <time>2013-08-17T10:05:23Z</time>
      </trkpt>
      <trkpt lat="45.83061" lon="6.17547">
        <ele>459.4</ele>
        <time>2013-08-17T10:05:24Z</time>
      </trkpt>
      <trkpt lat="45.83067" lon="6.17537">
        <ele>459.6</ele>
        <time>2013-08-17T10:05:25Z</time>
      </trkpt>
      <trkpt lat="45.83073" lon="6.17528">
        <ele>459.8</ele>
        <time>2013-08-17T10:05:26Z</time>
      </trkpt>
      <trkpt lat="45.83078" lon="6.17519">
        <ele>460</ele>
        <time>2013-08-17T10:05:27Z</time>
      </trkpt>
      <trkpt lat="45.83083" lon="6.17504">
        <ele>460.2</ele>
        <time>2013-08-17T10:05:28Z</time>
      </trkpt>
      <trkpt lat="45.83088" lon="6.17493">
        <ele>460.4</ele>
        <time>2013-08-17T10:05:29Z</time>
      </trkpt>
      <trkpt lat="45.83092" lon="6.17483">
        <ele>460.5</ele>
        <time>2013-08-17T10:05:30Z</time>
      </trkpt>
      <trkpt lat="45.83096" lon="6.17473">
        <ele>460.6</ele>
        <time>2013-08-17T10:05:31Z</time>
      </trkpt>
      <trkpt lat="45.83102" lon="6.17464">
        <ele>460.7</ele>
        <time>2013-08-17T10:05:32Z</time>
      </trkpt>
      <trkpt lat="45.83106" lon="6.17454">
        <ele>460.8</ele>
        <time>2013-08-17T10:05:33Z</time>
      </trkpt>
      <trkpt lat="45.83111" lon="6.17446">
        <ele>461</ele>
        <time>2013-08-17T10:05:34Z</time>
      </trkpt>
      <trkpt lat="45.83114" lon="6.17441">
        <ele>461.1</ele>
        <time>2013-08-17T10:05:35Z</time>
      </trkpt>
      <trkpt lat="45.83118" lon="6.17433">
        <ele>461.2</ele>
        <time>2013-08-17T10:05:36Z</time>
      </trkpt>
      <trkpt lat="45.83119" lon="6.17423">
        <ele>461.3</ele>
        <time>2013-08-17T10:05:37Z</time>
      </trkpt>
      <trkpt lat="45.83122" lon="6.17418">
        <ele>461.4</ele>
        <time>2013-08-17T10:05:38Z</time>
      </trkpt>
      <trkpt lat="45.83127" lon="6.1741">
        <ele>461.6</ele>
        <time>2013-08-17T10:05:39Z</time>
      </trkpt>
      <trkpt lat="45.8313" lon="6.17403">
        <ele>461.7</ele>
        <time>2013-08-17T10:05:40Z</time>
      </trkpt>
      <trkpt lat="45.83134" lon="6.17396">
        <ele>461.7</ele>
        <time>2013-08-17T10:05:41Z</time>
      </trkpt>
      <trkpt lat="45.83135" lon="6.17392">
        <ele>461.8</ele>
        <time>2013-08-17T10:05:42Z</time>
      </trkpt>
      <trkpt lat="45.83137" lon="6.17388">
        <ele>461.8</ele>
        <time>2013-08-17T10:05:43Z</time>
      </trkpt>
      <trkpt lat="45.83139" lon="6.17382">
        <ele>461.9</ele>
        <time>2013-08-17T10:05:44Z</time>
      </trkpt>
      <trkpt lat="45.83142" lon="6.17377">
        <ele>462</ele>
        <time>2013-08-17T10:05:45Z</time>
      </trkpt>
      <trkpt lat="45.83146" lon="6.17372">
        <ele>462.1</ele>
        <time>2013-08-17T10:05:46Z</time>
      </trkpt>
      <trkpt lat="45.83151" lon="6.17366">
        <ele>462.2</ele>
        <time>2013-08-17T10:05:47Z</time>
      </trkpt>
      <trkpt lat="45.83157" lon="6.17355">
        <ele>462.4</ele>
        <time>2013-08-17T10:05:48Z</time>
      </trkpt>
      <trkpt lat="45.83161" lon="6.17346">
        <ele>462.5</ele>
        <time>2013-08-17T10:05:49Z</time>
      </trkpt>
      <trkpt lat="45.83165" lon="6.17339">
        <ele>462.7</ele>
        <time>2013-08-17T10:05:50Z</time>
      </trkpt>
      <trkpt lat="45.8317" lon="6.17331">
        <ele>462.8</ele>
        <time>2013-08-17T10:05:51Z</time>
      </trkpt>
      <trkpt lat="45.83174" lon="6.17322">
        <ele>462.9</ele>
        <time>2013-08-17T10:05:52Z</time>
      </trkpt>
      <trkpt lat="45.83179" lon="6.17314">
        <ele>463</ele>
        <time>2013-08-17T10:05:53Z</time>
      </trkpt>
      <trkpt lat="45.83183" lon="6.17307">
        <ele>463.1</ele>
        <time>2013-08-17T10:05:54Z</time>
      </trkpt>
      <trkpt lat="45.83187" lon="6.17298">
        <ele>463.2</ele>
        <time>2013-08-17T10:05:55Z</time>
      </trkpt>
      <trkpt lat="45.83191" lon="6.17291">
        <ele>463.2</ele>
        <time>2013-08-17T10:05:56Z</time>
      </trkpt>
      <trkpt lat="45.83201" lon="6.17293">
        <ele>463.1</ele>
        <time>2013-08-17T10:05:57Z</time>
      </trkpt>
      <trkpt lat="45.83208" lon="6.1729">
        <ele>463</ele>
        <time>2013-08-17T10:05:58Z</time>
      </trkpt>
      <trkpt lat="45.8321" lon="6.17284">
        <ele>463.2</ele>
        <time>2013-08-17T10:05:59Z</time>
      </trkpt>
      <trkpt lat="45.83215" lon="6.17281">
        <ele>463.2</ele>
        <time>2013-08-17T10:06:00Z</time>
      </trkpt>
      <trkpt lat="45.83219" lon="6.17276">
        <ele>463.2</ele>
        <time>2013-08-17T10:06:01Z</time>
      </trkpt>
      <trkpt lat="45.83225" lon="6.17266">
        <ele>463.3</ele>
        <time>2013-08-17T10:06:02Z</time>
      </trkpt>
      <trkpt lat="45.83229" lon="6.1726">
        <ele>463.3</ele>
        <time>2013-08-17T10:06:03Z</time>
      </trkpt>
      <trkpt lat="45.83231" lon="6.17256">
        <ele>463.4</ele>
        <time>2013-08-17T10:06:04Z</time>
      </trkpt>
      <trkpt lat="45.83233" lon="6.17225">
        <ele>463.8</ele>
        <time>2013-08-17T10:06:07Z</time>
      </trkpt>
      <trkpt lat="45.83234" lon="6.17215">
        <ele>464</ele>
        <time>2013-08-17T10:06:08Z</time>
      </trkpt>
      <trkpt lat="45.83235" lon="6.1721">
        <ele>464</ele>
        <time>2013-08-17T10:06:09Z</time>
      </trkpt>
      <trkpt lat="45.83239" lon="6.17196">
        <ele>463.8</ele>
        <time>2013-08-17T10:06:10Z</time>
      </trkpt>
      <trkpt lat="45.83241" lon="6.17192">
        <ele>463.7</ele>
        <time>2013-08-17T10:06:11Z</time>
      </trkpt>
      <trkpt lat="45.83247" lon="6.17179">
        <ele>463.4</ele>
        <time>2013-08-17T10:06:12Z</time>
      </trkpt>
      <trkpt lat="45.83248" lon="6.17176">
        <ele>463.4</ele>
        <time>2013-08-17T10:06:13Z</time>
      </trkpt>
      <trkpt lat="45.83251" lon="6.17169">
        <ele>463.2</ele>
        <time>2013-08-17T10:06:14Z</time>
      </trkpt>
      <trkpt lat="45.83254" lon="6.17163">
        <ele>463.1</ele>
        <time>2013-08-17T10:06:15Z</time>
      </trkpt>
      <trkpt lat="45.83258" lon="6.17154">
        <ele>462.9</ele>
        <time>2013-08-17T10:06:16Z</time>
      </trkpt>
      <trkpt lat="45.83261" lon="6.17147">
        <ele>462.8</ele>
        <time>2013-08-17T10:06:17Z</time>
      </trkpt>
      <trkpt lat="45.83265" lon="6.1714">
        <ele>462.7</ele>
        <time>2013-08-17T10:06:18Z</time>
      </trkpt>
      <trkpt lat="45.83268" lon="6.17133">
        <ele>462.6</ele>
        <time>2013-08-17T10:06:19Z</time>
      </trkpt>
      <trkpt lat="45.83271" lon="6.17127">
        <ele>462.5</ele>
        <time>2013-08-17T10:06:20Z</time>
      </trkpt>
      <trkpt lat="45.83274" lon="6.17121">
        <ele>462.5</ele>
        <time>2013-08-17T10:06:21Z</time>
      </trkpt>
      <trkpt lat="45.83277" lon="6.17113">
        <ele>462.5</ele>
        <time>2013-08-17T10:06:22Z</time>
      </trkpt>
      <trkpt lat="45.83288" lon="6.17093">
        <ele>462.4</ele>
        <time>2013-08-17T10:06:25Z</time>
      </trkpt>
      <trkpt lat="45.83292" lon="6.17087">
        <ele>462.5</ele>
        <time>2013-08-17T10:06:26Z</time>
      </trkpt>
      <trkpt lat="45.83296" lon="6.17079">
        <ele>462.5</ele>
        <time>2013-08-17T10:06:27Z</time>
      </trkpt>
      <trkpt lat="45.83298" lon="6.17076">
        <ele>462.5</ele>
        <time>2013-08-17T10:06:28Z</time>
      </trkpt>
      <trkpt lat="45.83304" lon="6.17053">
        <ele>462.7</ele>
        <time>2013-08-17T10:06:32Z</time>
      </trkpt>
      <trkpt lat="45.8331" lon="6.17027">
        <ele>463</ele>
        <time>2013-08-17T10:06:34Z</time>
      </trkpt>
      <trkpt lat="45.83313" lon="6.17018">
        <ele>463</ele>
        <time>2013-08-17T10:06:35Z</time>
      </trkpt>
      <trkpt lat="45.83317" lon="6.17012">
        <ele>463.1</ele>
        <time>2013-08-17T10:06:36Z</time>
      </trkpt>
      <trkpt lat="45.8332" lon="6.17">
        <ele>463.2</ele>
        <time>2013-08-17T10:06:37Z</time>
      </trkpt>
      <trkpt lat="45.83324" lon="6.16992">
        <ele>463.2</ele>
        <time>2013-08-17T10:06:38Z</time>
      </trkpt>
      <trkpt lat="45.83326" lon="6.16986">
        <ele>463.3</ele>
        <time>2013-08-17T10:06:39Z</time>
      </trkpt>
      <trkpt lat="45.83328" lon="6.16977">
        <ele>463.3</ele>
        <time>2013-08-17T10:06:40Z</time>
      </trkpt>
      <trkpt lat="45.83331" lon="6.1697">
        <ele>463.4</ele>
        <time>2013-08-17T10:06:41Z</time>
      </trkpt>
      <trkpt lat="45.83332" lon="6.16963">
        <ele>463.5</ele>
        <time>2013-08-17T10:06:42Z</time>
      </trkpt>
      <trkpt lat="45.83336" lon="6.16956">
        <ele>463.4</ele>
        <time>2013-08-17T10:06:43Z</time>
      </trkpt>
      <trkpt lat="45.83339" lon="6.16949">
        <ele>463.3</ele>
        <time>2013-08-17T10:06:44Z</time>
      </trkpt>
      <trkpt lat="45.83344" lon="6.16941">
        <ele>463.1</ele>
        <time>2013-08-17T10:06:45Z</time>
      </trkpt>
      <trkpt lat="45.83348" lon="6.16934">
        <ele>462.9</ele>
        <time>2013-08-17T10:06:46Z</time>
      </trkpt>
      <trkpt lat="45.8335" lon="6.16928">
        <ele>462.8</ele>
        <time>2013-08-17T10:06:47Z</time>
      </trkpt>
      <trkpt lat="45.83354" lon="6.16921">
        <ele>462.6</ele>
        <time>2013-08-17T10:06:48Z</time>
      </trkpt>
      <trkpt lat="45.83357" lon="6.16917">
        <ele>462.4</ele>
        <time>2013-08-17T10:06:49Z</time>
      </trkpt>
      <trkpt lat="45.8336" lon="6.1691">
        <ele>462.2</ele>
        <time>2013-08-17T10:06:50Z</time>
      </trkpt>
      <trkpt lat="45.83364" lon="6.16902">
        <ele>462</ele>
        <time>2013-08-17T10:06:51Z</time>
      </trkpt>
      <trkpt lat="45.83367" lon="6.16895">
        <ele>461.7</ele>
        <time>2013-08-17T10:06:52Z</time>
      </trkpt>
      <trkpt lat="45.83371" lon="6.16888">
        <ele>461.4</ele>
        <time>2013-08-17T10:06:53Z</time>
      </trkpt>
      <trkpt lat="45.83374" lon="6.1688">
        <ele>461.2</ele>
        <time>2013-08-17T10:06:54Z</time>
      </trkpt>
      <trkpt lat="45.83377" lon="6.16875">
        <ele>461</ele>
        <time>2013-08-17T10:06:55Z</time>
      </trkpt>
      <trkpt lat="45.83379" lon="6.16868">
        <ele>461.3</ele>
        <time>2013-08-17T10:06:56Z</time>
      </trkpt>
      <trkpt lat="45.83382" lon="6.16864">
        <ele>461.4</ele>
        <time>2013-08-17T10:06:57Z</time>
      </trkpt>
      <trkpt lat="45.83385" lon="6.16857">
        <ele>461.6</ele>
        <time>2013-08-17T10:06:58Z</time>
      </trkpt>
      <trkpt lat="45.83388" lon="6.16851">
        <ele>461.8</ele>
        <time>2013-08-17T10:06:59Z</time>
      </trkpt>
      <trkpt lat="45.83392" lon="6.16844">
        <ele>462</ele>
        <time>2013-08-17T10:07:00Z</time>
      </trkpt>
      <trkpt lat="45.83395" lon="6.16838">
        <ele>462.1</ele>
        <time>2013-08-17T10:07:01Z</time>
      </trkpt>
      <trkpt lat="45.83399" lon="6.16834">
        <ele>462.2</ele>
        <time>2013-08-17T10:07:02Z</time>
      </trkpt>
      <trkpt lat="45.83401" lon="6.16829">
        <ele>462.3</ele>
        <time>2013-08-17T10:07:03Z</time>
      </trkpt>
      <trkpt lat="45.83404" lon="6.16825">
        <ele>462.4</ele>
        <time>2013-08-17T10:07:04Z</time>
      </trkpt>
      <trkpt lat="45.83406" lon="6.16817">
        <ele>462.6</ele>
        <time>2013-08-17T10:07:05Z</time>
      </trkpt>
      <trkpt lat="45.83408" lon="6.16811">
        <ele>462.7</ele>
        <time>2013-08-17T10:07:06Z</time>
      </trkpt>
      <trkpt lat="45.83412" lon="6.16807">
        <ele>462.7</ele>
        <time>2013-08-17T10:07:07Z</time>
      </trkpt>
      <trkpt lat="45.83415" lon="6.16802">
        <ele>462.8</ele>
        <time>2013-08-17T10:07:08Z</time>
      </trkpt>
      <trkpt lat="45.83415" lon="6.16797">
        <ele>462.9</ele>
        <time>2013-08-17T10:07:09Z</time>
      </trkpt>
      <trkpt lat="45.83416" lon="6.16792">
        <ele>463</ele>
        <time>2013-08-17T10:07:10Z</time>
      </trkpt>
      <trkpt lat="45.8342" lon="6.16785">
        <ele>463.1</ele>
        <time>2013-08-17T10:07:11Z</time>
      </trkpt>
      <trkpt lat="45.83422" lon="6.16783">
        <ele>463.1</ele>
        <time>2013-08-17T10:07:12Z</time>
      </trkpt>
      <trkpt lat="45.83425" lon="6.16784">
        <ele>463</ele>
        <time>2013-08-17T10:07:13Z</time>
      </trkpt>
      <trkpt lat="45.83427" lon="6.16775">
        <ele>463.2</ele>
        <time>2013-08-17T10:07:14Z</time>
      </trkpt>
      <trkpt lat="45.8343" lon="6.1677">
        <ele>463.3</ele>
        <time>2013-08-17T10:07:15Z</time>
      </trkpt>
      <trkpt lat="45.83432" lon="6.16765">
        <ele>463.4</ele>
        <time>2013-08-17T10:07:16Z</time>
      </trkpt>
      <trkpt lat="45.83435" lon="6.16757">
        <ele>463.6</ele>
        <time>2013-08-17T10:07:17Z</time>
      </trkpt>
      <trkpt lat="45.83437" lon="6.16751">
        <ele>463.7</ele>
        <time>2013-08-17T10:07:18Z</time>
      </trkpt>
      <trkpt lat="45.83438" lon="6.1674">
        <ele>464</ele>
        <time>2013-08-17T10:07:19Z</time>
      </trkpt>
      <trkpt lat="45.83441" lon="6.16734">
        <ele>464.2</ele>
        <time>2013-08-17T10:07:20Z</time>
      </trkpt>
      <trkpt lat="45.83444" lon="6.16732">
        <ele>464.3</ele>
        <time>2013-08-17T10:07:21Z</time>
      </trkpt>
      <trkpt lat="45.83447" lon="6.1673">
        <ele>464.3</ele>
        <time>2013-08-17T10:07:22Z</time>
      </trkpt>
      <trkpt lat="45.83451" lon="6.16728">
        <ele>464.3</ele>
        <time>2013-08-17T10:07:23Z</time>
      </trkpt>
      <trkpt lat="45.83453" lon="6.16723">
        <ele>464.5</ele>
        <time>2013-08-17T10:07:24Z</time>
      </trkpt>
      <trkpt lat="45.83455" lon="6.16716">
        <ele>464.7</ele>
        <time>2013-08-17T10:07:25Z</time>
      </trkpt>
      <trkpt lat="45.83458" lon="6.1671">
        <ele>464.9</ele>
        <time>2013-08-17T10:07:27Z</time>
      </trkpt>
      <trkpt lat="45.83461" lon="6.16707">
        <ele>464.9</ele>
        <time>2013-08-17T10:07:28Z</time>
      </trkpt>
      <trkpt lat="45.83464" lon="6.16701">
        <ele>464.8</ele>
        <time>2013-08-17T10:07:29Z</time>
      </trkpt>
      <trkpt lat="45.83466" lon="6.16695">
        <ele>464.6</ele>
        <time>2013-08-17T10:07:30Z</time>
      </trkpt>
      <trkpt lat="45.83468" lon="6.16688">
        <ele>464.4</ele>
        <time>2013-08-17T10:07:31Z</time>
      </trkpt>
      <trkpt lat="45.8347" lon="6.16681">
        <ele>464.3</ele>
        <time>2013-08-17T10:07:32Z</time>
      </trkpt>
      <trkpt lat="45.83471" lon="6.16673">
        <ele>464.1</ele>
        <time>2013-08-17T10:07:33Z</time>
      </trkpt>
      <trkpt lat="45.83472" lon="6.16666">
        <ele>464</ele>
        <time>2013-08-17T10:07:34Z</time>
      </trkpt>
      <trkpt lat="45.83474" lon="6.1666">
        <ele>463.9</ele>
        <time>2013-08-17T10:07:35Z</time>
      </trkpt>
      <trkpt lat="45.83475" lon="6.16655">
        <ele>463.8</ele>
        <time>2013-08-17T10:07:36Z</time>
      </trkpt>
      <trkpt lat="45.83476" lon="6.1665">
        <ele>463.7</ele>
        <time>2013-08-17T10:07:37Z</time>
      </trkpt>
      <trkpt lat="45.83477" lon="6.16646">
        <ele>463.6</ele>
        <time>2013-08-17T10:07:38Z</time>
      </trkpt>
      <trkpt lat="45.83479" lon="6.16642">
        <ele>463.6</ele>
        <time>2013-08-17T10:07:39Z</time>
      </trkpt>
      <trkpt lat="45.83482" lon="6.16638">
        <ele>463.5</ele>
        <time>2013-08-17T10:07:40Z</time>
      </trkpt>
      <trkpt lat="45.83485" lon="6.16633">
        <ele>463.4</ele>
        <time>2013-08-17T10:07:42Z</time>
      </trkpt>
      <trkpt lat="45.83488" lon="6.16629">
        <ele>463.4</ele>
        <time>2013-08-17T10:07:43Z</time>
      </trkpt>
      <trkpt lat="45.83492" lon="6.16624">
        <ele>463.4</ele>
        <time>2013-08-17T10:07:45Z</time>
      </trkpt>
      <trkpt lat="45.83495" lon="6.16621">
        <ele>463.4</ele>
        <time>2013-08-17T10:07:46Z</time>
      </trkpt>
      <trkpt lat="45.83497" lon="6.16617">
        <ele>463.5</ele>
        <time>2013-08-17T10:07:47Z</time>
      </trkpt>
      <trkpt lat="45.835" lon="6.16614">
        <ele>463.5</ele>
        <time>2013-08-17T10:07:48Z</time>
      </trkpt>
      <trkpt lat="45.83502" lon="6.16612">
        <ele>463.5</ele>
        <time>2013-08-17T10:07:49Z</time>
      </trkpt>
      <trkpt lat="45.83505" lon="6.16609">
        <ele>463.6</ele>
        <time>2013-08-17T10:07:51Z</time>
      </trkpt>
      <trkpt lat="45.83508" lon="6.16604">
        <ele>463.6</ele>
        <time>2013-08-17T10:07:53Z</time>
      </trkpt>
      <trkpt lat="45.83511" lon="6.166">
        <ele>463.7</ele>
        <time>2013-08-17T10:07:55Z</time>
      </trkpt>
      <trkpt lat="45.83517" lon="6.16593">
        <ele>463.9</ele>
        <time>2013-08-17T10:07:57Z</time>
      </trkpt>
      <trkpt lat="45.83519" lon="6.16589">
        <ele>463.9</ele>
        <time>2013-08-17T10:07:58Z</time>
      </trkpt>
      <trkpt lat="45.83523" lon="6.16583">
        <ele>464</ele>
        <time>2013-08-17T10:07:59Z</time>
      </trkpt>
      <trkpt lat="45.83526" lon="6.16577">
        <ele>464.2</ele>
        <time>2013-08-17T10:08:00Z</time>
      </trkpt>
      <trkpt lat="45.83529" lon="6.1657">
        <ele>464.3</ele>
        <time>2013-08-17T10:08:01Z</time>
      </trkpt>
      <trkpt lat="45.83533" lon="6.16563">
        <ele>464.5</ele>
        <time>2013-08-17T10:08:02Z</time>
      </trkpt>
      <trkpt lat="45.83536" lon="6.16555">
        <ele>464.7</ele>
        <time>2013-08-17T10:08:03Z</time>
      </trkpt>
      <trkpt lat="45.83543" lon="6.16538">
        <ele>464.9</ele>
        <time>2013-08-17T10:08:04Z</time>
      </trkpt>
      <trkpt lat="45.83546" lon="6.16532">
        <ele>464.6</ele>
        <time>2013-08-17T10:08:05Z</time>
      </trkpt>
      <trkpt lat="45.83549" lon="6.16528">
        <ele>464.4</ele>
        <time>2013-08-17T10:08:06Z</time>
      </trkpt>
      <trkpt lat="45.83552" lon="6.16526">
        <ele>464.2</ele>
        <time>2013-08-17T10:08:07Z</time>
      </trkpt>
      <trkpt lat="45.83556" lon="6.16514">
        <ele>463.9</ele>
        <time>2013-08-17T10:08:08Z</time>
      </trkpt>
      <trkpt lat="45.83559" lon="6.1651">
        <ele>463.7</ele>
        <time>2013-08-17T10:08:09Z</time>
      </trkpt>
      <trkpt lat="45.83561" lon="6.16506">
        <ele>463.5</ele>
        <time>2013-08-17T10:08:10Z</time>
      </trkpt>
      <trkpt lat="45.83563" lon="6.16501">
        <ele>463.4</ele>
        <time>2013-08-17T10:08:11Z</time>
      </trkpt>
      <trkpt lat="45.83565" lon="6.16496">
        <ele>463.2</ele>
        <time>2013-08-17T10:08:12Z</time>
      </trkpt>
      <trkpt lat="45.83567" lon="6.16491">
        <ele>463.1</ele>
        <time>2013-08-17T10:08:13Z</time>
      </trkpt>
      <trkpt lat="45.8357" lon="6.16484">
        <ele>462.9</ele>
        <time>2013-08-17T10:08:14Z</time>
      </trkpt>
      <trkpt lat="45.83574" lon="6.16475">
        <ele>462.6</ele>
        <time>2013-08-17T10:08:15Z</time>
      </trkpt>
      <trkpt lat="45.8358" lon="6.16465">
        <ele>462.2</ele>
        <time>2013-08-17T10:08:16Z</time>
      </trkpt>
      <trkpt lat="45.83583" lon="6.16459">
        <ele>462</ele>
        <time>2013-08-17T10:08:17Z</time>
      </trkpt>
      <trkpt lat="45.83586" lon="6.16453">
        <ele>461.9</ele>
        <time>2013-08-17T10:08:18Z</time>
      </trkpt>
      <trkpt lat="45.8359" lon="6.16446">
        <ele>461.9</ele>
        <time>2013-08-17T10:08:19Z</time>
      </trkpt>
      <trkpt lat="45.83593" lon="6.16439">
        <ele>461.8</ele>
        <time>2013-08-17T10:08:20Z</time>
      </trkpt>
      <trkpt lat="45.83596" lon="6.16433">
        <ele>461.8</ele>
        <time>2013-08-17T10:08:21Z</time>
      </trkpt>
      <trkpt lat="45.83599" lon="6.16427">
        <ele>461.8</ele>
        <time>2013-08-17T10:08:22Z</time>
      </trkpt>
      <trkpt lat="45.83602" lon="6.16419">
        <ele>461.8</ele>
        <time>2013-08-17T10:08:23Z</time>
      </trkpt>
      <trkpt lat="45.83605" lon="6.16413">
        <ele>461.8</ele>
        <time>2013-08-17T10:08:24Z</time>
      </trkpt>
      <trkpt lat="45.83607" lon="6.16409">
        <ele>461.8</ele>
        <time>2013-08-17T10:08:25Z</time>
      </trkpt>
      <trkpt lat="45.8361" lon="6.16405">
        <ele>461.8</ele>
        <time>2013-08-17T10:08:26Z</time>
      </trkpt>
      <trkpt lat="45.83614" lon="6.16401">
        <ele>461.7</ele>
        <time>2013-08-17T10:08:27Z</time>
      </trkpt>
      <trkpt lat="45.83617" lon="6.16395">
        <ele>461.8</ele>
        <time>2013-08-17T10:08:28Z</time>
      </trkpt>
      <trkpt lat="45.8362" lon="6.1639">
        <ele>461.8</ele>
        <time>2013-08-17T10:08:29Z</time>
      </trkpt>
      <trkpt lat="45.83624" lon="6.16384">
        <ele>461.8</ele>
        <time>2013-08-17T10:08:30Z</time>
      </trkpt>
      <trkpt lat="45.83628" lon="6.16379">
        <ele>461.9</ele>
        <time>2013-08-17T10:08:31Z</time>
      </trkpt>
      <trkpt lat="45.83632" lon="6.16374">
        <ele>461.9</ele>
        <time>2013-08-17T10:08:32Z</time>
      </trkpt>
      <trkpt lat="45.83636" lon="6.16368">
        <ele>461.9</ele>
        <time>2013-08-17T10:08:33Z</time>
      </trkpt>
      <trkpt lat="45.8364" lon="6.16364">
        <ele>461.9</ele>
        <time>2013-08-17T10:08:34Z</time>
      </trkpt>
      <trkpt lat="45.83644" lon="6.16358">
        <ele>461.9</ele>
        <time>2013-08-17T10:08:35Z</time>
      </trkpt>
      <trkpt lat="45.83648" lon="6.16353">
        <ele>461.8</ele>
        <time>2013-08-17T10:08:36Z</time>
      </trkpt>
      <trkpt lat="45.83653" lon="6.16346">
        <ele>461.8</ele>
        <time>2013-08-17T10:08:37Z</time>
      </trkpt>
      <trkpt lat="45.83656" lon="6.16341">
        <ele>461.7</ele>
        <time>2013-08-17T10:08:38Z</time>
      </trkpt>
      <trkpt lat="45.8366" lon="6.16335">
        <ele>461.6</ele>
        <time>2013-08-17T10:08:39Z</time>
      </trkpt>
      <trkpt lat="45.83664" lon="6.1633">
        <ele>461.6</ele>
        <time>2013-08-17T10:08:40Z</time>
      </trkpt>
      <trkpt lat="45.83668" lon="6.16325">
        <ele>461.5</ele>
        <time>2013-08-17T10:08:41Z</time>
      </trkpt>
      <trkpt lat="45.83671" lon="6.16322">
        <ele>461.4</ele>
        <time>2013-08-17T10:08:42Z</time>
      </trkpt>
      <trkpt lat="45.83674" lon="6.16318">
        <ele>461.3</ele>
        <time>2013-08-17T10:08:43Z</time>
      </trkpt>
      <trkpt lat="45.83681" lon="6.16313">
        <ele>461.1</ele>
        <time>2013-08-17T10:08:44Z</time>
      </trkpt>
      <trkpt lat="45.83686" lon="6.16308">
        <ele>460.9</ele>
        <time>2013-08-17T10:08:45Z</time>
      </trkpt>
      <trkpt lat="45.83692" lon="6.16304">
        <ele>460.7</ele>
        <time>2013-08-17T10:08:46Z</time>
      </trkpt>
      <trkpt lat="45.83696" lon="6.16299">
        <ele>460.5</ele>
        <time>2013-08-17T10:08:47Z</time>
      </trkpt>
      <trkpt lat="45.837" lon="6.16295">
        <ele>460.3</ele>
        <time>2013-08-17T10:08:48Z</time>
      </trkpt>
      <trkpt lat="45.83705" lon="6.1629">
        <ele>460.2</ele>
        <time>2013-08-17T10:08:49Z</time>
      </trkpt>
      <trkpt lat="45.83709" lon="6.16285">
        <ele>460.1</ele>
        <time>2013-08-17T10:08:50Z</time>
      </trkpt>
      <trkpt lat="45.83714" lon="6.1628">
        <ele>460.1</ele>
        <time>2013-08-17T10:08:51Z</time>
      </trkpt>
      <trkpt lat="45.83719" lon="6.16275">
        <ele>460</ele>
        <time>2013-08-17T10:08:52Z</time>
      </trkpt>
      <trkpt lat="45.83724" lon="6.16271">
        <ele>460</ele>
        <time>2013-08-17T10:08:53Z</time>
      </trkpt>
      <trkpt lat="45.83728" lon="6.16267">
        <ele>459.9</ele>
        <time>2013-08-17T10:08:54Z</time>
      </trkpt>
      <trkpt lat="45.83734" lon="6.16265">
        <ele>459.8</ele>
        <time>2013-08-17T10:08:55Z</time>
      </trkpt>
      <trkpt lat="45.83739" lon="6.16261">
        <ele>459.7</ele>
        <time>2013-08-17T10:08:56Z</time>
      </trkpt>
      <trkpt lat="45.83746" lon="6.16256">
        <ele>459.6</ele>
        <time>2013-08-17T10:08:57Z</time>
      </trkpt>
      <trkpt lat="45.83752" lon="6.16251">
        <ele>459.5</ele>
        <time>2013-08-17T10:08:58Z</time>
      </trkpt>
      <trkpt lat="45.83757" lon="6.16248">
        <ele>459.3</ele>
        <time>2013-08-17T10:08:59Z</time>
      </trkpt>
      <trkpt lat="45.83763" lon="6.16245">
        <ele>459.2</ele>
        <time>2013-08-17T10:09:00Z</time>
      </trkpt>
      <trkpt lat="45.83768" lon="6.1624">
        <ele>459</ele>
        <time>2013-08-17T10:09:01Z</time>
      </trkpt>
      <trkpt lat="45.83773" lon="6.16236">
        <ele>458.9</ele>
        <time>2013-08-17T10:09:02Z</time>
      </trkpt>
      <trkpt lat="45.83778" lon="6.16234">
        <ele>458.7</ele>
        <time>2013-08-17T10:09:03Z</time>
      </trkpt>
      <trkpt lat="45.83783" lon="6.16234">
        <ele>458.6</ele>
        <time>2013-08-17T10:09:04Z</time>
      </trkpt>
      <trkpt lat="45.83788" lon="6.16232">
        <ele>458.4</ele>
        <time>2013-08-17T10:09:05Z</time>
      </trkpt>
      <trkpt lat="45.83793" lon="6.16228">
        <ele>458.2</ele>
        <time>2013-08-17T10:09:06Z</time>
      </trkpt>
      <trkpt lat="45.83799" lon="6.16221">
        <ele>458.2</ele>
        <time>2013-08-17T10:09:07Z</time>
      </trkpt>
      <trkpt lat="45.83806" lon="6.16217">
        <ele>458.1</ele>
        <time>2013-08-17T10:09:08Z</time>
      </trkpt>
      <trkpt lat="45.83812" lon="6.16212">
        <ele>458</ele>
        <time>2013-08-17T10:09:09Z</time>
      </trkpt>
      <trkpt lat="45.83819" lon="6.16208">
        <ele>458</ele>
        <time>2013-08-17T10:09:10Z</time>
      </trkpt>
      <trkpt lat="45.83826" lon="6.16203">
        <ele>458</ele>
        <time>2013-08-17T10:09:11Z</time>
      </trkpt>
      <trkpt lat="45.83832" lon="6.16198">
        <ele>458.1</ele>
        <time>2013-08-17T10:09:12Z</time>
      </trkpt>
      <trkpt lat="45.8384" lon="6.16196">
        <ele>458.1</ele>
        <time>2013-08-17T10:09:13Z</time>
      </trkpt>
      <trkpt lat="45.83845" lon="6.16192">
        <ele>458.2</ele>
        <time>2013-08-17T10:09:14Z</time>
      </trkpt>
      <trkpt lat="45.8385" lon="6.16189">
        <ele>458.3</ele>
        <time>2013-08-17T10:09:15Z</time>
      </trkpt>
      <trkpt lat="45.83855" lon="6.16188">
        <ele>458.3</ele>
        <time>2013-08-17T10:09:16Z</time>
      </trkpt>
      <trkpt lat="45.83861" lon="6.16184">
        <ele>458.4</ele>
        <time>2013-08-17T10:09:17Z</time>
      </trkpt>
      <trkpt lat="45.83864" lon="6.16182">
        <ele>458.5</ele>
        <time>2013-08-17T10:09:18Z</time>
      </trkpt>
      <trkpt lat="45.83869" lon="6.16179">
        <ele>458.6</ele>
        <time>2013-08-17T10:09:20Z</time>
      </trkpt>
      <trkpt lat="45.83872" lon="6.16175">
        <ele>458.7</ele>
        <time>2013-08-17T10:09:22Z</time>
      </trkpt>
      <trkpt lat="45.83875" lon="6.16172">
        <ele>458.9</ele>
        <time>2013-08-17T10:09:23Z</time>
      </trkpt>
      <trkpt lat="45.8388" lon="6.1617">
        <ele>458.8</ele>
        <time>2013-08-17T10:09:25Z</time>
      </trkpt>
      <trkpt lat="45.83883" lon="6.16169">
        <ele>458.8</ele>
        <time>2013-08-17T10:09:27Z</time>
      </trkpt>
      <trkpt lat="45.83886" lon="6.16167">
        <ele>458.7</ele>
        <time>2013-08-17T10:09:28Z</time>
      </trkpt>
      <trkpt lat="45.83889" lon="6.16167">
        <ele>458.7</ele>
        <time>2013-08-17T10:09:31Z</time>
      </trkpt>
      <trkpt lat="45.83887" lon="6.16164">
        <ele>458.8</ele>
        <time>2013-08-17T10:09:41Z</time>
      </trkpt>
      <trkpt lat="45.8389" lon="6.16165">
        <ele>458.7</ele>
        <time>2013-08-17T10:17:30Z</time>
      </trkpt>
      <trkpt lat="45.83894" lon="6.16163">
        <ele>458.6</ele>
        <time>2013-08-17T10:17:36Z</time>
      </trkpt>
      <trkpt lat="45.83898" lon="6.1616">
        <ele>458.6</ele>
        <time>2013-08-17T10:17:38Z</time>
      </trkpt>
      <trkpt lat="45.83901" lon="6.16158">
        <ele>458.6</ele>
        <time>2013-08-17T10:17:39Z</time>
      </trkpt>
      <trkpt lat="45.83905" lon="6.16156">
        <ele>458.6</ele>
        <time>2013-08-17T10:17:40Z</time>
      </trkpt>
      <trkpt lat="45.83908" lon="6.16153">
        <ele>458.5</ele>
        <time>2013-08-17T10:17:41Z</time>
      </trkpt>
      <trkpt lat="45.83915" lon="6.1615">
        <ele>458.4</ele>
        <time>2013-08-17T10:17:42Z</time>
      </trkpt>
      <trkpt lat="45.83919" lon="6.16147">
        <ele>458.4</ele>
        <time>2013-08-17T10:17:43Z</time>
      </trkpt>
      <trkpt lat="45.83924" lon="6.16144">
        <ele>458.4</ele>
        <time>2013-08-17T10:17:44Z</time>
      </trkpt>
      <trkpt lat="45.83929" lon="6.1614">
        <ele>458.3</ele>
        <time>2013-08-17T10:17:45Z</time>
      </trkpt>
      <trkpt lat="45.83935" lon="6.16138">
        <ele>458.3</ele>
        <time>2013-08-17T10:17:46Z</time>
      </trkpt>
      <trkpt lat="45.83939" lon="6.16134">
        <ele>458.2</ele>
        <time>2013-08-17T10:17:47Z</time>
      </trkpt>
      <trkpt lat="45.83945" lon="6.16132">
        <ele>458.2</ele>
        <time>2013-08-17T10:17:48Z</time>
      </trkpt>
      <trkpt lat="45.8395" lon="6.16129">
        <ele>458.1</ele>
        <time>2013-08-17T10:17:49Z</time>
      </trkpt>
      <trkpt lat="45.83956" lon="6.16126">
        <ele>458.1</ele>
        <time>2013-08-17T10:17:50Z</time>
      </trkpt>
      <trkpt lat="45.83962" lon="6.16121">
        <ele>458</ele>
        <time>2013-08-17T10:17:51Z</time>
      </trkpt>
      <trkpt lat="45.83967" lon="6.16117">
        <ele>458</ele>
        <time>2013-08-17T10:17:52Z</time>
      </trkpt>
      <trkpt lat="45.83972" lon="6.16114">
        <ele>457.9</ele>
        <time>2013-08-17T10:17:53Z</time>
      </trkpt>
      <trkpt lat="45.83977" lon="6.16111">
        <ele>457.9</ele>
        <time>2013-08-17T10:17:54Z</time>
      </trkpt>
      <trkpt lat="45.83982" lon="6.16106">
        <ele>457.9</ele>
        <time>2013-08-17T10:17:55Z</time>
      </trkpt>
      <trkpt lat="45.83988" lon="6.16102">
        <ele>457.8</ele>
        <time>2013-08-17T10:17:56Z</time>
      </trkpt>
      <trkpt lat="45.83994" lon="6.16099">
        <ele>457.8</ele>
        <time>2013-08-17T10:17:57Z</time>
      </trkpt>
      <trkpt lat="45.84" lon="6.16096">
        <ele>457.7</ele>
        <time>2013-08-17T10:17:58Z</time>
      </trkpt>
      <trkpt lat="45.84005" lon="6.16093">
        <ele>457.7</ele>
        <time>2013-08-17T10:17:59Z</time>
      </trkpt>
      <trkpt lat="45.8401" lon="6.16089">
        <ele>457.6</ele>
        <time>2013-08-17T10:18:00Z</time>
      </trkpt>
      <trkpt lat="45.84014" lon="6.16088">
        <ele>457.6</ele>
        <time>2013-08-17T10:18:01Z</time>
      </trkpt>
      <trkpt lat="45.84018" lon="6.16085">
        <ele>457.5</ele>
        <time>2013-08-17T10:18:02Z</time>
      </trkpt>
      <trkpt lat="45.84024" lon="6.16081">
        <ele>457.5</ele>
        <time>2013-08-17T10:18:03Z</time>
      </trkpt>
      <trkpt lat="45.84029" lon="6.16078">
        <ele>457.4</ele>
        <time>2013-08-17T10:18:04Z</time>
      </trkpt>
      <trkpt lat="45.84036" lon="6.16074">
        <ele>457.4</ele>
        <time>2013-08-17T10:18:05Z</time>
      </trkpt>
      <trkpt lat="45.84041" lon="6.16068">
        <ele>457.4</ele>
        <time>2013-08-17T10:18:06Z</time>
      </trkpt>
      <trkpt lat="45.84045" lon="6.16065">
        <ele>457.3</ele>
        <time>2013-08-17T10:18:07Z</time>
      </trkpt>
      <trkpt lat="45.84051" lon="6.1606">
        <ele>457.2</ele>
        <time>2013-08-17T10:18:08Z</time>
      </trkpt>
      <trkpt lat="45.84058" lon="6.16054">
        <ele>457</ele>
        <time>2013-08-17T10:18:09Z</time>
      </trkpt>
      <trkpt lat="45.84065" lon="6.1605">
        <ele>456.8</ele>
        <time>2013-08-17T10:18:10Z</time>
      </trkpt>
      <trkpt lat="45.84071" lon="6.16047">
        <ele>456.5</ele>
        <time>2013-08-17T10:18:11Z</time>
      </trkpt>
      <trkpt lat="45.84077" lon="6.16044">
        <ele>456.3</ele>
        <time>2013-08-17T10:18:12Z</time>
      </trkpt>
      <trkpt lat="45.84084" lon="6.16038">
        <ele>456</ele>
        <time>2013-08-17T10:18:13Z</time>
      </trkpt>
      <trkpt lat="45.84091" lon="6.1603">
        <ele>455.8</ele>
        <time>2013-08-17T10:18:14Z</time>
      </trkpt>
      <trkpt lat="45.84097" lon="6.16025">
        <ele>455.7</ele>
        <time>2013-08-17T10:18:15Z</time>
      </trkpt>
      <trkpt lat="45.84103" lon="6.16017">
        <ele>455.6</ele>
        <time>2013-08-17T10:18:16Z</time>
      </trkpt>
      <trkpt lat="45.8411" lon="6.16011">
        <ele>455.4</ele>
        <time>2013-08-17T10:18:17Z</time>
      </trkpt>
      <trkpt lat="45.84116" lon="6.16008">
        <ele>455.2</ele>
        <time>2013-08-17T10:18:18Z</time>
      </trkpt>
      <trkpt lat="45.84123" lon="6.16002">
        <ele>455.1</ele>
        <time>2013-08-17T10:18:19Z</time>
      </trkpt>
      <trkpt lat="45.84127" lon="6.15997">
        <ele>455.1</ele>
        <time>2013-08-17T10:18:20Z</time>
      </trkpt>
      <trkpt lat="45.84133" lon="6.15991">
        <ele>455.4</ele>
        <time>2013-08-17T10:18:21Z</time>
      </trkpt>
      <trkpt lat="45.84139" lon="6.15984">
        <ele>455.6</ele>
        <time>2013-08-17T10:18:22Z</time>
      </trkpt>
      <trkpt lat="45.84145" lon="6.15979">
        <ele>455.9</ele>
        <time>2013-08-17T10:18:23Z</time>
      </trkpt>
      <trkpt lat="45.84153" lon="6.15974">
        <ele>456.1</ele>
        <time>2013-08-17T10:18:24Z</time>
      </trkpt>
      <trkpt lat="45.84163" lon="6.15987">
        <ele>456.1</ele>
        <time>2013-08-17T10:18:25Z</time>
      </trkpt>
      <trkpt lat="45.84168" lon="6.15987">
        <ele>456.2</ele>
        <time>2013-08-17T10:18:26Z</time>
      </trkpt>
      <trkpt lat="45.84173" lon="6.15983">
        <ele>456.3</ele>
        <time>2013-08-17T10:18:27Z</time>
      </trkpt>
      <trkpt lat="45.84177" lon="6.15977">
        <ele>456.5</ele>
        <time>2013-08-17T10:18:28Z</time>
      </trkpt>
      <trkpt lat="45.84183" lon="6.1597">
        <ele>456.6</ele>
        <time>2013-08-17T10:18:29Z</time>
      </trkpt>
      <trkpt lat="45.84184" lon="6.15963">
        <ele>456.7</ele>
        <time>2013-08-17T10:18:30Z</time>
      </trkpt>
      <trkpt lat="45.84188" lon="6.1595">
        <ele>456.7</ele>
        <time>2013-08-17T10:18:31Z</time>
      </trkpt>
      <trkpt lat="45.84191" lon="6.15938">
        <ele>456.7</ele>
        <time>2013-08-17T10:18:32Z</time>
      </trkpt>
      <trkpt lat="45.84195" lon="6.15932">
        <ele>456.7</ele>
        <time>2013-08-17T10:18:33Z</time>
      </trkpt>
      <trkpt lat="45.84197" lon="6.15926">
        <ele>456.6</ele>
        <time>2013-08-17T10:18:34Z</time>
      </trkpt>
      <trkpt lat="45.84201" lon="6.15918">
        <ele>456.6</ele>
        <time>2013-08-17T10:18:35Z</time>
      </trkpt>
      <trkpt lat="45.84204" lon="6.15912">
        <ele>456.5</ele>
        <time>2013-08-17T10:18:36Z</time>
      </trkpt>
      <trkpt lat="45.84206" lon="6.15904">
        <ele>456.4</ele>
        <time>2013-08-17T10:18:37Z</time>
      </trkpt>
      <trkpt lat="45.84209" lon="6.15896">
        <ele>456.2</ele>
        <time>2013-08-17T10:18:38Z</time>
      </trkpt>
      <trkpt lat="45.84213" lon="6.15886">
        <ele>456</ele>
        <time>2013-08-17T10:18:39Z</time>
      </trkpt>
      <trkpt lat="45.84218" lon="6.15878">
        <ele>455.8</ele>
        <time>2013-08-17T10:18:40Z</time>
      </trkpt>
      <trkpt lat="45.84222" lon="6.1587">
        <ele>455.6</ele>
        <time>2013-08-17T10:18:41Z</time>
      </trkpt>
      <trkpt lat="45.84229" lon="6.15857">
        <ele>455.3</ele>
        <time>2013-08-17T10:18:42Z</time>
      </trkpt>
      <trkpt lat="45.84235" lon="6.15842">
        <ele>455.1</ele>
        <time>2013-08-17T10:18:43Z</time>
      </trkpt>
      <trkpt lat="45.84238" lon="6.15832">
        <ele>455</ele>
        <time>2013-08-17T10:18:44Z</time>
      </trkpt>
      <trkpt lat="45.84242" lon="6.15821">
        <ele>454.8</ele>
        <time>2013-08-17T10:18:45Z</time>
      </trkpt>
      <trkpt lat="45.84248" lon="6.15808">
        <ele>454.6</ele>
        <time>2013-08-17T10:18:46Z</time>
      </trkpt>
      <trkpt lat="45.84253" lon="6.15799">
        <ele>454.5</ele>
        <time>2013-08-17T10:18:47Z</time>
      </trkpt>
      <trkpt lat="45.84256" lon="6.15789">
        <ele>454.5</ele>
        <time>2013-08-17T10:18:48Z</time>
      </trkpt>
      <trkpt lat="45.84261" lon="6.15779">
        <ele>454.6</ele>
        <time>2013-08-17T10:18:49Z</time>
      </trkpt>
      <trkpt lat="45.84265" lon="6.1577">
        <ele>454.7</ele>
        <time>2013-08-17T10:18:50Z</time>
      </trkpt>
      <trkpt lat="45.84269" lon="6.1576">
        <ele>454.8</ele>
        <time>2013-08-17T10:18:51Z</time>
      </trkpt>
      <trkpt lat="45.84273" lon="6.15751">
        <ele>454.8</ele>
        <time>2013-08-17T10:18:52Z</time>
      </trkpt>
      <trkpt lat="45.84277" lon="6.15742">
        <ele>454.9</ele>
        <time>2013-08-17T10:18:53Z</time>
      </trkpt>
      <trkpt lat="45.84282" lon="6.15732">
        <ele>454.9</ele>
        <time>2013-08-17T10:18:54Z</time>
      </trkpt>
      <trkpt lat="45.84286" lon="6.15722">
        <ele>455</ele>
        <time>2013-08-17T10:18:55Z</time>
      </trkpt>
      <trkpt lat="45.84289" lon="6.15715">
        <ele>455</ele>
        <time>2013-08-17T10:18:56Z</time>
      </trkpt>
      <trkpt lat="45.84292" lon="6.15711">
        <ele>455</ele>
        <time>2013-08-17T10:18:57Z</time>
      </trkpt>
      <trkpt lat="45.84296" lon="6.15703">
        <ele>455.2</ele>
        <time>2013-08-17T10:18:59Z</time>
      </trkpt>
      <trkpt lat="45.84298" lon="6.15696">
        <ele>455.4</ele>
        <time>2013-08-17T10:19:00Z</time>
      </trkpt>
      <trkpt lat="45.84302" lon="6.15687">
        <ele>455.6</ele>
        <time>2013-08-17T10:19:01Z</time>
      </trkpt>
      <trkpt lat="45.84305" lon="6.15679">
        <ele>455.8</ele>
        <time>2013-08-17T10:19:02Z</time>
      </trkpt>
      <trkpt lat="45.84306" lon="6.15671">
        <ele>455.9</ele>
        <time>2013-08-17T10:19:03Z</time>
      </trkpt>
      <trkpt lat="45.84307" lon="6.15663">
        <ele>456.1</ele>
        <time>2013-08-17T10:19:04Z</time>
      </trkpt>
      <trkpt lat="45.84308" lon="6.15656">
        <ele>456.2</ele>
        <time>2013-08-17T10:19:05Z</time>
      </trkpt>
      <trkpt lat="45.8431" lon="6.15648">
        <ele>456.3</ele>
        <time>2013-08-17T10:19:06Z</time>
      </trkpt>
      <trkpt lat="45.84314" lon="6.15641">
        <ele>456.4</ele>
        <time>2013-08-17T10:19:07Z</time>
      </trkpt>
      <trkpt lat="45.84316" lon="6.15636">
        <ele>456.5</ele>
        <time>2013-08-17T10:19:08Z</time>
      </trkpt>
      <trkpt lat="45.84318" lon="6.15628">
        <ele>456.6</ele>
        <time>2013-08-17T10:19:09Z</time>
      </trkpt>
      <trkpt lat="45.84322" lon="6.1562">
        <ele>456.7</ele>
        <time>2013-08-17T10:19:10Z</time>
      </trkpt>
      <trkpt lat="45.84329" lon="6.15607">
        <ele>456.9</ele>
        <time>2013-08-17T10:19:11Z</time>
      </trkpt>
      <trkpt lat="45.84333" lon="6.15598">
        <ele>457</ele>
        <time>2013-08-17T10:19:12Z</time>
      </trkpt>
      <trkpt lat="45.84337" lon="6.15589">
        <ele>457</ele>
        <time>2013-08-17T10:19:13Z</time>
      </trkpt>
      <trkpt lat="45.84341" lon="6.15579">
        <ele>457.1</ele>
        <time>2013-08-17T10:19:14Z</time>
      </trkpt>
      <trkpt lat="45.84345" lon="6.15569">
        <ele>457.1</ele>
        <time>2013-08-17T10:19:15Z</time>
      </trkpt>
      <trkpt lat="45.84362" lon="6.15574">
        <ele>456.5</ele>
        <time>2013-08-17T10:19:16Z</time>
      </trkpt>
      <trkpt lat="45.84366" lon="6.15565">
        <ele>456.4</ele>
        <time>2013-08-17T10:19:17Z</time>
      </trkpt>
      <trkpt lat="45.8437" lon="6.15557">
        <ele>456.2</ele>
        <time>2013-08-17T10:19:18Z</time>
      </trkpt>
      <trkpt lat="45.84375" lon="6.15545">
        <ele>456</ele>
        <time>2013-08-17T10:19:19Z</time>
      </trkpt>
      <trkpt lat="45.8438" lon="6.15534">
        <ele>455.9</ele>
        <time>2013-08-17T10:19:20Z</time>
      </trkpt>
      <trkpt lat="45.84383" lon="6.15528">
        <ele>455.8</ele>
        <time>2013-08-17T10:19:21Z</time>
      </trkpt>
      <trkpt lat="45.84386" lon="6.15522">
        <ele>455.7</ele>
        <time>2013-08-17T10:19:22Z</time>
      </trkpt>
      <trkpt lat="45.84391" lon="6.15513">
        <ele>455.6</ele>
        <time>2013-08-17T10:19:23Z</time>
      </trkpt>
      <trkpt lat="45.84395" lon="6.15506">
        <ele>455.5</ele>
        <time>2013-08-17T10:19:24Z</time>
      </trkpt>
      <trkpt lat="45.844" lon="6.15498">
        <ele>455.4</ele>
        <time>2013-08-17T10:19:25Z</time>
      </trkpt>
      <trkpt lat="45.84404" lon="6.1549">
        <ele>455.3</ele>
        <time>2013-08-17T10:19:26Z</time>
      </trkpt>
      <trkpt lat="45.84408" lon="6.15483">
        <ele>455.2</ele>
        <time>2013-08-17T10:19:27Z</time>
      </trkpt>
      <trkpt lat="45.84413" lon="6.15477">
        <ele>455.1</ele>
        <time>2013-08-17T10:19:28Z</time>
      </trkpt>
      <trkpt lat="45.84416" lon="6.15471">
        <ele>455</ele>
        <time>2013-08-17T10:19:29Z</time>
      </trkpt>
      <trkpt lat="45.84421" lon="6.15465">
        <ele>454.9</ele>
        <time>2013-08-17T10:19:30Z</time>
      </trkpt>
      <trkpt lat="45.84423" lon="6.15461">
        <ele>454.8</ele>
        <time>2013-08-17T10:19:31Z</time>
      </trkpt>
      <trkpt lat="45.84428" lon="6.15435">
        <ele>455.1</ele>
        <time>2013-08-17T10:19:33Z</time>
      </trkpt>
      <trkpt lat="45.84416" lon="6.15414">
        <ele>455.8</ele>
        <time>2013-08-17T10:19:34Z</time>
      </trkpt>
      <trkpt lat="45.84413" lon="6.15404">
        <ele>456.1</ele>
        <time>2013-08-17T10:19:36Z</time>
      </trkpt>
      <trkpt lat="45.84413" lon="6.15397">
        <ele>456.2</ele>
        <time>2013-08-17T10:19:38Z</time>
      </trkpt>
      <trkpt lat="45.84412" lon="6.15372">
        <ele>456.7</ele>
        <time>2013-08-17T10:19:40Z</time>
      </trkpt>
      <trkpt lat="45.84412" lon="6.15362">
        <ele>456.7</ele>
        <time>2013-08-17T10:19:41Z</time>
      </trkpt>
      <trkpt lat="45.84412" lon="6.15352">
        <ele>456.7</ele>
        <time>2013-08-17T10:19:42Z</time>
      </trkpt>
      <trkpt lat="45.84412" lon="6.15343">
        <ele>456.7</ele>
        <time>2013-08-17T10:19:43Z</time>
      </trkpt>
      <trkpt lat="45.84412" lon="6.15332">
        <ele>456.7</ele>
        <time>2013-08-17T10:19:44Z</time>
      </trkpt>
      <trkpt lat="45.84412" lon="6.15321">
        <ele>456.7</ele>
        <time>2013-08-17T10:19:45Z</time>
      </trkpt>
      <trkpt lat="45.84412" lon="6.15312">
        <ele>456.7</ele>
        <time>2013-08-17T10:19:46Z</time>
      </trkpt>
      <trkpt lat="45.84411" lon="6.15304">
        <ele>456.7</ele>
        <time>2013-08-17T10:19:47Z</time>
      </trkpt>
      <trkpt lat="45.84411" lon="6.15294">
        <ele>456.7</ele>
        <time>2013-08-17T10:19:48Z</time>
      </trkpt>
      <trkpt lat="45.8441" lon="6.15286">
        <ele>456.8</ele>
        <time>2013-08-17T10:19:49Z</time>
      </trkpt>
      <trkpt lat="45.84408" lon="6.15279">
        <ele>457</ele>
        <time>2013-08-17T10:19:50Z</time>
      </trkpt>
      <trkpt lat="45.84405" lon="6.15271">
        <ele>457.2</ele>
        <time>2013-08-17T10:19:51Z</time>
      </trkpt>
      <trkpt lat="45.84397" lon="6.15253">
        <ele>457.7</ele>
        <time>2013-08-17T10:19:53Z</time>
      </trkpt>
      <trkpt lat="45.84386" lon="6.15232">
        <ele>458.3</ele>
        <time>2013-08-17T10:19:56Z</time>
      </trkpt>
      <trkpt lat="45.84382" lon="6.15224">
        <ele>458.6</ele>
        <time>2013-08-17T10:19:57Z</time>
      </trkpt>
      <trkpt lat="45.84378" lon="6.15218">
        <ele>458.8</ele>
        <time>2013-08-17T10:19:58Z</time>
      </trkpt>
      <trkpt lat="45.84376" lon="6.15213">
        <ele>458.9</ele>
        <time>2013-08-17T10:19:59Z</time>
      </trkpt>
      <trkpt lat="45.84372" lon="6.15206">
        <ele>459.1</ele>
        <time>2013-08-17T10:20:00Z</time>
      </trkpt>
      <trkpt lat="45.84369" lon="6.152">
        <ele>459.3</ele>
        <time>2013-08-17T10:20:01Z</time>
      </trkpt>
      <trkpt lat="45.84366" lon="6.15196">
        <ele>459.4</ele>
        <time>2013-08-17T10:20:02Z</time>
      </trkpt>
      <trkpt lat="45.84363" lon="6.1519">
        <ele>459.6</ele>
        <time>2013-08-17T10:20:03Z</time>
      </trkpt>
      <trkpt lat="45.8436" lon="6.15184">
        <ele>459.7</ele>
        <time>2013-08-17T10:20:04Z</time>
      </trkpt>
      <trkpt lat="45.84357" lon="6.15178">
        <ele>459.9</ele>
        <time>2013-08-17T10:20:05Z</time>
      </trkpt>
      <trkpt lat="45.84353" lon="6.15172">
        <ele>460</ele>
        <time>2013-08-17T10:20:06Z</time>
      </trkpt>
      <trkpt lat="45.84351" lon="6.15167">
        <ele>460.1</ele>
        <time>2013-08-17T10:20:07Z</time>
      </trkpt>
      <trkpt lat="45.84348" lon="6.15162">
        <ele>460.3</ele>
        <time>2013-08-17T10:20:08Z</time>
      </trkpt>
      <trkpt lat="45.84346" lon="6.15158">
        <ele>460.4</ele>
        <time>2013-08-17T10:20:09Z</time>
      </trkpt>
      <trkpt lat="45.84354" lon="6.15143">
        <ele>460.6</ele>
        <time>2013-08-17T10:20:12Z</time>
      </trkpt>
      <trkpt lat="45.84358" lon="6.15138">
        <ele>460.7</ele>
        <time>2013-08-17T10:20:14Z</time>
      </trkpt>
      <trkpt lat="45.84363" lon="6.15129">
        <ele>460.9</ele>
        <time>2013-08-17T10:20:16Z</time>
      </trkpt>
      <trkpt lat="45.84368" lon="6.15121">
        <ele>460.9</ele>
        <time>2013-08-17T10:20:17Z</time>
      </trkpt>
      <trkpt lat="45.84371" lon="6.15116">
        <ele>460.8</ele>
        <time>2013-08-17T10:20:18Z</time>
      </trkpt>
      <trkpt lat="45.84376" lon="6.15108">
        <ele>460.5</ele>
        <time>2013-08-17T10:20:19Z</time>
      </trkpt>
      <trkpt lat="45.8438" lon="6.15103">
        <ele>460.3</ele>
        <time>2013-08-17T10:20:20Z</time>
      </trkpt>
      <trkpt lat="45.84383" lon="6.15098">
        <ele>460.1</ele>
        <time>2013-08-17T10:20:21Z</time>
      </trkpt>
      <trkpt lat="45.84386" lon="6.15095">
        <ele>459.9</ele>
        <time>2013-08-17T10:20:22Z</time>
      </trkpt>
      <trkpt lat="45.84389" lon="6.1509">
        <ele>459.8</ele>
        <time>2013-08-17T10:20:23Z</time>
      </trkpt>
      <trkpt lat="45.84392" lon="6.15086">
        <ele>459.6</ele>
        <time>2013-08-17T10:20:24Z</time>
      </trkpt>
      <trkpt lat="45.84396" lon="6.15081">
        <ele>459.5</ele>
        <time>2013-08-17T10:20:25Z</time>
      </trkpt>
      <trkpt lat="45.844" lon="6.15074">
        <ele>459.3</ele>
        <time>2013-08-17T10:20:26Z</time>
      </trkpt>
      <trkpt lat="45.84405" lon="6.15068">
        <ele>459.2</ele>
        <time>2013-08-17T10:20:27Z</time>
      </trkpt>
      <trkpt lat="45.84409" lon="6.15063">
        <ele>459.1</ele>
        <time>2013-08-17T10:20:28Z</time>
      </trkpt>
      <trkpt lat="45.84412" lon="6.15058">
        <ele>459</ele>
        <time>2013-08-17T10:20:29Z</time>
      </trkpt>
      <trkpt lat="45.84418" lon="6.1505">
        <ele>459</ele>
        <time>2013-08-17T10:20:30Z</time>
      </trkpt>
      <trkpt lat="45.84424" lon="6.15042">
        <ele>459</ele>
        <time>2013-08-17T10:20:31Z</time>
      </trkpt>
      <trkpt lat="45.84429" lon="6.15034">
        <ele>459.1</ele>
        <time>2013-08-17T10:20:32Z</time>
      </trkpt>
      <trkpt lat="45.84434" lon="6.15027">
        <ele>459.2</ele>
        <time>2013-08-17T10:20:33Z</time>
      </trkpt>
      <trkpt lat="45.84439" lon="6.15021">
        <ele>459.4</ele>
        <time>2013-08-17T10:20:34Z</time>
      </trkpt>
      <trkpt lat="45.84442" lon="6.15016">
        <ele>459.5</ele>
        <time>2013-08-17T10:20:35Z</time>
      </trkpt>
      <trkpt lat="45.84447" lon="6.1501">
        <ele>459.7</ele>
        <time>2013-08-17T10:20:36Z</time>
      </trkpt>
      <trkpt lat="45.84453" lon="6.15001">
        <ele>459.9</ele>
        <time>2013-08-17T10:20:37Z</time>
      </trkpt>
      <trkpt lat="45.84459" lon="6.14993">
        <ele>460.2</ele>
        <time>2013-08-17T10:20:38Z</time>
      </trkpt>
      <trkpt lat="45.84473" lon="6.14973">
        <ele>460.1</ele>
        <time>2013-08-17T10:20:41Z</time>
      </trkpt>
      <trkpt lat="45.84479" lon="6.14967">
        <ele>460.1</ele>
        <time>2013-08-17T10:20:42Z</time>
      </trkpt>
      <trkpt lat="45.84484" lon="6.14961">
        <ele>460</ele>
        <time>2013-08-17T10:20:43Z</time>
      </trkpt>
      <trkpt lat="45.84487" lon="6.14957">
        <ele>460</ele>
        <time>2013-08-17T10:20:44Z</time>
      </trkpt>
      <trkpt lat="45.84492" lon="6.14952">
        <ele>459.9</ele>
        <time>2013-08-17T10:20:45Z</time>
      </trkpt>
      <trkpt lat="45.84497" lon="6.14948">
        <ele>459.8</ele>
        <time>2013-08-17T10:20:46Z</time>
      </trkpt>
      <trkpt lat="45.84504" lon="6.14943">
        <ele>459.6</ele>
        <time>2013-08-17T10:20:47Z</time>
      </trkpt>
      <trkpt lat="45.84509" lon="6.14942">
        <ele>459.6</ele>
        <time>2013-08-17T10:20:48Z</time>
      </trkpt>
      <trkpt lat="45.8452" lon="6.14939">
        <ele>459.3</ele>
        <time>2013-08-17T10:20:49Z</time>
      </trkpt>
      <trkpt lat="45.84528" lon="6.14938">
        <ele>459.1</ele>
        <time>2013-08-17T10:20:50Z</time>
      </trkpt>
      <trkpt lat="45.84535" lon="6.14937">
        <ele>459</ele>
        <time>2013-08-17T10:20:51Z</time>
      </trkpt>
      <trkpt lat="45.84541" lon="6.14936">
        <ele>458.8</ele>
        <time>2013-08-17T10:20:52Z</time>
      </trkpt>
      <trkpt lat="45.84549" lon="6.14932">
        <ele>458.8</ele>
        <time>2013-08-17T10:20:53Z</time>
      </trkpt>
      <trkpt lat="45.84555" lon="6.14924">
        <ele>459</ele>
        <time>2013-08-17T10:20:55Z</time>
      </trkpt>
      <trkpt lat="45.84557" lon="6.14906">
        <ele>459.6</ele>
        <time>2013-08-17T10:20:57Z</time>
      </trkpt>
      <trkpt lat="45.84557" lon="6.14898">
        <ele>459.9</ele>
        <time>2013-08-17T10:20:59Z</time>
      </trkpt>
      <trkpt lat="45.84556" lon="6.14888">
        <ele>460.2</ele>
        <time>2013-08-17T10:21:00Z</time>
      </trkpt>
      <trkpt lat="45.84567" lon="6.1488">
        <ele>460.2</ele>
        <time>2013-08-17T10:21:01Z</time>
      </trkpt>
      <trkpt lat="45.84571" lon="6.14877">
        <ele>460.2</ele>
        <time>2013-08-17T10:21:04Z</time>
      </trkpt>
      <trkpt lat="45.84575" lon="6.14869">
        <ele>460.9</ele>
        <time>2013-08-17T10:21:06Z</time>
      </trkpt>
      <trkpt lat="45.84579" lon="6.14862">
        <ele>461.7</ele>
        <time>2013-08-17T10:21:08Z</time>
      </trkpt>
      <trkpt lat="45.84581" lon="6.14854">
        <ele>462.4</ele>
        <time>2013-08-17T10:21:09Z</time>
      </trkpt>
      <trkpt lat="45.84581" lon="6.14849">
        <ele>463</ele>
        <time>2013-08-17T10:21:10Z</time>
      </trkpt>
      <trkpt lat="45.8458" lon="6.1484">
        <ele>464.1</ele>
        <time>2013-08-17T10:21:12Z</time>
      </trkpt>
      <trkpt lat="45.84576" lon="6.1484">
        <ele>464.3</ele>
        <time>2013-08-17T10:21:14Z</time>
      </trkpt>
      <trkpt lat="45.84566" lon="6.14819">
        <ele>467.2</ele>
        <time>2013-08-17T10:21:16Z</time>
      </trkpt>
      <trkpt lat="45.84556" lon="6.14812">
        <ele>468.6</ele>
        <time>2013-08-17T10:21:17Z</time>
      </trkpt>
      <trkpt lat="45.8455" lon="6.14808">
        <ele>469.4</ele>
        <time>2013-08-17T10:21:18Z</time>
      </trkpt>
      <trkpt lat="45.84543" lon="6.14807">
        <ele>469.9</ele>
        <time>2013-08-17T10:21:19Z</time>
      </trkpt>
      <trkpt lat="45.84538" lon="6.14809">
        <ele>469.8</ele>
        <time>2013-08-17T10:21:20Z</time>
      </trkpt>
      <trkpt lat="45.84534" lon="6.14811">
        <ele>469.5</ele>
        <time>2013-08-17T10:21:21Z</time>
      </trkpt>
      <trkpt lat="45.8453" lon="6.14814">
        <ele>469.2</ele>
        <time>2013-08-17T10:21:22Z</time>
      </trkpt>
      <trkpt lat="45.84527" lon="6.14817">
        <ele>468.7</ele>
        <time>2013-08-17T10:21:23Z</time>
      </trkpt>
      <trkpt lat="45.84514" lon="6.14816">
        <ele>469</ele>
        <time>2013-08-17T10:21:24Z</time>
      </trkpt>
      <trkpt lat="45.84507" lon="6.14813">
        <ele>469.5</ele>
        <time>2013-08-17T10:21:25Z</time>
      </trkpt>
      <trkpt lat="45.84486" lon="6.1481">
        <ele>470</ele>
        <time>2013-08-17T10:21:28Z</time>
      </trkpt>
      <trkpt lat="45.84479" lon="6.1481">
        <ele>470.1</ele>
        <time>2013-08-17T10:21:29Z</time>
      </trkpt>
      <trkpt lat="45.84473" lon="6.1481">
        <ele>470.2</ele>
        <time>2013-08-17T10:21:30Z</time>
      </trkpt>
      <trkpt lat="45.84467" lon="6.1481">
        <ele>470.2</ele>
        <time>2013-08-17T10:21:31Z</time>
      </trkpt>
      <trkpt lat="45.8446" lon="6.1481">
        <ele>470.3</ele>
        <time>2013-08-17T10:21:32Z</time>
      </trkpt>
      <trkpt lat="45.84448" lon="6.14811">
        <ele>469.9</ele>
        <time>2013-08-17T10:21:33Z</time>
      </trkpt>
      <trkpt lat="45.84438" lon="6.14812">
        <ele>469.6</ele>
        <time>2013-08-17T10:21:34Z</time>
      </trkpt>
      <trkpt lat="45.84433" lon="6.14813">
        <ele>469.4</ele>
        <time>2013-08-17T10:21:35Z</time>
      </trkpt>
      <trkpt lat="45.84424" lon="6.14814">
        <ele>469.1</ele>
        <time>2013-08-17T10:21:36Z</time>
      </trkpt>
      <trkpt lat="45.84415" lon="6.14814">
        <ele>468.7</ele>
        <time>2013-08-17T10:21:37Z</time>
      </trkpt>
      <trkpt lat="45.84407" lon="6.14815">
        <ele>468.5</ele>
        <time>2013-08-17T10:21:38Z</time>
      </trkpt>
      <trkpt lat="45.844" lon="6.14816">
        <ele>468.2</ele>
        <time>2013-08-17T10:21:39Z</time>
      </trkpt>
      <trkpt lat="45.84393" lon="6.14816">
        <ele>468</ele>
        <time>2013-08-17T10:21:40Z</time>
      </trkpt>
      <trkpt lat="45.84387" lon="6.14817">
        <ele>467.8</ele>
        <time>2013-08-17T10:21:41Z</time>
      </trkpt>
      <trkpt lat="45.84377" lon="6.14818">
        <ele>467.5</ele>
        <time>2013-08-17T10:21:42Z</time>
      </trkpt>
      <trkpt lat="45.8437" lon="6.14819">
        <ele>467.4</ele>
        <time>2013-08-17T10:21:43Z</time>
      </trkpt>
      <trkpt lat="45.8436" lon="6.14821">
        <ele>467.1</ele>
        <time>2013-08-17T10:21:44Z</time>
      </trkpt>
      <trkpt lat="45.84352" lon="6.14822">
        <ele>467.1</ele>
        <time>2013-08-17T10:21:45Z</time>
      </trkpt>
      <trkpt lat="45.84345" lon="6.14825">
        <ele>466.8</ele>
        <time>2013-08-17T10:21:46Z</time>
      </trkpt>
      <trkpt lat="45.84338" lon="6.14827">
        <ele>466.6</ele>
        <time>2013-08-17T10:21:47Z</time>
      </trkpt>
      <trkpt lat="45.84329" lon="6.1483">
        <ele>466.5</ele>
        <time>2013-08-17T10:21:48Z</time>
      </trkpt>
      <trkpt lat="45.84319" lon="6.14833">
        <ele>466.4</ele>
        <time>2013-08-17T10:21:49Z</time>
      </trkpt>
      <trkpt lat="45.84312" lon="6.14834">
        <ele>466.3</ele>
        <time>2013-08-17T10:21:50Z</time>
      </trkpt>
      <trkpt lat="45.84305" lon="6.14836">
        <ele>466.3</ele>
        <time>2013-08-17T10:21:51Z</time>
      </trkpt>
      <trkpt lat="45.84302" lon="6.14838">
        <ele>466.3</ele>
        <time>2013-08-17T10:21:52Z</time>
      </trkpt>
      <trkpt lat="45.84292" lon="6.14839">
        <ele>466.3</ele>
        <time>2013-08-17T10:21:53Z</time>
      </trkpt>
      <trkpt lat="45.84282" lon="6.14841">
        <ele>466.4</ele>
        <time>2013-08-17T10:21:54Z</time>
      </trkpt>
      <trkpt lat="45.84274" lon="6.14842">
        <ele>466.6</ele>
        <time>2013-08-17T10:21:55Z</time>
      </trkpt>
      <trkpt lat="45.84267" lon="6.14843">
        <ele>466.7</ele>
        <time>2013-08-17T10:21:56Z</time>
      </trkpt>
      <trkpt lat="45.84259" lon="6.14845">
        <ele>466.8</ele>
        <time>2013-08-17T10:21:57Z</time>
      </trkpt>
      <trkpt lat="45.84251" lon="6.14847">
        <ele>466.8</ele>
        <time>2013-08-17T10:21:58Z</time>
      </trkpt>
      <trkpt lat="45.84242" lon="6.14848">
        <ele>466.9</ele>
        <time>2013-08-17T10:21:59Z</time>
      </trkpt>
      <trkpt lat="45.84235" lon="6.14849">
        <ele>467</ele>
        <time>2013-08-17T10:22:00Z</time>
      </trkpt>
      <trkpt lat="45.84227" lon="6.14851">
        <ele>467.1</ele>
        <time>2013-08-17T10:22:01Z</time>
      </trkpt>
      <trkpt lat="45.84221" lon="6.14852">
        <ele>467.2</ele>
        <time>2013-08-17T10:22:02Z</time>
      </trkpt>
      <trkpt lat="45.8421" lon="6.14854">
        <ele>467.2</ele>
        <time>2013-08-17T10:22:03Z</time>
      </trkpt>
      <trkpt lat="45.84202" lon="6.14856">
        <ele>467.3</ele>
        <time>2013-08-17T10:22:04Z</time>
      </trkpt>
      <trkpt lat="45.84193" lon="6.14858">
        <ele>467.3</ele>
        <time>2013-08-17T10:22:05Z</time>
      </trkpt>
      <trkpt lat="45.84185" lon="6.1486">
        <ele>467.4</ele>
        <time>2013-08-17T10:22:06Z</time>
      </trkpt>
      <trkpt lat="45.84177" lon="6.14862">
        <ele>467.3</ele>
        <time>2013-08-17T10:22:07Z</time>
      </trkpt>
      <trkpt lat="45.84169" lon="6.14864">
        <ele>467.4</ele>
        <time>2013-08-17T10:22:08Z</time>
      </trkpt>
      <trkpt lat="45.84161" lon="6.14865">
        <ele>467.3</ele>
        <time>2013-08-17T10:22:09Z</time>
      </trkpt>
      <trkpt lat="45.84153" lon="6.14867">
        <ele>467.3</ele>
        <time>2013-08-17T10:22:10Z</time>
      </trkpt>
      <trkpt lat="45.84146" lon="6.1487">
        <ele>467.2</ele>
        <time>2013-08-17T10:22:11Z</time>
      </trkpt>
      <trkpt lat="45.8414" lon="6.14871">
        <ele>467.2</ele>
        <time>2013-08-17T10:22:12Z</time>
      </trkpt>
      <trkpt lat="45.84131" lon="6.14873">
        <ele>467.1</ele>
        <time>2013-08-17T10:22:13Z</time>
      </trkpt>
      <trkpt lat="45.84124" lon="6.14875">
        <ele>467</ele>
        <time>2013-08-17T10:22:14Z</time>
      </trkpt>
      <trkpt lat="45.84117" lon="6.14876">
        <ele>467.4</ele>
        <time>2013-08-17T10:22:15Z</time>
      </trkpt>
      <trkpt lat="45.8411" lon="6.14877">
        <ele>467.7</ele>
        <time>2013-08-17T10:22:16Z</time>
      </trkpt>
      <trkpt lat="45.84103" lon="6.14879">
        <ele>468</ele>
        <time>2013-08-17T10:22:17Z</time>
      </trkpt>
      <trkpt lat="45.84097" lon="6.1488">
        <ele>468.2</ele>
        <time>2013-08-17T10:22:18Z</time>
      </trkpt>
      <trkpt lat="45.84089" lon="6.14882">
        <ele>468.5</ele>
        <time>2013-08-17T10:22:19Z</time>
      </trkpt>
      <trkpt lat="45.84082" lon="6.14883">
        <ele>468.8</ele>
        <time>2013-08-17T10:22:20Z</time>
      </trkpt>
      <trkpt lat="45.84078" lon="6.14884">
        <ele>469</ele>
        <time>2013-08-17T10:22:21Z</time>
      </trkpt>
      <trkpt lat="45.84062" lon="6.14888">
        <ele>469.6</ele>
        <time>2013-08-17T10:22:23Z</time>
      </trkpt>
      <trkpt lat="45.84053" lon="6.1489">
        <ele>470</ele>
        <time>2013-08-17T10:22:24Z</time>
      </trkpt>
      <trkpt lat="45.84048" lon="6.14891">
        <ele>470.1</ele>
        <time>2013-08-17T10:22:25Z</time>
      </trkpt>
      <trkpt lat="45.84029" lon="6.14895">
        <ele>470.7</ele>
        <time>2013-08-17T10:22:28Z</time>
      </trkpt>
      <trkpt lat="45.84023" lon="6.14897">
        <ele>470.9</ele>
        <time>2013-08-17T10:22:29Z</time>
      </trkpt>
      <trkpt lat="45.84016" lon="6.14898">
        <ele>471.1</ele>
        <time>2013-08-17T10:22:30Z</time>
      </trkpt>
      <trkpt lat="45.84002" lon="6.14901">
        <ele>471.5</ele>
        <time>2013-08-17T10:22:32Z</time>
      </trkpt>
      <trkpt lat="45.83996" lon="6.14903">
        <ele>471.7</ele>
        <time>2013-08-17T10:22:33Z</time>
      </trkpt>
      <trkpt lat="45.83989" lon="6.14904">
        <ele>471.8</ele>
        <time>2013-08-17T10:22:34Z</time>
      </trkpt>
      <trkpt lat="45.83982" lon="6.14906">
        <ele>472</ele>
        <time>2013-08-17T10:22:35Z</time>
      </trkpt>
      <trkpt lat="45.83976" lon="6.14907">
        <ele>472.2</ele>
        <time>2013-08-17T10:22:36Z</time>
      </trkpt>
      <trkpt lat="45.83971" lon="6.14909">
        <ele>472.3</ele>
        <time>2013-08-17T10:22:37Z</time>
      </trkpt>
      <trkpt lat="45.83962" lon="6.14911">
        <ele>472.6</ele>
        <time>2013-08-17T10:22:38Z</time>
      </trkpt>
      <trkpt lat="45.83956" lon="6.14912">
        <ele>473</ele>
        <time>2013-08-17T10:22:39Z</time>
      </trkpt>
      <trkpt lat="45.8395" lon="6.14914">
        <ele>473.6</ele>
        <time>2013-08-17T10:22:40Z</time>
      </trkpt>
      <trkpt lat="45.83942" lon="6.14915">
        <ele>474.4</ele>
        <time>2013-08-17T10:22:41Z</time>
      </trkpt>
      <trkpt lat="45.83937" lon="6.14917">
        <ele>475</ele>
        <time>2013-08-17T10:22:42Z</time>
      </trkpt>
      <trkpt lat="45.83931" lon="6.14918">
        <ele>475.5</ele>
        <time>2013-08-17T10:22:43Z</time>
      </trkpt>
      <trkpt lat="45.83926" lon="6.1492">
        <ele>476.1</ele>
        <time>2013-08-17T10:22:44Z</time>
      </trkpt>
      <trkpt lat="45.83919" lon="6.14922">
        <ele>476.7</ele>
        <time>2013-08-17T10:22:45Z</time>
      </trkpt>
      <trkpt lat="45.83912" lon="6.14923">
        <ele>477.4</ele>
        <time>2013-08-17T10:22:46Z</time>
      </trkpt>
      <trkpt lat="45.83906" lon="6.14926">
        <ele>477.9</ele>
        <time>2013-08-17T10:22:47Z</time>
      </trkpt>
      <trkpt lat="45.839" lon="6.14929">
        <ele>478.4</ele>
        <time>2013-08-17T10:22:48Z</time>
      </trkpt>
      <trkpt lat="45.83893" lon="6.14931">
        <ele>479.1</ele>
        <time>2013-08-17T10:22:49Z</time>
      </trkpt>
      <trkpt lat="45.83889" lon="6.14933">
        <ele>479.4</ele>
        <time>2013-08-17T10:22:50Z</time>
      </trkpt>
      <trkpt lat="45.83883" lon="6.14933">
        <ele>479.9</ele>
        <time>2013-08-17T10:22:51Z</time>
      </trkpt>
      <trkpt lat="45.83877" lon="6.14935">
        <ele>480.5</ele>
        <time>2013-08-17T10:22:52Z</time>
      </trkpt>
      <trkpt lat="45.83871" lon="6.14935">
        <ele>481.1</ele>
        <time>2013-08-17T10:22:53Z</time>
      </trkpt>
      <trkpt lat="45.83866" lon="6.14936">
        <ele>481.5</ele>
        <time>2013-08-17T10:22:54Z</time>
      </trkpt>
      <trkpt lat="45.83859" lon="6.14937">
        <ele>482.1</ele>
        <time>2013-08-17T10:22:55Z</time>
      </trkpt>
      <trkpt lat="45.83853" lon="6.14938">
        <ele>482.6</ele>
        <time>2013-08-17T10:22:56Z</time>
      </trkpt>
      <trkpt lat="45.83848" lon="6.14939">
        <ele>482.9</ele>
        <time>2013-08-17T10:22:57Z</time>
      </trkpt>
      <trkpt lat="45.83844" lon="6.1494">
        <ele>483.2</ele>
        <time>2013-08-17T10:22:58Z</time>
      </trkpt>
      <trkpt lat="45.83848" lon="6.14939">
        <ele>483</ele>
        <time>2013-08-17T10:23:00Z</time>
      </trkpt>
      <trkpt lat="45.83846" lon="6.14919">
        <ele>484.9</ele>
        <time>2013-08-17T10:23:06Z</time>
      </trkpt>
      <trkpt lat="45.83854" lon="6.14933">
        <ele>482.9</ele>
        <time>2013-08-17T10:23:44Z</time>
      </trkpt>
      <trkpt lat="45.83857" lon="6.14937">
        <ele>482.2</ele>
        <time>2013-08-17T10:24:00Z</time>
      </trkpt>
      <trkpt lat="45.83863" lon="6.14939">
        <ele>481.5</ele>
        <time>2013-08-17T10:24:02Z</time>
      </trkpt>
      <trkpt lat="45.83868" lon="6.1494">
        <ele>481</ele>
        <time>2013-08-17T10:24:03Z</time>
      </trkpt>
      <trkpt lat="45.83873" lon="6.14941">
        <ele>480.5</ele>
        <time>2013-08-17T10:24:04Z</time>
      </trkpt>
      <trkpt lat="45.83884" lon="6.14938">
        <ele>479.5</ele>
        <time>2013-08-17T10:24:05Z</time>
      </trkpt>
      <trkpt lat="45.83896" lon="6.14934">
        <ele>478.5</ele>
        <time>2013-08-17T10:24:06Z</time>
      </trkpt>
      <trkpt lat="45.83903" lon="6.14932">
        <ele>478</ele>
        <time>2013-08-17T10:24:07Z</time>
      </trkpt>
      <trkpt lat="45.8391" lon="6.14931">
        <ele>477.2</ele>
        <time>2013-08-17T10:24:08Z</time>
      </trkpt>
      <trkpt lat="45.83917" lon="6.1493">
        <ele>476.5</ele>
        <time>2013-08-17T10:24:09Z</time>
      </trkpt>
      <trkpt lat="45.83927" lon="6.14927">
        <ele>475.6</ele>
        <time>2013-08-17T10:24:10Z</time>
      </trkpt>
      <trkpt lat="45.83935" lon="6.14927">
        <ele>474.8</ele>
        <time>2013-08-17T10:24:11Z</time>
      </trkpt>
      <trkpt lat="45.83943" lon="6.14925">
        <ele>473.9</ele>
        <time>2013-08-17T10:24:12Z</time>
      </trkpt>
      <trkpt lat="45.8395" lon="6.14923">
        <ele>473.2</ele>
        <time>2013-08-17T10:24:13Z</time>
      </trkpt>
      <trkpt lat="45.83957" lon="6.14921">
        <ele>472.5</ele>
        <time>2013-08-17T10:24:14Z</time>
      </trkpt>
      <trkpt lat="45.83963" lon="6.14919">
        <ele>472.2</ele>
        <time>2013-08-17T10:24:15Z</time>
      </trkpt>
      <trkpt lat="45.8397" lon="6.14919">
        <ele>472</ele>
        <time>2013-08-17T10:24:16Z</time>
      </trkpt>
      <trkpt lat="45.83978" lon="6.14917">
        <ele>471.8</ele>
        <time>2013-08-17T10:24:17Z</time>
      </trkpt>
      <trkpt lat="45.83986" lon="6.14913">
        <ele>471.6</ele>
        <time>2013-08-17T10:24:18Z</time>
      </trkpt>
      <trkpt lat="45.83993" lon="6.14911">
        <ele>471.5</ele>
        <time>2013-08-17T10:24:19Z</time>
      </trkpt>
      <trkpt lat="45.84002" lon="6.14907">
        <ele>471.3</ele>
        <time>2013-08-17T10:24:20Z</time>
      </trkpt>
      <trkpt lat="45.8401" lon="6.14904">
        <ele>471.1</ele>
        <time>2013-08-17T10:24:21Z</time>
      </trkpt>
      <trkpt lat="45.84016" lon="6.14901">
        <ele>471</ele>
        <time>2013-08-17T10:24:22Z</time>
      </trkpt>
      <trkpt lat="45.84026" lon="6.149">
        <ele>470.7</ele>
        <time>2013-08-17T10:24:23Z</time>
      </trkpt>
      <trkpt lat="45.84035" lon="6.149">
        <ele>470.4</ele>
        <time>2013-08-17T10:24:24Z</time>
      </trkpt>
      <trkpt lat="45.84044" lon="6.149">
        <ele>470</ele>
        <time>2013-08-17T10:24:25Z</time>
      </trkpt>
      <trkpt lat="45.84048" lon="6.14899">
        <ele>469.8</ele>
        <time>2013-08-17T10:24:26Z</time>
      </trkpt>
      <trkpt lat="45.84061" lon="6.14897">
        <ele>469.3</ele>
        <time>2013-08-17T10:24:27Z</time>
      </trkpt>
      <trkpt lat="45.84069" lon="6.14895">
        <ele>469</ele>
        <time>2013-08-17T10:24:28Z</time>
      </trkpt>
      <trkpt lat="45.84078" lon="6.14894">
        <ele>468.7</ele>
        <time>2013-08-17T10:24:29Z</time>
      </trkpt>
      <trkpt lat="45.84087" lon="6.14892">
        <ele>468.3</ele>
        <time>2013-08-17T10:24:30Z</time>
      </trkpt>
      <trkpt lat="45.84096" lon="6.1489">
        <ele>468</ele>
        <time>2013-08-17T10:24:31Z</time>
      </trkpt>
      <trkpt lat="45.84105" lon="6.14888">
        <ele>467.6</ele>
        <time>2013-08-17T10:24:32Z</time>
      </trkpt>
      <trkpt lat="45.84114" lon="6.14888">
        <ele>467.2</ele>
        <time>2013-08-17T10:24:33Z</time>
      </trkpt>
      <trkpt lat="45.84122" lon="6.14886">
        <ele>466.9</ele>
        <time>2013-08-17T10:24:34Z</time>
      </trkpt>
      <trkpt lat="45.8413" lon="6.14884">
        <ele>466.7</ele>
        <time>2013-08-17T10:24:35Z</time>
      </trkpt>
      <trkpt lat="45.84138" lon="6.14883">
        <ele>466.6</ele>
        <time>2013-08-17T10:24:36Z</time>
      </trkpt>
      <trkpt lat="45.84155" lon="6.14878">
        <ele>466.6</ele>
        <time>2013-08-17T10:24:38Z</time>
      </trkpt>
      <trkpt lat="45.84163" lon="6.14876">
        <ele>466.5</ele>
        <time>2013-08-17T10:24:39Z</time>
      </trkpt>
      <trkpt lat="45.84172" lon="6.14875">
        <ele>466.5</ele>
        <time>2013-08-17T10:24:40Z</time>
      </trkpt>
      <trkpt lat="45.8418" lon="6.14872">
        <ele>466.6</ele>
        <time>2013-08-17T10:24:41Z</time>
      </trkpt>
      <trkpt lat="45.84189" lon="6.14868">
        <ele>466.7</ele>
        <time>2013-08-17T10:24:42Z</time>
      </trkpt>
      <trkpt lat="45.84197" lon="6.14867">
        <ele>466.6</ele>
        <time>2013-08-17T10:24:43Z</time>
      </trkpt>
      <trkpt lat="45.84205" lon="6.14864">
        <ele>466.7</ele>
        <time>2013-08-17T10:24:44Z</time>
      </trkpt>
      <trkpt lat="45.84211" lon="6.14864">
        <ele>466.6</ele>
        <time>2013-08-17T10:24:45Z</time>
      </trkpt>
      <trkpt lat="45.84217" lon="6.14861">
        <ele>466.7</ele>
        <time>2013-08-17T10:24:46Z</time>
      </trkpt>
      <trkpt lat="45.84222" lon="6.14859">
        <ele>466.7</ele>
        <time>2013-08-17T10:24:47Z</time>
      </trkpt>
      <trkpt lat="45.84238" lon="6.14855">
        <ele>466.7</ele>
        <time>2013-08-17T10:24:49Z</time>
      </trkpt>
      <trkpt lat="45.84245" lon="6.14854">
        <ele>466.6</ele>
        <time>2013-08-17T10:24:50Z</time>
      </trkpt>
      <trkpt lat="45.84251" lon="6.14852">
        <ele>466.6</ele>
        <time>2013-08-17T10:24:51Z</time>
      </trkpt>
      <trkpt lat="45.84258" lon="6.14852">
        <ele>466.5</ele>
        <time>2013-08-17T10:24:52Z</time>
      </trkpt>
      <trkpt lat="45.84265" lon="6.1485">
        <ele>466.4</ele>
        <time>2013-08-17T10:24:53Z</time>
      </trkpt>
      <trkpt lat="45.8427" lon="6.14849">
        <ele>466.3</ele>
        <time>2013-08-17T10:24:54Z</time>
      </trkpt>
      <trkpt lat="45.84277" lon="6.14848">
        <ele>466.3</ele>
        <time>2013-08-17T10:24:55Z</time>
      </trkpt>
      <trkpt lat="45.84284" lon="6.14847">
        <ele>466.2</ele>
        <time>2013-08-17T10:24:56Z</time>
      </trkpt>
      <trkpt lat="45.84291" lon="6.14845">
        <ele>466.1</ele>
        <time>2013-08-17T10:24:57Z</time>
      </trkpt>
      <trkpt lat="45.84299" lon="6.14844">
        <ele>466</ele>
        <time>2013-08-17T10:24:58Z</time>
      </trkpt>
      <trkpt lat="45.84303" lon="6.14844">
        <ele>466</ele>
        <time>2013-08-17T10:24:59Z</time>
      </trkpt>
      <trkpt lat="45.84314" lon="6.14842">
        <ele>465.9</ele>
        <time>2013-08-17T10:25:00Z</time>
      </trkpt>
      <trkpt lat="45.84322" lon="6.14839">
        <ele>466</ele>
        <time>2013-08-17T10:25:01Z</time>
      </trkpt>
      <trkpt lat="45.8433" lon="6.14837">
        <ele>466.1</ele>
        <time>2013-08-17T10:25:02Z</time>
      </trkpt>
      <trkpt lat="45.84337" lon="6.14834">
        <ele>466.2</ele>
        <time>2013-08-17T10:25:03Z</time>
      </trkpt>
      <trkpt lat="45.84345" lon="6.14832">
        <ele>466.3</ele>
        <time>2013-08-17T10:25:04Z</time>
      </trkpt>
      <trkpt lat="45.84353" lon="6.1483">
        <ele>466.4</ele>
        <time>2013-08-17T10:25:05Z</time>
      </trkpt>
      <trkpt lat="45.84361" lon="6.14829">
        <ele>466.5</ele>
        <time>2013-08-17T10:25:06Z</time>
      </trkpt>
      <trkpt lat="45.84369" lon="6.14827">
        <ele>466.6</ele>
        <time>2013-08-17T10:25:07Z</time>
      </trkpt>
      <trkpt lat="45.84376" lon="6.14827">
        <ele>466.7</ele>
        <time>2013-08-17T10:25:08Z</time>
      </trkpt>
      <trkpt lat="45.84385" lon="6.14825">
        <ele>466.9</ele>
        <time>2013-08-17T10:25:09Z</time>
      </trkpt>
      <trkpt lat="45.84393" lon="6.14824">
        <ele>467.2</ele>
        <time>2013-08-17T10:25:10Z</time>
      </trkpt>
      <trkpt lat="45.844" lon="6.14824">
        <ele>467.4</ele>
        <time>2013-08-17T10:25:11Z</time>
      </trkpt>
      <trkpt lat="45.84408" lon="6.14822">
        <ele>467.7</ele>
        <time>2013-08-17T10:25:12Z</time>
      </trkpt>
      <trkpt lat="45.84417" lon="6.14821">
        <ele>468</ele>
        <time>2013-08-17T10:25:13Z</time>
      </trkpt>
      <trkpt lat="45.84424" lon="6.14821">
        <ele>468.2</ele>
        <time>2013-08-17T10:25:14Z</time>
      </trkpt>
      <trkpt lat="45.84433" lon="6.14819">
        <ele>468.5</ele>
        <time>2013-08-17T10:25:15Z</time>
      </trkpt>
      <trkpt lat="45.8444" lon="6.1482">
        <ele>468.6</ele>
        <time>2013-08-17T10:25:16Z</time>
      </trkpt>
      <trkpt lat="45.84448" lon="6.1482">
        <ele>468.7</ele>
        <time>2013-08-17T10:25:17Z</time>
      </trkpt>
      <trkpt lat="45.84454" lon="6.14818">
        <ele>469.1</ele>
        <time>2013-08-17T10:25:18Z</time>
      </trkpt>
      <trkpt lat="45.84461" lon="6.14817">
        <ele>469.3</ele>
        <time>2013-08-17T10:25:19Z</time>
      </trkpt>
      <trkpt lat="45.84469" lon="6.14817">
        <ele>469.3</ele>
        <time>2013-08-17T10:25:20Z</time>
      </trkpt>
      <trkpt lat="45.84475" lon="6.14817">
        <ele>469.3</ele>
        <time>2013-08-17T10:25:21Z</time>
      </trkpt>
      <trkpt lat="45.84481" lon="6.14817">
        <ele>469.2</ele>
        <time>2013-08-17T10:25:22Z</time>
      </trkpt>
      <trkpt lat="45.84489" lon="6.14817">
        <ele>469.1</ele>
        <time>2013-08-17T10:25:23Z</time>
      </trkpt>
      <trkpt lat="45.84494" lon="6.14817">
        <ele>469</ele>
        <time>2013-08-17T10:25:24Z</time>
      </trkpt>
      <trkpt lat="45.84501" lon="6.14818">
        <ele>468.9</ele>
        <time>2013-08-17T10:25:25Z</time>
      </trkpt>
      <trkpt lat="45.84503" lon="6.14821">
        <ele>468.5</ele>
        <time>2013-08-17T10:25:26Z</time>
      </trkpt>
      <trkpt lat="45.84502" lon="6.14826">
        <ele>467.8</ele>
        <time>2013-08-17T10:25:28Z</time>
      </trkpt>
      <trkpt lat="45.84501" lon="6.14831">
        <ele>467</ele>
        <time>2013-08-17T10:25:31Z</time>
      </trkpt>
      <trkpt lat="45.84504" lon="6.14833">
        <ele>466.7</ele>
        <time>2013-08-17T10:25:32Z</time>
      </trkpt>
      <trkpt lat="45.8452" lon="6.14846">
        <ele>464.9</ele>
        <time>2013-08-17T10:25:35Z</time>
      </trkpt>
      <trkpt lat="45.84522" lon="6.14853">
        <ele>464</ele>
        <time>2013-08-17T10:25:36Z</time>
      </trkpt>
      <trkpt lat="45.84525" lon="6.14859">
        <ele>463.1</ele>
        <time>2013-08-17T10:25:37Z</time>
      </trkpt>
      <trkpt lat="45.84532" lon="6.14867">
        <ele>462</ele>
        <time>2013-08-17T10:25:39Z</time>
      </trkpt>
      <trkpt lat="45.84542" lon="6.1488">
        <ele>460.8</ele>
        <time>2013-08-17T10:25:40Z</time>
      </trkpt>
      <trkpt lat="45.84538" lon="6.14879">
        <ele>460.9</ele>
        <time>2013-08-17T10:25:41Z</time>
      </trkpt>
      <trkpt lat="45.84547" lon="6.14885">
        <ele>460.5</ele>
        <time>2013-08-17T10:25:42Z</time>
      </trkpt>
      <trkpt lat="45.84549" lon="6.14888">
        <ele>460.4</ele>
        <time>2013-08-17T10:25:43Z</time>
      </trkpt>
      <trkpt lat="45.84547" lon="6.14907">
        <ele>459.7</ele>
        <time>2013-08-17T10:25:44Z</time>
      </trkpt>
      <trkpt lat="45.84544" lon="6.14935">
        <ele>458.8</ele>
        <time>2013-08-17T10:25:45Z</time>
      </trkpt>
      <trkpt lat="45.84539" lon="6.14936">
        <ele>458.9</ele>
        <time>2013-08-17T10:25:46Z</time>
      </trkpt>
      <trkpt lat="45.84531" lon="6.14937">
        <ele>459.1</ele>
        <time>2013-08-17T10:25:47Z</time>
      </trkpt>
      <trkpt lat="45.84524" lon="6.14938">
        <ele>459.2</ele>
        <time>2013-08-17T10:25:48Z</time>
      </trkpt>
      <trkpt lat="45.84517" lon="6.14939">
        <ele>459.4</ele>
        <time>2013-08-17T10:25:49Z</time>
      </trkpt>
      <trkpt lat="45.84511" lon="6.14941">
        <ele>459.5</ele>
        <time>2013-08-17T10:25:50Z</time>
      </trkpt>
      <trkpt lat="45.84504" lon="6.14943">
        <ele>459.6</ele>
        <time>2013-08-17T10:25:51Z</time>
      </trkpt>
      <trkpt lat="45.84499" lon="6.14946">
        <ele>459.8</ele>
        <time>2013-08-17T10:25:52Z</time>
      </trkpt>
      <trkpt lat="45.84492" lon="6.14952">
        <ele>459.9</ele>
        <time>2013-08-17T10:25:53Z</time>
      </trkpt>
      <trkpt lat="45.84486" lon="6.14958">
        <ele>460</ele>
        <time>2013-08-17T10:25:54Z</time>
      </trkpt>
      <trkpt lat="45.84481" lon="6.14964">
        <ele>460.1</ele>
        <time>2013-08-17T10:25:55Z</time>
      </trkpt>
      <trkpt lat="45.84476" lon="6.1497">
        <ele>460.1</ele>
        <time>2013-08-17T10:25:56Z</time>
      </trkpt>
      <trkpt lat="45.8447" lon="6.14977">
        <ele>460.2</ele>
        <time>2013-08-17T10:25:57Z</time>
      </trkpt>
      <trkpt lat="45.84465" lon="6.14984">
        <ele>460.2</ele>
        <time>2013-08-17T10:25:58Z</time>
      </trkpt>
      <trkpt lat="45.8446" lon="6.14991">
        <ele>460.2</ele>
        <time>2013-08-17T10:25:59Z</time>
      </trkpt>
      <trkpt lat="45.84453" lon="6.15001">
        <ele>459.9</ele>
        <time>2013-08-17T10:26:00Z</time>
      </trkpt>
      <trkpt lat="45.84448" lon="6.15008">
        <ele>459.7</ele>
        <time>2013-08-17T10:26:01Z</time>
      </trkpt>
      <trkpt lat="45.84442" lon="6.15017">
        <ele>459.5</ele>
        <time>2013-08-17T10:26:02Z</time>
      </trkpt>
      <trkpt lat="45.84435" lon="6.15025">
        <ele>459.3</ele>
        <time>2013-08-17T10:26:03Z</time>
      </trkpt>
      <trkpt lat="45.8443" lon="6.15033">
        <ele>459.1</ele>
        <time>2013-08-17T10:26:04Z</time>
      </trkpt>
      <trkpt lat="45.84425" lon="6.1504">
        <ele>459</ele>
        <time>2013-08-17T10:26:05Z</time>
      </trkpt>
      <trkpt lat="45.84419" lon="6.15048">
        <ele>459</ele>
        <time>2013-08-17T10:26:06Z</time>
      </trkpt>
      <trkpt lat="45.84413" lon="6.15056">
        <ele>459</ele>
        <time>2013-08-17T10:26:07Z</time>
      </trkpt>
      <trkpt lat="45.84408" lon="6.15064">
        <ele>459.1</ele>
        <time>2013-08-17T10:26:08Z</time>
      </trkpt>
      <trkpt lat="45.84402" lon="6.15072">
        <ele>459.3</ele>
        <time>2013-08-17T10:26:09Z</time>
      </trkpt>
      <trkpt lat="45.84396" lon="6.1508">
        <ele>459.5</ele>
        <time>2013-08-17T10:26:10Z</time>
      </trkpt>
      <trkpt lat="45.84391" lon="6.15087">
        <ele>459.7</ele>
        <time>2013-08-17T10:26:11Z</time>
      </trkpt>
      <trkpt lat="45.84385" lon="6.15095">
        <ele>460</ele>
        <time>2013-08-17T10:26:12Z</time>
      </trkpt>
      <trkpt lat="45.8438" lon="6.15103">
        <ele>460.3</ele>
        <time>2013-08-17T10:26:13Z</time>
      </trkpt>
      <trkpt lat="45.84375" lon="6.1511">
        <ele>460.6</ele>
        <time>2013-08-17T10:26:14Z</time>
      </trkpt>
      <trkpt lat="45.8437" lon="6.15117">
        <ele>460.8</ele>
        <time>2013-08-17T10:26:15Z</time>
      </trkpt>
      <trkpt lat="45.84365" lon="6.15125">
        <ele>461</ele>
        <time>2013-08-17T10:26:16Z</time>
      </trkpt>
      <trkpt lat="45.84361" lon="6.15132">
        <ele>460.8</ele>
        <time>2013-08-17T10:26:17Z</time>
      </trkpt>
      <trkpt lat="45.84358" lon="6.15137">
        <ele>460.7</ele>
        <time>2013-08-17T10:26:18Z</time>
      </trkpt>
      <trkpt lat="45.84353" lon="6.15144">
        <ele>460.6</ele>
        <time>2013-08-17T10:26:19Z</time>
      </trkpt>
      <trkpt lat="45.84349" lon="6.15151">
        <ele>460.5</ele>
        <time>2013-08-17T10:26:20Z</time>
      </trkpt>
      <trkpt lat="45.8435" lon="6.15165">
        <ele>460.2</ele>
        <time>2013-08-17T10:26:21Z</time>
      </trkpt>
      <trkpt lat="45.84355" lon="6.15174">
        <ele>460</ele>
        <time>2013-08-17T10:26:22Z</time>
      </trkpt>
      <trkpt lat="45.84359" lon="6.15182">
        <ele>459.8</ele>
        <time>2013-08-17T10:26:23Z</time>
      </trkpt>
      <trkpt lat="45.84362" lon="6.15187">
        <ele>459.6</ele>
        <time>2013-08-17T10:26:24Z</time>
      </trkpt>
      <trkpt lat="45.84368" lon="6.15199">
        <ele>459.3</ele>
        <time>2013-08-17T10:26:25Z</time>
      </trkpt>
      <trkpt lat="45.84373" lon="6.15207">
        <ele>459.1</ele>
        <time>2013-08-17T10:26:26Z</time>
      </trkpt>
      <trkpt lat="45.84378" lon="6.15218">
        <ele>458.8</ele>
        <time>2013-08-17T10:26:27Z</time>
      </trkpt>
      <trkpt lat="45.84383" lon="6.15227">
        <ele>458.5</ele>
        <time>2013-08-17T10:26:28Z</time>
      </trkpt>
      <trkpt lat="45.84389" lon="6.15238">
        <ele>458.1</ele>
        <time>2013-08-17T10:26:29Z</time>
      </trkpt>
      <trkpt lat="45.84394" lon="6.15248">
        <ele>457.8</ele>
        <time>2013-08-17T10:26:30Z</time>
      </trkpt>
      <trkpt lat="45.84403" lon="6.15267">
        <ele>457.3</ele>
        <time>2013-08-17T10:26:32Z</time>
      </trkpt>
      <trkpt lat="45.8441" lon="6.15285">
        <ele>456.8</ele>
        <time>2013-08-17T10:26:34Z</time>
      </trkpt>
      <trkpt lat="45.84411" lon="6.15296">
        <ele>456.7</ele>
        <time>2013-08-17T10:26:35Z</time>
      </trkpt>
      <trkpt lat="45.84411" lon="6.15307">
        <ele>456.7</ele>
        <time>2013-08-17T10:26:36Z</time>
      </trkpt>
      <trkpt lat="45.84412" lon="6.15318">
        <ele>456.7</ele>
        <time>2013-08-17T10:26:37Z</time>
      </trkpt>
      <trkpt lat="45.84412" lon="6.15328">
        <ele>456.7</ele>
        <time>2013-08-17T10:26:38Z</time>
      </trkpt>
      <trkpt lat="45.84412" lon="6.15338">
        <ele>456.7</ele>
        <time>2013-08-17T10:26:39Z</time>
      </trkpt>
      <trkpt lat="45.84412" lon="6.15349">
        <ele>456.7</ele>
        <time>2013-08-17T10:26:40Z</time>
      </trkpt>
      <trkpt lat="45.84412" lon="6.15358">
        <ele>456.7</ele>
        <time>2013-08-17T10:26:41Z</time>
      </trkpt>
      <trkpt lat="45.84412" lon="6.15367">
        <ele>456.7</ele>
        <time>2013-08-17T10:26:42Z</time>
      </trkpt>
      <trkpt lat="45.84412" lon="6.15379">
        <ele>456.6</ele>
        <time>2013-08-17T10:26:43Z</time>
      </trkpt>
      <trkpt lat="45.84412" lon="6.15386">
        <ele>456.4</ele>
        <time>2013-08-17T10:26:44Z</time>
      </trkpt>
      <trkpt lat="45.84413" lon="6.15395">
        <ele>456.3</ele>
        <time>2013-08-17T10:26:45Z</time>
      </trkpt>
      <trkpt lat="45.84418" lon="6.15421">
        <ele>455.6</ele>
        <time>2013-08-17T10:26:49Z</time>
      </trkpt>
      <trkpt lat="45.84417" lon="6.15417">
        <ele>455.7</ele>
        <time>2013-08-17T10:26:50Z</time>
      </trkpt>
      <trkpt lat="45.84416" lon="6.15423">
        <ele>455.7</ele>
        <time>2013-08-17T10:26:51Z</time>
      </trkpt>
      <trkpt lat="45.84415" lon="6.15428">
        <ele>455.6</ele>
        <time>2013-08-17T10:26:52Z</time>
      </trkpt>
      <trkpt lat="45.84413" lon="6.15443">
        <ele>455.4</ele>
        <time>2013-08-17T10:26:54Z</time>
      </trkpt>
      <trkpt lat="45.84403" lon="6.15455">
        <ele>455.4</ele>
        <time>2013-08-17T10:26:55Z</time>
      </trkpt>
      <trkpt lat="45.84398" lon="6.15456">
        <ele>455.5</ele>
        <time>2013-08-17T10:26:56Z</time>
      </trkpt>
      <trkpt lat="45.84394" lon="6.15462">
        <ele>455.5</ele>
        <time>2013-08-17T10:26:57Z</time>
      </trkpt>
      <trkpt lat="45.8439" lon="6.15472">
        <ele>455.7</ele>
        <time>2013-08-17T10:26:58Z</time>
      </trkpt>
      <trkpt lat="45.84391" lon="6.15487">
        <ele>455.6</ele>
        <time>2013-08-17T10:26:59Z</time>
      </trkpt>
      <trkpt lat="45.84394" lon="6.15507">
        <ele>455.5</ele>
        <time>2013-08-17T10:27:00Z</time>
      </trkpt>
      <trkpt lat="45.8439" lon="6.15515">
        <ele>455.6</ele>
        <time>2013-08-17T10:27:01Z</time>
      </trkpt>
      <trkpt lat="45.84385" lon="6.15525">
        <ele>455.8</ele>
        <time>2013-08-17T10:27:02Z</time>
      </trkpt>
      <trkpt lat="45.8438" lon="6.15534">
        <ele>455.9</ele>
        <time>2013-08-17T10:27:03Z</time>
      </trkpt>
      <trkpt lat="45.84376" lon="6.15543">
        <ele>456</ele>
        <time>2013-08-17T10:27:04Z</time>
      </trkpt>
      <trkpt lat="45.84371" lon="6.15553">
        <ele>456.2</ele>
        <time>2013-08-17T10:27:05Z</time>
      </trkpt>
      <trkpt lat="45.84367" lon="6.15562">
        <ele>456.3</ele>
        <time>2013-08-17T10:27:06Z</time>
      </trkpt>
      <trkpt lat="45.84363" lon="6.1557">
        <ele>456.4</ele>
        <time>2013-08-17T10:27:07Z</time>
      </trkpt>
      <trkpt lat="45.84359" lon="6.1558">
        <ele>456.5</ele>
        <time>2013-08-17T10:27:08Z</time>
      </trkpt>
      <trkpt lat="45.84355" lon="6.15588">
        <ele>456.6</ele>
        <time>2013-08-17T10:27:09Z</time>
      </trkpt>
      <trkpt lat="45.84351" lon="6.15598">
        <ele>456.6</ele>
        <time>2013-08-17T10:27:10Z</time>
      </trkpt>
      <trkpt lat="45.84347" lon="6.15606">
        <ele>456.6</ele>
        <time>2013-08-17T10:27:11Z</time>
      </trkpt>
      <trkpt lat="45.84345" lon="6.15611">
        <ele>456.5</ele>
        <time>2013-08-17T10:27:12Z</time>
      </trkpt>
      <trkpt lat="45.8434" lon="6.15621">
        <ele>456.5</ele>
        <time>2013-08-17T10:27:13Z</time>
      </trkpt>
      <trkpt lat="45.84337" lon="6.1563">
        <ele>456.4</ele>
        <time>2013-08-17T10:27:14Z</time>
      </trkpt>
      <trkpt lat="45.84332" lon="6.15639">
        <ele>456.3</ele>
        <time>2013-08-17T10:27:15Z</time>
      </trkpt>
      <trkpt lat="45.84306" lon="6.15668">
        <ele>456</ele>
        <time>2013-08-17T10:27:19Z</time>
      </trkpt>
      <trkpt lat="45.84302" lon="6.15676">
        <ele>455.8</ele>
        <time>2013-08-17T10:27:20Z</time>
      </trkpt>
      <trkpt lat="45.84298" lon="6.15684">
        <ele>455.6</ele>
        <time>2013-08-17T10:27:21Z</time>
      </trkpt>
      <trkpt lat="45.84294" lon="6.15692">
        <ele>455.4</ele>
        <time>2013-08-17T10:27:22Z</time>
      </trkpt>
      <trkpt lat="45.84289" lon="6.15701">
        <ele>455.3</ele>
        <time>2013-08-17T10:27:23Z</time>
      </trkpt>
      <trkpt lat="45.84285" lon="6.1571">
        <ele>455.1</ele>
        <time>2013-08-17T10:27:24Z</time>
      </trkpt>
      <trkpt lat="45.84279" lon="6.15718">
        <ele>455.2</ele>
        <time>2013-08-17T10:27:25Z</time>
      </trkpt>
      <trkpt lat="45.84275" lon="6.15727">
        <ele>455.1</ele>
        <time>2013-08-17T10:27:26Z</time>
      </trkpt>
      <trkpt lat="45.84272" lon="6.15742">
        <ele>455</ele>
        <time>2013-08-17T10:27:27Z</time>
      </trkpt>
      <trkpt lat="45.84267" lon="6.15754">
        <ele>454.9</ele>
        <time>2013-08-17T10:27:28Z</time>
      </trkpt>
      <trkpt lat="45.84263" lon="6.15764">
        <ele>454.8</ele>
        <time>2013-08-17T10:27:29Z</time>
      </trkpt>
      <trkpt lat="45.84258" lon="6.15773">
        <ele>454.7</ele>
        <time>2013-08-17T10:27:30Z</time>
      </trkpt>
      <trkpt lat="45.84254" lon="6.15781">
        <ele>454.6</ele>
        <time>2013-08-17T10:27:31Z</time>
      </trkpt>
      <trkpt lat="45.8425" lon="6.15788">
        <ele>454.6</ele>
        <time>2013-08-17T10:27:32Z</time>
      </trkpt>
      <trkpt lat="45.84246" lon="6.15796">
        <ele>454.6</ele>
        <time>2013-08-17T10:27:33Z</time>
      </trkpt>
      <trkpt lat="45.84243" lon="6.15806">
        <ele>454.7</ele>
        <time>2013-08-17T10:27:34Z</time>
      </trkpt>
      <trkpt lat="45.84239" lon="6.15815">
        <ele>454.8</ele>
        <time>2013-08-17T10:27:35Z</time>
      </trkpt>
      <trkpt lat="45.84236" lon="6.15825">
        <ele>454.9</ele>
        <time>2013-08-17T10:27:36Z</time>
      </trkpt>
      <trkpt lat="45.84231" lon="6.15835">
        <ele>455.1</ele>
        <time>2013-08-17T10:27:37Z</time>
      </trkpt>
      <trkpt lat="45.84226" lon="6.15843">
        <ele>455.3</ele>
        <time>2013-08-17T10:27:38Z</time>
      </trkpt>
      <trkpt lat="45.84222" lon="6.15851">
        <ele>455.4</ele>
        <time>2013-08-17T10:27:39Z</time>
      </trkpt>
      <trkpt lat="45.84219" lon="6.15858">
        <ele>455.6</ele>
        <time>2013-08-17T10:27:40Z</time>
      </trkpt>
      <trkpt lat="45.84214" lon="6.15865">
        <ele>455.8</ele>
        <time>2013-08-17T10:27:41Z</time>
      </trkpt>
      <trkpt lat="45.84211" lon="6.15873">
        <ele>455.9</ele>
        <time>2013-08-17T10:27:42Z</time>
      </trkpt>
      <trkpt lat="45.84207" lon="6.1588">
        <ele>456.1</ele>
        <time>2013-08-17T10:27:43Z</time>
      </trkpt>
      <trkpt lat="45.84203" lon="6.15886">
        <ele>456.2</ele>
        <time>2013-08-17T10:27:44Z</time>
      </trkpt>
      <trkpt lat="45.84198" lon="6.15894">
        <ele>456.4</ele>
        <time>2013-08-17T10:27:45Z</time>
      </trkpt>
      <trkpt lat="45.84193" lon="6.15899">
        <ele>456.5</ele>
        <time>2013-08-17T10:27:46Z</time>
      </trkpt>
      <trkpt lat="45.84189" lon="6.15905">
        <ele>456.6</ele>
        <time>2013-08-17T10:27:47Z</time>
      </trkpt>
      <trkpt lat="45.84182" lon="6.15913">
        <ele>456.7</ele>
        <time>2013-08-17T10:27:48Z</time>
      </trkpt>
      <trkpt lat="45.84177" lon="6.15925">
        <ele>456.7</ele>
        <time>2013-08-17T10:27:49Z</time>
      </trkpt>
      <trkpt lat="45.84173" lon="6.15937">
        <ele>456.6</ele>
        <time>2013-08-17T10:27:50Z</time>
      </trkpt>
      <trkpt lat="45.84169" lon="6.15944">
        <ele>456.6</ele>
        <time>2013-08-17T10:27:51Z</time>
      </trkpt>
      <trkpt lat="45.84164" lon="6.15952">
        <ele>456.5</ele>
        <time>2013-08-17T10:27:52Z</time>
      </trkpt>
      <trkpt lat="45.84158" lon="6.15959">
        <ele>456.4</ele>
        <time>2013-08-17T10:27:53Z</time>
      </trkpt>
      <trkpt lat="45.84152" lon="6.15965">
        <ele>456.2</ele>
        <time>2013-08-17T10:27:54Z</time>
      </trkpt>
      <trkpt lat="45.84147" lon="6.15972">
        <ele>456</ele>
        <time>2013-08-17T10:27:55Z</time>
      </trkpt>
      <trkpt lat="45.84141" lon="6.1598">
        <ele>455.8</ele>
        <time>2013-08-17T10:27:56Z</time>
      </trkpt>
      <trkpt lat="45.84135" lon="6.15984">
        <ele>455.6</ele>
        <time>2013-08-17T10:27:57Z</time>
      </trkpt>
      <trkpt lat="45.84128" lon="6.15994">
        <ele>455.2</ele>
        <time>2013-08-17T10:27:58Z</time>
      </trkpt>
      <trkpt lat="45.84123" lon="6.16003">
        <ele>455</ele>
        <time>2013-08-17T10:27:59Z</time>
      </trkpt>
      <trkpt lat="45.84118" lon="6.16008">
        <ele>455.1</ele>
        <time>2013-08-17T10:28:00Z</time>
      </trkpt>
      <trkpt lat="45.84112" lon="6.16014">
        <ele>455.2</ele>
        <time>2013-08-17T10:28:01Z</time>
      </trkpt>
      <trkpt lat="45.84105" lon="6.16019">
        <ele>455.4</ele>
        <time>2013-08-17T10:28:02Z</time>
      </trkpt>
      <trkpt lat="45.84099" lon="6.16026">
        <ele>455.6</ele>
        <time>2013-08-17T10:28:03Z</time>
      </trkpt>
      <trkpt lat="45.84093" lon="6.1603">
        <ele>455.8</ele>
        <time>2013-08-17T10:28:04Z</time>
      </trkpt>
      <trkpt lat="45.84086" lon="6.16036">
        <ele>456</ele>
        <time>2013-08-17T10:28:05Z</time>
      </trkpt>
      <trkpt lat="45.84079" lon="6.16041">
        <ele>456.2</ele>
        <time>2013-08-17T10:28:06Z</time>
      </trkpt>
      <trkpt lat="45.84073" lon="6.16045">
        <ele>456.4</ele>
        <time>2013-08-17T10:28:07Z</time>
      </trkpt>
      <trkpt lat="45.84066" lon="6.16049">
        <ele>456.7</ele>
        <time>2013-08-17T10:28:09Z</time>
      </trkpt>
      <trkpt lat="45.84056" lon="6.16056">
        <ele>457</ele>
        <time>2013-08-17T10:28:10Z</time>
      </trkpt>
      <trkpt lat="45.84045" lon="6.16064">
        <ele>457.3</ele>
        <time>2013-08-17T10:28:11Z</time>
      </trkpt>
      <trkpt lat="45.84039" lon="6.16068">
        <ele>457.4</ele>
        <time>2013-08-17T10:28:12Z</time>
      </trkpt>
      <trkpt lat="45.84034" lon="6.16072">
        <ele>457.4</ele>
        <time>2013-08-17T10:28:13Z</time>
      </trkpt>
      <trkpt lat="45.84028" lon="6.16076">
        <ele>457.5</ele>
        <time>2013-08-17T10:28:14Z</time>
      </trkpt>
      <trkpt lat="45.84023" lon="6.1608">
        <ele>457.5</ele>
        <time>2013-08-17T10:28:15Z</time>
      </trkpt>
      <trkpt lat="45.84017" lon="6.16084">
        <ele>457.6</ele>
        <time>2013-08-17T10:28:16Z</time>
      </trkpt>
      <trkpt lat="45.84012" lon="6.16087">
        <ele>457.6</ele>
        <time>2013-08-17T10:28:17Z</time>
      </trkpt>
      <trkpt lat="45.84006" lon="6.16091">
        <ele>457.7</ele>
        <time>2013-08-17T10:28:18Z</time>
      </trkpt>
      <trkpt lat="45.84" lon="6.16094">
        <ele>457.7</ele>
        <time>2013-08-17T10:28:19Z</time>
      </trkpt>
      <trkpt lat="45.83995" lon="6.16098">
        <ele>457.8</ele>
        <time>2013-08-17T10:28:20Z</time>
      </trkpt>
      <trkpt lat="45.83989" lon="6.16101">
        <ele>457.8</ele>
        <time>2013-08-17T10:28:21Z</time>
      </trkpt>
      <trkpt lat="45.83984" lon="6.16105">
        <ele>457.9</ele>
        <time>2013-08-17T10:28:22Z</time>
      </trkpt>
      <trkpt lat="45.83979" lon="6.16108">
        <ele>457.9</ele>
        <time>2013-08-17T10:28:23Z</time>
      </trkpt>
      <trkpt lat="45.83975" lon="6.1611">
        <ele>458</ele>
        <time>2013-08-17T10:28:24Z</time>
      </trkpt>
      <trkpt lat="45.8397" lon="6.16113">
        <ele>458</ele>
        <time>2013-08-17T10:28:25Z</time>
      </trkpt>
      <trkpt lat="45.83966" lon="6.16111">
        <ele>458.2</ele>
        <time>2013-08-17T10:28:26Z</time>
      </trkpt>
      <trkpt lat="45.83962" lon="6.16108">
        <ele>458.3</ele>
        <time>2013-08-17T10:28:27Z</time>
      </trkpt>
      <trkpt lat="45.83959" lon="6.16102">
        <ele>458.5</ele>
        <time>2013-08-17T10:28:28Z</time>
      </trkpt>
      <trkpt lat="45.83955" lon="6.16093">
        <ele>458.8</ele>
        <time>2013-08-17T10:28:29Z</time>
      </trkpt>
      <trkpt lat="45.83951" lon="6.16087">
        <ele>459</ele>
        <time>2013-08-17T10:28:30Z</time>
      </trkpt>
      <trkpt lat="45.83947" lon="6.16079">
        <ele>459.2</ele>
        <time>2013-08-17T10:28:31Z</time>
      </trkpt>
      <trkpt lat="45.83941" lon="6.16072">
        <ele>459.3</ele>
        <time>2013-08-17T10:28:32Z</time>
      </trkpt>
      <trkpt lat="45.83931" lon="6.16073">
        <ele>459.3</ele>
        <time>2013-08-17T10:28:33Z</time>
      </trkpt>
      <trkpt lat="45.83926" lon="6.16067">
        <ele>459.4</ele>
        <time>2013-08-17T10:28:34Z</time>
      </trkpt>
      <trkpt lat="45.83922" lon="6.1606">
        <ele>459.4</ele>
        <time>2013-08-17T10:28:35Z</time>
      </trkpt>
      <trkpt lat="45.83907" lon="6.16042">
        <ele>459.4</ele>
        <time>2013-08-17T10:28:38Z</time>
      </trkpt>
      <trkpt lat="45.83903" lon="6.16038">
        <ele>459.4</ele>
        <time>2013-08-17T10:28:39Z</time>
      </trkpt>
      <trkpt lat="45.83898" lon="6.16031">
        <ele>459.4</ele>
        <time>2013-08-17T10:28:40Z</time>
      </trkpt>
      <trkpt lat="45.83892" lon="6.16024">
        <ele>459.4</ele>
        <time>2013-08-17T10:28:41Z</time>
      </trkpt>
      <trkpt lat="45.83887" lon="6.1602">
        <ele>459.5</ele>
        <time>2013-08-17T10:28:42Z</time>
      </trkpt>
      <trkpt lat="45.83883" lon="6.16015">
        <ele>459.6</ele>
        <time>2013-08-17T10:28:43Z</time>
      </trkpt>
      <trkpt lat="45.83878" lon="6.16009">
        <ele>459.8</ele>
        <time>2013-08-17T10:28:44Z</time>
      </trkpt>
      <trkpt lat="45.83872" lon="6.16002">
        <ele>459.9</ele>
        <time>2013-08-17T10:28:45Z</time>
      </trkpt>
      <trkpt lat="45.83866" lon="6.15996">
        <ele>460.1</ele>
        <time>2013-08-17T10:28:46Z</time>
      </trkpt>
      <trkpt lat="45.8386" lon="6.1599">
        <ele>460.2</ele>
        <time>2013-08-17T10:28:47Z</time>
      </trkpt>
      <trkpt lat="45.83855" lon="6.15983">
        <ele>460.3</ele>
        <time>2013-08-17T10:28:48Z</time>
      </trkpt>
      <trkpt lat="45.83849" lon="6.15977">
        <ele>460.5</ele>
        <time>2013-08-17T10:28:49Z</time>
      </trkpt>
      <trkpt lat="45.83844" lon="6.15971">
        <ele>460.6</ele>
        <time>2013-08-17T10:28:50Z</time>
      </trkpt>
      <trkpt lat="45.83839" lon="6.15966">
        <ele>460.8</ele>
        <time>2013-08-17T10:28:51Z</time>
      </trkpt>
      <trkpt lat="45.83834" lon="6.1596">
        <ele>461</ele>
        <time>2013-08-17T10:28:52Z</time>
      </trkpt>
      <trkpt lat="45.83829" lon="6.15955">
        <ele>461</ele>
        <time>2013-08-17T10:28:53Z</time>
      </trkpt>
      <trkpt lat="45.83825" lon="6.1595">
        <ele>460.9</ele>
        <time>2013-08-17T10:28:54Z</time>
      </trkpt>
      <trkpt lat="45.83819" lon="6.15943">
        <ele>460.9</ele>
        <time>2013-08-17T10:28:55Z</time>
      </trkpt>
      <trkpt lat="45.83814" lon="6.15937">
        <ele>460.9</ele>
        <time>2013-08-17T10:28:56Z</time>
      </trkpt>
      <trkpt lat="45.83808" lon="6.1593">
        <ele>460.9</ele>
        <time>2013-08-17T10:28:57Z</time>
      </trkpt>
      <trkpt lat="45.83804" lon="6.15924">
        <ele>460.9</ele>
        <time>2013-08-17T10:28:58Z</time>
      </trkpt>
      <trkpt lat="45.83799" lon="6.15918">
        <ele>460.9</ele>
        <time>2013-08-17T10:28:59Z</time>
      </trkpt>
      <trkpt lat="45.83795" lon="6.15911">
        <ele>461</ele>
        <time>2013-08-17T10:29:00Z</time>
      </trkpt>
      <trkpt lat="45.83791" lon="6.15903">
        <ele>461</ele>
        <time>2013-08-17T10:29:01Z</time>
      </trkpt>
      <trkpt lat="45.83786" lon="6.15896">
        <ele>461.2</ele>
        <time>2013-08-17T10:29:02Z</time>
      </trkpt>
      <trkpt lat="45.83783" lon="6.15889">
        <ele>461.3</ele>
        <time>2013-08-17T10:29:03Z</time>
      </trkpt>
      <trkpt lat="45.83779" lon="6.15879">
        <ele>461.4</ele>
        <time>2013-08-17T10:29:04Z</time>
      </trkpt>
      <trkpt lat="45.83776" lon="6.15872">
        <ele>461.6</ele>
        <time>2013-08-17T10:29:05Z</time>
      </trkpt>
      <trkpt lat="45.83774" lon="6.15867">
        <ele>461.6</ele>
        <time>2013-08-17T10:29:06Z</time>
      </trkpt>
      <trkpt lat="45.83773" lon="6.15862">
        <ele>461.7</ele>
        <time>2013-08-17T10:29:07Z</time>
      </trkpt>
      <trkpt lat="45.83786" lon="6.15843">
        <ele>461.2</ele>
        <time>2013-08-17T10:29:10Z</time>
      </trkpt>
      <trkpt lat="45.8379" lon="6.15838">
        <ele>461.1</ele>
        <time>2013-08-17T10:29:12Z</time>
      </trkpt>
      <trkpt lat="45.83792" lon="6.15834">
        <ele>461</ele>
        <time>2013-08-17T10:29:13Z</time>
      </trkpt>
      <trkpt lat="45.83796" lon="6.15831">
        <ele>460.9</ele>
        <time>2013-08-17T10:29:14Z</time>
      </trkpt>
      <trkpt lat="45.838" lon="6.15828">
        <ele>460.7</ele>
        <time>2013-08-17T10:29:16Z</time>
      </trkpt>
      <trkpt lat="45.83803" lon="6.15824">
        <ele>460.7</ele>
        <time>2013-08-17T10:29:18Z</time>
      </trkpt>
      <trkpt lat="45.83799" lon="6.15827">
        <ele>460.8</ele>
        <time>2013-08-17T10:29:31Z</time>
      </trkpt>
      <trkpt lat="45.83797" lon="6.15822">
        <ele>460.8</ele>
        <time>2013-08-17T10:29:34Z</time>
      </trkpt>
      <trkpt lat="45.83788" lon="6.15815">
        <ele>461.1</ele>
        <time>2013-08-17T10:29:40Z</time>
      </trkpt>
      <trkpt lat="45.83785" lon="6.15818">
        <ele>461.2</ele>
        <time>2013-08-17T10:29:41Z</time>
      </trkpt>
      <trkpt lat="45.83782" lon="6.1582">
        <ele>461.3</ele>
        <time>2013-08-17T10:29:42Z</time>
      </trkpt>
      <trkpt lat="45.8378" lon="6.15826">
        <ele>461.4</ele>
        <time>2013-08-17T10:29:43Z</time>
      </trkpt>
      <trkpt lat="45.83777" lon="6.15829">
        <ele>461.5</ele>
        <time>2013-08-17T10:29:44Z</time>
      </trkpt>
      <trkpt lat="45.83773" lon="6.15833">
        <ele>461.7</ele>
        <time>2013-08-17T10:29:45Z</time>
      </trkpt>
      <trkpt lat="45.83769" lon="6.15834">
        <ele>461.8</ele>
        <time>2013-08-17T10:29:46Z</time>
      </trkpt>
      <trkpt lat="45.83766" lon="6.15833">
        <ele>461.9</ele>
        <time>2013-08-17T10:29:47Z</time>
      </trkpt>
      <trkpt lat="45.83762" lon="6.1583">
        <ele>462.1</ele>
        <time>2013-08-17T10:29:48Z</time>
      </trkpt>
      <trkpt lat="45.83759" lon="6.15825">
        <ele>462.2</ele>
        <time>2013-08-17T10:29:49Z</time>
      </trkpt>
      <trkpt lat="45.83756" lon="6.15821">
        <ele>462.3</ele>
        <time>2013-08-17T10:29:50Z</time>
      </trkpt>
      <trkpt lat="45.83753" lon="6.15816">
        <ele>462.4</ele>
        <time>2013-08-17T10:29:51Z</time>
      </trkpt>
      <trkpt lat="45.83751" lon="6.15811">
        <ele>462.5</ele>
        <time>2013-08-17T10:29:52Z</time>
      </trkpt>
      <trkpt lat="45.8375" lon="6.15805">
        <ele>462.5</ele>
        <time>2013-08-17T10:29:53Z</time>
      </trkpt>
      <trkpt lat="45.83741" lon="6.15792">
        <ele>462.8</ele>
        <time>2013-08-17T10:29:54Z</time>
      </trkpt>
      <trkpt lat="45.83734" lon="6.15785">
        <ele>463</ele>
        <time>2013-08-17T10:29:55Z</time>
      </trkpt>
      <trkpt lat="45.83728" lon="6.1578">
        <ele>463.2</ele>
        <time>2013-08-17T10:29:56Z</time>
      </trkpt>
      <trkpt lat="45.83722" lon="6.15774">
        <ele>463.3</ele>
        <time>2013-08-17T10:29:57Z</time>
      </trkpt>
      <trkpt lat="45.83717" lon="6.15771">
        <ele>463.5</ele>
        <time>2013-08-17T10:29:58Z</time>
      </trkpt>
      <trkpt lat="45.83705" lon="6.15781">
        <ele>464</ele>
        <time>2013-08-17T10:29:59Z</time>
      </trkpt>
      <trkpt lat="45.837" lon="6.15776">
        <ele>464.1</ele>
        <time>2013-08-17T10:30:00Z</time>
      </trkpt>
      <trkpt lat="45.83694" lon="6.1577">
        <ele>464.2</ele>
        <time>2013-08-17T10:30:01Z</time>
      </trkpt>
      <trkpt lat="45.8369" lon="6.15765">
        <ele>464.3</ele>
        <time>2013-08-17T10:30:02Z</time>
      </trkpt>
      <trkpt lat="45.83676" lon="6.15751">
        <ele>464.5</ele>
        <time>2013-08-17T10:30:05Z</time>
      </trkpt>
      <trkpt lat="45.83671" lon="6.15746">
        <ele>464.5</ele>
        <time>2013-08-17T10:30:06Z</time>
      </trkpt>
      <trkpt lat="45.83665" lon="6.1574">
        <ele>464.6</ele>
        <time>2013-08-17T10:30:07Z</time>
      </trkpt>
      <trkpt lat="45.8366" lon="6.15736">
        <ele>464.7</ele>
        <time>2013-08-17T10:30:08Z</time>
      </trkpt>
      <trkpt lat="45.83655" lon="6.15733">
        <ele>464.8</ele>
        <time>2013-08-17T10:30:09Z</time>
      </trkpt>
      <trkpt lat="45.83648" lon="6.15728">
        <ele>464.9</ele>
        <time>2013-08-17T10:30:10Z</time>
      </trkpt>
      <trkpt lat="45.83642" lon="6.15725">
        <ele>464.9</ele>
        <time>2013-08-17T10:30:11Z</time>
      </trkpt>
      <trkpt lat="45.83637" lon="6.15722">
        <ele>465</ele>
        <time>2013-08-17T10:30:12Z</time>
      </trkpt>
      <trkpt lat="45.83633" lon="6.1572">
        <ele>465.1</ele>
        <time>2013-08-17T10:30:13Z</time>
      </trkpt>
      <trkpt lat="45.83623" lon="6.15714">
        <ele>465.2</ele>
        <time>2013-08-17T10:30:14Z</time>
      </trkpt>
      <trkpt lat="45.83618" lon="6.15711">
        <ele>465.2</ele>
        <time>2013-08-17T10:30:15Z</time>
      </trkpt>
      <trkpt lat="45.8361" lon="6.15705">
        <ele>465.3</ele>
        <time>2013-08-17T10:30:16Z</time>
      </trkpt>
      <trkpt lat="45.83605" lon="6.15699">
        <ele>465.4</ele>
        <time>2013-08-17T10:30:17Z</time>
      </trkpt>
      <trkpt lat="45.83602" lon="6.15695">
        <ele>465.4</ele>
        <time>2013-08-17T10:30:18Z</time>
      </trkpt>
      <trkpt lat="45.83592" lon="6.15682">
        <ele>465.6</ele>
        <time>2013-08-17T10:30:20Z</time>
      </trkpt>
      <trkpt lat="45.83589" lon="6.15677">
        <ele>465.7</ele>
        <time>2013-08-17T10:30:21Z</time>
      </trkpt>
      <trkpt lat="45.8358" lon="6.15664">
        <ele>465.8</ele>
        <time>2013-08-17T10:30:22Z</time>
      </trkpt>
      <trkpt lat="45.83576" lon="6.15657">
        <ele>465.9</ele>
        <time>2013-08-17T10:30:23Z</time>
      </trkpt>
      <trkpt lat="45.83571" lon="6.15648">
        <ele>466</ele>
        <time>2013-08-17T10:30:24Z</time>
      </trkpt>
      <trkpt lat="45.83567" lon="6.1564">
        <ele>466.1</ele>
        <time>2013-08-17T10:30:25Z</time>
      </trkpt>
      <trkpt lat="45.83564" lon="6.15634">
        <ele>466.2</ele>
        <time>2013-08-17T10:30:26Z</time>
      </trkpt>
      <trkpt lat="45.83561" lon="6.15626">
        <ele>466.3</ele>
        <time>2013-08-17T10:30:27Z</time>
      </trkpt>
      <trkpt lat="45.83557" lon="6.15617">
        <ele>466.4</ele>
        <time>2013-08-17T10:30:28Z</time>
      </trkpt>
      <trkpt lat="45.83555" lon="6.15608">
        <ele>466.5</ele>
        <time>2013-08-17T10:30:29Z</time>
      </trkpt>
      <trkpt lat="45.83553" lon="6.15599">
        <ele>466.6</ele>
        <time>2013-08-17T10:30:30Z</time>
      </trkpt>
      <trkpt lat="45.83552" lon="6.1559">
        <ele>466.6</ele>
        <time>2013-08-17T10:30:31Z</time>
      </trkpt>
      <trkpt lat="45.83551" lon="6.15584">
        <ele>466.6</ele>
        <time>2013-08-17T10:30:32Z</time>
      </trkpt>
      <trkpt lat="45.83551" lon="6.15568">
        <ele>466.6</ele>
        <time>2013-08-17T10:30:33Z</time>
      </trkpt>
      <trkpt lat="45.83551" lon="6.1556">
        <ele>466.6</ele>
        <time>2013-08-17T10:30:34Z</time>
      </trkpt>
      <trkpt lat="45.83552" lon="6.15549">
        <ele>466.5</ele>
        <time>2013-08-17T10:30:35Z</time>
      </trkpt>
      <trkpt lat="45.83553" lon="6.1554">
        <ele>466.5</ele>
        <time>2013-08-17T10:30:36Z</time>
      </trkpt>
      <trkpt lat="45.83553" lon="6.15529">
        <ele>466.4</ele>
        <time>2013-08-17T10:30:37Z</time>
      </trkpt>
      <trkpt lat="45.83554" lon="6.1552">
        <ele>466.4</ele>
        <time>2013-08-17T10:30:38Z</time>
      </trkpt>
      <trkpt lat="45.83555" lon="6.15509">
        <ele>466.4</ele>
        <time>2013-08-17T10:30:39Z</time>
      </trkpt>
      <trkpt lat="45.83555" lon="6.15498">
        <ele>466.4</ele>
        <time>2013-08-17T10:30:40Z</time>
      </trkpt>
      <trkpt lat="45.83556" lon="6.15487">
        <ele>466.3</ele>
        <time>2013-08-17T10:30:41Z</time>
      </trkpt>
      <trkpt lat="45.83557" lon="6.15477">
        <ele>466.3</ele>
        <time>2013-08-17T10:30:42Z</time>
      </trkpt>
      <trkpt lat="45.83558" lon="6.15465">
        <ele>466.2</ele>
        <time>2013-08-17T10:30:43Z</time>
      </trkpt>
      <trkpt lat="45.83558" lon="6.15455">
        <ele>466.2</ele>
        <time>2013-08-17T10:30:44Z</time>
      </trkpt>
      <trkpt lat="45.83559" lon="6.15445">
        <ele>466.2</ele>
        <time>2013-08-17T10:30:45Z</time>
      </trkpt>
      <trkpt lat="45.8356" lon="6.15433">
        <ele>466.1</ele>
        <time>2013-08-17T10:30:46Z</time>
      </trkpt>
      <trkpt lat="45.83561" lon="6.15424">
        <ele>466.1</ele>
        <time>2013-08-17T10:30:47Z</time>
      </trkpt>
      <trkpt lat="45.83561" lon="6.15417">
        <ele>466.1</ele>
        <time>2013-08-17T10:30:48Z</time>
      </trkpt>
      <trkpt lat="45.83563" lon="6.15394">
        <ele>466</ele>
        <time>2013-08-17T10:30:51Z</time>
      </trkpt>
      <trkpt lat="45.83564" lon="6.15385">
        <ele>465.9</ele>
        <time>2013-08-17T10:30:52Z</time>
      </trkpt>
      <trkpt lat="45.83565" lon="6.15373">
        <ele>466</ele>
        <time>2013-08-17T10:30:53Z</time>
      </trkpt>
      <trkpt lat="45.83565" lon="6.15368">
        <ele>466.2</ele>
        <time>2013-08-17T10:30:54Z</time>
      </trkpt>
      <trkpt lat="45.83564" lon="6.15358">
        <ele>466.6</ele>
        <time>2013-08-17T10:30:55Z</time>
      </trkpt>
      <trkpt lat="45.8356" lon="6.1535">
        <ele>467.2</ele>
        <time>2013-08-17T10:30:57Z</time>
      </trkpt>
      <trkpt lat="45.83552" lon="6.15342">
        <ele>467.8</ele>
        <time>2013-08-17T10:30:58Z</time>
      </trkpt>
      <trkpt lat="45.83545" lon="6.15336">
        <ele>468.3</ele>
        <time>2013-08-17T10:30:59Z</time>
      </trkpt>
      <trkpt lat="45.8354" lon="6.15333">
        <ele>468.6</ele>
        <time>2013-08-17T10:31:00Z</time>
      </trkpt>
      <trkpt lat="45.83538" lon="6.15331">
        <ele>468.8</ele>
        <time>2013-08-17T10:31:01Z</time>
      </trkpt>
      <trkpt lat="45.83535" lon="6.15329">
        <ele>469.1</ele>
        <time>2013-08-17T10:31:02Z</time>
      </trkpt>
      <trkpt lat="45.83531" lon="6.15326">
        <ele>469.4</ele>
        <time>2013-08-17T10:31:03Z</time>
      </trkpt>
      <trkpt lat="45.83525" lon="6.15321">
        <ele>470</ele>
        <time>2013-08-17T10:31:04Z</time>
      </trkpt>
      <trkpt lat="45.83511" lon="6.15305">
        <ele>471.6</ele>
        <time>2013-08-17T10:31:06Z</time>
      </trkpt>
      <trkpt lat="45.83507" lon="6.15301">
        <ele>472.1</ele>
        <time>2013-08-17T10:31:07Z</time>
      </trkpt>
      <trkpt lat="45.83496" lon="6.15284">
        <ele>473.6</ele>
        <time>2013-08-17T10:31:10Z</time>
      </trkpt>
      <trkpt lat="45.83493" lon="6.15279">
        <ele>474.1</ele>
        <time>2013-08-17T10:31:11Z</time>
      </trkpt>
      <trkpt lat="45.83489" lon="6.15274">
        <ele>474.6</ele>
        <time>2013-08-17T10:31:12Z</time>
      </trkpt>
      <trkpt lat="45.83486" lon="6.1527">
        <ele>475</ele>
        <time>2013-08-17T10:31:13Z</time>
      </trkpt>
      <trkpt lat="45.83484" lon="6.15266">
        <ele>475.4</ele>
        <time>2013-08-17T10:31:15Z</time>
      </trkpt>
      <trkpt lat="45.8348" lon="6.1526">
        <ele>476</ele>
        <time>2013-08-17T10:31:17Z</time>
      </trkpt>
      <trkpt lat="45.83477" lon="6.15256">
        <ele>476.4</ele>
        <time>2013-08-17T10:31:18Z</time>
      </trkpt>
      <trkpt lat="45.83474" lon="6.15251">
        <ele>476.9</ele>
        <time>2013-08-17T10:31:19Z</time>
      </trkpt>
      <trkpt lat="45.83471" lon="6.15247">
        <ele>477.3</ele>
        <time>2013-08-17T10:31:20Z</time>
      </trkpt>
      <trkpt lat="45.83467" lon="6.15241">
        <ele>477.8</ele>
        <time>2013-08-17T10:31:21Z</time>
      </trkpt>
      <trkpt lat="45.83465" lon="6.15238">
        <ele>478.1</ele>
        <time>2013-08-17T10:31:22Z</time>
      </trkpt>
      <trkpt lat="45.83462" lon="6.15233">
        <ele>478.5</ele>
        <time>2013-08-17T10:31:23Z</time>
      </trkpt>
      <trkpt lat="45.8346" lon="6.15229">
        <ele>478.9</ele>
        <time>2013-08-17T10:31:24Z</time>
      </trkpt>
      <trkpt lat="45.83456" lon="6.15224">
        <ele>479.3</ele>
        <time>2013-08-17T10:31:25Z</time>
      </trkpt>
      <trkpt lat="45.83453" lon="6.15218">
        <ele>479.7</ele>
        <time>2013-08-17T10:31:26Z</time>
      </trkpt>
      <trkpt lat="45.83449" lon="6.15212">
        <ele>480.1</ele>
        <time>2013-08-17T10:31:27Z</time>
      </trkpt>
      <trkpt lat="45.83445" lon="6.15205">
        <ele>480.6</ele>
        <time>2013-08-17T10:31:28Z</time>
      </trkpt>
      <trkpt lat="45.83441" lon="6.15198">
        <ele>481.1</ele>
        <time>2013-08-17T10:31:29Z</time>
      </trkpt>
      <trkpt lat="45.83438" lon="6.15194">
        <ele>481.5</ele>
        <time>2013-08-17T10:31:30Z</time>
      </trkpt>
      <trkpt lat="45.83435" lon="6.15188">
        <ele>481.9</ele>
        <time>2013-08-17T10:31:31Z</time>
      </trkpt>
      <trkpt lat="45.83433" lon="6.15184">
        <ele>482.2</ele>
        <time>2013-08-17T10:31:32Z</time>
      </trkpt>
      <trkpt lat="45.83431" lon="6.1518">
        <ele>482.5</ele>
        <time>2013-08-17T10:31:33Z</time>
      </trkpt>
      <trkpt lat="45.83429" lon="6.15176">
        <ele>482.7</ele>
        <time>2013-08-17T10:31:34Z</time>
      </trkpt>
      <trkpt lat="45.83427" lon="6.15172">
        <ele>483</ele>
        <time>2013-08-17T10:31:35Z</time>
      </trkpt>
      <trkpt lat="45.83425" lon="6.15169">
        <ele>483.3</ele>
        <time>2013-08-17T10:31:36Z</time>
      </trkpt>
      <trkpt lat="45.83423" lon="6.15165">
        <ele>483.5</ele>
        <time>2013-08-17T10:31:37Z</time>
      </trkpt>
      <trkpt lat="45.83421" lon="6.15161">
        <ele>483.8</ele>
        <time>2013-08-17T10:31:38Z</time>
      </trkpt>
      <trkpt lat="45.83419" lon="6.15158">
        <ele>484</ele>
        <time>2013-08-17T10:31:39Z</time>
      </trkpt>
      <trkpt lat="45.83417" lon="6.15153">
        <ele>484.3</ele>
        <time>2013-08-17T10:31:41Z</time>
      </trkpt>
      <trkpt lat="45.8341" lon="6.15148">
        <ele>484.6</ele>
        <time>2013-08-17T10:31:43Z</time>
      </trkpt>
      <trkpt lat="45.83404" lon="6.15148">
        <ele>484.7</ele>
        <time>2013-08-17T10:31:51Z</time>
      </trkpt>
      <trkpt lat="45.83399" lon="6.15148">
        <ele>484.8</ele>
        <time>2013-08-17T10:31:52Z</time>
      </trkpt>
      <trkpt lat="45.83391" lon="6.15131">
        <ele>485.7</ele>
        <time>2013-08-17T10:31:54Z</time>
      </trkpt>
      <trkpt lat="45.83386" lon="6.15138">
        <ele>485.3</ele>
        <time>2013-08-17T10:31:56Z</time>
      </trkpt>
      <trkpt lat="45.83387" lon="6.15125">
        <ele>486</ele>
        <time>2013-08-17T10:31:58Z</time>
      </trkpt>
      <trkpt lat="45.83387" lon="6.15118">
        <ele>486.7</ele>
        <time>2013-08-17T10:31:59Z</time>
      </trkpt>
      <trkpt lat="45.83387" lon="6.15113">
        <ele>487.2</ele>
        <time>2013-08-17T10:32:00Z</time>
      </trkpt>
      <trkpt lat="45.83388" lon="6.15103">
        <ele>488.2</ele>
        <time>2013-08-17T10:32:01Z</time>
      </trkpt>
      <trkpt lat="45.8339" lon="6.15093">
        <ele>489.1</ele>
        <time>2013-08-17T10:32:02Z</time>
      </trkpt>
      <trkpt lat="45.83392" lon="6.15087">
        <ele>489.8</ele>
        <time>2013-08-17T10:32:03Z</time>
      </trkpt>
      <trkpt lat="45.83398" lon="6.1506">
        <ele>492.4</ele>
        <time>2013-08-17T10:32:09Z</time>
      </trkpt>
      <trkpt lat="45.83399" lon="6.15055">
        <ele>492.9</ele>
        <time>2013-08-17T10:32:10Z</time>
      </trkpt>
      <trkpt lat="45.83376" lon="6.15046">
        <ele>493.6</ele>
        <time>2013-08-17T10:32:14Z</time>
      </trkpt>
      <trkpt lat="45.8337" lon="6.15046">
        <ele>493.6</ele>
        <time>2013-08-17T10:32:15Z</time>
      </trkpt>
      <trkpt lat="45.83364" lon="6.15046">
        <ele>493.5</ele>
        <time>2013-08-17T10:32:16Z</time>
      </trkpt>
      <trkpt lat="45.83353" lon="6.15048">
        <ele>493.2</ele>
        <time>2013-08-17T10:32:17Z</time>
      </trkpt>
      <trkpt lat="45.83342" lon="6.1505">
        <ele>492.9</ele>
        <time>2013-08-17T10:32:18Z</time>
      </trkpt>
      <trkpt lat="45.83337" lon="6.15049">
        <ele>493</ele>
        <time>2013-08-17T10:32:19Z</time>
      </trkpt>
      <trkpt lat="45.83331" lon="6.1505">
        <ele>492.8</ele>
        <time>2013-08-17T10:32:20Z</time>
      </trkpt>
      <trkpt lat="45.83325" lon="6.15051">
        <ele>492.7</ele>
        <time>2013-08-17T10:32:21Z</time>
      </trkpt>
      <trkpt lat="45.83319" lon="6.15051">
        <ele>492.6</ele>
        <time>2013-08-17T10:32:22Z</time>
      </trkpt>
      <trkpt lat="45.83316" lon="6.15051">
        <ele>492.6</ele>
        <time>2013-08-17T10:32:23Z</time>
      </trkpt>
      <trkpt lat="45.8331" lon="6.15051">
        <ele>492.6</ele>
        <time>2013-08-17T10:32:24Z</time>
      </trkpt>
      <trkpt lat="45.83306" lon="6.15051">
        <ele>492.5</ele>
        <time>2013-08-17T10:32:25Z</time>
      </trkpt>
      <trkpt lat="45.83301" lon="6.15052">
        <ele>492.4</ele>
        <time>2013-08-17T10:32:27Z</time>
      </trkpt>
      <trkpt lat="45.83296" lon="6.15051">
        <ele>492.5</ele>
        <time>2013-08-17T10:32:28Z</time>
      </trkpt>
      <trkpt lat="45.83292" lon="6.15054">
        <ele>492.3</ele>
        <time>2013-08-17T10:32:29Z</time>
      </trkpt>
      <trkpt lat="45.83282" lon="6.15055">
        <ele>492.6</ele>
        <time>2013-08-17T10:32:30Z</time>
      </trkpt>
      <trkpt lat="45.83274" lon="6.15055">
        <ele>492.9</ele>
        <time>2013-08-17T10:32:31Z</time>
      </trkpt>
      <trkpt lat="45.83269" lon="6.15056">
        <ele>492.9</ele>
        <time>2013-08-17T10:32:32Z</time>
      </trkpt>
      <trkpt lat="45.83263" lon="6.15058">
        <ele>493</ele>
        <time>2013-08-17T10:32:33Z</time>
      </trkpt>
      <trkpt lat="45.83258" lon="6.15061">
        <ele>493.1</ele>
        <time>2013-08-17T10:32:34Z</time>
      </trkpt>
      <trkpt lat="45.83254" lon="6.15063">
        <ele>493.1</ele>
        <time>2013-08-17T10:32:35Z</time>
      </trkpt>
      <trkpt lat="45.83245" lon="6.15064">
        <ele>493.3</ele>
        <time>2013-08-17T10:32:36Z</time>
      </trkpt>
      <trkpt lat="45.8324" lon="6.15066">
        <ele>493.4</ele>
        <time>2013-08-17T10:32:37Z</time>
      </trkpt>
      <trkpt lat="45.83235" lon="6.15068">
        <ele>493.5</ele>
        <time>2013-08-17T10:32:38Z</time>
      </trkpt>
      <trkpt lat="45.83228" lon="6.15072">
        <ele>493.5</ele>
        <time>2013-08-17T10:32:39Z</time>
      </trkpt>
      <trkpt lat="45.83223" lon="6.15075">
        <ele>493.5</ele>
        <time>2013-08-17T10:32:40Z</time>
      </trkpt>
      <trkpt lat="45.83217" lon="6.15077">
        <ele>493.6</ele>
        <time>2013-08-17T10:32:41Z</time>
      </trkpt>
      <trkpt lat="45.83212" lon="6.15081">
        <ele>493.5</ele>
        <time>2013-08-17T10:32:42Z</time>
      </trkpt>
      <trkpt lat="45.83205" lon="6.15084">
        <ele>493.5</ele>
        <time>2013-08-17T10:32:43Z</time>
      </trkpt>
      <trkpt lat="45.83199" lon="6.15086">
        <ele>493.4</ele>
        <time>2013-08-17T10:32:44Z</time>
      </trkpt>
      <trkpt lat="45.83194" lon="6.15089">
        <ele>493.3</ele>
        <time>2013-08-17T10:32:45Z</time>
      </trkpt>
      <trkpt lat="45.83189" lon="6.15092">
        <ele>493.2</ele>
        <time>2013-08-17T10:32:46Z</time>
      </trkpt>
      <trkpt lat="45.83184" lon="6.15094">
        <ele>493.2</ele>
        <time>2013-08-17T10:32:47Z</time>
      </trkpt>
      <trkpt lat="45.83179" lon="6.15096">
        <ele>493.1</ele>
        <time>2013-08-17T10:32:48Z</time>
      </trkpt>
      <trkpt lat="45.83176" lon="6.15098">
        <ele>493</ele>
        <time>2013-08-17T10:32:49Z</time>
      </trkpt>
      <trkpt lat="45.83172" lon="6.15099">
        <ele>493</ele>
        <time>2013-08-17T10:32:50Z</time>
      </trkpt>
      <trkpt lat="45.83166" lon="6.15103">
        <ele>492.9</ele>
        <time>2013-08-17T10:32:52Z</time>
      </trkpt>
      <trkpt lat="45.83149" lon="6.15111">
        <ele>492.5</ele>
        <time>2013-08-17T10:32:54Z</time>
      </trkpt>
      <trkpt lat="45.83143" lon="6.15114">
        <ele>492.4</ele>
        <time>2013-08-17T10:32:55Z</time>
      </trkpt>
      <trkpt lat="45.83138" lon="6.15116">
        <ele>492.4</ele>
        <time>2013-08-17T10:32:56Z</time>
      </trkpt>
      <trkpt lat="45.83133" lon="6.15119">
        <ele>492.3</ele>
        <time>2013-08-17T10:32:57Z</time>
      </trkpt>
      <trkpt lat="45.83128" lon="6.15121">
        <ele>492.2</ele>
        <time>2013-08-17T10:32:58Z</time>
      </trkpt>
      <trkpt lat="45.83122" lon="6.15123">
        <ele>492.2</ele>
        <time>2013-08-17T10:32:59Z</time>
      </trkpt>
      <trkpt lat="45.83112" lon="6.15127">
        <ele>492.2</ele>
        <time>2013-08-17T10:33:00Z</time>
      </trkpt>
      <trkpt lat="45.83107" lon="6.1513">
        <ele>492.3</ele>
        <time>2013-08-17T10:33:01Z</time>
      </trkpt>
      <trkpt lat="45.83099" lon="6.15133">
        <ele>492.3</ele>
        <time>2013-08-17T10:33:02Z</time>
      </trkpt>
      <trkpt lat="45.83093" lon="6.15135">
        <ele>492.4</ele>
        <time>2013-08-17T10:33:03Z</time>
      </trkpt>
      <trkpt lat="45.83088" lon="6.15138">
        <ele>492.4</ele>
        <time>2013-08-17T10:33:04Z</time>
      </trkpt>
      <trkpt lat="45.83083" lon="6.1514">
        <ele>492.5</ele>
        <time>2013-08-17T10:33:05Z</time>
      </trkpt>
      <trkpt lat="45.83078" lon="6.15142">
        <ele>492.5</ele>
        <time>2013-08-17T10:33:06Z</time>
      </trkpt>
      <trkpt lat="45.83058" lon="6.1515">
        <ele>492.7</ele>
        <time>2013-08-17T10:33:09Z</time>
      </trkpt>
      <trkpt lat="45.83052" lon="6.15152">
        <ele>492.8</ele>
        <time>2013-08-17T10:33:10Z</time>
      </trkpt>
      <trkpt lat="45.83045" lon="6.15154">
        <ele>492.9</ele>
        <time>2013-08-17T10:33:11Z</time>
      </trkpt>
      <trkpt lat="45.83038" lon="6.15157">
        <ele>492.9</ele>
        <time>2013-08-17T10:33:13Z</time>
      </trkpt>
      <trkpt lat="45.83028" lon="6.15161">
        <ele>493</ele>
        <time>2013-08-17T10:33:14Z</time>
      </trkpt>
      <trkpt lat="45.83018" lon="6.15164">
        <ele>493</ele>
        <time>2013-08-17T10:33:15Z</time>
      </trkpt>
      <trkpt lat="45.8301" lon="6.15166">
        <ele>493.1</ele>
        <time>2013-08-17T10:33:16Z</time>
      </trkpt>
      <trkpt lat="45.83006" lon="6.15168">
        <ele>493.1</ele>
        <time>2013-08-17T10:33:17Z</time>
      </trkpt>
      <trkpt lat="45.82984" lon="6.15172">
        <ele>493.3</ele>
        <time>2013-08-17T10:33:21Z</time>
      </trkpt>
      <trkpt lat="45.8298" lon="6.15172">
        <ele>493.4</ele>
        <time>2013-08-17T10:33:22Z</time>
      </trkpt>
      <trkpt lat="45.82977" lon="6.15173">
        <ele>493.4</ele>
        <time>2013-08-17T10:33:23Z</time>
      </trkpt>
      <trkpt lat="45.82971" lon="6.15174">
        <ele>493.5</ele>
        <time>2013-08-17T10:33:24Z</time>
      </trkpt>
      <trkpt lat="45.82963" lon="6.15176">
        <ele>493.5</ele>
        <time>2013-08-17T10:33:25Z</time>
      </trkpt>
      <trkpt lat="45.82955" lon="6.15176">
        <ele>493.6</ele>
        <time>2013-08-17T10:33:26Z</time>
      </trkpt>
      <trkpt lat="45.82949" lon="6.15177">
        <ele>493.7</ele>
        <time>2013-08-17T10:33:27Z</time>
      </trkpt>
      <trkpt lat="45.82939" lon="6.15178">
        <ele>493.9</ele>
        <time>2013-08-17T10:33:28Z</time>
      </trkpt>
      <trkpt lat="45.82932" lon="6.15179">
        <ele>494</ele>
        <time>2013-08-17T10:33:29Z</time>
      </trkpt>
      <trkpt lat="45.82924" lon="6.1518">
        <ele>494.1</ele>
        <time>2013-08-17T10:33:30Z</time>
      </trkpt>
      <trkpt lat="45.82916" lon="6.15181">
        <ele>494.2</ele>
        <time>2013-08-17T10:33:31Z</time>
      </trkpt>
      <trkpt lat="45.82909" lon="6.15182">
        <ele>494.3</ele>
        <time>2013-08-17T10:33:32Z</time>
      </trkpt>
      <trkpt lat="45.82902" lon="6.15182">
        <ele>494.4</ele>
        <time>2013-08-17T10:33:33Z</time>
      </trkpt>
      <trkpt lat="45.82893" lon="6.15183">
        <ele>494.5</ele>
        <time>2013-08-17T10:33:34Z</time>
      </trkpt>
      <trkpt lat="45.82889" lon="6.15184">
        <ele>494.5</ele>
        <time>2013-08-17T10:33:35Z</time>
      </trkpt>
      <trkpt lat="45.82878" lon="6.15185">
        <ele>494.6</ele>
        <time>2013-08-17T10:33:36Z</time>
      </trkpt>
      <trkpt lat="45.82868" lon="6.15187">
        <ele>494.5</ele>
        <time>2013-08-17T10:33:37Z</time>
      </trkpt>
      <trkpt lat="45.8286" lon="6.15188">
        <ele>494.3</ele>
        <time>2013-08-17T10:33:38Z</time>
      </trkpt>
      <trkpt lat="45.82851" lon="6.15189">
        <ele>494.1</ele>
        <time>2013-08-17T10:33:39Z</time>
      </trkpt>
      <trkpt lat="45.82842" lon="6.1519">
        <ele>493.9</ele>
        <time>2013-08-17T10:33:40Z</time>
      </trkpt>
      <trkpt lat="45.82834" lon="6.15191">
        <ele>493.8</ele>
        <time>2013-08-17T10:33:41Z</time>
      </trkpt>
      <trkpt lat="45.82825" lon="6.15192">
        <ele>493.6</ele>
        <time>2013-08-17T10:33:42Z</time>
      </trkpt>
      <trkpt lat="45.82817" lon="6.15193">
        <ele>493.4</ele>
        <time>2013-08-17T10:33:43Z</time>
      </trkpt>
      <trkpt lat="45.82808" lon="6.15194">
        <ele>493.2</ele>
        <time>2013-08-17T10:33:44Z</time>
      </trkpt>
      <trkpt lat="45.828" lon="6.15197">
        <ele>492.9</ele>
        <time>2013-08-17T10:33:45Z</time>
      </trkpt>
      <trkpt lat="45.82793" lon="6.15199">
        <ele>492.7</ele>
        <time>2013-08-17T10:33:46Z</time>
      </trkpt>
      <trkpt lat="45.82783" lon="6.15199">
        <ele>492.6</ele>
        <time>2013-08-17T10:33:47Z</time>
      </trkpt>
      <trkpt lat="45.82774" lon="6.152">
        <ele>492.4</ele>
        <time>2013-08-17T10:33:48Z</time>
      </trkpt>
      <trkpt lat="45.82769" lon="6.152">
        <ele>492.3</ele>
        <time>2013-08-17T10:33:49Z</time>
      </trkpt>
      <trkpt lat="45.82755" lon="6.15196">
        <ele>492.3</ele>
        <time>2013-08-17T10:33:50Z</time>
      </trkpt>
      <trkpt lat="45.82746" lon="6.15191">
        <ele>492.4</ele>
        <time>2013-08-17T10:33:51Z</time>
      </trkpt>
      <trkpt lat="45.82738" lon="6.15187">
        <ele>492.4</ele>
        <time>2013-08-17T10:33:52Z</time>
      </trkpt>
      <trkpt lat="45.82728" lon="6.15184">
        <ele>492.3</ele>
        <time>2013-08-17T10:33:53Z</time>
      </trkpt>
      <trkpt lat="45.8272" lon="6.15181">
        <ele>492.3</ele>
        <time>2013-08-17T10:33:54Z</time>
      </trkpt>
      <trkpt lat="45.82712" lon="6.15177">
        <ele>492.2</ele>
        <time>2013-08-17T10:33:55Z</time>
      </trkpt>
      <trkpt lat="45.82704" lon="6.15173">
        <ele>492.4</ele>
        <time>2013-08-17T10:33:56Z</time>
      </trkpt>
      <trkpt lat="45.82694" lon="6.15168">
        <ele>492.9</ele>
        <time>2013-08-17T10:33:57Z</time>
      </trkpt>
      <trkpt lat="45.82686" lon="6.15164">
        <ele>493.2</ele>
        <time>2013-08-17T10:33:58Z</time>
      </trkpt>
      <trkpt lat="45.82679" lon="6.15161">
        <ele>493.6</ele>
        <time>2013-08-17T10:33:59Z</time>
      </trkpt>
      <trkpt lat="45.8267" lon="6.15158">
        <ele>493.9</ele>
        <time>2013-08-17T10:34:00Z</time>
      </trkpt>
      <trkpt lat="45.82659" lon="6.15153">
        <ele>494.4</ele>
        <time>2013-08-17T10:34:01Z</time>
      </trkpt>
      <trkpt lat="45.82651" lon="6.15149">
        <ele>494.7</ele>
        <time>2013-08-17T10:34:02Z</time>
      </trkpt>
      <trkpt lat="45.82642" lon="6.15145">
        <ele>495.1</ele>
        <time>2013-08-17T10:34:03Z</time>
      </trkpt>
      <trkpt lat="45.82635" lon="6.15142">
        <ele>495.3</ele>
        <time>2013-08-17T10:34:04Z</time>
      </trkpt>
      <trkpt lat="45.8263" lon="6.15139">
        <ele>495.5</ele>
        <time>2013-08-17T10:34:05Z</time>
      </trkpt>
      <trkpt lat="45.82623" lon="6.15135">
        <ele>495.8</ele>
        <time>2013-08-17T10:34:06Z</time>
      </trkpt>
      <trkpt lat="45.82616" lon="6.15131">
        <ele>496</ele>
        <time>2013-08-17T10:34:07Z</time>
      </trkpt>
      <trkpt lat="45.82609" lon="6.15127">
        <ele>496.1</ele>
        <time>2013-08-17T10:34:08Z</time>
      </trkpt>
      <trkpt lat="45.82602" lon="6.15124">
        <ele>496.4</ele>
        <time>2013-08-17T10:34:09Z</time>
      </trkpt>
      <trkpt lat="45.82598" lon="6.1512">
        <ele>496.7</ele>
        <time>2013-08-17T10:34:10Z</time>
      </trkpt>
      <trkpt lat="45.82594" lon="6.15117">
        <ele>496.9</ele>
        <time>2013-08-17T10:34:11Z</time>
      </trkpt>
      <trkpt lat="45.82591" lon="6.15116">
        <ele>497</ele>
        <time>2013-08-17T10:34:12Z</time>
      </trkpt>
      <trkpt lat="45.82586" lon="6.15115">
        <ele>497.1</ele>
        <time>2013-08-17T10:34:13Z</time>
      </trkpt>
      <trkpt lat="45.8257" lon="6.15129">
        <ele>496.6</ele>
        <time>2013-08-17T10:34:16Z</time>
      </trkpt>
      <trkpt lat="45.82564" lon="6.15136">
        <ele>496.6</ele>
        <time>2013-08-17T10:34:17Z</time>
      </trkpt>
      <trkpt lat="45.82558" lon="6.15138">
        <ele>496.6</ele>
        <time>2013-08-17T10:34:18Z</time>
      </trkpt>
      <trkpt lat="45.82553" lon="6.15141">
        <ele>496.6</ele>
        <time>2013-08-17T10:34:19Z</time>
      </trkpt>
      <trkpt lat="45.82547" lon="6.15145">
        <ele>496.7</ele>
        <time>2013-08-17T10:34:20Z</time>
      </trkpt>
      <trkpt lat="45.82542" lon="6.15145">
        <ele>496.8</ele>
        <time>2013-08-17T10:34:21Z</time>
      </trkpt>
      <trkpt lat="45.82536" lon="6.15145">
        <ele>497.1</ele>
        <time>2013-08-17T10:34:22Z</time>
      </trkpt>
      <trkpt lat="45.82531" lon="6.15146">
        <ele>497.4</ele>
        <time>2013-08-17T10:34:23Z</time>
      </trkpt>
      <trkpt lat="45.82526" lon="6.15144">
        <ele>497.8</ele>
        <time>2013-08-17T10:34:24Z</time>
      </trkpt>
      <trkpt lat="45.82523" lon="6.15143">
        <ele>498</ele>
        <time>2013-08-17T10:34:25Z</time>
      </trkpt>
      <trkpt lat="45.82518" lon="6.15143">
        <ele>498.3</ele>
        <time>2013-08-17T10:34:26Z</time>
      </trkpt>
      <trkpt lat="45.82511" lon="6.15141">
        <ele>498.7</ele>
        <time>2013-08-17T10:34:27Z</time>
      </trkpt>
      <trkpt lat="45.82508" lon="6.1514">
        <ele>498.9</ele>
        <time>2013-08-17T10:34:28Z</time>
      </trkpt>
      <trkpt lat="45.82491" lon="6.15136">
        <ele>499.8</ele>
        <time>2013-08-17T10:34:30Z</time>
      </trkpt>
      <trkpt lat="45.82485" lon="6.15133">
        <ele>500</ele>
        <time>2013-08-17T10:34:31Z</time>
      </trkpt>
      <trkpt lat="45.82479" lon="6.15131">
        <ele>500.3</ele>
        <time>2013-08-17T10:34:32Z</time>
      </trkpt>
      <trkpt lat="45.82472" lon="6.15126">
        <ele>500.4</ele>
        <time>2013-08-17T10:34:33Z</time>
      </trkpt>
      <trkpt lat="45.82465" lon="6.15124">
        <ele>500.6</ele>
        <time>2013-08-17T10:34:34Z</time>
      </trkpt>
      <trkpt lat="45.82461" lon="6.1512">
        <ele>500.8</ele>
        <time>2013-08-17T10:34:35Z</time>
      </trkpt>
      <trkpt lat="45.82456" lon="6.15118">
        <ele>501.1</ele>
        <time>2013-08-17T10:34:37Z</time>
      </trkpt>
      <trkpt lat="45.82453" lon="6.15115">
        <ele>501.4</ele>
        <time>2013-08-17T10:34:38Z</time>
      </trkpt>
      <trkpt lat="45.8245" lon="6.15115">
        <ele>501.6</ele>
        <time>2013-08-17T10:34:39Z</time>
      </trkpt>
      <trkpt lat="45.82444" lon="6.15111">
        <ele>502.1</ele>
        <time>2013-08-17T10:34:40Z</time>
      </trkpt>
      <trkpt lat="45.82439" lon="6.15108">
        <ele>502.6</ele>
        <time>2013-08-17T10:34:41Z</time>
      </trkpt>
      <trkpt lat="45.82436" lon="6.15106">
        <ele>502.8</ele>
        <time>2013-08-17T10:34:42Z</time>
      </trkpt>
      <trkpt lat="45.82418" lon="6.15097">
        <ele>504.2</ele>
        <time>2013-08-17T10:34:45Z</time>
      </trkpt>
      <trkpt lat="45.82414" lon="6.15094">
        <ele>504.5</ele>
        <time>2013-08-17T10:34:46Z</time>
      </trkpt>
      <trkpt lat="45.82411" lon="6.15094">
        <ele>504.8</ele>
        <time>2013-08-17T10:34:47Z</time>
      </trkpt>
      <trkpt lat="45.82407" lon="6.15092">
        <ele>505</ele>
        <time>2013-08-17T10:34:48Z</time>
      </trkpt>
      <trkpt lat="45.82399" lon="6.15088">
        <ele>505.5</ele>
        <time>2013-08-17T10:34:49Z</time>
      </trkpt>
      <trkpt lat="45.82394" lon="6.15085">
        <ele>505.9</ele>
        <time>2013-08-17T10:34:50Z</time>
      </trkpt>
      <trkpt lat="45.8239" lon="6.15082">
        <ele>506.1</ele>
        <time>2013-08-17T10:34:51Z</time>
      </trkpt>
      <trkpt lat="45.82386" lon="6.15079">
        <ele>506.3</ele>
        <time>2013-08-17T10:34:52Z</time>
      </trkpt>
      <trkpt lat="45.82382" lon="6.15078">
        <ele>506.6</ele>
        <time>2013-08-17T10:34:53Z</time>
      </trkpt>
      <trkpt lat="45.82377" lon="6.15073">
        <ele>506.7</ele>
        <time>2013-08-17T10:34:54Z</time>
      </trkpt>
      <trkpt lat="45.82373" lon="6.15071">
        <ele>507.1</ele>
        <time>2013-08-17T10:34:55Z</time>
      </trkpt>
      <trkpt lat="45.82369" lon="6.15068">
        <ele>507.6</ele>
        <time>2013-08-17T10:34:56Z</time>
      </trkpt>
      <trkpt lat="45.82364" lon="6.15063">
        <ele>508.1</ele>
        <time>2013-08-17T10:34:57Z</time>
      </trkpt>
      <trkpt lat="45.82349" lon="6.15052">
        <ele>510</ele>
        <time>2013-08-17T10:35:01Z</time>
      </trkpt>
      <trkpt lat="45.82344" lon="6.15048">
        <ele>510.6</ele>
        <time>2013-08-17T10:35:02Z</time>
      </trkpt>
      <trkpt lat="45.82339" lon="6.15045">
        <ele>511.2</ele>
        <time>2013-08-17T10:35:03Z</time>
      </trkpt>
      <trkpt lat="45.82336" lon="6.15042">
        <ele>511.5</ele>
        <time>2013-08-17T10:35:04Z</time>
      </trkpt>
      <trkpt lat="45.82332" lon="6.15038">
        <ele>512.2</ele>
        <time>2013-08-17T10:35:05Z</time>
      </trkpt>
      <trkpt lat="45.82328" lon="6.15035">
        <ele>512.7</ele>
        <time>2013-08-17T10:35:06Z</time>
      </trkpt>
      <trkpt lat="45.82326" lon="6.15033">
        <ele>513.1</ele>
        <time>2013-08-17T10:35:07Z</time>
      </trkpt>
      <trkpt lat="45.82314" lon="6.1502">
        <ele>514.7</ele>
        <time>2013-08-17T10:35:09Z</time>
      </trkpt>
      <trkpt lat="45.82311" lon="6.15017">
        <ele>515.1</ele>
        <time>2013-08-17T10:35:10Z</time>
      </trkpt>
      <trkpt lat="45.82309" lon="6.15014">
        <ele>515.3</ele>
        <time>2013-08-17T10:35:11Z</time>
      </trkpt>
      <trkpt lat="45.82306" lon="6.15009">
        <ele>515.6</ele>
        <time>2013-08-17T10:35:12Z</time>
      </trkpt>
      <trkpt lat="45.82304" lon="6.15004">
        <ele>515.8</ele>
        <time>2013-08-17T10:35:13Z</time>
      </trkpt>
      <trkpt lat="45.82301" lon="6.14999">
        <ele>516.1</ele>
        <time>2013-08-17T10:35:14Z</time>
      </trkpt>
      <trkpt lat="45.82298" lon="6.14995">
        <ele>516.5</ele>
        <time>2013-08-17T10:35:15Z</time>
      </trkpt>
      <trkpt lat="45.82296" lon="6.14991">
        <ele>516.6</ele>
        <time>2013-08-17T10:35:16Z</time>
      </trkpt>
      <trkpt lat="45.8229" lon="6.14983">
        <ele>517.2</ele>
        <time>2013-08-17T10:35:18Z</time>
      </trkpt>
      <trkpt lat="45.82286" lon="6.14973">
        <ele>517.7</ele>
        <time>2013-08-17T10:35:19Z</time>
      </trkpt>
      <trkpt lat="45.82283" lon="6.14965">
        <ele>518.1</ele>
        <time>2013-08-17T10:35:20Z</time>
      </trkpt>
      <trkpt lat="45.8228" lon="6.14957">
        <ele>518.3</ele>
        <time>2013-08-17T10:35:21Z</time>
      </trkpt>
      <trkpt lat="45.82279" lon="6.14953">
        <ele>518.4</ele>
        <time>2013-08-17T10:35:22Z</time>
      </trkpt>
      <trkpt lat="45.82276" lon="6.14943">
        <ele>518.3</ele>
        <time>2013-08-17T10:35:23Z</time>
      </trkpt>
      <trkpt lat="45.82276" lon="6.14939">
        <ele>518.3</ele>
        <time>2013-08-17T10:35:24Z</time>
      </trkpt>
      <trkpt lat="45.82274" lon="6.14932">
        <ele>518.1</ele>
        <time>2013-08-17T10:35:25Z</time>
      </trkpt>
      <trkpt lat="45.82274" lon="6.14925">
        <ele>517.8</ele>
        <time>2013-08-17T10:35:26Z</time>
      </trkpt>
      <trkpt lat="45.82272" lon="6.14917">
        <ele>517.6</ele>
        <time>2013-08-17T10:35:27Z</time>
      </trkpt>
      <trkpt lat="45.82271" lon="6.1491">
        <ele>517.3</ele>
        <time>2013-08-17T10:35:28Z</time>
      </trkpt>
      <trkpt lat="45.82271" lon="6.14904">
        <ele>517</ele>
        <time>2013-08-17T10:35:29Z</time>
      </trkpt>
      <trkpt lat="45.82269" lon="6.14899">
        <ele>516.9</ele>
        <time>2013-08-17T10:35:30Z</time>
      </trkpt>
      <trkpt lat="45.82268" lon="6.14891">
        <ele>516.4</ele>
        <time>2013-08-17T10:35:31Z</time>
      </trkpt>
      <trkpt lat="45.82269" lon="6.14882">
        <ele>515.8</ele>
        <time>2013-08-17T10:35:32Z</time>
      </trkpt>
      <trkpt lat="45.82269" lon="6.14874">
        <ele>515.4</ele>
        <time>2013-08-17T10:35:33Z</time>
      </trkpt>
      <trkpt lat="45.82271" lon="6.14867">
        <ele>515.4</ele>
        <time>2013-08-17T10:35:34Z</time>
      </trkpt>
      <trkpt lat="45.8227" lon="6.14862">
        <ele>515.5</ele>
        <time>2013-08-17T10:35:35Z</time>
      </trkpt>
      <trkpt lat="45.82269" lon="6.14856">
        <ele>515.7</ele>
        <time>2013-08-17T10:35:36Z</time>
      </trkpt>
      <trkpt lat="45.8227" lon="6.14847">
        <ele>515.8</ele>
        <time>2013-08-17T10:35:37Z</time>
      </trkpt>
      <trkpt lat="45.82267" lon="6.14836">
        <ele>516.1</ele>
        <time>2013-08-17T10:35:39Z</time>
      </trkpt>
      <trkpt lat="45.82266" lon="6.1483">
        <ele>516.4</ele>
        <time>2013-08-17T10:35:40Z</time>
      </trkpt>
      <trkpt lat="45.82264" lon="6.1482">
        <ele>516.8</ele>
        <time>2013-08-17T10:35:42Z</time>
      </trkpt>
      <trkpt lat="45.82257" lon="6.1481">
        <ele>517.8</ele>
        <time>2013-08-17T10:35:44Z</time>
      </trkpt>
      <trkpt lat="45.82253" lon="6.14806">
        <ele>518.2</ele>
        <time>2013-08-17T10:35:45Z</time>
      </trkpt>
      <trkpt lat="45.8225" lon="6.14803">
        <ele>518.6</ele>
        <time>2013-08-17T10:35:46Z</time>
      </trkpt>
      <trkpt lat="45.82247" lon="6.148">
        <ele>519.1</ele>
        <time>2013-08-17T10:35:47Z</time>
      </trkpt>
      <trkpt lat="45.82242" lon="6.14796">
        <ele>519.8</ele>
        <time>2013-08-17T10:35:49Z</time>
      </trkpt>
      <trkpt lat="45.82231" lon="6.14791">
        <ele>521.5</ele>
        <time>2013-08-17T10:35:50Z</time>
      </trkpt>
      <trkpt lat="45.8222" lon="6.14791">
        <ele>522.9</ele>
        <time>2013-08-17T10:35:51Z</time>
      </trkpt>
      <trkpt lat="45.82215" lon="6.14792">
        <ele>523.1</ele>
        <time>2013-08-17T10:35:52Z</time>
      </trkpt>
      <trkpt lat="45.8221" lon="6.14794">
        <ele>523.7</ele>
        <time>2013-08-17T10:35:53Z</time>
      </trkpt>
      <trkpt lat="45.82205" lon="6.14795">
        <ele>523.9</ele>
        <time>2013-08-17T10:35:54Z</time>
      </trkpt>
      <trkpt lat="45.822" lon="6.14797">
        <ele>524</ele>
        <time>2013-08-17T10:35:55Z</time>
      </trkpt>
      <trkpt lat="45.82193" lon="6.14799">
        <ele>524.1</ele>
        <time>2013-08-17T10:35:56Z</time>
      </trkpt>
      <trkpt lat="45.82188" lon="6.14802">
        <ele>524.1</ele>
        <time>2013-08-17T10:35:57Z</time>
      </trkpt>
      <trkpt lat="45.82182" lon="6.14805">
        <ele>524.1</ele>
        <time>2013-08-17T10:35:58Z</time>
      </trkpt>
      <trkpt lat="45.82175" lon="6.14807">
        <ele>524.2</ele>
        <time>2013-08-17T10:35:59Z</time>
      </trkpt>
      <trkpt lat="45.82169" lon="6.1481">
        <ele>524.2</ele>
        <time>2013-08-17T10:36:00Z</time>
      </trkpt>
      <trkpt lat="45.82162" lon="6.14813">
        <ele>524.2</ele>
        <time>2013-08-17T10:36:01Z</time>
      </trkpt>
      <trkpt lat="45.82157" lon="6.14816">
        <ele>524.2</ele>
        <time>2013-08-17T10:36:02Z</time>
      </trkpt>
      <trkpt lat="45.8215" lon="6.14818">
        <ele>524.3</ele>
        <time>2013-08-17T10:36:03Z</time>
      </trkpt>
      <trkpt lat="45.82146" lon="6.14819">
        <ele>524.3</ele>
        <time>2013-08-17T10:36:04Z</time>
      </trkpt>
      <trkpt lat="45.82138" lon="6.14818">
        <ele>524.7</ele>
        <time>2013-08-17T10:36:05Z</time>
      </trkpt>
      <trkpt lat="45.82132" lon="6.14817">
        <ele>525</ele>
        <time>2013-08-17T10:36:06Z</time>
      </trkpt>
      <trkpt lat="45.82126" lon="6.14816">
        <ele>525.2</ele>
        <time>2013-08-17T10:36:07Z</time>
      </trkpt>
      <trkpt lat="45.82122" lon="6.14814">
        <ele>525.4</ele>
        <time>2013-08-17T10:36:08Z</time>
      </trkpt>
      <trkpt lat="45.82116" lon="6.14812">
        <ele>525.6</ele>
        <time>2013-08-17T10:36:09Z</time>
      </trkpt>
      <trkpt lat="45.8211" lon="6.14809">
        <ele>525.8</ele>
        <time>2013-08-17T10:36:11Z</time>
      </trkpt>
      <trkpt lat="45.82106" lon="6.14807">
        <ele>525.9</ele>
        <time>2013-08-17T10:36:12Z</time>
      </trkpt>
      <trkpt lat="45.8209" lon="6.14803">
        <ele>526.1</ele>
        <time>2013-08-17T10:36:14Z</time>
      </trkpt>
      <trkpt lat="45.82079" lon="6.14799">
        <ele>526.2</ele>
        <time>2013-08-17T10:36:15Z</time>
      </trkpt>
      <trkpt lat="45.82073" lon="6.14797">
        <ele>526.2</ele>
        <time>2013-08-17T10:36:16Z</time>
      </trkpt>
      <trkpt lat="45.82065" lon="6.14794">
        <ele>526.2</ele>
        <time>2013-08-17T10:36:17Z</time>
      </trkpt>
      <trkpt lat="45.8206" lon="6.14792">
        <ele>526.2</ele>
        <time>2013-08-17T10:36:18Z</time>
      </trkpt>
      <trkpt lat="45.82055" lon="6.14792">
        <ele>526.1</ele>
        <time>2013-08-17T10:36:19Z</time>
      </trkpt>
      <trkpt lat="45.82048" lon="6.1479">
        <ele>526.3</ele>
        <time>2013-08-17T10:36:20Z</time>
      </trkpt>
      <trkpt lat="45.82043" lon="6.14788">
        <ele>526.5</ele>
        <time>2013-08-17T10:36:21Z</time>
      </trkpt>
      <trkpt lat="45.82036" lon="6.14786">
        <ele>527.1</ele>
        <time>2013-08-17T10:36:22Z</time>
      </trkpt>
      <trkpt lat="45.82031" lon="6.14785">
        <ele>527.5</ele>
        <time>2013-08-17T10:36:23Z</time>
      </trkpt>
      <trkpt lat="45.82025" lon="6.14783">
        <ele>528.2</ele>
        <time>2013-08-17T10:36:24Z</time>
      </trkpt>
      <trkpt lat="45.82017" lon="6.1478">
        <ele>528.8</ele>
        <time>2013-08-17T10:36:25Z</time>
      </trkpt>
      <trkpt lat="45.8201" lon="6.14778">
        <ele>529.4</ele>
        <time>2013-08-17T10:36:26Z</time>
      </trkpt>
      <trkpt lat="45.82003" lon="6.14776">
        <ele>529.9</ele>
        <time>2013-08-17T10:36:27Z</time>
      </trkpt>
      <trkpt lat="45.81996" lon="6.14773">
        <ele>530.5</ele>
        <time>2013-08-17T10:36:28Z</time>
      </trkpt>
      <trkpt lat="45.81992" lon="6.14772">
        <ele>530.8</ele>
        <time>2013-08-17T10:36:29Z</time>
      </trkpt>
      <trkpt lat="45.81985" lon="6.1477">
        <ele>531.3</ele>
        <time>2013-08-17T10:36:30Z</time>
      </trkpt>
      <trkpt lat="45.8198" lon="6.14769">
        <ele>531.6</ele>
        <time>2013-08-17T10:36:31Z</time>
      </trkpt>
      <trkpt lat="45.81974" lon="6.14763">
        <ele>532.2</ele>
        <time>2013-08-17T10:36:32Z</time>
      </trkpt>
      <trkpt lat="45.81969" lon="6.14757">
        <ele>532.8</ele>
        <time>2013-08-17T10:36:34Z</time>
      </trkpt>
      <trkpt lat="45.81966" lon="6.14753">
        <ele>533.2</ele>
        <time>2013-08-17T10:36:35Z</time>
      </trkpt>
      <trkpt lat="45.81963" lon="6.14746">
        <ele>533.7</ele>
        <time>2013-08-17T10:36:36Z</time>
      </trkpt>
      <trkpt lat="45.8196" lon="6.14739">
        <ele>534.1</ele>
        <time>2013-08-17T10:36:37Z</time>
      </trkpt>
      <trkpt lat="45.81956" lon="6.14732">
        <ele>534.7</ele>
        <time>2013-08-17T10:36:38Z</time>
      </trkpt>
      <trkpt lat="45.81954" lon="6.14728">
        <ele>535.2</ele>
        <time>2013-08-17T10:36:39Z</time>
      </trkpt>
      <trkpt lat="45.81949" lon="6.1472">
        <ele>536</ele>
        <time>2013-08-17T10:36:42Z</time>
      </trkpt>
      <trkpt lat="45.81946" lon="6.14715">
        <ele>536.4</ele>
        <time>2013-08-17T10:36:43Z</time>
      </trkpt>
      <trkpt lat="45.8194" lon="6.14708">
        <ele>537.1</ele>
        <time>2013-08-17T10:36:45Z</time>
      </trkpt>
      <trkpt lat="45.81935" lon="6.14704">
        <ele>538.4</ele>
        <time>2013-08-17T10:36:46Z</time>
      </trkpt>
      <trkpt lat="45.81929" lon="6.14702">
        <ele>539.3</ele>
        <time>2013-08-17T10:36:48Z</time>
      </trkpt>
      <trkpt lat="45.81923" lon="6.147">
        <ele>540</ele>
        <time>2013-08-17T10:36:50Z</time>
      </trkpt>
      <trkpt lat="45.81918" lon="6.147">
        <ele>540.2</ele>
        <time>2013-08-17T10:36:51Z</time>
      </trkpt>
      <trkpt lat="45.81915" lon="6.14701">
        <ele>540.3</ele>
        <time>2013-08-17T10:36:52Z</time>
      </trkpt>
      <trkpt lat="45.81911" lon="6.14703">
        <ele>539.9</ele>
        <time>2013-08-17T10:36:54Z</time>
      </trkpt>
      <trkpt lat="45.81908" lon="6.14704">
        <ele>539.9</ele>
        <time>2013-08-17T10:36:55Z</time>
      </trkpt>
      <trkpt lat="45.81904" lon="6.14706">
        <ele>539.8</ele>
        <time>2013-08-17T10:36:56Z</time>
      </trkpt>
      <trkpt lat="45.81898" lon="6.14709">
        <ele>539.6</ele>
        <time>2013-08-17T10:36:58Z</time>
      </trkpt>
      <trkpt lat="45.81896" lon="6.1471">
        <ele>539.7</ele>
        <time>2013-08-17T10:36:59Z</time>
      </trkpt>
      <trkpt lat="45.81891" lon="6.14712">
        <ele>540</ele>
        <time>2013-08-17T10:37:01Z</time>
      </trkpt>
      <trkpt lat="45.81888" lon="6.14714">
        <ele>540.1</ele>
        <time>2013-08-17T10:37:02Z</time>
      </trkpt>
      <trkpt lat="45.81885" lon="6.14716">
        <ele>540.3</ele>
        <time>2013-08-17T10:37:03Z</time>
      </trkpt>
      <trkpt lat="45.8188" lon="6.14719">
        <ele>540.5</ele>
        <time>2013-08-17T10:37:04Z</time>
      </trkpt>
      <trkpt lat="45.81876" lon="6.14721">
        <ele>540.8</ele>
        <time>2013-08-17T10:37:05Z</time>
      </trkpt>
      <trkpt lat="45.81872" lon="6.14722">
        <ele>540.7</ele>
        <time>2013-08-17T10:37:06Z</time>
      </trkpt>
      <trkpt lat="45.81869" lon="6.14724">
        <ele>540.7</ele>
        <time>2013-08-17T10:37:07Z</time>
      </trkpt>
      <trkpt lat="45.81864" lon="6.14724">
        <ele>540.6</ele>
        <time>2013-08-17T10:37:08Z</time>
      </trkpt>
      <trkpt lat="45.81861" lon="6.14723">
        <ele>540.5</ele>
        <time>2013-08-17T10:37:09Z</time>
      </trkpt>
      <trkpt lat="45.81858" lon="6.14723">
        <ele>540.4</ele>
        <time>2013-08-17T10:37:10Z</time>
      </trkpt>
      <trkpt lat="45.81852" lon="6.14722">
        <ele>540.2</ele>
        <time>2013-08-17T10:37:11Z</time>
      </trkpt>
      <trkpt lat="45.81848" lon="6.14721">
        <ele>540.1</ele>
        <time>2013-08-17T10:37:12Z</time>
      </trkpt>
      <trkpt lat="45.81843" lon="6.14719">
        <ele>539.9</ele>
        <time>2013-08-17T10:37:13Z</time>
      </trkpt>
      <trkpt lat="45.81839" lon="6.14718">
        <ele>539.7</ele>
        <time>2013-08-17T10:37:14Z</time>
      </trkpt>
      <trkpt lat="45.81836" lon="6.14716">
        <ele>539.5</ele>
        <time>2013-08-17T10:37:15Z</time>
      </trkpt>
      <trkpt lat="45.81833" lon="6.14715">
        <ele>539.3</ele>
        <time>2013-08-17T10:37:16Z</time>
      </trkpt>
      <trkpt lat="45.81829" lon="6.14713">
        <ele>539</ele>
        <time>2013-08-17T10:37:17Z</time>
      </trkpt>
      <trkpt lat="45.81825" lon="6.14711">
        <ele>538.8</ele>
        <time>2013-08-17T10:37:18Z</time>
      </trkpt>
      <trkpt lat="45.81822" lon="6.14709">
        <ele>538.5</ele>
        <time>2013-08-17T10:37:19Z</time>
      </trkpt>
      <trkpt lat="45.81818" lon="6.14707">
        <ele>538.5</ele>
        <time>2013-08-17T10:37:20Z</time>
      </trkpt>
      <trkpt lat="45.81814" lon="6.14705">
        <ele>538.7</ele>
        <time>2013-08-17T10:37:21Z</time>
      </trkpt>
      <trkpt lat="45.81811" lon="6.14702">
        <ele>538.9</ele>
        <time>2013-08-17T10:37:22Z</time>
      </trkpt>
      <trkpt lat="45.81807" lon="6.14699">
        <ele>539.2</ele>
        <time>2013-08-17T10:37:23Z</time>
      </trkpt>
      <trkpt lat="45.81804" lon="6.14697">
        <ele>539.4</ele>
        <time>2013-08-17T10:37:24Z</time>
      </trkpt>
      <trkpt lat="45.818" lon="6.14695">
        <ele>539.5</ele>
        <time>2013-08-17T10:37:25Z</time>
      </trkpt>
      <trkpt lat="45.81795" lon="6.14693">
        <ele>539.6</ele>
        <time>2013-08-17T10:37:26Z</time>
      </trkpt>
      <trkpt lat="45.8179" lon="6.14691">
        <ele>539.7</ele>
        <time>2013-08-17T10:37:27Z</time>
      </trkpt>
      <trkpt lat="45.81787" lon="6.1469">
        <ele>539.9</ele>
        <time>2013-08-17T10:37:28Z</time>
      </trkpt>
      <trkpt lat="45.81783" lon="6.14688">
        <ele>540.1</ele>
        <time>2013-08-17T10:37:30Z</time>
      </trkpt>
      <trkpt lat="45.81781" lon="6.14684">
        <ele>540.5</ele>
        <time>2013-08-17T10:37:33Z</time>
      </trkpt>
      <trkpt lat="45.81778" lon="6.14682">
        <ele>540.7</ele>
        <time>2013-08-17T10:37:34Z</time>
      </trkpt>
      <trkpt lat="45.81759" lon="6.14674">
        <ele>541.1</ele>
        <time>2013-08-17T10:37:39Z</time>
      </trkpt>
      <trkpt lat="45.81754" lon="6.14672">
        <ele>541.1</ele>
        <time>2013-08-17T10:37:40Z</time>
      </trkpt>
      <trkpt lat="45.8175" lon="6.14671">
        <ele>541.1</ele>
        <time>2013-08-17T10:37:41Z</time>
      </trkpt>
      <trkpt lat="45.81745" lon="6.1467">
        <ele>540.9</ele>
        <time>2013-08-17T10:37:42Z</time>
      </trkpt>
      <trkpt lat="45.81735" lon="6.14669">
        <ele>540.6</ele>
        <time>2013-08-17T10:37:43Z</time>
      </trkpt>
      <trkpt lat="45.81725" lon="6.14668">
        <ele>540.2</ele>
        <time>2013-08-17T10:37:44Z</time>
      </trkpt>
      <trkpt lat="45.81719" lon="6.14667">
        <ele>540</ele>
        <time>2013-08-17T10:37:45Z</time>
      </trkpt>
      <trkpt lat="45.81715" lon="6.14665">
        <ele>539.9</ele>
        <time>2013-08-17T10:37:46Z</time>
      </trkpt>
      <trkpt lat="45.81708" lon="6.14664">
        <ele>539.6</ele>
        <time>2013-08-17T10:37:47Z</time>
      </trkpt>
      <trkpt lat="45.81705" lon="6.14663">
        <ele>539.7</ele>
        <time>2013-08-17T10:37:48Z</time>
      </trkpt>
      <trkpt lat="45.81698" lon="6.14666">
        <ele>539.7</ele>
        <time>2013-08-17T10:37:49Z</time>
      </trkpt>
      <trkpt lat="45.81693" lon="6.14667">
        <ele>539.7</ele>
        <time>2013-08-17T10:37:50Z</time>
      </trkpt>
      <trkpt lat="45.81688" lon="6.14667">
        <ele>539.7</ele>
        <time>2013-08-17T10:37:51Z</time>
      </trkpt>
      <trkpt lat="45.81685" lon="6.14671">
        <ele>539.7</ele>
        <time>2013-08-17T10:37:52Z</time>
      </trkpt>
      <trkpt lat="45.8168" lon="6.1467">
        <ele>539.7</ele>
        <time>2013-08-17T10:37:53Z</time>
      </trkpt>
      <trkpt lat="45.81675" lon="6.14671">
        <ele>539.8</ele>
        <time>2013-08-17T10:37:54Z</time>
      </trkpt>
      <trkpt lat="45.81668" lon="6.14669">
        <ele>539.9</ele>
        <time>2013-08-17T10:37:55Z</time>
      </trkpt>
      <trkpt lat="45.81664" lon="6.14669">
        <ele>540</ele>
        <time>2013-08-17T10:37:56Z</time>
      </trkpt>
      <trkpt lat="45.81659" lon="6.14668">
        <ele>540.1</ele>
        <time>2013-08-17T10:37:57Z</time>
      </trkpt>
      <trkpt lat="45.81653" lon="6.14665">
        <ele>540.2</ele>
        <time>2013-08-17T10:37:58Z</time>
      </trkpt>
      <trkpt lat="45.81649" lon="6.14665">
        <ele>540.3</ele>
        <time>2013-08-17T10:37:59Z</time>
      </trkpt>
      <trkpt lat="45.81646" lon="6.14666">
        <ele>540.3</ele>
        <time>2013-08-17T10:38:00Z</time>
      </trkpt>
      <trkpt lat="45.81638" lon="6.14661">
        <ele>540.4</ele>
        <time>2013-08-17T10:38:02Z</time>
      </trkpt>
      <trkpt lat="45.81635" lon="6.14656">
        <ele>540.5</ele>
        <time>2013-08-17T10:38:03Z</time>
      </trkpt>
      <trkpt lat="45.81632" lon="6.14652">
        <ele>540.6</ele>
        <time>2013-08-17T10:38:04Z</time>
      </trkpt>
      <trkpt lat="45.8163" lon="6.14649">
        <ele>540.7</ele>
        <time>2013-08-17T10:38:05Z</time>
      </trkpt>
      <trkpt lat="45.81622" lon="6.14643">
        <ele>541</ele>
        <time>2013-08-17T10:38:06Z</time>
      </trkpt>
      <trkpt lat="45.8162" lon="6.1464">
        <ele>541.2</ele>
        <time>2013-08-17T10:38:07Z</time>
      </trkpt>
      <trkpt lat="45.81617" lon="6.14636">
        <ele>541.4</ele>
        <time>2013-08-17T10:38:08Z</time>
      </trkpt>
      <trkpt lat="45.81615" lon="6.14633">
        <ele>541.6</ele>
        <time>2013-08-17T10:38:09Z</time>
      </trkpt>
      <trkpt lat="45.81607" lon="6.14627">
        <ele>542.3</ele>
        <time>2013-08-17T10:38:10Z</time>
      </trkpt>
      <trkpt lat="45.81601" lon="6.1462">
        <ele>543.8</ele>
        <time>2013-08-17T10:38:11Z</time>
      </trkpt>
      <trkpt lat="45.81597" lon="6.14617">
        <ele>544.8</ele>
        <time>2013-08-17T10:38:12Z</time>
      </trkpt>
      <trkpt lat="45.81595" lon="6.1461">
        <ele>546.3</ele>
        <time>2013-08-17T10:38:14Z</time>
      </trkpt>
      <trkpt lat="45.81594" lon="6.14606">
        <ele>547.3</ele>
        <time>2013-08-17T10:38:16Z</time>
      </trkpt>
      <trkpt lat="45.8159" lon="6.14604">
        <ele>548</ele>
        <time>2013-08-17T10:38:18Z</time>
      </trkpt>
      <trkpt lat="45.81593" lon="6.14594">
        <ele>549.9</ele>
        <time>2013-08-17T10:38:19Z</time>
      </trkpt>
      <trkpt lat="45.81596" lon="6.14581">
        <ele>552.5</ele>
        <time>2013-08-17T10:38:20Z</time>
      </trkpt>
      <trkpt lat="45.816" lon="6.14572">
        <ele>554.3</ele>
        <time>2013-08-17T10:38:21Z</time>
      </trkpt>
      <trkpt lat="45.81602" lon="6.14561">
        <ele>556.7</ele>
        <time>2013-08-17T10:38:23Z</time>
      </trkpt>
      <trkpt lat="45.81603" lon="6.14557">
        <ele>557.5</ele>
        <time>2013-08-17T10:38:24Z</time>
      </trkpt>
      <trkpt lat="45.81604" lon="6.14552">
        <ele>558.8</ele>
        <time>2013-08-17T10:38:26Z</time>
      </trkpt>
      <trkpt lat="45.81606" lon="6.14544">
        <ele>560.5</ele>
        <time>2013-08-17T10:38:28Z</time>
      </trkpt>
      <trkpt lat="45.81605" lon="6.14539">
        <ele>561.5</ele>
        <time>2013-08-17T10:38:29Z</time>
      </trkpt>
      <trkpt lat="45.81606" lon="6.14533">
        <ele>562.6</ele>
        <time>2013-08-17T10:38:31Z</time>
      </trkpt>
      <trkpt lat="45.81597" lon="6.14525">
        <ele>563.9</ele>
        <time>2013-08-17T10:38:33Z</time>
      </trkpt>
      <trkpt lat="45.8159" lon="6.14517">
        <ele>565</ele>
        <time>2013-08-17T10:38:35Z</time>
      </trkpt>
      <trkpt lat="45.81581" lon="6.14513">
        <ele>565.4</ele>
        <time>2013-08-17T10:38:37Z</time>
      </trkpt>
      <trkpt lat="45.81578" lon="6.14514">
        <ele>565.2</ele>
        <time>2013-08-17T10:38:39Z</time>
      </trkpt>
      <trkpt lat="45.81573" lon="6.14515">
        <ele>564.9</ele>
        <time>2013-08-17T10:38:40Z</time>
      </trkpt>
      <trkpt lat="45.81571" lon="6.14517">
        <ele>564.6</ele>
        <time>2013-08-17T10:38:41Z</time>
      </trkpt>
      <trkpt lat="45.81567" lon="6.14518">
        <ele>564.3</ele>
        <time>2013-08-17T10:38:42Z</time>
      </trkpt>
      <trkpt lat="45.81564" lon="6.1452">
        <ele>564.1</ele>
        <time>2013-08-17T10:38:43Z</time>
      </trkpt>
      <trkpt lat="45.8156" lon="6.14521">
        <ele>563.8</ele>
        <time>2013-08-17T10:38:45Z</time>
      </trkpt>
      <trkpt lat="45.81557" lon="6.14523">
        <ele>563.5</ele>
        <time>2013-08-17T10:38:46Z</time>
      </trkpt>
      <trkpt lat="45.81553" lon="6.14523">
        <ele>563.4</ele>
        <time>2013-08-17T10:38:47Z</time>
      </trkpt>
      <trkpt lat="45.8155" lon="6.14524">
        <ele>563.3</ele>
        <time>2013-08-17T10:38:48Z</time>
      </trkpt>
      <trkpt lat="45.81545" lon="6.14525">
        <ele>563.1</ele>
        <time>2013-08-17T10:38:49Z</time>
      </trkpt>
      <trkpt lat="45.81542" lon="6.14525">
        <ele>563</ele>
        <time>2013-08-17T10:38:50Z</time>
      </trkpt>
      <trkpt lat="45.81538" lon="6.14526">
        <ele>562.8</ele>
        <time>2013-08-17T10:38:51Z</time>
      </trkpt>
      <trkpt lat="45.81535" lon="6.14528">
        <ele>562.6</ele>
        <time>2013-08-17T10:38:52Z</time>
      </trkpt>
      <trkpt lat="45.81531" lon="6.14529">
        <ele>562.4</ele>
        <time>2013-08-17T10:38:53Z</time>
      </trkpt>
      <trkpt lat="45.81525" lon="6.1453">
        <ele>562.2</ele>
        <time>2013-08-17T10:38:55Z</time>
      </trkpt>
      <trkpt lat="45.81522" lon="6.1453">
        <ele>562.1</ele>
        <time>2013-08-17T10:38:56Z</time>
      </trkpt>
      <trkpt lat="45.81518" lon="6.1453">
        <ele>562.1</ele>
        <time>2013-08-17T10:38:57Z</time>
      </trkpt>
      <trkpt lat="45.81514" lon="6.1453">
        <ele>562</ele>
        <time>2013-08-17T10:38:58Z</time>
      </trkpt>
      <trkpt lat="45.8151" lon="6.14529">
        <ele>562</ele>
        <time>2013-08-17T10:38:59Z</time>
      </trkpt>
      <trkpt lat="45.81506" lon="6.14528">
        <ele>562</ele>
        <time>2013-08-17T10:39:00Z</time>
      </trkpt>
      <trkpt lat="45.81499" lon="6.14527">
        <ele>562</ele>
        <time>2013-08-17T10:39:02Z</time>
      </trkpt>
      <trkpt lat="45.81495" lon="6.14526">
        <ele>562.1</ele>
        <time>2013-08-17T10:39:03Z</time>
      </trkpt>
      <trkpt lat="45.81488" lon="6.14525">
        <ele>562.1</ele>
        <time>2013-08-17T10:39:05Z</time>
      </trkpt>
      <trkpt lat="45.81483" lon="6.14522">
        <ele>562.3</ele>
        <time>2013-08-17T10:39:06Z</time>
      </trkpt>
      <trkpt lat="45.8148" lon="6.1452">
        <ele>562.5</ele>
        <time>2013-08-17T10:39:07Z</time>
      </trkpt>
      <trkpt lat="45.81478" lon="6.14516">
        <ele>562.8</ele>
        <time>2013-08-17T10:39:09Z</time>
      </trkpt>
      <trkpt lat="45.81465" lon="6.14508">
        <ele>563.4</ele>
        <time>2013-08-17T10:39:13Z</time>
      </trkpt>
      <trkpt lat="45.81462" lon="6.14506">
        <ele>563.5</ele>
        <time>2013-08-17T10:39:15Z</time>
      </trkpt>
      <trkpt lat="45.81455" lon="6.14503">
        <ele>563.8</ele>
        <time>2013-08-17T10:39:17Z</time>
      </trkpt>
      <trkpt lat="45.81452" lon="6.14502">
        <ele>564</ele>
        <time>2013-08-17T10:39:18Z</time>
      </trkpt>
      <trkpt lat="45.81449" lon="6.145">
        <ele>564.2</ele>
        <time>2013-08-17T10:39:19Z</time>
      </trkpt>
      <trkpt lat="45.81446" lon="6.14499">
        <ele>564.4</ele>
        <time>2013-08-17T10:39:20Z</time>
      </trkpt>
      <trkpt lat="45.81442" lon="6.14497">
        <ele>564.6</ele>
        <time>2013-08-17T10:39:21Z</time>
      </trkpt>
      <trkpt lat="45.81439" lon="6.14496">
        <ele>564.8</ele>
        <time>2013-08-17T10:39:22Z</time>
      </trkpt>
      <trkpt lat="45.81436" lon="6.14496">
        <ele>564.9</ele>
        <time>2013-08-17T10:39:23Z</time>
      </trkpt>
      <trkpt lat="45.81433" lon="6.14495">
        <ele>565.1</ele>
        <time>2013-08-17T10:39:24Z</time>
      </trkpt>
      <trkpt lat="45.81429" lon="6.14494">
        <ele>565.3</ele>
        <time>2013-08-17T10:39:26Z</time>
      </trkpt>
      <trkpt lat="45.81423" lon="6.14492">
        <ele>565.5</ele>
        <time>2013-08-17T10:39:28Z</time>
      </trkpt>
      <trkpt lat="45.81418" lon="6.14492">
        <ele>565.6</ele>
        <time>2013-08-17T10:39:30Z</time>
      </trkpt>
      <trkpt lat="45.81415" lon="6.14491">
        <ele>565.8</ele>
        <time>2013-08-17T10:39:31Z</time>
      </trkpt>
      <trkpt lat="45.81411" lon="6.14491">
        <ele>565.9</ele>
        <time>2013-08-17T10:39:32Z</time>
      </trkpt>
      <trkpt lat="45.81404" lon="6.14489">
        <ele>566.2</ele>
        <time>2013-08-17T10:39:34Z</time>
      </trkpt>
      <trkpt lat="45.81399" lon="6.14489">
        <ele>566.3</ele>
        <time>2013-08-17T10:39:35Z</time>
      </trkpt>
      <trkpt lat="45.81396" lon="6.14489">
        <ele>566.4</ele>
        <time>2013-08-17T10:39:36Z</time>
      </trkpt>
      <trkpt lat="45.81391" lon="6.14489">
        <ele>566.5</ele>
        <time>2013-08-17T10:39:37Z</time>
      </trkpt>
      <trkpt lat="45.81388" lon="6.14489">
        <ele>566.5</ele>
        <time>2013-08-17T10:39:38Z</time>
      </trkpt>
      <trkpt lat="45.81384" lon="6.1449">
        <ele>566.6</ele>
        <time>2013-08-17T10:39:39Z</time>
      </trkpt>
      <trkpt lat="45.81381" lon="6.14491">
        <ele>566.5</ele>
        <time>2013-08-17T10:39:40Z</time>
      </trkpt>
      <trkpt lat="45.81377" lon="6.14492">
        <ele>566.6</ele>
        <time>2013-08-17T10:39:41Z</time>
      </trkpt>
      <trkpt lat="45.81374" lon="6.14493">
        <ele>566.6</ele>
        <time>2013-08-17T10:39:42Z</time>
      </trkpt>
      <trkpt lat="45.8137" lon="6.14494">
        <ele>566.9</ele>
        <time>2013-08-17T10:39:43Z</time>
      </trkpt>
      <trkpt lat="45.81367" lon="6.14495">
        <ele>567</ele>
        <time>2013-08-17T10:39:44Z</time>
      </trkpt>
      <trkpt lat="45.81363" lon="6.14497">
        <ele>567.2</ele>
        <time>2013-08-17T10:39:45Z</time>
      </trkpt>
      <trkpt lat="45.81359" lon="6.14498">
        <ele>567.4</ele>
        <time>2013-08-17T10:39:46Z</time>
      </trkpt>
      <trkpt lat="45.81356" lon="6.14499">
        <ele>567.7</ele>
        <time>2013-08-17T10:39:47Z</time>
      </trkpt>
      <trkpt lat="45.81353" lon="6.14499">
        <ele>567.9</ele>
        <time>2013-08-17T10:39:48Z</time>
      </trkpt>
      <trkpt lat="45.81347" lon="6.14499">
        <ele>568.4</ele>
        <time>2013-08-17T10:39:49Z</time>
      </trkpt>
      <trkpt lat="45.81345" lon="6.145">
        <ele>568.6</ele>
        <time>2013-08-17T10:39:50Z</time>
      </trkpt>
      <trkpt lat="45.81341" lon="6.145">
        <ele>568.9</ele>
        <time>2013-08-17T10:39:52Z</time>
      </trkpt>
      <trkpt lat="45.81334" lon="6.14499">
        <ele>569.5</ele>
        <time>2013-08-17T10:39:54Z</time>
      </trkpt>
      <trkpt lat="45.81331" lon="6.145">
        <ele>569.7</ele>
        <time>2013-08-17T10:39:58Z</time>
      </trkpt>
      <trkpt lat="45.81333" lon="6.14502">
        <ele>569.4</ele>
        <time>2013-08-17T10:39:59Z</time>
      </trkpt>
      <trkpt lat="45.81338" lon="6.14506">
        <ele>568.7</ele>
        <time>2013-08-17T10:40:00Z</time>
      </trkpt>
      <trkpt lat="45.81358" lon="6.14506">
        <ele>567.1</ele>
        <time>2013-08-17T10:40:01Z</time>
      </trkpt>
      <trkpt lat="45.81377" lon="6.14506">
        <ele>565.5</ele>
        <time>2013-08-17T10:40:02Z</time>
      </trkpt>
      <trkpt lat="45.81383" lon="6.14502">
        <ele>565.6</ele>
        <time>2013-08-17T10:40:03Z</time>
      </trkpt>
      <trkpt lat="45.81391" lon="6.14498">
        <ele>565.8</ele>
        <time>2013-08-17T10:40:04Z</time>
      </trkpt>
      <trkpt lat="45.81399" lon="6.14495">
        <ele>565.9</ele>
        <time>2013-08-17T10:40:05Z</time>
      </trkpt>
      <trkpt lat="45.81409" lon="6.14495">
        <ele>565.6</ele>
        <time>2013-08-17T10:40:06Z</time>
      </trkpt>
      <trkpt lat="45.81415" lon="6.14496">
        <ele>565.4</ele>
        <time>2013-08-17T10:40:07Z</time>
      </trkpt>
      <trkpt lat="45.81424" lon="6.14499">
        <ele>564.9</ele>
        <time>2013-08-17T10:40:08Z</time>
      </trkpt>
      <trkpt lat="45.81432" lon="6.14503">
        <ele>564.4</ele>
        <time>2013-08-17T10:40:09Z</time>
      </trkpt>
      <trkpt lat="45.81441" lon="6.14505">
        <ele>563.9</ele>
        <time>2013-08-17T10:40:10Z</time>
      </trkpt>
      <trkpt lat="45.8145" lon="6.14509">
        <ele>563.4</ele>
        <time>2013-08-17T10:40:11Z</time>
      </trkpt>
      <trkpt lat="45.8146" lon="6.14512">
        <ele>562.9</ele>
        <time>2013-08-17T10:40:12Z</time>
      </trkpt>
      <trkpt lat="45.81471" lon="6.14518">
        <ele>562.5</ele>
        <time>2013-08-17T10:40:13Z</time>
      </trkpt>
      <trkpt lat="45.81476" lon="6.14521">
        <ele>562.3</ele>
        <time>2013-08-17T10:40:14Z</time>
      </trkpt>
      <trkpt lat="45.81489" lon="6.14525">
        <ele>562.1</ele>
        <time>2013-08-17T10:40:15Z</time>
      </trkpt>
      <trkpt lat="45.81499" lon="6.14528">
        <ele>561.9</ele>
        <time>2013-08-17T10:40:16Z</time>
      </trkpt>
      <trkpt lat="45.81511" lon="6.14529">
        <ele>562</ele>
        <time>2013-08-17T10:40:17Z</time>
      </trkpt>
      <trkpt lat="45.8152" lon="6.14529">
        <ele>562.2</ele>
        <time>2013-08-17T10:40:18Z</time>
      </trkpt>
      <trkpt lat="45.8153" lon="6.1453">
        <ele>562.3</ele>
        <time>2013-08-17T10:40:19Z</time>
      </trkpt>
      <trkpt lat="45.81542" lon="6.14529">
        <ele>562.5</ele>
        <time>2013-08-17T10:40:20Z</time>
      </trkpt>
      <trkpt lat="45.81553" lon="6.14525">
        <ele>563.2</ele>
        <time>2013-08-17T10:40:21Z</time>
      </trkpt>
      <trkpt lat="45.81564" lon="6.14524">
        <ele>563.5</ele>
        <time>2013-08-17T10:40:22Z</time>
      </trkpt>
      <trkpt lat="45.81576" lon="6.14522">
        <ele>564</ele>
        <time>2013-08-17T10:40:23Z</time>
      </trkpt>
      <trkpt lat="45.81583" lon="6.14525">
        <ele>563.6</ele>
        <time>2013-08-17T10:40:24Z</time>
      </trkpt>
      <trkpt lat="45.81591" lon="6.14527">
        <ele>563.4</ele>
        <time>2013-08-17T10:40:25Z</time>
      </trkpt>
      <trkpt lat="45.81597" lon="6.14533">
        <ele>562.5</ele>
        <time>2013-08-17T10:40:26Z</time>
      </trkpt>
      <trkpt lat="45.81602" lon="6.14537">
        <ele>561.9</ele>
        <time>2013-08-17T10:40:27Z</time>
      </trkpt>
      <trkpt lat="45.81603" lon="6.1454">
        <ele>561.2</ele>
        <time>2013-08-17T10:40:28Z</time>
      </trkpt>
      <trkpt lat="45.81599" lon="6.14556">
        <ele>557.8</ele>
        <time>2013-08-17T10:40:29Z</time>
      </trkpt>
      <trkpt lat="45.81594" lon="6.14578">
        <ele>553.3</ele>
        <time>2013-08-17T10:40:30Z</time>
      </trkpt>
      <trkpt lat="45.81588" lon="6.14587">
        <ele>551.5</ele>
        <time>2013-08-17T10:40:31Z</time>
      </trkpt>
      <trkpt lat="45.81584" lon="6.14597">
        <ele>549.6</ele>
        <time>2013-08-17T10:40:32Z</time>
      </trkpt>
      <trkpt lat="45.81584" lon="6.14609">
        <ele>547.3</ele>
        <time>2013-08-17T10:40:33Z</time>
      </trkpt>
      <trkpt lat="45.81591" lon="6.1463">
        <ele>543.4</ele>
        <time>2013-08-17T10:40:35Z</time>
      </trkpt>
      <trkpt lat="45.81602" lon="6.14638">
        <ele>542.5</ele>
        <time>2013-08-17T10:40:36Z</time>
      </trkpt>
      <trkpt lat="45.81615" lon="6.14646">
        <ele>541.5</ele>
        <time>2013-08-17T10:40:37Z</time>
      </trkpt>
      <trkpt lat="45.81624" lon="6.14651">
        <ele>540.7</ele>
        <time>2013-08-17T10:40:38Z</time>
      </trkpt>
      <trkpt lat="45.81632" lon="6.14658">
        <ele>540.5</ele>
        <time>2013-08-17T10:40:39Z</time>
      </trkpt>
      <trkpt lat="45.8164" lon="6.14666">
        <ele>540.3</ele>
        <time>2013-08-17T10:40:40Z</time>
      </trkpt>
      <trkpt lat="45.81647" lon="6.14672">
        <ele>540.1</ele>
        <time>2013-08-17T10:40:41Z</time>
      </trkpt>
      <trkpt lat="45.81654" lon="6.14675">
        <ele>540</ele>
        <time>2013-08-17T10:40:42Z</time>
      </trkpt>
      <trkpt lat="45.81662" lon="6.14676">
        <ele>539.8</ele>
        <time>2013-08-17T10:40:43Z</time>
      </trkpt>
      <trkpt lat="45.81671" lon="6.14677">
        <ele>539.7</ele>
        <time>2013-08-17T10:40:44Z</time>
      </trkpt>
      <trkpt lat="45.81681" lon="6.14674">
        <ele>539.6</ele>
        <time>2013-08-17T10:40:45Z</time>
      </trkpt>
      <trkpt lat="45.81689" lon="6.14672">
        <ele>539.6</ele>
        <time>2013-08-17T10:40:46Z</time>
      </trkpt>
      <trkpt lat="45.81698" lon="6.14671">
        <ele>539.5</ele>
        <time>2013-08-17T10:40:47Z</time>
      </trkpt>
      <trkpt lat="45.81705" lon="6.1467">
        <ele>539.4</ele>
        <time>2013-08-17T10:40:48Z</time>
      </trkpt>
      <trkpt lat="45.81716" lon="6.14671">
        <ele>539.7</ele>
        <time>2013-08-17T10:40:49Z</time>
      </trkpt>
      <trkpt lat="45.81725" lon="6.14672">
        <ele>539.9</ele>
        <time>2013-08-17T10:40:50Z</time>
      </trkpt>
      <trkpt lat="45.81734" lon="6.14676">
        <ele>540</ele>
        <time>2013-08-17T10:40:51Z</time>
      </trkpt>
      <trkpt lat="45.81742" lon="6.14678">
        <ele>540.1</ele>
        <time>2013-08-17T10:40:52Z</time>
      </trkpt>
      <trkpt lat="45.81751" lon="6.14682">
        <ele>540.1</ele>
        <time>2013-08-17T10:40:53Z</time>
      </trkpt>
      <trkpt lat="45.81758" lon="6.14685">
        <ele>540</ele>
        <time>2013-08-17T10:40:54Z</time>
      </trkpt>
      <trkpt lat="45.81764" lon="6.14686">
        <ele>540</ele>
        <time>2013-08-17T10:40:55Z</time>
      </trkpt>
      <trkpt lat="45.81773" lon="6.14686">
        <ele>540.1</ele>
        <time>2013-08-17T10:40:56Z</time>
      </trkpt>
      <trkpt lat="45.81777" lon="6.14689">
        <ele>539.8</ele>
        <time>2013-08-17T10:40:57Z</time>
      </trkpt>
      <trkpt lat="45.81774" lon="6.1469">
        <ele>539.6</ele>
        <time>2013-08-17T10:40:58Z</time>
      </trkpt>
      <trkpt lat="45.81773" lon="6.14695">
        <ele>539</ele>
        <time>2013-08-17T10:41:00Z</time>
      </trkpt>
      <trkpt lat="45.81772" lon="6.147">
        <ele>538.3</ele>
        <time>2013-08-17T10:41:02Z</time>
      </trkpt>
      <trkpt lat="45.81765" lon="6.14701">
        <ele>538.2</ele>
        <time>2013-08-17T10:41:06Z</time>
      </trkpt>
      <trkpt lat="45.81759" lon="6.14708">
        <ele>537.5</ele>
        <time>2013-08-17T10:41:09Z</time>
      </trkpt>
      <trkpt lat="45.81757" lon="6.1471">
        <ele>537.7</ele>
        <time>2013-08-17T10:41:10Z</time>
      </trkpt>
      <trkpt lat="45.81755" lon="6.14716">
        <ele>538.4</ele>
        <time>2013-08-17T10:41:11Z</time>
      </trkpt>
      <trkpt lat="45.81753" lon="6.14724">
        <ele>539.6</ele>
        <time>2013-08-17T10:41:15Z</time>
      </trkpt>
      <trkpt lat="45.81752" lon="6.14727">
        <ele>540</ele>
        <time>2013-08-17T10:41:24Z</time>
      </trkpt>
      <trkpt lat="45.81752" lon="6.14731">
        <ele>540.6</ele>
        <time>2013-08-17T10:41:25Z</time>
      </trkpt>
      <trkpt lat="45.81754" lon="6.14742">
        <ele>542.1</ele>
        <time>2013-08-17T10:41:29Z</time>
      </trkpt>
      <trkpt lat="45.81761" lon="6.14752">
        <ele>543.2</ele>
        <time>2013-08-17T10:41:30Z</time>
      </trkpt>
      <trkpt lat="45.81764" lon="6.14757">
        <ele>543.7</ele>
        <time>2013-08-17T10:41:32Z</time>
      </trkpt>
      <trkpt lat="45.81768" lon="6.1476">
        <ele>544</ele>
        <time>2013-08-17T10:41:33Z</time>
      </trkpt>
      <trkpt lat="45.81771" lon="6.14762">
        <ele>544.2</ele>
        <time>2013-08-17T10:41:34Z</time>
      </trkpt>
      <trkpt lat="45.81774" lon="6.14765">
        <ele>544.5</ele>
        <time>2013-08-17T10:41:35Z</time>
      </trkpt>
      <trkpt lat="45.81779" lon="6.1477">
        <ele>544.9</ele>
        <time>2013-08-17T10:41:36Z</time>
      </trkpt>
      <trkpt lat="45.81782" lon="6.14773">
        <ele>545.1</ele>
        <time>2013-08-17T10:41:37Z</time>
      </trkpt>
      <trkpt lat="45.81785" lon="6.14775">
        <ele>545.3</ele>
        <time>2013-08-17T10:41:38Z</time>
      </trkpt>
      <trkpt lat="45.81787" lon="6.14777">
        <ele>545.5</ele>
        <time>2013-08-17T10:41:39Z</time>
      </trkpt>
      <trkpt lat="45.8179" lon="6.1478">
        <ele>545.6</ele>
        <time>2013-08-17T10:41:40Z</time>
      </trkpt>
      <trkpt lat="45.81793" lon="6.14782">
        <ele>545.8</ele>
        <time>2013-08-17T10:41:41Z</time>
      </trkpt>
      <trkpt lat="45.81795" lon="6.14784">
        <ele>545.8</ele>
        <time>2013-08-17T10:41:42Z</time>
      </trkpt>
      <trkpt lat="45.81788" lon="6.14814">
        <ele>551</ele>
        <time>2013-08-17T10:41:48Z</time>
      </trkpt>
      <trkpt lat="45.81783" lon="6.14815">
        <ele>551.4</ele>
        <time>2013-08-17T10:41:50Z</time>
      </trkpt>
      <trkpt lat="45.81779" lon="6.14815">
        <ele>551.6</ele>
        <time>2013-08-17T10:41:51Z</time>
      </trkpt>
      <trkpt lat="45.81775" lon="6.14815">
        <ele>551.9</ele>
        <time>2013-08-17T10:41:52Z</time>
      </trkpt>
      <trkpt lat="45.81769" lon="6.14815">
        <ele>552.3</ele>
        <time>2013-08-17T10:41:53Z</time>
      </trkpt>
      <trkpt lat="45.81765" lon="6.14815">
        <ele>552.6</ele>
        <time>2013-08-17T10:41:54Z</time>
      </trkpt>
      <trkpt lat="45.81763" lon="6.14816">
        <ele>552.8</ele>
        <time>2013-08-17T10:41:55Z</time>
      </trkpt>
      <trkpt lat="45.8176" lon="6.14816">
        <ele>553</ele>
        <time>2013-08-17T10:42:11Z</time>
      </trkpt>
      <trkpt lat="45.81763" lon="6.14816">
        <ele>552.8</ele>
        <time>2013-08-17T10:42:12Z</time>
      </trkpt>
      <trkpt lat="45.81752" lon="6.14814">
        <ele>553.2</ele>
        <time>2013-08-17T10:42:13Z</time>
      </trkpt>
      <trkpt lat="45.81748" lon="6.14791">
        <ele>548.9</ele>
        <time>2013-08-17T10:42:15Z</time>
      </trkpt>
      <trkpt lat="45.81746" lon="6.14784">
        <ele>548.1</ele>
        <time>2013-08-17T10:42:16Z</time>
      </trkpt>
      <trkpt lat="45.81744" lon="6.14776">
        <ele>547.1</ele>
        <time>2013-08-17T10:42:17Z</time>
      </trkpt>
      <trkpt lat="45.81743" lon="6.14771">
        <ele>546.4</ele>
        <time>2013-08-17T10:42:18Z</time>
      </trkpt>
      <trkpt lat="45.81742" lon="6.14767">
        <ele>545.8</ele>
        <time>2013-08-17T10:42:19Z</time>
      </trkpt>
      <trkpt lat="45.81742" lon="6.14761">
        <ele>545.1</ele>
        <time>2013-08-17T10:42:21Z</time>
      </trkpt>
      <trkpt lat="45.81739" lon="6.14762">
        <ele>545.3</ele>
        <time>2013-08-17T10:42:36Z</time>
      </trkpt>
    </trkseg>
  </trk>
</gpx>